<?xml version='1.0' encoding='UTF-8'?><gpx version="1.1" creator="JPX - https://github.com/jenetics/jpx" xmlns="http://www.topografix.com/GPX/1/1"><trk><trkseg><trkpt lat="43.50359186003502" lon="11.384095884042749"><ele>387.0</ele><time>2026-03-29T07:20:43.999Z</time></trkpt><trkpt lat="43.50356017469272" lon="11.383988431400978"><ele>387.0</ele><time>2026-03-29T07:20:47.999Z</time></trkpt><trkpt lat="43.503570797455254" lon="11.383893426680071"><ele>387.0</ele><time>2026-03-29T07:20:50.999Z</time></trkpt><trkpt lat="43.503630558750196" lon="11.383795652952859"><ele>387.0</ele><time>2026-03-29T07:20:53.999Z</time></trkpt><trkpt lat="43.50368828516396" lon="11.383693440911143"><ele>387.0</ele><time>2026-03-29T07:20:55.999Z</time></trkpt><trkpt lat="43.50372966733091" lon="11.3835856985417"><ele>387.0</ele><time>2026-03-29T07:20:57.999Z</time></trkpt><trkpt lat="43.503774487509084" lon="11.383473692411473"><ele>388.6</ele><time>2026-03-29T07:20:59.999Z</time></trkpt><trkpt lat="43.50381212461266" lon="11.383350713250802"><ele>390.20000000000005</ele><time>2026-03-29T07:21:01.999Z</time></trkpt><trkpt lat="43.50386050325925" lon="11.383222441954848"><ele>391.8</ele><time>2026-03-29T07:21:03.999Z</time></trkpt><trkpt lat="43.50390719921536" lon="11.383110647858286"><ele>393.4</ele><time>2026-03-29T07:21:06Z</time></trkpt><trkpt lat="43.50391340324668" lon="11.382987234809901"><ele>395.0</ele><time>2026-03-29T07:21:08Z</time></trkpt><trkpt lat="43.50392685347564" lon="11.382870158438372"><ele>395.4</ele><time>2026-03-29T07:21:10Z</time></trkpt><trkpt lat="43.50395009735407" lon="11.38275451298546"><ele>395.8</ele><time>2026-03-29T07:21:12Z</time></trkpt><trkpt lat="43.503961496687" lon="11.382625559216512"><ele>396.20000000000005</ele><time>2026-03-29T07:21:14Z</time></trkpt><trkpt lat="43.503975120465455" lon="11.382477700842909"><ele>396.6</ele><time>2026-03-29T07:21:16Z</time></trkpt><trkpt lat="43.50399407897168" lon="11.382336142776737"><ele>397.0</ele><time>2026-03-29T07:21:18Z</time></trkpt><trkpt lat="43.50404699194525" lon="11.382267148521162"><ele>399.20000000000005</ele><time>2026-03-29T07:21:19Z</time></trkpt><trkpt lat="43.50408873975924" lon="11.382119552258986"><ele>401.4</ele><time>2026-03-29T07:21:21Z</time></trkpt><trkpt lat="43.504159165507254" lon="11.382002563524916"><ele>403.6</ele><time>2026-03-29T07:21:23Z</time></trkpt><trkpt lat="43.50421285566971" lon="11.381849122825592"><ele>405.79999999999995</ele><time>2026-03-29T07:21:25Z</time></trkpt><trkpt lat="43.50425257152991" lon="11.381756471197843"><ele>408.0</ele><time>2026-03-29T07:21:26Z</time></trkpt><trkpt lat="43.504272548909036" lon="11.381638354360687"><ele>408.0</ele><time>2026-03-29T07:21:27Z</time></trkpt><trkpt lat="43.50428169703082" lon="11.381520589833867"><ele>408.0</ele><time>2026-03-29T07:21:28Z</time></trkpt><trkpt lat="43.504288417566386" lon="11.381377845361548"><ele>408.0</ele><time>2026-03-29T07:21:29Z</time></trkpt><trkpt lat="43.50430453361202" lon="11.381215198574973"><ele>408.0</ele><time>2026-03-29T07:21:30Z</time></trkpt><trkpt lat="43.504323907416534" lon="11.381123706052362"><ele>408.0</ele><time>2026-03-29T07:21:31Z</time></trkpt><trkpt lat="43.504332198200956" lon="11.381033443176838"><ele>408.0</ele><time>2026-03-29T07:21:32Z</time></trkpt><trkpt lat="43.50434357667869" lon="11.3808674813312"><ele>409.3333333333333</ele><time>2026-03-29T07:21:34Z</time></trkpt><trkpt lat="43.5043557034005" lon="11.380777168958105"><ele>410.66666666666663</ele><time>2026-03-29T07:21:35Z</time></trkpt><trkpt lat="43.5043843905585" lon="11.380674478849802"><ele>412.0</ele><time>2026-03-29T07:21:36Z</time></trkpt><trkpt lat="43.504399605185675" lon="11.380557301491741"><ele>413.3333333333333</ele><time>2026-03-29T07:21:37Z</time></trkpt><trkpt lat="43.50441815362748" lon="11.38043469080448"><ele>414.66666666666663</ele><time>2026-03-29T07:21:38Z</time></trkpt><trkpt lat="43.50441618516174" lon="11.380325057056181"><ele>416.0</ele><time>2026-03-29T07:21:39Z</time></trkpt><trkpt lat="43.50443177836615" lon="11.380161855449861"><ele>416.99999999999994</ele><time>2026-03-29T07:21:41Z</time></trkpt><trkpt lat="43.50443451981461" lon="11.380019028918205"><ele>418.0</ele><time>2026-03-29T07:21:43Z</time></trkpt><trkpt lat="43.50445195377965" lon="11.379916978000091"><ele>419.0</ele><time>2026-03-29T07:21:45Z</time></trkpt><trkpt lat="43.504458418850376" lon="11.379771811916656"><ele>420.0</ele><time>2026-03-29T07:21:47Z</time></trkpt><trkpt lat="43.50446418881633" lon="11.379671979293768"><ele>420.99999999999994</ele><time>2026-03-29T07:21:49Z</time></trkpt><trkpt lat="43.50445395280745" lon="11.37956149236833"><ele>422.0</ele><time>2026-03-29T07:21:51Z</time></trkpt><trkpt lat="43.50446884720488" lon="11.379453267582639"><ele>422.8</ele><time>2026-03-29T07:21:53Z</time></trkpt><trkpt lat="43.504474339555266" lon="11.379291334209071"><ele>423.6</ele><time>2026-03-29T07:21:55Z</time></trkpt><trkpt lat="43.50448530716277" lon="11.379154395245934"><ele>424.40000000000003</ele><time>2026-03-29T07:21:57Z</time></trkpt><trkpt lat="43.50448847891785" lon="11.379060072846498"><ele>425.20000000000005</ele><time>2026-03-29T07:21:59Z</time></trkpt><trkpt lat="43.50447783329208" lon="11.378934440292731"><ele>426.0</ele><time>2026-03-29T07:22:01Z</time></trkpt><trkpt lat="43.50446330217225" lon="11.378802651117802"><ele>427.4</ele><time>2026-03-29T07:22:03Z</time></trkpt><trkpt lat="43.5044431908369" lon="11.378650389401665"><ele>428.8</ele><time>2026-03-29T07:22:05Z</time></trkpt><trkpt lat="43.50441722073157" lon="11.37851978749856"><ele>430.19999999999993</ele><time>2026-03-29T07:22:07Z</time></trkpt><trkpt lat="43.50439790802269" lon="11.378400740865523"><ele>431.59999999999997</ele><time>2026-03-29T07:22:09Z</time></trkpt><trkpt lat="43.504296508910215" lon="11.378445370911404"><ele>433.0</ele><time>2026-03-29T07:23:33Z</time></trkpt><trkpt lat="43.50435959639945" lon="11.378466965739461"><ele>433.00000000000006</ele><time>2026-03-29T07:25:02.999Z</time></trkpt><trkpt lat="43.504276652201796" lon="11.378351493484589"><ele>433.0</ele><time>2026-03-29T07:26:27.999Z</time></trkpt><trkpt lat="43.50418337857078" lon="11.378352534137573"><ele>433.0</ele><time>2026-03-29T07:26:31.999Z</time></trkpt><trkpt lat="43.50411298866917" lon="11.37832107832127"><ele>433.0</ele><time>2026-03-29T07:26:33.999Z</time></trkpt><trkpt lat="43.504029532846374" lon="11.378291027936337"><ele>433.00000000000006</ele><time>2026-03-29T07:26:37.999Z</time></trkpt><trkpt lat="43.50395578527255" lon="11.378271611672119"><ele>433.0</ele><time>2026-03-29T07:26:39.999Z</time></trkpt><trkpt lat="43.50385715929662" lon="11.37822465752555"><ele>431.33333333333337</ele><time>2026-03-29T07:26:41.999Z</time></trkpt><trkpt lat="43.503745327045465" lon="11.378160771133572"><ele>429.6666666666667</ele><time>2026-03-29T07:26:43.999Z</time></trkpt><trkpt lat="43.503680748749034" lon="11.378103643276246"><ele>428.0</ele><time>2026-03-29T07:26:44.999Z</time></trkpt><trkpt lat="43.50361222505119" lon="11.378058643704822"><ele>426.33333333333337</ele><time>2026-03-29T07:26:45.999Z</time></trkpt><trkpt lat="43.50355301990326" lon="11.37802827936133"><ele>424.6666666666667</ele><time>2026-03-29T07:26:46.999Z</time></trkpt><trkpt lat="43.503490300207645" lon="11.377994875857699"><ele>423.0</ele><time>2026-03-29T07:26:47.999Z</time></trkpt><trkpt lat="43.50341558778621" lon="11.377975328225206"><ele>423.0</ele><time>2026-03-29T07:26:48.999Z</time></trkpt><trkpt lat="43.50332734071174" lon="11.377958649540743"><ele>423.0</ele><time>2026-03-29T07:26:49.999Z</time></trkpt><trkpt lat="43.503243442058775" lon="11.377953557682924"><ele>423.0</ele><time>2026-03-29T07:26:50.999Z</time></trkpt><trkpt lat="43.50316391490428" lon="11.37794855965325"><ele>423.0</ele><time>2026-03-29T07:26:51.999Z</time></trkpt><trkpt lat="43.50308890439512" lon="11.377942191438537"><ele>423.0</ele><time>2026-03-29T07:26:52.999Z</time></trkpt><trkpt lat="43.50302022377091" lon="11.377935522824849"><ele>423.0</ele><time>2026-03-29T07:26:53.999Z</time></trkpt><trkpt lat="43.502948182105285" lon="11.377930174133756"><ele>421.3333333333333</ele><time>2026-03-29T07:26:54.999Z</time></trkpt><trkpt lat="43.50286417527682" lon="11.377925865753861"><ele>419.66666666666663</ele><time>2026-03-29T07:26:55.999Z</time></trkpt><trkpt lat="43.50278718736564" lon="11.377916927572134"><ele>418.0</ele><time>2026-03-29T07:26:56.999Z</time></trkpt><trkpt lat="43.502710238233796" lon="11.377910955152954"><ele>416.3333333333333</ele><time>2026-03-29T07:26:57.999Z</time></trkpt><trkpt lat="43.50262238773921" lon="11.377903543724154"><ele>414.66666666666663</ele><time>2026-03-29T07:26:58.999Z</time></trkpt><trkpt lat="43.50252215280879" lon="11.377891773415158"><ele>413.0</ele><time>2026-03-29T07:26:59.999Z</time></trkpt><trkpt lat="43.5024251113107" lon="11.37786290593419"><ele>413.0</ele><time>2026-03-29T07:27:00.999Z</time></trkpt><trkpt lat="43.50233841947651" lon="11.377835206282947"><ele>413.0</ele><time>2026-03-29T07:27:01.999Z</time></trkpt><trkpt lat="43.50224128085251" lon="11.377795973919527"><ele>413.0</ele><time>2026-03-29T07:27:02.999Z</time></trkpt><trkpt lat="43.50213634029418" lon="11.377751240735693"><ele>413.0</ele><time>2026-03-29T07:27:03.999Z</time></trkpt><trkpt lat="43.5020270793329" lon="11.377700249007214"><ele>413.0</ele><time>2026-03-29T07:27:04.999Z</time></trkpt><trkpt lat="43.50193366708909" lon="11.37764039715496"><ele>413.59999999999997</ele><time>2026-03-29T07:27:05.999Z</time></trkpt><trkpt lat="43.50185118765212" lon="11.377568418945252"><ele>414.2</ele><time>2026-03-29T07:27:06.999Z</time></trkpt><trkpt lat="43.50176838658941" lon="11.377473095817413"><ele>414.8</ele><time>2026-03-29T07:27:07.999Z</time></trkpt><trkpt lat="43.50168741953987" lon="11.377361311677538"><ele>415.4</ele><time>2026-03-29T07:27:08.999Z</time></trkpt><trkpt lat="43.50161048525979" lon="11.377256502219751"><ele>416.0</ele><time>2026-03-29T07:27:09.999Z</time></trkpt><trkpt lat="43.50154000133248" lon="11.377156312169085"><ele>414.20000000000005</ele><time>2026-03-29T07:27:10.999Z</time></trkpt><trkpt lat="43.50147481367507" lon="11.377041851127347"><ele>412.40000000000003</ele><time>2026-03-29T07:27:11.999Z</time></trkpt><trkpt lat="43.501429100063454" lon="11.37692563583975"><ele>410.6</ele><time>2026-03-29T07:27:12.999Z</time></trkpt><trkpt lat="43.50139340469255" lon="11.376795838755681"><ele>408.8</ele><time>2026-03-29T07:27:13.999Z</time></trkpt><trkpt lat="43.50137814734986" lon="11.376651681561638"><ele>407.0</ele><time>2026-03-29T07:27:14.999Z</time></trkpt><trkpt lat="43.50137601598607" lon="11.376506409064119"><ele>407.0</ele><time>2026-03-29T07:27:15.999Z</time></trkpt><trkpt lat="43.501375450590174" lon="11.376369224802552"><ele>407.0</ele><time>2026-03-29T07:27:16.999Z</time></trkpt><trkpt lat="43.5013651529454" lon="11.376218303208763"><ele>407.0</ele><time>2026-03-29T07:27:17.999Z</time></trkpt><trkpt lat="43.50134390389554" lon="11.376057681563681"><ele>407.0</ele><time>2026-03-29T07:27:18.999Z</time></trkpt><trkpt lat="43.50131303957699" lon="11.375922039739544"><ele>407.0</ele><time>2026-03-29T07:27:19.999Z</time></trkpt><trkpt lat="43.50127062424119" lon="11.375799627560545"><ele>406.8</ele><time>2026-03-29T07:27:20.999Z</time></trkpt><trkpt lat="43.50121314024875" lon="11.375679086977726"><ele>406.6</ele><time>2026-03-29T07:27:21.999Z</time></trkpt><trkpt lat="43.50115514961832" lon="11.375569943182084"><ele>406.40000000000003</ele><time>2026-03-29T07:27:23Z</time></trkpt><trkpt lat="43.501064907847564" lon="11.375522557073857"><ele>406.20000000000005</ele><time>2026-03-29T07:27:24Z</time></trkpt><trkpt lat="43.50097834652343" lon="11.375462934499582"><ele>406.0</ele><time>2026-03-29T07:27:25Z</time></trkpt><trkpt lat="43.500860071947216" lon="11.375455428625612"><ele>403.5</ele><time>2026-03-29T07:27:26Z</time></trkpt><trkpt lat="43.50074904271046" lon="11.375427655084218"><ele>401.0</ele><time>2026-03-29T07:27:27Z</time></trkpt><trkpt lat="43.50063369718297" lon="11.375395901825152"><ele>398.5</ele><time>2026-03-29T07:27:28Z</time></trkpt><trkpt lat="43.50050271258004" lon="11.375366936416183"><ele>396.0</ele><time>2026-03-29T07:27:29Z</time></trkpt><trkpt lat="43.50035937668796" lon="11.375343370282813"><ele>395.75</ele><time>2026-03-29T07:27:30Z</time></trkpt><trkpt lat="43.50021625237935" lon="11.375314784269477"><ele>395.5</ele><time>2026-03-29T07:27:31Z</time></trkpt><trkpt lat="43.50009193178405" lon="11.37528490947626"><ele>395.25</ele><time>2026-03-29T07:27:32Z</time></trkpt><trkpt lat="43.49997801972779" lon="11.375259512181644"><ele>395.0</ele><time>2026-03-29T07:27:33Z</time></trkpt><trkpt lat="43.499864358132584" lon="11.37523286929787"><ele>395.0</ele><time>2026-03-29T07:27:34Z</time></trkpt><trkpt lat="43.499745891328985" lon="11.375209943520654"><ele>395.0</ele><time>2026-03-29T07:27:35Z</time></trkpt><trkpt lat="43.49962725286496" lon="11.375184117909352"><ele>395.0</ele><time>2026-03-29T07:27:36Z</time></trkpt><trkpt lat="43.49952012376562" lon="11.375163199048183"><ele>395.0</ele><time>2026-03-29T07:27:37Z</time></trkpt><trkpt lat="43.49940861642531" lon="11.375150445714716"><ele>394.0</ele><time>2026-03-29T07:27:38Z</time></trkpt><trkpt lat="43.499289662343536" lon="11.375145789983012"><ele>393.0</ele><time>2026-03-29T07:27:39Z</time></trkpt><trkpt lat="43.49916748351348" lon="11.375145814969414"><ele>392.0</ele><time>2026-03-29T07:27:40Z</time></trkpt><trkpt lat="43.49905356452732" lon="11.375148159753142"><ele>391.0</ele><time>2026-03-29T07:27:41Z</time></trkpt><trkpt lat="43.498946703546544" lon="11.375167073931237"><ele>391.0</ele><time>2026-03-29T07:27:42Z</time></trkpt><trkpt lat="43.4988470910398" lon="11.375194172420748"><ele>391.0</ele><time>2026-03-29T07:27:43Z</time></trkpt><trkpt lat="43.498755583958115" lon="11.375232623990135"><ele>391.0</ele><time>2026-03-29T07:27:44Z</time></trkpt><trkpt lat="43.49866642682089" lon="11.37526114463186"><ele>391.0</ele><time>2026-03-29T07:27:45Z</time></trkpt><trkpt lat="43.49856361483521" lon="11.375287837803507"><ele>391.0</ele><time>2026-03-29T07:27:46Z</time></trkpt><trkpt lat="43.49847572424726" lon="11.375321575078653"><ele>390.50000000000006</ele><time>2026-03-29T07:27:47Z</time></trkpt><trkpt lat="43.498411103875355" lon="11.37538289404455"><ele>390.0</ele><time>2026-03-29T07:27:48Z</time></trkpt><trkpt lat="43.49838186865282" lon="11.37548228605707"><ele>389.5</ele><time>2026-03-29T07:27:49Z</time></trkpt><trkpt lat="43.49837173920521" lon="11.375595416866021"><ele>389.0</ele><time>2026-03-29T07:27:50Z</time></trkpt><trkpt lat="43.4983810290652" lon="11.37571217779551"><ele>388.50000000000006</ele><time>2026-03-29T07:27:51Z</time></trkpt><trkpt lat="43.49840984689216" lon="11.375840248162032"><ele>388.0</ele><time>2026-03-29T07:27:52Z</time></trkpt><trkpt lat="43.49845040962854" lon="11.375971633905253"><ele>387.59999999999997</ele><time>2026-03-29T07:27:53Z</time></trkpt><trkpt lat="43.498483239115124" lon="11.376079756738267"><ele>387.2</ele><time>2026-03-29T07:27:54Z</time></trkpt><trkpt lat="43.4985059588398" lon="11.376186547717994"><ele>386.8</ele><time>2026-03-29T07:27:55Z</time></trkpt><trkpt lat="43.498514816065395" lon="11.376278785641254"><ele>386.4</ele><time>2026-03-29T07:27:56Z</time></trkpt><trkpt lat="43.49845514787674" lon="11.376427353696318"><ele>386.0</ele><time>2026-03-29T07:27:58Z</time></trkpt><trkpt lat="43.49832480769704" lon="11.376407954281238"><ele>386.0</ele><time>2026-03-29T07:28:00Z</time></trkpt><trkpt lat="43.49824840182" lon="11.376341018404318"><ele>386.0</ele><time>2026-03-29T07:28:01Z</time></trkpt><trkpt lat="43.4981469831035" lon="11.376273539232741"><ele>386.0</ele><time>2026-03-29T07:28:02Z</time></trkpt><trkpt lat="43.49802544722573" lon="11.376175653392304"><ele>386.0</ele><time>2026-03-29T07:28:03Z</time></trkpt><trkpt lat="43.49786980847116" lon="11.376085876214844"><ele>382.5</ele><time>2026-03-29T07:28:04Z</time></trkpt><trkpt lat="43.49773211658342" lon="11.37597540739152"><ele>379.0</ele><time>2026-03-29T07:28:05Z</time></trkpt><trkpt lat="43.49761307711167" lon="11.375879215848641"><ele>375.5</ele><time>2026-03-29T07:28:06Z</time></trkpt><trkpt lat="43.497501742640154" lon="11.37579055086009"><ele>372.0</ele><time>2026-03-29T07:28:07Z</time></trkpt><trkpt lat="43.49740325635064" lon="11.375693368590081"><ele>372.0</ele><time>2026-03-29T07:28:08Z</time></trkpt><trkpt lat="43.4973034833546" lon="11.375569737240404"><ele>372.0</ele><time>2026-03-29T07:28:09Z</time></trkpt><trkpt lat="43.49720128832944" lon="11.375419352867471"><ele>372.0</ele><time>2026-03-29T07:28:10Z</time></trkpt><trkpt lat="43.49710277792245" lon="11.375248732279276"><ele>372.0</ele><time>2026-03-29T07:28:11Z</time></trkpt><trkpt lat="43.497009539652446" lon="11.375072345012407"><ele>371.0</ele><time>2026-03-29T07:28:12Z</time></trkpt><trkpt lat="43.49692996121866" lon="11.374909686999883"><ele>370.0</ele><time>2026-03-29T07:28:13Z</time></trkpt><trkpt lat="43.496861203745674" lon="11.374754130024304"><ele>369.0</ele><time>2026-03-29T07:28:14Z</time></trkpt><trkpt lat="43.49680106458825" lon="11.374595695665374"><ele>368.0</ele><time>2026-03-29T07:28:15Z</time></trkpt><trkpt lat="43.49672683602661" lon="11.374451812948944"><ele>368.0</ele><time>2026-03-29T07:28:16Z</time></trkpt><trkpt lat="43.49662679608764" lon="11.374337053687423"><ele>368.0</ele><time>2026-03-29T07:28:17Z</time></trkpt><trkpt lat="43.496527472065466" lon="11.374249885699966"><ele>368.0</ele><time>2026-03-29T07:28:18Z</time></trkpt><trkpt lat="43.49643755379208" lon="11.374164164184458"><ele>368.0</ele><time>2026-03-29T07:28:19Z</time></trkpt><trkpt lat="43.49636915486107" lon="11.374057706942441"><ele>368.0</ele><time>2026-03-29T07:28:20Z</time></trkpt><trkpt lat="43.496316810695525" lon="11.37392382300355"><ele>368.0</ele><time>2026-03-29T07:28:21Z</time></trkpt><trkpt lat="43.49626849713089" lon="11.373767656086732"><ele>368.0</ele><time>2026-03-29T07:28:22Z</time></trkpt><trkpt lat="43.49621087069606" lon="11.373612547307395"><ele>368.0</ele><time>2026-03-29T07:28:23Z</time></trkpt><trkpt lat="43.496130831380526" lon="11.373496556847762"><ele>365.5</ele><time>2026-03-29T07:28:24Z</time></trkpt><trkpt lat="43.49603004942227" lon="11.373393206829803"><ele>363.0</ele><time>2026-03-29T07:28:25Z</time></trkpt><trkpt lat="43.49591150305468" lon="11.373306104102568"><ele>360.5</ele><time>2026-03-29T07:28:26Z</time></trkpt><trkpt lat="43.49579701055767" lon="11.373239664216278"><ele>358.0</ele><time>2026-03-29T07:28:27Z</time></trkpt><trkpt lat="43.49570039226201" lon="11.373154100453936"><ele>358.0</ele><time>2026-03-29T07:28:28Z</time></trkpt><trkpt lat="43.49562249818152" lon="11.373045713385434"><ele>358.0</ele><time>2026-03-29T07:28:29Z</time></trkpt><trkpt lat="43.495561700877424" lon="11.372923936607961"><ele>358.0</ele><time>2026-03-29T07:28:29.999Z</time></trkpt><trkpt lat="43.495515719710866" lon="11.372785331152265"><ele>358.0</ele><time>2026-03-29T07:28:30.999Z</time></trkpt><trkpt lat="43.49548011057249" lon="11.37262575094302"><ele>358.0</ele><time>2026-03-29T07:28:31.999Z</time></trkpt><trkpt lat="43.495460852198626" lon="11.372465623692037"><ele>358.0</ele><time>2026-03-29T07:28:32.999Z</time></trkpt><trkpt lat="43.49546334670491" lon="11.372317093045316"><ele>358.0</ele><time>2026-03-29T07:28:33.999Z</time></trkpt><trkpt lat="43.49548760110657" lon="11.37215924095408"><ele>358.0</ele><time>2026-03-29T07:28:34.999Z</time></trkpt><trkpt lat="43.49552738084301" lon="11.371990352087357"><ele>357.2</ele><time>2026-03-29T07:28:35.999Z</time></trkpt><trkpt lat="43.4955743567382" lon="11.371835207048724"><ele>356.4</ele><time>2026-03-29T07:28:36.999Z</time></trkpt><trkpt lat="43.4956113777602" lon="11.371694414750893"><ele>355.59999999999997</ele><time>2026-03-29T07:28:37.999Z</time></trkpt><trkpt lat="43.495652254372864" lon="11.371564438623139"><ele>354.79999999999995</ele><time>2026-03-29T07:28:38.999Z</time></trkpt><trkpt lat="43.49569210125539" lon="11.371438484061608"><ele>354.0</ele><time>2026-03-29T07:28:39.999Z</time></trkpt><trkpt lat="43.49573255346075" lon="11.371291025773665"><ele>354.0</ele><time>2026-03-29T07:28:40.999Z</time></trkpt><trkpt lat="43.49576506497596" lon="11.371147194980407"><ele>354.0</ele><time>2026-03-29T07:28:41.999Z</time></trkpt><trkpt lat="43.49579598636486" lon="11.37102695879955"><ele>354.0</ele><time>2026-03-29T07:28:42.999Z</time></trkpt><trkpt lat="43.49582481813852" lon="11.37090933795812"><ele>354.0</ele><time>2026-03-29T07:28:43.999Z</time></trkpt><trkpt lat="43.495879586440104" lon="11.370809989046224"><ele>354.0</ele><time>2026-03-29T07:28:44.999Z</time></trkpt><trkpt lat="43.495880050378744" lon="11.370650502764613"><ele>353.4</ele><time>2026-03-29T07:28:45.999Z</time></trkpt><trkpt lat="43.495847268858356" lon="11.370514160080516"><ele>352.79999999999995</ele><time>2026-03-29T07:28:46.999Z</time></trkpt><trkpt lat="43.49578202611532" lon="11.370412806411197"><ele>352.20000000000005</ele><time>2026-03-29T07:28:47.999Z</time></trkpt><trkpt lat="43.49569682225773" lon="11.37034911753587"><ele>351.6</ele><time>2026-03-29T07:28:48.999Z</time></trkpt><trkpt lat="43.495621239267585" lon="11.370263146044055"><ele>351.0</ele><time>2026-03-29T07:28:49.999Z</time></trkpt><trkpt lat="43.495534578375604" lon="11.370176073577207"><ele>351.0</ele><time>2026-03-29T07:28:50.999Z</time></trkpt><trkpt lat="43.49544495212436" lon="11.370084056355655"><ele>351.0</ele><time>2026-03-29T07:28:51.999Z</time></trkpt><trkpt lat="43.49536776751357" lon="11.36997082103113"><ele>351.0</ele><time>2026-03-29T07:28:52.999Z</time></trkpt><trkpt lat="43.49527462758525" lon="11.369868868275491"><ele>351.0</ele><time>2026-03-29T07:28:53.999Z</time></trkpt><trkpt lat="43.495172877883334" lon="11.369759307391895"><ele>348.5</ele><time>2026-03-29T07:28:54.999Z</time></trkpt><trkpt lat="43.49505515914948" lon="11.369664538636044"><ele>346.0</ele><time>2026-03-29T07:28:55.999Z</time></trkpt><trkpt lat="43.49494962940755" lon="11.369560971881942"><ele>343.5</ele><time>2026-03-29T07:28:56.999Z</time></trkpt><trkpt lat="43.4948484379145" lon="11.369487780535454"><ele>341.0</ele><time>2026-03-29T07:28:57.999Z</time></trkpt><trkpt lat="43.49475403325838" lon="11.369438218435336"><ele>341.0</ele><time>2026-03-29T07:28:58.999Z</time></trkpt><trkpt lat="43.494652101968526" lon="11.369405964068974"><ele>341.0</ele><time>2026-03-29T07:28:59.999Z</time></trkpt><trkpt lat="43.49454297116897" lon="11.36938331237501"><ele>341.0</ele><time>2026-03-29T07:29:00.999Z</time></trkpt><trkpt lat="43.49442865966053" lon="11.369358675466641"><ele>341.0</ele><time>2026-03-29T07:29:01.999Z</time></trkpt><trkpt lat="43.49430353599919" lon="11.369324745303578"><ele>342.75</ele><time>2026-03-29T07:29:02.999Z</time></trkpt><trkpt lat="43.49417055124644" lon="11.369288223882572"><ele>344.5</ele><time>2026-03-29T07:29:03.999Z</time></trkpt><trkpt lat="43.49403329896063" lon="11.369252051509344"><ele>346.25</ele><time>2026-03-29T07:29:04.999Z</time></trkpt><trkpt lat="43.49390847744404" lon="11.369214586524793"><ele>348.0</ele><time>2026-03-29T07:29:05.999Z</time></trkpt><trkpt lat="43.49376586979132" lon="11.369184731615368"><ele>351.6666666666667</ele><time>2026-03-29T07:29:06.999Z</time></trkpt><trkpt lat="43.493622096463454" lon="11.369150827292394"><ele>355.33333333333337</ele><time>2026-03-29T07:29:07.999Z</time></trkpt><trkpt lat="43.49346783164578" lon="11.369115300762525"><ele>359.0</ele><time>2026-03-29T07:29:08.999Z</time></trkpt><trkpt lat="43.493312146554764" lon="11.369075820306952"><ele>359.0</ele><time>2026-03-29T07:29:09.999Z</time></trkpt><trkpt lat="43.49315471558998" lon="11.369023821674142"><ele>359.0</ele><time>2026-03-29T07:29:10.999Z</time></trkpt><trkpt lat="43.492992097543286" lon="11.36895844702857"><ele>359.0</ele><time>2026-03-29T07:29:11.999Z</time></trkpt><trkpt lat="43.4928500832148" lon="11.368897663269328"><ele>363.0</ele><time>2026-03-29T07:29:12.999Z</time></trkpt><trkpt lat="43.492723787576836" lon="11.368850884337178"><ele>367.0</ele><time>2026-03-29T07:29:13.999Z</time></trkpt><trkpt lat="43.49259693546465" lon="11.368800491001705"><ele>371.0</ele><time>2026-03-29T07:29:14.999Z</time></trkpt><trkpt lat="43.49246981774567" lon="11.368738943479865"><ele>375.0</ele><time>2026-03-29T07:29:15.999Z</time></trkpt><trkpt lat="43.492349358522574" lon="11.368655125750326"><ele>375.0</ele><time>2026-03-29T07:29:16.999Z</time></trkpt><trkpt lat="43.4922360685503" lon="11.368552122254833"><ele>375.0</ele><time>2026-03-29T07:29:17.999Z</time></trkpt><trkpt lat="43.49212458859622" lon="11.368436264781971"><ele>375.0</ele><time>2026-03-29T07:29:18.999Z</time></trkpt><trkpt lat="43.49200816325552" lon="11.368317568632538"><ele>375.0</ele><time>2026-03-29T07:29:19.999Z</time></trkpt><trkpt lat="43.49188272175038" lon="11.368196148457416"><ele>377.5</ele><time>2026-03-29T07:29:20.999Z</time></trkpt><trkpt lat="43.49175342018181" lon="11.368064051131133"><ele>380.0</ele><time>2026-03-29T07:29:21.999Z</time></trkpt><trkpt lat="43.491624890390945" lon="11.367935636663379"><ele>382.5</ele><time>2026-03-29T07:29:22.999Z</time></trkpt><trkpt lat="43.49151804212402" lon="11.367834771393925"><ele>385.0</ele><time>2026-03-29T07:29:23.999Z</time></trkpt><trkpt lat="43.49141221705272" lon="11.367746176599315"><ele>387.75</ele><time>2026-03-29T07:29:24.999Z</time></trkpt><trkpt lat="43.49130005791517" lon="11.367675043791444"><ele>390.5</ele><time>2026-03-29T07:29:25.999Z</time></trkpt><trkpt lat="43.49118497215945" lon="11.367621007197924"><ele>393.25</ele><time>2026-03-29T07:29:26.999Z</time></trkpt><trkpt lat="43.49108307891837" lon="11.367567382048044"><ele>396.0</ele><time>2026-03-29T07:29:27.999Z</time></trkpt><trkpt lat="43.490985250834555" lon="11.36755581003773"><ele>396.20000000000005</ele><time>2026-03-29T07:29:29Z</time></trkpt><trkpt lat="43.49089797398941" lon="11.367554768217822"><ele>396.40000000000003</ele><time>2026-03-29T07:29:30Z</time></trkpt><trkpt lat="43.4908213091024" lon="11.3675644105141"><ele>396.6</ele><time>2026-03-29T07:29:31Z</time></trkpt><trkpt lat="43.49070251033053" lon="11.367595584685702"><ele>396.8</ele><time>2026-03-29T07:29:33Z</time></trkpt><trkpt lat="43.49061207207444" lon="11.367596648401198"><ele>397.0</ele><time>2026-03-29T07:29:35Z</time></trkpt><trkpt lat="43.49053348196678" lon="11.367572602971139"><ele>397.00000000000006</ele><time>2026-03-29T07:29:37Z</time></trkpt><trkpt lat="43.490499605070774" lon="11.367698904244655"><ele>397.0</ele><time>2026-03-29T07:29:38Z</time></trkpt><trkpt lat="43.4904854911931" lon="11.367819393149452"><ele>397.0</ele><time>2026-03-29T07:29:40Z</time></trkpt><trkpt lat="43.4905026424039" lon="11.367904048923634"><ele>397.0</ele><time>2026-03-29T07:29:41Z</time></trkpt><trkpt lat="43.49053470999963" lon="11.36798631639063"><ele>397.00000000000006</ele><time>2026-03-29T07:29:42Z</time></trkpt><trkpt lat="43.490586832094124" lon="11.368051561420128"><ele>397.0</ele><time>2026-03-29T07:29:43Z</time></trkpt><trkpt lat="43.49065843464676" lon="11.368095939613065"><ele>396.8</ele><time>2026-03-29T07:29:44Z</time></trkpt><trkpt lat="43.49074294486538" lon="11.368135238062017"><ele>396.6</ele><time>2026-03-29T07:29:45Z</time></trkpt><trkpt lat="43.4908525976447" lon="11.368174685371539"><ele>396.40000000000003</ele><time>2026-03-29T07:29:46Z</time></trkpt><trkpt lat="43.49095326564826" lon="11.368222637656183"><ele>396.20000000000005</ele><time>2026-03-29T07:29:47Z</time></trkpt><trkpt lat="43.49105518569378" lon="11.368295910646479"><ele>396.0</ele><time>2026-03-29T07:29:48Z</time></trkpt><trkpt lat="43.49115978204591" lon="11.36839539508022"><ele>396.0</ele><time>2026-03-29T07:29:49Z</time></trkpt><trkpt lat="43.49125522455614" lon="11.368520437917633"><ele>396.0</ele><time>2026-03-29T07:29:50Z</time></trkpt><trkpt lat="43.49135012090653" lon="11.36866749862223"><ele>396.0</ele><time>2026-03-29T07:29:51Z</time></trkpt><trkpt lat="43.49144274165151" lon="11.36882173454463"><ele>396.0</ele><time>2026-03-29T07:29:52Z</time></trkpt><trkpt lat="43.491531841521144" lon="11.368986521560538"><ele>396.25</ele><time>2026-03-29T07:29:53Z</time></trkpt><trkpt lat="43.4916146566545" lon="11.369145616747419"><ele>396.5</ele><time>2026-03-29T07:29:54Z</time></trkpt><trkpt lat="43.49168455767769" lon="11.369289504388176"><ele>396.75</ele><time>2026-03-29T07:29:55Z</time></trkpt><trkpt lat="43.491750319142426" lon="11.369417416887996"><ele>397.0</ele><time>2026-03-29T07:29:56Z</time></trkpt><trkpt lat="43.4917923868717" lon="11.369564659633655"><ele>397.5</ele><time>2026-03-29T07:29:57Z</time></trkpt><trkpt lat="43.491822205226356" lon="11.369726796975439"><ele>398.0</ele><time>2026-03-29T07:29:58Z</time></trkpt><trkpt lat="43.491825969778574" lon="11.369902851206632"><ele>398.5</ele><time>2026-03-29T07:29:59Z</time></trkpt><trkpt lat="43.49180139392462" lon="11.37007157214089"><ele>399.0</ele><time>2026-03-29T07:30:00Z</time></trkpt><trkpt lat="43.49176004141385" lon="11.370251265781624"><ele>399.0</ele><time>2026-03-29T07:30:01Z</time></trkpt><trkpt lat="43.49170640839147" lon="11.370441149711352"><ele>399.0</ele><time>2026-03-29T07:30:02Z</time></trkpt><trkpt lat="43.49164760348677" lon="11.370614751320545"><ele>399.0</ele><time>2026-03-29T07:30:03Z</time></trkpt><trkpt lat="43.491574743165444" lon="11.370790179238332"><ele>399.0</ele><time>2026-03-29T07:30:04Z</time></trkpt><trkpt lat="43.49149381704189" lon="11.37093868595241"><ele>398.25</ele><time>2026-03-29T07:30:05Z</time></trkpt><trkpt lat="43.491414189078434" lon="11.37106724431618"><ele>397.5</ele><time>2026-03-29T07:30:06Z</time></trkpt><trkpt lat="43.49131280787377" lon="11.371191097833252"><ele>396.75</ele><time>2026-03-29T07:30:07Z</time></trkpt><trkpt lat="43.491188614057734" lon="11.37128093175094"><ele>396.0</ele><time>2026-03-29T07:30:08Z</time></trkpt><trkpt lat="43.49105159730966" lon="11.371342012562312"><ele>397.0</ele><time>2026-03-29T07:30:09Z</time></trkpt><trkpt lat="43.490903806731396" lon="11.371370305566167"><ele>398.0</ele><time>2026-03-29T07:30:10Z</time></trkpt><trkpt lat="43.490757024943804" lon="11.371371724028165"><ele>399.0</ele><time>2026-03-29T07:30:11Z</time></trkpt><trkpt lat="43.49063233730491" lon="11.371361376857356"><ele>400.0</ele><time>2026-03-29T07:30:12Z</time></trkpt><trkpt lat="43.490529981267244" lon="11.37138124355149"><ele>400.0</ele><time>2026-03-29T07:30:13Z</time></trkpt><trkpt lat="43.490442393262875" lon="11.371440927147884"><ele>400.0</ele><time>2026-03-29T07:30:14Z</time></trkpt><trkpt lat="43.49036849676719" lon="11.371529358433191"><ele>400.0</ele><time>2026-03-29T07:30:15Z</time></trkpt><trkpt lat="43.49033136209894" lon="11.371652272586937"><ele>400.0</ele><time>2026-03-29T07:30:16Z</time></trkpt><trkpt lat="43.49033251992191" lon="11.371797050895884"><ele>400.0</ele><time>2026-03-29T07:30:17Z</time></trkpt><trkpt lat="43.49036631978666" lon="11.371953599051633"><ele>400.0</ele><time>2026-03-29T07:30:18Z</time></trkpt><trkpt lat="43.49042769578951" lon="11.372119305537053"><ele>400.0</ele><time>2026-03-29T07:30:19Z</time></trkpt><trkpt lat="43.49050825896143" lon="11.372295607056754"><ele>400.0</ele><time>2026-03-29T07:30:20Z</time></trkpt><trkpt lat="43.490597918205914" lon="11.372482042489997"><ele>400.0</ele><time>2026-03-29T07:30:21Z</time></trkpt><trkpt lat="43.490684604716705" lon="11.37267187608754"><ele>400.5</ele><time>2026-03-29T07:30:22Z</time></trkpt><trkpt lat="43.49074558014501" lon="11.37284664192666"><ele>401.0</ele><time>2026-03-29T07:30:23Z</time></trkpt><trkpt lat="43.49078667665374" lon="11.373013289958465"><ele>401.5</ele><time>2026-03-29T07:30:24Z</time></trkpt><trkpt lat="43.49080589973546" lon="11.373183239392237"><ele>402.0</ele><time>2026-03-29T07:30:25Z</time></trkpt><trkpt lat="43.49079138823465" lon="11.373358243222619"><ele>404.0</ele><time>2026-03-29T07:30:26Z</time></trkpt><trkpt lat="43.49073994083275" lon="11.373531092694423"><ele>406.0</ele><time>2026-03-29T07:30:27Z</time></trkpt><trkpt lat="43.490668473213006" lon="11.373696954643759"><ele>408.0</ele><time>2026-03-29T07:30:28Z</time></trkpt><trkpt lat="43.49054343041271" lon="11.374065160015906"><ele>408.0</ele><time>2026-03-29T07:30:30Z</time></trkpt><trkpt lat="43.490493843695354" lon="11.374261437485961"><ele>408.0</ele><time>2026-03-29T07:30:31Z</time></trkpt><trkpt lat="43.49046013232443" lon="11.37443411223303"><ele>408.0</ele><time>2026-03-29T07:30:32Z</time></trkpt><trkpt lat="43.49043955772414" lon="11.374604960474723"><ele>408.0</ele><time>2026-03-29T07:30:33Z</time></trkpt><trkpt lat="43.49041921126567" lon="11.374793437775677"><ele>414.66666666666663</ele><time>2026-03-29T07:30:34Z</time></trkpt><trkpt lat="43.49039682057581" lon="11.374993785836534"><ele>421.3333333333333</ele><time>2026-03-29T07:30:34.999Z</time></trkpt><trkpt lat="43.49038096584476" lon="11.375200930539455"><ele>428.0</ele><time>2026-03-29T07:30:35.999Z</time></trkpt><trkpt lat="43.49038104826915" lon="11.375414210211844"><ele>428.25</ele><time>2026-03-29T07:30:36.999Z</time></trkpt><trkpt lat="43.49039166611992" lon="11.37562358944373"><ele>428.5</ele><time>2026-03-29T07:30:37.999Z</time></trkpt><trkpt lat="43.49041018765331" lon="11.375818638180919"><ele>428.75</ele><time>2026-03-29T07:30:38.999Z</time></trkpt><trkpt lat="43.49042918921575" lon="11.376023987603086"><ele>429.0</ele><time>2026-03-29T07:30:39.999Z</time></trkpt><trkpt lat="43.49045132664207" lon="11.376235128681389"><ele>424.33333333333337</ele><time>2026-03-29T07:30:40.999Z</time></trkpt><trkpt lat="43.490478391488985" lon="11.376450973746596"><ele>419.6666666666667</ele><time>2026-03-29T07:30:41.999Z</time></trkpt><trkpt lat="43.49050756587985" lon="11.376670797359427"><ele>415.0</ele><time>2026-03-29T07:30:42.999Z</time></trkpt><trkpt lat="43.49053590930659" lon="11.37689301708029"><ele>415.0</ele><time>2026-03-29T07:30:43.999Z</time></trkpt><trkpt lat="43.49056481833469" lon="11.377093600385608"><ele>415.0</ele><time>2026-03-29T07:30:44.999Z</time></trkpt><trkpt lat="43.4905898886394" lon="11.377278587017363"><ele>415.0</ele><time>2026-03-29T07:30:45.999Z</time></trkpt><trkpt lat="43.49061237529248" lon="11.377451011246459"><ele>415.0</ele><time>2026-03-29T07:30:46.999Z</time></trkpt><trkpt lat="43.490636249863066" lon="11.377633024692274"><ele>416.25</ele><time>2026-03-29T07:30:47.999Z</time></trkpt><trkpt lat="43.49066284893147" lon="11.37782158867553"><ele>417.5</ele><time>2026-03-29T07:30:48.999Z</time></trkpt><trkpt lat="43.49068919216839" lon="11.37801516090343"><ele>418.75</ele><time>2026-03-29T07:30:49.999Z</time></trkpt><trkpt lat="43.4907162228482" lon="11.378215121264027"><ele>420.0</ele><time>2026-03-29T07:30:50.999Z</time></trkpt><trkpt lat="43.490744103833585" lon="11.378423483585683"><ele>421.25</ele><time>2026-03-29T07:30:51.999Z</time></trkpt><trkpt lat="43.49076831881223" lon="11.37861653491365"><ele>422.5</ele><time>2026-03-29T07:30:52.999Z</time></trkpt><trkpt lat="43.49078046202946" lon="11.378791920361056"><ele>423.75</ele><time>2026-03-29T07:30:53.999Z</time></trkpt><trkpt lat="43.49077264043993" lon="11.37895179798761"><ele>425.0</ele><time>2026-03-29T07:30:54.999Z</time></trkpt><trkpt lat="43.490743717464746" lon="11.379115551264615"><ele>425.25</ele><time>2026-03-29T07:30:55.999Z</time></trkpt><trkpt lat="43.49069052350881" lon="11.37927838157073"><ele>425.5</ele><time>2026-03-29T07:30:56.999Z</time></trkpt><trkpt lat="43.49061847523864" lon="11.37943290002828"><ele>425.75</ele><time>2026-03-29T07:30:57.999Z</time></trkpt><trkpt lat="43.4905288820502" lon="11.379578868478925"><ele>426.0</ele><time>2026-03-29T07:30:58.999Z</time></trkpt><trkpt lat="43.49043352256595" lon="11.379725607311855"><ele>429.5</ele><time>2026-03-29T07:30:59.999Z</time></trkpt><trkpt lat="43.49034879211001" lon="11.379882888197264"><ele>433.0</ele><time>2026-03-29T07:31:00.999Z</time></trkpt><trkpt lat="43.490293506452325" lon="11.380032876978202"><ele>436.5</ele><time>2026-03-29T07:31:01.999Z</time></trkpt><trkpt lat="43.49025038929968" lon="11.380173387927288"><ele>440.0</ele><time>2026-03-29T07:31:02.999Z</time></trkpt><trkpt lat="43.49021237508467" lon="11.38032287066312"><ele>440.0</ele><time>2026-03-29T07:31:03.999Z</time></trkpt><trkpt lat="43.49017640343798" lon="11.380474921850766"><ele>440.0</ele><time>2026-03-29T07:31:04.999Z</time></trkpt><trkpt lat="43.490162509255285" lon="11.38063809503348"><ele>440.0</ele><time>2026-03-29T07:31:05.999Z</time></trkpt><trkpt lat="43.49017571872427" lon="11.38081063510894"><ele>440.0</ele><time>2026-03-29T07:31:06.999Z</time></trkpt><trkpt lat="43.49021832042391" lon="11.380975301241335"><ele>441.0</ele><time>2026-03-29T07:31:07.999Z</time></trkpt><trkpt lat="43.49028487294217" lon="11.38112869668805"><ele>442.0</ele><time>2026-03-29T07:31:08.999Z</time></trkpt><trkpt lat="43.49036565510953" lon="11.381271542722633"><ele>443.0</ele><time>2026-03-29T07:31:09.999Z</time></trkpt><trkpt lat="43.49044599712531" lon="11.381418132471836"><ele>444.0</ele><time>2026-03-29T07:31:10.999Z</time></trkpt><trkpt lat="43.4904995833225" lon="11.381558647095522"><ele>444.25</ele><time>2026-03-29T07:31:11.999Z</time></trkpt><trkpt lat="43.49053656759824" lon="11.381708448160483"><ele>444.5</ele><time>2026-03-29T07:31:12.999Z</time></trkpt><trkpt lat="43.490574240122534" lon="11.381873769903994"><ele>444.75</ele><time>2026-03-29T07:31:13.999Z</time></trkpt><trkpt lat="43.490624212660556" lon="11.382042312190364"><ele>445.0</ele><time>2026-03-29T07:31:14.999Z</time></trkpt><trkpt lat="43.490695719353646" lon="11.382185532853432"><ele>445.0</ele><time>2026-03-29T07:31:15.999Z</time></trkpt><trkpt lat="43.490775689373095" lon="11.38229102069292"><ele>445.0</ele><time>2026-03-29T07:31:16.999Z</time></trkpt><trkpt lat="43.490862944612765" lon="11.382372212714388"><ele>445.0</ele><time>2026-03-29T07:31:17.999Z</time></trkpt><trkpt lat="43.49096077525725" lon="11.382440331637719"><ele>445.0</ele><time>2026-03-29T07:31:18.999Z</time></trkpt><trkpt lat="43.491069202448585" lon="11.382496632923528"><ele>445.0</ele><time>2026-03-29T07:31:19.999Z</time></trkpt><trkpt lat="43.4911651982316" lon="11.38259014836353"><ele>445.0</ele><time>2026-03-29T07:31:20.999Z</time></trkpt><trkpt lat="43.49123489029916" lon="11.38272947033773"><ele>445.0</ele><time>2026-03-29T07:31:21.999Z</time></trkpt><trkpt lat="43.49127177953368" lon="11.382903806786643"><ele>445.0</ele><time>2026-03-29T07:31:22.999Z</time></trkpt><trkpt lat="43.49128764746605" lon="11.383089995427524"><ele>445.0</ele><time>2026-03-29T07:31:23.999Z</time></trkpt><trkpt lat="43.49127383370817" lon="11.383282441964223"><ele>447.75</ele><time>2026-03-29T07:31:24.999Z</time></trkpt><trkpt lat="43.49124137564399" lon="11.383484896522747"><ele>450.5</ele><time>2026-03-29T07:31:25.999Z</time></trkpt><trkpt lat="43.491201261316576" lon="11.383653953791864"><ele>453.25</ele><time>2026-03-29T07:31:26.999Z</time></trkpt><trkpt lat="43.49114591627844" lon="11.383819021565882"><ele>456.0</ele><time>2026-03-29T07:31:27.999Z</time></trkpt><trkpt lat="43.4910700443305" lon="11.383974319414433"><ele>456.25</ele><time>2026-03-29T07:31:28.999Z</time></trkpt><trkpt lat="43.490979897241594" lon="11.384116244538713"><ele>456.5</ele><time>2026-03-29T07:31:29.999Z</time></trkpt><trkpt lat="43.49089061415365" lon="11.384224924034452"><ele>456.75</ele><time>2026-03-29T07:31:30.999Z</time></trkpt><trkpt lat="43.490796274545716" lon="11.384334643430305"><ele>457.0</ele><time>2026-03-29T07:31:31.999Z</time></trkpt><trkpt lat="43.49069034423334" lon="11.384440473213255"><ele>457.0</ele><time>2026-03-29T07:31:32.999Z</time></trkpt><trkpt lat="43.490585830799155" lon="11.384551079947983"><ele>457.00000000000006</ele><time>2026-03-29T07:31:33.999Z</time></trkpt><trkpt lat="43.49050021575793" lon="11.384647249090396"><ele>457.00000000000006</ele><time>2026-03-29T07:31:35Z</time></trkpt><trkpt lat="43.490430168323" lon="11.384723487135592"><ele>457.0</ele><time>2026-03-29T07:31:36Z</time></trkpt><trkpt lat="43.490358451041544" lon="11.384788371187733"><ele>457.0</ele><time>2026-03-29T07:31:37Z</time></trkpt><trkpt lat="43.49029345560062" lon="11.384863125660356"><ele>457.1666666666667</ele><time>2026-03-29T07:31:38Z</time></trkpt><trkpt lat="43.490220539096576" lon="11.384940576889711"><ele>457.33333333333337</ele><time>2026-03-29T07:31:39Z</time></trkpt><trkpt lat="43.49015480999599" lon="11.385017858717015"><ele>457.5</ele><time>2026-03-29T07:31:40Z</time></trkpt><trkpt lat="43.490092376648775" lon="11.385086220837922"><ele>457.66666666666663</ele><time>2026-03-29T07:31:41Z</time></trkpt><trkpt lat="43.49002965927121" lon="11.385165580372888"><ele>457.8333333333333</ele><time>2026-03-29T07:31:42Z</time></trkpt><trkpt lat="43.489967814561375" lon="11.385264651182974"><ele>458.0</ele><time>2026-03-29T07:31:43Z</time></trkpt><trkpt lat="43.48991644036662" lon="11.3853767495369"><ele>458.0</ele><time>2026-03-29T07:31:44Z</time></trkpt><trkpt lat="43.48988012361206" lon="11.385506661404598"><ele>457.99999999999994</ele><time>2026-03-29T07:31:45Z</time></trkpt><trkpt lat="43.489846864712305" lon="11.385630396797739"><ele>457.99999999999994</ele><time>2026-03-29T07:31:46Z</time></trkpt><trkpt lat="43.489816430973235" lon="11.385733604342906"><ele>458.0</ele><time>2026-03-29T07:31:47Z</time></trkpt><trkpt lat="43.489787220771944" lon="11.38582769481209"><ele>458.0</ele><time>2026-03-29T07:31:48Z</time></trkpt><trkpt lat="43.48974118492109" lon="11.385973758001128"><ele>458.2</ele><time>2026-03-29T07:31:50Z</time></trkpt><trkpt lat="43.48971494529886" lon="11.386085749591512"><ele>458.4</ele><time>2026-03-29T07:31:52Z</time></trkpt><trkpt lat="43.489645618279035" lon="11.386228746961708"><ele>458.59999999999997</ele><time>2026-03-29T07:31:54Z</time></trkpt><trkpt lat="43.489627354810175" lon="11.38632389057637"><ele>458.79999999999995</ele><time>2026-03-29T07:31:55Z</time></trkpt><trkpt lat="43.489639749879984" lon="11.38641998843008"><ele>459.0</ele><time>2026-03-29T07:31:56Z</time></trkpt><trkpt lat="43.48959611194872" lon="11.386552587006696"><ele>456.79999999999995</ele><time>2026-03-29T07:31:58Z</time></trkpt><trkpt lat="43.48955665435817" lon="11.386724668030638"><ele>454.59999999999997</ele><time>2026-03-29T07:32:00Z</time></trkpt><trkpt lat="43.489536122741" lon="11.386829773428992"><ele>452.4</ele><time>2026-03-29T07:32:01Z</time></trkpt><trkpt lat="43.48952035369447" lon="11.386951549690544"><ele>450.2</ele><time>2026-03-29T07:32:02Z</time></trkpt><trkpt lat="43.48950842109327" lon="11.387079193053765"><ele>448.0</ele><time>2026-03-29T07:32:03Z</time></trkpt><trkpt lat="43.48949804316471" lon="11.387190758928284"><ele>448.0</ele><time>2026-03-29T07:32:04Z</time></trkpt><trkpt lat="43.48949276003315" lon="11.387298153338593"><ele>447.99999999999994</ele><time>2026-03-29T07:32:05Z</time></trkpt><trkpt lat="43.489484488904736" lon="11.387425672474302"><ele>447.99999999999994</ele><time>2026-03-29T07:32:06Z</time></trkpt><trkpt lat="43.48947369370571" lon="11.387539017247121"><ele>448.0</ele><time>2026-03-29T07:32:07Z</time></trkpt><trkpt lat="43.48946856683368" lon="11.387709202216401"><ele>448.0</ele><time>2026-03-29T07:32:09Z</time></trkpt><trkpt lat="43.48949611967064" lon="11.387802536750202"><ele>448.00000000000006</ele><time>2026-03-29T07:32:10Z</time></trkpt><trkpt lat="43.48953061388741" lon="11.387900168898662"><ele>448.0</ele><time>2026-03-29T07:32:11Z</time></trkpt><trkpt lat="43.48953837645053" lon="11.388006519085721"><ele>448.0</ele><time>2026-03-29T07:32:12Z</time></trkpt><trkpt lat="43.48952236133562" lon="11.388129230345953"><ele>448.0</ele><time>2026-03-29T07:32:14Z</time></trkpt><trkpt lat="43.48954844507866" lon="11.388224401497691"><ele>448.00000000000006</ele><time>2026-03-29T07:32:40.999Z</time></trkpt><trkpt lat="43.48960553283401" lon="11.388183227831936"><ele>448.0</ele><time>2026-03-29T07:32:47.999Z</time></trkpt><trkpt lat="43.489656553526395" lon="11.388127757671855"><ele>448.42857142857144</ele><time>2026-03-29T07:33:07.999Z</time></trkpt><trkpt lat="43.489584447139706" lon="11.388076913399672"><ele>448.8571428571429</ele><time>2026-03-29T07:33:13.999Z</time></trkpt><trkpt lat="43.48953854177133" lon="11.388145844139714"><ele>449.2857142857143</ele><time>2026-03-29T07:33:17.999Z</time></trkpt><trkpt lat="43.48952261618783" lon="11.38824173928572"><ele>449.7142857142857</ele><time>2026-03-29T07:37:01.999Z</time></trkpt><trkpt lat="43.4895140083301" lon="11.388331022194212"><ele>450.14285714285717</ele><time>2026-03-29T07:39:03.999Z</time></trkpt><trkpt lat="43.489461073087995" lon="11.388379394531103"><ele>450.57142857142856</ele><time>2026-03-29T07:39:06.999Z</time></trkpt><trkpt lat="43.48938496833707" lon="11.388416321935944"><ele>451.0</ele><time>2026-03-29T07:40:29Z</time></trkpt><trkpt lat="43.48936967949021" lon="11.38851060574172"><ele>451.00000000000006</ele><time>2026-03-29T07:40:30Z</time></trkpt><trkpt lat="43.489350329367326" lon="11.388636520621185"><ele>451.0</ele><time>2026-03-29T07:40:31Z</time></trkpt><trkpt lat="43.489329281471306" lon="11.388748744285566"><ele>451.0</ele><time>2026-03-29T07:40:32Z</time></trkpt><trkpt lat="43.48928289086837" lon="11.38891461323866"><ele>451.0</ele><time>2026-03-29T07:40:34Z</time></trkpt><trkpt lat="43.489255280833284" lon="11.388996153408598"><ele>451.00000000000006</ele><time>2026-03-29T07:40:35Z</time></trkpt><trkpt lat="43.48923973512878" lon="11.389094650390193"><ele>451.0</ele><time>2026-03-29T07:40:36Z</time></trkpt><trkpt lat="43.489239645551315" lon="11.389199953135124"><ele>451.33333333333337</ele><time>2026-03-29T07:40:37Z</time></trkpt><trkpt lat="43.48926032350805" lon="11.389312917486025"><ele>451.6666666666667</ele><time>2026-03-29T07:40:38Z</time></trkpt><trkpt lat="43.4892940735792" lon="11.389424136770758"><ele>452.0</ele><time>2026-03-29T07:40:39Z</time></trkpt><trkpt lat="43.489333095114276" lon="11.389531062090779"><ele>452.33333333333337</ele><time>2026-03-29T07:40:40Z</time></trkpt><trkpt lat="43.48936318577743" lon="11.389622445587232"><ele>452.6666666666667</ele><time>2026-03-29T07:40:41Z</time></trkpt><trkpt lat="43.48939219071211" lon="11.389713686938887"><ele>453.0</ele><time>2026-03-29T07:40:42Z</time></trkpt><trkpt lat="43.489422712020215" lon="11.389803676402678"><ele>453.0</ele><time>2026-03-29T07:40:43Z</time></trkpt><trkpt lat="43.489454008011414" lon="11.389899237263649"><ele>453.0</ele><time>2026-03-29T07:40:44Z</time></trkpt><trkpt lat="43.48948706336242" lon="11.389997148947693"><ele>453.0</ele><time>2026-03-29T07:40:45Z</time></trkpt><trkpt lat="43.48952620948937" lon="11.390097000404298"><ele>453.0</ele><time>2026-03-29T07:40:46Z</time></trkpt><trkpt lat="43.489568663026965" lon="11.390201543348919"><ele>453.0</ele><time>2026-03-29T07:40:47Z</time></trkpt><trkpt lat="43.48961366941049" lon="11.390319278118215"><ele>453.0</ele><time>2026-03-29T07:40:48Z</time></trkpt><trkpt lat="43.48965738514251" lon="11.390453124418567"><ele>454.5</ele><time>2026-03-29T07:40:49Z</time></trkpt><trkpt lat="43.48971476347339" lon="11.390596802559292"><ele>456.0</ele><time>2026-03-29T07:40:50Z</time></trkpt><trkpt lat="43.48978376810157" lon="11.390737503114408"><ele>457.5</ele><time>2026-03-29T07:40:51Z</time></trkpt><trkpt lat="43.489852507934025" lon="11.390846886414352"><ele>459.0</ele><time>2026-03-29T07:40:52Z</time></trkpt><trkpt lat="43.489927502903214" lon="11.39095529234917"><ele>459.0</ele><time>2026-03-29T07:40:53Z</time></trkpt><trkpt lat="43.490026554729624" lon="11.39107465513856"><ele>459.0</ele><time>2026-03-29T07:40:54Z</time></trkpt><trkpt lat="43.49011744771747" lon="11.39119678786847"><ele>459.0</ele><time>2026-03-29T07:40:55Z</time></trkpt><trkpt lat="43.490173769980906" lon="11.391324004300552"><ele>459.0</ele><time>2026-03-29T07:40:56Z</time></trkpt><trkpt lat="43.49020016431198" lon="11.391460796616132"><ele>458.25</ele><time>2026-03-29T07:40:57Z</time></trkpt><trkpt lat="43.49018754988146" lon="11.391627798446926"><ele>457.5</ele><time>2026-03-29T07:40:58Z</time></trkpt><trkpt lat="43.4901865793502" lon="11.391815397940501"><ele>456.75</ele><time>2026-03-29T07:40:59Z</time></trkpt><trkpt lat="43.49016459091793" lon="11.392001059044615"><ele>456.0</ele><time>2026-03-29T07:41:00Z</time></trkpt><trkpt lat="43.49016142879902" lon="11.392149020401481"><ele>456.20000000000005</ele><time>2026-03-29T07:41:00.999Z</time></trkpt><trkpt lat="43.49017001564536" lon="11.39228577081412"><ele>456.40000000000003</ele><time>2026-03-29T07:41:01.999Z</time></trkpt><trkpt lat="43.49018422780612" lon="11.392433008749403"><ele>456.6</ele><time>2026-03-29T07:41:02.999Z</time></trkpt><trkpt lat="43.49021716480684" lon="11.392582558940633"><ele>456.8</ele><time>2026-03-29T07:41:03.999Z</time></trkpt><trkpt lat="43.49025495679981" lon="11.392736935231394"><ele>457.0</ele><time>2026-03-29T07:41:04.999Z</time></trkpt><trkpt lat="43.49030261730529" lon="11.392879801491818"><ele>457.75</ele><time>2026-03-29T07:41:05.999Z</time></trkpt><trkpt lat="43.490349496090516" lon="11.39302655770367"><ele>458.5</ele><time>2026-03-29T07:41:06.999Z</time></trkpt><trkpt lat="43.49039539961108" lon="11.393183944673838"><ele>459.25</ele><time>2026-03-29T07:41:07.999Z</time></trkpt><trkpt lat="43.49040512934936" lon="11.393358157997639"><ele>460.0</ele><time>2026-03-29T07:41:08.999Z</time></trkpt><trkpt lat="43.4903983509333" lon="11.393505500176335"><ele>460.0</ele><time>2026-03-29T07:41:09.999Z</time></trkpt><trkpt lat="43.490358548393736" lon="11.393657007247963"><ele>460.0</ele><time>2026-03-29T07:41:10.999Z</time></trkpt><trkpt lat="43.490298154547" lon="11.393831043564433"><ele>460.0</ele><time>2026-03-29T07:41:11.999Z</time></trkpt><trkpt lat="43.490218155235254" lon="11.394000795954382"><ele>460.0</ele><time>2026-03-29T07:41:12.999Z</time></trkpt><trkpt lat="43.49015722552948" lon="11.394139354719165"><ele>461.0</ele><time>2026-03-29T07:41:13.999Z</time></trkpt><trkpt lat="43.4901141649618" lon="11.394283208062019"><ele>462.0</ele><time>2026-03-29T07:41:14.999Z</time></trkpt><trkpt lat="43.49007643454685" lon="11.3944563240645"><ele>463.0</ele><time>2026-03-29T07:41:15.999Z</time></trkpt><trkpt lat="43.49006068347856" lon="11.394656806595663"><ele>464.0</ele><time>2026-03-29T07:41:16.999Z</time></trkpt><trkpt lat="43.490073673199035" lon="11.394867271553679"><ele>465.66666666666663</ele><time>2026-03-29T07:41:17.999Z</time></trkpt><trkpt lat="43.49009662521196" lon="11.395085737703443"><ele>467.33333333333337</ele><time>2026-03-29T07:41:18.999Z</time></trkpt><trkpt lat="43.49011443562531" lon="11.395311046069116"><ele>469.0</ele><time>2026-03-29T07:41:19.999Z</time></trkpt><trkpt lat="43.490115453537555" lon="11.395501721253448"><ele>470.33333333333337</ele><time>2026-03-29T07:41:20.999Z</time></trkpt><trkpt lat="43.49010293278316" lon="11.39570206502697"><ele>471.66666666666663</ele><time>2026-03-29T07:41:21.999Z</time></trkpt><trkpt lat="43.490074242107475" lon="11.39591150912827"><ele>473.0</ele><time>2026-03-29T07:41:22.999Z</time></trkpt><trkpt lat="43.490039691864766" lon="11.396123843180222"><ele>473.0</ele><time>2026-03-29T07:41:23.999Z</time></trkpt><trkpt lat="43.49000256973" lon="11.396310711591692"><ele>473.0</ele><time>2026-03-29T07:41:24.999Z</time></trkpt><trkpt lat="43.489944019104556" lon="11.396457735004745"><ele>473.0</ele><time>2026-03-29T07:41:25.999Z</time></trkpt><trkpt lat="43.48985868703191" lon="11.396571721303168"><ele>473.0</ele><time>2026-03-29T07:41:26.999Z</time></trkpt><trkpt lat="43.489754184832954" lon="11.396677423934273"><ele>473.0</ele><time>2026-03-29T07:41:27.999Z</time></trkpt><trkpt lat="43.48964633154044" lon="11.396795036811744"><ele>473.0</ele><time>2026-03-29T07:41:28.999Z</time></trkpt><trkpt lat="43.489559673713394" lon="11.3969563857312"><ele>473.0</ele><time>2026-03-29T07:41:29.999Z</time></trkpt><trkpt lat="43.48949381415294" lon="11.397171029267234"><ele>478.66666666666663</ele><time>2026-03-29T07:41:30.999Z</time></trkpt><trkpt lat="43.48938005526456" lon="11.397398217194954"><ele>484.33333333333337</ele><time>2026-03-29T07:41:31.999Z</time></trkpt><trkpt lat="43.489258736448626" lon="11.397651823192646"><ele>490.0</ele><time>2026-03-29T07:41:32.999Z</time></trkpt><trkpt lat="43.48914871390752" lon="11.397913691899477"><ele>488.0</ele><time>2026-03-29T07:41:33.999Z</time></trkpt><trkpt lat="43.489022358267505" lon="11.398149176569607"><ele>486.0</ele><time>2026-03-29T07:41:34.999Z</time></trkpt><trkpt lat="43.48892064558424" lon="11.398358296784393"><ele>484.0</ele><time>2026-03-29T07:41:35.999Z</time></trkpt><trkpt lat="43.488834668080365" lon="11.398544838403042"><ele>489.33333333333337</ele><time>2026-03-29T07:41:36.999Z</time></trkpt><trkpt lat="43.488758295735" lon="11.398715694280192"><ele>494.66666666666663</ele><time>2026-03-29T07:41:37.999Z</time></trkpt><trkpt lat="43.488679029109626" lon="11.398883040302305"><ele>500.0</ele><time>2026-03-29T07:41:38.999Z</time></trkpt><trkpt lat="43.48859492339565" lon="11.399070047032753"><ele>500.0</ele><time>2026-03-29T07:41:39.999Z</time></trkpt><trkpt lat="43.48850310423656" lon="11.399274180112473"><ele>500.0</ele><time>2026-03-29T07:41:40.999Z</time></trkpt><trkpt lat="43.488423100886166" lon="11.399448537947674"><ele>500.0</ele><time>2026-03-29T07:41:41.999Z</time></trkpt><trkpt lat="43.488345562538086" lon="11.399573407698432"><ele>500.0</ele><time>2026-03-29T07:41:42.999Z</time></trkpt><trkpt lat="43.488226121203915" lon="11.399646834985127"><ele>500.25</ele><time>2026-03-29T07:41:43.999Z</time></trkpt><trkpt lat="43.488105018482116" lon="11.39971387163835"><ele>500.5</ele><time>2026-03-29T07:41:44.999Z</time></trkpt><trkpt lat="43.48795762572263" lon="11.399716323803247"><ele>500.75</ele><time>2026-03-29T07:41:45.999Z</time></trkpt><trkpt lat="43.4878353056812" lon="11.399741500835866"><ele>501.0</ele><time>2026-03-29T07:41:46.999Z</time></trkpt><trkpt lat="43.487745682992085" lon="11.399730387885352"><ele>501.0</ele><time>2026-03-29T07:41:47.999Z</time></trkpt><trkpt lat="43.48767702685466" lon="11.399714327297975"><ele>501.0</ele><time>2026-03-29T07:41:48.999Z</time></trkpt><trkpt lat="43.487581200090304" lon="11.399676538256658"><ele>501.0</ele><time>2026-03-29T07:41:50.999Z</time></trkpt><trkpt lat="43.48751551656815" lon="11.399668247574388"><ele>501.0</ele><time>2026-03-29T07:41:51.999Z</time></trkpt><trkpt lat="43.48743929545891" lon="11.399653791001157"><ele>501.0</ele><time>2026-03-29T07:41:52.999Z</time></trkpt><trkpt lat="43.48734168750512" lon="11.399641928374324"><ele>501.0</ele><time>2026-03-29T07:41:53.999Z</time></trkpt><trkpt lat="43.48720984642433" lon="11.399629816015173"><ele>501.0</ele><time>2026-03-29T07:41:54.999Z</time></trkpt><trkpt lat="43.48708953044446" lon="11.399602617016107"><ele>501.0</ele><time>2026-03-29T07:41:55.999Z</time></trkpt><trkpt lat="43.4869494292662" lon="11.399571378253219"><ele>501.0</ele><time>2026-03-29T07:41:56.999Z</time></trkpt><trkpt lat="43.486793660797595" lon="11.399537540380347"><ele>501.0</ele><time>2026-03-29T07:41:57.999Z</time></trkpt><trkpt lat="43.486646638569745" lon="11.399496780833589"><ele>501.0</ele><time>2026-03-29T07:41:58.999Z</time></trkpt><trkpt lat="43.48650776908665" lon="11.399465305199623"><ele>501.0</ele><time>2026-03-29T07:41:59.999Z</time></trkpt><trkpt lat="43.486376310073766" lon="11.399426001602842"><ele>501.0</ele><time>2026-03-29T07:42:00.999Z</time></trkpt><trkpt lat="43.4862509428483" lon="11.399381191585782"><ele>501.0</ele><time>2026-03-29T07:42:01.999Z</time></trkpt><trkpt lat="43.48613808194152" lon="11.3993176140277"><ele>498.20000000000005</ele><time>2026-03-29T07:42:02.999Z</time></trkpt><trkpt lat="43.48604096308375" lon="11.399221883795223"><ele>495.40000000000003</ele><time>2026-03-29T07:42:03.999Z</time></trkpt><trkpt lat="43.485991321461675" lon="11.399092498925166"><ele>492.6</ele><time>2026-03-29T07:42:05Z</time></trkpt><trkpt lat="43.4859747066317" lon="11.398950827663962"><ele>489.8</ele><time>2026-03-29T07:42:06Z</time></trkpt><trkpt lat="43.48599116964439" lon="11.398804593802208"><ele>487.0</ele><time>2026-03-29T07:42:07Z</time></trkpt><trkpt lat="43.486013117814146" lon="11.398645926602272"><ele>487.0</ele><time>2026-03-29T07:42:08Z</time></trkpt><trkpt lat="43.486021270192005" lon="11.398480092237502"><ele>487.0</ele><time>2026-03-29T07:42:09Z</time></trkpt><trkpt lat="43.48600650382615" lon="11.398325180057213"><ele>487.0</ele><time>2026-03-29T07:42:10Z</time></trkpt><trkpt lat="43.48596061338412" lon="11.39819062308115"><ele>487.0</ele><time>2026-03-29T07:42:11Z</time></trkpt><trkpt lat="43.485887851988004" lon="11.398068568496088"><ele>486.75</ele><time>2026-03-29T07:42:12Z</time></trkpt><trkpt lat="43.4857888757256" lon="11.397978782313677"><ele>486.5</ele><time>2026-03-29T07:42:13Z</time></trkpt><trkpt lat="43.48567242428252" lon="11.397930492360123"><ele>486.25</ele><time>2026-03-29T07:42:14Z</time></trkpt><trkpt lat="43.485538166072736" lon="11.397921419931741"><ele>486.0</ele><time>2026-03-29T07:42:15Z</time></trkpt><trkpt lat="43.48538525741376" lon="11.397932195365316"><ele>486.0</ele><time>2026-03-29T07:42:16Z</time></trkpt><trkpt lat="43.4852404114761" lon="11.39794831284806"><ele>486.0</ele><time>2026-03-29T07:42:17Z</time></trkpt><trkpt lat="43.485108781163824" lon="11.397944479345716"><ele>486.0</ele><time>2026-03-29T07:42:18Z</time></trkpt><trkpt lat="43.48498902726195" lon="11.397889135293616"><ele>486.0</ele><time>2026-03-29T07:42:19Z</time></trkpt><trkpt lat="43.48488870067507" lon="11.39780754804873"><ele>486.0</ele><time>2026-03-29T07:42:20Z</time></trkpt><trkpt lat="43.48480704521803" lon="11.39768545370094"><ele>486.0</ele><time>2026-03-29T07:42:21Z</time></trkpt><trkpt lat="43.48469585860344" lon="11.397525116094245"><ele>486.0</ele><time>2026-03-29T07:42:22Z</time></trkpt><trkpt lat="43.48459106279619" lon="11.39737399320716"><ele>486.0</ele><time>2026-03-29T07:42:23Z</time></trkpt><trkpt lat="43.484505747522306" lon="11.397240594595784"><ele>482.25</ele><time>2026-03-29T07:42:24Z</time></trkpt><trkpt lat="43.48445131981273" lon="11.397100315973157"><ele>478.5</ele><time>2026-03-29T07:42:25Z</time></trkpt><trkpt lat="43.48445939947173" lon="11.396963033086394"><ele>474.75</ele><time>2026-03-29T07:42:26Z</time></trkpt><trkpt lat="43.484481502599955" lon="11.396818132122656"><ele>471.0</ele><time>2026-03-29T07:42:27Z</time></trkpt><trkpt lat="43.48452092730068" lon="11.396642606888491"><ele>471.0</ele><time>2026-03-29T07:42:28Z</time></trkpt><trkpt lat="43.48453572604751" lon="11.396461300369145"><ele>471.0</ele><time>2026-03-29T07:42:29Z</time></trkpt><trkpt lat="43.48452088803409" lon="11.396302443423238"><ele>471.0</ele><time>2026-03-29T07:42:30Z</time></trkpt><trkpt lat="43.48448095919796" lon="11.39613309688424"><ele>471.0</ele><time>2026-03-29T07:42:31Z</time></trkpt><trkpt lat="43.484400628772896" lon="11.39601171433391"><ele>472.5</ele><time>2026-03-29T07:42:32Z</time></trkpt><trkpt lat="43.48428878801665" lon="11.39592216232739"><ele>474.0</ele><time>2026-03-29T07:42:33Z</time></trkpt><trkpt lat="43.48414935327456" lon="11.395860282304666"><ele>475.5</ele><time>2026-03-29T07:42:34Z</time></trkpt><trkpt lat="43.483993092614426" lon="11.395822529167852"><ele>477.0</ele><time>2026-03-29T07:42:35Z</time></trkpt><trkpt lat="43.48381590767672" lon="11.395829405531956"><ele>474.66666666666663</ele><time>2026-03-29T07:42:36Z</time></trkpt><trkpt lat="43.48363411431677" lon="11.395871771836452"><ele>472.3333333333333</ele><time>2026-03-29T07:42:37Z</time></trkpt><trkpt lat="43.48346961503113" lon="11.395936438176886"><ele>470.0</ele><time>2026-03-29T07:42:38Z</time></trkpt><trkpt lat="43.48332399178483" lon="11.396001979271762"><ele>470.0</ele><time>2026-03-29T07:42:39Z</time></trkpt><trkpt lat="43.483186786839454" lon="11.396065857195644"><ele>470.0</ele><time>2026-03-29T07:42:40Z</time></trkpt><trkpt lat="43.483060275005734" lon="11.396133819164671"><ele>470.0</ele><time>2026-03-29T07:42:41Z</time></trkpt><trkpt lat="43.482944611684104" lon="11.39620751025634"><ele>470.0</ele><time>2026-03-29T07:42:42Z</time></trkpt><trkpt lat="43.48282807222187" lon="11.396271222504735"><ele>469.0</ele><time>2026-03-29T07:42:43Z</time></trkpt><trkpt lat="43.48269137583191" lon="11.396263933078782"><ele>468.0</ele><time>2026-03-29T07:42:44Z</time></trkpt><trkpt lat="43.48259361164744" lon="11.39620656270848"><ele>467.0</ele><time>2026-03-29T07:42:45Z</time></trkpt><trkpt lat="43.48254807995687" lon="11.396116117917524"><ele>466.0</ele><time>2026-03-29T07:42:46Z</time></trkpt><trkpt lat="43.48251419039975" lon="11.396003062231113"><ele>465.0</ele><time>2026-03-29T07:42:47Z</time></trkpt><trkpt lat="43.48245051739761" lon="11.395872006242449"><ele>465.0</ele><time>2026-03-29T07:42:48Z</time></trkpt><trkpt lat="43.48236254155404" lon="11.395748051173085"><ele>465.0</ele><time>2026-03-29T07:42:49Z</time></trkpt><trkpt lat="43.482266910509054" lon="11.395621902919157"><ele>465.0</ele><time>2026-03-29T07:42:50Z</time></trkpt><trkpt lat="43.4821515749763" lon="11.395549514234874"><ele>465.0</ele><time>2026-03-29T07:42:51Z</time></trkpt><trkpt lat="43.48202607439877" lon="11.395524234586267"><ele>462.33333333333337</ele><time>2026-03-29T07:42:52Z</time></trkpt><trkpt lat="43.48188286923576" lon="11.395540701846583"><ele>459.6666666666667</ele><time>2026-03-29T07:42:53Z</time></trkpt><trkpt lat="43.48172691825272" lon="11.395597939437161"><ele>457.0</ele><time>2026-03-29T07:42:54Z</time></trkpt><trkpt lat="43.481568298658345" lon="11.395679095406818"><ele>457.0</ele><time>2026-03-29T07:42:55Z</time></trkpt><trkpt lat="43.481427871856816" lon="11.395751633375365"><ele>457.0</ele><time>2026-03-29T07:42:56Z</time></trkpt><trkpt lat="43.481296705932486" lon="11.39575371688916"><ele>457.0</ele><time>2026-03-29T07:42:57Z</time></trkpt><trkpt lat="43.48116027162426" lon="11.3957248650902"><ele>457.0</ele><time>2026-03-29T07:42:58Z</time></trkpt><trkpt lat="43.48101195855062" lon="11.395679756661075"><ele>456.0</ele><time>2026-03-29T07:42:59Z</time></trkpt><trkpt lat="43.48088637114421" lon="11.39561813857521"><ele>455.0</ele><time>2026-03-29T07:43:00Z</time></trkpt><trkpt lat="43.48078851990283" lon="11.39553251648895"><ele>454.0</ele><time>2026-03-29T07:43:01Z</time></trkpt><trkpt lat="43.48073407135381" lon="11.395408552854333"><ele>453.0</ele><time>2026-03-29T07:43:02Z</time></trkpt><trkpt lat="43.480694968845015" lon="11.395286648977404"><ele>453.0</ele><time>2026-03-29T07:43:03Z</time></trkpt><trkpt lat="43.48070022471358" lon="11.395148961487129"><ele>453.0</ele><time>2026-03-29T07:43:04Z</time></trkpt><trkpt lat="43.48071988117775" lon="11.394999875334728"><ele>453.0</ele><time>2026-03-29T07:43:05Z</time></trkpt><trkpt lat="43.480762258766994" lon="11.394865422714933"><ele>453.0</ele><time>2026-03-29T07:43:06Z</time></trkpt><trkpt lat="43.48082326581177" lon="11.394699597126587"><ele>452.25</ele><time>2026-03-29T07:43:07Z</time></trkpt><trkpt lat="43.48089400949613" lon="11.394519720292863"><ele>451.5</ele><time>2026-03-29T07:43:08Z</time></trkpt><trkpt lat="43.4809374193549" lon="11.394347421336493"><ele>450.75</ele><time>2026-03-29T07:43:08.999Z</time></trkpt><trkpt lat="43.48098292048913" lon="11.394189976163814"><ele>450.0</ele><time>2026-03-29T07:43:09.999Z</time></trkpt><trkpt lat="43.48100904244454" lon="11.394028387138286"><ele>450.0</ele><time>2026-03-29T07:43:10.999Z</time></trkpt><trkpt lat="43.480978816293785" lon="11.393883831992799"><ele>450.0</ele><time>2026-03-29T07:43:11.999Z</time></trkpt><trkpt lat="43.480931554691445" lon="11.393755742928878"><ele>450.0</ele><time>2026-03-29T07:43:12.999Z</time></trkpt><trkpt lat="43.480854649665176" lon="11.3936367680517"><ele>450.0</ele><time>2026-03-29T07:43:13.999Z</time></trkpt><trkpt lat="43.48075159244534" lon="11.393537660910312"><ele>451.0</ele><time>2026-03-29T07:43:14.999Z</time></trkpt><trkpt lat="43.48062607572666" lon="11.39346024412716"><ele>452.0</ele><time>2026-03-29T07:43:15.999Z</time></trkpt><trkpt lat="43.480495964081875" lon="11.39343141856357"><ele>453.0</ele><time>2026-03-29T07:43:16.999Z</time></trkpt><trkpt lat="43.480400729014754" lon="11.393467735630036"><ele>454.0</ele><time>2026-03-29T07:43:17.999Z</time></trkpt><trkpt lat="43.48028807821966" lon="11.393526803412465"><ele>451.75</ele><time>2026-03-29T07:43:18.999Z</time></trkpt><trkpt lat="43.480169194408596" lon="11.39355772496104"><ele>449.5</ele><time>2026-03-29T07:43:19.999Z</time></trkpt><trkpt lat="43.480050619180275" lon="11.393536479397454"><ele>447.25</ele><time>2026-03-29T07:43:20.999Z</time></trkpt><trkpt lat="43.47997156793604" lon="11.393447775208108"><ele>445.0</ele><time>2026-03-29T07:43:21.999Z</time></trkpt><trkpt lat="43.47991391124712" lon="11.393307678930308"><ele>445.0</ele><time>2026-03-29T07:43:22.999Z</time></trkpt><trkpt lat="43.47982821364946" lon="11.393171648919816"><ele>445.0</ele><time>2026-03-29T07:43:23.999Z</time></trkpt><trkpt lat="43.47975569512754" lon="11.393031144570053"><ele>445.0</ele><time>2026-03-29T07:43:24.999Z</time></trkpt><trkpt lat="43.47966015325929" lon="11.392950556442795"><ele>445.0</ele><time>2026-03-29T07:43:25.999Z</time></trkpt><trkpt lat="43.47954495609351" lon="11.392934915562664"><ele>445.5</ele><time>2026-03-29T07:43:26.999Z</time></trkpt><trkpt lat="43.479423735248815" lon="11.392972389395075"><ele>446.0</ele><time>2026-03-29T07:43:27.999Z</time></trkpt><trkpt lat="43.479315105705524" lon="11.39306579942007"><ele>446.5</ele><time>2026-03-29T07:43:28.999Z</time></trkpt><trkpt lat="43.479212191670634" lon="11.393196264587647"><ele>447.0</ele><time>2026-03-29T07:43:29.999Z</time></trkpt><trkpt lat="43.47911946943885" lon="11.393337461858025"><ele>445.20000000000005</ele><time>2026-03-29T07:43:30.999Z</time></trkpt><trkpt lat="43.4790335705886" lon="11.393442285628934"><ele>443.40000000000003</ele><time>2026-03-29T07:43:31.999Z</time></trkpt><trkpt lat="43.47894345519214" lon="11.393485390059109"><ele>441.59999999999997</ele><time>2026-03-29T07:43:32.999Z</time></trkpt><trkpt lat="43.47885581687321" lon="11.393450954225134"><ele>439.79999999999995</ele><time>2026-03-29T07:43:33.999Z</time></trkpt><trkpt lat="43.47876049943174" lon="11.39336113717223"><ele>438.0</ele><time>2026-03-29T07:43:34.999Z</time></trkpt><trkpt lat="43.47865993799826" lon="11.393249926477761"><ele>437.33333333333337</ele><time>2026-03-29T07:43:35.999Z</time></trkpt><trkpt lat="43.47854664456565" lon="11.393113386790883"><ele>436.6666666666667</ele><time>2026-03-29T07:43:36.999Z</time></trkpt><trkpt lat="43.47842677514159" lon="11.392983481370809"><ele>436.0</ele><time>2026-03-29T07:43:37.999Z</time></trkpt><trkpt lat="43.47831925120646" lon="11.392826861478019"><ele>436.0</ele><time>2026-03-29T07:43:38.999Z</time></trkpt><trkpt lat="43.47824292488102" lon="11.392659441921687"><ele>436.0</ele><time>2026-03-29T07:43:39.999Z</time></trkpt><trkpt lat="43.47816095238138" lon="11.392538308032602"><ele>436.0</ele><time>2026-03-29T07:43:40.999Z</time></trkpt><trkpt lat="43.47810669872723" lon="11.392417028240432"><ele>436.0</ele><time>2026-03-29T07:43:41.999Z</time></trkpt><trkpt lat="43.47804593912019" lon="11.392336899332644"><ele>436.00000000000006</ele><time>2026-03-29T07:43:42.999Z</time></trkpt><trkpt lat="43.477970764517266" lon="11.392309059646792"><ele>436.0</ele><time>2026-03-29T07:43:43.999Z</time></trkpt><trkpt lat="43.47788666725424" lon="11.392336163537767"><ele>436.0</ele><time>2026-03-29T07:43:44.999Z</time></trkpt><trkpt lat="43.47781294959838" lon="11.392401316814869"><ele>436.0</ele><time>2026-03-29T07:43:45.999Z</time></trkpt><trkpt lat="43.47776549821476" lon="11.392515792993242"><ele>436.00000000000006</ele><time>2026-03-29T07:43:46.999Z</time></trkpt><trkpt lat="43.477764950583314" lon="11.392647134898548"><ele>436.0</ele><time>2026-03-29T07:43:47.999Z</time></trkpt><trkpt lat="43.477802807244004" lon="11.392775890609"><ele>434.25</ele><time>2026-03-29T07:43:48.999Z</time></trkpt><trkpt lat="43.47788081110254" lon="11.392917555219485"><ele>432.5</ele><time>2026-03-29T07:43:49.999Z</time></trkpt><trkpt lat="43.47797189477298" lon="11.393058387754188"><ele>430.75</ele><time>2026-03-29T07:43:50.999Z</time></trkpt><trkpt lat="43.47804780952" lon="11.393215350339737"><ele>429.0</ele><time>2026-03-29T07:43:51.999Z</time></trkpt><trkpt lat="43.47808496887263" lon="11.393385368502265"><ele>429.0</ele><time>2026-03-29T07:43:52.999Z</time></trkpt><trkpt lat="43.47807110719794" lon="11.39355738525905"><ele>429.0</ele><time>2026-03-29T07:43:53.999Z</time></trkpt><trkpt lat="43.478025216701184" lon="11.39373521617915"><ele>429.0</ele><time>2026-03-29T07:43:54.999Z</time></trkpt><trkpt lat="43.47797393883289" lon="11.39391556677286"><ele>429.0</ele><time>2026-03-29T07:43:55.999Z</time></trkpt><trkpt lat="43.47796677334309" lon="11.394079752705093"><ele>427.0</ele><time>2026-03-29T07:43:56.999Z</time></trkpt><trkpt lat="43.47800312737633" lon="11.3942352552502"><ele>425.0</ele><time>2026-03-29T07:43:57.999Z</time></trkpt><trkpt lat="43.478092693115904" lon="11.394378889946704"><ele>423.0</ele><time>2026-03-29T07:43:58.999Z</time></trkpt><trkpt lat="43.47820724292737" lon="11.394503206945153"><ele>421.0</ele><time>2026-03-29T07:43:59.999Z</time></trkpt><trkpt lat="43.47834461870476" lon="11.394600683965542"><ele>421.0</ele><time>2026-03-29T07:44:00.999Z</time></trkpt><trkpt lat="43.478489444246144" lon="11.394670858652042"><ele>421.0</ele><time>2026-03-29T07:44:01.999Z</time></trkpt><trkpt lat="43.47861818587553" lon="11.39472096701668"><ele>421.0</ele><time>2026-03-29T07:44:02.999Z</time></trkpt><trkpt lat="43.47871451817924" lon="11.394786946714575"><ele>421.0</ele><time>2026-03-29T07:44:03.999Z</time></trkpt><trkpt lat="43.47878054778151" lon="11.394877765783145"><ele>421.4</ele><time>2026-03-29T07:44:04.999Z</time></trkpt><trkpt lat="43.47881277489534" lon="11.394996906393981"><ele>421.8</ele><time>2026-03-29T07:44:05.999Z</time></trkpt><trkpt lat="43.47879758200178" lon="11.395113069469149"><ele>422.2</ele><time>2026-03-29T07:44:06.999Z</time></trkpt><trkpt lat="43.4787455699954" lon="11.395206155789868"><ele>422.59999999999997</ele><time>2026-03-29T07:44:07.999Z</time></trkpt><trkpt lat="43.47866741923239" lon="11.395273250164196"><ele>423.0</ele><time>2026-03-29T07:44:08.999Z</time></trkpt><trkpt lat="43.4785725200583" lon="11.395302302890627"><ele>420.0</ele><time>2026-03-29T07:44:09.999Z</time></trkpt><trkpt lat="43.478484353814004" lon="11.395220692132224"><ele>417.0</ele><time>2026-03-29T07:44:11Z</time></trkpt><trkpt lat="43.47837253594095" lon="11.395163181308854"><ele>414.0</ele><time>2026-03-29T07:44:12Z</time></trkpt><trkpt lat="43.47823786651818" lon="11.395112220895268"><ele>411.0</ele><time>2026-03-29T07:44:13Z</time></trkpt><trkpt lat="43.47810785159737" lon="11.395029906458097"><ele>411.0</ele><time>2026-03-29T07:44:14Z</time></trkpt><trkpt lat="43.47795811945505" lon="11.39495204079784"><ele>411.0</ele><time>2026-03-29T07:44:15Z</time></trkpt><trkpt lat="43.47779235139547" lon="11.394868085049886"><ele>411.0</ele><time>2026-03-29T07:44:16Z</time></trkpt><trkpt lat="43.47764260132982" lon="11.394787541084469"><ele>409.75</ele><time>2026-03-29T07:44:17Z</time></trkpt><trkpt lat="43.47752447506369" lon="11.394670629960475"><ele>408.5</ele><time>2026-03-29T07:44:18Z</time></trkpt><trkpt lat="43.47741007732169" lon="11.394554706415887"><ele>407.25</ele><time>2026-03-29T07:44:19Z</time></trkpt><trkpt lat="43.47728267239937" lon="11.39442996018423"><ele>406.0</ele><time>2026-03-29T07:44:20Z</time></trkpt><trkpt lat="43.4771501428848" lon="11.39428275660602"><ele>404.25</ele><time>2026-03-29T07:44:21Z</time></trkpt><trkpt lat="43.47700930533465" lon="11.394139648288139"><ele>402.5</ele><time>2026-03-29T07:44:22Z</time></trkpt><trkpt lat="43.476888987793366" lon="11.394031116453919"><ele>400.75</ele><time>2026-03-29T07:44:23Z</time></trkpt><trkpt lat="43.476788747643596" lon="11.393945273549587"><ele>399.0</ele><time>2026-03-29T07:44:24Z</time></trkpt><trkpt lat="43.47669736101244" lon="11.393881306582301"><ele>399.0</ele><time>2026-03-29T07:44:25Z</time></trkpt><trkpt lat="43.47660448649635" lon="11.393851006227118"><ele>399.0</ele><time>2026-03-29T07:44:26Z</time></trkpt><trkpt lat="43.47650687930699" lon="11.393871199964414"><ele>399.0</ele><time>2026-03-29T07:44:27Z</time></trkpt><trkpt lat="43.47641085482123" lon="11.393943083718215"><ele>399.0</ele><time>2026-03-29T07:44:28Z</time></trkpt><trkpt lat="43.47633431839632" lon="11.39406302578557"><ele>399.0</ele><time>2026-03-29T07:44:29Z</time></trkpt><trkpt lat="43.476274990945605" lon="11.394227157336012"><ele>398.75</ele><time>2026-03-29T07:44:30Z</time></trkpt><trkpt lat="43.476230311253694" lon="11.394412123634059"><ele>398.5</ele><time>2026-03-29T07:44:31Z</time></trkpt><trkpt lat="43.47618907937822" lon="11.394569608225137"><ele>398.25</ele><time>2026-03-29T07:44:32Z</time></trkpt><trkpt lat="43.47610869830125" lon="11.394675732342401"><ele>398.0</ele><time>2026-03-29T07:44:33Z</time></trkpt><trkpt lat="43.47598150047864" lon="11.39473260252539"><ele>400.3333333333333</ele><time>2026-03-29T07:44:34Z</time></trkpt><trkpt lat="43.4758259847807" lon="11.394799449399317"><ele>402.66666666666663</ele><time>2026-03-29T07:44:35Z</time></trkpt><trkpt lat="43.47566720837994" lon="11.394877346191372"><ele>405.0</ele><time>2026-03-29T07:44:36Z</time></trkpt><trkpt lat="43.475508045656596" lon="11.39494250849065"><ele>401.66666666666663</ele><time>2026-03-29T07:44:37Z</time></trkpt><trkpt lat="43.475344383425465" lon="11.395018924183372"><ele>398.3333333333333</ele><time>2026-03-29T07:44:38Z</time></trkpt><trkpt lat="43.47517977597049" lon="11.39508652314015"><ele>395.0</ele><time>2026-03-29T07:44:39Z</time></trkpt><trkpt lat="43.47503981798009" lon="11.395166593165143"><ele>395.0</ele><time>2026-03-29T07:44:40Z</time></trkpt><trkpt lat="43.47490561653033" lon="11.395281511904377"><ele>395.0</ele><time>2026-03-29T07:44:41Z</time></trkpt><trkpt lat="43.474766149862795" lon="11.3954329013753"><ele>395.0</ele><time>2026-03-29T07:44:42Z</time></trkpt><trkpt lat="43.4746203659598" lon="11.395610612295293"><ele>394.3333333333333</ele><time>2026-03-29T07:44:43Z</time></trkpt><trkpt lat="43.47447227116383" lon="11.39578611046444"><ele>393.66666666666663</ele><time>2026-03-29T07:44:44Z</time></trkpt><trkpt lat="43.47433765062217" lon="11.395937329047"><ele>393.0</ele><time>2026-03-29T07:44:45Z</time></trkpt><trkpt lat="43.47421160029685" lon="11.396078073933895"><ele>393.0</ele><time>2026-03-29T07:44:46Z</time></trkpt><trkpt lat="43.47410321110622" lon="11.396204791929508"><ele>393.0</ele><time>2026-03-29T07:44:47Z</time></trkpt><trkpt lat="43.473990363107845" lon="11.396329362292281"><ele>393.0</ele><time>2026-03-29T07:44:48Z</time></trkpt><trkpt lat="43.4738828419815" lon="11.396453569058469"><ele>393.0</ele><time>2026-03-29T07:44:49Z</time></trkpt><trkpt lat="43.47376602672724" lon="11.396581572803287"><ele>391.66666666666663</ele><time>2026-03-29T07:44:50Z</time></trkpt><trkpt lat="43.47364309072956" lon="11.396722739770695"><ele>390.3333333333333</ele><time>2026-03-29T07:44:51Z</time></trkpt><trkpt lat="43.473518607188005" lon="11.396868338087497"><ele>389.0</ele><time>2026-03-29T07:44:52Z</time></trkpt><trkpt lat="43.47338365217841" lon="11.397027683087877"><ele>392.0</ele><time>2026-03-29T07:44:53Z</time></trkpt><trkpt lat="43.47324548155788" lon="11.397192386163809"><ele>395.0</ele><time>2026-03-29T07:44:54Z</time></trkpt><trkpt lat="43.4731231332445" lon="11.39734494369302"><ele>398.0</ele><time>2026-03-29T07:44:55Z</time></trkpt><trkpt lat="43.47302316833025" lon="11.397491739207238"><ele>395.0</ele><time>2026-03-29T07:44:56Z</time></trkpt><trkpt lat="43.4729342497907" lon="11.39764871570969"><ele>392.0</ele><time>2026-03-29T07:44:57Z</time></trkpt><trkpt lat="43.47282842012619" lon="11.39776454712587"><ele>389.0</ele><time>2026-03-29T07:44:58Z</time></trkpt><trkpt lat="43.47272091170324" lon="11.397840833046514"><ele>386.0</ele><time>2026-03-29T07:44:59Z</time></trkpt><trkpt lat="43.47262466510157" lon="11.397916397340861"><ele>386.0</ele><time>2026-03-29T07:45:00Z</time></trkpt><trkpt lat="43.47251497322972" lon="11.397977108123323"><ele>386.0</ele><time>2026-03-29T07:45:01Z</time></trkpt><trkpt lat="43.47239087547316" lon="11.398052679074649"><ele>386.0</ele><time>2026-03-29T07:45:02Z</time></trkpt><trkpt lat="43.47224726137281" lon="11.398146039528505"><ele>386.0</ele><time>2026-03-29T07:45:03Z</time></trkpt><trkpt lat="43.472121084941584" lon="11.398257853031756"><ele>385.3333333333333</ele><time>2026-03-29T07:45:04Z</time></trkpt><trkpt lat="43.47201528281372" lon="11.398395400208742"><ele>384.66666666666663</ele><time>2026-03-29T07:45:05Z</time></trkpt><trkpt lat="43.471916935438564" lon="11.398559250769491"><ele>384.0</ele><time>2026-03-29T07:45:06Z</time></trkpt><trkpt lat="43.4718281113938" lon="11.398759348583484"><ele>385.0</ele><time>2026-03-29T07:45:07Z</time></trkpt><trkpt lat="43.47174926268333" lon="11.39897283248597"><ele>386.0</ele><time>2026-03-29T07:45:08Z</time></trkpt><trkpt lat="43.47165759580359" lon="11.39920885353915"><ele>387.0</ele><time>2026-03-29T07:45:09Z</time></trkpt><trkpt lat="43.47155464771675" lon="11.399464873585668"><ele>389.33333333333337</ele><time>2026-03-29T07:45:10Z</time></trkpt><trkpt lat="43.47144471463673" lon="11.399736698446464"><ele>391.6666666666667</ele><time>2026-03-29T07:45:11Z</time></trkpt><trkpt lat="43.47134536618074" lon="11.399978790903377"><ele>394.0</ele><time>2026-03-29T07:45:11.999Z</time></trkpt><trkpt lat="43.47125899250482" lon="11.400198455230605"><ele>390.6666666666667</ele><time>2026-03-29T07:45:12.999Z</time></trkpt><trkpt lat="43.47117699408784" lon="11.40040604318818"><ele>387.33333333333337</ele><time>2026-03-29T07:45:13.999Z</time></trkpt><trkpt lat="43.47109904292992" lon="11.400592054882445"><ele>384.0</ele><time>2026-03-29T07:45:14.999Z</time></trkpt><trkpt lat="43.471005881239826" lon="11.400755706948665"><ele>384.0</ele><time>2026-03-29T07:45:15.999Z</time></trkpt><trkpt lat="43.470895948908456" lon="11.400896659509929"><ele>384.0</ele><time>2026-03-29T07:45:16.999Z</time></trkpt><trkpt lat="43.47080945579725" lon="11.4010700367831"><ele>384.0</ele><time>2026-03-29T07:45:17.999Z</time></trkpt><trkpt lat="43.47061823573507" lon="11.401160348987343"><ele>384.0</ele><time>2026-03-29T07:45:18.999Z</time></trkpt><trkpt lat="43.47045343401525" lon="11.401258568351476"><ele>384.0</ele><time>2026-03-29T07:45:19.999Z</time></trkpt><trkpt lat="43.47030054685457" lon="11.401348564894887"><ele>384.0</ele><time>2026-03-29T07:45:20.999Z</time></trkpt><trkpt lat="43.47015877138657" lon="11.401445635398867"><ele>384.0</ele><time>2026-03-29T07:45:21.999Z</time></trkpt><trkpt lat="43.4700074677417" lon="11.4015743189818"><ele>384.0</ele><time>2026-03-29T07:45:22.999Z</time></trkpt><trkpt lat="43.46985933475409" lon="11.401709304413597"><ele>384.0</ele><time>2026-03-29T07:45:23.999Z</time></trkpt><trkpt lat="43.46972587109683" lon="11.40182540306054"><ele>381.3333333333333</ele><time>2026-03-29T07:45:24.999Z</time></trkpt><trkpt lat="43.4695943110421" lon="11.401926965790306"><ele>378.66666666666663</ele><time>2026-03-29T07:45:25.999Z</time></trkpt><trkpt lat="43.46945430399598" lon="11.402023943946483"><ele>376.0</ele><time>2026-03-29T07:45:26.999Z</time></trkpt><trkpt lat="43.46928883616504" lon="11.402103139532764"><ele>376.0</ele><time>2026-03-29T07:45:27.999Z</time></trkpt><trkpt lat="43.46911877328604" lon="11.402146844348414"><ele>376.0</ele><time>2026-03-29T07:45:28.999Z</time></trkpt><trkpt lat="43.46896803929097" lon="11.40216697662663"><ele>376.0</ele><time>2026-03-29T07:45:29.999Z</time></trkpt><trkpt lat="43.46884001644021" lon="11.402195317570424"><ele>375.3333333333333</ele><time>2026-03-29T07:45:30.999Z</time></trkpt><trkpt lat="43.468704289735804" lon="11.402282906392298"><ele>374.6666666666667</ele><time>2026-03-29T07:45:31.999Z</time></trkpt><trkpt lat="43.46856501616036" lon="11.402395892930683"><ele>374.0</ele><time>2026-03-29T07:45:32.999Z</time></trkpt><trkpt lat="43.46842995898276" lon="11.40254640059874"><ele>374.0</ele><time>2026-03-29T07:45:33.999Z</time></trkpt><trkpt lat="43.468313784593036" lon="11.402711281232776"><ele>374.0</ele><time>2026-03-29T07:45:34.999Z</time></trkpt><trkpt lat="43.46820870102868" lon="11.4028580726536"><ele>374.0</ele><time>2026-03-29T07:45:35.999Z</time></trkpt><trkpt lat="43.468113095922" lon="11.402996555441025"><ele>372.75</ele><time>2026-03-29T07:45:36.999Z</time></trkpt><trkpt lat="43.468013077960315" lon="11.403130750613661"><ele>371.5</ele><time>2026-03-29T07:45:37.999Z</time></trkpt><trkpt lat="43.467908375363464" lon="11.403275294878195"><ele>370.25</ele><time>2026-03-29T07:45:38.999Z</time></trkpt><trkpt lat="43.46780424075101" lon="11.40342485942884"><ele>369.0</ele><time>2026-03-29T07:45:39.999Z</time></trkpt><trkpt lat="43.467703326197025" lon="11.403579844504334"><ele>369.0</ele><time>2026-03-29T07:45:40.999Z</time></trkpt><trkpt lat="43.46759122034777" lon="11.403737564125105"><ele>369.0</ele><time>2026-03-29T07:45:41.999Z</time></trkpt><trkpt lat="43.46747818039849" lon="11.403908225903843"><ele>369.0</ele><time>2026-03-29T07:45:42.999Z</time></trkpt><trkpt lat="43.467353992325016" lon="11.404113802473685"><ele>370.0</ele><time>2026-03-29T07:45:43.999Z</time></trkpt><trkpt lat="43.467225444224056" lon="11.404339125796321"><ele>371.0</ele><time>2026-03-29T07:45:44.999Z</time></trkpt><trkpt lat="43.467082130821744" lon="11.404536999017905"><ele>372.0</ele><time>2026-03-29T07:45:45.999Z</time></trkpt><trkpt lat="43.46699342166773" lon="11.404601977423518"><ele>370.3333333333333</ele><time>2026-03-29T07:45:46.999Z</time></trkpt><trkpt lat="43.46685530156999" lon="11.40479586912324"><ele>368.66666666666663</ele><time>2026-03-29T07:45:47.999Z</time></trkpt><trkpt lat="43.46671478947168" lon="11.404999552079246"><ele>367.0</ele><time>2026-03-29T07:45:48.999Z</time></trkpt><trkpt lat="43.46657153854354" lon="11.40521093288734"><ele>367.0</ele><time>2026-03-29T07:45:49.999Z</time></trkpt><trkpt lat="43.466436086431855" lon="11.405401122649286"><ele>367.0</ele><time>2026-03-29T07:45:50.999Z</time></trkpt><trkpt lat="43.46631687880105" lon="11.405571512796037"><ele>367.0</ele><time>2026-03-29T07:45:51.999Z</time></trkpt><trkpt lat="43.46620465105275" lon="11.405731496726448"><ele>365.0</ele><time>2026-03-29T07:45:52.999Z</time></trkpt><trkpt lat="43.466099048558775" lon="11.405884700370635"><ele>363.0</ele><time>2026-03-29T07:45:53.999Z</time></trkpt><trkpt lat="43.465998104841916" lon="11.406030899675383"><ele>361.0</ele><time>2026-03-29T07:45:54.999Z</time></trkpt><trkpt lat="43.465892756383234" lon="11.406192490096831"><ele>360.66666666666663</ele><time>2026-03-29T07:45:55.999Z</time></trkpt><trkpt lat="43.46579193643734" lon="11.40638403312933"><ele>360.3333333333333</ele><time>2026-03-29T07:45:56.999Z</time></trkpt><trkpt lat="43.46570846425584" lon="11.40658206126995"><ele>360.0</ele><time>2026-03-29T07:45:57.999Z</time></trkpt><trkpt lat="43.46561874552979" lon="11.406793297142427"><ele>360.0</ele><time>2026-03-29T07:45:58.999Z</time></trkpt><trkpt lat="43.465526784681764" lon="11.407015018166657"><ele>360.0</ele><time>2026-03-29T07:45:59.999Z</time></trkpt><trkpt lat="43.46543856981897" lon="11.407224787487035"><ele>360.0</ele><time>2026-03-29T07:46:00.999Z</time></trkpt><trkpt lat="43.465354189180445" lon="11.407415315408185"><ele>359.25</ele><time>2026-03-29T07:46:01.999Z</time></trkpt><trkpt lat="43.46527816130964" lon="11.407592956961574"><ele>358.5</ele><time>2026-03-29T07:46:02.999Z</time></trkpt><trkpt lat="43.465204028952854" lon="11.407751548513835"><ele>357.75</ele><time>2026-03-29T07:46:03.999Z</time></trkpt><trkpt lat="43.465127926461705" lon="11.407884452774008"><ele>357.0</ele><time>2026-03-29T07:46:04.999Z</time></trkpt><trkpt lat="43.46502797816928" lon="11.407992173233717"><ele>356.3333333333333</ele><time>2026-03-29T07:46:05.999Z</time></trkpt><trkpt lat="43.464904397143144" lon="11.4080722982686"><ele>355.66666666666663</ele><time>2026-03-29T07:46:06.999Z</time></trkpt><trkpt lat="43.46475235596473" lon="11.408129949212679"><ele>355.0</ele><time>2026-03-29T07:46:07.999Z</time></trkpt><trkpt lat="43.46459867752958" lon="11.4081873798844"><ele>355.0</ele><time>2026-03-29T07:46:08.999Z</time></trkpt><trkpt lat="43.46447224379057" lon="11.408250147097545"><ele>355.0</ele><time>2026-03-29T07:46:09.999Z</time></trkpt><trkpt lat="43.46437213475857" lon="11.408387481873257"><ele>355.0</ele><time>2026-03-29T07:46:10.999Z</time></trkpt><trkpt lat="43.464285167019426" lon="11.40856194021954"><ele>355.0</ele><time>2026-03-29T07:46:11.999Z</time></trkpt><trkpt lat="43.46422400189959" lon="11.408769616983584"><ele>355.3333333333333</ele><time>2026-03-29T07:46:12.999Z</time></trkpt><trkpt lat="43.464181785329714" lon="11.408991633875846"><ele>355.6666666666667</ele><time>2026-03-29T07:46:13.999Z</time></trkpt><trkpt lat="43.46415310139144" lon="11.409229363722819"><ele>356.0</ele><time>2026-03-29T07:46:14.999Z</time></trkpt><trkpt lat="43.464120884616555" lon="11.409467507318515"><ele>357.33333333333337</ele><time>2026-03-29T07:46:15.999Z</time></trkpt><trkpt lat="43.46410041995059" lon="11.40967681406067"><ele>358.6666666666667</ele><time>2026-03-29T07:46:17Z</time></trkpt><trkpt lat="43.464071715471746" lon="11.409876002810808"><ele>360.0</ele><time>2026-03-29T07:46:18Z</time></trkpt><trkpt lat="43.46403169320157" lon="11.410088632329572"><ele>360.0</ele><time>2026-03-29T07:46:19Z</time></trkpt><trkpt lat="43.46397415767482" lon="11.410306212985105"><ele>360.0</ele><time>2026-03-29T07:46:20Z</time></trkpt><trkpt lat="43.463891219660724" lon="11.410511211686842"><ele>360.0</ele><time>2026-03-29T07:46:21Z</time></trkpt><trkpt lat="43.46379086201388" lon="11.410693550928281"><ele>358.3333333333333</ele><time>2026-03-29T07:46:22Z</time></trkpt><trkpt lat="43.463682698413656" lon="11.410874223901278"><ele>356.66666666666663</ele><time>2026-03-29T07:46:23Z</time></trkpt><trkpt lat="43.46356916957771" lon="11.411072433215544"><ele>355.0</ele><time>2026-03-29T07:46:24Z</time></trkpt><trkpt lat="43.46345271347417" lon="11.411280682136091"><ele>355.3333333333333</ele><time>2026-03-29T07:46:25Z</time></trkpt><trkpt lat="43.46333831833292" lon="11.4114971367461"><ele>355.6666666666667</ele><time>2026-03-29T07:46:26Z</time></trkpt><trkpt lat="43.46323341634869" lon="11.411695382838865"><ele>356.0</ele><time>2026-03-29T07:46:27Z</time></trkpt><trkpt lat="43.46313430405536" lon="11.411875714467296"><ele>356.0</ele><time>2026-03-29T07:46:28Z</time></trkpt><trkpt lat="43.46303107258856" lon="11.412067201899774"><ele>356.0</ele><time>2026-03-29T07:46:29Z</time></trkpt><trkpt lat="43.462920224773384" lon="11.412272503333046"><ele>356.0</ele><time>2026-03-29T07:46:30Z</time></trkpt><trkpt lat="43.4628052918221" lon="11.412492619923299"><ele>355.0</ele><time>2026-03-29T07:46:31Z</time></trkpt><trkpt lat="43.46268425651627" lon="11.412716007516636"><ele>354.0</ele><time>2026-03-29T07:46:32Z</time></trkpt><trkpt lat="43.46256764541703" lon="11.412934687792639"><ele>353.0</ele><time>2026-03-29T07:46:33Z</time></trkpt><trkpt lat="43.46246238953754" lon="11.413123070176127"><ele>353.0</ele><time>2026-03-29T07:46:34Z</time></trkpt><trkpt lat="43.46236235407897" lon="11.413288406058545"><ele>353.0</ele><time>2026-03-29T07:46:35Z</time></trkpt><trkpt lat="43.46226078026947" lon="11.413431326705714"><ele>353.0</ele><time>2026-03-29T07:46:36Z</time></trkpt><trkpt lat="43.46214963139767" lon="11.413543937703963"><ele>353.0</ele><time>2026-03-29T07:46:37Z</time></trkpt><trkpt lat="43.462013667129575" lon="11.413640797652144"><ele>351.6666666666667</ele><time>2026-03-29T07:46:38Z</time></trkpt><trkpt lat="43.46185448528106" lon="11.413731294961527"><ele>350.3333333333333</ele><time>2026-03-29T07:46:39Z</time></trkpt><trkpt lat="43.46169014048635" lon="11.413792663113671"><ele>349.0</ele><time>2026-03-29T07:46:40Z</time></trkpt><trkpt lat="43.46154441187576" lon="11.413841649822656"><ele>348.66666666666663</ele><time>2026-03-29T07:46:41Z</time></trkpt><trkpt lat="43.46141355797826" lon="11.413920691241236"><ele>348.3333333333333</ele><time>2026-03-29T07:46:42Z</time></trkpt><trkpt lat="43.461286631200764" lon="11.41404964455185"><ele>348.0</ele><time>2026-03-29T07:46:43Z</time></trkpt><trkpt lat="43.46116632010287" lon="11.414221626312868"><ele>348.0</ele><time>2026-03-29T07:46:44Z</time></trkpt><trkpt lat="43.46104240583163" lon="11.414396034793407"><ele>348.0</ele><time>2026-03-29T07:46:45Z</time></trkpt><trkpt lat="43.46092748061818" lon="11.41454172058702"><ele>348.0</ele><time>2026-03-29T07:46:46Z</time></trkpt><trkpt lat="43.460816407930956" lon="11.414666479621868"><ele>348.0</ele><time>2026-03-29T07:46:47Z</time></trkpt><trkpt lat="43.46069595274487" lon="11.414768235324797"><ele>348.0</ele><time>2026-03-29T07:46:48Z</time></trkpt><trkpt lat="43.460544006319815" lon="11.414854309138086"><ele>348.0</ele><time>2026-03-29T07:46:49Z</time></trkpt><trkpt lat="43.460378525373265" lon="11.414931280662312"><ele>348.0</ele><time>2026-03-29T07:46:50Z</time></trkpt><trkpt lat="43.46020704848468" lon="11.415025524865863"><ele>348.0</ele><time>2026-03-29T07:46:51Z</time></trkpt><trkpt lat="43.46003141644657" lon="11.415146789990716"><ele>348.0</ele><time>2026-03-29T07:46:52Z</time></trkpt><trkpt lat="43.45984599410302" lon="11.41528793990157"><ele>348.0</ele><time>2026-03-29T07:46:53Z</time></trkpt><trkpt lat="43.45966866439821" lon="11.415425611556785"><ele>348.0</ele><time>2026-03-29T07:46:54Z</time></trkpt><trkpt lat="43.459507394298335" lon="11.415545143516702"><ele>348.0</ele><time>2026-03-29T07:46:55Z</time></trkpt><trkpt lat="43.45936130407212" lon="11.415647806970217"><ele>347.6666666666667</ele><time>2026-03-29T07:46:56Z</time></trkpt><trkpt lat="43.45920583765313" lon="11.415757235669112"><ele>347.33333333333337</ele><time>2026-03-29T07:46:57Z</time></trkpt><trkpt lat="43.45904321208898" lon="11.415884028606472"><ele>347.0</ele><time>2026-03-29T07:46:58Z</time></trkpt><trkpt lat="43.458866813261416" lon="11.416003100770942"><ele>345.0</ele><time>2026-03-29T07:46:59Z</time></trkpt><trkpt lat="43.45868519054207" lon="11.416110883497167"><ele>343.0</ele><time>2026-03-29T07:47:00Z</time></trkpt><trkpt lat="43.45850414492269" lon="11.416191447687023"><ele>341.0</ele><time>2026-03-29T07:47:01Z</time></trkpt><trkpt lat="43.45831533928542" lon="11.416251289618781"><ele>341.0</ele><time>2026-03-29T07:47:02Z</time></trkpt><trkpt lat="43.458147757538946" lon="11.41631132189771"><ele>341.0</ele><time>2026-03-29T07:47:03Z</time></trkpt><trkpt lat="43.45799065953335" lon="11.416384504583927"><ele>341.0</ele><time>2026-03-29T07:47:04Z</time></trkpt><trkpt lat="43.45784927100784" lon="11.416470916767409"><ele>340.6666666666667</ele><time>2026-03-29T07:47:05Z</time></trkpt><trkpt lat="43.45772314021808" lon="11.416592339220335"><ele>340.3333333333333</ele><time>2026-03-29T07:47:06Z</time></trkpt><trkpt lat="43.457615737903794" lon="11.416727076440601"><ele>340.0</ele><time>2026-03-29T07:47:07Z</time></trkpt><trkpt lat="43.45751839877522" lon="11.416897780309547"><ele>340.0</ele><time>2026-03-29T07:47:08Z</time></trkpt><trkpt lat="43.457428216337796" lon="11.417096130744596"><ele>340.0</ele><time>2026-03-29T07:47:09Z</time></trkpt><trkpt lat="43.4573522587337" lon="11.417325651426058"><ele>340.0</ele><time>2026-03-29T07:47:10Z</time></trkpt><trkpt lat="43.45729494722267" lon="11.417566725602878"><ele>341.0</ele><time>2026-03-29T07:47:11Z</time></trkpt><trkpt lat="43.45726864623016" lon="11.417825684635487"><ele>342.0</ele><time>2026-03-29T07:47:12Z</time></trkpt><trkpt lat="43.45726486654147" lon="11.418049375606973"><ele>343.0</ele><time>2026-03-29T07:47:13Z</time></trkpt><trkpt lat="43.45726013398256" lon="11.418239770908464"><ele>343.25</ele><time>2026-03-29T07:47:14Z</time></trkpt><trkpt lat="43.45721649345032" lon="11.418412073668627"><ele>343.5</ele><time>2026-03-29T07:47:15Z</time></trkpt><trkpt lat="43.45713226871949" lon="11.418560765980313"><ele>343.75</ele><time>2026-03-29T07:47:16Z</time></trkpt><trkpt lat="43.4570067808776" lon="11.418711764004787"><ele>344.0</ele><time>2026-03-29T07:47:17Z</time></trkpt><trkpt lat="43.45687221359424" lon="11.41886018504048"><ele>342.6666666666667</ele><time>2026-03-29T07:47:17.999Z</time></trkpt><trkpt lat="43.45673181360599" lon="11.419000161922215"><ele>341.3333333333333</ele><time>2026-03-29T07:47:18.999Z</time></trkpt><trkpt lat="43.456603839598884" lon="11.419143428342013"><ele>340.0</ele><time>2026-03-29T07:47:19.999Z</time></trkpt><trkpt lat="43.45649243795471" lon="11.419290970530712"><ele>340.0</ele><time>2026-03-29T07:47:20.999Z</time></trkpt><trkpt lat="43.45637774815304" lon="11.419419830042552"><ele>340.0</ele><time>2026-03-29T07:47:21.999Z</time></trkpt><trkpt lat="43.456232902768484" lon="11.419523604062116"><ele>340.0</ele><time>2026-03-29T07:47:22.999Z</time></trkpt><trkpt lat="43.456073726487745" lon="11.419595727713732"><ele>338.66666666666663</ele><time>2026-03-29T07:47:23.999Z</time></trkpt><trkpt lat="43.45590381306732" lon="11.419649991045054"><ele>337.3333333333333</ele><time>2026-03-29T07:47:24.999Z</time></trkpt><trkpt lat="43.45573344588156" lon="11.419726597541104"><ele>336.0</ele><time>2026-03-29T07:47:25.999Z</time></trkpt><trkpt lat="43.45557055784397" lon="11.419787443843713"><ele>339.6666666666667</ele><time>2026-03-29T07:47:26.999Z</time></trkpt><trkpt lat="43.455413509654484" lon="11.419772612243959"><ele>343.33333333333337</ele><time>2026-03-29T07:47:27.999Z</time></trkpt><trkpt lat="43.45525779713433" lon="11.419769223956447"><ele>347.0</ele><time>2026-03-29T07:47:28.999Z</time></trkpt><trkpt lat="43.45508611147627" lon="11.419726842333302"><ele>347.0</ele><time>2026-03-29T07:47:29.999Z</time></trkpt><trkpt lat="43.454904229150046" lon="11.419683834708048"><ele>347.0</ele><time>2026-03-29T07:47:30.999Z</time></trkpt><trkpt lat="43.45474393644333" lon="11.41958926585718"><ele>347.0</ele><time>2026-03-29T07:47:31.999Z</time></trkpt><trkpt lat="43.45460398259844" lon="11.419493277133917"><ele>345.0</ele><time>2026-03-29T07:47:32.999Z</time></trkpt><trkpt lat="43.45446728537607" lon="11.419367429106654"><ele>343.0</ele><time>2026-03-29T07:47:33.999Z</time></trkpt><trkpt lat="43.45431840284464" lon="11.41922893866802"><ele>341.0</ele><time>2026-03-29T07:47:34.999Z</time></trkpt><trkpt lat="43.4541723092215" lon="11.419091412566042"><ele>341.0</ele><time>2026-03-29T07:47:35.999Z</time></trkpt><trkpt lat="43.45403693123859" lon="11.418962983773119"><ele>341.0</ele><time>2026-03-29T07:47:36.999Z</time></trkpt><trkpt lat="43.453904291348536" lon="11.418838219116779"><ele>341.0</ele><time>2026-03-29T07:47:37.999Z</time></trkpt><trkpt lat="43.45378502938015" lon="11.418761544741193"><ele>338.75</ele><time>2026-03-29T07:47:38.999Z</time></trkpt><trkpt lat="43.45367257232444" lon="11.418686166855943"><ele>336.5</ele><time>2026-03-29T07:47:39.999Z</time></trkpt><trkpt lat="43.45354440690714" lon="11.418650091081318"><ele>334.25</ele><time>2026-03-29T07:47:40.999Z</time></trkpt><trkpt lat="43.453404867383796" lon="11.418631053826779"><ele>332.0</ele><time>2026-03-29T07:47:41.999Z</time></trkpt><trkpt lat="43.45324224213009" lon="11.418628549068677"><ele>332.0</ele><time>2026-03-29T07:47:42.999Z</time></trkpt><trkpt lat="43.45306558476077" lon="11.418639494027596"><ele>332.0</ele><time>2026-03-29T07:47:43.999Z</time></trkpt><trkpt lat="43.45286707639958" lon="11.418653660979455"><ele>332.0</ele><time>2026-03-29T07:47:44.999Z</time></trkpt><trkpt lat="43.452661923575846" lon="11.418664620240143"><ele>331.6666666666667</ele><time>2026-03-29T07:47:45.999Z</time></trkpt><trkpt lat="43.45245781302958" lon="11.418664310766456"><ele>331.3333333333333</ele><time>2026-03-29T07:47:46.999Z</time></trkpt><trkpt lat="43.45224520488167" lon="11.418671152711147"><ele>331.0</ele><time>2026-03-29T07:47:47.999Z</time></trkpt><trkpt lat="43.45204670019518" lon="11.418682380277533"><ele>330.3333333333333</ele><time>2026-03-29T07:47:48.999Z</time></trkpt><trkpt lat="43.45186370684981" lon="11.418696689301782"><ele>329.6666666666667</ele><time>2026-03-29T07:47:49.999Z</time></trkpt><trkpt lat="43.45168567861635" lon="11.41870910421331"><ele>329.0</ele><time>2026-03-29T07:47:50.999Z</time></trkpt><trkpt lat="43.45152318689938" lon="11.418734227558561"><ele>329.0</ele><time>2026-03-29T07:47:51.999Z</time></trkpt><trkpt lat="43.45136752492292" lon="11.418767558072933"><ele>329.0</ele><time>2026-03-29T07:47:52.999Z</time></trkpt><trkpt lat="43.451218915356094" lon="11.418793677368829"><ele>329.0</ele><time>2026-03-29T07:47:53.999Z</time></trkpt><trkpt lat="43.45108322780101" lon="11.41881622851345"><ele>329.0</ele><time>2026-03-29T07:47:54.999Z</time></trkpt><trkpt lat="43.45095977362718" lon="11.418833300960298"><ele>328.5</ele><time>2026-03-29T07:47:55.999Z</time></trkpt><trkpt lat="43.450851273844556" lon="11.418846963305837"><ele>328.0</ele><time>2026-03-29T07:47:56.999Z</time></trkpt><trkpt lat="43.450761643473065" lon="11.418859437497503"><ele>327.5</ele><time>2026-03-29T07:47:57.999Z</time></trkpt><trkpt lat="43.45069363652019" lon="11.418869512693956"><ele>327.0</ele><time>2026-03-29T07:47:58.999Z</time></trkpt><trkpt lat="43.45060895361391" lon="11.418876668331777"><ele>326.5</ele><time>2026-03-29T07:48:00.999Z</time></trkpt><trkpt lat="43.45053811725977" lon="11.418891527902524"><ele>326.0</ele><time>2026-03-29T07:48:03.999Z</time></trkpt><trkpt lat="43.45048664071733" lon="11.418962481335702"><ele>326.0</ele><time>2026-03-29T07:48:07.999Z</time></trkpt><trkpt lat="43.45052867926704" lon="11.4190718117564"><ele>326.0</ele><time>2026-03-29T07:48:09.999Z</time></trkpt><trkpt lat="43.45060868198761" lon="11.419093777844836"><ele>326.0</ele><time>2026-03-29T07:48:11.999Z</time></trkpt><trkpt lat="43.45073222142498" lon="11.41911640844842"><ele>326.0</ele><time>2026-03-29T07:48:13.999Z</time></trkpt><trkpt lat="43.45081456227868" lon="11.419126379445139"><ele>326.0</ele><time>2026-03-29T07:48:14.999Z</time></trkpt><trkpt lat="43.45088029033546" lon="11.419162189068476"><ele>326.0</ele><time>2026-03-29T07:48:15.999Z</time></trkpt><trkpt lat="43.450963521330685" lon="11.419188160728547"><ele>326.0</ele><time>2026-03-29T07:48:17.999Z</time></trkpt><trkpt lat="43.451040627954335" lon="11.419214904975647"><ele>326.0</ele><time>2026-03-29T07:48:33Z</time></trkpt><trkpt lat="43.451101483282514" lon="11.419262393944484"><ele>326.0</ele><time>2026-03-29T07:48:36Z</time></trkpt><trkpt lat="43.451190636404036" lon="11.41933091127962"><ele>326.0</ele><time>2026-03-29T07:48:51Z</time></trkpt><trkpt lat="43.451263288120565" lon="11.419394823424385"><ele>326.0</ele><time>2026-03-29T07:48:52Z</time></trkpt><trkpt lat="43.45134342735382" lon="11.419467375406008"><ele>326.0</ele><time>2026-03-29T07:48:53Z</time></trkpt><trkpt lat="43.45142858247574" lon="11.41955051771929"><ele>327.25</ele><time>2026-03-29T07:48:54Z</time></trkpt><trkpt lat="43.4515244978803" lon="11.419666489342651"><ele>328.5</ele><time>2026-03-29T07:48:55Z</time></trkpt><trkpt lat="43.45160966845265" lon="11.41978273563742"><ele>329.75</ele><time>2026-03-29T07:48:56Z</time></trkpt><trkpt lat="43.45169307779545" lon="11.41991874735554"><ele>331.0</ele><time>2026-03-29T07:48:57Z</time></trkpt><trkpt lat="43.451785680549584" lon="11.42006972496943"><ele>331.0</ele><time>2026-03-29T07:48:58Z</time></trkpt><trkpt lat="43.451881611193045" lon="11.420225096248837"><ele>331.0</ele><time>2026-03-29T07:48:59Z</time></trkpt><trkpt lat="43.45197387995358" lon="11.420364927639435"><ele>331.0</ele><time>2026-03-29T07:49:00Z</time></trkpt><trkpt lat="43.45206775954968" lon="11.4205068964454"><ele>331.0</ele><time>2026-03-29T07:49:01Z</time></trkpt><trkpt lat="43.45216263335791" lon="11.42066127270392"><ele>332.0</ele><time>2026-03-29T07:49:02Z</time></trkpt><trkpt lat="43.45226139875886" lon="11.420810560523629"><ele>333.0</ele><time>2026-03-29T07:49:03Z</time></trkpt><trkpt lat="43.4523572264306" lon="11.420949743714171"><ele>334.0</ele><time>2026-03-29T07:49:04Z</time></trkpt><trkpt lat="43.45246378459314" lon="11.421086952893239"><ele>335.0</ele><time>2026-03-29T07:49:05Z</time></trkpt><trkpt lat="43.452594150990834" lon="11.421228149079377"><ele>334.0</ele><time>2026-03-29T07:49:06Z</time></trkpt><trkpt lat="43.452736890610566" lon="11.421347849142322"><ele>333.0</ele><time>2026-03-29T07:49:07Z</time></trkpt><trkpt lat="43.45287478941658" lon="11.421442611919016"><ele>332.0</ele><time>2026-03-29T07:49:08Z</time></trkpt><trkpt lat="43.45300178242095" lon="11.421537017377675"><ele>332.0</ele><time>2026-03-29T07:49:09Z</time></trkpt><trkpt lat="43.453118268918324" lon="11.421693161375257"><ele>332.0</ele><time>2026-03-29T07:49:10Z</time></trkpt><trkpt lat="43.45323925502055" lon="11.421851229171345"><ele>332.0</ele><time>2026-03-29T07:49:11Z</time></trkpt><trkpt lat="43.45334947813543" lon="11.422035400834767"><ele>329.6666666666667</ele><time>2026-03-29T07:49:12Z</time></trkpt><trkpt lat="43.45347155231342" lon="11.42222480869772"><ele>327.3333333333333</ele><time>2026-03-29T07:49:13Z</time></trkpt><trkpt lat="43.45359764940025" lon="11.422419512500769"><ele>325.0</ele><time>2026-03-29T07:49:14Z</time></trkpt><trkpt lat="43.45371061169264" lon="11.422597237887238"><ele>326.5</ele><time>2026-03-29T07:49:15Z</time></trkpt><trkpt lat="43.45381257614053" lon="11.422758541126793"><ele>328.0</ele><time>2026-03-29T07:49:16Z</time></trkpt><trkpt lat="43.453909358301104" lon="11.42290807692439"><ele>329.5</ele><time>2026-03-29T07:49:17Z</time></trkpt><trkpt lat="43.45400863065435" lon="11.423060561273873"><ele>331.0</ele><time>2026-03-29T07:49:18Z</time></trkpt><trkpt lat="43.45411060701198" lon="11.423223388045251"><ele>331.0</ele><time>2026-03-29T07:49:19Z</time></trkpt><trkpt lat="43.4542088354355" lon="11.42337476365577"><ele>331.0</ele><time>2026-03-29T07:49:20Z</time></trkpt><trkpt lat="43.45428934762439" lon="11.423499685843998"><ele>331.0</ele><time>2026-03-29T07:49:21Z</time></trkpt><trkpt lat="43.4543655769352" lon="11.423605755264653"><ele>331.0</ele><time>2026-03-29T07:49:22Z</time></trkpt><trkpt lat="43.45444750548866" lon="11.423692728316896"><ele>331.0</ele><time>2026-03-29T07:49:23Z</time></trkpt><trkpt lat="43.45452974811371" lon="11.423773426932922"><ele>331.0</ele><time>2026-03-29T07:49:24Z</time></trkpt><trkpt lat="43.45461802458431" lon="11.423852123930015"><ele>331.0</ele><time>2026-03-29T07:49:25Z</time></trkpt><trkpt lat="43.45470845184821" lon="11.423946539786641"><ele>331.0</ele><time>2026-03-29T07:49:26Z</time></trkpt><trkpt lat="43.454777886056185" lon="11.424025279044336"><ele>331.0</ele><time>2026-03-29T07:49:26.999Z</time></trkpt><trkpt lat="43.45484291117758" lon="11.424101862605324"><ele>331.5</ele><time>2026-03-29T07:49:27.999Z</time></trkpt><trkpt lat="43.45491738291949" lon="11.424180498418606"><ele>332.0</ele><time>2026-03-29T07:49:28.999Z</time></trkpt><trkpt lat="43.45500767887723" lon="11.424274123184915"><ele>332.5</ele><time>2026-03-29T07:49:29.999Z</time></trkpt><trkpt lat="43.4551163552152" lon="11.424380764236446"><ele>333.0</ele><time>2026-03-29T07:49:30.999Z</time></trkpt><trkpt lat="43.45523356708931" lon="11.42449893733843"><ele>333.0</ele><time>2026-03-29T07:49:31.999Z</time></trkpt><trkpt lat="43.455349521011634" lon="11.424617775579254"><ele>333.0</ele><time>2026-03-29T07:49:32.999Z</time></trkpt><trkpt lat="43.45547047423854" lon="11.424744399187931"><ele>333.0</ele><time>2026-03-29T07:49:33.999Z</time></trkpt><trkpt lat="43.45559740359104" lon="11.424878051914837"><ele>334.0</ele><time>2026-03-29T07:49:34.999Z</time></trkpt><trkpt lat="43.45571021307128" lon="11.424999554450165"><ele>335.0</ele><time>2026-03-29T07:49:35.999Z</time></trkpt><trkpt lat="43.45581679334451" lon="11.42511550376898"><ele>336.0</ele><time>2026-03-29T07:49:36.999Z</time></trkpt><trkpt lat="43.45592719891626" lon="11.425230977657728"><ele>337.0</ele><time>2026-03-29T07:49:37.999Z</time></trkpt><trkpt lat="43.456039896086814" lon="11.425340926208278"><ele>337.0</ele><time>2026-03-29T07:49:38.999Z</time></trkpt><trkpt lat="43.456148994274024" lon="11.425439749850842"><ele>337.0</ele><time>2026-03-29T07:49:39.999Z</time></trkpt><trkpt lat="43.456266006737124" lon="11.425499810043103"><ele>337.0</ele><time>2026-03-29T07:49:40.999Z</time></trkpt><trkpt lat="43.45640580550604" lon="11.425530309396034"><ele>337.0</ele><time>2026-03-29T07:49:41.999Z</time></trkpt><trkpt lat="43.45656484001531" lon="11.425531946001003"><ele>338.66666666666663</ele><time>2026-03-29T07:49:42.999Z</time></trkpt><trkpt lat="43.456735961876326" lon="11.425538618041017"><ele>340.3333333333333</ele><time>2026-03-29T07:49:43.999Z</time></trkpt><trkpt lat="43.456917696695456" lon="11.42560188517523"><ele>342.0</ele><time>2026-03-29T07:49:44.999Z</time></trkpt><trkpt lat="43.45709372157339" lon="11.425637150648328"><ele>340.0</ele><time>2026-03-29T07:49:45.999Z</time></trkpt><trkpt lat="43.4572754124683" lon="11.425714080466687"><ele>338.0</ele><time>2026-03-29T07:49:46.999Z</time></trkpt><trkpt lat="43.45745965423374" lon="11.425796918604924"><ele>336.0</ele><time>2026-03-29T07:49:47.999Z</time></trkpt><trkpt lat="43.457649671068474" lon="11.42588604154331"><ele>336.0</ele><time>2026-03-29T07:49:48.999Z</time></trkpt><trkpt lat="43.457840838354336" lon="11.425969621991447"><ele>336.0</ele><time>2026-03-29T07:49:49.999Z</time></trkpt><trkpt lat="43.45801041867671" lon="11.426045992969252"><ele>336.0</ele><time>2026-03-29T07:49:50.999Z</time></trkpt><trkpt lat="43.45816778427283" lon="11.426115164201665"><ele>336.0</ele><time>2026-03-29T07:49:51.999Z</time></trkpt><trkpt lat="43.458318302398446" lon="11.426178452415625"><ele>336.0</ele><time>2026-03-29T07:49:52.999Z</time></trkpt><trkpt lat="43.45847577762138" lon="11.426247781507662"><ele>336.0</ele><time>2026-03-29T07:49:53.999Z</time></trkpt><trkpt lat="43.458642901982635" lon="11.42632281476578"><ele>337.0</ele><time>2026-03-29T07:49:54.999Z</time></trkpt><trkpt lat="43.45881353843907" lon="11.426400341274926"><ele>338.0</ele><time>2026-03-29T07:49:55.999Z</time></trkpt><trkpt lat="43.45898831430235" lon="11.42647751523358"><ele>339.0</ele><time>2026-03-29T07:49:56.999Z</time></trkpt><trkpt lat="43.45916687571128" lon="11.426556047494723"><ele>339.0</ele><time>2026-03-29T07:49:57.999Z</time></trkpt><trkpt lat="43.45934771967236" lon="11.42663462971252"><ele>339.0</ele><time>2026-03-29T07:49:58.999Z</time></trkpt><trkpt lat="43.45953166730951" lon="11.426713810262669"><ele>339.0</ele><time>2026-03-29T07:49:59.999Z</time></trkpt><trkpt lat="43.45971161587684" lon="11.426795834137113"><ele>340.3333333333333</ele><time>2026-03-29T07:50:00.999Z</time></trkpt><trkpt lat="43.459877043844834" lon="11.426867648904677"><ele>341.66666666666663</ele><time>2026-03-29T07:50:01.999Z</time></trkpt><trkpt lat="43.46003959704094" lon="11.4269418398774"><ele>343.0</ele><time>2026-03-29T07:50:02.999Z</time></trkpt><trkpt lat="43.460209051606476" lon="11.42701717390492"><ele>343.0</ele><time>2026-03-29T07:50:03.999Z</time></trkpt><trkpt lat="43.460383481314196" lon="11.42709653144555"><ele>343.0</ele><time>2026-03-29T07:50:04.999Z</time></trkpt><trkpt lat="43.46055827330257" lon="11.427188183795534"><ele>343.0</ele><time>2026-03-29T07:50:05.999Z</time></trkpt><trkpt lat="43.460727931555105" lon="11.427318853504499"><ele>342.0</ele><time>2026-03-29T07:50:06.999Z</time></trkpt><trkpt lat="43.46088769608732" lon="11.427479694400985"><ele>341.0</ele><time>2026-03-29T07:50:07.999Z</time></trkpt><trkpt lat="43.46104137099101" lon="11.427653779864366"><ele>340.0</ele><time>2026-03-29T07:50:08.999Z</time></trkpt><trkpt lat="43.4611769523515" lon="11.427808568631486"><ele>340.66666666666663</ele><time>2026-03-29T07:50:09.999Z</time></trkpt><trkpt lat="43.46131177217" lon="11.427955320716572"><ele>341.3333333333333</ele><time>2026-03-29T07:50:10.999Z</time></trkpt><trkpt lat="43.46145104905365" lon="11.428096186730313"><ele>342.0</ele><time>2026-03-29T07:50:11.999Z</time></trkpt><trkpt lat="43.461579257406946" lon="11.42824020649093"><ele>342.0</ele><time>2026-03-29T07:50:12.999Z</time></trkpt><trkpt lat="43.46169240654425" lon="11.42836311354869"><ele>342.0</ele><time>2026-03-29T07:50:13.999Z</time></trkpt><trkpt lat="43.4617830443086" lon="11.428476027133055"><ele>342.0</ele><time>2026-03-29T07:50:14.999Z</time></trkpt><trkpt lat="43.46186040362559" lon="11.428565432987028"><ele>342.0</ele><time>2026-03-29T07:50:15.999Z</time></trkpt><trkpt lat="43.461921516965084" lon="11.428645262896241"><ele>342.0</ele><time>2026-03-29T07:50:16.999Z</time></trkpt><trkpt lat="43.46198997322207" lon="11.428727725091127"><ele>342.0</ele><time>2026-03-29T07:50:17.999Z</time></trkpt><trkpt lat="43.46206028846586" lon="11.428809126462157"><ele>342.0</ele><time>2026-03-29T07:50:18.999Z</time></trkpt><trkpt lat="43.462123964857" lon="11.428886492319041"><ele>342.0</ele><time>2026-03-29T07:50:19.999Z</time></trkpt><trkpt lat="43.462196802804726" lon="11.428981499834315"><ele>342.0</ele><time>2026-03-29T07:50:20.999Z</time></trkpt><trkpt lat="43.46226574878909" lon="11.429071391188026"><ele>342.6666666666667</ele><time>2026-03-29T07:50:21.999Z</time></trkpt><trkpt lat="43.46233367339771" lon="11.429156018091877"><ele>343.3333333333333</ele><time>2026-03-29T07:50:22.999Z</time></trkpt><trkpt lat="43.46240420294461" lon="11.42924426666847"><ele>344.0</ele><time>2026-03-29T07:50:23.999Z</time></trkpt><trkpt lat="43.46247003730745" lon="11.429324304488095"><ele>344.66666666666663</ele><time>2026-03-29T07:50:24.999Z</time></trkpt><trkpt lat="43.462526607154835" lon="11.429393791896976"><ele>345.3333333333333</ele><time>2026-03-29T07:50:25.999Z</time></trkpt><trkpt lat="43.46257755176387" lon="11.42946048906942"><ele>346.0</ele><time>2026-03-29T07:50:26.999Z</time></trkpt><trkpt lat="43.46262953002162" lon="11.429531066849556"><ele>346.0</ele><time>2026-03-29T07:50:27.999Z</time></trkpt><trkpt lat="43.46268371253544" lon="11.429599593368824"><ele>346.0</ele><time>2026-03-29T07:50:29Z</time></trkpt><trkpt lat="43.462738801867104" lon="11.429668241346223"><ele>346.0</ele><time>2026-03-29T07:50:30Z</time></trkpt><trkpt lat="43.46279541779576" lon="11.429737547299233"><ele>346.0</ele><time>2026-03-29T07:50:31Z</time></trkpt><trkpt lat="43.46284826760612" lon="11.42980880677342"><ele>346.0</ele><time>2026-03-29T07:50:32Z</time></trkpt><trkpt lat="43.462897102851414" lon="11.42988780617526"><ele>346.0</ele><time>2026-03-29T07:50:33Z</time></trkpt><trkpt lat="43.46294304050485" lon="11.42997074680208"><ele>346.0</ele><time>2026-03-29T07:50:34Z</time></trkpt><trkpt lat="43.46298452840803" lon="11.430047496476048"><ele>346.16666666666663</ele><time>2026-03-29T07:50:35Z</time></trkpt><trkpt lat="43.463061240999735" lon="11.430193001128494"><ele>346.3333333333333</ele><time>2026-03-29T07:50:37Z</time></trkpt><trkpt lat="43.463103875824544" lon="11.430269648611102"><ele>346.5</ele><time>2026-03-29T07:50:38Z</time></trkpt><trkpt lat="43.463146233589015" lon="11.430347134584823"><ele>346.6666666666667</ele><time>2026-03-29T07:50:39Z</time></trkpt><trkpt lat="43.46318143948027" lon="11.430425185659015"><ele>346.83333333333337</ele><time>2026-03-29T07:50:40Z</time></trkpt><trkpt lat="43.46323497477988" lon="11.430485071447357"><ele>347.0</ele><time>2026-03-29T07:50:41Z</time></trkpt><trkpt lat="43.46330444136906" lon="11.430592984287408"><ele>347.0</ele><time>2026-03-29T07:50:43Z</time></trkpt><trkpt lat="43.46334149735355" lon="11.430714126211296"><ele>347.0</ele><time>2026-03-29T07:50:45Z</time></trkpt><trkpt lat="43.46339685292516" lon="11.430790430129136"><ele>347.0</ele><time>2026-03-29T07:50:47Z</time></trkpt><trkpt lat="43.46337697610265" lon="11.430913714115393"><ele>347.0</ele><time>2026-03-29T07:51:19Z</time></trkpt><trkpt lat="43.463435341155076" lon="11.431003943738007"><ele>347.0</ele><time>2026-03-29T07:54:25.999Z</time></trkpt><trkpt lat="43.46348969936705" lon="11.431098567497436"><ele>347.0</ele><time>2026-03-29T07:54:26.999Z</time></trkpt><trkpt lat="43.46359160543295" lon="11.431167030959568"><ele>347.0</ele><time>2026-03-29T07:54:28.999Z</time></trkpt><trkpt lat="43.463638482149534" lon="11.431225535187433"><ele>347.0</ele><time>2026-03-29T07:54:29.999Z</time></trkpt><trkpt lat="43.463687020175584" lon="11.431312443249057"><ele>347.0</ele><time>2026-03-29T07:54:30.999Z</time></trkpt><trkpt lat="43.463739607842015" lon="11.431440693252904"><ele>347.0</ele><time>2026-03-29T07:54:31.999Z</time></trkpt><trkpt lat="43.46379397517493" lon="11.431582042951721"><ele>347.0</ele><time>2026-03-29T07:54:32.999Z</time></trkpt><trkpt lat="43.463856114138316" lon="11.43173174154092"><ele>347.40000000000003</ele><time>2026-03-29T07:54:33.999Z</time></trkpt><trkpt lat="43.463899410037115" lon="11.43187052248664"><ele>347.8</ele><time>2026-03-29T07:54:34.999Z</time></trkpt><trkpt lat="43.463941133700686" lon="11.431984580529317"><ele>348.2</ele><time>2026-03-29T07:54:35.999Z</time></trkpt><trkpt lat="43.463978618938214" lon="11.432109200582891"><ele>348.6</ele><time>2026-03-29T07:54:36.999Z</time></trkpt><trkpt lat="43.464024255374945" lon="11.43223370965469"><ele>349.0</ele><time>2026-03-29T07:54:37.999Z</time></trkpt><trkpt lat="43.46407328123131" lon="11.432360006696676"><ele>349.0</ele><time>2026-03-29T07:54:38.999Z</time></trkpt><trkpt lat="43.46412685021173" lon="11.432482911381463"><ele>349.0</ele><time>2026-03-29T07:54:39.999Z</time></trkpt><trkpt lat="43.46417127378985" lon="11.432583960125244"><ele>349.0</ele><time>2026-03-29T07:54:41Z</time></trkpt><trkpt lat="43.46422816419447" lon="11.43268735841425"><ele>349.0</ele><time>2026-03-29T07:54:42Z</time></trkpt><trkpt lat="43.46429751919945" lon="11.432785427821255"><ele>349.0</ele><time>2026-03-29T07:54:43Z</time></trkpt><trkpt lat="43.46438337689286" lon="11.432875260289565"><ele>349.0</ele><time>2026-03-29T07:54:44Z</time></trkpt><trkpt lat="43.4644765834457" lon="11.432956502344176"><ele>349.0</ele><time>2026-03-29T07:54:45Z</time></trkpt><trkpt lat="43.464570165541005" lon="11.433024006980789"><ele>349.0</ele><time>2026-03-29T07:54:46Z</time></trkpt><trkpt lat="43.464667435599225" lon="11.433089214214538"><ele>349.0</ele><time>2026-03-29T07:54:47Z</time></trkpt><trkpt lat="43.464765354333274" lon="11.433162343475487"><ele>349.0</ele><time>2026-03-29T07:54:48Z</time></trkpt><trkpt lat="43.46486204559031" lon="11.433238126016626"><ele>348.75</ele><time>2026-03-29T07:54:49Z</time></trkpt><trkpt lat="43.46495811294299" lon="11.433328351020394"><ele>348.5</ele><time>2026-03-29T07:54:50Z</time></trkpt><trkpt lat="43.46505385963718" lon="11.433438217977937"><ele>348.25</ele><time>2026-03-29T07:54:51Z</time></trkpt><trkpt lat="43.46514365652803" lon="11.433560685019136"><ele>348.0</ele><time>2026-03-29T07:54:52Z</time></trkpt><trkpt lat="43.4652370700571" lon="11.433696344671922"><ele>348.0</ele><time>2026-03-29T07:54:53Z</time></trkpt><trkpt lat="43.46531925144208" lon="11.433820950167721"><ele>348.0</ele><time>2026-03-29T07:54:54Z</time></trkpt><trkpt lat="43.46540114133032" lon="11.433927360672179"><ele>348.0</ele><time>2026-03-29T07:54:55Z</time></trkpt><trkpt lat="43.465486798701484" lon="11.434023834093937"><ele>348.0</ele><time>2026-03-29T07:54:56Z</time></trkpt><trkpt lat="43.46557910532435" lon="11.434103651764804"><ele>348.0</ele><time>2026-03-29T07:54:57Z</time></trkpt><trkpt lat="43.465679021870514" lon="11.434159772081204"><ele>348.0</ele><time>2026-03-29T07:54:58Z</time></trkpt><trkpt lat="43.46578849874687" lon="11.43421576983188"><ele>348.0</ele><time>2026-03-29T07:54:59Z</time></trkpt><trkpt lat="43.46589770190137" lon="11.434255698094132"><ele>348.0</ele><time>2026-03-29T07:55:00Z</time></trkpt><trkpt lat="43.46601641723739" lon="11.434296521215195"><ele>348.0</ele><time>2026-03-29T07:55:01Z</time></trkpt><trkpt lat="43.466139013425725" lon="11.434333535547964"><ele>348.0</ele><time>2026-03-29T07:55:02Z</time></trkpt><trkpt lat="43.466251462622324" lon="11.434359056337007"><ele>348.0</ele><time>2026-03-29T07:55:03Z</time></trkpt><trkpt lat="43.46635520436315" lon="11.434368408650286"><ele>348.0</ele><time>2026-03-29T07:55:04Z</time></trkpt><trkpt lat="43.46646816300995" lon="11.434389285050989"><ele>348.75</ele><time>2026-03-29T07:55:05Z</time></trkpt><trkpt lat="43.466579735977795" lon="11.434371862938745"><ele>349.5</ele><time>2026-03-29T07:55:06Z</time></trkpt><trkpt lat="43.466690356861626" lon="11.434370857261706"><ele>350.25</ele><time>2026-03-29T07:55:07Z</time></trkpt><trkpt lat="43.466807925867506" lon="11.434355620845759"><ele>351.0</ele><time>2026-03-29T07:55:08Z</time></trkpt><trkpt lat="43.46692304181417" lon="11.434360087125409"><ele>351.0</ele><time>2026-03-29T07:55:09Z</time></trkpt><trkpt lat="43.46702218166444" lon="11.434340338654712"><ele>351.0</ele><time>2026-03-29T07:55:10Z</time></trkpt><trkpt lat="43.46711296498421" lon="11.434316794765426"><ele>351.0</ele><time>2026-03-29T07:55:11Z</time></trkpt><trkpt lat="43.46719985748979" lon="11.434267450273378"><ele>351.0</ele><time>2026-03-29T07:55:12Z</time></trkpt><trkpt lat="43.467270525776904" lon="11.434246841606209"><ele>351.0</ele><time>2026-03-29T07:55:13Z</time></trkpt><trkpt lat="43.467330882350716" lon="11.434221810789818"><ele>351.0</ele><time>2026-03-29T07:55:14Z</time></trkpt><trkpt lat="43.46741005549283" lon="11.43419348290395"><ele>351.5</ele><time>2026-03-29T07:55:16Z</time></trkpt><trkpt lat="43.467484781641794" lon="11.434191858746265"><ele>352.0</ele><time>2026-03-29T07:55:25Z</time></trkpt><trkpt lat="43.46754600150413" lon="11.434259879431142"><ele>352.5</ele><time>2026-03-29T07:55:37Z</time></trkpt><trkpt lat="43.467483161550255" lon="11.43424065264009"><ele>353.0</ele><time>2026-03-29T08:03:54Z</time></trkpt><trkpt lat="43.467398640797526" lon="11.43416210659484"><ele>353.5</ele><time>2026-03-29T08:03:58Z</time></trkpt><trkpt lat="43.46727519094911" lon="11.434193058779599"><ele>354.0</ele><time>2026-03-29T08:04:00Z</time></trkpt><trkpt lat="43.467186583271655" lon="11.434230718961983"><ele>353.5</ele><time>2026-03-29T08:04:01Z</time></trkpt><trkpt lat="43.46710222632538" lon="11.434265317688816"><ele>353.0</ele><time>2026-03-29T08:04:02Z</time></trkpt><trkpt lat="43.46701225942136" lon="11.434290247881139"><ele>352.5</ele><time>2026-03-29T08:04:03Z</time></trkpt><trkpt lat="43.46691387242846" lon="11.434311654964304"><ele>352.0</ele><time>2026-03-29T08:04:04Z</time></trkpt><trkpt lat="43.46683061864445" lon="11.434327844431113"><ele>351.5</ele><time>2026-03-29T08:04:05Z</time></trkpt><trkpt lat="43.46674884473451" lon="11.434333303821761"><ele>351.0</ele><time>2026-03-29T08:04:06Z</time></trkpt><trkpt lat="43.466657611106186" lon="11.434343771155689"><ele>351.0</ele><time>2026-03-29T08:04:07Z</time></trkpt><trkpt lat="43.466559018350864" lon="11.434336336057877"><ele>351.0</ele><time>2026-03-29T08:04:08Z</time></trkpt><trkpt lat="43.46646035514423" lon="11.434330262645227"><ele>351.0</ele><time>2026-03-29T08:04:09Z</time></trkpt><trkpt lat="43.46637806233077" lon="11.43432412719165"><ele>351.0</ele><time>2026-03-29T08:04:10Z</time></trkpt><trkpt lat="43.46628524937038" lon="11.434312388318382"><ele>351.0</ele><time>2026-03-29T08:04:11Z</time></trkpt><trkpt lat="43.46617823155916" lon="11.434298134385552"><ele>350.25</ele><time>2026-03-29T08:04:12Z</time></trkpt><trkpt lat="43.46606416480455" lon="11.434264354976284"><ele>349.5</ele><time>2026-03-29T08:04:13Z</time></trkpt><trkpt lat="43.46594696773744" lon="11.434228839036074"><ele>348.75</ele><time>2026-03-29T08:04:14Z</time></trkpt><trkpt lat="43.46583912698174" lon="11.43418436532951"><ele>348.0</ele><time>2026-03-29T08:04:15Z</time></trkpt><trkpt lat="43.46573693401499" lon="11.434144427931495"><ele>348.0</ele><time>2026-03-29T08:04:16Z</time></trkpt><trkpt lat="43.46562448923266" lon="11.43408823927561"><ele>348.0</ele><time>2026-03-29T08:04:17Z</time></trkpt><trkpt lat="43.465526307689636" lon="11.434014685605137"><ele>348.0</ele><time>2026-03-29T08:04:18Z</time></trkpt><trkpt lat="43.465439950660944" lon="11.433917020976924"><ele>348.0</ele><time>2026-03-29T08:04:18.999Z</time></trkpt><trkpt lat="43.4653621557536" lon="11.43379537382248"><ele>348.0</ele><time>2026-03-29T08:04:19.999Z</time></trkpt><trkpt lat="43.46528487504492" lon="11.433651337663953"><ele>348.0</ele><time>2026-03-29T08:04:20.999Z</time></trkpt><trkpt lat="43.465201971481385" lon="11.433505406665551"><ele>348.0</ele><time>2026-03-29T08:04:21.999Z</time></trkpt><trkpt lat="43.465096206045814" lon="11.433385656873527"><ele>348.0</ele><time>2026-03-29T08:04:22.999Z</time></trkpt><trkpt lat="43.46500337333308" lon="11.433282783725867"><ele>348.0</ele><time>2026-03-29T08:04:23.999Z</time></trkpt><trkpt lat="43.46491324899675" lon="11.433199270849903"><ele>348.0</ele><time>2026-03-29T08:04:24.999Z</time></trkpt><trkpt lat="43.464825069956575" lon="11.433135067977204"><ele>348.0</ele><time>2026-03-29T08:04:25.999Z</time></trkpt><trkpt lat="43.46474268995618" lon="11.433074826945997"><ele>348.0</ele><time>2026-03-29T08:04:26.999Z</time></trkpt><trkpt lat="43.464670066720174" lon="11.433027046984042"><ele>348.0</ele><time>2026-03-29T08:04:27.999Z</time></trkpt><trkpt lat="43.464568785755" lon="11.432960013282713"><ele>348.1666666666667</ele><time>2026-03-29T08:04:29.999Z</time></trkpt><trkpt lat="43.46448321457484" lon="11.432901535186042"><ele>348.3333333333333</ele><time>2026-03-29T08:04:31.999Z</time></trkpt><trkpt lat="43.46442318013212" lon="11.432862442463787"><ele>348.5</ele><time>2026-03-29T08:04:33.999Z</time></trkpt><trkpt lat="43.4643674937433" lon="11.432790297003976"><ele>348.66666666666663</ele><time>2026-03-29T08:04:42.999Z</time></trkpt><trkpt lat="43.46430638330774" lon="11.43292477248923"><ele>348.8333333333333</ele><time>2026-03-29T08:04:46.999Z</time></trkpt><trkpt lat="43.464308555279864" lon="11.43301566063098"><ele>349.0</ele><time>2026-03-29T08:04:48.999Z</time></trkpt><trkpt lat="43.46432425829832" lon="11.433196521609268"><ele>348.2</ele><time>2026-03-29T08:04:50.999Z</time></trkpt><trkpt lat="43.46433415710171" lon="11.43332425755631"><ele>347.4</ele><time>2026-03-29T08:04:51.999Z</time></trkpt><trkpt lat="43.46434532673898" lon="11.433456087750235"><ele>346.6</ele><time>2026-03-29T08:04:52.999Z</time></trkpt><trkpt lat="43.46435739691674" lon="11.433599978754616"><ele>345.8</ele><time>2026-03-29T08:04:53.999Z</time></trkpt><trkpt lat="43.464373224156745" lon="11.43375160402659"><ele>345.0</ele><time>2026-03-29T08:04:54.999Z</time></trkpt><trkpt lat="43.46438606129838" lon="11.43389369106834"><ele>345.0</ele><time>2026-03-29T08:04:55.999Z</time></trkpt><trkpt lat="43.46440320160591" lon="11.43403250642008"><ele>345.0</ele><time>2026-03-29T08:04:56.999Z</time></trkpt><trkpt lat="43.464426396728896" lon="11.434166387222874"><ele>345.0</ele><time>2026-03-29T08:04:57.999Z</time></trkpt><trkpt lat="43.46444180955663" lon="11.43431249025554"><ele>345.0</ele><time>2026-03-29T08:04:58.999Z</time></trkpt><trkpt lat="43.464452950662206" lon="11.434447644294591"><ele>345.0</ele><time>2026-03-29T08:04:59.999Z</time></trkpt><trkpt lat="43.46446531941452" lon="11.434571301791793"><ele>345.2</ele><time>2026-03-29T08:05:00.999Z</time></trkpt><trkpt lat="43.4644735819338" lon="11.434705267919327"><ele>345.4</ele><time>2026-03-29T08:05:01.999Z</time></trkpt><trkpt lat="43.464484312924995" lon="11.434840626849363"><ele>345.6</ele><time>2026-03-29T08:05:02.999Z</time></trkpt><trkpt lat="43.46450374285449" lon="11.434975139551188"><ele>345.8</ele><time>2026-03-29T08:05:03.999Z</time></trkpt><trkpt lat="43.464537771433704" lon="11.435111051665277"><ele>346.0</ele><time>2026-03-29T08:05:04.999Z</time></trkpt><trkpt lat="43.464584013995534" lon="11.435234910378949"><ele>346.20000000000005</ele><time>2026-03-29T08:05:05.999Z</time></trkpt><trkpt lat="43.464630531034366" lon="11.435341230185681"><ele>346.40000000000003</ele><time>2026-03-29T08:05:06.999Z</time></trkpt><trkpt lat="43.46469472561251" lon="11.435437872672452"><ele>346.6</ele><time>2026-03-29T08:05:07.999Z</time></trkpt><trkpt lat="43.46477069626235" lon="11.435525452412408"><ele>346.8</ele><time>2026-03-29T08:05:08.999Z</time></trkpt><trkpt lat="43.464855544143" lon="11.435606165053247"><ele>347.0</ele><time>2026-03-29T08:05:09.999Z</time></trkpt><trkpt lat="43.464951932829926" lon="11.435685957158555"><ele>347.0</ele><time>2026-03-29T08:05:11Z</time></trkpt><trkpt lat="43.4650475471145" lon="11.43576951802862"><ele>347.0</ele><time>2026-03-29T08:05:12Z</time></trkpt><trkpt lat="43.46515989944643" lon="11.435867233826421"><ele>347.0</ele><time>2026-03-29T08:05:13Z</time></trkpt><trkpt lat="43.465275416555826" lon="11.435966196672787"><ele>347.0</ele><time>2026-03-29T08:05:14Z</time></trkpt><trkpt lat="43.46538822821421" lon="11.436066463159257"><ele>347.8</ele><time>2026-03-29T08:05:15Z</time></trkpt><trkpt lat="43.46548874115331" lon="11.436155659093572"><ele>348.6</ele><time>2026-03-29T08:05:16Z</time></trkpt><trkpt lat="43.46557270981842" lon="11.436238904622474"><ele>349.40000000000003</ele><time>2026-03-29T08:05:17Z</time></trkpt><trkpt lat="43.46565947303087" lon="11.436306418924692"><ele>350.20000000000005</ele><time>2026-03-29T08:05:18Z</time></trkpt><trkpt lat="43.46573493898352" lon="11.436376964164408"><ele>351.0</ele><time>2026-03-29T08:05:19Z</time></trkpt><trkpt lat="43.465783720591645" lon="11.436433342358535"><ele>351.5</ele><time>2026-03-29T08:05:20Z</time></trkpt><trkpt lat="43.465837675749455" lon="11.436533718094237"><ele>352.0</ele><time>2026-03-29T08:05:22Z</time></trkpt><trkpt lat="43.4657978992241" lon="11.436624989577043"><ele>352.5</ele><time>2026-03-29T08:05:23Z</time></trkpt><trkpt lat="43.465810791392414" lon="11.436740009154697"><ele>353.0</ele><time>2026-03-29T08:05:27Z</time></trkpt><trkpt lat="43.465761078750575" lon="11.43687888328491"><ele>353.5</ele><time>2026-03-29T08:05:29Z</time></trkpt><trkpt lat="43.46572645077762" lon="11.436971808385342"><ele>354.0</ele><time>2026-03-29T08:05:30Z</time></trkpt><trkpt lat="43.465694285051256" lon="11.43706155303335"><ele>354.8333333333333</ele><time>2026-03-29T08:05:31Z</time></trkpt><trkpt lat="43.46566266580123" lon="11.437149047147125"><ele>355.6666666666667</ele><time>2026-03-29T08:05:32Z</time></trkpt><trkpt lat="43.465622337287634" lon="11.4372444385893"><ele>356.5</ele><time>2026-03-29T08:05:33Z</time></trkpt><trkpt lat="43.465582769523344" lon="11.437345912252715"><ele>357.33333333333337</ele><time>2026-03-29T08:05:34Z</time></trkpt><trkpt lat="43.46554685712287" lon="11.437432903174834"><ele>358.1666666666667</ele><time>2026-03-29T08:05:35Z</time></trkpt><trkpt lat="43.46550694200851" lon="11.437527670326679"><ele>359.0</ele><time>2026-03-29T08:05:36Z</time></trkpt><trkpt lat="43.46546978599812" lon="11.43762040717837"><ele>357.6666666666667</ele><time>2026-03-29T08:05:37Z</time></trkpt><trkpt lat="43.465425081027334" lon="11.437725920858265"><ele>356.33333333333337</ele><time>2026-03-29T08:05:38Z</time></trkpt><trkpt lat="43.46538067815011" lon="11.437825726251363"><ele>355.0</ele><time>2026-03-29T08:05:39Z</time></trkpt><trkpt lat="43.46532895425657" lon="11.437930253932956"><ele>353.6666666666667</ele><time>2026-03-29T08:05:40Z</time></trkpt><trkpt lat="43.46529062219251" lon="11.438028364729556"><ele>352.3333333333333</ele><time>2026-03-29T08:05:41Z</time></trkpt><trkpt lat="43.46525001190505" lon="11.43810099910843"><ele>351.0</ele><time>2026-03-29T08:05:42Z</time></trkpt><trkpt lat="43.465206846074814" lon="11.438183571067743"><ele>351.0</ele><time>2026-03-29T08:05:43Z</time></trkpt><trkpt lat="43.46515948059228" lon="11.438272601892782"><ele>351.0</ele><time>2026-03-29T08:05:44Z</time></trkpt><trkpt lat="43.46511615103599" lon="11.43836525140222"><ele>351.0</ele><time>2026-03-29T08:05:45Z</time></trkpt><trkpt lat="43.46506573665173" lon="11.438462335132165"><ele>351.0</ele><time>2026-03-29T08:05:46Z</time></trkpt><trkpt lat="43.46501535317772" lon="11.438564596406364"><ele>351.0</ele><time>2026-03-29T08:05:47Z</time></trkpt><trkpt lat="43.464961052898396" lon="11.43867077767939"><ele>351.0</ele><time>2026-03-29T08:05:48Z</time></trkpt><trkpt lat="43.46490450220626" lon="11.438777330057786"><ele>351.0</ele><time>2026-03-29T08:05:49Z</time></trkpt><trkpt lat="43.464848305139185" lon="11.438885975644364"><ele>351.0</ele><time>2026-03-29T08:05:50Z</time></trkpt><trkpt lat="43.46479371738404" lon="11.43899372270988"><ele>351.0</ele><time>2026-03-29T08:05:51Z</time></trkpt><trkpt lat="43.46474764619104" lon="11.439081938401596"><ele>351.0</ele><time>2026-03-29T08:05:52Z</time></trkpt><trkpt lat="43.46469486079946" lon="11.43917258056821"><ele>351.0</ele><time>2026-03-29T08:05:53Z</time></trkpt><trkpt lat="43.46464320231766" lon="11.439275052397369"><ele>351.0</ele><time>2026-03-29T08:05:54Z</time></trkpt><trkpt lat="43.46459216773072" lon="11.43937547352011"><ele>351.0</ele><time>2026-03-29T08:05:55Z</time></trkpt><trkpt lat="43.46453443488719" lon="11.43948682432877"><ele>351.0</ele><time>2026-03-29T08:05:56Z</time></trkpt><trkpt lat="43.46449105818142" lon="11.439574388315895"><ele>351.0</ele><time>2026-03-29T08:05:57Z</time></trkpt><trkpt lat="43.46445173571427" lon="11.43965170071129"><ele>351.0</ele><time>2026-03-29T08:05:58Z</time></trkpt><trkpt lat="43.46440907931653" lon="11.43973922254909"><ele>351.0</ele><time>2026-03-29T08:05:59Z</time></trkpt><trkpt lat="43.464352978575214" lon="11.439855517335852"><ele>351.0</ele><time>2026-03-29T08:06:00Z</time></trkpt><trkpt lat="43.46428213487657" lon="11.439993358251122"><ele>351.20000000000005</ele><time>2026-03-29T08:06:01Z</time></trkpt><trkpt lat="43.46422311528735" lon="11.440107346952157"><ele>351.40000000000003</ele><time>2026-03-29T08:06:02Z</time></trkpt><trkpt lat="43.46417530547887" lon="11.440208807101985"><ele>351.6</ele><time>2026-03-29T08:06:03Z</time></trkpt><trkpt lat="43.464125945419" lon="11.440312825677145"><ele>351.8</ele><time>2026-03-29T08:06:04Z</time></trkpt><trkpt lat="43.464079376765426" lon="11.440425633908708"><ele>352.0</ele><time>2026-03-29T08:06:05Z</time></trkpt><trkpt lat="43.46403751282131" lon="11.44054225359793"><ele>353.20000000000005</ele><time>2026-03-29T08:06:06Z</time></trkpt><trkpt lat="43.463998429478785" lon="11.440659169701984"><ele>354.4</ele><time>2026-03-29T08:06:07Z</time></trkpt><trkpt lat="43.463959497431595" lon="11.440773546018965"><ele>355.6</ele><time>2026-03-29T08:06:08Z</time></trkpt><trkpt lat="43.46391622925246" lon="11.440885268618471"><ele>356.79999999999995</ele><time>2026-03-29T08:06:09Z</time></trkpt><trkpt lat="43.46387752625477" lon="11.441002877784875"><ele>358.0</ele><time>2026-03-29T08:06:10Z</time></trkpt><trkpt lat="43.46383100047019" lon="11.441144588905338"><ele>357.4</ele><time>2026-03-29T08:06:11Z</time></trkpt><trkpt lat="43.463776182202004" lon="11.44130083815315"><ele>356.79999999999995</ele><time>2026-03-29T08:06:12Z</time></trkpt><trkpt lat="43.46373398755915" lon="11.44143143789987"><ele>356.2</ele><time>2026-03-29T08:06:13Z</time></trkpt><trkpt lat="43.46369714628891" lon="11.441547253046918"><ele>355.6</ele><time>2026-03-29T08:06:14Z</time></trkpt><trkpt lat="43.463656021873376" lon="11.441679381232191"><ele>355.0</ele><time>2026-03-29T08:06:15Z</time></trkpt><trkpt lat="43.46360580469337" lon="11.441835524319357"><ele>355.0</ele><time>2026-03-29T08:06:16Z</time></trkpt><trkpt lat="43.463561949005175" lon="11.441956452697408"><ele>355.0</ele><time>2026-03-29T08:06:17Z</time></trkpt><trkpt lat="43.46352147875461" lon="11.442069500872508"><ele>355.0</ele><time>2026-03-29T08:06:18Z</time></trkpt><trkpt lat="43.46348361002089" lon="11.442194897860237"><ele>355.0</ele><time>2026-03-29T08:06:19Z</time></trkpt><trkpt lat="43.463453342788966" lon="11.442318514677853"><ele>355.0</ele><time>2026-03-29T08:06:20Z</time></trkpt><trkpt lat="43.46341575383137" lon="11.442444832893061"><ele>355.8</ele><time>2026-03-29T08:06:21Z</time></trkpt><trkpt lat="43.463380745919565" lon="11.44258011413604"><ele>356.6</ele><time>2026-03-29T08:06:22Z</time></trkpt><trkpt lat="43.46335094108308" lon="11.442730676429788"><ele>357.4</ele><time>2026-03-29T08:06:22.999Z</time></trkpt><trkpt lat="43.46332664292248" lon="11.442887045837448"><ele>358.2</ele><time>2026-03-29T08:06:23.999Z</time></trkpt><trkpt lat="43.46330283649333" lon="11.44304001149202"><ele>359.0</ele><time>2026-03-29T08:06:24.999Z</time></trkpt><trkpt lat="43.463303595359996" lon="11.44320049961867"><ele>359.25</ele><time>2026-03-29T08:06:25.999Z</time></trkpt><trkpt lat="43.46331444339625" lon="11.443373259143515"><ele>359.5</ele><time>2026-03-29T08:06:26.999Z</time></trkpt><trkpt lat="43.463328826512964" lon="11.443552096097623"><ele>359.75</ele><time>2026-03-29T08:06:27.999Z</time></trkpt><trkpt lat="43.463337539577196" lon="11.44371918631903"><ele>360.0</ele><time>2026-03-29T08:06:28.999Z</time></trkpt><trkpt lat="43.463352552008644" lon="11.443872690152716"><ele>360.75</ele><time>2026-03-29T08:06:29.999Z</time></trkpt><trkpt lat="43.46336097830345" lon="11.444034921188322"><ele>361.5</ele><time>2026-03-29T08:06:30.999Z</time></trkpt><trkpt lat="43.46337226089467" lon="11.444204731081623"><ele>362.25</ele><time>2026-03-29T08:06:31.999Z</time></trkpt><trkpt lat="43.4633815640985" lon="11.444389207055188"><ele>363.0</ele><time>2026-03-29T08:06:32.999Z</time></trkpt><trkpt lat="43.4633861094123" lon="11.444565660770541"><ele>363.0</ele><time>2026-03-29T08:06:33.999Z</time></trkpt><trkpt lat="43.46338574024916" lon="11.444726972989342"><ele>363.0</ele><time>2026-03-29T08:06:34.999Z</time></trkpt><trkpt lat="43.46338712635313" lon="11.44490116899397"><ele>363.0</ele><time>2026-03-29T08:06:35.999Z</time></trkpt><trkpt lat="43.46338329843162" lon="11.445088859471621"><ele>363.0</ele><time>2026-03-29T08:06:36.999Z</time></trkpt><trkpt lat="43.463373752074716" lon="11.445292004685532"><ele>364.25</ele><time>2026-03-29T08:06:37.999Z</time></trkpt><trkpt lat="43.46336410676428" lon="11.445490707460227"><ele>365.5</ele><time>2026-03-29T08:06:38.999Z</time></trkpt><trkpt lat="43.463351800308175" lon="11.445687745403907"><ele>366.75</ele><time>2026-03-29T08:06:39.999Z</time></trkpt><trkpt lat="43.46333860614226" lon="11.44588129613684"><ele>368.0</ele><time>2026-03-29T08:06:40.999Z</time></trkpt><trkpt lat="43.463318590686676" lon="11.446059077377036"><ele>368.0</ele><time>2026-03-29T08:06:41.999Z</time></trkpt><trkpt lat="43.46329063413837" lon="11.446241504558515"><ele>368.0</ele><time>2026-03-29T08:06:42.999Z</time></trkpt><trkpt lat="43.46325685410107" lon="11.446445821837802"><ele>368.0</ele><time>2026-03-29T08:06:43.999Z</time></trkpt><trkpt lat="43.46321223848512" lon="11.446662973987403"><ele>367.33333333333337</ele><time>2026-03-29T08:06:44.999Z</time></trkpt><trkpt lat="43.46317166813484" lon="11.446902198616156"><ele>366.6666666666667</ele><time>2026-03-29T08:06:45.999Z</time></trkpt><trkpt lat="43.463121039984436" lon="11.447149549804005"><ele>366.0</ele><time>2026-03-29T08:06:46.999Z</time></trkpt><trkpt lat="43.463069296841255" lon="11.447416551370583"><ele>365.75</ele><time>2026-03-29T08:06:47.999Z</time></trkpt><trkpt lat="43.463026523211006" lon="11.447653779221264"><ele>365.5</ele><time>2026-03-29T08:06:48.999Z</time></trkpt><trkpt lat="43.46298768935294" lon="11.44784559379005"><ele>365.25</ele><time>2026-03-29T08:06:49.999Z</time></trkpt><trkpt lat="43.462957694434664" lon="11.448000528081119"><ele>365.0</ele><time>2026-03-29T08:06:50.999Z</time></trkpt><trkpt lat="43.46293627876457" lon="11.448100850589398"><ele>368.1666666666667</ele><time>2026-03-29T08:06:51.999Z</time></trkpt><trkpt lat="43.46291410076143" lon="11.448219708829969"><ele>371.33333333333337</ele><time>2026-03-29T08:06:55.999Z</time></trkpt><trkpt lat="43.46289158185078" lon="11.4483395612576"><ele>374.5</ele><time>2026-03-29T08:06:58.999Z</time></trkpt><trkpt lat="43.462874434123485" lon="11.448448470277908"><ele>377.6666666666667</ele><time>2026-03-29T08:07:01.999Z</time></trkpt><trkpt lat="43.46287358208603" lon="11.44856530287212"><ele>380.8333333333333</ele><time>2026-03-29T08:07:05.999Z</time></trkpt><trkpt lat="43.46288695591382" lon="11.448656945024137"><ele>384.0</ele><time>2026-03-29T08:07:14.999Z</time></trkpt><trkpt lat="43.46290129006078" lon="11.448819074570968"><ele>384.79999999999995</ele><time>2026-03-29T08:07:17Z</time></trkpt><trkpt lat="43.46292163064085" lon="11.448927372036138"><ele>385.59999999999997</ele><time>2026-03-29T08:07:18Z</time></trkpt><trkpt lat="43.46294620803159" lon="11.449027523776433"><ele>386.4</ele><time>2026-03-29T08:07:19Z</time></trkpt><trkpt lat="43.46298875472661" lon="11.44912750659377"><ele>387.2</ele><time>2026-03-29T08:07:21Z</time></trkpt><trkpt lat="43.46294448400155" lon="11.449021140194759"><ele>388.0</ele><time>2026-03-29T08:07:33Z</time></trkpt><trkpt lat="43.46290067695526" lon="11.448854582263392"><ele>387.0</ele><time>2026-03-29T08:07:34Z</time></trkpt><trkpt lat="43.46290402969425" lon="11.448671966633507"><ele>386.0</ele><time>2026-03-29T08:07:35Z</time></trkpt><trkpt lat="43.46289912675245" lon="11.448516564970209"><ele>385.0</ele><time>2026-03-29T08:07:36Z</time></trkpt><trkpt lat="43.46290932609918" lon="11.448352157486008"><ele>384.0</ele><time>2026-03-29T08:07:37Z</time></trkpt><trkpt lat="43.46293934966351" lon="11.448171334671164"><ele>377.6666666666667</ele><time>2026-03-29T08:07:38Z</time></trkpt><trkpt lat="43.46298849075705" lon="11.447970195029844"><ele>371.33333333333337</ele><time>2026-03-29T08:07:39Z</time></trkpt><trkpt lat="43.46303467017106" lon="11.447765642102025"><ele>365.0</ele><time>2026-03-29T08:07:40Z</time></trkpt><trkpt lat="43.46307361976527" lon="11.447548678990787"><ele>365.0</ele><time>2026-03-29T08:07:41Z</time></trkpt><trkpt lat="43.46311243655228" lon="11.447321792329397"><ele>365.0</ele><time>2026-03-29T08:07:42Z</time></trkpt><trkpt lat="43.463156503514476" lon="11.447082242464417"><ele>365.0</ele><time>2026-03-29T08:07:43Z</time></trkpt><trkpt lat="43.46320359761058" lon="11.446829435398067"><ele>365.33333333333337</ele><time>2026-03-29T08:07:44Z</time></trkpt><trkpt lat="43.46325201311058" lon="11.446573775587684"><ele>365.6666666666667</ele><time>2026-03-29T08:07:45Z</time></trkpt><trkpt lat="43.46330846154388" lon="11.446282771505752"><ele>366.0</ele><time>2026-03-29T08:07:46Z</time></trkpt><trkpt lat="43.463363259837784" lon="11.445968465723613"><ele>366.5</ele><time>2026-03-29T08:07:47Z</time></trkpt><trkpt lat="43.463365238796456" lon="11.445809938346898"><ele>367.0</ele><time>2026-03-29T08:07:49Z</time></trkpt><trkpt lat="43.46338597847537" lon="11.44560061792625"><ele>367.5</ele><time>2026-03-29T08:07:50Z</time></trkpt><trkpt lat="43.46339695544912" lon="11.445389825648043"><ele>368.0</ele><time>2026-03-29T08:07:51Z</time></trkpt><trkpt lat="43.463403178649365" lon="11.445167449137891"><ele>366.33333333333337</ele><time>2026-03-29T08:07:52Z</time></trkpt><trkpt lat="43.463424694313304" lon="11.444931139463527"><ele>364.6666666666667</ele><time>2026-03-29T08:07:53Z</time></trkpt><trkpt lat="43.46342523540657" lon="11.444677280612462"><ele>363.0</ele><time>2026-03-29T08:07:54Z</time></trkpt><trkpt lat="43.46340303720799" lon="11.444406671381"><ele>363.0</ele><time>2026-03-29T08:07:55Z</time></trkpt><trkpt lat="43.46338766074698" lon="11.444126577039736"><ele>363.0</ele><time>2026-03-29T08:07:56Z</time></trkpt><trkpt lat="43.46336599543869" lon="11.443830653135034"><ele>363.0</ele><time>2026-03-29T08:07:57Z</time></trkpt><trkpt lat="43.463358553175375" lon="11.443545642597861"><ele>362.0</ele><time>2026-03-29T08:07:58Z</time></trkpt><trkpt lat="43.463343541330474" lon="11.44329185207325"><ele>361.0</ele><time>2026-03-29T08:07:59Z</time></trkpt><trkpt lat="43.46334361012411" lon="11.44306115605659"><ele>360.0</ele><time>2026-03-29T08:08:00Z</time></trkpt><trkpt lat="43.46336006168463" lon="11.44285019439287"><ele>359.6666666666667</ele><time>2026-03-29T08:08:01Z</time></trkpt><trkpt lat="43.463393055216315" lon="11.442657405887891"><ele>359.33333333333337</ele><time>2026-03-29T08:08:02Z</time></trkpt><trkpt lat="43.46345265764056" lon="11.442433962143149"><ele>359.0</ele><time>2026-03-29T08:08:03Z</time></trkpt><trkpt lat="43.46352081138041" lon="11.44220301576709"><ele>357.6666666666667</ele><time>2026-03-29T08:08:04Z</time></trkpt><trkpt lat="43.46359984431563" lon="11.441971161706567"><ele>356.3333333333333</ele><time>2026-03-29T08:08:05Z</time></trkpt><trkpt lat="43.46367919072796" lon="11.441733222040389"><ele>355.0</ele><time>2026-03-29T08:08:06Z</time></trkpt><trkpt lat="43.46375135884109" lon="11.441506829738108"><ele>356.0</ele><time>2026-03-29T08:08:07Z</time></trkpt><trkpt lat="43.46381791089204" lon="11.44129487988227"><ele>357.0</ele><time>2026-03-29T08:08:08Z</time></trkpt><trkpt lat="43.463881192914236" lon="11.441088232583358"><ele>358.0</ele><time>2026-03-29T08:08:09Z</time></trkpt><trkpt lat="43.46394425056359" lon="11.440894730256975"><ele>358.0</ele><time>2026-03-29T08:08:10Z</time></trkpt><trkpt lat="43.463990452360704" lon="11.440707648718353"><ele>358.0</ele><time>2026-03-29T08:08:11Z</time></trkpt><trkpt lat="43.46406745823828" lon="11.440543905190507"><ele>358.0</ele><time>2026-03-29T08:08:12Z</time></trkpt><trkpt lat="43.46414478369617" lon="11.440326815099244"><ele>356.0</ele><time>2026-03-29T08:08:13Z</time></trkpt><trkpt lat="43.46424459310582" lon="11.44013153268059"><ele>354.0</ele><time>2026-03-29T08:08:14Z</time></trkpt><trkpt lat="43.46433965277794" lon="11.43991641988661"><ele>352.0</ele><time>2026-03-29T08:08:15Z</time></trkpt><trkpt lat="43.4644420545996" lon="11.439718054228807"><ele>351.75</ele><time>2026-03-29T08:08:16Z</time></trkpt><trkpt lat="43.46454278166638" lon="11.439561716776817"><ele>351.5</ele><time>2026-03-29T08:08:17Z</time></trkpt><trkpt lat="43.464616149330574" lon="11.439392796780508"><ele>351.25</ele><time>2026-03-29T08:08:18Z</time></trkpt><trkpt lat="43.46469081879853" lon="11.439245300809748"><ele>351.0</ele><time>2026-03-29T08:08:19Z</time></trkpt><trkpt lat="43.464759848196294" lon="11.439107628609447"><ele>351.0</ele><time>2026-03-29T08:08:20Z</time></trkpt><trkpt lat="43.464838729248264" lon="11.438987019928424"><ele>351.0</ele><time>2026-03-29T08:08:21Z</time></trkpt><trkpt lat="43.46490158701994" lon="11.438825524237837"><ele>351.0</ele><time>2026-03-29T08:08:22Z</time></trkpt><trkpt lat="43.46499390362603" lon="11.438669277760368"><ele>351.0</ele><time>2026-03-29T08:08:23Z</time></trkpt><trkpt lat="43.46508395469615" lon="11.438503361850834"><ele>351.0</ele><time>2026-03-29T08:08:24Z</time></trkpt><trkpt lat="43.465176089278316" lon="11.438341941054949"><ele>351.0</ele><time>2026-03-29T08:08:25Z</time></trkpt><trkpt lat="43.46524967390566" lon="11.438207984550074"><ele>351.0</ele><time>2026-03-29T08:08:26Z</time></trkpt><trkpt lat="43.46530461314089" lon="11.43807356397774"><ele>351.0</ele><time>2026-03-29T08:08:26.999Z</time></trkpt><trkpt lat="43.46535790559786" lon="11.437957846954026"><ele>350.8</ele><time>2026-03-29T08:08:27.999Z</time></trkpt><trkpt lat="43.46541369258515" lon="11.437846525158559"><ele>350.6</ele><time>2026-03-29T08:08:28.999Z</time></trkpt><trkpt lat="43.465467213812005" lon="11.437732963897293"><ele>350.4</ele><time>2026-03-29T08:08:29.999Z</time></trkpt><trkpt lat="43.46552180867519" lon="11.437616925133263"><ele>350.2</ele><time>2026-03-29T08:08:30.999Z</time></trkpt><trkpt lat="43.46557373636825" lon="11.437485502259978"><ele>350.0</ele><time>2026-03-29T08:08:31.999Z</time></trkpt><trkpt lat="43.46562455882885" lon="11.437347815661917"><ele>350.8</ele><time>2026-03-29T08:08:32.999Z</time></trkpt><trkpt lat="43.46567699940164" lon="11.437204586499137"><ele>351.6</ele><time>2026-03-29T08:08:33.999Z</time></trkpt><trkpt lat="43.465731552770265" lon="11.437071541514312"><ele>352.4</ele><time>2026-03-29T08:08:34.999Z</time></trkpt><trkpt lat="43.465778716994045" lon="11.436961954392155"><ele>353.2</ele><time>2026-03-29T08:08:35.999Z</time></trkpt><trkpt lat="43.46582427534571" lon="11.436857180598484"><ele>354.0</ele><time>2026-03-29T08:08:36.999Z</time></trkpt><trkpt lat="43.46587470740889" lon="11.436746674505036"><ele>354.0</ele><time>2026-03-29T08:08:37.999Z</time></trkpt><trkpt lat="43.46591442263699" lon="11.436660576558014"><ele>354.0</ele><time>2026-03-29T08:08:38.999Z</time></trkpt><trkpt lat="43.46596209244092" lon="11.43654134983656"><ele>354.0</ele><time>2026-03-29T08:08:40.999Z</time></trkpt><trkpt lat="43.465889497093315" lon="11.43643059307979"><ele>354.0</ele><time>2026-03-29T08:08:43.999Z</time></trkpt><trkpt lat="43.46577345046422" lon="11.436363583883614"><ele>354.0</ele><time>2026-03-29T08:08:45.999Z</time></trkpt><trkpt lat="43.46571403213109" lon="11.43631568621727"><ele>353.4</ele><time>2026-03-29T08:08:46.999Z</time></trkpt><trkpt lat="43.4656230383134" lon="11.436232856177055"><ele>352.79999999999995</ele><time>2026-03-29T08:08:48.999Z</time></trkpt><trkpt lat="43.46554865934957" lon="11.436163508712497"><ele>352.20000000000005</ele><time>2026-03-29T08:08:50.999Z</time></trkpt><trkpt lat="43.46549056127389" lon="11.436115157281904"><ele>351.6</ele><time>2026-03-29T08:08:52.999Z</time></trkpt><trkpt lat="43.46540742996958" lon="11.436051978088596"><ele>351.0</ele><time>2026-03-29T08:08:55.999Z</time></trkpt><trkpt lat="43.46533112276924" lon="11.435984540779385"><ele>350.3333333333333</ele><time>2026-03-29T08:08:58.999Z</time></trkpt><trkpt lat="43.465261695790275" lon="11.435902840105033"><ele>349.6666666666667</ele><time>2026-03-29T08:09:01.999Z</time></trkpt><trkpt lat="43.465206072705804" lon="11.435854392603916"><ele>349.0</ele><time>2026-03-29T08:09:03.999Z</time></trkpt><trkpt lat="43.465135559795" lon="11.435792976125063"><ele>348.33333333333337</ele><time>2026-03-29T08:09:05.999Z</time></trkpt><trkpt lat="43.46507023878319" lon="11.435736081768518"><ele>347.6666666666667</ele><time>2026-03-29T08:09:07.999Z</time></trkpt><trkpt lat="43.46500405130637" lon="11.435677418706645"><ele>347.0</ele><time>2026-03-29T08:09:09.999Z</time></trkpt><trkpt lat="43.46494168728185" lon="11.435621018892311"><ele>347.0</ele><time>2026-03-29T08:09:11.999Z</time></trkpt><trkpt lat="43.464887655304445" lon="11.43557215428637"><ele>347.0</ele><time>2026-03-29T08:09:13.999Z</time></trkpt><trkpt lat="43.464814769929944" lon="11.435498518664259"><ele>347.0</ele><time>2026-03-29T08:09:16.999Z</time></trkpt><trkpt lat="43.46476163012343" lon="11.43543996269541"><ele>347.0</ele><time>2026-03-29T08:09:20.999Z</time></trkpt><trkpt lat="43.46468983519937" lon="11.435348680928799"><ele>347.0</ele><time>2026-03-29T08:09:58Z</time></trkpt><trkpt lat="43.46461199525744" lon="11.435201753301211"><ele>346.8</ele><time>2026-03-29T08:10:00Z</time></trkpt><trkpt lat="43.4645766143492" lon="11.435090805674292"><ele>346.6</ele><time>2026-03-29T08:10:01Z</time></trkpt><trkpt lat="43.46454838837394" lon="11.434975987590715"><ele>346.40000000000003</ele><time>2026-03-29T08:10:02Z</time></trkpt><trkpt lat="43.4645264377037" lon="11.434833533611698"><ele>346.20000000000005</ele><time>2026-03-29T08:10:03Z</time></trkpt><trkpt lat="43.46450786978819" lon="11.434678852497646"><ele>346.0</ele><time>2026-03-29T08:10:04Z</time></trkpt><trkpt lat="43.46449027841806" lon="11.434525483506594"><ele>345.75</ele><time>2026-03-29T08:10:05Z</time></trkpt><trkpt lat="43.46447106526924" lon="11.434358385098719"><ele>345.5</ele><time>2026-03-29T08:10:06Z</time></trkpt><trkpt lat="43.464450918427566" lon="11.434183425673572"><ele>345.25</ele><time>2026-03-29T08:10:07Z</time></trkpt><trkpt lat="43.46443379627378" lon="11.43401765091341"><ele>345.0</ele><time>2026-03-29T08:10:08Z</time></trkpt><trkpt lat="43.46441942486665" lon="11.433871082248608"><ele>345.0</ele><time>2026-03-29T08:10:09Z</time></trkpt><trkpt lat="43.46440568499274" lon="11.433744056769944"><ele>345.0</ele><time>2026-03-29T08:10:10Z</time></trkpt><trkpt lat="43.46438908431292" lon="11.433596086265094"><ele>345.0</ele><time>2026-03-29T08:10:11Z</time></trkpt><trkpt lat="43.46437436852347" lon="11.433457709713247"><ele>345.0</ele><time>2026-03-29T08:10:12Z</time></trkpt><trkpt lat="43.46436244809053" lon="11.433333116445967"><ele>345.0</ele><time>2026-03-29T08:10:13Z</time></trkpt><trkpt lat="43.464343192867" lon="11.433229949681573"><ele>345.0</ele><time>2026-03-29T08:10:14Z</time></trkpt><trkpt lat="43.46436804304525" lon="11.433068445639588"><ele>345.0</ele><time>2026-03-29T08:10:16Z</time></trkpt><trkpt lat="43.464377326831375" lon="11.432966281534572"><ele>345.0</ele><time>2026-03-29T08:10:18Z</time></trkpt><trkpt lat="43.4643856886334" lon="11.432829656369693"><ele>345.0</ele><time>2026-03-29T08:10:31.999Z</time></trkpt><trkpt lat="43.464328209789805" lon="11.432744627371173"><ele>345.0</ele><time>2026-03-29T08:10:32.999Z</time></trkpt><trkpt lat="43.46429018828464" lon="11.432659532278262"><ele>345.6666666666667</ele><time>2026-03-29T08:10:33.999Z</time></trkpt><trkpt lat="43.4642463686173" lon="11.432567558939834"><ele>346.3333333333333</ele><time>2026-03-29T08:10:34.999Z</time></trkpt><trkpt lat="43.464201753078584" lon="11.432484499260813"><ele>347.0</ele><time>2026-03-29T08:10:35.999Z</time></trkpt><trkpt lat="43.46415374039506" lon="11.4323962766373"><ele>347.66666666666663</ele><time>2026-03-29T08:10:36.999Z</time></trkpt><trkpt lat="43.46411751976662" lon="11.43231065764636"><ele>348.3333333333333</ele><time>2026-03-29T08:10:37.999Z</time></trkpt><trkpt lat="43.46408143255782" lon="11.432226129612054"><ele>349.0</ele><time>2026-03-29T08:10:38.999Z</time></trkpt><trkpt lat="43.46404876330388" lon="11.43213432194753"><ele>350.0</ele><time>2026-03-29T08:10:39.999Z</time></trkpt><trkpt lat="43.4640135954428" lon="11.432044033699302"><ele>351.0</ele><time>2026-03-29T08:10:40.999Z</time></trkpt><trkpt lat="43.463958447847915" lon="11.43188969735027"><ele>352.0</ele><time>2026-03-29T08:10:42.999Z</time></trkpt><trkpt lat="43.46392714930631" lon="11.431809167784843"><ele>353.0</ele><time>2026-03-29T08:10:43.999Z</time></trkpt><trkpt lat="43.463889252811875" lon="11.431721701118816"><ele>354.0</ele><time>2026-03-29T08:10:44.999Z</time></trkpt><trkpt lat="43.46384681977889" lon="11.431603995748665"><ele>355.0</ele><time>2026-03-29T08:10:45.999Z</time></trkpt><trkpt lat="43.463790668476136" lon="11.431462757557972"><ele>353.4</ele><time>2026-03-29T08:10:46.999Z</time></trkpt><trkpt lat="43.46373629100577" lon="11.431333528762174"><ele>351.8</ele><time>2026-03-29T08:10:47.999Z</time></trkpt><trkpt lat="43.46369491958812" lon="11.43123937761855"><ele>350.20000000000005</ele><time>2026-03-29T08:10:48.999Z</time></trkpt><trkpt lat="43.4636766756035" lon="11.431155532651507"><ele>348.6</ele><time>2026-03-29T08:10:49.999Z</time></trkpt><trkpt lat="43.4635157760541" lon="11.431103000982787"><ele>347.0</ele><time>2026-03-29T08:10:51.999Z</time></trkpt><trkpt lat="43.463466005539736" lon="11.431030658587755"><ele>347.0</ele><time>2026-03-29T08:10:52.999Z</time></trkpt><trkpt lat="43.46340113590858" lon="11.430916973160288"><ele>347.0</ele><time>2026-03-29T08:10:54.999Z</time></trkpt><trkpt lat="43.46335042502792" lon="11.430850432346718"><ele>347.0</ele><time>2026-03-29T08:15:11.999Z</time></trkpt><trkpt lat="43.46334103504338" lon="11.43075415267623"><ele>347.0</ele><time>2026-03-29T08:15:13.999Z</time></trkpt><trkpt lat="43.463324877935186" lon="11.430606438692378"><ele>347.0</ele><time>2026-03-29T08:15:15.999Z</time></trkpt><trkpt lat="43.46326521667299" lon="11.430503659508203"><ele>347.0</ele><time>2026-03-29T08:15:16.999Z</time></trkpt><trkpt lat="43.46321327732294" lon="11.430376194127994"><ele>346.75</ele><time>2026-03-29T08:15:17.999Z</time></trkpt><trkpt lat="43.4631410700161" lon="11.430250512009417"><ele>346.5</ele><time>2026-03-29T08:15:18.999Z</time></trkpt><trkpt lat="43.46306432634781" lon="11.430108248920098"><ele>346.25</ele><time>2026-03-29T08:15:19.999Z</time></trkpt><trkpt lat="43.462990785495826" lon="11.429971754374492"><ele>346.0</ele><time>2026-03-29T08:15:20.999Z</time></trkpt><trkpt lat="43.46290823853638" lon="11.429831336074818"><ele>346.0</ele><time>2026-03-29T08:15:21.999Z</time></trkpt><trkpt lat="43.462810351069855" lon="11.429686393281422"><ele>346.0</ele><time>2026-03-29T08:15:22.999Z</time></trkpt><trkpt lat="43.46271681250462" lon="11.429564155879518"><ele>346.0</ele><time>2026-03-29T08:15:23.999Z</time></trkpt><trkpt lat="43.46263098412586" lon="11.429453884769153"><ele>346.0</ele><time>2026-03-29T08:15:24.999Z</time></trkpt><trkpt lat="43.46254039371903" lon="11.429341105298114"><ele>346.0</ele><time>2026-03-29T08:15:25.999Z</time></trkpt><trkpt lat="43.46244272932671" lon="11.429219519155053"><ele>346.0</ele><time>2026-03-29T08:15:26.999Z</time></trkpt><trkpt lat="43.462329873375914" lon="11.429105581166532"><ele>346.0</ele><time>2026-03-29T08:15:27.999Z</time></trkpt><trkpt lat="43.46223414302623" lon="11.428952743115559"><ele>346.0</ele><time>2026-03-29T08:15:28.999Z</time></trkpt><trkpt lat="43.46211729819855" lon="11.428834925928816"><ele>345.0</ele><time>2026-03-29T08:15:29.999Z</time></trkpt><trkpt lat="43.46202999490612" lon="11.428698204093815"><ele>344.0</ele><time>2026-03-29T08:15:30.999Z</time></trkpt><trkpt lat="43.461924880280385" lon="11.4285983392328"><ele>343.0</ele><time>2026-03-29T08:15:31.999Z</time></trkpt><trkpt lat="43.46182295552922" lon="11.428479273960367"><ele>342.0</ele><time>2026-03-29T08:15:32.999Z</time></trkpt><trkpt lat="43.46172242806588" lon="11.428334417573021"><ele>342.0</ele><time>2026-03-29T08:15:33.999Z</time></trkpt><trkpt lat="43.461607215064866" lon="11.428207020796853"><ele>342.0</ele><time>2026-03-29T08:15:34.999Z</time></trkpt><trkpt lat="43.46149332296369" lon="11.428087140083825"><ele>342.0</ele><time>2026-03-29T08:15:35.999Z</time></trkpt><trkpt lat="43.46137391262816" lon="11.427961724931327"><ele>342.0</ele><time>2026-03-29T08:15:36.999Z</time></trkpt><trkpt lat="43.46124793739271" lon="11.4278279437394"><ele>341.3333333333333</ele><time>2026-03-29T08:15:37.999Z</time></trkpt><trkpt lat="43.46111518695939" lon="11.427685901424265"><ele>340.66666666666663</ele><time>2026-03-29T08:15:38.999Z</time></trkpt><trkpt lat="43.460996530687254" lon="11.427558939742774"><ele>340.0</ele><time>2026-03-29T08:15:39.999Z</time></trkpt><trkpt lat="43.46088796370516" lon="11.427442992550116"><ele>340.0</ele><time>2026-03-29T08:15:41Z</time></trkpt><trkpt lat="43.46078016508066" lon="11.427329120666219"><ele>340.0</ele><time>2026-03-29T08:15:42Z</time></trkpt><trkpt lat="43.46065690701775" lon="11.427246028596327"><ele>340.0</ele><time>2026-03-29T08:15:43Z</time></trkpt><trkpt lat="43.46053559598096" lon="11.42713266727719"><ele>340.0</ele><time>2026-03-29T08:15:44Z</time></trkpt><trkpt lat="43.460381265591245" lon="11.427080836021869"><ele>341.0</ele><time>2026-03-29T08:15:45Z</time></trkpt><trkpt lat="43.46022045673192" lon="11.427006953309881"><ele>342.0</ele><time>2026-03-29T08:15:46Z</time></trkpt><trkpt lat="43.46005565721833" lon="11.426933727380785"><ele>343.0</ele><time>2026-03-29T08:15:47Z</time></trkpt><trkpt lat="43.45987938023522" lon="11.426855347830957"><ele>343.0</ele><time>2026-03-29T08:15:48Z</time></trkpt><trkpt lat="43.45969678401041" lon="11.426772714969056"><ele>343.0</ele><time>2026-03-29T08:15:49Z</time></trkpt><trkpt lat="43.45950724954779" lon="11.426689707951265"><ele>343.0</ele><time>2026-03-29T08:15:50Z</time></trkpt><trkpt lat="43.45931667347689" lon="11.42660656113166"><ele>341.66666666666663</ele><time>2026-03-29T08:15:51Z</time></trkpt><trkpt lat="43.459110500448055" lon="11.426514890717662"><ele>340.3333333333333</ele><time>2026-03-29T08:15:52Z</time></trkpt><trkpt lat="43.45889144783881" lon="11.426420614489832"><ele>339.0</ele><time>2026-03-29T08:15:53Z</time></trkpt><trkpt lat="43.458672103263865" lon="11.42632119907409"><ele>338.0</ele><time>2026-03-29T08:15:54Z</time></trkpt><trkpt lat="43.45849620894321" lon="11.42622830434945"><ele>337.0</ele><time>2026-03-29T08:15:55Z</time></trkpt><trkpt lat="43.45826886471078" lon="11.4261349775538"><ele>336.0</ele><time>2026-03-29T08:15:56Z</time></trkpt><trkpt lat="43.458074279568805" lon="11.426046792606742"><ele>336.0</ele><time>2026-03-29T08:15:57Z</time></trkpt><trkpt lat="43.45787757728871" lon="11.425961734781119"><ele>336.0</ele><time>2026-03-29T08:15:58Z</time></trkpt><trkpt lat="43.457671760043375" lon="11.425873810321502"><ele>336.0</ele><time>2026-03-29T08:15:59Z</time></trkpt><trkpt lat="43.45746012200718" lon="11.425756902828745"><ele>336.0</ele><time>2026-03-29T08:16:00Z</time></trkpt><trkpt lat="43.45722615859742" lon="11.425678664776624"><ele>336.0</ele><time>2026-03-29T08:16:01Z</time></trkpt><trkpt lat="43.457006303326274" lon="11.425587561647221"><ele>337.5</ele><time>2026-03-29T08:16:02Z</time></trkpt><trkpt lat="43.4568071016871" lon="11.425522237347696"><ele>339.0</ele><time>2026-03-29T08:16:03Z</time></trkpt><trkpt lat="43.45673730190677" lon="11.425501727470053"><ele>340.5</ele><time>2026-03-29T08:16:04Z</time></trkpt><trkpt lat="43.45657266252788" lon="11.425476714399485"><ele>342.0</ele><time>2026-03-29T08:16:05Z</time></trkpt><trkpt lat="43.45641878022112" lon="11.425459749830083"><ele>340.75</ele><time>2026-03-29T08:16:06Z</time></trkpt><trkpt lat="43.45628059761611" lon="11.425454594883911"><ele>339.5</ele><time>2026-03-29T08:16:07Z</time></trkpt><trkpt lat="43.45616264823426" lon="11.4253994300352"><ele>338.25</ele><time>2026-03-29T08:16:08Z</time></trkpt><trkpt lat="43.45606039356491" lon="11.42530886667936"><ele>337.0</ele><time>2026-03-29T08:16:09Z</time></trkpt><trkpt lat="43.45593843710989" lon="11.42518433681077"><ele>337.0</ele><time>2026-03-29T08:16:10Z</time></trkpt><trkpt lat="43.455793634164046" lon="11.425031801878713"><ele>337.0</ele><time>2026-03-29T08:16:11Z</time></trkpt><trkpt lat="43.455664606920784" lon="11.424895885054486"><ele>337.0</ele><time>2026-03-29T08:16:12Z</time></trkpt><trkpt lat="43.455522811699964" lon="11.424746518478008"><ele>335.66666666666663</ele><time>2026-03-29T08:16:13Z</time></trkpt><trkpt lat="43.45538123646154" lon="11.424597601090696"><ele>334.3333333333333</ele><time>2026-03-29T08:16:14Z</time></trkpt><trkpt lat="43.45524295245522" lon="11.42448234846232"><ele>333.0</ele><time>2026-03-29T08:16:15Z</time></trkpt><trkpt lat="43.455125545413004" lon="11.42436127668637"><ele>333.0</ele><time>2026-03-29T08:16:16Z</time></trkpt><trkpt lat="43.45502996495106" lon="11.42425318582756"><ele>333.0</ele><time>2026-03-29T08:16:17Z</time></trkpt><trkpt lat="43.454939732182986" lon="11.424153802591123"><ele>333.0</ele><time>2026-03-29T08:16:18Z</time></trkpt><trkpt lat="43.45485834326671" lon="11.424065212577117"><ele>333.0</ele><time>2026-03-29T08:16:19Z</time></trkpt><trkpt lat="43.454780379646735" lon="11.423978379064376"><ele>333.0</ele><time>2026-03-29T08:16:20Z</time></trkpt><trkpt lat="43.45469948068497" lon="11.423901230813865"><ele>332.5</ele><time>2026-03-29T08:16:21Z</time></trkpt><trkpt lat="43.454613133713494" lon="11.423815238791006"><ele>332.0</ele><time>2026-03-29T08:16:22Z</time></trkpt><trkpt lat="43.454526083889476" lon="11.423726144564217"><ele>331.5</ele><time>2026-03-29T08:16:23Z</time></trkpt><trkpt lat="43.45443556740356" lon="11.423629756875053"><ele>331.0</ele><time>2026-03-29T08:16:24Z</time></trkpt><trkpt lat="43.45433615220812" lon="11.423522834030882"><ele>331.0</ele><time>2026-03-29T08:16:25Z</time></trkpt><trkpt lat="43.45424164306399" lon="11.423387951349552"><ele>331.0</ele><time>2026-03-29T08:16:26Z</time></trkpt><trkpt lat="43.45413278867779" lon="11.423227233062256"><ele>331.0</ele><time>2026-03-29T08:16:27Z</time></trkpt><trkpt lat="43.45402998725734" lon="11.423056083840656"><ele>332.3333333333333</ele><time>2026-03-29T08:16:28Z</time></trkpt><trkpt lat="43.45392824979774" lon="11.422893731514588"><ele>333.6666666666667</ele><time>2026-03-29T08:16:29Z</time></trkpt><trkpt lat="43.45381908571624" lon="11.42272551300585"><ele>335.0</ele><time>2026-03-29T08:16:30Z</time></trkpt><trkpt lat="43.45370357508792" lon="11.422548734035006"><ele>334.0</ele><time>2026-03-29T08:16:31Z</time></trkpt><trkpt lat="43.45358497802995" lon="11.42236569863472"><ele>333.0</ele><time>2026-03-29T08:16:32Z</time></trkpt><trkpt lat="43.45345891870664" lon="11.422177955726715"><ele>332.0</ele><time>2026-03-29T08:16:33Z</time></trkpt><trkpt lat="43.45335173851781" lon="11.421977399061229"><ele>332.0</ele><time>2026-03-29T08:16:34Z</time></trkpt><trkpt lat="43.45322793959677" lon="11.421818789896475"><ele>332.0</ele><time>2026-03-29T08:16:35Z</time></trkpt><trkpt lat="43.45312728622565" lon="11.421656249519565"><ele>332.0</ele><time>2026-03-29T08:16:36Z</time></trkpt><trkpt lat="43.45302033642421" lon="11.421512646400993"><ele>333.0</ele><time>2026-03-29T08:16:37Z</time></trkpt><trkpt lat="43.45288755682265" lon="11.421392101405383"><ele>334.0</ele><time>2026-03-29T08:16:38Z</time></trkpt><trkpt lat="43.45272845211279" lon="11.421288248466976"><ele>335.0</ele><time>2026-03-29T08:16:39Z</time></trkpt><trkpt lat="43.45257922017271" lon="11.421156756998933"><ele>335.0</ele><time>2026-03-29T08:16:40Z</time></trkpt><trkpt lat="43.45243083936455" lon="11.420981727255462"><ele>335.0</ele><time>2026-03-29T08:16:41Z</time></trkpt><trkpt lat="43.45230333741035" lon="11.420802417091638"><ele>335.0</ele><time>2026-03-29T08:16:42Z</time></trkpt><trkpt lat="43.45219510161546" lon="11.420637028286649"><ele>333.6666666666667</ele><time>2026-03-29T08:16:43Z</time></trkpt><trkpt lat="43.45209513002498" lon="11.420479876717879"><ele>332.3333333333333</ele><time>2026-03-29T08:16:44Z</time></trkpt><trkpt lat="43.4519904292101" lon="11.420315255928509"><ele>331.0</ele><time>2026-03-29T08:16:45Z</time></trkpt><trkpt lat="43.45186792236394" lon="11.420154494669955"><ele>331.0</ele><time>2026-03-29T08:16:46Z</time></trkpt><trkpt lat="43.45177535231193" lon="11.419998762637633"><ele>331.0</ele><time>2026-03-29T08:16:47Z</time></trkpt><trkpt lat="43.45168370107147" lon="11.41984395404005"><ele>331.0</ele><time>2026-03-29T08:16:48Z</time></trkpt><trkpt lat="43.45158421847346" lon="11.419692256327469"><ele>331.0</ele><time>2026-03-29T08:16:49Z</time></trkpt><trkpt lat="43.45146828119062" lon="11.419559621994809"><ele>331.75</ele><time>2026-03-29T08:16:50Z</time></trkpt><trkpt lat="43.45135444302606" lon="11.419451654828439"><ele>332.5</ele><time>2026-03-29T08:16:50.999Z</time></trkpt><trkpt lat="43.45126422633359" lon="11.419346476543076"><ele>333.25</ele><time>2026-03-29T08:16:51.999Z</time></trkpt><trkpt lat="43.451173373349384" lon="11.419266529667485"><ele>334.0</ele><time>2026-03-29T08:16:52.999Z</time></trkpt><trkpt lat="43.45106622080632" lon="11.41920860495497"><ele>332.0</ele><time>2026-03-29T08:16:53.999Z</time></trkpt><trkpt lat="43.450951475472685" lon="11.41913540962808"><ele>330.0</ele><time>2026-03-29T08:16:54.999Z</time></trkpt><trkpt lat="43.45082484397665" lon="11.419090125936561"><ele>328.0</ele><time>2026-03-29T08:16:55.999Z</time></trkpt><trkpt lat="43.450699215980194" lon="11.419052390106753"><ele>326.0</ele><time>2026-03-29T08:16:56.999Z</time></trkpt><trkpt lat="43.450578200497176" lon="11.41901903386169"><ele>325.5</ele><time>2026-03-29T08:16:57.999Z</time></trkpt><trkpt lat="43.450440959905684" lon="11.418989849458754"><ele>325.0</ele><time>2026-03-29T08:16:58.999Z</time></trkpt><trkpt lat="43.45029002665061" lon="11.418968361206678"><ele>324.5</ele><time>2026-03-29T08:16:59.999Z</time></trkpt><trkpt lat="43.450141375041824" lon="11.418950363999569"><ele>324.0</ele><time>2026-03-29T08:17:00.999Z</time></trkpt><trkpt lat="43.4499780185465" lon="11.418911962871045"><ele>324.0</ele><time>2026-03-29T08:17:01.999Z</time></trkpt><trkpt lat="43.4498125041877" lon="11.418842340260804"><ele>324.0</ele><time>2026-03-29T08:17:02.999Z</time></trkpt><trkpt lat="43.4496422753233" lon="11.418752838381222"><ele>324.0</ele><time>2026-03-29T08:17:03.999Z</time></trkpt><trkpt lat="43.44946777818925" lon="11.418654911622703"><ele>326.3333333333333</ele><time>2026-03-29T08:17:04.999Z</time></trkpt><trkpt lat="43.449279874341585" lon="11.41858949667645"><ele>328.66666666666663</ele><time>2026-03-29T08:17:05.999Z</time></trkpt><trkpt lat="43.449076460444616" lon="11.418552969791715"><ele>331.0</ele><time>2026-03-29T08:17:06.999Z</time></trkpt><trkpt lat="43.448860525820706" lon="11.418527226372156"><ele>331.0</ele><time>2026-03-29T08:17:07.999Z</time></trkpt><trkpt lat="43.44866613381072" lon="11.418508702073458"><ele>331.0</ele><time>2026-03-29T08:17:08.999Z</time></trkpt><trkpt lat="43.44850427537893" lon="11.418499125469786"><ele>331.0</ele><time>2026-03-29T08:17:09.999Z</time></trkpt><trkpt lat="43.44836862139062" lon="11.418447739996134"><ele>331.0</ele><time>2026-03-29T08:17:10.999Z</time></trkpt><trkpt lat="43.44823208216418" lon="11.418359789025175"><ele>331.0</ele><time>2026-03-29T08:17:11.999Z</time></trkpt><trkpt lat="43.44808816445986" lon="11.418229595722433"><ele>331.0</ele><time>2026-03-29T08:17:12.999Z</time></trkpt><trkpt lat="43.44793419602174" lon="11.418077961855724"><ele>333.3333333333333</ele><time>2026-03-29T08:17:13.999Z</time></trkpt><trkpt lat="43.447784815323445" lon="11.41794277247077"><ele>335.6666666666667</ele><time>2026-03-29T08:17:14.999Z</time></trkpt><trkpt lat="43.44763532425999" lon="11.417814024626454"><ele>338.0</ele><time>2026-03-29T08:17:15.999Z</time></trkpt><trkpt lat="43.447462462254684" lon="11.417729217448628"><ele>338.0</ele><time>2026-03-29T08:17:16.999Z</time></trkpt><trkpt lat="43.447274738005426" lon="11.417684068620245"><ele>338.0</ele><time>2026-03-29T08:17:17.999Z</time></trkpt><trkpt lat="43.447072029882335" lon="11.417648375416702"><ele>338.0</ele><time>2026-03-29T08:17:18.999Z</time></trkpt><trkpt lat="43.446859059190665" lon="11.417597689959175"><ele>338.6666666666667</ele><time>2026-03-29T08:17:19.999Z</time></trkpt><trkpt lat="43.446661044783035" lon="11.4175482716274"><ele>339.3333333333333</ele><time>2026-03-29T08:17:20.999Z</time></trkpt><trkpt lat="43.44648883701412" lon="11.417504673407002"><ele>340.0</ele><time>2026-03-29T08:17:21.999Z</time></trkpt><trkpt lat="43.44634254742528" lon="11.417461468923095"><ele>343.0</ele><time>2026-03-29T08:17:22.999Z</time></trkpt><trkpt lat="43.44621215147058" lon="11.417444666999627"><ele>346.0</ele><time>2026-03-29T08:17:23.999Z</time></trkpt><trkpt lat="43.446087708457284" lon="11.417470813787824"><ele>349.0</ele><time>2026-03-29T08:17:24.999Z</time></trkpt><trkpt lat="43.44596906198834" lon="11.417555015007562"><ele>352.0</ele><time>2026-03-29T08:17:25.999Z</time></trkpt><trkpt lat="43.445888883296185" lon="11.417679073170715"><ele>352.0</ele><time>2026-03-29T08:17:26.999Z</time></trkpt><trkpt lat="43.445820835576995" lon="11.417833277560272"><ele>352.0</ele><time>2026-03-29T08:17:27.999Z</time></trkpt><trkpt lat="43.445763139439606" lon="11.418020759384904"><ele>352.0</ele><time>2026-03-29T08:17:28.999Z</time></trkpt><trkpt lat="43.44570874073565" lon="11.418246088411147"><ele>348.66666666666663</ele><time>2026-03-29T08:17:29.999Z</time></trkpt><trkpt lat="43.44566068242571" lon="11.418495693808913"><ele>345.3333333333333</ele><time>2026-03-29T08:17:30.999Z</time></trkpt><trkpt lat="43.445630896691426" lon="11.418747486509822"><ele>342.0</ele><time>2026-03-29T08:17:31.999Z</time></trkpt><trkpt lat="43.445617020094964" lon="11.41899963853599"><ele>340.0</ele><time>2026-03-29T08:17:32.999Z</time></trkpt><trkpt lat="43.44561554314397" lon="11.419226327599922"><ele>338.0</ele><time>2026-03-29T08:17:33.999Z</time></trkpt><trkpt lat="43.445621809775446" lon="11.419410892817119"><ele>336.0</ele><time>2026-03-29T08:17:34.999Z</time></trkpt><trkpt lat="43.445601383630624" lon="11.419568585327294"><ele>334.0</ele><time>2026-03-29T08:17:35.999Z</time></trkpt><trkpt lat="43.44553311220701" lon="11.419689755113437"><ele>335.25</ele><time>2026-03-29T08:17:36.999Z</time></trkpt><trkpt lat="43.445427199128716" lon="11.41976301019789"><ele>336.5</ele><time>2026-03-29T08:17:37.999Z</time></trkpt><trkpt lat="43.44528916525644" lon="11.419832815342147"><ele>337.75</ele><time>2026-03-29T08:17:38.999Z</time></trkpt><trkpt lat="43.44513147866187" lon="11.41990269505813"><ele>339.0</ele><time>2026-03-29T08:17:39.999Z</time></trkpt><trkpt lat="43.44496743136724" lon="11.41999285122586"><ele>339.0</ele><time>2026-03-29T08:17:40.999Z</time></trkpt><trkpt lat="43.44481269532444" lon="11.420091375482224"><ele>339.0</ele><time>2026-03-29T08:17:41.999Z</time></trkpt><trkpt lat="43.44467470360988" lon="11.420180180745817"><ele>339.0</ele><time>2026-03-29T08:17:42.999Z</time></trkpt><trkpt lat="43.444548905591155" lon="11.42029508966623"><ele>338.3333333333333</ele><time>2026-03-29T08:17:43.999Z</time></trkpt><trkpt lat="43.44443420235642" lon="11.420457070175958"><ele>337.66666666666663</ele><time>2026-03-29T08:17:44.999Z</time></trkpt><trkpt lat="43.444319185804176" lon="11.420654527170287"><ele>337.0</ele><time>2026-03-29T08:17:45.999Z</time></trkpt><trkpt lat="43.44419556216994" lon="11.420843314121523"><ele>337.0</ele><time>2026-03-29T08:17:47Z</time></trkpt><trkpt lat="43.44405801723639" lon="11.420957540045038"><ele>337.0</ele><time>2026-03-29T08:17:48Z</time></trkpt><trkpt lat="43.443917573944695" lon="11.421084954323831"><ele>337.0</ele><time>2026-03-29T08:17:49Z</time></trkpt><trkpt lat="43.443752582458" lon="11.421175129985391"><ele>340.0</ele><time>2026-03-29T08:17:50Z</time></trkpt><trkpt lat="43.4435924349889" lon="11.421289264033176"><ele>343.0</ele><time>2026-03-29T08:17:51Z</time></trkpt><trkpt lat="43.44344230691241" lon="11.421398683922188"><ele>346.0</ele><time>2026-03-29T08:17:52Z</time></trkpt><trkpt lat="43.44331128701413" lon="11.421496467598883"><ele>340.0</ele><time>2026-03-29T08:17:53Z</time></trkpt><trkpt lat="43.443167375578284" lon="11.421536426214585"><ele>334.0</ele><time>2026-03-29T08:17:54Z</time></trkpt><trkpt lat="43.44301605634978" lon="11.42155552726414"><ele>328.0</ele><time>2026-03-29T08:17:55Z</time></trkpt><trkpt lat="43.44284345964767" lon="11.421559777047715"><ele>328.0</ele><time>2026-03-29T08:17:56Z</time></trkpt><trkpt lat="43.44264145681057" lon="11.421560951497192"><ele>328.0</ele><time>2026-03-29T08:17:57Z</time></trkpt><trkpt lat="43.442422404884034" lon="11.421540179573551"><ele>328.0</ele><time>2026-03-29T08:17:58Z</time></trkpt><trkpt lat="43.442181512994516" lon="11.421509708558576"><ele>326.3333333333333</ele><time>2026-03-29T08:17:59Z</time></trkpt><trkpt lat="43.441962210843975" lon="11.421469331461166"><ele>324.6666666666667</ele><time>2026-03-29T08:18:00Z</time></trkpt><trkpt lat="43.441763399170654" lon="11.421440521423046"><ele>323.0</ele><time>2026-03-29T08:18:01Z</time></trkpt><trkpt lat="43.441579338190216" lon="11.421409728558304"><ele>323.0</ele><time>2026-03-29T08:18:02Z</time></trkpt><trkpt lat="43.441406077712664" lon="11.421381450300352"><ele>323.0</ele><time>2026-03-29T08:18:03Z</time></trkpt><trkpt lat="43.44122838632349" lon="11.421352830697387"><ele>323.0</ele><time>2026-03-29T08:18:04Z</time></trkpt><trkpt lat="43.44105993520306" lon="11.421267049644667"><ele>325.33333333333337</ele><time>2026-03-29T08:18:05Z</time></trkpt><trkpt lat="43.44090635405562" lon="11.421158352838487"><ele>327.6666666666667</ele><time>2026-03-29T08:18:06Z</time></trkpt><trkpt lat="43.440734807332966" lon="11.421040067401217"><ele>330.0</ele><time>2026-03-29T08:18:07Z</time></trkpt><trkpt lat="43.440571454633286" lon="11.420881296664065"><ele>329.6666666666667</ele><time>2026-03-29T08:18:08Z</time></trkpt><trkpt lat="43.44040427673442" lon="11.420727423852664"><ele>329.33333333333337</ele><time>2026-03-29T08:18:09Z</time></trkpt><trkpt lat="43.44021924184079" lon="11.420578059307369"><ele>329.0</ele><time>2026-03-29T08:18:10Z</time></trkpt><trkpt lat="43.44002863972738" lon="11.420415808605341"><ele>329.0</ele><time>2026-03-29T08:18:11Z</time></trkpt><trkpt lat="43.43984077061178" lon="11.4202549331951"><ele>329.0</ele><time>2026-03-29T08:18:12Z</time></trkpt><trkpt lat="43.4396711488027" lon="11.420113086063175"><ele>329.0</ele><time>2026-03-29T08:18:13Z</time></trkpt><trkpt lat="43.43950644611063" lon="11.419981401608164"><ele>325.33333333333337</ele><time>2026-03-29T08:18:14Z</time></trkpt><trkpt lat="43.43935149599755" lon="11.419858590583512"><ele>321.6666666666667</ele><time>2026-03-29T08:18:15Z</time></trkpt><trkpt lat="43.439187659929416" lon="11.419757606787202"><ele>318.0</ele><time>2026-03-29T08:18:16Z</time></trkpt><trkpt lat="43.43900511877909" lon="11.419676133986133"><ele>321.3333333333333</ele><time>2026-03-29T08:18:17Z</time></trkpt><trkpt lat="43.43880729928298" lon="11.419626819200245"><ele>324.66666666666663</ele><time>2026-03-29T08:18:18Z</time></trkpt><trkpt lat="43.43861337057065" lon="11.419599245381773"><ele>328.0</ele><time>2026-03-29T08:18:19Z</time></trkpt><trkpt lat="43.4384153505823" lon="11.419587130428763"><ele>328.0</ele><time>2026-03-29T08:18:20Z</time></trkpt><trkpt lat="43.43820505204968" lon="11.419569453312715"><ele>328.0</ele><time>2026-03-29T08:18:21Z</time></trkpt><trkpt lat="43.4379892432724" lon="11.419542042950978"><ele>328.0</ele><time>2026-03-29T08:18:22Z</time></trkpt><trkpt lat="43.43777211158848" lon="11.419503794322111"><ele>325.5</ele><time>2026-03-29T08:18:23Z</time></trkpt><trkpt lat="43.43754286169081" lon="11.419457910979022"><ele>323.0</ele><time>2026-03-29T08:18:24Z</time></trkpt><trkpt lat="43.437310665183354" lon="11.41941570955195"><ele>321.5</ele><time>2026-03-29T08:18:25Z</time></trkpt><trkpt lat="43.437073462015775" lon="11.419372811498906"><ele>320.0</ele><time>2026-03-29T08:18:26Z</time></trkpt><trkpt lat="43.43683463812186" lon="11.419325934325595"><ele>320.0</ele><time>2026-03-29T08:18:27Z</time></trkpt><trkpt lat="43.43661560544031" lon="11.419283333448908"><ele>320.0</ele><time>2026-03-29T08:18:28Z</time></trkpt><trkpt lat="43.4364119990307" lon="11.419242993443504"><ele>320.0</ele><time>2026-03-29T08:18:29Z</time></trkpt><trkpt lat="43.43622022302548" lon="11.419206279672284"><ele>318.6666666666667</ele><time>2026-03-29T08:18:30Z</time></trkpt><trkpt lat="43.43603670453714" lon="11.419172280100756"><ele>317.3333333333333</ele><time>2026-03-29T08:18:31Z</time></trkpt><trkpt lat="43.4358630502774" lon="11.419142800396834"><ele>316.0</ele><time>2026-03-29T08:18:32Z</time></trkpt><trkpt lat="43.43568936116546" lon="11.419092039043381"><ele>316.0</ele><time>2026-03-29T08:18:33Z</time></trkpt><trkpt lat="43.43552419999443" lon="11.419080291117238"><ele>316.0</ele><time>2026-03-29T08:18:34Z</time></trkpt><trkpt lat="43.43537972866222" lon="11.419058702054995"><ele>316.0</ele><time>2026-03-29T08:18:35Z</time></trkpt><trkpt lat="43.43524398194486" lon="11.41907789166429"><ele>316.0</ele><time>2026-03-29T08:18:36Z</time></trkpt><trkpt lat="43.435115387182634" lon="11.41915474510926"><ele>317.0</ele><time>2026-03-29T08:18:37Z</time></trkpt><trkpt lat="43.434970076880944" lon="11.419269038000865"><ele>318.0</ele><time>2026-03-29T08:18:38Z</time></trkpt><trkpt lat="43.43480662775573" lon="11.419403748853203"><ele>319.0</ele><time>2026-03-29T08:18:39Z</time></trkpt><trkpt lat="43.43463918064228" lon="11.419571382684028"><ele>318.0</ele><time>2026-03-29T08:18:40Z</time></trkpt><trkpt lat="43.434482268084516" lon="11.419743040707756"><ele>317.0</ele><time>2026-03-29T08:18:41Z</time></trkpt><trkpt lat="43.43433228429918" lon="11.419898474242517"><ele>316.0</ele><time>2026-03-29T08:18:42Z</time></trkpt><trkpt lat="43.43419329728398" lon="11.420065761538556"><ele>316.0</ele><time>2026-03-29T08:18:43Z</time></trkpt><trkpt lat="43.43405901258405" lon="11.420228009691803"><ele>316.0</ele><time>2026-03-29T08:18:44Z</time></trkpt><trkpt lat="43.43393652455543" lon="11.420372701945091"><ele>316.0</ele><time>2026-03-29T08:18:45Z</time></trkpt><trkpt lat="43.43381220248694" lon="11.420519407164848"><ele>312.75</ele><time>2026-03-29T08:18:46Z</time></trkpt><trkpt lat="43.433713187763715" lon="11.42065823555539"><ele>309.5</ele><time>2026-03-29T08:18:47Z</time></trkpt><trkpt lat="43.433628004784374" lon="11.420779061153754"><ele>306.25</ele><time>2026-03-29T08:18:48Z</time></trkpt><trkpt lat="43.433540721052644" lon="11.420837780512693"><ele>303.0</ele><time>2026-03-29T08:18:49Z</time></trkpt><trkpt lat="43.433443827406414" lon="11.420841735949303"><ele>303.0</ele><time>2026-03-29T08:18:50Z</time></trkpt><trkpt lat="43.43333551314382" lon="11.420811268575118"><ele>303.0</ele><time>2026-03-29T08:18:51Z</time></trkpt><trkpt lat="43.43322677710809" lon="11.420749752222454"><ele>303.0</ele><time>2026-03-29T08:18:52Z</time></trkpt><trkpt lat="43.43313848105938" lon="11.420616442399309"><ele>303.0</ele><time>2026-03-29T08:18:53Z</time></trkpt><trkpt lat="43.43305604558802" lon="11.420434526981035"><ele>302.3333333333333</ele><time>2026-03-29T08:18:54Z</time></trkpt><trkpt lat="43.43297325038146" lon="11.420235593564398"><ele>301.66666666666663</ele><time>2026-03-29T08:18:55Z</time></trkpt><trkpt lat="43.432874403487816" lon="11.420019098563754"><ele>301.0</ele><time>2026-03-29T08:18:56Z</time></trkpt><trkpt lat="43.43279207063334" lon="11.419805641439481"><ele>302.0</ele><time>2026-03-29T08:18:57Z</time></trkpt><trkpt lat="43.43268490265696" lon="11.419592531555267"><ele>303.0</ele><time>2026-03-29T08:18:57.999Z</time></trkpt><trkpt lat="43.43255647433951" lon="11.419385162119163"><ele>304.0</ele><time>2026-03-29T08:18:58.999Z</time></trkpt><trkpt lat="43.43242584157949" lon="11.419196982140413"><ele>304.0</ele><time>2026-03-29T08:18:59.999Z</time></trkpt><trkpt lat="43.43230794106053" lon="11.419024448092532"><ele>304.0</ele><time>2026-03-29T08:19:00.999Z</time></trkpt><trkpt lat="43.432195877825194" lon="11.418853983851806"><ele>304.0</ele><time>2026-03-29T08:19:01.999Z</time></trkpt><trkpt lat="43.432092043283674" lon="11.418698633372248"><ele>302.75</ele><time>2026-03-29T08:19:02.999Z</time></trkpt><trkpt lat="43.43198356363308" lon="11.418530823267641"><ele>301.5</ele><time>2026-03-29T08:19:03.999Z</time></trkpt><trkpt lat="43.431905452620505" lon="11.418423040684258"><ele>300.25</ele><time>2026-03-29T08:19:04.999Z</time></trkpt><trkpt lat="43.431820718459754" lon="11.41830344543782"><ele>299.0</ele><time>2026-03-29T08:19:05.999Z</time></trkpt><trkpt lat="43.43174319501886" lon="11.418183148003157"><ele>299.0</ele><time>2026-03-29T08:19:06.999Z</time></trkpt><trkpt lat="43.4316644546861" lon="11.418079946708076"><ele>299.0</ele><time>2026-03-29T08:19:07.999Z</time></trkpt><trkpt lat="43.43159756201371" lon="11.417989843470282"><ele>299.0</ele><time>2026-03-29T08:19:08.999Z</time></trkpt><trkpt lat="43.431541793882026" lon="11.41789667814661"><ele>299.0</ele><time>2026-03-29T08:19:09.999Z</time></trkpt><trkpt lat="43.431493888063606" lon="11.417812798350878"><ele>299.0</ele><time>2026-03-29T08:19:10.999Z</time></trkpt><trkpt lat="43.431451883219246" lon="11.417746436322266"><ele>299.0</ele><time>2026-03-29T08:19:11.999Z</time></trkpt><trkpt lat="43.431382592897336" lon="11.417637849466068"><ele>299.4</ele><time>2026-03-29T08:19:13.999Z</time></trkpt><trkpt lat="43.43130510327308" lon="11.417552006195285"><ele>299.79999999999995</ele><time>2026-03-29T08:19:15.999Z</time></trkpt><trkpt lat="43.431185390367105" lon="11.417574026119368"><ele>300.20000000000005</ele><time>2026-03-29T08:19:17.999Z</time></trkpt><trkpt lat="43.43112959546423" lon="11.417627142987014"><ele>300.6</ele><time>2026-03-29T08:19:18.999Z</time></trkpt><trkpt lat="43.431064243463126" lon="11.417685826944739"><ele>301.0</ele><time>2026-03-29T08:19:19.999Z</time></trkpt><trkpt lat="43.43098835398295" lon="11.417742685614092"><ele>301.0</ele><time>2026-03-29T08:19:20.999Z</time></trkpt><trkpt lat="43.430879670331166" lon="11.417811092023396"><ele>301.0</ele><time>2026-03-29T08:19:21.999Z</time></trkpt><trkpt lat="43.43076293336625" lon="11.41789870862108"><ele>301.0</ele><time>2026-03-29T08:19:22.999Z</time></trkpt><trkpt lat="43.430644231418775" lon="11.417984730521297"><ele>301.0</ele><time>2026-03-29T08:19:23.999Z</time></trkpt><trkpt lat="43.43052785624019" lon="11.418074645090405"><ele>301.25</ele><time>2026-03-29T08:19:24.999Z</time></trkpt><trkpt lat="43.43040360229219" lon="11.418170668577472"><ele>301.5</ele><time>2026-03-29T08:19:25.999Z</time></trkpt><trkpt lat="43.430260288962806" lon="11.418281495220425"><ele>301.75</ele><time>2026-03-29T08:19:26.999Z</time></trkpt><trkpt lat="43.430150564637245" lon="11.418375709202381"><ele>302.0</ele><time>2026-03-29T08:19:27.999Z</time></trkpt><trkpt lat="43.430047071654364" lon="11.418452628368575"><ele>302.0</ele><time>2026-03-29T08:19:28.999Z</time></trkpt><trkpt lat="43.42993507216315" lon="11.418529940809579"><ele>302.0</ele><time>2026-03-29T08:19:29.999Z</time></trkpt><trkpt lat="43.42980400517266" lon="11.418619892449676"><ele>302.0</ele><time>2026-03-29T08:19:30.999Z</time></trkpt><trkpt lat="43.429652036531174" lon="11.418716486796898"><ele>302.0</ele><time>2026-03-29T08:19:31.999Z</time></trkpt><trkpt lat="43.429501917599616" lon="11.418837693579441"><ele>304.6666666666667</ele><time>2026-03-29T08:19:32.999Z</time></trkpt><trkpt lat="43.42935157188037" lon="11.4189364865589"><ele>307.3333333333333</ele><time>2026-03-29T08:19:33.999Z</time></trkpt><trkpt lat="43.42918993050294" lon="11.419019320794689"><ele>310.0</ele><time>2026-03-29T08:19:34.999Z</time></trkpt><trkpt lat="43.42902397795048" lon="11.419091394929112"><ele>310.0</ele><time>2026-03-29T08:19:35.999Z</time></trkpt><trkpt lat="43.42881846775602" lon="11.419138322229964"><ele>310.0</ele><time>2026-03-29T08:19:36.999Z</time></trkpt><trkpt lat="43.428643973668805" lon="11.419170753557275"><ele>310.0</ele><time>2026-03-29T08:19:37.999Z</time></trkpt><trkpt lat="43.428483310123724" lon="11.419210699892695"><ele>310.3333333333333</ele><time>2026-03-29T08:19:38.999Z</time></trkpt><trkpt lat="43.42834504929944" lon="11.419284730098695"><ele>310.6666666666667</ele><time>2026-03-29T08:19:39.999Z</time></trkpt><trkpt lat="43.42821031042871" lon="11.419379073893703"><ele>311.0</ele><time>2026-03-29T08:19:40.999Z</time></trkpt><trkpt lat="43.42807910607986" lon="11.419524671898102"><ele>311.6666666666667</ele><time>2026-03-29T08:19:41.999Z</time></trkpt><trkpt lat="43.42795395229714" lon="11.419682891010517"><ele>312.3333333333333</ele><time>2026-03-29T08:19:42.999Z</time></trkpt><trkpt lat="43.42784233600679" lon="11.419839996016352"><ele>313.0</ele><time>2026-03-29T08:19:43.999Z</time></trkpt><trkpt lat="43.42775902207576" lon="11.419986159359533"><ele>313.0</ele><time>2026-03-29T08:19:44.999Z</time></trkpt><trkpt lat="43.42770336548589" lon="11.420129522782984"><ele>313.0</ele><time>2026-03-29T08:19:45.999Z</time></trkpt><trkpt lat="43.42767253905956" lon="11.420270082453754"><ele>313.0</ele><time>2026-03-29T08:19:46.999Z</time></trkpt><trkpt lat="43.427682505933944" lon="11.420436136806899"><ele>313.0</ele><time>2026-03-29T08:19:47.999Z</time></trkpt><trkpt lat="43.427733322056675" lon="11.420627036161573"><ele>312.3333333333333</ele><time>2026-03-29T08:19:48.999Z</time></trkpt><trkpt lat="43.42778745183968" lon="11.420835362491612"><ele>311.6666666666667</ele><time>2026-03-29T08:19:49.999Z</time></trkpt><trkpt lat="43.42782530521676" lon="11.421071397796362"><ele>311.0</ele><time>2026-03-29T08:19:50.999Z</time></trkpt><trkpt lat="43.42784104627009" lon="11.421335277654924"><ele>310.6666666666667</ele><time>2026-03-29T08:19:51.999Z</time></trkpt><trkpt lat="43.42783273448066" lon="11.42157214533216"><ele>310.3333333333333</ele><time>2026-03-29T08:19:53Z</time></trkpt><trkpt lat="43.42780543400658" lon="11.421798850476472"><ele>310.0</ele><time>2026-03-29T08:19:54Z</time></trkpt><trkpt lat="43.42776094921206" lon="11.422034090935936"><ele>312.66666666666663</ele><time>2026-03-29T08:19:55Z</time></trkpt><trkpt lat="43.427697951802024" lon="11.422269868139633"><ele>315.3333333333333</ele><time>2026-03-29T08:19:56Z</time></trkpt><trkpt lat="43.427622588210184" lon="11.42247883453873"><ele>318.0</ele><time>2026-03-29T08:19:57Z</time></trkpt><trkpt lat="43.42753513459499" lon="11.422615950740388"><ele>318.0</ele><time>2026-03-29T08:19:58Z</time></trkpt><trkpt lat="43.42744303711543" lon="11.422715562666156"><ele>318.0</ele><time>2026-03-29T08:19:59Z</time></trkpt><trkpt lat="43.42732515140336" lon="11.42276122475156"><ele>318.0</ele><time>2026-03-29T08:20:00Z</time></trkpt><trkpt lat="43.42719704351662" lon="11.422765350937057"><ele>318.0</ele><time>2026-03-29T08:20:01Z</time></trkpt><trkpt lat="43.42705231048586" lon="11.422776733520623"><ele>317.2</ele><time>2026-03-29T08:20:02Z</time></trkpt><trkpt lat="43.42693351232063" lon="11.422794845361372"><ele>316.4</ele><time>2026-03-29T08:20:03Z</time></trkpt><trkpt lat="43.426827370412816" lon="11.422817517802248"><ele>315.59999999999997</ele><time>2026-03-29T08:20:04Z</time></trkpt><trkpt lat="43.42673184700104" lon="11.42283926145355"><ele>314.8</ele><time>2026-03-29T08:20:05Z</time></trkpt><trkpt lat="43.42663494136484" lon="11.42286509447761"><ele>314.0</ele><time>2026-03-29T08:20:06Z</time></trkpt><trkpt lat="43.42653597871012" lon="11.422892478632118"><ele>314.0</ele><time>2026-03-29T08:20:07Z</time></trkpt><trkpt lat="43.42645047913172" lon="11.422916219865765"><ele>314.0</ele><time>2026-03-29T08:20:08Z</time></trkpt><trkpt lat="43.42636896284068" lon="11.4229526527029"><ele>314.0</ele><time>2026-03-29T08:20:09Z</time></trkpt><trkpt lat="43.42629671468004" lon="11.422997415527957"><ele>314.0</ele><time>2026-03-29T08:20:10Z</time></trkpt><trkpt lat="43.426225235377274" lon="11.42304824314622"><ele>314.0</ele><time>2026-03-29T08:20:11Z</time></trkpt><trkpt lat="43.42616283416295" lon="11.423116742019744"><ele>314.0</ele><time>2026-03-29T08:20:12Z</time></trkpt><trkpt lat="43.42612760024583" lon="11.423230478486099"><ele>314.2</ele><time>2026-03-29T08:20:13Z</time></trkpt><trkpt lat="43.42612252461679" lon="11.42335365710367"><ele>314.4</ele><time>2026-03-29T08:20:14Z</time></trkpt><trkpt lat="43.42614643205073" lon="11.423483240690114"><ele>314.6</ele><time>2026-03-29T08:20:15Z</time></trkpt><trkpt lat="43.42618711039188" lon="11.423626672486828"><ele>314.8</ele><time>2026-03-29T08:20:16Z</time></trkpt><trkpt lat="43.42624461895877" lon="11.42380861508818"><ele>315.0</ele><time>2026-03-29T08:20:17Z</time></trkpt><trkpt lat="43.42628628501446" lon="11.42400822907473"><ele>319.6666666666667</ele><time>2026-03-29T08:20:18Z</time></trkpt><trkpt lat="43.42631776419682" lon="11.424213523921834"><ele>324.33333333333337</ele><time>2026-03-29T08:20:19Z</time></trkpt><trkpt lat="43.42635600282019" lon="11.424428815245633"><ele>329.0</ele><time>2026-03-29T08:20:20Z</time></trkpt><trkpt lat="43.426408069731444" lon="11.424658993117117"><ele>329.0</ele><time>2026-03-29T08:20:21Z</time></trkpt><trkpt lat="43.42645748031188" lon="11.424883794933526"><ele>329.0</ele><time>2026-03-29T08:20:22Z</time></trkpt><trkpt lat="43.426499756969584" lon="11.425083413104785"><ele>329.0</ele><time>2026-03-29T08:20:23Z</time></trkpt><trkpt lat="43.426536871171876" lon="11.42528089336219"><ele>329.33333333333337</ele><time>2026-03-29T08:20:24Z</time></trkpt><trkpt lat="43.42656219224873" lon="11.425490613026437"><ele>329.6666666666667</ele><time>2026-03-29T08:20:25Z</time></trkpt><trkpt lat="43.426557607479104" lon="11.425716527338118"><ele>330.0</ele><time>2026-03-29T08:20:26Z</time></trkpt><trkpt lat="43.4265259332801" lon="11.425940814860748"><ele>330.0</ele><time>2026-03-29T08:20:27Z</time></trkpt><trkpt lat="43.42649624944301" lon="11.42616781073126"><ele>330.0</ele><time>2026-03-29T08:20:28Z</time></trkpt><trkpt lat="43.426450672413274" lon="11.426417175457813"><ele>330.0</ele><time>2026-03-29T08:20:29Z</time></trkpt><trkpt lat="43.426395808029056" lon="11.426645891202602"><ele>330.3333333333333</ele><time>2026-03-29T08:20:30Z</time></trkpt><trkpt lat="43.42632897427618" lon="11.426831437880534"><ele>330.66666666666663</ele><time>2026-03-29T08:20:31Z</time></trkpt><trkpt lat="43.42625681893485" lon="11.427005534852151"><ele>331.0</ele><time>2026-03-29T08:20:32Z</time></trkpt><trkpt lat="43.42615930290784" lon="11.427169339008262"><ele>330.0</ele><time>2026-03-29T08:20:33Z</time></trkpt><trkpt lat="43.42603940784035" lon="11.427309044602497"><ele>329.0</ele><time>2026-03-29T08:20:34Z</time></trkpt><trkpt lat="43.42593856115305" lon="11.427425651728749"><ele>328.0</ele><time>2026-03-29T08:20:35Z</time></trkpt><trkpt lat="43.4258790258508" lon="11.427560930110415"><ele>327.0</ele><time>2026-03-29T08:20:36Z</time></trkpt><trkpt lat="43.42587043247037" lon="11.427729413734754"><ele>327.0</ele><time>2026-03-29T08:20:37Z</time></trkpt><trkpt lat="43.425887839319124" lon="11.427923498905184"><ele>327.0</ele><time>2026-03-29T08:20:38Z</time></trkpt><trkpt lat="43.42590318066416" lon="11.428141604830506"><ele>327.0</ele><time>2026-03-29T08:20:39Z</time></trkpt><trkpt lat="43.4259087279906" lon="11.428381915707522"><ele>327.3333333333333</ele><time>2026-03-29T08:20:40Z</time></trkpt><trkpt lat="43.42590405968166" lon="11.428636444701938"><ele>327.66666666666663</ele><time>2026-03-29T08:20:41Z</time></trkpt><trkpt lat="43.42590190786164" lon="11.42888636028172"><ele>328.0</ele><time>2026-03-29T08:20:42Z</time></trkpt><trkpt lat="43.42590526415951" lon="11.429106751662935"><ele>329.3333333333333</ele><time>2026-03-29T08:20:43Z</time></trkpt><trkpt lat="43.42590671007015" lon="11.429329037840088"><ele>330.6666666666667</ele><time>2026-03-29T08:20:44Z</time></trkpt><trkpt lat="43.425909583303735" lon="11.42956283060887"><ele>332.0</ele><time>2026-03-29T08:20:45Z</time></trkpt><trkpt lat="43.425912404529676" lon="11.429809995191054"><ele>332.0</ele><time>2026-03-29T08:20:46Z</time></trkpt><trkpt lat="43.42590981183384" lon="11.430051758496036"><ele>332.0</ele><time>2026-03-29T08:20:47Z</time></trkpt><trkpt lat="43.42590155331651" lon="11.430287825988707"><ele>332.0</ele><time>2026-03-29T08:20:48Z</time></trkpt><trkpt lat="43.42586992174794" lon="11.430521849283501"><ele>332.6666666666667</ele><time>2026-03-29T08:20:49Z</time></trkpt><trkpt lat="43.425816275989014" lon="11.430724647295843"><ele>333.3333333333333</ele><time>2026-03-29T08:20:50Z</time></trkpt><trkpt lat="43.42574824081832" lon="11.430910934070825"><ele>334.0</ele><time>2026-03-29T08:20:51Z</time></trkpt><trkpt lat="43.42567182791493" lon="11.431075725380076"><ele>334.0</ele><time>2026-03-29T08:20:52Z</time></trkpt><trkpt lat="43.42560691683714" lon="11.431233750589694"><ele>334.0</ele><time>2026-03-29T08:20:53Z</time></trkpt><trkpt lat="43.42554794614176" lon="11.431398429008063"><ele>334.0</ele><time>2026-03-29T08:20:54Z</time></trkpt><trkpt lat="43.4254945653489" lon="11.431544345099566"><ele>334.0</ele><time>2026-03-29T08:20:55Z</time></trkpt><trkpt lat="43.42544771603718" lon="11.431678875981783"><ele>335.0</ele><time>2026-03-29T08:20:56Z</time></trkpt><trkpt lat="43.42540681889782" lon="11.431793273037215"><ele>336.0</ele><time>2026-03-29T08:20:57Z</time></trkpt><trkpt lat="43.42537606684535" lon="11.431883856752311"><ele>337.0</ele><time>2026-03-29T08:20:58Z</time></trkpt><trkpt lat="43.42532965654228" lon="11.432022166694274"><ele>338.0</ele><time>2026-03-29T08:21:00Z</time></trkpt><trkpt lat="43.425287320683026" lon="11.432112550751336"><ele>339.0</ele><time>2026-03-29T08:21:01Z</time></trkpt><trkpt lat="43.42522842650009" lon="11.432187488302638"><ele>340.0</ele><time>2026-03-29T08:21:01.999Z</time></trkpt><trkpt lat="43.42515185465643" lon="11.432228577587454"><ele>340.0</ele><time>2026-03-29T08:21:02.999Z</time></trkpt><trkpt lat="43.425069923326014" lon="11.432243975267232"><ele>340.0</ele><time>2026-03-29T08:21:03.999Z</time></trkpt><trkpt lat="43.42498702385056" lon="11.43228153815757"><ele>340.0</ele><time>2026-03-29T08:21:04.999Z</time></trkpt><trkpt lat="43.42492418991401" lon="11.432365160943453"><ele>340.0</ele><time>2026-03-29T08:21:05.999Z</time></trkpt><trkpt lat="43.42488417180648" lon="11.432479126061398"><ele>340.0</ele><time>2026-03-29T08:21:06.999Z</time></trkpt><trkpt lat="43.42484806730655" lon="11.432600425878041"><ele>340.0</ele><time>2026-03-29T08:21:07.999Z</time></trkpt><trkpt lat="43.424810958131346" lon="11.432725934910751"><ele>340.0</ele><time>2026-03-29T08:21:08.999Z</time></trkpt><trkpt lat="43.42476589159075" lon="11.43285878925451"><ele>340.0</ele><time>2026-03-29T08:21:09.999Z</time></trkpt><trkpt lat="43.42471587835635" lon="11.433011368554999"><ele>340.0</ele><time>2026-03-29T08:21:10.999Z</time></trkpt><trkpt lat="43.42465983587235" lon="11.433177664574101"><ele>340.0</ele><time>2026-03-29T08:21:11.999Z</time></trkpt><trkpt lat="43.42458747027174" lon="11.43334701606101"><ele>343.66666666666663</ele><time>2026-03-29T08:21:12.999Z</time></trkpt><trkpt lat="43.424524664769116" lon="11.433524208283183"><ele>347.3333333333333</ele><time>2026-03-29T08:21:13.999Z</time></trkpt><trkpt lat="43.42445832335582" lon="11.433722553221514"><ele>351.0</ele><time>2026-03-29T08:21:14.999Z</time></trkpt><trkpt lat="43.424405193030545" lon="11.433937608020718"><ele>351.0</ele><time>2026-03-29T08:21:15.999Z</time></trkpt><trkpt lat="43.424363720534046" lon="11.434141360357444"><ele>351.0</ele><time>2026-03-29T08:21:16.999Z</time></trkpt><trkpt lat="43.42434790347987" lon="11.434319210889555"><ele>351.0</ele><time>2026-03-29T08:21:17.999Z</time></trkpt><trkpt lat="43.42434037360339" lon="11.43447644625378"><ele>351.0</ele><time>2026-03-29T08:21:18.999Z</time></trkpt><trkpt lat="43.42435165920837" lon="11.434623876161073"><ele>350.6</ele><time>2026-03-29T08:21:19.999Z</time></trkpt><trkpt lat="43.42438829074518" lon="11.434768281066077"><ele>350.20000000000005</ele><time>2026-03-29T08:21:20.999Z</time></trkpt><trkpt lat="43.42444226272021" lon="11.434887479640144"><ele>349.79999999999995</ele><time>2026-03-29T08:21:21.999Z</time></trkpt><trkpt lat="43.424506251269804" lon="11.434971256251028"><ele>349.4</ele><time>2026-03-29T08:21:22.999Z</time></trkpt><trkpt lat="43.42458375564512" lon="11.435039443184905"><ele>349.0</ele><time>2026-03-29T08:21:23.999Z</time></trkpt><trkpt lat="43.42467787250776" lon="11.435096405773058"><ele>347.5</ele><time>2026-03-29T08:21:24.999Z</time></trkpt><trkpt lat="43.424796479234516" lon="11.435164589481856"><ele>346.0</ele><time>2026-03-29T08:21:25.999Z</time></trkpt><trkpt lat="43.42493372324996" lon="11.435255924496287"><ele>344.5</ele><time>2026-03-29T08:21:26.999Z</time></trkpt><trkpt lat="43.42507459380766" lon="11.435363502697172"><ele>343.0</ele><time>2026-03-29T08:21:27.999Z</time></trkpt><trkpt lat="43.425194205262486" lon="11.435450179036293"><ele>344.79999999999995</ele><time>2026-03-29T08:21:28.999Z</time></trkpt><trkpt lat="43.425275453528755" lon="11.435539562499795"><ele>346.6</ele><time>2026-03-29T08:21:29.999Z</time></trkpt><trkpt lat="43.42533261775252" lon="11.435646273799753"><ele>348.4</ele><time>2026-03-29T08:21:30.999Z</time></trkpt><trkpt lat="43.42534551701417" lon="11.435775577763334"><ele>350.20000000000005</ele><time>2026-03-29T08:21:31.999Z</time></trkpt><trkpt lat="43.425315206027456" lon="11.43590267398382"><ele>352.0</ele><time>2026-03-29T08:21:32.999Z</time></trkpt><trkpt lat="43.42524921210464" lon="11.436005826282672"><ele>352.0</ele><time>2026-03-29T08:21:33.999Z</time></trkpt><trkpt lat="43.42516071951222" lon="11.436110460030124"><ele>352.0</ele><time>2026-03-29T08:21:34.999Z</time></trkpt><trkpt lat="43.42507789445945" lon="11.436234940950984"><ele>352.0</ele><time>2026-03-29T08:21:35.999Z</time></trkpt><trkpt lat="43.42501434737208" lon="11.43641140318819"><ele>352.0</ele><time>2026-03-29T08:21:36.999Z</time></trkpt><trkpt lat="43.424967761138355" lon="11.436608938039848"><ele>352.75</ele><time>2026-03-29T08:21:37.999Z</time></trkpt><trkpt lat="43.424941712293474" lon="11.436822517108844"><ele>353.5</ele><time>2026-03-29T08:21:38.999Z</time></trkpt><trkpt lat="43.424933697520174" lon="11.437013409196013"><ele>354.25</ele><time>2026-03-29T08:21:39.999Z</time></trkpt><trkpt lat="43.42493200772944" lon="11.437187489793814"><ele>355.0</ele><time>2026-03-29T08:21:40.999Z</time></trkpt><trkpt lat="43.424952585764075" lon="11.437379964357326"><ele>355.0</ele><time>2026-03-29T08:21:41.999Z</time></trkpt><trkpt lat="43.42497762462313" lon="11.437569756473343"><ele>355.0</ele><time>2026-03-29T08:21:42.999Z</time></trkpt><trkpt lat="43.42499794029965" lon="11.437767850341494"><ele>355.0</ele><time>2026-03-29T08:21:43.999Z</time></trkpt><trkpt lat="43.42502479312756" lon="11.437981848923625"><ele>355.0</ele><time>2026-03-29T08:21:44.999Z</time></trkpt><trkpt lat="43.4250612367043" lon="11.438185284802598"><ele>357.0</ele><time>2026-03-29T08:21:45.999Z</time></trkpt><trkpt lat="43.42510862986707" lon="11.438392322926019"><ele>359.0</ele><time>2026-03-29T08:21:46.999Z</time></trkpt><trkpt lat="43.425165660320964" lon="11.438611845304036"><ele>361.0</ele><time>2026-03-29T08:21:47.999Z</time></trkpt><trkpt lat="43.425207769792806" lon="11.438828636345376"><ele>362.75</ele><time>2026-03-29T08:21:48.999Z</time></trkpt><trkpt lat="43.42525177816294" lon="11.439012015946226"><ele>364.5</ele><time>2026-03-29T08:21:49.999Z</time></trkpt><trkpt lat="43.425307197616725" lon="11.439160303636278"><ele>366.25</ele><time>2026-03-29T08:21:50.999Z</time></trkpt><trkpt lat="43.425370150206845" lon="11.43927015053354"><ele>368.0</ele><time>2026-03-29T08:21:51.999Z</time></trkpt><trkpt lat="43.42546531378371" lon="11.439329601493746"><ele>364.75</ele><time>2026-03-29T08:21:52.999Z</time></trkpt><trkpt lat="43.42558127730702" lon="11.439352686560538"><ele>361.5</ele><time>2026-03-29T08:21:53.999Z</time></trkpt><trkpt lat="43.42570879140416" lon="11.439339605200253"><ele>358.25</ele><time>2026-03-29T08:21:54.999Z</time></trkpt><trkpt lat="43.425814995416395" lon="11.43933984877009"><ele>355.0</ele><time>2026-03-29T08:21:55.999Z</time></trkpt><trkpt lat="43.42591470088426" lon="11.439380132719142"><ele>355.0</ele><time>2026-03-29T08:21:56.999Z</time></trkpt><trkpt lat="43.42599401210472" lon="11.439472026784678"><ele>355.0</ele><time>2026-03-29T08:21:57.999Z</time></trkpt><trkpt lat="43.42605518312201" lon="11.439616989615862"><ele>355.0</ele><time>2026-03-29T08:21:59Z</time></trkpt><trkpt lat="43.42608434053833" lon="11.439794426304315"><ele>355.0</ele><time>2026-03-29T08:22:00Z</time></trkpt><trkpt lat="43.42610012079519" lon="11.44001187207539"><ele>357.0</ele><time>2026-03-29T08:22:01Z</time></trkpt><trkpt lat="43.42610519703351" lon="11.440265736318723"><ele>359.0</ele><time>2026-03-29T08:22:02Z</time></trkpt><trkpt lat="43.42611154434043" lon="11.440498798682528"><ele>361.0</ele><time>2026-03-29T08:22:03Z</time></trkpt><trkpt lat="43.42611975803802" lon="11.44074415827525"><ele>361.75</ele><time>2026-03-29T08:22:04Z</time></trkpt><trkpt lat="43.42613268509932" lon="11.440953167396925"><ele>362.5</ele><time>2026-03-29T08:22:05Z</time></trkpt><trkpt lat="43.42614495930736" lon="11.44111453902646"><ele>363.25</ele><time>2026-03-29T08:22:06Z</time></trkpt><trkpt lat="43.42613097498707" lon="11.44122994201823"><ele>364.0</ele><time>2026-03-29T08:22:07Z</time></trkpt><trkpt lat="43.426065782071475" lon="11.441344413573363"><ele>364.0</ele><time>2026-03-29T08:22:08Z</time></trkpt><trkpt lat="43.42596773195518" lon="11.441445090626901"><ele>364.0</ele><time>2026-03-29T08:22:09Z</time></trkpt><trkpt lat="43.42583123316241" lon="11.441542362225045"><ele>364.0</ele><time>2026-03-29T08:22:10Z</time></trkpt><trkpt lat="43.425684835115696" lon="11.441619018218056"><ele>364.0</ele><time>2026-03-29T08:22:11Z</time></trkpt><trkpt lat="43.42554364166826" lon="11.441695321592931"><ele>366.0</ele><time>2026-03-29T08:22:12Z</time></trkpt><trkpt lat="43.425403897787646" lon="11.441770636136171"><ele>368.0</ele><time>2026-03-29T08:22:13Z</time></trkpt><trkpt lat="43.42528798770986" lon="11.441850991335091"><ele>370.0</ele><time>2026-03-29T08:22:14Z</time></trkpt><trkpt lat="43.425182125411226" lon="11.441965000701556"><ele>372.0</ele><time>2026-03-29T08:22:15Z</time></trkpt><trkpt lat="43.4250911400283" lon="11.44211672513129"><ele>371.0</ele><time>2026-03-29T08:22:16Z</time></trkpt><trkpt lat="43.42501701698577" lon="11.442302036080898"><ele>370.0</ele><time>2026-03-29T08:22:17Z</time></trkpt><trkpt lat="43.42494861206793" lon="11.442513755574405"><ele>369.0</ele><time>2026-03-29T08:22:18Z</time></trkpt><trkpt lat="43.424884873591246" lon="11.442745867196127"><ele>368.6666666666667</ele><time>2026-03-29T08:22:19Z</time></trkpt><trkpt lat="43.424843929806954" lon="11.442979748470949"><ele>368.33333333333337</ele><time>2026-03-29T08:22:20Z</time></trkpt><trkpt lat="43.42482612738441" lon="11.443220648526419"><ele>368.0</ele><time>2026-03-29T08:22:21Z</time></trkpt><trkpt lat="43.42481678686806" lon="11.443452711668868"><ele>368.0</ele><time>2026-03-29T08:22:22Z</time></trkpt><trkpt lat="43.42480348133298" lon="11.443645788730075"><ele>368.0</ele><time>2026-03-29T08:22:23Z</time></trkpt><trkpt lat="43.42477831699713" lon="11.443817352965535"><ele>368.0</ele><time>2026-03-29T08:22:24Z</time></trkpt><trkpt lat="43.42472067583588" lon="11.443956626687273"><ele>368.0</ele><time>2026-03-29T08:22:25Z</time></trkpt><trkpt lat="43.42464563671412" lon="11.444074918240982"><ele>371.0</ele><time>2026-03-29T08:22:26Z</time></trkpt><trkpt lat="43.424549078868885" lon="11.44419026235424"><ele>374.0</ele><time>2026-03-29T08:22:27Z</time></trkpt><trkpt lat="43.42444554209058" lon="11.444319054512963"><ele>377.0</ele><time>2026-03-29T08:22:28Z</time></trkpt><trkpt lat="43.424342955128395" lon="11.444473072082689"><ele>380.0</ele><time>2026-03-29T08:22:29Z</time></trkpt><trkpt lat="43.42425866248274" lon="11.444674434615518"><ele>380.0</ele><time>2026-03-29T08:22:30Z</time></trkpt><trkpt lat="43.42416641338987" lon="11.444902684474814"><ele>380.0</ele><time>2026-03-29T08:22:31Z</time></trkpt><trkpt lat="43.42406883672094" lon="11.445136824245324"><ele>380.0</ele><time>2026-03-29T08:22:32Z</time></trkpt><trkpt lat="43.42398497169413" lon="11.4453330971935"><ele>380.0</ele><time>2026-03-29T08:22:33Z</time></trkpt><trkpt lat="43.42392099521319" lon="11.445493472886824"><ele>380.0</ele><time>2026-03-29T08:22:34Z</time></trkpt><trkpt lat="43.42386831609154" lon="11.445638251700784"><ele>380.0</ele><time>2026-03-29T08:22:35Z</time></trkpt><trkpt lat="43.42383131414318" lon="11.445765790961282"><ele>380.0</ele><time>2026-03-29T08:22:36Z</time></trkpt><trkpt lat="43.42384328095067" lon="11.44589832975702"><ele>380.0</ele><time>2026-03-29T08:22:37Z</time></trkpt><trkpt lat="43.423909300070775" lon="11.446016935647233"><ele>380.0</ele><time>2026-03-29T08:22:38Z</time></trkpt><trkpt lat="43.42399522093822" lon="11.446106078312914"><ele>380.0</ele><time>2026-03-29T08:22:39Z</time></trkpt><trkpt lat="43.42410131834672" lon="11.446145992734978"><ele>380.0</ele><time>2026-03-29T08:22:40Z</time></trkpt><trkpt lat="43.42421563485802" lon="11.44618546615183"><ele>380.0</ele><time>2026-03-29T08:22:41Z</time></trkpt><trkpt lat="43.42432498964548" lon="11.446264497005547"><ele>382.5</ele><time>2026-03-29T08:22:42Z</time></trkpt><trkpt lat="43.424398588944676" lon="11.44637806451058"><ele>385.0</ele><time>2026-03-29T08:22:43Z</time></trkpt><trkpt lat="43.42444324842661" lon="11.446520165912446"><ele>387.5</ele><time>2026-03-29T08:22:44Z</time></trkpt><trkpt lat="43.42446837117488" lon="11.446688548490258"><ele>390.0</ele><time>2026-03-29T08:22:45Z</time></trkpt><trkpt lat="43.42446259376402" lon="11.446876236455495"><ele>390.0</ele><time>2026-03-29T08:22:46Z</time></trkpt><trkpt lat="43.42443531340242" lon="11.44706325563544"><ele>390.0</ele><time>2026-03-29T08:22:47Z</time></trkpt><trkpt lat="43.42439825208446" lon="11.447243864118315"><ele>390.0</ele><time>2026-03-29T08:22:48Z</time></trkpt><trkpt lat="43.42433654920923" lon="11.44741901615772"><ele>390.0</ele><time>2026-03-29T08:22:49Z</time></trkpt><trkpt lat="43.424254552054094" lon="11.447552083011301"><ele>390.5</ele><time>2026-03-29T08:22:50Z</time></trkpt><trkpt lat="43.42413630656221" lon="11.447694294087233"><ele>391.0</ele><time>2026-03-29T08:22:51Z</time></trkpt><trkpt lat="43.424009632388874" lon="11.447812897572668"><ele>391.5</ele><time>2026-03-29T08:22:52Z</time></trkpt><trkpt lat="43.42391155096591" lon="11.447904832225754"><ele>392.0</ele><time>2026-03-29T08:22:53Z</time></trkpt><trkpt lat="43.42384422688227" lon="11.448030188975167"><ele>392.0</ele><time>2026-03-29T08:22:54Z</time></trkpt><trkpt lat="43.423807115653055" lon="11.44818705978378"><ele>392.0</ele><time>2026-03-29T08:22:55Z</time></trkpt><trkpt lat="43.42380189356801" lon="11.448357701248119"><ele>392.0</ele><time>2026-03-29T08:22:56Z</time></trkpt><trkpt lat="43.42383200027472" lon="11.44853366003544"><ele>392.0</ele><time>2026-03-29T08:22:57Z</time></trkpt><trkpt lat="43.423884559837184" lon="11.448712958644485"><ele>392.0</ele><time>2026-03-29T08:22:58Z</time></trkpt><trkpt lat="43.42393857938939" lon="11.44890698866664"><ele>392.0</ele><time>2026-03-29T08:22:59Z</time></trkpt><trkpt lat="43.4239722285434" lon="11.449083315711986"><ele>392.0</ele><time>2026-03-29T08:23:00Z</time></trkpt><trkpt lat="43.42397295258564" lon="11.449269061283252"><ele>392.0</ele><time>2026-03-29T08:23:01Z</time></trkpt><trkpt lat="43.423946145042116" lon="11.449469752971627"><ele>390.0</ele><time>2026-03-29T08:23:02Z</time></trkpt><trkpt lat="43.4238959099095" lon="11.449658802684482"><ele>388.0</ele><time>2026-03-29T08:23:03Z</time></trkpt><trkpt lat="43.42382375822017" lon="11.449821219631652"><ele>386.0</ele><time>2026-03-29T08:23:04Z</time></trkpt><trkpt lat="43.42372123613877" lon="11.449986635957343"><ele>384.0</ele><time>2026-03-29T08:23:05Z</time></trkpt><trkpt lat="43.42359102854003" lon="11.450144326772076"><ele>388.33333333333337</ele><time>2026-03-29T08:23:06Z</time></trkpt><trkpt lat="43.42347307552903" lon="11.450325344437996"><ele>392.6666666666667</ele><time>2026-03-29T08:23:06.999Z</time></trkpt><trkpt lat="43.42335985398226" lon="11.45052894950565"><ele>397.0</ele><time>2026-03-29T08:23:07.999Z</time></trkpt><trkpt lat="43.423208074496344" lon="11.450708969977208"><ele>397.0</ele><time>2026-03-29T08:23:08.999Z</time></trkpt><trkpt lat="43.423052136588694" lon="11.450863826107096"><ele>397.0</ele><time>2026-03-29T08:23:09.999Z</time></trkpt><trkpt lat="43.4229043133825" lon="11.450993081833042"><ele>397.0</ele><time>2026-03-29T08:23:10.999Z</time></trkpt><trkpt lat="43.422742695783356" lon="11.451119544723593"><ele>396.6666666666667</ele><time>2026-03-29T08:23:11.999Z</time></trkpt><trkpt lat="43.42257695623041" lon="11.45123161872259"><ele>396.33333333333337</ele><time>2026-03-29T08:23:12.999Z</time></trkpt><trkpt lat="43.42241061434245" lon="11.451310226506623"><ele>396.0</ele><time>2026-03-29T08:23:13.999Z</time></trkpt><trkpt lat="43.422262461292554" lon="11.451343088163823"><ele>402.4</ele><time>2026-03-29T08:23:14.999Z</time></trkpt><trkpt lat="43.42212446092389" lon="11.45133719549651"><ele>408.8</ele><time>2026-03-29T08:23:15.999Z</time></trkpt><trkpt lat="43.42201253475567" lon="11.451328253241172"><ele>415.19999999999993</ele><time>2026-03-29T08:23:16.999Z</time></trkpt><trkpt lat="43.42192338499524" lon="11.451359141184621"><ele>421.59999999999997</ele><time>2026-03-29T08:23:17.999Z</time></trkpt><trkpt lat="43.421848305038345" lon="11.451445190535987"><ele>428.0</ele><time>2026-03-29T08:23:18.999Z</time></trkpt><trkpt lat="43.42178961366652" lon="11.451565472297524"><ele>428.0</ele><time>2026-03-29T08:23:19.999Z</time></trkpt><trkpt lat="43.42175960662528" lon="11.451736758683051"><ele>428.0</ele><time>2026-03-29T08:23:20.999Z</time></trkpt><trkpt lat="43.421763293608976" lon="11.45191789447698"><ele>428.0</ele><time>2026-03-29T08:23:21.999Z</time></trkpt><trkpt lat="43.42175933426447" lon="11.452112379163683"><ele>428.0</ele><time>2026-03-29T08:23:22.999Z</time></trkpt><trkpt lat="43.42172095924989" lon="11.452319449835315"><ele>425.75</ele><time>2026-03-29T08:23:23.999Z</time></trkpt><trkpt lat="43.4216456300069" lon="11.452516826102416"><ele>423.5</ele><time>2026-03-29T08:23:24.999Z</time></trkpt><trkpt lat="43.42157080285776" lon="11.452683577354914"><ele>421.25</ele><time>2026-03-29T08:23:25.999Z</time></trkpt><trkpt lat="43.42153893756342" lon="11.45283527072985"><ele>419.0</ele><time>2026-03-29T08:23:26.999Z</time></trkpt><trkpt lat="43.42155584024346" lon="11.452997150133365"><ele>418.0</ele><time>2026-03-29T08:23:27.999Z</time></trkpt><trkpt lat="43.42160950499723" lon="11.453146234025672"><ele>417.0</ele><time>2026-03-29T08:23:28.999Z</time></trkpt><trkpt lat="43.42168958911093" lon="11.453282039570073"><ele>416.0</ele><time>2026-03-29T08:23:29.999Z</time></trkpt><trkpt lat="43.42176889002665" lon="11.453414037704153"><ele>415.0</ele><time>2026-03-29T08:23:30.999Z</time></trkpt><trkpt lat="43.421809828413785" lon="11.453548322974179"><ele>415.0</ele><time>2026-03-29T08:23:31.999Z</time></trkpt><trkpt lat="43.42181728967896" lon="11.45368710406659"><ele>415.0</ele><time>2026-03-29T08:23:32.999Z</time></trkpt><trkpt lat="43.421796712336416" lon="11.453828968332079"><ele>415.0</ele><time>2026-03-29T08:23:33.999Z</time></trkpt><trkpt lat="43.421753411911254" lon="11.453974046837452"><ele>415.0</ele><time>2026-03-29T08:23:34.999Z</time></trkpt><trkpt lat="43.421680584241386" lon="11.454110550439603"><ele>415.0</ele><time>2026-03-29T08:23:35.999Z</time></trkpt><trkpt lat="43.42158062288795" lon="11.454233669146895"><ele>414.33333333333337</ele><time>2026-03-29T08:23:36.999Z</time></trkpt><trkpt lat="43.4214659857639" lon="11.454342900011978"><ele>413.66666666666663</ele><time>2026-03-29T08:23:37.999Z</time></trkpt><trkpt lat="43.42132685291257" lon="11.454446513705303"><ele>413.0</ele><time>2026-03-29T08:23:38.999Z</time></trkpt><trkpt lat="43.42118762601196" lon="11.454545330735803"><ele>415.25</ele><time>2026-03-29T08:23:39.999Z</time></trkpt><trkpt lat="43.42105947639349" lon="11.454649168747373"><ele>417.5</ele><time>2026-03-29T08:23:40.999Z</time></trkpt><trkpt lat="43.42096409509949" lon="11.454772509117621"><ele>419.75</ele><time>2026-03-29T08:23:41.999Z</time></trkpt><trkpt lat="43.420884746750126" lon="11.4549372702708"><ele>422.0</ele><time>2026-03-29T08:23:42.999Z</time></trkpt><trkpt lat="43.420786617456564" lon="11.45511487311207"><ele>422.0</ele><time>2026-03-29T08:23:43.999Z</time></trkpt><trkpt lat="43.42066832655201" lon="11.455284248978929"><ele>422.0</ele><time>2026-03-29T08:23:44.999Z</time></trkpt><trkpt lat="43.42054320980359" lon="11.45545543569418"><ele>422.0</ele><time>2026-03-29T08:23:45.999Z</time></trkpt><trkpt lat="43.42043638562582" lon="11.455627129844995"><ele>424.0</ele><time>2026-03-29T08:23:46.999Z</time></trkpt><trkpt lat="43.420313516480384" lon="11.455786096094966"><ele>426.0</ele><time>2026-03-29T08:23:47.999Z</time></trkpt><trkpt lat="43.42019648462925" lon="11.455954422754392"><ele>428.0</ele><time>2026-03-29T08:23:48.999Z</time></trkpt><trkpt lat="43.42007508937669" lon="11.456137264203456"><ele>426.3333333333333</ele><time>2026-03-29T08:23:49.999Z</time></trkpt><trkpt lat="43.419955891773526" lon="11.456316207182219"><ele>424.66666666666663</ele><time>2026-03-29T08:23:50.999Z</time></trkpt><trkpt lat="43.419845333056884" lon="11.456471792991605"><ele>423.0</ele><time>2026-03-29T08:23:51.999Z</time></trkpt><trkpt lat="43.419744473168606" lon="11.456609267969778"><ele>423.0</ele><time>2026-03-29T08:23:52.999Z</time></trkpt><trkpt lat="43.41965743747307" lon="11.45672528389572"><ele>423.0</ele><time>2026-03-29T08:23:53.999Z</time></trkpt><trkpt lat="43.419554649905706" lon="11.456780068169826"><ele>423.0</ele><time>2026-03-29T08:23:54.999Z</time></trkpt><trkpt lat="43.419457887260776" lon="11.456847320195179"><ele>423.0</ele><time>2026-03-29T08:23:55.999Z</time></trkpt><trkpt lat="43.4193253623166" lon="11.456858604272496"><ele>425.0</ele><time>2026-03-29T08:23:56.999Z</time></trkpt><trkpt lat="43.41921256124387" lon="11.4568720043244"><ele>427.0</ele><time>2026-03-29T08:23:57.999Z</time></trkpt><trkpt lat="43.41912058702134" lon="11.456935882319101"><ele>428.99999999999994</ele><time>2026-03-29T08:23:58.999Z</time></trkpt><trkpt lat="43.41905436677888" lon="11.457045191576965"><ele>431.0</ele><time>2026-03-29T08:23:59.999Z</time></trkpt><trkpt lat="43.41901161010819" lon="11.457181163369961"><ele>433.0</ele><time>2026-03-29T08:24:00.999Z</time></trkpt><trkpt lat="43.41898281508572" lon="11.45734055436103"><ele>433.0</ele><time>2026-03-29T08:24:01.999Z</time></trkpt><trkpt lat="43.41896642973446" lon="11.457502121742618"><ele>433.0</ele><time>2026-03-29T08:24:02.999Z</time></trkpt><trkpt lat="43.41893891795295" lon="11.45764101887995"><ele>433.0</ele><time>2026-03-29T08:24:03.999Z</time></trkpt><trkpt lat="43.4188706302475" lon="11.45774957366962"><ele>433.0</ele><time>2026-03-29T08:24:05Z</time></trkpt><trkpt lat="43.41875117223278" lon="11.45782072887391"><ele>433.0</ele><time>2026-03-29T08:24:06Z</time></trkpt><trkpt lat="43.418640272960765" lon="11.457931961072374"><ele>433.0</ele><time>2026-03-29T08:24:07Z</time></trkpt><trkpt lat="43.41849464704935" lon="11.458032911442523"><ele>433.0</ele><time>2026-03-29T08:24:08Z</time></trkpt><trkpt lat="43.41836498274504" lon="11.458137659730186"><ele>433.0</ele><time>2026-03-29T08:24:09Z</time></trkpt><trkpt lat="43.41823157411806" lon="11.458243984300584"><ele>433.0</ele><time>2026-03-29T08:24:10Z</time></trkpt><trkpt lat="43.41809608175426" lon="11.458344532554086"><ele>433.0</ele><time>2026-03-29T08:24:11Z</time></trkpt><trkpt lat="43.41797253055385" lon="11.458407779104677"><ele>433.0</ele><time>2026-03-29T08:24:12Z</time></trkpt><trkpt lat="43.4178529898833" lon="11.458432600895408"><ele>434.5</ele><time>2026-03-29T08:24:13Z</time></trkpt><trkpt lat="43.41773481265621" lon="11.458364897447467"><ele>436.0</ele><time>2026-03-29T08:24:14Z</time></trkpt><trkpt lat="43.41760332537746" lon="11.45828241815961"><ele>437.5</ele><time>2026-03-29T08:24:15Z</time></trkpt><trkpt lat="43.41746566996142" lon="11.45820416010678"><ele>439.0</ele><time>2026-03-29T08:24:16Z</time></trkpt><trkpt lat="43.41732330794493" lon="11.458095677761351"><ele>439.0</ele><time>2026-03-29T08:24:17Z</time></trkpt><trkpt lat="43.417159984156136" lon="11.458023917916826"><ele>439.0</ele><time>2026-03-29T08:24:18Z</time></trkpt><trkpt lat="43.4169909315161" lon="11.457995087518896"><ele>439.0</ele><time>2026-03-29T08:24:19Z</time></trkpt><trkpt lat="43.41684095364828" lon="11.457983217873618"><ele>439.5</ele><time>2026-03-29T08:24:20Z</time></trkpt><trkpt lat="43.41670887446397" lon="11.457962271974084"><ele>440.0</ele><time>2026-03-29T08:24:21Z</time></trkpt><trkpt lat="43.41658778061107" lon="11.457956489691684"><ele>440.5</ele><time>2026-03-29T08:24:22Z</time></trkpt><trkpt lat="43.41647747519097" lon="11.45797338967671"><ele>441.0</ele><time>2026-03-29T08:24:23Z</time></trkpt><trkpt lat="43.41637720382604" lon="11.45802712740204"><ele>442.25</ele><time>2026-03-29T08:24:24Z</time></trkpt><trkpt lat="43.41628553386792" lon="11.458100253371917"><ele>443.5</ele><time>2026-03-29T08:24:25Z</time></trkpt><trkpt lat="43.416192219876706" lon="11.458189972071201"><ele>444.75</ele><time>2026-03-29T08:24:26Z</time></trkpt><trkpt lat="43.41607768846355" lon="11.458267558952208"><ele>446.0</ele><time>2026-03-29T08:24:27Z</time></trkpt><trkpt lat="43.415998757037904" lon="11.458431528134893"><ele>445.99999999999994</ele><time>2026-03-29T08:24:28Z</time></trkpt><trkpt lat="43.41594019249345" lon="11.458558939536868"><ele>446.0</ele><time>2026-03-29T08:24:29Z</time></trkpt><trkpt lat="43.41589716585453" lon="11.458681084404537"><ele>446.0</ele><time>2026-03-29T08:24:30Z</time></trkpt><trkpt lat="43.415869993703495" lon="11.45879350998922"><ele>446.0</ele><time>2026-03-29T08:24:31Z</time></trkpt><trkpt lat="43.415855155412004" lon="11.458898611997874"><ele>445.99999999999994</ele><time>2026-03-29T08:24:32Z</time></trkpt><trkpt lat="43.415844024839934" lon="11.459002811028167"><ele>446.0</ele><time>2026-03-29T08:24:33Z</time></trkpt><trkpt lat="43.41583780509629" lon="11.4591050538797"><ele>446.66666666666663</ele><time>2026-03-29T08:24:34Z</time></trkpt><trkpt lat="43.41582947594847" lon="11.459247863094427"><ele>447.3333333333333</ele><time>2026-03-29T08:24:36Z</time></trkpt><trkpt lat="43.415833502217296" lon="11.459342384359337"><ele>448.0</ele><time>2026-03-29T08:24:38Z</time></trkpt><trkpt lat="43.41585493457543" lon="11.459451584567994"><ele>448.66666666666663</ele><time>2026-03-29T08:24:57Z</time></trkpt><trkpt lat="43.4158690438679" lon="11.459608093573944"><ele>449.3333333333333</ele><time>2026-03-29T08:24:59Z</time></trkpt><trkpt lat="43.415869777604584" lon="11.459716637906762"><ele>450.0</ele><time>2026-03-29T08:25:00Z</time></trkpt><trkpt lat="43.41587735998888" lon="11.459816412289285"><ele>451.4</ele><time>2026-03-29T08:25:01Z</time></trkpt><trkpt lat="43.41588173584097" lon="11.459943886803755"><ele>452.8</ele><time>2026-03-29T08:25:03Z</time></trkpt><trkpt lat="43.41589317550058" lon="11.460098025520875"><ele>454.20000000000005</ele><time>2026-03-29T08:25:05Z</time></trkpt><trkpt lat="43.41588071135892" lon="11.460244605515872"><ele>455.6</ele><time>2026-03-29T08:25:07Z</time></trkpt><trkpt lat="43.41588937601629" lon="11.460402188095763"><ele>457.0</ele><time>2026-03-29T08:25:09Z</time></trkpt><trkpt lat="43.415894288356284" lon="11.460495029254567"><ele>459.33333333333337</ele><time>2026-03-29T08:25:10Z</time></trkpt><trkpt lat="43.41590144648727" lon="11.46059358240261"><ele>461.6666666666667</ele><time>2026-03-29T08:25:11Z</time></trkpt><trkpt lat="43.41592271174753" lon="11.460692411792529"><ele>464.0</ele><time>2026-03-29T08:25:11.999Z</time></trkpt><trkpt lat="43.41596255910551" lon="11.460793674897108"><ele>466.33333333333337</ele><time>2026-03-29T08:25:12.999Z</time></trkpt><trkpt lat="43.416002959167706" lon="11.460863858960236"><ele>468.6666666666667</ele><time>2026-03-29T08:25:13.999Z</time></trkpt><trkpt lat="43.41608756298351" lon="11.46098348590278"><ele>471.0</ele><time>2026-03-29T08:25:15.999Z</time></trkpt><trkpt lat="43.416142287069455" lon="11.46114036355284"><ele>472.20000000000005</ele><time>2026-03-29T08:25:17.999Z</time></trkpt><trkpt lat="43.41610554319569" lon="11.461289609426588"><ele>473.40000000000003</ele><time>2026-03-29T08:25:19.999Z</time></trkpt><trkpt lat="43.416043201735725" lon="11.461358350164863"><ele>474.6</ele><time>2026-03-29T08:25:20.999Z</time></trkpt><trkpt lat="43.415974808073635" lon="11.461433856259008"><ele>475.8</ele><time>2026-03-29T08:25:21.999Z</time></trkpt><trkpt lat="43.415898110453846" lon="11.46147512089839"><ele>477.0</ele><time>2026-03-29T08:25:22.999Z</time></trkpt><trkpt lat="43.415814659663894" lon="11.461405593456762"><ele>477.0</ele><time>2026-03-29T08:25:23.999Z</time></trkpt><trkpt lat="43.41572456049588" lon="11.461303592982308"><ele>477.00000000000006</ele><time>2026-03-29T08:25:25.999Z</time></trkpt><trkpt lat="43.415695408487345" lon="11.46121204962061"><ele>477.00000000000006</ele><time>2026-03-29T08:25:26.999Z</time></trkpt><trkpt lat="43.41567361778285" lon="11.461095795654611"><ele>477.0</ele><time>2026-03-29T08:25:27.999Z</time></trkpt><trkpt lat="43.41564001629909" lon="11.460957492703663"><ele>477.0</ele><time>2026-03-29T08:25:28.999Z</time></trkpt><trkpt lat="43.415599278961174" lon="11.460820308296649"><ele>477.5</ele><time>2026-03-29T08:25:29.999Z</time></trkpt><trkpt lat="43.415551652584924" lon="11.46072524187821"><ele>478.0</ele><time>2026-03-29T08:25:30.999Z</time></trkpt><trkpt lat="43.41549371696265" lon="11.46065991917945"><ele>478.5</ele><time>2026-03-29T08:25:31.999Z</time></trkpt><trkpt lat="43.4154099122667" lon="11.460629864810905"><ele>479.0</ele><time>2026-03-29T08:25:32.999Z</time></trkpt><trkpt lat="43.41535142721" lon="11.460584739297694"><ele>479.5</ele><time>2026-03-29T08:25:33.999Z</time></trkpt><trkpt lat="43.41528526823165" lon="11.46054824999069"><ele>480.0</ele><time>2026-03-29T08:25:34.999Z</time></trkpt><trkpt lat="43.41521829596372" lon="11.460603200105691"><ele>480.0</ele><time>2026-03-29T08:25:36.999Z</time></trkpt><trkpt lat="43.41530279822246" lon="11.460792359227995"><ele>480.0</ele><time>2026-03-29T08:25:40.999Z</time></trkpt><trkpt lat="43.41539916173821" lon="11.460874958457584"><ele>480.0</ele><time>2026-03-29T08:25:42.999Z</time></trkpt><trkpt lat="43.41544093936591" lon="11.460971015458545"><ele>480.0</ele><time>2026-03-29T08:25:44.999Z</time></trkpt><trkpt lat="43.41545663784625" lon="11.461097127038467"><ele>480.0</ele><time>2026-03-29T08:25:46.999Z</time></trkpt><trkpt lat="43.41544255309551" lon="11.461225208197476"><ele>481.6666666666667</ele><time>2026-03-29T08:25:48.999Z</time></trkpt><trkpt lat="43.41541093056962" lon="11.461368628395746"><ele>483.33333333333337</ele><time>2026-03-29T08:25:50.999Z</time></trkpt><trkpt lat="43.41537198790366" lon="11.461457881907135"><ele>485.0</ele><time>2026-03-29T08:25:52.999Z</time></trkpt><trkpt lat="43.4153699942368" lon="11.461573744023148"><ele>486.6666666666667</ele><time>2026-03-29T08:25:54.999Z</time></trkpt><trkpt lat="43.41537015542507" lon="11.461670236923693"><ele>488.33333333333337</ele><time>2026-03-29T08:25:56.999Z</time></trkpt><trkpt lat="43.41532950509065" lon="11.461776453525015"><ele>490.0</ele><time>2026-03-29T08:25:59.999Z</time></trkpt><trkpt lat="43.41525492771319" lon="11.461633244817913"><ele>490.00000000000006</ele><time>2026-03-29T08:26:03.999Z</time></trkpt><trkpt lat="43.415218662953826" lon="11.461552979384846"><ele>490.0</ele><time>2026-03-29T08:26:04.999Z</time></trkpt><trkpt lat="43.415201547172884" lon="11.461449057520184"><ele>490.0</ele><time>2026-03-29T08:26:05.999Z</time></trkpt><trkpt lat="43.41516427185814" lon="11.461367162128411"><ele>490.0</ele><time>2026-03-29T08:26:07.999Z</time></trkpt><trkpt lat="43.41507052474021" lon="11.461319545119665"><ele>490.00000000000006</ele><time>2026-03-29T08:26:09.999Z</time></trkpt><trkpt lat="43.41501116225569" lon="11.461398707720953"><ele>490.0</ele><time>2026-03-29T08:26:12Z</time></trkpt><trkpt lat="43.414964112734694" lon="11.461520815002038"><ele>490.00000000000006</ele><time>2026-03-29T08:26:14Z</time></trkpt><trkpt lat="43.41493552493035" lon="11.461700641833868"><ele>490.0</ele><time>2026-03-29T08:26:16Z</time></trkpt><trkpt lat="43.41493045355063" lon="11.461803172971356"><ele>490.0</ele><time>2026-03-29T08:26:17Z</time></trkpt><trkpt lat="43.41490292071641" lon="11.461910143533126"><ele>490.0</ele><time>2026-03-29T08:26:18Z</time></trkpt><trkpt lat="43.414865792026525" lon="11.461982937920267"><ele>490.00000000000006</ele><time>2026-03-29T08:26:19Z</time></trkpt><trkpt lat="43.41481783258924" lon="11.462043886146185"><ele>490.0</ele><time>2026-03-29T08:26:20Z</time></trkpt><trkpt lat="43.414733349567946" lon="11.462156650602285"><ele>491.33333333333337</ele><time>2026-03-29T08:26:22Z</time></trkpt><trkpt lat="43.41470339911348" lon="11.462256329809168"><ele>492.6666666666667</ele><time>2026-03-29T08:26:24Z</time></trkpt><trkpt lat="43.4146973741333" lon="11.462354405141964"><ele>494.0</ele><time>2026-03-29T08:26:26Z</time></trkpt><trkpt lat="43.41467103084746" lon="11.462483403134321"><ele>495.33333333333337</ele><time>2026-03-29T08:26:28Z</time></trkpt><trkpt lat="43.4146138080708" lon="11.462624670074648"><ele>496.6666666666667</ele><time>2026-03-29T08:26:30Z</time></trkpt><trkpt lat="43.41457942335399" lon="11.462712964934768"><ele>498.0</ele><time>2026-03-29T08:26:31Z</time></trkpt><trkpt lat="43.41455986374869" lon="11.462827507983295"><ele>503.0</ele><time>2026-03-29T08:26:33Z</time></trkpt><trkpt lat="43.41453853241823" lon="11.462992564656373"><ele>508.0</ele><time>2026-03-29T08:26:35Z</time></trkpt><trkpt lat="43.414538555300325" lon="11.463089343253772"><ele>513.0</ele><time>2026-03-29T08:26:36Z</time></trkpt><trkpt lat="43.41452660822869" lon="11.463195306290698"><ele>518.0</ele><time>2026-03-29T08:26:38Z</time></trkpt><trkpt lat="43.414548420935" lon="11.463315987127269"><ele>523.0</ele><time>2026-03-29T08:26:40Z</time></trkpt><trkpt lat="43.41456637072173" lon="11.463403744719711"><ele>528.0</ele><time>2026-03-29T08:26:41Z</time></trkpt><trkpt lat="43.414570169541086" lon="11.463527398365681"><ele>528.0</ele><time>2026-03-29T08:26:43Z</time></trkpt><trkpt lat="43.41456564088429" lon="11.463665294401249"><ele>528.0</ele><time>2026-03-29T08:26:45Z</time></trkpt><trkpt lat="43.41454720163735" lon="11.46380003271386"><ele>528.0</ele><time>2026-03-29T08:26:47Z</time></trkpt><trkpt lat="43.41450663913121" lon="11.463926993875978"><ele>528.0</ele><time>2026-03-29T08:26:49Z</time></trkpt><trkpt lat="43.41446787747267" lon="11.464027166974047"><ele>528.0</ele><time>2026-03-29T08:26:51Z</time></trkpt><trkpt lat="43.414389448748494" lon="11.464121483312232"><ele>527.3333333333334</ele><time>2026-03-29T08:26:53Z</time></trkpt><trkpt lat="43.414312445219004" lon="11.464175840207297"><ele>526.6666666666666</ele><time>2026-03-29T08:26:55Z</time></trkpt><trkpt lat="43.41423198806171" lon="11.46428227313461"><ele>526.0</ele><time>2026-03-29T08:26:57Z</time></trkpt><trkpt lat="43.41417809632155" lon="11.464330252517001"><ele>525.3333333333333</ele><time>2026-03-29T08:26:58Z</time></trkpt><trkpt lat="43.41411507482822" lon="11.464385472024365"><ele>524.6666666666666</ele><time>2026-03-29T08:26:59Z</time></trkpt><trkpt lat="43.414054852084234" lon="11.464421532663122"><ele>524.0</ele><time>2026-03-29T08:27:00Z</time></trkpt><trkpt lat="43.413943912127706" lon="11.46447206036394"><ele>524.0</ele><time>2026-03-29T08:27:02Z</time></trkpt><trkpt lat="43.41387878118143" lon="11.464494703928043"><ele>524.0</ele><time>2026-03-29T08:27:03Z</time></trkpt><trkpt lat="43.41379365092544" lon="11.464552471852244"><ele>524.0</ele><time>2026-03-29T08:27:05Z</time></trkpt><trkpt lat="43.41368779179431" lon="11.464585619100623"><ele>524.0</ele><time>2026-03-29T08:27:07Z</time></trkpt><trkpt lat="43.41362258885202" lon="11.464591243100676"><ele>524.0</ele><time>2026-03-29T08:27:08Z</time></trkpt><trkpt lat="43.41353209100228" lon="11.464601335394379"><ele>524.0</ele><time>2026-03-29T08:27:09Z</time></trkpt><trkpt lat="43.413452254817685" lon="11.464617496621717"><ele>525.1666666666666</ele><time>2026-03-29T08:27:10Z</time></trkpt><trkpt lat="43.41338703256612" lon="11.46460414331067"><ele>526.3333333333333</ele><time>2026-03-29T08:27:11Z</time></trkpt><trkpt lat="43.41332126077531" lon="11.464583632118012"><ele>527.5</ele><time>2026-03-29T08:27:12Z</time></trkpt><trkpt lat="43.413240290459626" lon="11.464547972143599"><ele>528.6666666666666</ele><time>2026-03-29T08:27:13Z</time></trkpt><trkpt lat="43.41316055079706" lon="11.464497748092187"><ele>529.8333333333334</ele><time>2026-03-29T08:27:15Z</time></trkpt><trkpt lat="43.41309913183738" lon="11.464440926504492"><ele>531.0</ele><time>2026-03-29T08:27:17.999Z</time></trkpt><trkpt lat="43.413015433215726" lon="11.464390392471683"><ele>527.6</ele><time>2026-03-29T08:27:19.999Z</time></trkpt><trkpt lat="43.41292083297986" lon="11.464363486609523"><ele>524.2</ele><time>2026-03-29T08:27:21.999Z</time></trkpt><trkpt lat="43.41282002544349" lon="11.464367546572344"><ele>520.8</ele><time>2026-03-29T08:27:23.999Z</time></trkpt><trkpt lat="43.412744876136955" lon="11.464357137838839"><ele>517.4</ele><time>2026-03-29T08:27:25.999Z</time></trkpt><trkpt lat="43.412653124317764" lon="11.46434484071528"><ele>514.0</ele><time>2026-03-29T08:27:27.999Z</time></trkpt><trkpt lat="43.41255120638346" lon="11.46434647137624"><ele>514.0</ele><time>2026-03-29T08:27:29.999Z</time></trkpt><trkpt lat="43.41245512459737" lon="11.464365393350167"><ele>514.0</ele><time>2026-03-29T08:27:31.999Z</time></trkpt><trkpt lat="43.41234996973343" lon="11.464410064917093"><ele>514.0</ele><time>2026-03-29T08:27:33.999Z</time></trkpt><trkpt lat="43.41225523851271" lon="11.464475290399294"><ele>514.0</ele><time>2026-03-29T08:27:35.999Z</time></trkpt><trkpt lat="43.41215713428621" lon="11.464555265107613"><ele>514.0</ele><time>2026-03-29T08:27:37.999Z</time></trkpt><trkpt lat="43.41206162316322" lon="11.46462025843735"><ele>511.79999999999995</ele><time>2026-03-29T08:27:39.999Z</time></trkpt><trkpt lat="43.4119664861304" lon="11.464693640661638"><ele>509.59999999999997</ele><time>2026-03-29T08:27:41.999Z</time></trkpt><trkpt lat="43.41187591059808" lon="11.464746818511937"><ele>507.4</ele><time>2026-03-29T08:27:43.999Z</time></trkpt><trkpt lat="43.41178055370596" lon="11.464772206091567"><ele>505.2</ele><time>2026-03-29T08:27:45.999Z</time></trkpt><trkpt lat="43.41168566262056" lon="11.464815904123885"><ele>503.0</ele><time>2026-03-29T08:27:47.999Z</time></trkpt><trkpt lat="43.41157145099348" lon="11.464791181262171"><ele>503.0</ele><time>2026-03-29T08:27:49.999Z</time></trkpt><trkpt lat="43.41149667316807" lon="11.464757409129462"><ele>502.99999999999994</ele><time>2026-03-29T08:27:50.999Z</time></trkpt><trkpt lat="43.41142277596174" lon="11.464718884760014"><ele>502.99999999999994</ele><time>2026-03-29T08:27:51.999Z</time></trkpt><trkpt lat="43.411311249159404" lon="11.464628318868765"><ele>503.0</ele><time>2026-03-29T08:27:53.999Z</time></trkpt><trkpt lat="43.41121633936173" lon="11.464578020705934"><ele>503.0</ele><time>2026-03-29T08:27:55.999Z</time></trkpt><trkpt lat="43.4111288220324" lon="11.464504995255195"><ele>501.2</ele><time>2026-03-29T08:27:57.999Z</time></trkpt><trkpt lat="43.41103808141251" lon="11.46443283588501"><ele>499.4</ele><time>2026-03-29T08:27:59.999Z</time></trkpt><trkpt lat="43.4109422990296" lon="11.464410532955712"><ele>497.59999999999997</ele><time>2026-03-29T08:28:01.999Z</time></trkpt><trkpt lat="43.41080934602583" lon="11.464419626302062"><ele>495.79999999999995</ele><time>2026-03-29T08:28:03.999Z</time></trkpt><trkpt lat="43.41073894711127" lon="11.464430290852581"><ele>494.0</ele><time>2026-03-29T08:28:04.999Z</time></trkpt><trkpt lat="43.41067574146025" lon="11.464438933906886"><ele>493.99999999999994</ele><time>2026-03-29T08:28:05.999Z</time></trkpt><trkpt lat="43.410602000782646" lon="11.464446666046939"><ele>494.0</ele><time>2026-03-29T08:28:06.999Z</time></trkpt><trkpt lat="43.41052251196869" lon="11.464451675992505"><ele>494.0</ele><time>2026-03-29T08:28:07.999Z</time></trkpt><trkpt lat="43.41043110285925" lon="11.464454233646933"><ele>494.0</ele><time>2026-03-29T08:28:08.999Z</time></trkpt><trkpt lat="43.41033387556189" lon="11.464455065176129"><ele>493.99999999999994</ele><time>2026-03-29T08:28:09.999Z</time></trkpt><trkpt lat="43.41023641935916" lon="11.464455898661058"><ele>494.0</ele><time>2026-03-29T08:28:10.999Z</time></trkpt><trkpt lat="43.41012987161172" lon="11.464457039205005"><ele>493.5</ele><time>2026-03-29T08:28:11.999Z</time></trkpt><trkpt lat="43.41000256741995" lon="11.464480047256739"><ele>493.0</ele><time>2026-03-29T08:28:12.999Z</time></trkpt><trkpt lat="43.40988667397911" lon="11.464480861083867"><ele>492.5</ele><time>2026-03-29T08:28:13.999Z</time></trkpt><trkpt lat="43.40977870570066" lon="11.464466314180024"><ele>492.0</ele><time>2026-03-29T08:28:14.999Z</time></trkpt><trkpt lat="43.409665002447454" lon="11.464483810783802"><ele>492.1666666666667</ele><time>2026-03-29T08:28:15.999Z</time></trkpt><trkpt lat="43.40956895474894" lon="11.464492360085275"><ele>492.33333333333337</ele><time>2026-03-29T08:28:17Z</time></trkpt><trkpt lat="43.409482703195565" lon="11.464496378383325"><ele>492.5</ele><time>2026-03-29T08:28:18Z</time></trkpt><trkpt lat="43.40940233304359" lon="11.464500269934684"><ele>492.6666666666667</ele><time>2026-03-29T08:28:19Z</time></trkpt><trkpt lat="43.4093221984652" lon="11.464508736544822"><ele>492.83333333333337</ele><time>2026-03-29T08:28:20Z</time></trkpt><trkpt lat="43.409240994935374" lon="11.464510955973672"><ele>493.0</ele><time>2026-03-29T08:28:21Z</time></trkpt><trkpt lat="43.4091648020232" lon="11.464523552905064"><ele>493.00000000000006</ele><time>2026-03-29T08:28:22Z</time></trkpt><trkpt lat="43.40908826401271" lon="11.46453503949931"><ele>493.0</ele><time>2026-03-29T08:28:23Z</time></trkpt><trkpt lat="43.40900974474733" lon="11.464544811206215"><ele>493.0</ele><time>2026-03-29T08:28:24Z</time></trkpt><trkpt lat="43.408932959393475" lon="11.464554855630176"><ele>493.0</ele><time>2026-03-29T08:28:25Z</time></trkpt><trkpt lat="43.408863317036015" lon="11.464556722543"><ele>493.00000000000006</ele><time>2026-03-29T08:28:26Z</time></trkpt><trkpt lat="43.40874830030352" lon="11.464565882522175"><ele>493.0</ele><time>2026-03-29T08:28:28Z</time></trkpt><trkpt lat="43.40863421598986" lon="11.464563294418658"><ele>492.2</ele><time>2026-03-29T08:28:30Z</time></trkpt><trkpt lat="43.40850861428025" lon="11.464551398435086"><ele>491.4</ele><time>2026-03-29T08:28:32Z</time></trkpt><trkpt lat="43.40844057772862" lon="11.46454183711211"><ele>490.59999999999997</ele><time>2026-03-29T08:28:33Z</time></trkpt><trkpt lat="43.408367538881706" lon="11.46453468335639"><ele>489.79999999999995</ele><time>2026-03-29T08:28:34Z</time></trkpt><trkpt lat="43.40827721934938" lon="11.464538369842941"><ele>489.0</ele><time>2026-03-29T08:28:35Z</time></trkpt><trkpt lat="43.40818197146366" lon="11.464530042387317"><ele>489.0</ele><time>2026-03-29T08:28:36Z</time></trkpt><trkpt lat="43.4080854436122" lon="11.464536454311064"><ele>489.0</ele><time>2026-03-29T08:28:37Z</time></trkpt><trkpt lat="43.40800542811427" lon="11.464552582840867"><ele>489.0</ele><time>2026-03-29T08:28:38Z</time></trkpt><trkpt lat="43.40791328015566" lon="11.464551522768991"><ele>489.0</ele><time>2026-03-29T08:28:39Z</time></trkpt><trkpt lat="43.40783234743477" lon="11.464560807093923"><ele>489.0</ele><time>2026-03-29T08:28:40Z</time></trkpt><trkpt lat="43.40773483857176" lon="11.464568960932324"><ele>489.0</ele><time>2026-03-29T08:28:41Z</time></trkpt><trkpt lat="43.40764264012549" lon="11.464578297728506"><ele>487.4</ele><time>2026-03-29T08:28:42Z</time></trkpt><trkpt lat="43.4075649355747" lon="11.464593587194258"><ele>485.79999999999995</ele><time>2026-03-29T08:28:43Z</time></trkpt><trkpt lat="43.407474895046114" lon="11.46458957399626"><ele>484.20000000000005</ele><time>2026-03-29T08:28:44Z</time></trkpt><trkpt lat="43.40736604302654" lon="11.464615260446365"><ele>482.6</ele><time>2026-03-29T08:28:45Z</time></trkpt><trkpt lat="43.40726942090778" lon="11.464636628690148"><ele>481.0</ele><time>2026-03-29T08:28:46Z</time></trkpt><trkpt lat="43.40718936066757" lon="11.464645236737057"><ele>480.50000000000006</ele><time>2026-03-29T08:28:47Z</time></trkpt><trkpt lat="43.407101829859116" lon="11.464651164856676"><ele>480.0</ele><time>2026-03-29T08:28:48Z</time></trkpt><trkpt lat="43.40699593385782" lon="11.46465684430161"><ele>479.5</ele><time>2026-03-29T08:28:49Z</time></trkpt><trkpt lat="43.40690326087221" lon="11.46464164845272"><ele>479.0</ele><time>2026-03-29T08:28:50Z</time></trkpt><trkpt lat="43.40683637110612" lon="11.464592405491508"><ele>478.50000000000006</ele><time>2026-03-29T08:28:51Z</time></trkpt><trkpt lat="43.40676805997273" lon="11.464566048263327"><ele>478.0</ele><time>2026-03-29T08:28:52Z</time></trkpt><trkpt lat="43.40665340729807" lon="11.464528757007024"><ele>477.2</ele><time>2026-03-29T08:28:54Z</time></trkpt><trkpt lat="43.40658825869638" lon="11.464518096134617"><ele>476.4</ele><time>2026-03-29T08:28:55Z</time></trkpt><trkpt lat="43.406475362669624" lon="11.464487077810128"><ele>475.59999999999997</ele><time>2026-03-29T08:28:57Z</time></trkpt><trkpt lat="43.40635996247129" lon="11.464446256559876"><ele>474.79999999999995</ele><time>2026-03-29T08:28:59Z</time></trkpt><trkpt lat="43.40623412916182" lon="11.464409833561403"><ele>474.0</ele><time>2026-03-29T08:29:01Z</time></trkpt><trkpt lat="43.40616511211116" lon="11.464381346472344"><ele>473.1428571428571</ele><time>2026-03-29T08:29:02Z</time></trkpt><trkpt lat="43.406096920809354" lon="11.464330304063683"><ele>472.2857142857143</ele><time>2026-03-29T08:29:03Z</time></trkpt><trkpt lat="43.40603400521194" lon="11.464291952665924"><ele>471.42857142857144</ele><time>2026-03-29T08:29:04Z</time></trkpt><trkpt lat="43.405972512614284" lon="11.464250201395656"><ele>470.57142857142856</ele><time>2026-03-29T08:29:05Z</time></trkpt><trkpt lat="43.405904537247444" lon="11.464202950998605"><ele>469.7142857142858</ele><time>2026-03-29T08:29:06Z</time></trkpt><trkpt lat="43.40583526502662" lon="11.464167254071116"><ele>468.8571428571429</ele><time>2026-03-29T08:29:07Z</time></trkpt><trkpt lat="43.40576497956349" lon="11.4641145149808"><ele>468.0</ele><time>2026-03-29T08:29:08Z</time></trkpt><trkpt lat="43.40567458635941" lon="11.464035887444592"><ele>468.0</ele><time>2026-03-29T08:29:10Z</time></trkpt><trkpt lat="43.40557804399985" lon="11.463941863938865"><ele>467.99999999999994</ele><time>2026-03-29T08:29:12Z</time></trkpt><trkpt lat="43.40552153609721" lon="11.463885542785235"><ele>467.99999999999994</ele><time>2026-03-29T08:29:13Z</time></trkpt><trkpt lat="43.405466097711326" lon="11.463834240280153"><ele>468.0</ele><time>2026-03-29T08:29:14Z</time></trkpt><trkpt lat="43.40541342175554" lon="11.463779297515432"><ele>468.0</ele><time>2026-03-29T08:29:15Z</time></trkpt><trkpt lat="43.40531272132152" lon="11.463666522651819"><ele>465.5</ele><time>2026-03-29T08:29:17Z</time></trkpt><trkpt lat="43.40526271193355" lon="11.463604830279012"><ele>463.0</ele><time>2026-03-29T08:29:18Z</time></trkpt><trkpt lat="43.4052247487874" lon="11.463525639819403"><ele>460.5</ele><time>2026-03-29T08:29:19Z</time></trkpt><trkpt lat="43.405166350031465" lon="11.463484119933886"><ele>458.0</ele><time>2026-03-29T08:29:20Z</time></trkpt><trkpt lat="43.40508311210001" lon="11.463358549676636"><ele>455.5</ele><time>2026-03-29T08:29:22Z</time></trkpt><trkpt lat="43.404992546527225" lon="11.463243499201903"><ele>453.0</ele><time>2026-03-29T08:29:24Z</time></trkpt><trkpt lat="43.40493396932624" lon="11.46314253984987"><ele>453.0</ele><time>2026-03-29T08:29:26Z</time></trkpt><trkpt lat="43.40487859734657" lon="11.463002344795855"><ele>453.0</ele><time>2026-03-29T08:29:27.999Z</time></trkpt><trkpt lat="43.40483715812854" lon="11.462924455394008"><ele>453.0</ele><time>2026-03-29T08:29:28.999Z</time></trkpt><trkpt lat="43.404776511392456" lon="11.462851600604061"><ele>453.0</ele><time>2026-03-29T08:29:29.999Z</time></trkpt><trkpt lat="43.40474450447158" lon="11.46274947238985"><ele>453.0</ele><time>2026-03-29T08:29:30.999Z</time></trkpt><trkpt lat="43.40471843163162" lon="11.462641615300205"><ele>453.0</ele><time>2026-03-29T08:29:31.999Z</time></trkpt><trkpt lat="43.40469847770414" lon="11.4625157015187"><ele>453.59999999999997</ele><time>2026-03-29T08:29:32.999Z</time></trkpt><trkpt lat="43.404677935343585" lon="11.462379174738883"><ele>454.19999999999993</ele><time>2026-03-29T08:29:33.999Z</time></trkpt><trkpt lat="43.404670170431544" lon="11.462231558501806"><ele>454.8</ele><time>2026-03-29T08:29:34.999Z</time></trkpt><trkpt lat="43.40465082896678" lon="11.462109515175827"><ele>455.4</ele><time>2026-03-29T08:29:35.999Z</time></trkpt><trkpt lat="43.4046333972158" lon="11.462000375466292"><ele>456.0</ele><time>2026-03-29T08:29:36.999Z</time></trkpt><trkpt lat="43.404614695332796" lon="11.461892740085943"><ele>456.0</ele><time>2026-03-29T08:29:37.999Z</time></trkpt><trkpt lat="43.40459400383448" lon="11.461777120549558"><ele>456.0</ele><time>2026-03-29T08:29:38.999Z</time></trkpt><trkpt lat="43.40457094880756" lon="11.461663970440984"><ele>456.0</ele><time>2026-03-29T08:29:39.999Z</time></trkpt><trkpt lat="43.40454534090736" lon="11.461575263622652"><ele>456.0</ele><time>2026-03-29T08:29:40.999Z</time></trkpt><trkpt lat="43.40450592520559" lon="11.461479651219463"><ele>456.0</ele><time>2026-03-29T08:29:41.999Z</time></trkpt><trkpt lat="43.40445404378271" lon="11.461367013735792"><ele>456.0</ele><time>2026-03-29T08:29:42.999Z</time></trkpt><trkpt lat="43.40439536364604" lon="11.461244728511454"><ele>456.4</ele><time>2026-03-29T08:29:43.999Z</time></trkpt><trkpt lat="43.404327856758506" lon="11.461103894670876"><ele>456.8</ele><time>2026-03-29T08:29:44.999Z</time></trkpt><trkpt lat="43.40426991100952" lon="11.460979330077887"><ele>457.19999999999993</ele><time>2026-03-29T08:29:45.999Z</time></trkpt><trkpt lat="43.4042150595512" lon="11.460857444983048"><ele>457.59999999999997</ele><time>2026-03-29T08:29:46.999Z</time></trkpt><trkpt lat="43.40416214475867" lon="11.460736994090066"><ele>458.0</ele><time>2026-03-29T08:29:47.999Z</time></trkpt><trkpt lat="43.40412365753421" lon="11.460629365080635"><ele>457.99999999999994</ele><time>2026-03-29T08:29:48.999Z</time></trkpt><trkpt lat="43.404100098929085" lon="11.460524901157074"><ele>458.0</ele><time>2026-03-29T08:29:49.999Z</time></trkpt><trkpt lat="43.40409099837821" lon="11.460427607593157"><ele>458.0</ele><time>2026-03-29T08:29:50.999Z</time></trkpt><trkpt lat="43.40410051115492" lon="11.460317921445878"><ele>458.0</ele><time>2026-03-29T08:29:51.999Z</time></trkpt><trkpt lat="43.40411528053604" lon="11.460192150696368"><ele>457.99999999999994</ele><time>2026-03-29T08:29:52.999Z</time></trkpt><trkpt lat="43.4041314054475" lon="11.460081104357931"><ele>458.0</ele><time>2026-03-29T08:29:53.999Z</time></trkpt><trkpt lat="43.40414889200908" lon="11.459963318271079"><ele>457.66666666666663</ele><time>2026-03-29T08:29:54.999Z</time></trkpt><trkpt lat="43.404150983865456" lon="11.45983702929995"><ele>457.3333333333333</ele><time>2026-03-29T08:29:55.999Z</time></trkpt><trkpt lat="43.40417706180454" lon="11.45971177981132"><ele>457.0</ele><time>2026-03-29T08:29:56.999Z</time></trkpt><trkpt lat="43.404202654097" lon="11.459603473249238"><ele>456.66666666666663</ele><time>2026-03-29T08:29:57.999Z</time></trkpt><trkpt lat="43.404235052445934" lon="11.459500925943999"><ele>456.3333333333333</ele><time>2026-03-29T08:29:58.999Z</time></trkpt><trkpt lat="43.404291385901914" lon="11.45941581379017"><ele>456.0</ele><time>2026-03-29T08:29:59.999Z</time></trkpt><trkpt lat="43.404331035175" lon="11.459301859144396"><ele>455.8333333333333</ele><time>2026-03-29T08:30:00.999Z</time></trkpt><trkpt lat="43.40439483083288" lon="11.459197668667482"><ele>455.66666666666663</ele><time>2026-03-29T08:30:01.999Z</time></trkpt><trkpt lat="43.40446124726315" lon="11.459092651956103"><ele>455.5</ele><time>2026-03-29T08:30:02.999Z</time></trkpt><trkpt lat="43.40452543874996" lon="11.459005198241481"><ele>455.3333333333333</ele><time>2026-03-29T08:30:03.999Z</time></trkpt><trkpt lat="43.40458313910882" lon="11.45893468296255"><ele>455.16666666666663</ele><time>2026-03-29T08:30:04.999Z</time></trkpt><trkpt lat="43.40463938983436" lon="11.458862832351599"><ele>455.0</ele><time>2026-03-29T08:30:05.999Z</time></trkpt><trkpt lat="43.404692986330126" lon="11.458804570945475"><ele>454.3333333333333</ele><time>2026-03-29T08:30:06.999Z</time></trkpt><trkpt lat="43.40472607396997" lon="11.458728631878"><ele>453.66666666666663</ele><time>2026-03-29T08:30:07.999Z</time></trkpt><trkpt lat="43.40477956055692" lon="11.458668948902675"><ele>453.0</ele><time>2026-03-29T08:30:08.999Z</time></trkpt><trkpt lat="43.40480379843794" lon="11.458584970339992"><ele>452.33333333333337</ele><time>2026-03-29T08:30:09.999Z</time></trkpt><trkpt lat="43.40483565882691" lon="11.458442005010504"><ele>451.6666666666667</ele><time>2026-03-29T08:30:11.999Z</time></trkpt><trkpt lat="43.404865553528055" lon="11.458306832978671"><ele>451.0</ele><time>2026-03-29T08:30:13.999Z</time></trkpt><trkpt lat="43.40490179024178" lon="11.458160725042756"><ele>451.00000000000006</ele><time>2026-03-29T08:30:15.999Z</time></trkpt><trkpt lat="43.404971324179456" lon="11.45806011165292"><ele>451.0</ele><time>2026-03-29T08:30:17.999Z</time></trkpt><trkpt lat="43.40504028912305" lon="11.457937542167029"><ele>451.0</ele><time>2026-03-29T08:30:19.999Z</time></trkpt><trkpt lat="43.405046000561605" lon="11.457831723015238"><ele>451.0</ele><time>2026-03-29T08:30:20.999Z</time></trkpt><trkpt lat="43.40504058336058" lon="11.457722939555754"><ele>451.00000000000006</ele><time>2026-03-29T08:30:21.999Z</time></trkpt><trkpt lat="43.40503705741911" lon="11.457617224199199"><ele>451.0</ele><time>2026-03-29T08:30:23Z</time></trkpt><trkpt lat="43.40503163856145" lon="11.457511330180138"><ele>449.6666666666667</ele><time>2026-03-29T08:30:24Z</time></trkpt><trkpt lat="43.40502504038838" lon="11.45741371601881"><ele>448.33333333333337</ele><time>2026-03-29T08:30:25Z</time></trkpt><trkpt lat="43.40501571809336" lon="11.457325178000323"><ele>447.0</ele><time>2026-03-29T08:30:26Z</time></trkpt><trkpt lat="43.404995218962675" lon="11.45715675178923"><ele>445.66666666666663</ele><time>2026-03-29T08:30:28Z</time></trkpt><trkpt lat="43.4049801448913" lon="11.457060737803447"><ele>444.3333333333333</ele><time>2026-03-29T08:30:29Z</time></trkpt><trkpt lat="43.40496230292331" lon="11.456973846806743"><ele>443.0</ele><time>2026-03-29T08:30:30Z</time></trkpt><trkpt lat="43.40491793433857" lon="11.456825868726185"><ele>441.8333333333333</ele><time>2026-03-29T08:30:32Z</time></trkpt><trkpt lat="43.404889456328604" lon="11.45674746873617"><ele>440.66666666666663</ele><time>2026-03-29T08:30:33Z</time></trkpt><trkpt lat="43.404841399138306" lon="11.4566045971551"><ele>439.5</ele><time>2026-03-29T08:30:35Z</time></trkpt><trkpt lat="43.40480852042716" lon="11.456487226404331"><ele>438.33333333333337</ele><time>2026-03-29T08:30:37Z</time></trkpt><trkpt lat="43.404844656755145" lon="11.456380727212496"><ele>437.1666666666667</ele><time>2026-03-29T08:30:39Z</time></trkpt><trkpt lat="43.40490651667996" lon="11.456338537114636"><ele>436.0</ele><time>2026-03-29T08:30:40Z</time></trkpt><trkpt lat="43.40498300528035" lon="11.456341807172084"><ele>436.0</ele><time>2026-03-29T08:30:41Z</time></trkpt><trkpt lat="43.40508137072867" lon="11.456355322251738"><ele>436.0</ele><time>2026-03-29T08:30:42Z</time></trkpt><trkpt lat="43.40516825174648" lon="11.45636977952622"><ele>436.0</ele><time>2026-03-29T08:30:43Z</time></trkpt><trkpt lat="43.40523997861999" lon="11.456385381520182"><ele>436.0</ele><time>2026-03-29T08:30:44Z</time></trkpt><trkpt lat="43.40537483250882" lon="11.456401006878204"><ele>436.0</ele><time>2026-03-29T08:30:46Z</time></trkpt><trkpt lat="43.40550288408006" lon="11.45641808928818"><ele>434.20000000000005</ele><time>2026-03-29T08:30:48Z</time></trkpt><trkpt lat="43.405621034662644" lon="11.456393127735039"><ele>432.40000000000003</ele><time>2026-03-29T08:30:50Z</time></trkpt><trkpt lat="43.40569021696603" lon="11.456347971598627"><ele>430.6</ele><time>2026-03-29T08:30:51Z</time></trkpt><trkpt lat="43.40574910359161" lon="11.456276919843084"><ele>428.8</ele><time>2026-03-29T08:30:52Z</time></trkpt><trkpt lat="43.405828508282504" lon="11.456215440066416"><ele>427.0</ele><time>2026-03-29T08:30:53Z</time></trkpt><trkpt lat="43.40590009927579" lon="11.456106921570273"><ele>426.83333333333337</ele><time>2026-03-29T08:30:54Z</time></trkpt><trkpt lat="43.40595411497725" lon="11.456009791296356"><ele>426.6666666666667</ele><time>2026-03-29T08:30:55Z</time></trkpt><trkpt lat="43.405992573175936" lon="11.45591691806987"><ele>426.5</ele><time>2026-03-29T08:30:56Z</time></trkpt><trkpt lat="43.406021947834645" lon="11.455825132225316"><ele>426.33333333333337</ele><time>2026-03-29T08:30:57Z</time></trkpt><trkpt lat="43.40604479895949" lon="11.45573183548555"><ele>426.1666666666667</ele><time>2026-03-29T08:30:58Z</time></trkpt><trkpt lat="43.40606285911772" lon="11.455606025808397"><ele>426.0</ele><time>2026-03-29T08:30:59Z</time></trkpt><trkpt lat="43.40607819836928" lon="11.455475904334284"><ele>425.20000000000005</ele><time>2026-03-29T08:31:00Z</time></trkpt><trkpt lat="43.406097405599645" lon="11.455353571651342"><ele>424.40000000000003</ele><time>2026-03-29T08:31:01Z</time></trkpt><trkpt lat="43.40612818621171" lon="11.45520682802457"><ele>423.6</ele><time>2026-03-29T08:31:02Z</time></trkpt><trkpt lat="43.40615928528121" lon="11.455064945093266"><ele>422.8</ele><time>2026-03-29T08:31:03Z</time></trkpt><trkpt lat="43.40618715735462" lon="11.454941587260597"><ele>422.0</ele><time>2026-03-29T08:31:04Z</time></trkpt><trkpt lat="43.40621769782878" lon="11.454819357445194"><ele>422.0</ele><time>2026-03-29T08:31:05Z</time></trkpt><trkpt lat="43.406254031111466" lon="11.45471340930515"><ele>422.0</ele><time>2026-03-29T08:31:06Z</time></trkpt><trkpt lat="43.40630395444334" lon="11.45460012102443"><ele>422.0</ele><time>2026-03-29T08:31:07Z</time></trkpt><trkpt lat="43.40638652091382" lon="11.454460997873166"><ele>422.0</ele><time>2026-03-29T08:31:08Z</time></trkpt><trkpt lat="43.4064641491521" lon="11.45433941030182"><ele>422.0</ele><time>2026-03-29T08:31:09Z</time></trkpt><trkpt lat="43.40649979073883" lon="11.454196676535316"><ele>420.0</ele><time>2026-03-29T08:31:10Z</time></trkpt><trkpt lat="43.40652734962006" lon="11.45405326210586"><ele>418.0</ele><time>2026-03-29T08:31:11Z</time></trkpt><trkpt lat="43.40656873336225" lon="11.453892312667593"><ele>416.0</ele><time>2026-03-29T08:31:12Z</time></trkpt><trkpt lat="43.40655503383653" lon="11.45373502749542"><ele>414.0</ele><time>2026-03-29T08:31:13Z</time></trkpt><trkpt lat="43.40655144992058" lon="11.453606225785393"><ele>412.0</ele><time>2026-03-29T08:31:14Z</time></trkpt><trkpt lat="43.406488853428755" lon="11.4534880709182"><ele>412.0</ele><time>2026-03-29T08:31:15Z</time></trkpt><trkpt lat="43.406473249497346" lon="11.453345206043963"><ele>412.0</ele><time>2026-03-29T08:31:16Z</time></trkpt><trkpt lat="43.4064575622335" lon="11.453218962429984"><ele>412.0</ele><time>2026-03-29T08:31:17Z</time></trkpt><trkpt lat="43.406448723272966" lon="11.453076863539494"><ele>412.0</ele><time>2026-03-29T08:31:18Z</time></trkpt><trkpt lat="43.40646784993314" lon="11.452924266723477"><ele>412.0</ele><time>2026-03-29T08:31:19Z</time></trkpt><trkpt lat="43.40650251009744" lon="11.452754459226448"><ele>411.25</ele><time>2026-03-29T08:31:20Z</time></trkpt><trkpt lat="43.406522653790894" lon="11.452551139769913"><ele>410.5</ele><time>2026-03-29T08:31:21Z</time></trkpt><trkpt lat="43.40652780511064" lon="11.452359052600515"><ele>409.75</ele><time>2026-03-29T08:31:22Z</time></trkpt><trkpt lat="43.40650878625288" lon="11.4521842568246"><ele>409.0</ele><time>2026-03-29T08:31:23Z</time></trkpt><trkpt lat="43.40650895898864" lon="11.452026372153446"><ele>409.5</ele><time>2026-03-29T08:31:24Z</time></trkpt><trkpt lat="43.40647828084286" lon="11.45188095627833"><ele>410.0</ele><time>2026-03-29T08:31:25Z</time></trkpt><trkpt lat="43.40641864889974" lon="11.451739877057166"><ele>410.5</ele><time>2026-03-29T08:31:26Z</time></trkpt><trkpt lat="43.40635004809831" lon="11.451584900034732"><ele>411.0</ele><time>2026-03-29T08:31:27Z</time></trkpt><trkpt lat="43.40627674906754" lon="11.451432829827107"><ele>411.0</ele><time>2026-03-29T08:31:28Z</time></trkpt><trkpt lat="43.406208049575795" lon="11.451312605660394"><ele>411.0</ele><time>2026-03-29T08:31:29Z</time></trkpt><trkpt lat="43.40612574124106" lon="11.451207790020439"><ele>411.0</ele><time>2026-03-29T08:31:30Z</time></trkpt><trkpt lat="43.40605550234923" lon="11.451072420744742"><ele>411.0</ele><time>2026-03-29T08:31:31Z</time></trkpt><trkpt lat="43.40599273088305" lon="11.45093216287352"><ele>411.0</ele><time>2026-03-29T08:31:31.999Z</time></trkpt><trkpt lat="43.40596642465965" lon="11.450811736121048"><ele>411.0</ele><time>2026-03-29T08:31:32.999Z</time></trkpt><trkpt lat="43.40593939172723" lon="11.450712533174105"><ele>411.0</ele><time>2026-03-29T08:31:33.999Z</time></trkpt><trkpt lat="43.4059084948659" lon="11.450539700891161"><ele>411.0</ele><time>2026-03-29T08:31:34.999Z</time></trkpt><trkpt lat="43.40588014772188" lon="11.450412822633611"><ele>411.0</ele><time>2026-03-29T08:31:35.999Z</time></trkpt><trkpt lat="43.40583366753917" lon="11.450278276928746"><ele>410.4</ele><time>2026-03-29T08:31:36.999Z</time></trkpt><trkpt lat="43.40578081548639" lon="11.450150894440574"><ele>409.8</ele><time>2026-03-29T08:31:37.999Z</time></trkpt><trkpt lat="43.40572227323921" lon="11.450011949508651"><ele>409.2</ele><time>2026-03-29T08:31:38.999Z</time></trkpt><trkpt lat="43.405663230454685" lon="11.449874528744658"><ele>408.59999999999997</ele><time>2026-03-29T08:31:39.999Z</time></trkpt><trkpt lat="43.40560416712333" lon="11.449747732270952"><ele>408.0</ele><time>2026-03-29T08:31:40.999Z</time></trkpt><trkpt lat="43.40554464449399" lon="11.449640917084"><ele>406.59999999999997</ele><time>2026-03-29T08:31:41.999Z</time></trkpt><trkpt lat="43.405473344097636" lon="11.449563314205905"><ele>405.2</ele><time>2026-03-29T08:31:42.999Z</time></trkpt><trkpt lat="43.4054076611944" lon="11.449441769917787"><ele>403.8</ele><time>2026-03-29T08:31:43.999Z</time></trkpt><trkpt lat="43.40533383813658" lon="11.449328754651924"><ele>402.4</ele><time>2026-03-29T08:31:44.999Z</time></trkpt><trkpt lat="43.40526981590666" lon="11.44922889088833"><ele>401.0</ele><time>2026-03-29T08:31:45.999Z</time></trkpt><trkpt lat="43.40521199124712" lon="11.449139086808058"><ele>400.99999999999994</ele><time>2026-03-29T08:31:46.999Z</time></trkpt><trkpt lat="43.405174839115084" lon="11.449037794909668"><ele>401.0</ele><time>2026-03-29T08:31:47.999Z</time></trkpt><trkpt lat="43.40513396070445" lon="11.448949074085338"><ele>401.0</ele><time>2026-03-29T08:31:48.999Z</time></trkpt><trkpt lat="43.40510603876171" lon="11.448864213962125"><ele>401.0</ele><time>2026-03-29T08:31:49.999Z</time></trkpt><trkpt lat="43.40508283784281" lon="11.448780524969562"><ele>400.99999999999994</ele><time>2026-03-29T08:31:50.999Z</time></trkpt><trkpt lat="43.40498307650406" lon="11.448645338774627"><ele>401.0</ele><time>2026-03-29T08:31:52.999Z</time></trkpt><trkpt lat="43.40487918067758" lon="11.44855230522518"><ele>400.66666666666663</ele><time>2026-03-29T08:31:54.999Z</time></trkpt><trkpt lat="43.4047995910941" lon="11.448499017585318"><ele>400.3333333333333</ele><time>2026-03-29T08:31:55.999Z</time></trkpt><trkpt lat="43.40473042623711" lon="11.448433545215929"><ele>400.0</ele><time>2026-03-29T08:31:57.999Z</time></trkpt><trkpt lat="43.40467136816478" lon="11.4483920121433"><ele>399.66666666666663</ele><time>2026-03-29T08:32:01.999Z</time></trkpt><trkpt lat="43.40457358618634" lon="11.448311723504537"><ele>399.3333333333333</ele><time>2026-03-29T08:32:44Z</time></trkpt><trkpt lat="43.40450649090885" lon="11.448261604658713"><ele>399.0</ele><time>2026-03-29T08:32:45Z</time></trkpt><trkpt lat="43.40442019680673" lon="11.448198950478808"><ele>398.75</ele><time>2026-03-29T08:32:46Z</time></trkpt><trkpt lat="43.404330120214084" lon="11.448130025166972"><ele>398.5</ele><time>2026-03-29T08:32:47Z</time></trkpt><trkpt lat="43.40422236395131" lon="11.448059850957174"><ele>398.25</ele><time>2026-03-29T08:32:48Z</time></trkpt><trkpt lat="43.404119905605384" lon="11.44796503441595"><ele>398.0</ele><time>2026-03-29T08:32:49Z</time></trkpt><trkpt lat="43.403996485928076" lon="11.447909883628531"><ele>398.25</ele><time>2026-03-29T08:32:50Z</time></trkpt><trkpt lat="43.403865567898585" lon="11.447842987873328"><ele>398.5</ele><time>2026-03-29T08:32:51Z</time></trkpt><trkpt lat="43.40373431516061" lon="11.447778863314035"><ele>398.75</ele><time>2026-03-29T08:32:52Z</time></trkpt><trkpt lat="43.403610569537015" lon="11.447712148881537"><ele>399.0</ele><time>2026-03-29T08:32:53Z</time></trkpt><trkpt lat="43.40350212425104" lon="11.447664589085418"><ele>399.0</ele><time>2026-03-29T08:32:54Z</time></trkpt><trkpt lat="43.40338584158802" lon="11.44763096561753"><ele>399.0</ele><time>2026-03-29T08:32:55Z</time></trkpt><trkpt lat="43.40327857040676" lon="11.447582621654636"><ele>399.0</ele><time>2026-03-29T08:32:56Z</time></trkpt><trkpt lat="43.403175538531485" lon="11.447507882877622"><ele>399.0</ele><time>2026-03-29T08:32:57Z</time></trkpt><trkpt lat="43.40306645560602" lon="11.447442932053836"><ele>397.0</ele><time>2026-03-29T08:32:58Z</time></trkpt><trkpt lat="43.40294975142112" lon="11.44738752974505"><ele>395.0</ele><time>2026-03-29T08:32:59Z</time></trkpt><trkpt lat="43.402848111461694" lon="11.447330017053329"><ele>393.0</ele><time>2026-03-29T08:33:00Z</time></trkpt><trkpt lat="43.40274681601556" lon="11.447261052139822"><ele>391.0</ele><time>2026-03-29T08:33:01Z</time></trkpt><trkpt lat="43.402635903411266" lon="11.447195650729494"><ele>393.0</ele><time>2026-03-29T08:33:02Z</time></trkpt><trkpt lat="43.40250301832617" lon="11.447111309164908"><ele>395.0</ele><time>2026-03-29T08:33:03Z</time></trkpt><trkpt lat="43.402392802118335" lon="11.447047720358553"><ele>397.0</ele><time>2026-03-29T08:33:04Z</time></trkpt><trkpt lat="43.40227885358374" lon="11.446979316248923"><ele>399.0</ele><time>2026-03-29T08:33:05Z</time></trkpt><trkpt lat="43.40217952665247" lon="11.44691132339492"><ele>396.25</ele><time>2026-03-29T08:33:06Z</time></trkpt><trkpt lat="43.40208890166444" lon="11.446846782707173"><ele>393.5</ele><time>2026-03-29T08:33:07Z</time></trkpt><trkpt lat="43.401988570705896" lon="11.446765609868562"><ele>390.75</ele><time>2026-03-29T08:33:08Z</time></trkpt><trkpt lat="43.40188020018899" lon="11.446662508590896"><ele>388.0</ele><time>2026-03-29T08:33:09Z</time></trkpt><trkpt lat="43.40178394532048" lon="11.446523698649099"><ele>388.0</ele><time>2026-03-29T08:33:10Z</time></trkpt><trkpt lat="43.40168640670476" lon="11.446410570938221"><ele>388.0</ele><time>2026-03-29T08:33:11Z</time></trkpt><trkpt lat="43.40159246169542" lon="11.446313143860694"><ele>388.0</ele><time>2026-03-29T08:33:12Z</time></trkpt><trkpt lat="43.40149506738205" lon="11.446200333577197"><ele>388.0</ele><time>2026-03-29T08:33:13Z</time></trkpt><trkpt lat="43.401404708183904" lon="11.446051184475547"><ele>386.75</ele><time>2026-03-29T08:33:14Z</time></trkpt><trkpt lat="43.40130678100949" lon="11.445924865776874"><ele>385.5</ele><time>2026-03-29T08:33:15Z</time></trkpt><trkpt lat="43.401230718897835" lon="11.44576392266551"><ele>384.25</ele><time>2026-03-29T08:33:16Z</time></trkpt><trkpt lat="43.4011414676833" lon="11.445613568674666"><ele>383.0</ele><time>2026-03-29T08:33:17Z</time></trkpt><trkpt lat="43.40104488015491" lon="11.445455310881691"><ele>382.75</ele><time>2026-03-29T08:33:18Z</time></trkpt><trkpt lat="43.400947366683205" lon="11.445302280462947"><ele>382.5</ele><time>2026-03-29T08:33:19Z</time></trkpt><trkpt lat="43.400841892807804" lon="11.445184528586097"><ele>382.25</ele><time>2026-03-29T08:33:20Z</time></trkpt><trkpt lat="43.40074296331886" lon="11.445048112802757"><ele>382.0</ele><time>2026-03-29T08:33:21Z</time></trkpt><trkpt lat="43.4006305568302" lon="11.444901752286468"><ele>382.0</ele><time>2026-03-29T08:33:22Z</time></trkpt><trkpt lat="43.40053066426975" lon="11.444744539547735"><ele>382.0</ele><time>2026-03-29T08:33:23Z</time></trkpt><trkpt lat="43.40042968418121" lon="11.444610190735874"><ele>382.0</ele><time>2026-03-29T08:33:24Z</time></trkpt><trkpt lat="43.40032641244218" lon="11.444471854933205"><ele>382.0</ele><time>2026-03-29T08:33:25Z</time></trkpt><trkpt lat="43.40022020616529" lon="11.444329588261581"><ele>380.75</ele><time>2026-03-29T08:33:26Z</time></trkpt><trkpt lat="43.40010265222649" lon="11.444173114839444"><ele>379.5</ele><time>2026-03-29T08:33:27Z</time></trkpt><trkpt lat="43.39999282504584" lon="11.444028240058724"><ele>378.25</ele><time>2026-03-29T08:33:28Z</time></trkpt><trkpt lat="43.399899769573565" lon="11.443907118370218"><ele>377.0</ele><time>2026-03-29T08:33:29Z</time></trkpt><trkpt lat="43.399816673567074" lon="11.443805641193999"><ele>376.75</ele><time>2026-03-29T08:33:30Z</time></trkpt><trkpt lat="43.399728368331694" lon="11.443725968367266"><ele>376.5</ele><time>2026-03-29T08:33:31Z</time></trkpt><trkpt lat="43.399608209753" lon="11.443680045751975"><ele>376.25</ele><time>2026-03-29T08:33:32Z</time></trkpt><trkpt lat="43.39949703087937" lon="11.443612985733944"><ele>376.0</ele><time>2026-03-29T08:33:33Z</time></trkpt><trkpt lat="43.39938077406703" lon="11.443585161359199"><ele>376.0</ele><time>2026-03-29T08:33:34Z</time></trkpt><trkpt lat="43.399274874131116" lon="11.443528467533087"><ele>376.0</ele><time>2026-03-29T08:33:35Z</time></trkpt><trkpt lat="43.39916530848329" lon="11.443484606422397"><ele>376.0</ele><time>2026-03-29T08:33:36Z</time></trkpt><trkpt lat="43.39905036290536" lon="11.443447189540471"><ele>376.0</ele><time>2026-03-29T08:33:37Z</time></trkpt><trkpt lat="43.39893233573875" lon="11.443433264280108"><ele>376.0</ele><time>2026-03-29T08:33:38Z</time></trkpt><trkpt lat="43.39881078832035" lon="11.443442092881542"><ele>376.0</ele><time>2026-03-29T08:33:39Z</time></trkpt><trkpt lat="43.39868989676116" lon="11.443471518511462"><ele>376.0</ele><time>2026-03-29T08:33:40Z</time></trkpt><trkpt lat="43.3985815535364" lon="11.44350262749165"><ele>376.0</ele><time>2026-03-29T08:33:41Z</time></trkpt><trkpt lat="43.39846118511803" lon="11.443524660553548"><ele>376.0</ele><time>2026-03-29T08:33:42Z</time></trkpt><trkpt lat="43.39834623813703" lon="11.44354829384568"><ele>376.0</ele><time>2026-03-29T08:33:42.999Z</time></trkpt><trkpt lat="43.39822368349019" lon="11.443573400228018"><ele>376.0</ele><time>2026-03-29T08:33:43.999Z</time></trkpt><trkpt lat="43.39810140533506" lon="11.443600364693069"><ele>376.0</ele><time>2026-03-29T08:33:44.999Z</time></trkpt><trkpt lat="43.39798070553922" lon="11.443622675410163"><ele>375.4</ele><time>2026-03-29T08:33:45.999Z</time></trkpt><trkpt lat="43.39787392825174" lon="11.443641347366544"><ele>374.8</ele><time>2026-03-29T08:33:46.999Z</time></trkpt><trkpt lat="43.39777790812717" lon="11.443630733770382"><ele>374.2</ele><time>2026-03-29T08:33:47.999Z</time></trkpt><trkpt lat="43.39768010370387" lon="11.443552406754552"><ele>373.59999999999997</ele><time>2026-03-29T08:33:48.999Z</time></trkpt><trkpt lat="43.397560042428665" lon="11.443517638327103"><ele>373.0</ele><time>2026-03-29T08:33:49.999Z</time></trkpt><trkpt lat="43.397432590946046" lon="11.44346340592551"><ele>373.0</ele><time>2026-03-29T08:33:50.999Z</time></trkpt><trkpt lat="43.397300988164815" lon="11.443415364717934"><ele>373.0</ele><time>2026-03-29T08:33:51.999Z</time></trkpt><trkpt lat="43.39717732832608" lon="11.443372336415473"><ele>373.0</ele><time>2026-03-29T08:33:52.999Z</time></trkpt><trkpt lat="43.39705386500088" lon="11.44332998455918"><ele>373.0</ele><time>2026-03-29T08:33:53.999Z</time></trkpt><trkpt lat="43.396925910670284" lon="11.443282334482753"><ele>372.5</ele><time>2026-03-29T08:33:54.999Z</time></trkpt><trkpt lat="43.396784925094344" lon="11.443225159379976"><ele>372.0</ele><time>2026-03-29T08:33:55.999Z</time></trkpt><trkpt lat="43.396645815498296" lon="11.44316842915362"><ele>371.5</ele><time>2026-03-29T08:33:56.999Z</time></trkpt><trkpt lat="43.39651076997877" lon="11.44311539701917"><ele>371.0</ele><time>2026-03-29T08:33:57.999Z</time></trkpt><trkpt lat="43.39637273595415" lon="11.443058286284842"><ele>369.6666666666667</ele><time>2026-03-29T08:33:58.999Z</time></trkpt><trkpt lat="43.39622836054246" lon="11.443000303882776"><ele>368.3333333333333</ele><time>2026-03-29T08:33:59.999Z</time></trkpt><trkpt lat="43.396079089283646" lon="11.44293823547476"><ele>367.0</ele><time>2026-03-29T08:34:00.999Z</time></trkpt><trkpt lat="43.39593822981826" lon="11.4428779946771"><ele>367.0</ele><time>2026-03-29T08:34:01.999Z</time></trkpt><trkpt lat="43.39579879933551" lon="11.44282325268187"><ele>367.0</ele><time>2026-03-29T08:34:02.999Z</time></trkpt><trkpt lat="43.395649261764326" lon="11.442769543190229"><ele>367.0</ele><time>2026-03-29T08:34:03.999Z</time></trkpt><trkpt lat="43.395491797650166" lon="11.442714515147175"><ele>367.3333333333333</ele><time>2026-03-29T08:34:04.999Z</time></trkpt><trkpt lat="43.39532152600481" lon="11.442673943472656"><ele>367.6666666666667</ele><time>2026-03-29T08:34:05.999Z</time></trkpt><trkpt lat="43.395146956499296" lon="11.442660180455269"><ele>368.0</ele><time>2026-03-29T08:34:06.999Z</time></trkpt><trkpt lat="43.394992586424586" lon="11.442667840802883"><ele>368.0</ele><time>2026-03-29T08:34:07.999Z</time></trkpt><trkpt lat="43.3948468092078" lon="11.442690909676688"><ele>368.0</ele><time>2026-03-29T08:34:08.999Z</time></trkpt><trkpt lat="43.39469872009578" lon="11.442705795457728"><ele>368.0</ele><time>2026-03-29T08:34:09.999Z</time></trkpt><trkpt lat="43.39454960629638" lon="11.442706099914869"><ele>368.0</ele><time>2026-03-29T08:34:10.999Z</time></trkpt><trkpt lat="43.394399796155824" lon="11.442696037358125"><ele>368.0</ele><time>2026-03-29T08:34:11.999Z</time></trkpt><trkpt lat="43.394257587666864" lon="11.442656910056769"><ele>368.0</ele><time>2026-03-29T08:34:12.999Z</time></trkpt><trkpt lat="43.39412709511839" lon="11.442657175319066"><ele>368.0</ele><time>2026-03-29T08:34:13.999Z</time></trkpt><trkpt lat="43.39400556546257" lon="11.442632775308077"><ele>368.0</ele><time>2026-03-29T08:34:14.999Z</time></trkpt><trkpt lat="43.393885328938126" lon="11.44261134986723"><ele>368.0</ele><time>2026-03-29T08:34:15.999Z</time></trkpt><trkpt lat="43.39376403237316" lon="11.442591760853276"><ele>368.0</ele><time>2026-03-29T08:34:16.999Z</time></trkpt><trkpt lat="43.393634879219576" lon="11.442549169241971"><ele>368.0</ele><time>2026-03-29T08:34:17.999Z</time></trkpt><trkpt lat="43.393496715038935" lon="11.442497480997764"><ele>368.0</ele><time>2026-03-29T08:34:18.999Z</time></trkpt><trkpt lat="43.393349059810205" lon="11.442423989354078"><ele>368.0</ele><time>2026-03-29T08:34:19.999Z</time></trkpt><trkpt lat="43.3931862908119" lon="11.442368102110981"><ele>368.0</ele><time>2026-03-29T08:34:20.999Z</time></trkpt><trkpt lat="43.393030141437535" lon="11.44230759788892"><ele>368.0</ele><time>2026-03-29T08:34:21.999Z</time></trkpt><trkpt lat="43.39288169957434" lon="11.44228074546483"><ele>368.33333333333337</ele><time>2026-03-29T08:34:22.999Z</time></trkpt><trkpt lat="43.39273988209571" lon="11.442292175266262"><ele>368.6666666666667</ele><time>2026-03-29T08:34:23.999Z</time></trkpt><trkpt lat="43.392590338726684" lon="11.442330089975297"><ele>369.0</ele><time>2026-03-29T08:34:24.999Z</time></trkpt><trkpt lat="43.3924337274878" lon="11.442381951068313"><ele>369.0</ele><time>2026-03-29T08:34:25.999Z</time></trkpt><trkpt lat="43.39226980453565" lon="11.442460781155159"><ele>369.0</ele><time>2026-03-29T08:34:26.999Z</time></trkpt><trkpt lat="43.39210300877913" lon="11.44256484281052"><ele>369.0</ele><time>2026-03-29T08:34:27.999Z</time></trkpt><trkpt lat="43.391943909569946" lon="11.442673689322179"><ele>368.25</ele><time>2026-03-29T08:34:28.999Z</time></trkpt><trkpt lat="43.39181090653932" lon="11.44277787275206"><ele>367.5</ele><time>2026-03-29T08:34:29.999Z</time></trkpt><trkpt lat="43.39168674729739" lon="11.442845371462205"><ele>366.75</ele><time>2026-03-29T08:34:30.999Z</time></trkpt><trkpt lat="43.39155248972273" lon="11.442836163272718"><ele>366.0</ele><time>2026-03-29T08:34:31.999Z</time></trkpt><trkpt lat="43.39141840895356" lon="11.442830977400552"><ele>366.6666666666667</ele><time>2026-03-29T08:34:32.999Z</time></trkpt><trkpt lat="43.391274048182176" lon="11.442855345198154"><ele>367.33333333333337</ele><time>2026-03-29T08:34:33.999Z</time></trkpt><trkpt lat="43.3911215419716" lon="11.442859643034677"><ele>368.0</ele><time>2026-03-29T08:34:35Z</time></trkpt><trkpt lat="43.390969160605444" lon="11.442891888431403"><ele>368.0</ele><time>2026-03-29T08:34:36Z</time></trkpt><trkpt lat="43.3908101557226" lon="11.442929699723699"><ele>368.0</ele><time>2026-03-29T08:34:37Z</time></trkpt><trkpt lat="43.390650394529416" lon="11.44293537380359"><ele>368.0</ele><time>2026-03-29T08:34:38Z</time></trkpt><trkpt lat="43.39050996655972" lon="11.442939261472"><ele>367.25</ele><time>2026-03-29T08:34:39Z</time></trkpt><trkpt lat="43.39037147289199" lon="11.442924099533023"><ele>366.5</ele><time>2026-03-29T08:34:40Z</time></trkpt><trkpt lat="43.39024108537725" lon="11.44290660196355"><ele>365.75</ele><time>2026-03-29T08:34:41Z</time></trkpt><trkpt lat="43.390119660196575" lon="11.44288831537265"><ele>365.0</ele><time>2026-03-29T08:34:42Z</time></trkpt><trkpt lat="43.390001817045544" lon="11.442868515413643"><ele>365.0</ele><time>2026-03-29T08:34:43Z</time></trkpt><trkpt lat="43.38989397182371" lon="11.442845528785968"><ele>365.0</ele><time>2026-03-29T08:34:44Z</time></trkpt><trkpt lat="43.38980389071421" lon="11.442771125239673"><ele>365.0</ele><time>2026-03-29T08:34:45Z</time></trkpt><trkpt lat="43.389762227963615" lon="11.442624954643923"><ele>365.0</ele><time>2026-03-29T08:34:46Z</time></trkpt><trkpt lat="43.389709869180855" lon="11.442501502987117"><ele>365.0</ele><time>2026-03-29T08:34:47Z</time></trkpt><trkpt lat="43.38965122728301" lon="11.442363159790123"><ele>363.0</ele><time>2026-03-29T08:34:48Z</time></trkpt><trkpt lat="43.38957773800981" lon="11.442226184843365"><ele>361.0</ele><time>2026-03-29T08:34:49Z</time></trkpt><trkpt lat="43.389491148241454" lon="11.442077142939102"><ele>359.0</ele><time>2026-03-29T08:34:50Z</time></trkpt><trkpt lat="43.38938539594556" lon="11.44192296315631"><ele>357.0</ele><time>2026-03-29T08:34:51Z</time></trkpt><trkpt lat="43.38928213812346" lon="11.441750526641885"><ele>357.0</ele><time>2026-03-29T08:34:52Z</time></trkpt><trkpt lat="43.38919242107863" lon="11.441606886103209"><ele>357.0</ele><time>2026-03-29T08:34:53Z</time></trkpt><trkpt lat="43.389105243134665" lon="11.441469320343879"><ele>357.0</ele><time>2026-03-29T08:34:54Z</time></trkpt><trkpt lat="43.38901651726894" lon="11.441341280898978"><ele>357.0</ele><time>2026-03-29T08:34:55Z</time></trkpt><trkpt lat="43.38893359140548" lon="11.441216881434359"><ele>356.25</ele><time>2026-03-29T08:34:56Z</time></trkpt><trkpt lat="43.38884695883904" lon="11.441097225118558"><ele>355.5</ele><time>2026-03-29T08:34:57Z</time></trkpt><trkpt lat="43.388754501945385" lon="11.440973468424371"><ele>354.75</ele><time>2026-03-29T08:34:58Z</time></trkpt><trkpt lat="43.388646917722916" lon="11.440840496172868"><ele>354.0</ele><time>2026-03-29T08:34:59Z</time></trkpt><trkpt lat="43.3885253684155" lon="11.440716331805794"><ele>354.0</ele><time>2026-03-29T08:35:00Z</time></trkpt><trkpt lat="43.388424415190904" lon="11.44057919630474"><ele>354.0</ele><time>2026-03-29T08:35:01Z</time></trkpt><trkpt lat="43.38832877078486" lon="11.440457506186602"><ele>354.0</ele><time>2026-03-29T08:35:02Z</time></trkpt><trkpt lat="43.388238961574075" lon="11.440334987710704"><ele>354.0</ele><time>2026-03-29T08:35:03Z</time></trkpt><trkpt lat="43.388145787648" lon="11.440195332650923"><ele>352.0</ele><time>2026-03-29T08:35:04Z</time></trkpt><trkpt lat="43.38803942670642" lon="11.440060936382087"><ele>350.0</ele><time>2026-03-29T08:35:05Z</time></trkpt><trkpt lat="43.38794475372333" lon="11.439906329214685"><ele>348.0</ele><time>2026-03-29T08:35:06Z</time></trkpt><trkpt lat="43.38785659631984" lon="11.439751994029388"><ele>346.0</ele><time>2026-03-29T08:35:07Z</time></trkpt><trkpt lat="43.38777342713406" lon="11.439591449247716"><ele>344.66666666666663</ele><time>2026-03-29T08:35:08Z</time></trkpt><trkpt lat="43.38767837015892" lon="11.439420859364851"><ele>343.3333333333333</ele><time>2026-03-29T08:35:09Z</time></trkpt><trkpt lat="43.387574828397824" lon="11.439245441191591"><ele>342.0</ele><time>2026-03-29T08:35:10Z</time></trkpt><trkpt lat="43.38748042850933" lon="11.439082702211277"><ele>342.0</ele><time>2026-03-29T08:35:11Z</time></trkpt><trkpt lat="43.38738731604112" lon="11.43893345624919"><ele>342.0</ele><time>2026-03-29T08:35:12Z</time></trkpt><trkpt lat="43.38731095337233" lon="11.43878020057278"><ele>342.0</ele><time>2026-03-29T08:35:13Z</time></trkpt><trkpt lat="43.387213421292955" lon="11.43863975992753"><ele>342.0</ele><time>2026-03-29T08:35:14Z</time></trkpt><trkpt lat="43.38714740184309" lon="11.438460038549026"><ele>342.3333333333333</ele><time>2026-03-29T08:35:15Z</time></trkpt><trkpt lat="43.38708342748907" lon="11.438272129791226"><ele>342.66666666666663</ele><time>2026-03-29T08:35:16Z</time></trkpt><trkpt lat="43.387035008773076" lon="11.43806711824821"><ele>343.0</ele><time>2026-03-29T08:35:17Z</time></trkpt><trkpt lat="43.38698360433784" lon="11.437840538397069"><ele>343.25</ele><time>2026-03-29T08:35:18Z</time></trkpt><trkpt lat="43.38693359830419" lon="11.437627447426015"><ele>343.5</ele><time>2026-03-29T08:35:19Z</time></trkpt><trkpt lat="43.38688424075154" lon="11.437445424110642"><ele>343.75</ele><time>2026-03-29T08:35:20Z</time></trkpt><trkpt lat="43.38681970499731" lon="11.437296065200835"><ele>344.0</ele><time>2026-03-29T08:35:21Z</time></trkpt><trkpt lat="43.386774287895946" lon="11.437146864896897"><ele>342.0</ele><time>2026-03-29T08:35:22Z</time></trkpt><trkpt lat="43.386704451437346" lon="11.437009241861627"><ele>340.0</ele><time>2026-03-29T08:35:23Z</time></trkpt><trkpt lat="43.38660769964534" lon="11.43687826643607"><ele>338.0</ele><time>2026-03-29T08:35:24Z</time></trkpt><trkpt lat="43.38648770948582" lon="11.43673546610315"><ele>336.0</ele><time>2026-03-29T08:35:25Z</time></trkpt><trkpt lat="43.38636247154232" lon="11.43660495289194"><ele>336.0</ele><time>2026-03-29T08:35:26Z</time></trkpt><trkpt lat="43.38624304700204" lon="11.436472621782869"><ele>336.0</ele><time>2026-03-29T08:35:27Z</time></trkpt><trkpt lat="43.38612124396604" lon="11.436322407949557"><ele>336.0</ele><time>2026-03-29T08:35:28Z</time></trkpt><trkpt lat="43.386009908101755" lon="11.436176317838555"><ele>336.0</ele><time>2026-03-29T08:35:29Z</time></trkpt><trkpt lat="43.38592871446706" lon="11.436051160345464"><ele>336.0</ele><time>2026-03-29T08:35:30Z</time></trkpt><trkpt lat="43.38584322031749" lon="11.435962481537537"><ele>336.0</ele><time>2026-03-29T08:35:31Z</time></trkpt><trkpt lat="43.38576427994557" lon="11.435870402615667"><ele>336.0</ele><time>2026-03-29T08:35:32Z</time></trkpt><trkpt lat="43.38567179156401" lon="11.435789821583144"><ele>336.0</ele><time>2026-03-29T08:35:33Z</time></trkpt><trkpt lat="43.38556335032793" lon="11.435727069550884"><ele>334.75</ele><time>2026-03-29T08:35:34Z</time></trkpt><trkpt lat="43.3854629588314" lon="11.435650483920915"><ele>333.5</ele><time>2026-03-29T08:35:35Z</time></trkpt><trkpt lat="43.385364380508804" lon="11.435559475103993"><ele>332.25</ele><time>2026-03-29T08:35:36Z</time></trkpt><trkpt lat="43.38525696989835" lon="11.435478583126722"><ele>331.0</ele><time>2026-03-29T08:35:37Z</time></trkpt><trkpt lat="43.38514689625807" lon="11.435387468663931"><ele>330.5</ele><time>2026-03-29T08:35:38Z</time></trkpt><trkpt lat="43.38503063239738" lon="11.435294155542843"><ele>330.0</ele><time>2026-03-29T08:35:39Z</time></trkpt><trkpt lat="43.384904546447395" lon="11.43522025928754"><ele>329.5</ele><time>2026-03-29T08:35:40Z</time></trkpt><trkpt lat="43.38478056301541" lon="11.435175043595274"><ele>329.0</ele><time>2026-03-29T08:35:41Z</time></trkpt><trkpt lat="43.3846610682162" lon="11.43514995311466"><ele>328.0</ele><time>2026-03-29T08:35:42Z</time></trkpt><trkpt lat="43.38454258324327" lon="11.435130200970583"><ele>327.0</ele><time>2026-03-29T08:35:43Z</time></trkpt><trkpt lat="43.38441680982673" lon="11.435103372395348"><ele>326.0</ele><time>2026-03-29T08:35:44Z</time></trkpt><trkpt lat="43.38428214626695" lon="11.435069254506994"><ele>325.0</ele><time>2026-03-29T08:35:45Z</time></trkpt><trkpt lat="43.38414924565501" lon="11.435032326189738"><ele>325.0</ele><time>2026-03-29T08:35:46Z</time></trkpt><trkpt lat="43.38402591417801" lon="11.435003478738873"><ele>325.0</ele><time>2026-03-29T08:35:47Z</time></trkpt><trkpt lat="43.38390606448981" lon="11.434974698433843"><ele>325.0</ele><time>2026-03-29T08:35:48Z</time></trkpt><trkpt lat="43.38377332438985" lon="11.434936211628207"><ele>325.0</ele><time>2026-03-29T08:35:49Z</time></trkpt><trkpt lat="43.38364316489544" lon="11.434888948987961"><ele>324.8</ele><time>2026-03-29T08:35:50Z</time></trkpt><trkpt lat="43.383533341042266" lon="11.434833567553934"><ele>324.6</ele><time>2026-03-29T08:35:51Z</time></trkpt><trkpt lat="43.383432080424576" lon="11.434776315526742"><ele>324.4</ele><time>2026-03-29T08:35:52Z</time></trkpt><trkpt lat="43.383347190506456" lon="11.434689130681909"><ele>324.2</ele><time>2026-03-29T08:35:53Z</time></trkpt><trkpt lat="43.38325051533203" lon="11.434609192581455"><ele>324.0</ele><time>2026-03-29T08:35:54Z</time></trkpt><trkpt lat="43.383149215127844" lon="11.43451255232344"><ele>324.6</ele><time>2026-03-29T08:35:54.999Z</time></trkpt><trkpt lat="43.38305891452426" lon="11.434423656448601"><ele>325.2</ele><time>2026-03-29T08:35:55.999Z</time></trkpt><trkpt lat="43.38296963792359" lon="11.434349409436203"><ele>325.8</ele><time>2026-03-29T08:35:56.999Z</time></trkpt><trkpt lat="43.38288343794705" lon="11.434268017964987"><ele>326.40000000000003</ele><time>2026-03-29T08:35:57.999Z</time></trkpt><trkpt lat="43.38278486717614" lon="11.43420158545046"><ele>327.0</ele><time>2026-03-29T08:35:58.999Z</time></trkpt><trkpt lat="43.38268295025988" lon="11.43414456535233"><ele>327.0</ele><time>2026-03-29T08:35:59.999Z</time></trkpt><trkpt lat="43.38258205073756" lon="11.43410561937844"><ele>327.0</ele><time>2026-03-29T08:36:00.999Z</time></trkpt><trkpt lat="43.38250760387808" lon="11.434076686898576"><ele>327.0</ele><time>2026-03-29T08:36:01.999Z</time></trkpt><trkpt lat="43.382417976826034" lon="11.434056436171009"><ele>327.0</ele><time>2026-03-29T08:36:03.999Z</time></trkpt><trkpt lat="43.38234134521563" lon="11.434042067803373"><ele>327.0</ele><time>2026-03-29T08:36:05.999Z</time></trkpt><trkpt lat="43.382236332783506" lon="11.434024263889658"><ele>326.6666666666667</ele><time>2026-03-29T08:36:07.999Z</time></trkpt><trkpt lat="43.382171774463735" lon="11.434012188589323"><ele>326.3333333333333</ele><time>2026-03-29T08:36:08.999Z</time></trkpt><trkpt lat="43.38208822792295" lon="11.43400094513301"><ele>326.0</ele><time>2026-03-29T08:36:09.999Z</time></trkpt><trkpt lat="43.38200557795813" lon="11.433993655059616"><ele>325.66666666666663</ele><time>2026-03-29T08:36:10.999Z</time></trkpt><trkpt lat="43.38192351176405" lon="11.433993494644858"><ele>325.3333333333333</ele><time>2026-03-29T08:36:11.999Z</time></trkpt><trkpt lat="43.381846616776244" lon="11.433964437034795"><ele>325.0</ele><time>2026-03-29T08:36:12.999Z</time></trkpt><trkpt lat="43.381778986490666" lon="11.43395308941319"><ele>325.0</ele><time>2026-03-29T08:36:13.999Z</time></trkpt><trkpt lat="43.381710198636945" lon="11.433951866948657"><ele>325.0</ele><time>2026-03-29T08:36:14.999Z</time></trkpt><trkpt lat="43.381653220586166" lon="11.433899082631156"><ele>325.0</ele><time>2026-03-29T08:36:15.999Z</time></trkpt><trkpt lat="43.381583006217795" lon="11.433854813763048"><ele>325.0</ele><time>2026-03-29T08:36:16.999Z</time></trkpt><trkpt lat="43.381491247861696" lon="11.433814502311433"><ele>325.0</ele><time>2026-03-29T08:36:17.999Z</time></trkpt><trkpt lat="43.38139119600347" lon="11.433746432309876"><ele>325.0</ele><time>2026-03-29T08:36:18.999Z</time></trkpt><trkpt lat="43.3812919669885" lon="11.433685757439195"><ele>323.4</ele><time>2026-03-29T08:36:19.999Z</time></trkpt><trkpt lat="43.38119831715579" lon="11.433617834579634"><ele>321.8</ele><time>2026-03-29T08:36:20.999Z</time></trkpt><trkpt lat="43.3811053475685" lon="11.433547399114996"><ele>320.2</ele><time>2026-03-29T08:36:21.999Z</time></trkpt><trkpt lat="43.38101676004041" lon="11.433463292531119"><ele>318.6</ele><time>2026-03-29T08:36:22.999Z</time></trkpt><trkpt lat="43.3809277832497" lon="11.433360159409734"><ele>317.0</ele><time>2026-03-29T08:36:23.999Z</time></trkpt><trkpt lat="43.380843962534954" lon="11.433239285276048"><ele>317.0</ele><time>2026-03-29T08:36:24.999Z</time></trkpt><trkpt lat="43.38077774867465" lon="11.433115660532456"><ele>317.0</ele><time>2026-03-29T08:36:25.999Z</time></trkpt><trkpt lat="43.38073232073273" lon="11.433002859725754"><ele>317.0</ele><time>2026-03-29T08:36:26.999Z</time></trkpt><trkpt lat="43.38068369601037" lon="11.432903262807953"><ele>317.0</ele><time>2026-03-29T08:36:27.999Z</time></trkpt><trkpt lat="43.38061939685418" lon="11.432817301677467"><ele>317.0</ele><time>2026-03-29T08:36:28.999Z</time></trkpt><trkpt lat="43.380538410626755" lon="11.432751330185079"><ele>317.8</ele><time>2026-03-29T08:36:29.999Z</time></trkpt><trkpt lat="43.38045326574329" lon="11.432717254334955"><ele>318.6</ele><time>2026-03-29T08:36:30.999Z</time></trkpt><trkpt lat="43.38038254390669" lon="11.432693857985015"><ele>319.40000000000003</ele><time>2026-03-29T08:36:31.999Z</time></trkpt><trkpt lat="43.38027091214005" lon="11.432654765954604"><ele>320.2</ele><time>2026-03-29T08:36:33.999Z</time></trkpt><trkpt lat="43.380184949546994" lon="11.43263265548812"><ele>321.0</ele><time>2026-03-29T08:36:35.999Z</time></trkpt><trkpt lat="43.38007925420407" lon="11.43260707625312"><ele>321.0</ele><time>2026-03-29T08:36:38.999Z</time></trkpt><trkpt lat="43.38000190325258" lon="11.432605259925198"><ele>321.0</ele><time>2026-03-29T08:36:39.999Z</time></trkpt><trkpt lat="43.3799286069328" lon="11.432598960546043"><ele>321.0</ele><time>2026-03-29T08:36:41Z</time></trkpt><trkpt lat="43.37982293495087" lon="11.432579270107329"><ele>321.0</ele><time>2026-03-29T08:36:42Z</time></trkpt><trkpt lat="43.37972662125818" lon="11.43256520219601"><ele>321.0</ele><time>2026-03-29T08:36:43Z</time></trkpt><trkpt lat="43.3796240430581" lon="11.43252692907317"><ele>320.40000000000003</ele><time>2026-03-29T08:36:44Z</time></trkpt><trkpt lat="43.37951234385631" lon="11.432481164201619"><ele>319.8</ele><time>2026-03-29T08:36:45Z</time></trkpt><trkpt lat="43.37940062015049" lon="11.432428773288708"><ele>319.20000000000005</ele><time>2026-03-29T08:36:46Z</time></trkpt><trkpt lat="43.379309760060636" lon="11.43237753510287"><ele>318.6</ele><time>2026-03-29T08:36:47Z</time></trkpt><trkpt lat="43.3792368845907" lon="11.432344819892057"><ele>318.0</ele><time>2026-03-29T08:36:48Z</time></trkpt><trkpt lat="43.37917480702549" lon="11.432310672546311"><ele>318.0</ele><time>2026-03-29T08:36:49Z</time></trkpt><trkpt lat="43.37907734527395" lon="11.432268293651916"><ele>318.0</ele><time>2026-03-29T08:36:51Z</time></trkpt><trkpt lat="43.37901742396056" lon="11.432240558130278"><ele>318.0</ele><time>2026-03-29T08:36:55Z</time></trkpt><trkpt lat="43.37893165509343" lon="11.432203631932959"><ele>318.0</ele><time>2026-03-29T08:40:38.999Z</time></trkpt><trkpt lat="43.37880272090924" lon="11.432154771540704"><ele>318.0</ele><time>2026-03-29T08:40:40.999Z</time></trkpt><trkpt lat="43.37872829112023" lon="11.432094625054225"><ele>317.8</ele><time>2026-03-29T08:40:41.999Z</time></trkpt><trkpt lat="43.37863838225229" lon="11.432070366712752"><ele>317.6</ele><time>2026-03-29T08:40:42.999Z</time></trkpt><trkpt lat="43.37855270098877" lon="11.43202919364528"><ele>317.4</ele><time>2026-03-29T08:40:43.999Z</time></trkpt><trkpt lat="43.37845866810855" lon="11.431974388728776"><ele>317.2</ele><time>2026-03-29T08:40:44.999Z</time></trkpt><trkpt lat="43.37835498441944" lon="11.431920854381843"><ele>317.0</ele><time>2026-03-29T08:40:45.999Z</time></trkpt><trkpt lat="43.37824610532375" lon="11.431866232127241"><ele>317.0</ele><time>2026-03-29T08:40:46.999Z</time></trkpt><trkpt lat="43.37815062360305" lon="11.431814450047515"><ele>317.0</ele><time>2026-03-29T08:40:47.999Z</time></trkpt><trkpt lat="43.37805592982329" lon="11.431763894415232"><ele>317.0</ele><time>2026-03-29T08:40:48.999Z</time></trkpt><trkpt lat="43.37796771373594" lon="11.431717395962309"><ele>317.0</ele><time>2026-03-29T08:40:49.999Z</time></trkpt><trkpt lat="43.37787755491349" lon="11.431669048973328"><ele>317.0</ele><time>2026-03-29T08:40:50.999Z</time></trkpt><trkpt lat="43.37777954671655" lon="11.431618733443814"><ele>317.5</ele><time>2026-03-29T08:40:51.999Z</time></trkpt><trkpt lat="43.37767254071993" lon="11.431563010910265"><ele>318.0</ele><time>2026-03-29T08:40:53Z</time></trkpt><trkpt lat="43.377553904966256" lon="11.431498720674913"><ele>318.5</ele><time>2026-03-29T08:40:54Z</time></trkpt><trkpt lat="43.37742736431862" lon="11.431447212416513"><ele>319.0</ele><time>2026-03-29T08:40:55Z</time></trkpt><trkpt lat="43.377310255030395" lon="11.431408315694059"><ele>319.0</ele><time>2026-03-29T08:40:56Z</time></trkpt><trkpt lat="43.3771870681651" lon="11.431379719653908"><ele>319.0</ele><time>2026-03-29T08:40:57Z</time></trkpt><trkpt lat="43.37704365717011" lon="11.431354623996686"><ele>319.0</ele><time>2026-03-29T08:40:58Z</time></trkpt><trkpt lat="43.376903744803194" lon="11.431334974928726"><ele>319.0</ele><time>2026-03-29T08:40:59Z</time></trkpt><trkpt lat="43.37676966848714" lon="11.431289565983558"><ele>317.5</ele><time>2026-03-29T08:41:00Z</time></trkpt><trkpt lat="43.37664411664098" lon="11.43126908016579"><ele>316.0</ele><time>2026-03-29T08:41:01Z</time></trkpt><trkpt lat="43.37652294652771" lon="11.431258267161686"><ele>314.5</ele><time>2026-03-29T08:41:02Z</time></trkpt><trkpt lat="43.37639594255789" lon="11.431245594434682"><ele>313.0</ele><time>2026-03-29T08:41:03Z</time></trkpt><trkpt lat="43.376267180500435" lon="11.431233380353483"><ele>313.0</ele><time>2026-03-29T08:41:04Z</time></trkpt><trkpt lat="43.37613795331868" lon="11.431238267410446"><ele>313.0</ele><time>2026-03-29T08:41:05Z</time></trkpt><trkpt lat="43.376004234360416" lon="11.431213419028579"><ele>313.0</ele><time>2026-03-29T08:41:06Z</time></trkpt><trkpt lat="43.375872181168425" lon="11.431176770330685"><ele>313.0</ele><time>2026-03-29T08:41:07Z</time></trkpt><trkpt lat="43.37574763489901" lon="11.43112561592843"><ele>313.0</ele><time>2026-03-29T08:41:08Z</time></trkpt><trkpt lat="43.37560399920708" lon="11.431034908366128"><ele>313.0</ele><time>2026-03-29T08:41:09Z</time></trkpt><trkpt lat="43.375454118562104" lon="11.430912153238236"><ele>313.0</ele><time>2026-03-29T08:41:10Z</time></trkpt><trkpt lat="43.375320092506655" lon="11.43079823821385"><ele>310.75</ele><time>2026-03-29T08:41:11Z</time></trkpt><trkpt lat="43.37518980311127" lon="11.430705130397682"><ele>308.5</ele><time>2026-03-29T08:41:12Z</time></trkpt><trkpt lat="43.37505609137648" lon="11.430615498861135"><ele>306.25</ele><time>2026-03-29T08:41:13Z</time></trkpt><trkpt lat="43.37492369900068" lon="11.43054326040309"><ele>304.0</ele><time>2026-03-29T08:41:14Z</time></trkpt><trkpt lat="43.37477578512565" lon="11.430475321844488"><ele>304.3333333333333</ele><time>2026-03-29T08:41:15Z</time></trkpt><trkpt lat="43.37461052744406" lon="11.430423102623422"><ele>304.6666666666667</ele><time>2026-03-29T08:41:16Z</time></trkpt><trkpt lat="43.37445936151331" lon="11.430375750251109"><ele>305.0</ele><time>2026-03-29T08:41:17Z</time></trkpt><trkpt lat="43.37431420107232" lon="11.430329270705492"><ele>305.0</ele><time>2026-03-29T08:41:18Z</time></trkpt><trkpt lat="43.374182924520674" lon="11.430286117852836"><ele>305.0</ele><time>2026-03-29T08:41:19Z</time></trkpt><trkpt lat="43.37405609089346" lon="11.430241353067398"><ele>305.0</ele><time>2026-03-29T08:41:20Z</time></trkpt><trkpt lat="43.373931620600814" lon="11.43019748131041"><ele>305.0</ele><time>2026-03-29T08:41:21Z</time></trkpt><trkpt lat="43.37379011315608" lon="11.43014566765228"><ele>304.6666666666667</ele><time>2026-03-29T08:41:22Z</time></trkpt><trkpt lat="43.373643227605015" lon="11.430070144271758"><ele>304.3333333333333</ele><time>2026-03-29T08:41:23Z</time></trkpt><trkpt lat="43.373501427993666" lon="11.429996591293998"><ele>304.0</ele><time>2026-03-29T08:41:24Z</time></trkpt><trkpt lat="43.373345828991575" lon="11.429908444665912"><ele>304.0</ele><time>2026-03-29T08:41:25Z</time></trkpt><trkpt lat="43.37318831531804" lon="11.42982362979374"><ele>304.0</ele><time>2026-03-29T08:41:26Z</time></trkpt><trkpt lat="43.373035727422135" lon="11.429730225926221"><ele>304.0</ele><time>2026-03-29T08:41:27Z</time></trkpt><trkpt lat="43.37289597350441" lon="11.429633903563936"><ele>301.66666666666663</ele><time>2026-03-29T08:41:28Z</time></trkpt><trkpt lat="43.3727376415871" lon="11.42954820845533"><ele>299.3333333333333</ele><time>2026-03-29T08:41:29Z</time></trkpt><trkpt lat="43.372578312229685" lon="11.429464668327673"><ele>297.0</ele><time>2026-03-29T08:41:30Z</time></trkpt><trkpt lat="43.37240775081181" lon="11.42937825390829"><ele>297.0</ele><time>2026-03-29T08:41:31Z</time></trkpt><trkpt lat="43.37221861451716" lon="11.429270245914752"><ele>297.0</ele><time>2026-03-29T08:41:32Z</time></trkpt><trkpt lat="43.372042401193816" lon="11.429165531462045"><ele>297.0</ele><time>2026-03-29T08:41:33Z</time></trkpt><trkpt lat="43.37189573531418" lon="11.429081988242237"><ele>296.0</ele><time>2026-03-29T08:41:34Z</time></trkpt><trkpt lat="43.37178064682458" lon="11.429017618649047"><ele>295.0</ele><time>2026-03-29T08:41:35Z</time></trkpt><trkpt lat="43.37165061753358" lon="11.428948279772879"><ele>294.0</ele><time>2026-03-29T08:41:36Z</time></trkpt><trkpt lat="43.37152226985565" lon="11.428890354971564"><ele>293.0</ele><time>2026-03-29T08:41:37Z</time></trkpt><trkpt lat="43.371376625665086" lon="11.428822565074707"><ele>293.33333333333337</ele><time>2026-03-29T08:41:38Z</time></trkpt><trkpt lat="43.37120523692244" lon="11.4287568488696"><ele>293.6666666666667</ele><time>2026-03-29T08:41:39Z</time></trkpt><trkpt lat="43.37103634170224" lon="11.428706135474089"><ele>294.0</ele><time>2026-03-29T08:41:40Z</time></trkpt><trkpt lat="43.37088638952692" lon="11.428673143409332"><ele>294.0</ele><time>2026-03-29T08:41:41Z</time></trkpt><trkpt lat="43.37075339060935" lon="11.428652545478595"><ele>294.0</ele><time>2026-03-29T08:41:42Z</time></trkpt><trkpt lat="43.370617678692525" lon="11.42863571908055"><ele>294.0</ele><time>2026-03-29T08:41:43Z</time></trkpt><trkpt lat="43.37046115565806" lon="11.42861441161925"><ele>294.0</ele><time>2026-03-29T08:41:44Z</time></trkpt><trkpt lat="43.370312550116594" lon="11.428593525166795"><ele>291.6666666666667</ele><time>2026-03-29T08:41:45Z</time></trkpt><trkpt lat="43.370151027470364" lon="11.428574555029405"><ele>289.33333333333337</ele><time>2026-03-29T08:41:46Z</time></trkpt><trkpt lat="43.3699740633524" lon="11.428549772934613"><ele>287.0</ele><time>2026-03-29T08:41:47Z</time></trkpt><trkpt lat="43.36980664192461" lon="11.428528020557929"><ele>285.33333333333337</ele><time>2026-03-29T08:41:48Z</time></trkpt><trkpt lat="43.369645414492894" lon="11.428514277551125"><ele>283.6666666666667</ele><time>2026-03-29T08:41:49Z</time></trkpt><trkpt lat="43.36948344960577" lon="11.428505442834492"><ele>282.0</ele><time>2026-03-29T08:41:50Z</time></trkpt><trkpt lat="43.36931012922983" lon="11.428496927980955"><ele>282.0</ele><time>2026-03-29T08:41:51Z</time></trkpt><trkpt lat="43.36913074437246" lon="11.42848780066831"><ele>282.0</ele><time>2026-03-29T08:41:52Z</time></trkpt><trkpt lat="43.36896737589055" lon="11.428474805284093"><ele>282.0</ele><time>2026-03-29T08:41:53Z</time></trkpt><trkpt lat="43.368829395145696" lon="11.428451118469342"><ele>282.5</ele><time>2026-03-29T08:41:54Z</time></trkpt><trkpt lat="43.36871950722213" lon="11.42840772738933"><ele>283.0</ele><time>2026-03-29T08:41:55Z</time></trkpt><trkpt lat="43.36864885589086" lon="11.42833952142146"><ele>283.5</ele><time>2026-03-29T08:41:56Z</time></trkpt><trkpt lat="43.368568211929066" lon="11.428306669333049"><ele>284.0</ele><time>2026-03-29T08:41:57Z</time></trkpt><trkpt lat="43.3683125467723" lon="11.428112454834014"><ele>283.0</ele><time>2026-03-29T08:41:58Z</time></trkpt><trkpt lat="43.36820644420236" lon="11.4279527867956"><ele>282.0</ele><time>2026-03-29T08:41:59Z</time></trkpt><trkpt lat="43.368129559686835" lon="11.427793763512694"><ele>281.0</ele><time>2026-03-29T08:42:00Z</time></trkpt><trkpt lat="43.36807365006277" lon="11.427623344951435"><ele>280.0</ele><time>2026-03-29T08:42:01Z</time></trkpt><trkpt lat="43.368027196422986" lon="11.42744675364578"><ele>280.75</ele><time>2026-03-29T08:42:02Z</time></trkpt><trkpt lat="43.36797403650096" lon="11.42726008823681"><ele>281.5</ele><time>2026-03-29T08:42:03Z</time></trkpt><trkpt lat="43.36789829673505" lon="11.427092005123912"><ele>282.25</ele><time>2026-03-29T08:42:04Z</time></trkpt><trkpt lat="43.36783764364728" lon="11.426942003971316"><ele>283.0</ele><time>2026-03-29T08:42:05Z</time></trkpt><trkpt lat="43.36775878093129" lon="11.426828661028946"><ele>283.25</ele><time>2026-03-29T08:42:06Z</time></trkpt><trkpt lat="43.36765586245437" lon="11.426741392559403"><ele>283.5</ele><time>2026-03-29T08:42:07Z</time></trkpt><trkpt lat="43.367527823106094" lon="11.426676849884664"><ele>283.75</ele><time>2026-03-29T08:42:08Z</time></trkpt><trkpt lat="43.367371138688725" lon="11.426633127773737"><ele>284.0</ele><time>2026-03-29T08:42:09Z</time></trkpt><trkpt lat="43.36720645032313" lon="11.426574943203034"><ele>285.6666666666667</ele><time>2026-03-29T08:42:10Z</time></trkpt><trkpt lat="43.36704022907222" lon="11.426517638268011"><ele>287.3333333333333</ele><time>2026-03-29T08:42:11Z</time></trkpt><trkpt lat="43.366870139771976" lon="11.426445213784765"><ele>289.0</ele><time>2026-03-29T08:42:12Z</time></trkpt><trkpt lat="43.36669279518157" lon="11.426368520763285"><ele>289.66666666666663</ele><time>2026-03-29T08:42:13Z</time></trkpt><trkpt lat="43.3665255606027" lon="11.42630780407831"><ele>290.3333333333333</ele><time>2026-03-29T08:42:14Z</time></trkpt><trkpt lat="43.36637600488884" lon="11.426298140612472"><ele>291.0</ele><time>2026-03-29T08:42:14.999Z</time></trkpt><trkpt lat="43.36623569794241" lon="11.426341966546762"><ele>290.75</ele><time>2026-03-29T08:42:15.999Z</time></trkpt><trkpt lat="43.36610333545946" lon="11.426352561620485"><ele>290.5</ele><time>2026-03-29T08:42:16.999Z</time></trkpt><trkpt lat="43.36598086766077" lon="11.426385301209379"><ele>290.25</ele><time>2026-03-29T08:42:17.999Z</time></trkpt><trkpt lat="43.36587009156309" lon="11.426343295699459"><ele>290.0</ele><time>2026-03-29T08:42:18.999Z</time></trkpt><trkpt lat="43.36577653324472" lon="11.426261444800302"><ele>290.0</ele><time>2026-03-29T08:42:19.999Z</time></trkpt><trkpt lat="43.36571400042083" lon="11.426150376221656"><ele>290.0</ele><time>2026-03-29T08:42:20.999Z</time></trkpt><trkpt lat="43.365631441571324" lon="11.426020945940028"><ele>290.0</ele><time>2026-03-29T08:42:21.999Z</time></trkpt><trkpt lat="43.36553767012747" lon="11.425862370050089"><ele>290.0</ele><time>2026-03-29T08:42:22.999Z</time></trkpt><trkpt lat="43.365428343541815" lon="11.425682058724405"><ele>287.33333333333337</ele><time>2026-03-29T08:42:23.999Z</time></trkpt><trkpt lat="43.365324889194675" lon="11.425512080753915"><ele>284.6666666666667</ele><time>2026-03-29T08:42:24.999Z</time></trkpt><trkpt lat="43.36522621886525" lon="11.425354606351009"><ele>282.0</ele><time>2026-03-29T08:42:25.999Z</time></trkpt><trkpt lat="43.365127781319394" lon="11.42519886895023"><ele>281.75</ele><time>2026-03-29T08:42:26.999Z</time></trkpt><trkpt lat="43.36502011952972" lon="11.425064885279555"><ele>281.5</ele><time>2026-03-29T08:42:27.999Z</time></trkpt><trkpt lat="43.36493375065516" lon="11.424911482307277"><ele>281.25</ele><time>2026-03-29T08:42:28.999Z</time></trkpt><trkpt lat="43.36484985070285" lon="11.424763505890878"><ele>281.0</ele><time>2026-03-29T08:42:29.999Z</time></trkpt><trkpt lat="43.364789447925354" lon="11.424607761820571"><ele>280.5</ele><time>2026-03-29T08:42:30.999Z</time></trkpt><trkpt lat="43.36472315942028" lon="11.42445362392087"><ele>280.0</ele><time>2026-03-29T08:42:31.999Z</time></trkpt><trkpt lat="43.36467308118634" lon="11.424301569653629"><ele>279.5</ele><time>2026-03-29T08:42:32.999Z</time></trkpt><trkpt lat="43.36463087399893" lon="11.424151117140108"><ele>279.0</ele><time>2026-03-29T08:42:33.999Z</time></trkpt><trkpt lat="43.3645931820606" lon="11.423983741116109"><ele>276.3333333333333</ele><time>2026-03-29T08:42:34.999Z</time></trkpt><trkpt lat="43.36456295913278" lon="11.423790993851533"><ele>273.66666666666663</ele><time>2026-03-29T08:42:35.999Z</time></trkpt><trkpt lat="43.36454661687023" lon="11.423589644711553"><ele>271.0</ele><time>2026-03-29T08:42:36.999Z</time></trkpt><trkpt lat="43.36453523772369" lon="11.423364059960006"><ele>271.0</ele><time>2026-03-29T08:42:37.999Z</time></trkpt><trkpt lat="43.36452092651565" lon="11.423098781497423"><ele>271.0</ele><time>2026-03-29T08:42:38.999Z</time></trkpt><trkpt lat="43.3645084321265" lon="11.422879591781518"><ele>271.0</ele><time>2026-03-29T08:42:39.999Z</time></trkpt><trkpt lat="43.364481283021526" lon="11.42266067767294"><ele>268.66666666666663</ele><time>2026-03-29T08:42:40.999Z</time></trkpt><trkpt lat="43.36448577663108" lon="11.422437639903052"><ele>266.3333333333333</ele><time>2026-03-29T08:42:41.999Z</time></trkpt><trkpt lat="43.364475573095596" lon="11.422224052738281"><ele>264.0</ele><time>2026-03-29T08:42:42.999Z</time></trkpt><trkpt lat="43.36446540007076" lon="11.422012364111048"><ele>261.6666666666667</ele><time>2026-03-29T08:42:43.999Z</time></trkpt><trkpt lat="43.36445388154378" lon="11.421802756268809"><ele>259.33333333333337</ele><time>2026-03-29T08:42:44.999Z</time></trkpt><trkpt lat="43.36442432437115" lon="11.421583362365748"><ele>257.0</ele><time>2026-03-29T08:42:45.999Z</time></trkpt><trkpt lat="43.36440871108866" lon="11.421373083980605"><ele>256.75</ele><time>2026-03-29T08:42:46.999Z</time></trkpt><trkpt lat="43.36436605209344" lon="11.421191962406725"><ele>256.5</ele><time>2026-03-29T08:42:47.999Z</time></trkpt><trkpt lat="43.36431050893294" lon="11.421042269319743"><ele>256.25</ele><time>2026-03-29T08:42:48.999Z</time></trkpt><trkpt lat="43.36425877594668" lon="11.420895951977663"><ele>256.0</ele><time>2026-03-29T08:42:49.999Z</time></trkpt><trkpt lat="43.36420361610881" lon="11.42074637070142"><ele>256.0</ele><time>2026-03-29T08:42:50.999Z</time></trkpt><trkpt lat="43.36415868062165" lon="11.420596404795427"><ele>256.0</ele><time>2026-03-29T08:42:51.999Z</time></trkpt><trkpt lat="43.36412555115972" lon="11.420451010985657"><ele>256.0</ele><time>2026-03-29T08:42:52.999Z</time></trkpt><trkpt lat="43.36412139281106" lon="11.420306203627591"><ele>256.0</ele><time>2026-03-29T08:42:53.999Z</time></trkpt><trkpt lat="43.36410007156442" lon="11.420178038802991"><ele>256.0</ele><time>2026-03-29T08:42:54.999Z</time></trkpt><trkpt lat="43.36407791186292" lon="11.420039049175996"><ele>255.5</ele><time>2026-03-29T08:42:55.999Z</time></trkpt><trkpt lat="43.36406767557308" lon="11.419866518013873"><ele>255.0</ele><time>2026-03-29T08:42:56.999Z</time></trkpt><trkpt lat="43.36405695962487" lon="11.419702886471804"><ele>254.5</ele><time>2026-03-29T08:42:57.999Z</time></trkpt><trkpt lat="43.364037743132" lon="11.419550397699592"><ele>254.0</ele><time>2026-03-29T08:42:59Z</time></trkpt><trkpt lat="43.36403415013567" lon="11.419386022269771"><ele>253.2</ele><time>2026-03-29T08:43:00Z</time></trkpt><trkpt lat="43.36401477713623" lon="11.419228815478201"><ele>252.39999999999998</ele><time>2026-03-29T08:43:01Z</time></trkpt><trkpt lat="43.36401466608974" lon="11.419087372829281"><ele>251.6</ele><time>2026-03-29T08:43:02Z</time></trkpt><trkpt lat="43.364013120600575" lon="11.418958747650064"><ele>250.8</ele><time>2026-03-29T08:43:03Z</time></trkpt><trkpt lat="43.364010926785205" lon="11.418854391541482"><ele>250.0</ele><time>2026-03-29T08:43:04Z</time></trkpt><trkpt lat="43.36402676178366" lon="11.418709472164347"><ele>248.8</ele><time>2026-03-29T08:43:06Z</time></trkpt><trkpt lat="43.36392498691189" lon="11.418652143829634"><ele>247.6</ele><time>2026-03-29T08:43:07Z</time></trkpt><trkpt lat="43.36381910780725" lon="11.418563440845665"><ele>246.39999999999998</ele><time>2026-03-29T08:43:09Z</time></trkpt><trkpt lat="43.36370341280662" lon="11.418509694912675"><ele>245.2</ele><time>2026-03-29T08:43:11Z</time></trkpt><trkpt lat="43.363641080874096" lon="11.418450029086397"><ele>244.0</ele><time>2026-03-29T08:43:12Z</time></trkpt><trkpt lat="43.36352312620458" lon="11.418450386711624"><ele>243.0</ele><time>2026-03-29T08:43:13Z</time></trkpt><trkpt lat="43.363403233011766" lon="11.418463139866505"><ele>242.0</ele><time>2026-03-29T08:43:14Z</time></trkpt><trkpt lat="43.363278816997415" lon="11.418455215647016"><ele>241.0</ele><time>2026-03-29T08:43:15Z</time></trkpt><trkpt lat="43.36313863855551" lon="11.418444058121887"><ele>240.0</ele><time>2026-03-29T08:43:16Z</time></trkpt><trkpt lat="43.36299531872788" lon="11.418425321059813"><ele>239.25</ele><time>2026-03-29T08:43:17Z</time></trkpt><trkpt lat="43.36285265287206" lon="11.418390398490354"><ele>238.5</ele><time>2026-03-29T08:43:18Z</time></trkpt><trkpt lat="43.3627019302406" lon="11.418344503485727"><ele>237.75</ele><time>2026-03-29T08:43:19Z</time></trkpt><trkpt lat="43.36255802390668" lon="11.418285630390713"><ele>237.0</ele><time>2026-03-29T08:43:20Z</time></trkpt><trkpt lat="43.36243320685279" lon="11.418235732012054"><ele>237.0</ele><time>2026-03-29T08:43:21Z</time></trkpt><trkpt lat="43.36231018025588" lon="11.418215088439002"><ele>237.0</ele><time>2026-03-29T08:43:22Z</time></trkpt><trkpt lat="43.36219711434806" lon="11.418246906635865"><ele>237.0</ele><time>2026-03-29T08:43:23Z</time></trkpt><trkpt lat="43.3620892021683" lon="11.418339587656734"><ele>237.0</ele><time>2026-03-29T08:43:24Z</time></trkpt><trkpt lat="43.36198398596634" lon="11.418460913549808"><ele>237.33333333333331</ele><time>2026-03-29T08:43:25Z</time></trkpt><trkpt lat="43.36188285382609" lon="11.418630178998898"><ele>237.66666666666666</ele><time>2026-03-29T08:43:26Z</time></trkpt><trkpt lat="43.3617829429067" lon="11.418803988547635"><ele>238.0</ele><time>2026-03-29T08:43:27Z</time></trkpt><trkpt lat="43.3617021013788" lon="11.418952310330265"><ele>238.0</ele><time>2026-03-29T08:43:28Z</time></trkpt><trkpt lat="43.36161719658164" lon="11.419067827624888"><ele>238.0</ele><time>2026-03-29T08:43:29Z</time></trkpt><trkpt lat="43.36150901357985" lon="11.41914565568796"><ele>238.0</ele><time>2026-03-29T08:43:30Z</time></trkpt><trkpt lat="43.36136057382714" lon="11.419177272316047"><ele>238.0</ele><time>2026-03-29T08:43:31Z</time></trkpt><trkpt lat="43.361196553717974" lon="11.419244202959383"><ele>236.0</ele><time>2026-03-29T08:43:32Z</time></trkpt><trkpt lat="43.361024555253195" lon="11.419291039616564"><ele>234.0</ele><time>2026-03-29T08:43:33Z</time></trkpt><trkpt lat="43.36083576998414" lon="11.419359296274747"><ele>232.0</ele><time>2026-03-29T08:43:34Z</time></trkpt><trkpt lat="43.360627729855544" lon="11.419431648241263"><ele>231.33333333333331</ele><time>2026-03-29T08:43:35Z</time></trkpt><trkpt lat="43.360419590693716" lon="11.419509644271077"><ele>230.66666666666669</ele><time>2026-03-29T08:43:36Z</time></trkpt><trkpt lat="43.36022586120611" lon="11.419580948524295"><ele>230.0</ele><time>2026-03-29T08:43:37Z</time></trkpt><trkpt lat="43.360047030509485" lon="11.419646653571798"><ele>230.66666666666669</ele><time>2026-03-29T08:43:38Z</time></trkpt><trkpt lat="43.359875351500236" lon="11.4197106711583"><ele>231.33333333333331</ele><time>2026-03-29T08:43:39Z</time></trkpt><trkpt lat="43.359709127076734" lon="11.419771669244584"><ele>232.0</ele><time>2026-03-29T08:43:40Z</time></trkpt><trkpt lat="43.359552437595646" lon="11.41983164446096"><ele>231.0</ele><time>2026-03-29T08:43:41Z</time></trkpt><trkpt lat="43.35940254116219" lon="11.419890835259986"><ele>230.0</ele><time>2026-03-29T08:43:42Z</time></trkpt><trkpt lat="43.35926077605986" lon="11.419943014769142"><ele>229.0</ele><time>2026-03-29T08:43:43Z</time></trkpt><trkpt lat="43.359129769975866" lon="11.41996029399674"><ele>228.0</ele><time>2026-03-29T08:43:44Z</time></trkpt><trkpt lat="43.359026477345765" lon="11.419902997723879"><ele>228.0</ele><time>2026-03-29T08:43:45Z</time></trkpt><trkpt lat="43.358941717204104" lon="11.419814709169003"><ele>228.0</ele><time>2026-03-29T08:43:46Z</time></trkpt><trkpt lat="43.3588589718633" lon="11.419689439391195"><ele>228.0</ele><time>2026-03-29T08:43:47Z</time></trkpt><trkpt lat="43.358759937403676" lon="11.419535325695787"><ele>228.0</ele><time>2026-03-29T08:43:48Z</time></trkpt><trkpt lat="43.35864373988846" lon="11.419367511929721"><ele>226.0</ele><time>2026-03-29T08:43:49Z</time></trkpt><trkpt lat="43.35852724612477" lon="11.41919267017746"><ele>224.0</ele><time>2026-03-29T08:43:50Z</time></trkpt><trkpt lat="43.358416521295396" lon="11.419027502804225"><ele>222.0</ele><time>2026-03-29T08:43:51Z</time></trkpt><trkpt lat="43.35831943697835" lon="11.418881689780804"><ele>221.75</ele><time>2026-03-29T08:43:52Z</time></trkpt><trkpt lat="43.3582272148407" lon="11.418734747907529"><ele>221.5</ele><time>2026-03-29T08:43:53Z</time></trkpt><trkpt lat="43.35813076688479" lon="11.418598972790845"><ele>221.25</ele><time>2026-03-29T08:43:54Z</time></trkpt><trkpt lat="43.35803459857218" lon="11.418451913619968"><ele>221.0</ele><time>2026-03-29T08:43:55Z</time></trkpt><trkpt lat="43.357937657063545" lon="11.41829923195502"><ele>220.66666666666669</ele><time>2026-03-29T08:43:56Z</time></trkpt><trkpt lat="43.357832198064976" lon="11.418135990830496"><ele>220.33333333333331</ele><time>2026-03-29T08:43:57Z</time></trkpt><trkpt lat="43.35772163145947" lon="11.417968472319396"><ele>220.0</ele><time>2026-03-29T08:43:58Z</time></trkpt><trkpt lat="43.35761276843464" lon="11.417797324096211"><ele>220.0</ele><time>2026-03-29T08:43:59Z</time></trkpt><trkpt lat="43.357512666962684" lon="11.41764659593937"><ele>220.0</ele><time>2026-03-29T08:44:00Z</time></trkpt><trkpt lat="43.357422898781806" lon="11.417506455632761"><ele>220.0</ele><time>2026-03-29T08:44:01Z</time></trkpt><trkpt lat="43.35733842829461" lon="11.417375829321497"><ele>220.0</ele><time>2026-03-29T08:44:02Z</time></trkpt><trkpt lat="43.35725668457056" lon="11.417253528842192"><ele>219.8</ele><time>2026-03-29T08:44:03Z</time></trkpt><trkpt lat="43.35718359697229" lon="11.41713710736514"><ele>219.6</ele><time>2026-03-29T08:44:04Z</time></trkpt><trkpt lat="43.35711469278597" lon="11.417033214866683"><ele>219.39999999999998</ele><time>2026-03-29T08:44:05Z</time></trkpt><trkpt lat="43.35706337711447" lon="11.41694910454147"><ele>219.2</ele><time>2026-03-29T08:44:06Z</time></trkpt><trkpt lat="43.357015019381166" lon="11.416878610402451"><ele>219.0</ele><time>2026-03-29T08:44:07Z</time></trkpt><trkpt lat="43.356930250269656" lon="11.416754560915047"><ele>219.0</ele><time>2026-03-29T08:44:09Z</time></trkpt><trkpt lat="43.356871352395395" lon="11.416672491547908"><ele>218.99999999999997</ele><time>2026-03-29T08:44:10Z</time></trkpt><trkpt lat="43.35680636931562" lon="11.416573863782371"><ele>218.99999999999997</ele><time>2026-03-29T08:44:11Z</time></trkpt><trkpt lat="43.35673732736059" lon="11.416453120015074"><ele>219.0</ele><time>2026-03-29T08:44:12Z</time></trkpt><trkpt lat="43.356661619540425" lon="11.416320437089059"><ele>219.0</ele><time>2026-03-29T08:44:13Z</time></trkpt><trkpt lat="43.35659511384688" lon="11.416206139207441"><ele>219.33333333333334</ele><time>2026-03-29T08:44:14Z</time></trkpt><trkpt lat="43.356539653858114" lon="11.416106928413956"><ele>219.66666666666669</ele><time>2026-03-29T08:44:15Z</time></trkpt><trkpt lat="43.35648642097622" lon="11.41601918475721"><ele>220.0</ele><time>2026-03-29T08:44:16Z</time></trkpt><trkpt lat="43.35642902542275" lon="11.415932762282264"><ele>220.33333333333334</ele><time>2026-03-29T08:44:17Z</time></trkpt><trkpt lat="43.35635873957039" lon="11.415855212893613"><ele>220.66666666666669</ele><time>2026-03-29T08:44:18Z</time></trkpt><trkpt lat="43.35627484751087" lon="11.415835918191489"><ele>221.0</ele><time>2026-03-29T08:44:19Z</time></trkpt><trkpt lat="43.35618698830718" lon="11.415833293447307"><ele>221.25</ele><time>2026-03-29T08:44:20Z</time></trkpt><trkpt lat="43.35609234267012" lon="11.41585486305551"><ele>221.5</ele><time>2026-03-29T08:44:21Z</time></trkpt><trkpt lat="43.35598934224889" lon="11.41589737599423"><ele>221.75</ele><time>2026-03-29T08:44:22Z</time></trkpt><trkpt lat="43.35587742884364" lon="11.41595693346149"><ele>222.0</ele><time>2026-03-29T08:44:23Z</time></trkpt><trkpt lat="43.35575812780631" lon="11.416036682088967"><ele>222.0</ele><time>2026-03-29T08:44:23.999Z</time></trkpt><trkpt lat="43.35564362439172" lon="11.416120096654597"><ele>222.0</ele><time>2026-03-29T08:44:24.999Z</time></trkpt><trkpt lat="43.35552570984634" lon="11.416203423312048"><ele>222.0</ele><time>2026-03-29T08:44:25.999Z</time></trkpt><trkpt lat="43.35539067191744" lon="11.416257706776358"><ele>222.0</ele><time>2026-03-29T08:44:26.999Z</time></trkpt><trkpt lat="43.355265466811154" lon="11.416233074925133"><ele>222.75</ele><time>2026-03-29T08:44:27.999Z</time></trkpt><trkpt lat="43.35513533073472" lon="11.41623698336523"><ele>223.5</ele><time>2026-03-29T08:44:28.999Z</time></trkpt><trkpt lat="43.354993942485585" lon="11.416209653462733"><ele>224.25</ele><time>2026-03-29T08:44:29.999Z</time></trkpt><trkpt lat="43.354847006542684" lon="11.41618374967543"><ele>225.0</ele><time>2026-03-29T08:44:30.999Z</time></trkpt><trkpt lat="43.35468789369173" lon="11.416163722912238"><ele>225.0</ele><time>2026-03-29T08:44:31.999Z</time></trkpt><trkpt lat="43.35452111139425" lon="11.416149770869701"><ele>225.0</ele><time>2026-03-29T08:44:32.999Z</time></trkpt><trkpt lat="43.35435202200498" lon="11.416126564854675"><ele>225.0</ele><time>2026-03-29T08:44:33.999Z</time></trkpt><trkpt lat="43.354186920787505" lon="11.41610532879294"><ele>225.0</ele><time>2026-03-29T08:44:34.999Z</time></trkpt><trkpt lat="43.354013821394" lon="11.416084603420884"><ele>225.0</ele><time>2026-03-29T08:44:35.999Z</time></trkpt><trkpt lat="43.35383800019163" lon="11.416062586451806"><ele>225.0</ele><time>2026-03-29T08:44:36.999Z</time></trkpt><trkpt lat="43.35366393113727" lon="11.41603649782155"><ele>224.33333333333331</ele><time>2026-03-29T08:44:37.999Z</time></trkpt><trkpt lat="43.35350738528924" lon="11.41599682867926"><ele>223.66666666666666</ele><time>2026-03-29T08:44:38.999Z</time></trkpt><trkpt lat="43.3533657858893" lon="11.41595686061694"><ele>223.0</ele><time>2026-03-29T08:44:39.999Z</time></trkpt><trkpt lat="43.35322052527961" lon="11.415909162624581"><ele>223.0</ele><time>2026-03-29T08:44:40.999Z</time></trkpt><trkpt lat="43.353060773398" lon="11.415855972540546"><ele>223.0</ele><time>2026-03-29T08:44:41.999Z</time></trkpt><trkpt lat="43.35289434245981" lon="11.415811989497975"><ele>223.0</ele><time>2026-03-29T08:44:42.999Z</time></trkpt><trkpt lat="43.35272470263082" lon="11.415760768116385"><ele>223.0</ele><time>2026-03-29T08:44:43.999Z</time></trkpt><trkpt lat="43.35257620144967" lon="11.415710650636033"><ele>223.0</ele><time>2026-03-29T08:44:44.999Z</time></trkpt><trkpt lat="43.35243363479111" lon="11.415670007957097"><ele>223.0</ele><time>2026-03-29T08:44:45.999Z</time></trkpt><trkpt lat="43.35230098013425" lon="11.415633128906142"><ele>223.0</ele><time>2026-03-29T08:44:46.999Z</time></trkpt><trkpt lat="43.352176815015234" lon="11.415602171653063"><ele>222.5</ele><time>2026-03-29T08:44:47.999Z</time></trkpt><trkpt lat="43.35206265172069" lon="11.415569783808566"><ele>222.0</ele><time>2026-03-29T08:44:48.999Z</time></trkpt><trkpt lat="43.35193858221229" lon="11.415526101614644"><ele>221.5</ele><time>2026-03-29T08:44:49.999Z</time></trkpt><trkpt lat="43.35181909720587" lon="11.415487503029016"><ele>221.0</ele><time>2026-03-29T08:44:50.999Z</time></trkpt><trkpt lat="43.35168725258294" lon="11.415458137161293"><ele>221.0</ele><time>2026-03-29T08:44:51.999Z</time></trkpt><trkpt lat="43.35155491117534" lon="11.41541979965921"><ele>221.0</ele><time>2026-03-29T08:44:52.999Z</time></trkpt><trkpt lat="43.35141928640588" lon="11.415382226928058"><ele>221.0</ele><time>2026-03-29T08:44:53.999Z</time></trkpt><trkpt lat="43.35127880710081" lon="11.415343860660256"><ele>221.0</ele><time>2026-03-29T08:44:54.999Z</time></trkpt><trkpt lat="43.351139965437646" lon="11.415303154154449"><ele>220.75</ele><time>2026-03-29T08:44:55.999Z</time></trkpt><trkpt lat="43.35101566314718" lon="11.415264901023141"><ele>220.5</ele><time>2026-03-29T08:44:56.999Z</time></trkpt><trkpt lat="43.35089974320155" lon="11.415229183519973"><ele>220.25</ele><time>2026-03-29T08:44:57.999Z</time></trkpt><trkpt lat="43.35077158096677" lon="11.415197607923576"><ele>220.0</ele><time>2026-03-29T08:44:58.999Z</time></trkpt><trkpt lat="43.350640283104575" lon="11.415167924763127"><ele>221.5</ele><time>2026-03-29T08:44:59.999Z</time></trkpt><trkpt lat="43.35049932349181" lon="11.415129755707634"><ele>223.0</ele><time>2026-03-29T08:45:00.999Z</time></trkpt><trkpt lat="43.3503720289671" lon="11.41508676011072"><ele>224.5</ele><time>2026-03-29T08:45:01.999Z</time></trkpt><trkpt lat="43.350241969999225" lon="11.415038251996473"><ele>226.0</ele><time>2026-03-29T08:45:02.999Z</time></trkpt><trkpt lat="43.350114439977006" lon="11.414945326794678"><ele>226.0</ele><time>2026-03-29T08:45:03.999Z</time></trkpt><trkpt lat="43.35000738543617" lon="11.41479652975921"><ele>226.0</ele><time>2026-03-29T08:45:05Z</time></trkpt><trkpt lat="43.34991434688388" lon="11.414627509655746"><ele>226.0</ele><time>2026-03-29T08:45:06Z</time></trkpt><trkpt lat="43.34982176234525" lon="11.414482288255126"><ele>226.0</ele><time>2026-03-29T08:45:07Z</time></trkpt><trkpt lat="43.34973042109056" lon="11.414303727678426"><ele>226.33333333333331</ele><time>2026-03-29T08:45:08Z</time></trkpt><trkpt lat="43.34963220076184" lon="11.414121380866405"><ele>226.66666666666669</ele><time>2026-03-29T08:45:09Z</time></trkpt><trkpt lat="43.349538434808245" lon="11.413922151392303"><ele>227.0</ele><time>2026-03-29T08:45:10Z</time></trkpt><trkpt lat="43.34945620709784" lon="11.413699468516416"><ele>227.0</ele><time>2026-03-29T08:45:11Z</time></trkpt><trkpt lat="43.34939178708111" lon="11.41350352111935"><ele>227.0</ele><time>2026-03-29T08:45:12Z</time></trkpt><trkpt lat="43.34932456357893" lon="11.413329596497235"><ele>227.0</ele><time>2026-03-29T08:45:13Z</time></trkpt><trkpt lat="43.34923949750062" lon="11.413177384894896"><ele>227.0</ele><time>2026-03-29T08:45:14Z</time></trkpt><trkpt lat="43.34913556962554" lon="11.41301891430781"><ele>226.33333333333334</ele><time>2026-03-29T08:45:15Z</time></trkpt><trkpt lat="43.34902328519392" lon="11.412863864340228"><ele>225.66666666666669</ele><time>2026-03-29T08:45:16Z</time></trkpt><trkpt lat="43.3489099487541" lon="11.41269367813319"><ele>225.0</ele><time>2026-03-29T08:45:17Z</time></trkpt><trkpt lat="43.348811881488075" lon="11.412520139288198"><ele>226.75</ele><time>2026-03-29T08:45:18Z</time></trkpt><trkpt lat="43.34873775349715" lon="11.41235169151915"><ele>228.5</ele><time>2026-03-29T08:45:19Z</time></trkpt><trkpt lat="43.34867827293419" lon="11.412196453301457"><ele>230.25</ele><time>2026-03-29T08:45:20Z</time></trkpt><trkpt lat="43.348627558092836" lon="11.41203261039563"><ele>232.0</ele><time>2026-03-29T08:45:21Z</time></trkpt><trkpt lat="43.348584033126755" lon="11.41185482980822"><ele>232.0</ele><time>2026-03-29T08:45:22Z</time></trkpt><trkpt lat="43.348552797191545" lon="11.41166399800197"><ele>232.0</ele><time>2026-03-29T08:45:23Z</time></trkpt><trkpt lat="43.348531643970624" lon="11.411464534389127"><ele>232.0</ele><time>2026-03-29T08:45:24Z</time></trkpt><trkpt lat="43.34851715639556" lon="11.411254099326996"><ele>232.0</ele><time>2026-03-29T08:45:25Z</time></trkpt><trkpt lat="43.348514875752926" lon="11.411062172052471"><ele>234.0</ele><time>2026-03-29T08:45:26Z</time></trkpt><trkpt lat="43.34849493492551" lon="11.410863516089808"><ele>236.0</ele><time>2026-03-29T08:45:27Z</time></trkpt><trkpt lat="43.348464599233864" lon="11.410667548227819"><ele>238.0</ele><time>2026-03-29T08:45:28Z</time></trkpt><trkpt lat="43.3484132309928" lon="11.410422712049959"><ele>238.66666666666666</ele><time>2026-03-29T08:45:29Z</time></trkpt><trkpt lat="43.34834616547292" lon="11.410146030217524"><ele>239.33333333333331</ele><time>2026-03-29T08:45:30Z</time></trkpt><trkpt lat="43.348269481294885" lon="11.409845166322686"><ele>240.0</ele><time>2026-03-29T08:45:31Z</time></trkpt><trkpt lat="43.34819320323435" lon="11.409547065533964"><ele>240.0</ele><time>2026-03-29T08:45:32Z</time></trkpt><trkpt lat="43.34812245827772" lon="11.409260166351217"><ele>240.0</ele><time>2026-03-29T08:45:33Z</time></trkpt><trkpt lat="43.34807318979155" lon="11.409013353208078"><ele>240.0</ele><time>2026-03-29T08:45:34Z</time></trkpt><trkpt lat="43.34804967689597" lon="11.408784580750527"><ele>248.0</ele><time>2026-03-29T08:45:35Z</time></trkpt><trkpt lat="43.348037994798595" lon="11.40853146111895"><ele>256.0</ele><time>2026-03-29T08:45:36Z</time></trkpt><trkpt lat="43.34803138980171" lon="11.408296853299019"><ele>264.0</ele><time>2026-03-29T08:45:37Z</time></trkpt><trkpt lat="43.34802922533637" lon="11.408080129378977"><ele>266.0</ele><time>2026-03-29T08:45:38Z</time></trkpt><trkpt lat="43.34803219842472" lon="11.407837424639316"><ele>268.0</ele><time>2026-03-29T08:45:39Z</time></trkpt><trkpt lat="43.34804123435069" lon="11.407566947839422"><ele>270.0</ele><time>2026-03-29T08:45:40Z</time></trkpt><trkpt lat="43.348053827144874" lon="11.407293808345667"><ele>263.0</ele><time>2026-03-29T08:45:41Z</time></trkpt><trkpt lat="43.34806890752083" lon="11.40701411299776"><ele>256.0</ele><time>2026-03-29T08:45:42Z</time></trkpt><trkpt lat="43.34808630027402" lon="11.406766388475969"><ele>249.0</ele><time>2026-03-29T08:45:43Z</time></trkpt><trkpt lat="43.34811727084357" lon="11.40652324122211"><ele>251.33333333333331</ele><time>2026-03-29T08:45:44Z</time></trkpt><trkpt lat="43.34817476828841" lon="11.4062747793476"><ele>253.66666666666666</ele><time>2026-03-29T08:45:45Z</time></trkpt><trkpt lat="43.34824582743262" lon="11.40604075329381"><ele>256.0</ele><time>2026-03-29T08:45:46Z</time></trkpt><trkpt lat="43.348310439180345" lon="11.405833272242875"><ele>256.0</ele><time>2026-03-29T08:45:47Z</time></trkpt><trkpt lat="43.348347036972605" lon="11.405636680452453"><ele>256.0</ele><time>2026-03-29T08:45:48Z</time></trkpt><trkpt lat="43.34840484725965" lon="11.405428842786291"><ele>256.0</ele><time>2026-03-29T08:45:49Z</time></trkpt><trkpt lat="43.34844055533163" lon="11.4051718348695"><ele>259.66666666666663</ele><time>2026-03-29T08:45:50Z</time></trkpt><trkpt lat="43.34845962485366" lon="11.404910875360098"><ele>263.3333333333333</ele><time>2026-03-29T08:45:51Z</time></trkpt><trkpt lat="43.348498032088166" lon="11.404688132696679"><ele>267.0</ele><time>2026-03-29T08:45:52Z</time></trkpt><trkpt lat="43.348539825454665" lon="11.404513573202335"><ele>267.6666666666667</ele><time>2026-03-29T08:45:53Z</time></trkpt><trkpt lat="43.348611884132836" lon="11.404325761292318"><ele>268.33333333333337</ele><time>2026-03-29T08:45:54Z</time></trkpt><trkpt lat="43.34871362041511" lon="11.404143338134345"><ele>269.0</ele><time>2026-03-29T08:45:55Z</time></trkpt><trkpt lat="43.34882924804399" lon="11.4039793166364"><ele>269.75</ele><time>2026-03-29T08:45:56Z</time></trkpt><trkpt lat="43.348921017782004" lon="11.403838038504094"><ele>270.5</ele><time>2026-03-29T08:45:57Z</time></trkpt><trkpt lat="43.349004885246494" lon="11.403701945042652"><ele>271.25</ele><time>2026-03-29T08:45:58Z</time></trkpt><trkpt lat="43.349074716700905" lon="11.403515457913771"><ele>272.0</ele><time>2026-03-29T08:45:59Z</time></trkpt><trkpt lat="43.3491192820624" lon="11.403301421323588"><ele>272.0</ele><time>2026-03-29T08:46:00Z</time></trkpt><trkpt lat="43.349142139600694" lon="11.403065267557066"><ele>272.0</ele><time>2026-03-29T08:46:01Z</time></trkpt><trkpt lat="43.349155325467756" lon="11.402812128864948"><ele>272.0</ele><time>2026-03-29T08:46:02Z</time></trkpt><trkpt lat="43.34916463426906" lon="11.402579194093162"><ele>274.33333333333337</ele><time>2026-03-29T08:46:03Z</time></trkpt><trkpt lat="43.34919600135028" lon="11.402379818072209"><ele>276.6666666666667</ele><time>2026-03-29T08:46:04Z</time></trkpt><trkpt lat="43.34921746020179" lon="11.40217329772817"><ele>279.0</ele><time>2026-03-29T08:46:05Z</time></trkpt><trkpt lat="43.34923514538448" lon="11.401949701603408"><ele>281.0</ele><time>2026-03-29T08:46:06Z</time></trkpt><trkpt lat="43.34930853266938" lon="11.401776927908326"><ele>283.0</ele><time>2026-03-29T08:46:07Z</time></trkpt><trkpt lat="43.34936480673447" lon="11.401625812584324"><ele>285.0</ele><time>2026-03-29T08:46:08Z</time></trkpt><trkpt lat="43.34945987435774" lon="11.401534453163338"><ele>287.0</ele><time>2026-03-29T08:46:09Z</time></trkpt><trkpt lat="43.349567239470495" lon="11.40149220831478"><ele>287.0</ele><time>2026-03-29T08:46:10Z</time></trkpt><trkpt lat="43.34968923071745" lon="11.401507019528353"><ele>287.0</ele><time>2026-03-29T08:46:11Z</time></trkpt><trkpt lat="43.34981359063377" lon="11.401590323991138"><ele>287.0</ele><time>2026-03-29T08:46:12Z</time></trkpt><trkpt lat="43.34993781428677" lon="11.40163831845962"><ele>287.0</ele><time>2026-03-29T08:46:13Z</time></trkpt><trkpt lat="43.3500319262153" lon="11.401674369919164"><ele>286.0</ele><time>2026-03-29T08:46:14Z</time></trkpt><trkpt lat="43.350124740373616" lon="11.40164612546629"><ele>285.0</ele><time>2026-03-29T08:46:15Z</time></trkpt><trkpt lat="43.3502025605827" lon="11.401560124614829"><ele>284.0</ele><time>2026-03-29T08:46:16Z</time></trkpt><trkpt lat="43.35024763894171" lon="11.401423636321999"><ele>283.0</ele><time>2026-03-29T08:46:17Z</time></trkpt><trkpt lat="43.35024442148701" lon="11.401277856315327"><ele>282.0</ele><time>2026-03-29T08:46:18Z</time></trkpt><trkpt lat="43.35019959808154" lon="11.401139102610067"><ele>284.5</ele><time>2026-03-29T08:46:19Z</time></trkpt><trkpt lat="43.35010135340097" lon="11.401015479673209"><ele>287.0</ele><time>2026-03-29T08:46:20Z</time></trkpt><trkpt lat="43.34997567506271" lon="11.400879259158513"><ele>289.5</ele><time>2026-03-29T08:46:21Z</time></trkpt><trkpt lat="43.349861654384135" lon="11.400750219314098"><ele>292.0</ele><time>2026-03-29T08:46:22Z</time></trkpt><trkpt lat="43.34973376889099" lon="11.400650369308645"><ele>292.5</ele><time>2026-03-29T08:46:23Z</time></trkpt><trkpt lat="43.349605232853875" lon="11.400607198225147"><ele>293.0</ele><time>2026-03-29T08:46:24Z</time></trkpt><trkpt lat="43.34947398503835" lon="11.4006172043611"><ele>293.5</ele><time>2026-03-29T08:46:25Z</time></trkpt><trkpt lat="43.34933778280961" lon="11.400665042415836"><ele>294.0</ele><time>2026-03-29T08:46:25.999Z</time></trkpt><trkpt lat="43.34918925418403" lon="11.400773674210967"><ele>294.0</ele><time>2026-03-29T08:46:26.999Z</time></trkpt><trkpt lat="43.349038742000246" lon="11.400874980620534"><ele>294.0</ele><time>2026-03-29T08:46:27.999Z</time></trkpt><trkpt lat="43.348909256816974" lon="11.400962592920342"><ele>294.0</ele><time>2026-03-29T08:46:28.999Z</time></trkpt><trkpt lat="43.34879520944773" lon="11.401041201803675"><ele>294.0</ele><time>2026-03-29T08:46:29.999Z</time></trkpt><trkpt lat="43.348694262043196" lon="11.401057834156651"><ele>295.5</ele><time>2026-03-29T08:46:30.999Z</time></trkpt><trkpt lat="43.34860121721185" lon="11.401031649608992"><ele>297.0</ele><time>2026-03-29T08:46:31.999Z</time></trkpt><trkpt lat="43.348513568444545" lon="11.400962106503696"><ele>298.5</ele><time>2026-03-29T08:46:32.999Z</time></trkpt><trkpt lat="43.348405884414326" lon="11.400836327919317"><ele>300.0</ele><time>2026-03-29T08:46:33.999Z</time></trkpt><trkpt lat="43.34826376610797" lon="11.400668677075052"><ele>300.0</ele><time>2026-03-29T08:46:34.999Z</time></trkpt><trkpt lat="43.348098087234064" lon="11.400514113837096"><ele>300.0</ele><time>2026-03-29T08:46:35.999Z</time></trkpt><trkpt lat="43.34793304603042" lon="11.400366260953655"><ele>300.0</ele><time>2026-03-29T08:46:36.999Z</time></trkpt><trkpt lat="43.347774126517194" lon="11.400258781917623"><ele>301.75</ele><time>2026-03-29T08:46:37.999Z</time></trkpt><trkpt lat="43.34763606285357" lon="11.400192250114719"><ele>303.5</ele><time>2026-03-29T08:46:38.999Z</time></trkpt><trkpt lat="43.34753406720566" lon="11.40010395152981"><ele>305.25</ele><time>2026-03-29T08:46:39.999Z</time></trkpt><trkpt lat="43.34746607671204" lon="11.399997140632466"><ele>307.0</ele><time>2026-03-29T08:46:40.999Z</time></trkpt><trkpt lat="43.347418383524335" lon="11.399868239147168"><ele>307.0</ele><time>2026-03-29T08:46:41.999Z</time></trkpt><trkpt lat="43.34740508920273" lon="11.399736466441357"><ele>307.0</ele><time>2026-03-29T08:46:42.999Z</time></trkpt><trkpt lat="43.347424036277445" lon="11.399612104032505"><ele>307.0</ele><time>2026-03-29T08:46:43.999Z</time></trkpt><trkpt lat="43.34747735742558" lon="11.39951622336522"><ele>307.0</ele><time>2026-03-29T08:46:44.999Z</time></trkpt><trkpt lat="43.34754829735433" lon="11.399421725184974"><ele>307.0</ele><time>2026-03-29T08:46:45.999Z</time></trkpt><trkpt lat="43.34764704214988" lon="11.399321899800203"><ele>307.25</ele><time>2026-03-29T08:46:46.999Z</time></trkpt><trkpt lat="43.347775662328246" lon="11.399230566771935"><ele>307.5</ele><time>2026-03-29T08:46:47.999Z</time></trkpt><trkpt lat="43.34790935155086" lon="11.399144477406898"><ele>307.75</ele><time>2026-03-29T08:46:48.999Z</time></trkpt><trkpt lat="43.34804491630219" lon="11.399083601107158"><ele>308.0</ele><time>2026-03-29T08:46:49.999Z</time></trkpt><trkpt lat="43.34816502580586" lon="11.399028050009974"><ele>308.4</ele><time>2026-03-29T08:46:50.999Z</time></trkpt><trkpt lat="43.34825381526542" lon="11.399013190521268"><ele>308.8</ele><time>2026-03-29T08:46:51.999Z</time></trkpt><trkpt lat="43.34834390158282" lon="11.399005956090367"><ele>309.2</ele><time>2026-03-29T08:46:53.999Z</time></trkpt><trkpt lat="43.34841151767549" lon="11.398990655233044"><ele>309.6</ele><time>2026-03-29T08:46:56.999Z</time></trkpt><trkpt lat="43.34836725056974" lon="11.39877217559629"><ele>310.0</ele><time>2026-03-29T08:47:00.999Z</time></trkpt><trkpt lat="43.34833941643508" lon="11.398673387744"><ele>309.16666666666663</ele><time>2026-03-29T08:47:01.999Z</time></trkpt><trkpt lat="43.348291205141955" lon="11.39858334123633"><ele>308.3333333333333</ele><time>2026-03-29T08:47:02.999Z</time></trkpt><trkpt lat="43.348215975221436" lon="11.398486341257563"><ele>307.5</ele><time>2026-03-29T08:47:04.999Z</time></trkpt><trkpt lat="43.34810647566291" lon="11.398454854080398"><ele>306.6666666666667</ele><time>2026-03-29T08:47:06.999Z</time></trkpt><trkpt lat="43.34804212507288" lon="11.3984858937373"><ele>305.83333333333337</ele><time>2026-03-29T08:47:07.999Z</time></trkpt><trkpt lat="43.347963701162854" lon="11.398518823126976"><ele>305.0</ele><time>2026-03-29T08:47:08.999Z</time></trkpt><trkpt lat="43.347873157837896" lon="11.398573491133833"><ele>303.5</ele><time>2026-03-29T08:47:09.999Z</time></trkpt><trkpt lat="43.34777061162017" lon="11.398624355971055"><ele>302.0</ele><time>2026-03-29T08:47:11Z</time></trkpt><trkpt lat="43.34765988162596" lon="11.398657221355863"><ele>300.5</ele><time>2026-03-29T08:47:12Z</time></trkpt><trkpt lat="43.34752490811647" lon="11.398656656463295"><ele>299.0</ele><time>2026-03-29T08:47:13Z</time></trkpt><trkpt lat="43.34738488613615" lon="11.398695790651367"><ele>299.0</ele><time>2026-03-29T08:47:14Z</time></trkpt><trkpt lat="43.34723363610211" lon="11.398720263051771"><ele>299.0</ele><time>2026-03-29T08:47:15Z</time></trkpt><trkpt lat="43.34710245117444" lon="11.39874314658491"><ele>299.0</ele><time>2026-03-29T08:47:16Z</time></trkpt><trkpt lat="43.346989335556025" lon="11.398761495359047"><ele>299.0</ele><time>2026-03-29T08:47:17Z</time></trkpt><trkpt lat="43.34688906802107" lon="11.39880184899573"><ele>299.59999999999997</ele><time>2026-03-29T08:47:18Z</time></trkpt><trkpt lat="43.3468008904652" lon="11.398873129804326"><ele>300.2</ele><time>2026-03-29T08:47:19Z</time></trkpt><trkpt lat="43.34672501643436" lon="11.398971012981548"><ele>300.79999999999995</ele><time>2026-03-29T08:47:20Z</time></trkpt><trkpt lat="43.34665408945451" lon="11.399081178510917"><ele>301.4</ele><time>2026-03-29T08:47:21Z</time></trkpt><trkpt lat="43.346575670727105" lon="11.399213577680788"><ele>302.0</ele><time>2026-03-29T08:47:22Z</time></trkpt><trkpt lat="43.346484981532555" lon="11.399351620374718"><ele>302.0</ele><time>2026-03-29T08:47:23Z</time></trkpt><trkpt lat="43.3464031924741" lon="11.39948371765715"><ele>302.0</ele><time>2026-03-29T08:47:24Z</time></trkpt><trkpt lat="43.346328250210625" lon="11.39960474339975"><ele>302.0</ele><time>2026-03-29T08:47:25Z</time></trkpt><trkpt lat="43.34625634852536" lon="11.399717388885419"><ele>302.0</ele><time>2026-03-29T08:47:26Z</time></trkpt><trkpt lat="43.34618143346442" lon="11.399831116554108"><ele>301.25</ele><time>2026-03-29T08:47:27Z</time></trkpt><trkpt lat="43.34610287758873" lon="11.399953001944365"><ele>300.5</ele><time>2026-03-29T08:47:28Z</time></trkpt><trkpt lat="43.3460182207844" lon="11.400089082546055"><ele>299.75</ele><time>2026-03-29T08:47:29Z</time></trkpt><trkpt lat="43.34592805166134" lon="11.4002265136088"><ele>299.0</ele><time>2026-03-29T08:47:30Z</time></trkpt><trkpt lat="43.345832065824716" lon="11.400353680243288"><ele>299.0</ele><time>2026-03-29T08:47:31Z</time></trkpt><trkpt lat="43.34575519283486" lon="11.400460551208214"><ele>299.0</ele><time>2026-03-29T08:47:32Z</time></trkpt><trkpt lat="43.34568535600883" lon="11.400564177661554"><ele>299.0</ele><time>2026-03-29T08:47:33Z</time></trkpt><trkpt lat="43.34563015280122" lon="11.400661440486923"><ele>299.0</ele><time>2026-03-29T08:47:34Z</time></trkpt><trkpt lat="43.34556247730781" lon="11.400752131373213"><ele>299.0</ele><time>2026-03-29T08:47:35Z</time></trkpt><trkpt lat="43.34550298968582" lon="11.40084980060244"><ele>299.0</ele><time>2026-03-29T08:47:36Z</time></trkpt><trkpt lat="43.345454605377704" lon="11.400928468319693"><ele>299.0</ele><time>2026-03-29T08:47:37Z</time></trkpt><trkpt lat="43.34540129928012" lon="11.400999470836915"><ele>299.0</ele><time>2026-03-29T08:47:38Z</time></trkpt><trkpt lat="43.34534990157177" lon="11.40105816142696"><ele>299.0</ele><time>2026-03-29T08:47:39Z</time></trkpt><trkpt lat="43.345276247569615" lon="11.40111812721489"><ele>299.0</ele><time>2026-03-29T08:47:40Z</time></trkpt><trkpt lat="43.34518925568497" lon="11.401137139845408"><ele>299.0</ele><time>2026-03-29T08:47:41Z</time></trkpt><trkpt lat="43.34511562754687" lon="11.401191661329193"><ele>299.0</ele><time>2026-03-29T08:47:42Z</time></trkpt><trkpt lat="43.34502789462203" lon="11.401223639775095"><ele>299.0</ele><time>2026-03-29T08:47:43Z</time></trkpt><trkpt lat="43.34493728788055" lon="11.40125660954249"><ele>299.0</ele><time>2026-03-29T08:47:44Z</time></trkpt><trkpt lat="43.34483686795719" lon="11.401292639196994"><ele>299.0</ele><time>2026-03-29T08:47:45Z</time></trkpt><trkpt lat="43.34473182740494" lon="11.401318707544442"><ele>299.0</ele><time>2026-03-29T08:47:46Z</time></trkpt><trkpt lat="43.344637442673495" lon="11.40132961199596"><ele>298.59999999999997</ele><time>2026-03-29T08:47:47Z</time></trkpt><trkpt lat="43.34453086771531" lon="11.401308053904506"><ele>298.2</ele><time>2026-03-29T08:47:48Z</time></trkpt><trkpt lat="43.34441728015179" lon="11.401318474369228"><ele>297.79999999999995</ele><time>2026-03-29T08:47:49Z</time></trkpt><trkpt lat="43.344318748510084" lon="11.40132662523148"><ele>297.4</ele><time>2026-03-29T08:47:50Z</time></trkpt><trkpt lat="43.3442268559134" lon="11.401326753793665"><ele>297.0</ele><time>2026-03-29T08:47:51Z</time></trkpt><trkpt lat="43.344133260836635" lon="11.401349226423857"><ele>296.0</ele><time>2026-03-29T08:47:52Z</time></trkpt><trkpt lat="43.34403385677704" lon="11.401382182501758"><ele>295.0</ele><time>2026-03-29T08:47:53Z</time></trkpt><trkpt lat="43.343924683927554" lon="11.401434396235258"><ele>294.0</ele><time>2026-03-29T08:47:54Z</time></trkpt><trkpt lat="43.34380304957432" lon="11.401505523429792"><ele>293.0</ele><time>2026-03-29T08:47:55Z</time></trkpt><trkpt lat="43.343695937059266" lon="11.401565272192347"><ele>292.8</ele><time>2026-03-29T08:47:56Z</time></trkpt><trkpt lat="43.34360400864967" lon="11.401621277805042"><ele>292.6</ele><time>2026-03-29T08:47:57Z</time></trkpt><trkpt lat="43.343497956687386" lon="11.40168903605425"><ele>292.4</ele><time>2026-03-29T08:47:58Z</time></trkpt><trkpt lat="43.343403220233775" lon="11.40175598034204"><ele>292.2</ele><time>2026-03-29T08:47:59Z</time></trkpt><trkpt lat="43.34332414162913" lon="11.401829066852263"><ele>292.0</ele><time>2026-03-29T08:48:00Z</time></trkpt><trkpt lat="43.34324670167677" lon="11.401922093304643"><ele>292.0</ele><time>2026-03-29T08:48:01Z</time></trkpt><trkpt lat="43.34319080295909" lon="11.402032324957794"><ele>292.0</ele><time>2026-03-29T08:48:02Z</time></trkpt><trkpt lat="43.343146785088884" lon="11.40215196932656"><ele>292.0</ele><time>2026-03-29T08:48:03Z</time></trkpt><trkpt lat="43.343101649520726" lon="11.402303933332716"><ele>292.0</ele><time>2026-03-29T08:48:04Z</time></trkpt><trkpt lat="43.34306971058015" lon="11.402456972951418"><ele>292.0</ele><time>2026-03-29T08:48:05Z</time></trkpt><trkpt lat="43.343055294013965" lon="11.402583682672299"><ele>291.4</ele><time>2026-03-29T08:48:06Z</time></trkpt><trkpt lat="43.34305321832327" lon="11.402696010132626"><ele>290.79999999999995</ele><time>2026-03-29T08:48:07Z</time></trkpt><trkpt lat="43.3430464441666" lon="11.402814812979342"><ele>290.2</ele><time>2026-03-29T08:48:08Z</time></trkpt><trkpt lat="43.343030521606764" lon="11.402942900116967"><ele>289.59999999999997</ele><time>2026-03-29T08:48:09Z</time></trkpt><trkpt lat="43.342993700392576" lon="11.403078312919767"><ele>289.0</ele><time>2026-03-29T08:48:10Z</time></trkpt><trkpt lat="43.34294082493633" lon="11.40318825396108"><ele>289.0</ele><time>2026-03-29T08:48:11Z</time></trkpt><trkpt lat="43.342871824182936" lon="11.40326595904601"><ele>289.0</ele><time>2026-03-29T08:48:12Z</time></trkpt><trkpt lat="43.342791583981246" lon="11.40330809012576"><ele>289.0</ele><time>2026-03-29T08:48:13Z</time></trkpt><trkpt lat="43.34269531330757" lon="11.403295796376174"><ele>289.0</ele><time>2026-03-29T08:48:14Z</time></trkpt><trkpt lat="43.34258672752004" lon="11.403321569864476"><ele>289.0</ele><time>2026-03-29T08:48:15Z</time></trkpt><trkpt lat="43.34248290505674" lon="11.403336214500666"><ele>289.0</ele><time>2026-03-29T08:48:16Z</time></trkpt><trkpt lat="43.34239318293496" lon="11.403373157641273"><ele>289.0</ele><time>2026-03-29T08:48:17Z</time></trkpt><trkpt lat="43.34230533590311" lon="11.403440542858961"><ele>289.0</ele><time>2026-03-29T08:48:18Z</time></trkpt><trkpt lat="43.34221365579579" lon="11.403543813992213"><ele>289.0</ele><time>2026-03-29T08:48:19Z</time></trkpt><trkpt lat="43.342115192498554" lon="11.40366302049669"><ele>289.0</ele><time>2026-03-29T08:48:20Z</time></trkpt><trkpt lat="43.34201280224623" lon="11.403781450362551"><ele>287.75</ele><time>2026-03-29T08:48:21Z</time></trkpt><trkpt lat="43.341912399935694" lon="11.403894389070999"><ele>286.5</ele><time>2026-03-29T08:48:22Z</time></trkpt><trkpt lat="43.341818196142576" lon="11.404000696683296"><ele>285.25</ele><time>2026-03-29T08:48:23Z</time></trkpt><trkpt lat="43.34171566280013" lon="11.404116475358693"><ele>284.0</ele><time>2026-03-29T08:48:24Z</time></trkpt><trkpt lat="43.341620058726754" lon="11.404221443627675"><ele>284.0</ele><time>2026-03-29T08:48:25Z</time></trkpt><trkpt lat="43.34153719281115" lon="11.404314778577143"><ele>284.0</ele><time>2026-03-29T08:48:26Z</time></trkpt><trkpt lat="43.34145669488718" lon="11.40441084458417"><ele>284.0</ele><time>2026-03-29T08:48:27Z</time></trkpt><trkpt lat="43.34137452347595" lon="11.404514935964329"><ele>284.0</ele><time>2026-03-29T08:48:28Z</time></trkpt><trkpt lat="43.34129023961202" lon="11.404635734510576"><ele>284.0</ele><time>2026-03-29T08:48:28.999Z</time></trkpt><trkpt lat="43.341214155707135" lon="11.404771265042248"><ele>285.2</ele><time>2026-03-29T08:48:29.999Z</time></trkpt><trkpt lat="43.341139316129265" lon="11.404897558590111"><ele>286.4</ele><time>2026-03-29T08:48:30.999Z</time></trkpt><trkpt lat="43.34106999951687" lon="11.40500804715604"><ele>287.6</ele><time>2026-03-29T08:48:31.999Z</time></trkpt><trkpt lat="43.34099637969742" lon="11.405116021416795"><ele>288.8</ele><time>2026-03-29T08:48:32.999Z</time></trkpt><trkpt lat="43.340917319547835" lon="11.405212156597166"><ele>290.0</ele><time>2026-03-29T08:48:33.999Z</time></trkpt><trkpt lat="43.34083001113282" lon="11.405293935307709"><ele>290.0</ele><time>2026-03-29T08:48:34.999Z</time></trkpt><trkpt lat="43.34072674371781" lon="11.40536957999632"><ele>290.0</ele><time>2026-03-29T08:48:35.999Z</time></trkpt><trkpt lat="43.340606178935495" lon="11.405446131137072"><ele>290.0</ele><time>2026-03-29T08:48:36.999Z</time></trkpt><trkpt lat="43.340503678195" lon="11.405506638448097"><ele>290.0</ele><time>2026-03-29T08:48:37.999Z</time></trkpt><trkpt lat="43.34041219034876" lon="11.405556733239703"><ele>290.0</ele><time>2026-03-29T08:48:38.999Z</time></trkpt><trkpt lat="43.34033087355633" lon="11.40560749536507"><ele>290.0</ele><time>2026-03-29T08:48:39.999Z</time></trkpt><trkpt lat="43.34024713114247" lon="11.405655934153486"><ele>290.0</ele><time>2026-03-29T08:48:40.999Z</time></trkpt><trkpt lat="43.34016425793791" lon="11.40570714268028"><ele>290.0</ele><time>2026-03-29T08:48:41.999Z</time></trkpt><trkpt lat="43.34008369041404" lon="11.405756999337573"><ele>290.0</ele><time>2026-03-29T08:48:42.999Z</time></trkpt><trkpt lat="43.34000146986938" lon="11.405807977357355"><ele>290.0</ele><time>2026-03-29T08:48:43.999Z</time></trkpt><trkpt lat="43.33992974948089" lon="11.40585236324202"><ele>290.0</ele><time>2026-03-29T08:48:44.999Z</time></trkpt><trkpt lat="43.33986938877806" lon="11.405892591774547"><ele>290.0</ele><time>2026-03-29T08:48:45.999Z</time></trkpt><trkpt lat="43.33980445445176" lon="11.405933006998497"><ele>290.0</ele><time>2026-03-29T08:48:46.999Z</time></trkpt><trkpt lat="43.33973159688595" lon="11.405980588116876"><ele>290.0</ele><time>2026-03-29T08:48:47.999Z</time></trkpt><trkpt lat="43.339667262290256" lon="11.40603221167114"><ele>290.0</ele><time>2026-03-29T08:48:48.999Z</time></trkpt><trkpt lat="43.33960824970212" lon="11.406104088082945"><ele>289.5</ele><time>2026-03-29T08:48:49.999Z</time></trkpt><trkpt lat="43.33955650723033" lon="11.406187764829115"><ele>289.0</ele><time>2026-03-29T08:48:50.999Z</time></trkpt><trkpt lat="43.33951726984375" lon="11.4062834933486"><ele>288.5</ele><time>2026-03-29T08:48:51.999Z</time></trkpt><trkpt lat="43.33947502336812" lon="11.406380064673083"><ele>288.0</ele><time>2026-03-29T08:48:52.999Z</time></trkpt><trkpt lat="43.339435566696245" lon="11.406481671778423"><ele>287.5</ele><time>2026-03-29T08:48:53.999Z</time></trkpt><trkpt lat="43.33938157523226" lon="11.406587493472868"><ele>287.0</ele><time>2026-03-29T08:48:54.999Z</time></trkpt><trkpt lat="43.33931020904596" lon="11.4067031608366"><ele>287.0</ele><time>2026-03-29T08:48:55.999Z</time></trkpt><trkpt lat="43.33922102486005" lon="11.406807121104835"><ele>287.0</ele><time>2026-03-29T08:48:56.999Z</time></trkpt><trkpt lat="43.33912548342173" lon="11.40692308326972"><ele>287.0</ele><time>2026-03-29T08:48:57.999Z</time></trkpt><trkpt lat="43.339020407515264" lon="11.407044105697777"><ele>287.0</ele><time>2026-03-29T08:48:58.999Z</time></trkpt><trkpt lat="43.33891392710231" lon="11.407172902554525"><ele>287.4</ele><time>2026-03-29T08:48:59.999Z</time></trkpt><trkpt lat="43.33882899232473" lon="11.407279912318502"><ele>287.79999999999995</ele><time>2026-03-29T08:49:00.999Z</time></trkpt><trkpt lat="43.3387466951731" lon="11.407377724222178"><ele>288.2</ele><time>2026-03-29T08:49:01.999Z</time></trkpt><trkpt lat="43.3386598973222" lon="11.407472139831015"><ele>288.59999999999997</ele><time>2026-03-29T08:49:02.999Z</time></trkpt><trkpt lat="43.33857431445769" lon="11.407547436548164"><ele>289.0</ele><time>2026-03-29T08:49:03.999Z</time></trkpt><trkpt lat="43.33848112889614" lon="11.40762659719361"><ele>289.0</ele><time>2026-03-29T08:49:04.999Z</time></trkpt><trkpt lat="43.33839048268933" lon="11.407696074348568"><ele>289.0</ele><time>2026-03-29T08:49:05.999Z</time></trkpt><trkpt lat="43.3383161912683" lon="11.40774670593413"><ele>289.0</ele><time>2026-03-29T08:49:06.999Z</time></trkpt><trkpt lat="43.338243148830436" lon="11.40778908401961"><ele>289.0</ele><time>2026-03-29T08:49:07.999Z</time></trkpt><trkpt lat="43.33816206630506" lon="11.407819253642602"><ele>289.0</ele><time>2026-03-29T08:49:08.999Z</time></trkpt><trkpt lat="43.33808781768425" lon="11.40782173570474"><ele>289.0</ele><time>2026-03-29T08:49:09.999Z</time></trkpt><trkpt lat="43.338015657289134" lon="11.40779035601577"><ele>289.5</ele><time>2026-03-29T08:49:10.999Z</time></trkpt><trkpt lat="43.33793841441815" lon="11.407726283681196"><ele>290.0</ele><time>2026-03-29T08:49:11.999Z</time></trkpt><trkpt lat="43.33786014640538" lon="11.407619724932651"><ele>290.5</ele><time>2026-03-29T08:49:12.999Z</time></trkpt><trkpt lat="43.33776007776079" lon="11.407519758377493"><ele>291.0</ele><time>2026-03-29T08:49:13.999Z</time></trkpt><trkpt lat="43.33765593586674" lon="11.407416665671056"><ele>291.0</ele><time>2026-03-29T08:49:14.999Z</time></trkpt><trkpt lat="43.3375606001612" lon="11.407339594794973"><ele>291.0</ele><time>2026-03-29T08:49:15.999Z</time></trkpt><trkpt lat="43.33746740593065" lon="11.407263904053135"><ele>291.0</ele><time>2026-03-29T08:49:17Z</time></trkpt><trkpt lat="43.33736290429747" lon="11.40715307268373"><ele>291.0</ele><time>2026-03-29T08:49:18Z</time></trkpt><trkpt lat="43.33724210959475" lon="11.407060075587768"><ele>291.25</ele><time>2026-03-29T08:49:19Z</time></trkpt><trkpt lat="43.33712342609549" lon="11.406972903133948"><ele>291.5</ele><time>2026-03-29T08:49:20Z</time></trkpt><trkpt lat="43.337016492091706" lon="11.40692347512488"><ele>291.75</ele><time>2026-03-29T08:49:21Z</time></trkpt><trkpt lat="43.3369068552173" lon="11.406879907772234"><ele>292.0</ele><time>2026-03-29T08:49:22Z</time></trkpt><trkpt lat="43.33680724380837" lon="11.406831366238004"><ele>292.0</ele><time>2026-03-29T08:49:23Z</time></trkpt><trkpt lat="43.336689883405505" lon="11.406780822477154"><ele>292.0</ele><time>2026-03-29T08:49:24Z</time></trkpt><trkpt lat="43.336572058726915" lon="11.406725245779757"><ele>292.0</ele><time>2026-03-29T08:49:25Z</time></trkpt><trkpt lat="43.33647408390353" lon="11.406680864122684"><ele>292.0</ele><time>2026-03-29T08:49:26Z</time></trkpt><trkpt lat="43.33638777396323" lon="11.40665791711949"><ele>292.0</ele><time>2026-03-29T08:49:27Z</time></trkpt><trkpt lat="43.336297078400555" lon="11.40664256171097"><ele>293.4</ele><time>2026-03-29T08:49:28Z</time></trkpt><trkpt lat="43.33620221501663" lon="11.406653834860057"><ele>294.79999999999995</ele><time>2026-03-29T08:49:29Z</time></trkpt><trkpt lat="43.33609926281052" lon="11.406687681160543"><ele>296.2</ele><time>2026-03-29T08:49:30Z</time></trkpt><trkpt lat="43.33598979658997" lon="11.406751007321247"><ele>297.59999999999997</ele><time>2026-03-29T08:49:31Z</time></trkpt><trkpt lat="43.33588592197832" lon="11.406845566183273"><ele>299.0</ele><time>2026-03-29T08:49:32Z</time></trkpt><trkpt lat="43.33578981884567" lon="11.406960982588592"><ele>299.0</ele><time>2026-03-29T08:49:33Z</time></trkpt><trkpt lat="43.33569953429977" lon="11.407082056014634"><ele>299.0</ele><time>2026-03-29T08:49:34Z</time></trkpt><trkpt lat="43.335599279640036" lon="11.407202090562937"><ele>299.0</ele><time>2026-03-29T08:49:35Z</time></trkpt><trkpt lat="43.33549053403454" lon="11.407307910589164"><ele>299.0</ele><time>2026-03-29T08:49:36Z</time></trkpt><trkpt lat="43.33538769154529" lon="11.40736860045478"><ele>298.5</ele><time>2026-03-29T08:49:37Z</time></trkpt><trkpt lat="43.33529163171494" lon="11.407387566308278"><ele>298.0</ele><time>2026-03-29T08:49:38Z</time></trkpt><trkpt lat="43.335175401527124" lon="11.407364962865163"><ele>297.5</ele><time>2026-03-29T08:49:39Z</time></trkpt><trkpt lat="43.335052037420176" lon="11.407402853556853"><ele>297.0</ele><time>2026-03-29T08:49:40Z</time></trkpt><trkpt lat="43.33493657004698" lon="11.407437691551166"><ele>297.0</ele><time>2026-03-29T08:49:41Z</time></trkpt><trkpt lat="43.33483428057961" lon="11.4074659905961"><ele>297.0</ele><time>2026-03-29T08:49:42Z</time></trkpt><trkpt lat="43.33472853157628" lon="11.407462622955293"><ele>297.0</ele><time>2026-03-29T08:49:43Z</time></trkpt><trkpt lat="43.33463757828435" lon="11.407464728459562"><ele>297.0</ele><time>2026-03-29T08:49:44Z</time></trkpt><trkpt lat="43.334548139275434" lon="11.407471856253387"><ele>297.0</ele><time>2026-03-29T08:49:45Z</time></trkpt><trkpt lat="43.33447187353315" lon="11.407473438797437"><ele>295.6</ele><time>2026-03-29T08:49:46Z</time></trkpt><trkpt lat="43.33436473785353" lon="11.407456730316865"><ele>294.2</ele><time>2026-03-29T08:49:48Z</time></trkpt><trkpt lat="43.33426880737029" lon="11.4073840647391"><ele>292.8</ele><time>2026-03-29T08:49:50Z</time></trkpt><trkpt lat="43.33424467695484" lon="11.407296840448366"><ele>291.4</ele><time>2026-03-29T08:49:51Z</time></trkpt><trkpt lat="43.334231224339334" lon="11.40717941507148"><ele>290.0</ele><time>2026-03-29T08:49:52Z</time></trkpt><trkpt lat="43.33422038199829" lon="11.407046316052444"><ele>289.8</ele><time>2026-03-29T08:49:53Z</time></trkpt><trkpt lat="43.334208290312866" lon="11.406938369076508"><ele>289.6</ele><time>2026-03-29T08:49:54Z</time></trkpt><trkpt lat="43.33419661502502" lon="11.406827964376975"><ele>289.4</ele><time>2026-03-29T08:49:55Z</time></trkpt><trkpt lat="43.334177110129836" lon="11.406710162786768"><ele>289.2</ele><time>2026-03-29T08:49:56Z</time></trkpt><trkpt lat="43.33416046558931" lon="11.406574934668262"><ele>289.0</ele><time>2026-03-29T08:49:57Z</time></trkpt><trkpt lat="43.33414323539439" lon="11.40643261665814"><ele>288.4</ele><time>2026-03-29T08:49:58Z</time></trkpt><trkpt lat="43.33412452103485" lon="11.406294182426253"><ele>287.79999999999995</ele><time>2026-03-29T08:49:59Z</time></trkpt><trkpt lat="43.33410573594442" lon="11.406160058383643"><ele>287.20000000000005</ele><time>2026-03-29T08:50:00Z</time></trkpt><trkpt lat="43.33408858934839" lon="11.40603808837682"><ele>286.6</ele><time>2026-03-29T08:50:01Z</time></trkpt><trkpt lat="43.3340892920848" lon="11.405907966187277"><ele>286.0</ele><time>2026-03-29T08:50:02Z</time></trkpt><trkpt lat="43.334096446953346" lon="11.405776210094327"><ele>286.0</ele><time>2026-03-29T08:50:03Z</time></trkpt><trkpt lat="43.33410651464436" lon="11.4056288549481"><ele>286.0</ele><time>2026-03-29T08:50:04Z</time></trkpt><trkpt lat="43.33410821299753" lon="11.405445634388098"><ele>286.0</ele><time>2026-03-29T08:50:05Z</time></trkpt><trkpt lat="43.334128863495046" lon="11.405236677827762"><ele>286.0</ele><time>2026-03-29T08:50:06Z</time></trkpt><trkpt lat="43.33414977805911" lon="11.405055740048326"><ele>285.2</ele><time>2026-03-29T08:50:07Z</time></trkpt><trkpt lat="43.3341549408231" lon="11.40489848587943"><ele>284.40000000000003</ele><time>2026-03-29T08:50:08Z</time></trkpt><trkpt lat="43.334169012401986" lon="11.40475110513731"><ele>283.6</ele><time>2026-03-29T08:50:09Z</time></trkpt><trkpt lat="43.334183247806635" lon="11.404592185692893"><ele>282.8</ele><time>2026-03-29T08:50:10Z</time></trkpt><trkpt lat="43.334193362769646" lon="11.404449284528338"><ele>282.0</ele><time>2026-03-29T08:50:11Z</time></trkpt><trkpt lat="43.33420224113953" lon="11.404327035768842"><ele>282.0</ele><time>2026-03-29T08:50:12Z</time></trkpt><trkpt lat="43.33420518796069" lon="11.404223583292252"><ele>282.0</ele><time>2026-03-29T08:50:13Z</time></trkpt><trkpt lat="43.33419105249813" lon="11.404071105428702"><ele>282.0</ele><time>2026-03-29T08:50:15Z</time></trkpt><trkpt lat="43.334149446440634" lon="11.404001001778589"><ele>282.0</ele><time>2026-03-29T08:50:16Z</time></trkpt><trkpt lat="43.33407360785369" lon="11.403964220653085"><ele>282.0</ele><time>2026-03-29T08:50:17Z</time></trkpt><trkpt lat="43.333977338710646" lon="11.404014094572558"><ele>282.0</ele><time>2026-03-29T08:50:18Z</time></trkpt><trkpt lat="43.333890126056595" lon="11.404080868417914"><ele>281.5</ele><time>2026-03-29T08:50:19Z</time></trkpt><trkpt lat="43.333773659915195" lon="11.404143123028073"><ele>281.0</ele><time>2026-03-29T08:50:20Z</time></trkpt><trkpt lat="43.33363750104347" lon="11.404211539965232"><ele>280.5</ele><time>2026-03-29T08:50:21Z</time></trkpt><trkpt lat="43.333535943005295" lon="11.40428239418923"><ele>280.0</ele><time>2026-03-29T08:50:22Z</time></trkpt><trkpt lat="43.33343918710852" lon="11.4043313030705"><ele>280.0</ele><time>2026-03-29T08:50:23Z</time></trkpt><trkpt lat="43.333335509538834" lon="11.40438206491975"><ele>280.0</ele><time>2026-03-29T08:50:24Z</time></trkpt><trkpt lat="43.33321906692902" lon="11.40443952984351"><ele>280.0</ele><time>2026-03-29T08:50:25Z</time></trkpt><trkpt lat="43.333091650823945" lon="11.404503602856895"><ele>280.0</ele><time>2026-03-29T08:50:26Z</time></trkpt><trkpt lat="43.33298434450175" lon="11.404562374893985"><ele>280.25</ele><time>2026-03-29T08:50:27Z</time></trkpt><trkpt lat="43.33288113066481" lon="11.404604076242052"><ele>280.5</ele><time>2026-03-29T08:50:28Z</time></trkpt><trkpt lat="43.332783169936036" lon="11.404663862030436"><ele>280.75</ele><time>2026-03-29T08:50:29Z</time></trkpt><trkpt lat="43.3326717472739" lon="11.404729036509439"><ele>281.0</ele><time>2026-03-29T08:50:30Z</time></trkpt><trkpt lat="43.332561681390175" lon="11.404789278705941"><ele>280.25</ele><time>2026-03-29T08:50:31Z</time></trkpt><trkpt lat="43.33245830196593" lon="11.404843735410346"><ele>279.5</ele><time>2026-03-29T08:50:31.999Z</time></trkpt><trkpt lat="43.33233598919501" lon="11.404906417518724"><ele>278.75</ele><time>2026-03-29T08:50:32.999Z</time></trkpt><trkpt lat="43.332206878981715" lon="11.404959438595633"><ele>278.0</ele><time>2026-03-29T08:50:33.999Z</time></trkpt><trkpt lat="43.332076778210784" lon="11.4050421708525"><ele>278.0</ele><time>2026-03-29T08:50:34.999Z</time></trkpt><trkpt lat="43.3319512566069" lon="11.40510806188567"><ele>278.0</ele><time>2026-03-29T08:50:35.999Z</time></trkpt><trkpt lat="43.33184082161683" lon="11.405159656375865"><ele>278.0</ele><time>2026-03-29T08:50:36.999Z</time></trkpt><trkpt lat="43.33172192533174" lon="11.405201085407356"><ele>278.0</ele><time>2026-03-29T08:50:37.999Z</time></trkpt><trkpt lat="43.331596768344816" lon="11.405229740881824"><ele>278.0</ele><time>2026-03-29T08:50:38.999Z</time></trkpt><trkpt lat="43.331457667650405" lon="11.405273425229394"><ele>278.0</ele><time>2026-03-29T08:50:39.999Z</time></trkpt><trkpt lat="43.33131168454013" lon="11.405306886853342"><ele>278.0</ele><time>2026-03-29T08:50:40.999Z</time></trkpt><trkpt lat="43.331200799705115" lon="11.405334075196158"><ele>278.0</ele><time>2026-03-29T08:50:41.999Z</time></trkpt><trkpt lat="43.33107696366987" lon="11.405363147192372"><ele>276.5</ele><time>2026-03-29T08:50:42.999Z</time></trkpt><trkpt lat="43.33094711217249" lon="11.405395819018917"><ele>275.0</ele><time>2026-03-29T08:50:43.999Z</time></trkpt><trkpt lat="43.330822420283596" lon="11.405426679783591"><ele>273.5</ele><time>2026-03-29T08:50:44.999Z</time></trkpt><trkpt lat="43.33070976810593" lon="11.405462905827195"><ele>272.0</ele><time>2026-03-29T08:50:45.999Z</time></trkpt><trkpt lat="43.33060415844491" lon="11.405498670656648"><ele>270.0</ele><time>2026-03-29T08:50:46.999Z</time></trkpt><trkpt lat="43.3304899722058" lon="11.405550337941317"><ele>268.0</ele><time>2026-03-29T08:50:47.999Z</time></trkpt><trkpt lat="43.33037220267016" lon="11.405597097320932"><ele>266.0</ele><time>2026-03-29T08:50:48.999Z</time></trkpt><trkpt lat="43.330247319094326" lon="11.40565240095152"><ele>264.0</ele><time>2026-03-29T08:50:49.999Z</time></trkpt><trkpt lat="43.33012241921651" lon="11.405695592063857"><ele>264.0</ele><time>2026-03-29T08:50:50.999Z</time></trkpt><trkpt lat="43.33001193391932" lon="11.405759697353838"><ele>264.0</ele><time>2026-03-29T08:50:51.999Z</time></trkpt><trkpt lat="43.3299141745162" lon="11.405844448126587"><ele>264.0</ele><time>2026-03-29T08:50:52.999Z</time></trkpt><trkpt lat="43.32981097433341" lon="11.405900019363731"><ele>264.0</ele><time>2026-03-29T08:50:53.999Z</time></trkpt><trkpt lat="43.32971400408454" lon="11.405985498298994"><ele>263.0</ele><time>2026-03-29T08:50:54.999Z</time></trkpt><trkpt lat="43.32961364094253" lon="11.406068038887803"><ele>262.0</ele><time>2026-03-29T08:50:55.999Z</time></trkpt><trkpt lat="43.329525876686695" lon="11.406148221769083"><ele>261.0</ele><time>2026-03-29T08:50:56.999Z</time></trkpt><trkpt lat="43.329446066944776" lon="11.40623368265151"><ele>260.0</ele><time>2026-03-29T08:50:57.999Z</time></trkpt><trkpt lat="43.32937167232088" lon="11.406319538476454"><ele>259.0</ele><time>2026-03-29T08:50:58.999Z</time></trkpt><trkpt lat="43.32929409908466" lon="11.406418187698808"><ele>258.75</ele><time>2026-03-29T08:50:59.999Z</time></trkpt><trkpt lat="43.329212770319685" lon="11.40652815460947"><ele>258.5</ele><time>2026-03-29T08:51:00.999Z</time></trkpt><trkpt lat="43.32912280465988" lon="11.406635604259167"><ele>258.25</ele><time>2026-03-29T08:51:01.999Z</time></trkpt><trkpt lat="43.329036857236765" lon="11.406748300214035"><ele>258.0</ele><time>2026-03-29T08:51:02.999Z</time></trkpt><trkpt lat="43.32894126927416" lon="11.406854159708844"><ele>257.75</ele><time>2026-03-29T08:51:03.999Z</time></trkpt><trkpt lat="43.32884951277652" lon="11.40696515387903"><ele>257.5</ele><time>2026-03-29T08:51:04.999Z</time></trkpt><trkpt lat="43.328757120964035" lon="11.407075526773468"><ele>257.25</ele><time>2026-03-29T08:51:05.999Z</time></trkpt><trkpt lat="43.328668393229925" lon="11.407173087285765"><ele>257.0</ele><time>2026-03-29T08:51:06.999Z</time></trkpt><trkpt lat="43.328585732944" lon="11.407266432359691"><ele>256.0</ele><time>2026-03-29T08:51:07.999Z</time></trkpt><trkpt lat="43.32850652485343" lon="11.40737054329473"><ele>255.0</ele><time>2026-03-29T08:51:08.999Z</time></trkpt><trkpt lat="43.32841945044225" lon="11.40747677099477"><ele>254.0</ele><time>2026-03-29T08:51:09.999Z</time></trkpt><trkpt lat="43.32832630029347" lon="11.407581384750232"><ele>253.0</ele><time>2026-03-29T08:51:10.999Z</time></trkpt><trkpt lat="43.32823533954412" lon="11.407683774049582"><ele>252.99999999999997</ele><time>2026-03-29T08:51:11.999Z</time></trkpt><trkpt lat="43.328168656153345" lon="11.407766528047304"><ele>253.0</ele><time>2026-03-29T08:51:12.999Z</time></trkpt><trkpt lat="43.32811715013239" lon="11.407825420094351"><ele>253.0</ele><time>2026-03-29T08:51:13.999Z</time></trkpt><trkpt lat="43.32805270819711" lon="11.407905016789893"><ele>253.0</ele><time>2026-03-29T08:51:15.999Z</time></trkpt><trkpt lat="43.328003761324645" lon="11.407975308992233"><ele>252.99999999999997</ele><time>2026-03-29T08:52:26Z</time></trkpt><trkpt lat="43.32793771345977" lon="11.408061373809128"><ele>253.0</ele><time>2026-03-29T08:54:48.999Z</time></trkpt><trkpt lat="43.32782685373033" lon="11.408164424233169"><ele>253.0</ele><time>2026-03-29T08:54:50.999Z</time></trkpt><trkpt lat="43.3277695847848" lon="11.408230735595824"><ele>253.0</ele><time>2026-03-29T08:54:51.999Z</time></trkpt><trkpt lat="43.32770731956513" lon="11.408301991811962"><ele>253.0</ele><time>2026-03-29T08:54:52.999Z</time></trkpt><trkpt lat="43.32763314986934" lon="11.408385701771348"><ele>253.0</ele><time>2026-03-29T08:54:53.999Z</time></trkpt><trkpt lat="43.327540627960744" lon="11.40849012447354"><ele>253.0</ele><time>2026-03-29T08:54:54.999Z</time></trkpt><trkpt lat="43.32746921941849" lon="11.408596821622966"><ele>253.0</ele><time>2026-03-29T08:54:55.999Z</time></trkpt><trkpt lat="43.327391009996305" lon="11.40868066638797"><ele>253.0</ele><time>2026-03-29T08:54:56.999Z</time></trkpt><trkpt lat="43.32731014521701" lon="11.408771235538437"><ele>253.0</ele><time>2026-03-29T08:54:57.999Z</time></trkpt><trkpt lat="43.32722323194522" lon="11.408864628278023"><ele>253.0</ele><time>2026-03-29T08:54:58.999Z</time></trkpt><trkpt lat="43.32715086335303" lon="11.408946726567931"><ele>253.0</ele><time>2026-03-29T08:54:59.999Z</time></trkpt><trkpt lat="43.32708173867007" lon="11.409032727061245"><ele>251.60000000000002</ele><time>2026-03-29T08:55:00.999Z</time></trkpt><trkpt lat="43.327006759045645" lon="11.409134406513267"><ele>250.20000000000002</ele><time>2026-03-29T08:55:01.999Z</time></trkpt><trkpt lat="43.32694069127434" lon="11.409228923877304"><ele>248.8</ele><time>2026-03-29T08:55:02.999Z</time></trkpt><trkpt lat="43.3268957163334" lon="11.409326382054672"><ele>247.4</ele><time>2026-03-29T08:55:03.999Z</time></trkpt><trkpt lat="43.32684165599324" lon="11.40942029011703"><ele>246.0</ele><time>2026-03-29T08:55:04.999Z</time></trkpt><trkpt lat="43.32678088702374" lon="11.409525369822324"><ele>246.0</ele><time>2026-03-29T08:55:05.999Z</time></trkpt><trkpt lat="43.326706079853864" lon="11.40962888105909"><ele>246.00000000000003</ele><time>2026-03-29T08:55:06.999Z</time></trkpt><trkpt lat="43.32662514732777" lon="11.409722159912954"><ele>246.00000000000003</ele><time>2026-03-29T08:55:07.999Z</time></trkpt><trkpt lat="43.326554879196564" lon="11.409786763231047"><ele>246.0</ele><time>2026-03-29T08:55:08.999Z</time></trkpt><trkpt lat="43.32649062024392" lon="11.409847747748652"><ele>246.0</ele><time>2026-03-29T08:55:09.999Z</time></trkpt><trkpt lat="43.32642184104692" lon="11.409915269447692"><ele>245.4</ele><time>2026-03-29T08:55:10.999Z</time></trkpt><trkpt lat="43.326352961235514" lon="11.409997067765527"><ele>244.8</ele><time>2026-03-29T08:55:11.999Z</time></trkpt><trkpt lat="43.32629279051917" lon="11.410060929221634"><ele>244.20000000000002</ele><time>2026-03-29T08:55:12.999Z</time></trkpt><trkpt lat="43.32624920508268" lon="11.410127487452966"><ele>243.60000000000002</ele><time>2026-03-29T08:55:13.999Z</time></trkpt><trkpt lat="43.32616365574579" lon="11.41022673104032"><ele>243.0</ele><time>2026-03-29T08:55:15.999Z</time></trkpt><trkpt lat="43.32607192077715" lon="11.410314961073642"><ele>243.0</ele><time>2026-03-29T08:55:17.999Z</time></trkpt><trkpt lat="43.326009995320476" lon="11.41036048996618"><ele>243.0</ele><time>2026-03-29T08:55:19.999Z</time></trkpt><trkpt lat="43.32590070740703" lon="11.410154748906866"><ele>243.0</ele><time>2026-03-29T08:55:21.999Z</time></trkpt><trkpt lat="43.325858886565825" lon="11.410062321455397"><ele>243.0</ele><time>2026-03-29T08:55:22.999Z</time></trkpt><trkpt lat="43.325828196530246" lon="11.409945782104817"><ele>243.0</ele><time>2026-03-29T08:55:23.999Z</time></trkpt><trkpt lat="43.325807254891906" lon="11.409829248875026"><ele>243.0</ele><time>2026-03-29T08:55:24.999Z</time></trkpt><trkpt lat="43.325809878149116" lon="11.409700593920503"><ele>243.0</ele><time>2026-03-29T08:55:25.999Z</time></trkpt><trkpt lat="43.325822088277015" lon="11.409577249980396"><ele>243.0</ele><time>2026-03-29T08:55:26.999Z</time></trkpt><trkpt lat="43.32583692436995" lon="11.409446884873054"><ele>243.0</ele><time>2026-03-29T08:55:27.999Z</time></trkpt><trkpt lat="43.32584394098917" lon="11.409330515922344"><ele>243.0</ele><time>2026-03-29T08:55:28.999Z</time></trkpt><trkpt lat="43.32583743867282" lon="11.4092249652713"><ele>243.0</ele><time>2026-03-29T08:55:29.999Z</time></trkpt><trkpt lat="43.32583460872171" lon="11.409107484119852"><ele>241.4</ele><time>2026-03-29T08:55:30.999Z</time></trkpt><trkpt lat="43.32582962387765" lon="11.408979189717499"><ele>239.8</ele><time>2026-03-29T08:55:31.999Z</time></trkpt><trkpt lat="43.32581820383481" lon="11.408868338204224"><ele>238.2</ele><time>2026-03-29T08:55:32.999Z</time></trkpt><trkpt lat="43.32580271080275" lon="11.408737277143965"><ele>236.6</ele><time>2026-03-29T08:55:33.999Z</time></trkpt><trkpt lat="43.325782291558696" lon="11.408590010808492"><ele>235.0</ele><time>2026-03-29T08:55:35Z</time></trkpt><trkpt lat="43.32578192557642" lon="11.408448994111831"><ele>234.2</ele><time>2026-03-29T08:55:36Z</time></trkpt><trkpt lat="43.325755816105044" lon="11.408318460500121"><ele>233.4</ele><time>2026-03-29T08:55:37Z</time></trkpt><trkpt lat="43.32574024763965" lon="11.408191495230968"><ele>232.60000000000002</ele><time>2026-03-29T08:55:38Z</time></trkpt><trkpt lat="43.325725349767566" lon="11.408056295355514"><ele>231.8</ele><time>2026-03-29T08:55:39Z</time></trkpt><trkpt lat="43.325712413281984" lon="11.407913072001733"><ele>231.0</ele><time>2026-03-29T08:55:40Z</time></trkpt><trkpt lat="43.32569653298477" lon="11.407762740156137"><ele>230.20000000000002</ele><time>2026-03-29T08:55:41Z</time></trkpt><trkpt lat="43.32568045769761" lon="11.40761577476655"><ele>229.40000000000003</ele><time>2026-03-29T08:55:42Z</time></trkpt><trkpt lat="43.32566547735445" lon="11.407473349832543"><ele>228.6</ele><time>2026-03-29T08:55:43Z</time></trkpt><trkpt lat="43.32564852839591" lon="11.407318195339624"><ele>227.8</ele><time>2026-03-29T08:55:44Z</time></trkpt><trkpt lat="43.32563169272505" lon="11.407170334840371"><ele>227.0</ele><time>2026-03-29T08:55:45Z</time></trkpt><trkpt lat="43.32561165330382" lon="11.407002207375946"><ele>226.0</ele><time>2026-03-29T08:55:46Z</time></trkpt><trkpt lat="43.32559213042867" lon="11.406819497840452"><ele>225.0</ele><time>2026-03-29T08:55:47Z</time></trkpt><trkpt lat="43.32552227326566" lon="11.406656971521818"><ele>224.0</ele><time>2026-03-29T08:55:48Z</time></trkpt><trkpt lat="43.3254599498478" lon="11.406512421061379"><ele>223.0</ele><time>2026-03-29T08:55:49Z</time></trkpt><trkpt lat="43.32540250546304" lon="11.406366121707046"><ele>221.5</ele><time>2026-03-29T08:55:50Z</time></trkpt><trkpt lat="43.32533573250413" lon="11.406236276474143"><ele>220.0</ele><time>2026-03-29T08:55:51Z</time></trkpt><trkpt lat="43.325267974253705" lon="11.406118807289198"><ele>218.5</ele><time>2026-03-29T08:55:52Z</time></trkpt><trkpt lat="43.325212955753244" lon="11.405972940004288"><ele>217.0</ele><time>2026-03-29T08:55:53Z</time></trkpt><trkpt lat="43.325160175858805" lon="11.40581278609608"><ele>217.0</ele><time>2026-03-29T08:55:54Z</time></trkpt><trkpt lat="43.32510962531276" lon="11.405637680074227"><ele>217.0</ele><time>2026-03-29T08:55:55Z</time></trkpt><trkpt lat="43.325063948830866" lon="11.405483900934971"><ele>217.0</ele><time>2026-03-29T08:55:56Z</time></trkpt><trkpt lat="43.32502336422065" lon="11.405334136530143"><ele>217.0</ele><time>2026-03-29T08:55:57Z</time></trkpt><trkpt lat="43.325005277035615" lon="11.405180568191238"><ele>216.6</ele><time>2026-03-29T08:55:58Z</time></trkpt><trkpt lat="43.32498749717308" lon="11.405042234992901"><ele>216.2</ele><time>2026-03-29T08:55:59Z</time></trkpt><trkpt lat="43.324971950787116" lon="11.40488489181277"><ele>215.8</ele><time>2026-03-29T08:56:00Z</time></trkpt><trkpt lat="43.32496302500217" lon="11.404750887001185"><ele>215.4</ele><time>2026-03-29T08:56:01Z</time></trkpt><trkpt lat="43.32494244478048" lon="11.40462356479026"><ele>215.0</ele><time>2026-03-29T08:56:02Z</time></trkpt><trkpt lat="43.324938970178344" lon="11.404520956383731"><ele>214.83333333333334</ele><time>2026-03-29T08:56:03Z</time></trkpt><trkpt lat="43.32495315864053" lon="11.404421151586408"><ele>214.66666666666669</ele><time>2026-03-29T08:56:04Z</time></trkpt><trkpt lat="43.32493758887055" lon="11.404323479557274"><ele>214.5</ele><time>2026-03-29T08:56:05Z</time></trkpt><trkpt lat="43.32494169062247" lon="11.404214376157576"><ele>214.33333333333331</ele><time>2026-03-29T08:56:06Z</time></trkpt><trkpt lat="43.32493684055146" lon="11.404085810374639"><ele>214.16666666666666</ele><time>2026-03-29T08:56:07Z</time></trkpt><trkpt lat="43.324952904392404" lon="11.40394021200421"><ele>214.0</ele><time>2026-03-29T08:56:08Z</time></trkpt><trkpt lat="43.32494186373691" lon="11.403782403060728"><ele>213.5</ele><time>2026-03-29T08:56:09Z</time></trkpt><trkpt lat="43.3249633146726" lon="11.403609667447855"><ele>213.0</ele><time>2026-03-29T08:56:10Z</time></trkpt><trkpt lat="43.324962687554134" lon="11.403407873557908"><ele>212.5</ele><time>2026-03-29T08:56:11Z</time></trkpt><trkpt lat="43.32499524358346" lon="11.403180693237069"><ele>212.0</ele><time>2026-03-29T08:56:12Z</time></trkpt><trkpt lat="43.32499950977894" lon="11.40294181112726"><ele>213.33333333333334</ele><time>2026-03-29T08:56:13Z</time></trkpt><trkpt lat="43.32502389659462" lon="11.402693701341187"><ele>214.66666666666669</ele><time>2026-03-29T08:56:14Z</time></trkpt><trkpt lat="43.32504597357254" lon="11.402433327910629"><ele>216.0</ele><time>2026-03-29T08:56:15Z</time></trkpt><trkpt lat="43.325068913543404" lon="11.402181053355108"><ele>219.33333333333331</ele><time>2026-03-29T08:56:16Z</time></trkpt><trkpt lat="43.32508109669679" lon="11.40193207029126"><ele>222.66666666666666</ele><time>2026-03-29T08:56:17Z</time></trkpt><trkpt lat="43.32510355120148" lon="11.401679997146035"><ele>226.0</ele><time>2026-03-29T08:56:18Z</time></trkpt><trkpt lat="43.325098959139254" lon="11.40144663765995"><ele>227.0</ele><time>2026-03-29T08:56:19Z</time></trkpt><trkpt lat="43.32509298217662" lon="11.40125703522168"><ele>228.00000000000003</ele><time>2026-03-29T08:56:20Z</time></trkpt><trkpt lat="43.32507106782303" lon="11.401102948689035"><ele>229.00000000000003</ele><time>2026-03-29T08:56:21Z</time></trkpt><trkpt lat="43.32506766450853" lon="11.400976489728587"><ele>230.0</ele><time>2026-03-29T08:56:22Z</time></trkpt><trkpt lat="43.32507161583875" lon="11.400839173286657"><ele>231.0</ele><time>2026-03-29T08:56:23Z</time></trkpt><trkpt lat="43.32508374847881" lon="11.400667453991879"><ele>231.0</ele><time>2026-03-29T08:56:24Z</time></trkpt><trkpt lat="43.32510315127521" lon="11.40051955858573"><ele>231.00000000000003</ele><time>2026-03-29T08:56:25Z</time></trkpt><trkpt lat="43.3251250689244" lon="11.400386995840343"><ele>231.00000000000003</ele><time>2026-03-29T08:56:26Z</time></trkpt><trkpt lat="43.325144753581625" lon="11.400254674396106"><ele>231.0</ele><time>2026-03-29T08:56:27Z</time></trkpt><trkpt lat="43.32516009891318" lon="11.400108968935998"><ele>231.0</ele><time>2026-03-29T08:56:28Z</time></trkpt><trkpt lat="43.325163650212204" lon="11.399960097012338"><ele>231.83333333333334</ele><time>2026-03-29T08:56:29Z</time></trkpt><trkpt lat="43.32516024944605" lon="11.399823548850382"><ele>232.66666666666669</ele><time>2026-03-29T08:56:30Z</time></trkpt><trkpt lat="43.32515535251577" lon="11.399706692455347"><ele>233.5</ele><time>2026-03-29T08:56:31Z</time></trkpt><trkpt lat="43.32514993308895" lon="11.399579554912323"><ele>234.33333333333334</ele><time>2026-03-29T08:56:32Z</time></trkpt><trkpt lat="43.32513791009498" lon="11.399466564484285"><ele>235.16666666666669</ele><time>2026-03-29T08:56:33Z</time></trkpt><trkpt lat="43.32513367514841" lon="11.399363835260143"><ele>236.0</ele><time>2026-03-29T08:56:34Z</time></trkpt><trkpt lat="43.32512822074715" lon="11.399251131095308"><ele>237.0</ele><time>2026-03-29T08:56:35Z</time></trkpt><trkpt lat="43.3251192621341" lon="11.399113244424207"><ele>238.00000000000003</ele><time>2026-03-29T08:56:36Z</time></trkpt><trkpt lat="43.32511109359964" lon="11.398981395691049"><ele>239.00000000000003</ele><time>2026-03-29T08:56:37Z</time></trkpt><trkpt lat="43.32510040098247" lon="11.398806387358329"><ele>240.0</ele><time>2026-03-29T08:56:38Z</time></trkpt><trkpt lat="43.32508636234021" lon="11.398636708719659"><ele>241.0</ele><time>2026-03-29T08:56:39Z</time></trkpt><trkpt lat="43.325084020230705" lon="11.398457213631263"><ele>242.20000000000002</ele><time>2026-03-29T08:56:40Z</time></trkpt><trkpt lat="43.32507830588093" lon="11.398310200663518"><ele>243.40000000000003</ele><time>2026-03-29T08:56:41Z</time></trkpt><trkpt lat="43.32507377804547" lon="11.39817152222522"><ele>244.6</ele><time>2026-03-29T08:56:42Z</time></trkpt><trkpt lat="43.32507528552829" lon="11.398019537507816"><ele>245.8</ele><time>2026-03-29T08:56:43Z</time></trkpt><trkpt lat="43.325092100260456" lon="11.39786103780388"><ele>247.0</ele><time>2026-03-29T08:56:43.999Z</time></trkpt><trkpt lat="43.325127735704626" lon="11.397709730866303"><ele>247.0</ele><time>2026-03-29T08:56:44.999Z</time></trkpt><trkpt lat="43.3251678841696" lon="11.397556064349535"><ele>247.0</ele><time>2026-03-29T08:56:45.999Z</time></trkpt><trkpt lat="43.32523486827636" lon="11.397416638944014"><ele>247.0</ele><time>2026-03-29T08:56:46.999Z</time></trkpt><trkpt lat="43.32528368031412" lon="11.397233803605902"><ele>247.0</ele><time>2026-03-29T08:56:47.999Z</time></trkpt><trkpt lat="43.32534642770935" lon="11.397051151329457"><ele>247.0</ele><time>2026-03-29T08:56:48.999Z</time></trkpt><trkpt lat="43.32539179594336" lon="11.396899046329787"><ele>247.0</ele><time>2026-03-29T08:56:49.999Z</time></trkpt><trkpt lat="43.325443089494385" lon="11.396727511100284"><ele>247.0</ele><time>2026-03-29T08:56:50.999Z</time></trkpt><trkpt lat="43.325495267285255" lon="11.396541813791321"><ele>247.0</ele><time>2026-03-29T08:56:51.999Z</time></trkpt><trkpt lat="43.32555077054914" lon="11.39635534719777"><ele>247.75</ele><time>2026-03-29T08:56:52.999Z</time></trkpt><trkpt lat="43.32560277253242" lon="11.396178914474023"><ele>248.5</ele><time>2026-03-29T08:56:53.999Z</time></trkpt><trkpt lat="43.325649628201305" lon="11.396016979350806"><ele>249.25</ele><time>2026-03-29T08:56:54.999Z</time></trkpt><trkpt lat="43.32569526792878" lon="11.395859798070449"><ele>250.0</ele><time>2026-03-29T08:56:55.999Z</time></trkpt><trkpt lat="43.325711926085056" lon="11.39564745021379"><ele>250.66666666666666</ele><time>2026-03-29T08:56:56.999Z</time></trkpt><trkpt lat="43.32570871727403" lon="11.395404455410379"><ele>251.33333333333331</ele><time>2026-03-29T08:56:57.999Z</time></trkpt><trkpt lat="43.325702477468454" lon="11.395197958684507"><ele>252.0</ele><time>2026-03-29T08:56:58.999Z</time></trkpt><trkpt lat="43.325685951453586" lon="11.39501357027549"><ele>252.0</ele><time>2026-03-29T08:56:59.999Z</time></trkpt><trkpt lat="43.32569900311308" lon="11.394810365252741"><ele>252.0</ele><time>2026-03-29T08:57:00.999Z</time></trkpt><trkpt lat="43.32568451771736" lon="11.394589902320313"><ele>252.0</ele><time>2026-03-29T08:57:01.999Z</time></trkpt><trkpt lat="43.32564228141427" lon="11.394380747684394"><ele>253.0</ele><time>2026-03-29T08:57:02.999Z</time></trkpt><trkpt lat="43.32558671498364" lon="11.394175790846692"><ele>254.0</ele><time>2026-03-29T08:57:03.999Z</time></trkpt><trkpt lat="43.32552232404738" lon="11.393963134525555"><ele>255.0</ele><time>2026-03-29T08:57:04.999Z</time></trkpt><trkpt lat="43.32545201004942" lon="11.393730571859333"><ele>256.6666666666667</ele><time>2026-03-29T08:57:05.999Z</time></trkpt><trkpt lat="43.32537899866082" lon="11.39348908753397"><ele>258.33333333333337</ele><time>2026-03-29T08:57:06.999Z</time></trkpt><trkpt lat="43.32529959138997" lon="11.39322992097343"><ele>260.0</ele><time>2026-03-29T08:57:07.999Z</time></trkpt><trkpt lat="43.32522268705196" lon="11.39299008476067"><ele>261.0</ele><time>2026-03-29T08:57:08.999Z</time></trkpt><trkpt lat="43.32515837215982" lon="11.392798862359221"><ele>262.0</ele><time>2026-03-29T08:57:09.999Z</time></trkpt><trkpt lat="43.32508654242964" lon="11.392654839230504"><ele>263.0</ele><time>2026-03-29T08:57:10.999Z</time></trkpt><trkpt lat="43.3250479219611" lon="11.392533095688718"><ele>264.0</ele><time>2026-03-29T08:57:11.999Z</time></trkpt><trkpt lat="43.32495459614857" lon="11.392482878601022"><ele>264.0</ele><time>2026-03-29T08:57:12.999Z</time></trkpt><trkpt lat="43.32483419163189" lon="11.392490992376823"><ele>264.0</ele><time>2026-03-29T08:57:13.999Z</time></trkpt><trkpt lat="43.32469986356197" lon="11.392554559885292"><ele>264.0</ele><time>2026-03-29T08:57:14.999Z</time></trkpt><trkpt lat="43.32455660373542" lon="11.392569852236845"><ele>264.0</ele><time>2026-03-29T08:57:15.999Z</time></trkpt><trkpt lat="43.32445002234552" lon="11.392547969192655"><ele>264.25</ele><time>2026-03-29T08:57:16.999Z</time></trkpt><trkpt lat="43.324350980025685" lon="11.392474967401022"><ele>264.5</ele><time>2026-03-29T08:57:17.999Z</time></trkpt><trkpt lat="43.32422813059004" lon="11.392415882241666"><ele>264.75</ele><time>2026-03-29T08:57:18.999Z</time></trkpt><trkpt lat="43.32409230072003" lon="11.392358648184928"><ele>265.0</ele><time>2026-03-29T08:57:19.999Z</time></trkpt><trkpt lat="43.32392895315491" lon="11.39231102506161"><ele>264.75</ele><time>2026-03-29T08:57:20.999Z</time></trkpt><trkpt lat="43.32378052799649" lon="11.392296514924558"><ele>264.5</ele><time>2026-03-29T08:57:21.999Z</time></trkpt><trkpt lat="43.32364802670606" lon="11.392245853056465"><ele>264.25</ele><time>2026-03-29T08:57:22.999Z</time></trkpt><trkpt lat="43.32352403146843" lon="11.39220214035722"><ele>264.0</ele><time>2026-03-29T08:57:23.999Z</time></trkpt><trkpt lat="43.32339643914814" lon="11.39217219729013"><ele>262.25</ele><time>2026-03-29T08:57:24.999Z</time></trkpt><trkpt lat="43.323261146720014" lon="11.392142590349307"><ele>260.5</ele><time>2026-03-29T08:57:25.999Z</time></trkpt><trkpt lat="43.32313947454075" lon="11.392115964026761"><ele>258.75</ele><time>2026-03-29T08:57:26.999Z</time></trkpt><trkpt lat="43.323022687356485" lon="11.392109549832043"><ele>257.0</ele><time>2026-03-29T08:57:27.999Z</time></trkpt><trkpt lat="43.32291197810118" lon="11.392056784136548"><ele>257.0</ele><time>2026-03-29T08:57:28.999Z</time></trkpt><trkpt lat="43.32280261432121" lon="11.392023891591322"><ele>257.0</ele><time>2026-03-29T08:57:29.999Z</time></trkpt><trkpt lat="43.32270322563297" lon="11.39201324760023"><ele>257.0</ele><time>2026-03-29T08:57:30.999Z</time></trkpt><trkpt lat="43.32259265329466" lon="11.391977687166811"><ele>257.0</ele><time>2026-03-29T08:57:31.999Z</time></trkpt><trkpt lat="43.32247751377973" lon="11.391949575056765"><ele>257.0</ele><time>2026-03-29T08:57:32.999Z</time></trkpt><trkpt lat="43.32235301722138" lon="11.391910780651584"><ele>256.0</ele><time>2026-03-29T08:57:33.999Z</time></trkpt><trkpt lat="43.322223693789276" lon="11.391865812913814"><ele>255.0</ele><time>2026-03-29T08:57:34.999Z</time></trkpt><trkpt lat="43.32208465204593" lon="11.391828296941792"><ele>254.0</ele><time>2026-03-29T08:57:35.999Z</time></trkpt><trkpt lat="43.321953312915674" lon="11.391794558078315"><ele>253.0</ele><time>2026-03-29T08:57:36.999Z</time></trkpt><trkpt lat="43.32183016062506" lon="11.391759452304244"><ele>253.0</ele><time>2026-03-29T08:57:37.999Z</time></trkpt><trkpt lat="43.321708430669915" lon="11.391711905205534"><ele>253.0</ele><time>2026-03-29T08:57:38.999Z</time></trkpt><trkpt lat="43.3215742698647" lon="11.391655702456045"><ele>253.0</ele><time>2026-03-29T08:57:39.999Z</time></trkpt><trkpt lat="43.32144404124951" lon="11.391592250369875"><ele>253.0</ele><time>2026-03-29T08:57:41Z</time></trkpt><trkpt lat="43.32133447469647" lon="11.391504538823302"><ele>252.0</ele><time>2026-03-29T08:57:42Z</time></trkpt><trkpt lat="43.32121356642016" lon="11.391441245504522"><ele>251.0</ele><time>2026-03-29T08:57:43Z</time></trkpt><trkpt lat="43.32108690426756" lon="11.391338837652086"><ele>250.0</ele><time>2026-03-29T08:57:44Z</time></trkpt><trkpt lat="43.32096169574259" lon="11.391251401433873"><ele>249.0</ele><time>2026-03-29T08:57:45Z</time></trkpt><trkpt lat="43.32082881682" lon="11.391163475978292"><ele>249.0</ele><time>2026-03-29T08:57:46Z</time></trkpt><trkpt lat="43.320692893721905" lon="11.391076002962132"><ele>248.99999999999997</ele><time>2026-03-29T08:57:47Z</time></trkpt><trkpt lat="43.320578811201635" lon="11.391012835416323"><ele>248.99999999999997</ele><time>2026-03-29T08:57:48Z</time></trkpt><trkpt lat="43.32048631227741" lon="11.390974548747643"><ele>249.0</ele><time>2026-03-29T08:57:49Z</time></trkpt><trkpt lat="43.32041426272789" lon="11.390950212975367"><ele>249.0</ele><time>2026-03-29T08:57:50Z</time></trkpt><trkpt lat="43.320342871046726" lon="11.390930723370749"><ele>249.0</ele><time>2026-03-29T08:57:51Z</time></trkpt><trkpt lat="43.32026576643527" lon="11.390924820239622"><ele>249.0</ele><time>2026-03-29T08:57:52Z</time></trkpt><trkpt lat="43.320201252467854" lon="11.390898603992971"><ele>249.0</ele><time>2026-03-29T08:57:53Z</time></trkpt><trkpt lat="43.32015072683604" lon="11.390834573158044"><ele>249.0</ele><time>2026-03-29T08:57:54Z</time></trkpt><trkpt lat="43.32010855880294" lon="11.390734178318676"><ele>249.0</ele><time>2026-03-29T08:57:55Z</time></trkpt><trkpt lat="43.32008681785289" lon="11.39060849350596"><ele>249.0</ele><time>2026-03-29T08:57:56Z</time></trkpt><trkpt lat="43.32007070708116" lon="11.390470305430815"><ele>248.5</ele><time>2026-03-29T08:57:57Z</time></trkpt><trkpt lat="43.32004447952943" lon="11.390316062948523"><ele>248.0</ele><time>2026-03-29T08:57:58Z</time></trkpt><trkpt lat="43.32001409743196" lon="11.390140677103568"><ele>247.5</ele><time>2026-03-29T08:57:59Z</time></trkpt><trkpt lat="43.319980893550785" lon="11.389968951408019"><ele>247.0</ele><time>2026-03-29T08:58:00Z</time></trkpt><trkpt lat="43.319939433558034" lon="11.389785946081215"><ele>246.0</ele><time>2026-03-29T08:58:01Z</time></trkpt><trkpt lat="43.31988931655237" lon="11.389598229479365"><ele>245.0</ele><time>2026-03-29T08:58:02Z</time></trkpt><trkpt lat="43.31982894082857" lon="11.38941021742014"><ele>244.0</ele><time>2026-03-29T08:58:03Z</time></trkpt><trkpt lat="43.31977262968712" lon="11.389221367348862"><ele>243.0</ele><time>2026-03-29T08:58:04Z</time></trkpt><trkpt lat="43.319724221654035" lon="11.389030073518237"><ele>240.75</ele><time>2026-03-29T08:58:05Z</time></trkpt><trkpt lat="43.319684428491534" lon="11.38884716036044"><ele>238.5</ele><time>2026-03-29T08:58:06Z</time></trkpt><trkpt lat="43.319647130703444" lon="11.388674355431668"><ele>236.25</ele><time>2026-03-29T08:58:07Z</time></trkpt><trkpt lat="43.31960979207351" lon="11.388501078437365"><ele>234.0</ele><time>2026-03-29T08:58:08Z</time></trkpt><trkpt lat="43.31957512451452" lon="11.388332420442788"><ele>232.75</ele><time>2026-03-29T08:58:09Z</time></trkpt><trkpt lat="43.31954193956704" lon="11.388168920723036"><ele>231.5</ele><time>2026-03-29T08:58:10Z</time></trkpt><trkpt lat="43.31951265544098" lon="11.388008677381087"><ele>230.25</ele><time>2026-03-29T08:58:11Z</time></trkpt><trkpt lat="43.31948653915807" lon="11.387853731024082"><ele>229.0</ele><time>2026-03-29T08:58:12Z</time></trkpt><trkpt lat="43.31946282154049" lon="11.38770835725466"><ele>229.0</ele><time>2026-03-29T08:58:13Z</time></trkpt><trkpt lat="43.31942054604659" lon="11.387577802000099"><ele>228.99999999999997</ele><time>2026-03-29T08:58:14Z</time></trkpt><trkpt lat="43.319360377377684" lon="11.387464018492071"><ele>228.99999999999997</ele><time>2026-03-29T08:58:15Z</time></trkpt><trkpt lat="43.31926462803366" lon="11.387402636174304"><ele>229.0</ele><time>2026-03-29T08:58:16Z</time></trkpt><trkpt lat="43.3191807028863" lon="11.387355909678021"><ele>229.0</ele><time>2026-03-29T08:58:17Z</time></trkpt><trkpt lat="43.3191105743127" lon="11.387311882008424"><ele>229.0</ele><time>2026-03-29T08:58:18Z</time></trkpt><trkpt lat="43.319057481651036" lon="11.387234604527627"><ele>228.99999999999997</ele><time>2026-03-29T08:58:19Z</time></trkpt><trkpt lat="43.31902137689549" lon="11.387138117904934"><ele>228.99999999999997</ele><time>2026-03-29T08:58:20Z</time></trkpt><trkpt lat="43.319027638783545" lon="11.38699929831613"><ele>229.0</ele><time>2026-03-29T08:58:21Z</time></trkpt><trkpt lat="43.31905642538585" lon="11.386833503215286"><ele>229.0</ele><time>2026-03-29T08:58:22Z</time></trkpt><trkpt lat="43.31909824068908" lon="11.386706101057207"><ele>228.6</ele><time>2026-03-29T08:58:23Z</time></trkpt><trkpt lat="43.319153070501265" lon="11.386600187958962"><ele>228.2</ele><time>2026-03-29T08:58:24Z</time></trkpt><trkpt lat="43.319223190986946" lon="11.38652098668075"><ele>227.79999999999998</ele><time>2026-03-29T08:58:25Z</time></trkpt><trkpt lat="43.31931527883634" lon="11.386444204094142"><ele>227.39999999999998</ele><time>2026-03-29T08:58:26Z</time></trkpt><trkpt lat="43.31943382775723" lon="11.38636607330593"><ele>227.0</ele><time>2026-03-29T08:58:27Z</time></trkpt><trkpt lat="43.319551916417836" lon="11.386304669454669"><ele>226.2</ele><time>2026-03-29T08:58:28Z</time></trkpt><trkpt lat="43.319668420783934" lon="11.386237166500107"><ele>225.39999999999998</ele><time>2026-03-29T08:58:29Z</time></trkpt><trkpt lat="43.31973095280938" lon="11.38619163211732"><ele>224.60000000000002</ele><time>2026-03-29T08:58:30Z</time></trkpt><trkpt lat="43.319838476049185" lon="11.38613522438482"><ele>223.8</ele><time>2026-03-29T08:58:31Z</time></trkpt><trkpt lat="43.31993774931221" lon="11.386078497505142"><ele>223.0</ele><time>2026-03-29T08:58:32Z</time></trkpt><trkpt lat="43.32001609214294" lon="11.385992463624875"><ele>222.8</ele><time>2026-03-29T08:58:33Z</time></trkpt><trkpt lat="43.3200781257363" lon="11.385886401383312"><ele>222.60000000000002</ele><time>2026-03-29T08:58:34Z</time></trkpt><trkpt lat="43.320116608695926" lon="11.385765722908252"><ele>222.39999999999998</ele><time>2026-03-29T08:58:35Z</time></trkpt><trkpt lat="43.32012745500985" lon="11.385629940151167"><ele>222.2</ele><time>2026-03-29T08:58:36Z</time></trkpt><trkpt lat="43.32012351539902" lon="11.385445387923113"><ele>222.0</ele><time>2026-03-29T08:58:37Z</time></trkpt><trkpt lat="43.32010885795339" lon="11.38529159823696"><ele>221.0</ele><time>2026-03-29T08:58:38Z</time></trkpt><trkpt lat="43.320108097322155" lon="11.38514221373566"><ele>220.0</ele><time>2026-03-29T08:58:39Z</time></trkpt><trkpt lat="43.32013849602401" lon="11.385007463211394"><ele>219.0</ele><time>2026-03-29T08:58:40Z</time></trkpt><trkpt lat="43.320185133862985" lon="11.384891462655228"><ele>218.0</ele><time>2026-03-29T08:58:41Z</time></trkpt><trkpt lat="43.32025299095868" lon="11.384757492492389"><ele>217.0</ele><time>2026-03-29T08:58:42Z</time></trkpt><trkpt lat="43.320364974016734" lon="11.38464525430205"><ele>216.0</ele><time>2026-03-29T08:58:43Z</time></trkpt><trkpt lat="43.320467458509846" lon="11.384528066451477"><ele>215.0</ele><time>2026-03-29T08:58:44Z</time></trkpt><trkpt lat="43.320570955443586" lon="11.384407883828558"><ele>214.0</ele><time>2026-03-29T08:58:45Z</time></trkpt><trkpt lat="43.32065614016467" lon="11.384304686782825"><ele>213.0</ele><time>2026-03-29T08:58:46Z</time></trkpt><trkpt lat="43.320723004288986" lon="11.38418164917725"><ele>212.4</ele><time>2026-03-29T08:58:47Z</time></trkpt><trkpt lat="43.320782200704585" lon="11.384058187541763"><ele>211.8</ele><time>2026-03-29T08:58:48Z</time></trkpt><trkpt lat="43.32080512741765" lon="11.383929537294287"><ele>211.2</ele><time>2026-03-29T08:58:49Z</time></trkpt><trkpt lat="43.3207857352492" lon="11.383797392586024"><ele>210.6</ele><time>2026-03-29T08:58:50Z</time></trkpt><trkpt lat="43.32074336813518" lon="11.383645146706037"><ele>210.0</ele><time>2026-03-29T08:58:51Z</time></trkpt><trkpt lat="43.32068075580562" lon="11.3834654876455"><ele>207.33333333333331</ele><time>2026-03-29T08:58:52Z</time></trkpt><trkpt lat="43.32063355435616" lon="11.383248395335956"><ele>204.66666666666666</ele><time>2026-03-29T08:58:52.999Z</time></trkpt><trkpt lat="43.32060554821559" lon="11.383044510214528"><ele>202.0</ele><time>2026-03-29T08:58:53.999Z</time></trkpt><trkpt lat="43.32058476923105" lon="11.382818833807418"><ele>201.0</ele><time>2026-03-29T08:58:54.999Z</time></trkpt><trkpt lat="43.320560252256215" lon="11.382576454161896"><ele>200.0</ele><time>2026-03-29T08:58:55.999Z</time></trkpt><trkpt lat="43.32052487346495" lon="11.382329590779841"><ele>199.0</ele><time>2026-03-29T08:58:56.999Z</time></trkpt><trkpt lat="43.320489621413785" lon="11.382094347829495"><ele>198.66666666666666</ele><time>2026-03-29T08:58:57.999Z</time></trkpt><trkpt lat="43.3204349614512" lon="11.38185742235839"><ele>198.33333333333331</ele><time>2026-03-29T08:58:58.999Z</time></trkpt><trkpt lat="43.32039668205918" lon="11.3816128148604"><ele>198.0</ele><time>2026-03-29T08:58:59.999Z</time></trkpt><trkpt lat="43.320359189479056" lon="11.381387430632028"><ele>197.66666666666669</ele><time>2026-03-29T08:59:00.999Z</time></trkpt><trkpt lat="43.32033878151725" lon="11.381170503204551"><ele>197.33333333333334</ele><time>2026-03-29T08:59:01.999Z</time></trkpt><trkpt lat="43.32031572405271" lon="11.380970365867169"><ele>197.0</ele><time>2026-03-29T08:59:02.999Z</time></trkpt><trkpt lat="43.32032182137559" lon="11.380757709832281"><ele>197.0</ele><time>2026-03-29T08:59:03.999Z</time></trkpt><trkpt lat="43.32035475500721" lon="11.380538602552834"><ele>197.0</ele><time>2026-03-29T08:59:04.999Z</time></trkpt><trkpt lat="43.32038943639111" lon="11.380300865482496"><ele>197.0</ele><time>2026-03-29T08:59:05.999Z</time></trkpt><trkpt lat="43.32042492721699" lon="11.380041445314294"><ele>197.0</ele><time>2026-03-29T08:59:06.999Z</time></trkpt><trkpt lat="43.320460611089274" lon="11.379768271768885"><ele>197.0</ele><time>2026-03-29T08:59:07.999Z</time></trkpt><trkpt lat="43.320494748958836" lon="11.379498533112766"><ele>197.0</ele><time>2026-03-29T08:59:08.999Z</time></trkpt><trkpt lat="43.32052535355132" lon="11.37926021862874"><ele>198.0</ele><time>2026-03-29T08:59:09.999Z</time></trkpt><trkpt lat="43.32055472707031" lon="11.379031490520523"><ele>199.0</ele><time>2026-03-29T08:59:10.999Z</time></trkpt><trkpt lat="43.32058167453493" lon="11.378819441665708"><ele>200.0</ele><time>2026-03-29T08:59:11.999Z</time></trkpt><trkpt lat="43.32059576651431" lon="11.378607151781681"><ele>202.0</ele><time>2026-03-29T08:59:12.999Z</time></trkpt><trkpt lat="43.320594056782085" lon="11.378368959108395"><ele>204.0</ele><time>2026-03-29T08:59:13.999Z</time></trkpt><trkpt lat="43.320572920894506" lon="11.378102972240326"><ele>206.0</ele><time>2026-03-29T08:59:14.999Z</time></trkpt><trkpt lat="43.32054438184628" lon="11.377847782741355"><ele>208.66666666666669</ele><time>2026-03-29T08:59:15.999Z</time></trkpt><trkpt lat="43.32051827149848" lon="11.37761924189966"><ele>211.33333333333331</ele><time>2026-03-29T08:59:16.999Z</time></trkpt><trkpt lat="43.32048625655554" lon="11.377385299399773"><ele>214.0</ele><time>2026-03-29T08:59:17.999Z</time></trkpt><trkpt lat="43.320452631269184" lon="11.377146837055614"><ele>217.33333333333331</ele><time>2026-03-29T08:59:18.999Z</time></trkpt><trkpt lat="43.320434347426875" lon="11.37691280283292"><ele>220.66666666666669</ele><time>2026-03-29T08:59:19.999Z</time></trkpt><trkpt lat="43.32043619838302" lon="11.376684762653188"><ele>224.0</ele><time>2026-03-29T08:59:20.999Z</time></trkpt><trkpt lat="43.320453611098664" lon="11.376432923723168"><ele>223.0</ele><time>2026-03-29T08:59:21.999Z</time></trkpt><trkpt lat="43.320479674482854" lon="11.376183901565838"><ele>222.0</ele><time>2026-03-29T08:59:22.999Z</time></trkpt><trkpt lat="43.32048567574842" lon="11.375967711474113"><ele>221.0</ele><time>2026-03-29T08:59:23.999Z</time></trkpt><trkpt lat="43.32048895134699" lon="11.375777546468107"><ele>221.0</ele><time>2026-03-29T08:59:24.999Z</time></trkpt><trkpt lat="43.320488504908504" lon="11.37562478613644"><ele>221.0</ele><time>2026-03-29T08:59:25.999Z</time></trkpt><trkpt lat="43.32047204860076" lon="11.375488847783227"><ele>221.0</ele><time>2026-03-29T08:59:26.999Z</time></trkpt><trkpt lat="43.32043182521955" lon="11.375352445295112"><ele>221.0</ele><time>2026-03-29T08:59:27.999Z</time></trkpt><trkpt lat="43.320304019234804" lon="11.37525835408469"><ele>221.0</ele><time>2026-03-29T08:59:28.999Z</time></trkpt><trkpt lat="43.320236213547155" lon="11.375156435548199"><ele>221.00000000000003</ele><time>2026-03-29T08:59:29.999Z</time></trkpt><trkpt lat="43.320200961076274" lon="11.375027015371975"><ele>221.00000000000003</ele><time>2026-03-29T08:59:30.999Z</time></trkpt><trkpt lat="43.320200314083706" lon="11.374913854588986"><ele>221.0</ele><time>2026-03-29T08:59:31.999Z</time></trkpt><trkpt lat="43.32024631985461" lon="11.374807042056089"><ele>221.0</ele><time>2026-03-29T08:59:32.999Z</time></trkpt><trkpt lat="43.320278240622564" lon="11.374657745776696"><ele>221.0</ele><time>2026-03-29T08:59:33.999Z</time></trkpt><trkpt lat="43.32032026367186" lon="11.374484155010625"><ele>221.0</ele><time>2026-03-29T08:59:34.999Z</time></trkpt><trkpt lat="43.320356426284505" lon="11.374278094411434"><ele>221.0</ele><time>2026-03-29T08:59:35.999Z</time></trkpt><trkpt lat="43.320424134902304" lon="11.374046612226987"><ele>223.0</ele><time>2026-03-29T08:59:36.999Z</time></trkpt><trkpt lat="43.32048590262134" lon="11.373829391498203"><ele>225.0</ele><time>2026-03-29T08:59:37.999Z</time></trkpt><trkpt lat="43.32057663895285" lon="11.37364539015139"><ele>227.0</ele><time>2026-03-29T08:59:38.999Z</time></trkpt><trkpt lat="43.32066828351262" lon="11.373439667943975"><ele>227.66666666666669</ele><time>2026-03-29T08:59:39.999Z</time></trkpt><trkpt lat="43.32076918302582" lon="11.373227207570881"><ele>228.33333333333331</ele><time>2026-03-29T08:59:40.999Z</time></trkpt><trkpt lat="43.3208574526194" lon="11.373052419240773"><ele>229.0</ele><time>2026-03-29T08:59:41.999Z</time></trkpt><trkpt lat="43.32093100869993" lon="11.372906744934452"><ele>231.25</ele><time>2026-03-29T08:59:42.999Z</time></trkpt><trkpt lat="43.32097722785622" lon="11.372768479573509"><ele>233.5</ele><time>2026-03-29T08:59:43.999Z</time></trkpt><trkpt lat="43.32101640865376" lon="11.372613559096706"><ele>235.75</ele><time>2026-03-29T08:59:44.999Z</time></trkpt><trkpt lat="43.321056634462636" lon="11.372421798868322"><ele>238.0</ele><time>2026-03-29T08:59:45.999Z</time></trkpt><trkpt lat="43.321091901168025" lon="11.37220434644953"><ele>241.0</ele><time>2026-03-29T08:59:47Z</time></trkpt><trkpt lat="43.32113251303146" lon="11.37197005353799"><ele>244.0</ele><time>2026-03-29T08:59:48Z</time></trkpt><trkpt lat="43.321163655777674" lon="11.371739212740055"><ele>247.0</ele><time>2026-03-29T08:59:49Z</time></trkpt><trkpt lat="43.32118611253468" lon="11.371491893163682"><ele>248.66666666666666</ele><time>2026-03-29T08:59:50Z</time></trkpt><trkpt lat="43.32120434526851" lon="11.371228254691518"><ele>250.33333333333331</ele><time>2026-03-29T08:59:51Z</time></trkpt><trkpt lat="43.32126174725092" lon="11.371002955159408"><ele>252.0</ele><time>2026-03-29T08:59:52Z</time></trkpt><trkpt lat="43.32132024517841" lon="11.37080002688503"><ele>252.0</ele><time>2026-03-29T08:59:53Z</time></trkpt><trkpt lat="43.32140046729327" lon="11.370608315630742"><ele>252.0</ele><time>2026-03-29T08:59:54Z</time></trkpt><trkpt lat="43.32150571642081" lon="11.370397030570143"><ele>252.0</ele><time>2026-03-29T08:59:55Z</time></trkpt><trkpt lat="43.321617920871354" lon="11.370170536328851"><ele>252.0</ele><time>2026-03-29T08:59:56Z</time></trkpt><trkpt lat="43.321708078689355" lon="11.369960306799072"><ele>252.0</ele><time>2026-03-29T08:59:57Z</time></trkpt><trkpt lat="43.321798002658305" lon="11.369787984348392"><ele>252.0</ele><time>2026-03-29T08:59:58Z</time></trkpt><trkpt lat="43.321873165636944" lon="11.369637362352783"><ele>253.8</ele><time>2026-03-29T08:59:59Z</time></trkpt><trkpt lat="43.32193580191188" lon="11.36950167516737"><ele>255.6</ele><time>2026-03-29T09:00:00Z</time></trkpt><trkpt lat="43.321984550897014" lon="11.369395338183187"><ele>257.40000000000003</ele><time>2026-03-29T09:00:01Z</time></trkpt><trkpt lat="43.32201853811191" lon="11.369310858344953"><ele>259.2</ele><time>2026-03-29T09:00:02Z</time></trkpt><trkpt lat="43.32199979526414" lon="11.36914479131804"><ele>261.0</ele><time>2026-03-29T09:00:04Z</time></trkpt><trkpt lat="43.32191162138004" lon="11.36909986657208"><ele>261.0</ele><time>2026-03-29T09:00:05Z</time></trkpt><trkpt lat="43.32181442496634" lon="11.369142194098965"><ele>261.0</ele><time>2026-03-29T09:00:06Z</time></trkpt><trkpt lat="43.32173606872694" lon="11.369249806623277"><ele>261.0</ele><time>2026-03-29T09:00:07Z</time></trkpt><trkpt lat="43.321651864500815" lon="11.369353615972864"><ele>261.0</ele><time>2026-03-29T09:00:08Z</time></trkpt><trkpt lat="43.32155892945491" lon="11.369438427132371"><ele>261.0</ele><time>2026-03-29T09:00:09Z</time></trkpt><trkpt lat="43.321460275522654" lon="11.369456143630758"><ele>261.5</ele><time>2026-03-29T09:00:10Z</time></trkpt><trkpt lat="43.32136882102154" lon="11.36937679582106"><ele>262.0</ele><time>2026-03-29T09:00:11Z</time></trkpt><trkpt lat="43.32128510769554" lon="11.369275283562786"><ele>262.5</ele><time>2026-03-29T09:00:12Z</time></trkpt><trkpt lat="43.3211753111416" lon="11.369146918886406"><ele>263.0</ele><time>2026-03-29T09:00:13Z</time></trkpt><trkpt lat="43.32105687909331" lon="11.36902882638266"><ele>263.0</ele><time>2026-03-29T09:00:14Z</time></trkpt><trkpt lat="43.32097892764887" lon="11.368913055792593"><ele>263.0</ele><time>2026-03-29T09:00:15Z</time></trkpt><trkpt lat="43.32092162772829" lon="11.36882305606767"><ele>263.0</ele><time>2026-03-29T09:00:16Z</time></trkpt><trkpt lat="43.320964386650665" lon="11.368678274574318"><ele>263.0</ele><time>2026-03-29T09:00:18Z</time></trkpt><trkpt lat="43.32099444990676" lon="11.36854444480217"><ele>263.0</ele><time>2026-03-29T09:00:19Z</time></trkpt><trkpt lat="43.32102787334846" lon="11.368376348349384"><ele>263.0</ele><time>2026-03-29T09:00:20Z</time></trkpt><trkpt lat="43.321059332798285" lon="11.368218263432983"><ele>263.0</ele><time>2026-03-29T09:00:21Z</time></trkpt><trkpt lat="43.321067537753976" lon="11.3680468829861"><ele>263.0</ele><time>2026-03-29T09:00:22Z</time></trkpt><trkpt lat="43.32108994033785" lon="11.367852894960553"><ele>263.0</ele><time>2026-03-29T09:00:23Z</time></trkpt><trkpt lat="43.321099112935514" lon="11.367626514901254"><ele>264.33333333333337</ele><time>2026-03-29T09:00:24Z</time></trkpt><trkpt lat="43.32111078871898" lon="11.367395878179396"><ele>265.6666666666667</ele><time>2026-03-29T09:00:25Z</time></trkpt><trkpt lat="43.321100471722865" lon="11.367156758061967"><ele>267.0</ele><time>2026-03-29T09:00:26Z</time></trkpt><trkpt lat="43.3211002282076" lon="11.366940100661141"><ele>268.0</ele><time>2026-03-29T09:00:27Z</time></trkpt><trkpt lat="43.32109916603277" lon="11.366747906713059"><ele>269.0</ele><time>2026-03-29T09:00:28Z</time></trkpt><trkpt lat="43.321087124448525" lon="11.366580900539697"><ele>270.0</ele><time>2026-03-29T09:00:29Z</time></trkpt><trkpt lat="43.32107037624149" lon="11.366439099629975"><ele>271.0</ele><time>2026-03-29T09:00:30Z</time></trkpt><trkpt lat="43.321047914111446" lon="11.366314404310613"><ele>271.0</ele><time>2026-03-29T09:00:31Z</time></trkpt><trkpt lat="43.321041195772004" lon="11.366195968908865"><ele>271.0</ele><time>2026-03-29T09:00:32Z</time></trkpt><trkpt lat="43.3210255104894" lon="11.3660993459206"><ele>271.0</ele><time>2026-03-29T09:00:33Z</time></trkpt><trkpt lat="43.320999586542236" lon="11.366005875744307"><ele>271.0</ele><time>2026-03-29T09:00:34Z</time></trkpt><trkpt lat="43.32097863641547" lon="11.36588537025259"><ele>271.0</ele><time>2026-03-29T09:00:35Z</time></trkpt><trkpt lat="43.320948008618345" lon="11.365757737835365"><ele>271.0</ele><time>2026-03-29T09:00:36Z</time></trkpt><trkpt lat="43.320910428821946" lon="11.365627582687647"><ele>271.25</ele><time>2026-03-29T09:00:37Z</time></trkpt><trkpt lat="43.32086289896273" lon="11.365479809446155"><ele>271.5</ele><time>2026-03-29T09:00:38Z</time></trkpt><trkpt lat="43.320814592823346" lon="11.365323474360867"><ele>271.75</ele><time>2026-03-29T09:00:39Z</time></trkpt><trkpt lat="43.32074684144767" lon="11.36516473410419"><ele>272.0</ele><time>2026-03-29T09:00:40Z</time></trkpt><trkpt lat="43.320683248701194" lon="11.365005869683664"><ele>272.0</ele><time>2026-03-29T09:00:41Z</time></trkpt><trkpt lat="43.32062573507855" lon="11.36486985772822"><ele>272.0</ele><time>2026-03-29T09:00:42Z</time></trkpt><trkpt lat="43.32055522706971" lon="11.364735635202663"><ele>272.0</ele><time>2026-03-29T09:00:43Z</time></trkpt><trkpt lat="43.32046902351431" lon="11.36458493117267"><ele>272.0</ele><time>2026-03-29T09:00:44Z</time></trkpt><trkpt lat="43.32039636696018" lon="11.364442357710105"><ele>272.5</ele><time>2026-03-29T09:00:45Z</time></trkpt><trkpt lat="43.32032925772649" lon="11.364327788975967"><ele>273.0</ele><time>2026-03-29T09:00:46Z</time></trkpt><trkpt lat="43.3202570821062" lon="11.364209842291023"><ele>273.5</ele><time>2026-03-29T09:00:47Z</time></trkpt><trkpt lat="43.32017431892757" lon="11.364079085677155"><ele>274.0</ele><time>2026-03-29T09:00:48Z</time></trkpt><trkpt lat="43.320085742491976" lon="11.36393845026073"><ele>274.75</ele><time>2026-03-29T09:00:49Z</time></trkpt><trkpt lat="43.3199925637121" lon="11.363794548477232"><ele>275.5</ele><time>2026-03-29T09:00:50Z</time></trkpt><trkpt lat="43.31989454457713" lon="11.363647389500159"><ele>276.25</ele><time>2026-03-29T09:00:51Z</time></trkpt><trkpt lat="43.31979858292233" lon="11.36351370522665"><ele>277.0</ele><time>2026-03-29T09:00:52Z</time></trkpt><trkpt lat="43.319706278366525" lon="11.36339377807632"><ele>277.0</ele><time>2026-03-29T09:00:53Z</time></trkpt><trkpt lat="43.31961348991655" lon="11.363266886863093"><ele>277.0</ele><time>2026-03-29T09:00:54Z</time></trkpt><trkpt lat="43.31952627700288" lon="11.363133060288677"><ele>277.0</ele><time>2026-03-29T09:00:55Z</time></trkpt><trkpt lat="43.31946432038923" lon="11.362989801194571"><ele>277.0</ele><time>2026-03-29T09:00:56Z</time></trkpt><trkpt lat="43.319436808721015" lon="11.362825569375968"><ele>275.6</ele><time>2026-03-29T09:00:57Z</time></trkpt><trkpt lat="43.31940484029202" lon="11.362686398831135"><ele>274.2</ele><time>2026-03-29T09:00:58Z</time></trkpt><trkpt lat="43.31936377532541" lon="11.362555427386155"><ele>272.8</ele><time>2026-03-29T09:00:59Z</time></trkpt><trkpt lat="43.3193054656834" lon="11.362450910376772"><ele>271.4</ele><time>2026-03-29T09:01:00Z</time></trkpt><trkpt lat="43.31924054767843" lon="11.36236199304366"><ele>270.0</ele><time>2026-03-29T09:01:01Z</time></trkpt><trkpt lat="43.31916500545684" lon="11.362256851346567"><ele>269.0</ele><time>2026-03-29T09:01:01.999Z</time></trkpt><trkpt lat="43.31907734755082" lon="11.362138230920014"><ele>268.0</ele><time>2026-03-29T09:01:02.999Z</time></trkpt><trkpt lat="43.31899694177787" lon="11.362009931996294"><ele>267.0</ele><time>2026-03-29T09:01:03.999Z</time></trkpt><trkpt lat="43.318919629430916" lon="11.361890073428771"><ele>266.0</ele><time>2026-03-29T09:01:04.999Z</time></trkpt><trkpt lat="43.31883933985164" lon="11.361780805884614"><ele>266.0</ele><time>2026-03-29T09:01:05.999Z</time></trkpt><trkpt lat="43.3187703259668" lon="11.36164693412323"><ele>266.0</ele><time>2026-03-29T09:01:06.999Z</time></trkpt><trkpt lat="43.31869934806797" lon="11.361485913490174"><ele>266.0</ele><time>2026-03-29T09:01:07.999Z</time></trkpt><trkpt lat="43.31864007627435" lon="11.361332431301193"><ele>266.0</ele><time>2026-03-29T09:01:08.999Z</time></trkpt><trkpt lat="43.318590482885085" lon="11.36117890401735"><ele>264.0</ele><time>2026-03-29T09:01:09.999Z</time></trkpt><trkpt lat="43.318546570719725" lon="11.361033661283175"><ele>262.0</ele><time>2026-03-29T09:01:10.999Z</time></trkpt><trkpt lat="43.318499065377445" lon="11.360894486630325"><ele>260.0</ele><time>2026-03-29T09:01:11.999Z</time></trkpt><trkpt lat="43.31844039516757" lon="11.360758235491128"><ele>258.0</ele><time>2026-03-29T09:01:12.999Z</time></trkpt><trkpt lat="43.318368338909494" lon="11.360611588796239"><ele>256.25</ele><time>2026-03-29T09:01:13.999Z</time></trkpt><trkpt lat="43.31829838882237" lon="11.360454542845966"><ele>254.5</ele><time>2026-03-29T09:01:14.999Z</time></trkpt><trkpt lat="43.318221043556" lon="11.360289737445166"><ele>252.75</ele><time>2026-03-29T09:01:15.999Z</time></trkpt><trkpt lat="43.318177423791056" lon="11.360140216057596"><ele>251.0</ele><time>2026-03-29T09:01:16.999Z</time></trkpt><trkpt lat="43.31809474808719" lon="11.360012611917398"><ele>251.0</ele><time>2026-03-29T09:01:17.999Z</time></trkpt><trkpt lat="43.31800895690337" lon="11.359884716541943"><ele>251.0</ele><time>2026-03-29T09:01:18.999Z</time></trkpt><trkpt lat="43.31794122535465" lon="11.359752885745129"><ele>251.0</ele><time>2026-03-29T09:01:19.999Z</time></trkpt><trkpt lat="43.31785978488814" lon="11.359599989216568"><ele>251.0</ele><time>2026-03-29T09:01:20.999Z</time></trkpt><trkpt lat="43.31778896627042" lon="11.359418702334885"><ele>248.5</ele><time>2026-03-29T09:01:21.999Z</time></trkpt><trkpt lat="43.31775733991129" lon="11.359248805170976"><ele>246.0</ele><time>2026-03-29T09:01:22.999Z</time></trkpt><trkpt lat="43.317724015654704" lon="11.359067417179782"><ele>243.5</ele><time>2026-03-29T09:01:23.999Z</time></trkpt><trkpt lat="43.317693149252264" lon="11.35888137462042"><ele>241.0</ele><time>2026-03-29T09:01:24.999Z</time></trkpt><trkpt lat="43.31765807588663" lon="11.358722550881032"><ele>240.0</ele><time>2026-03-29T09:01:25.999Z</time></trkpt><trkpt lat="43.31759798275354" lon="11.358578431402355"><ele>239.0</ele><time>2026-03-29T09:01:26.999Z</time></trkpt><trkpt lat="43.31751586640146" lon="11.358458874048432"><ele>238.0</ele><time>2026-03-29T09:01:27.999Z</time></trkpt><trkpt lat="43.31741381415737" lon="11.35836967562957"><ele>237.0</ele><time>2026-03-29T09:01:28.999Z</time></trkpt><trkpt lat="43.317305097368106" lon="11.35830974786361"><ele>235.25</ele><time>2026-03-29T09:01:29.999Z</time></trkpt><trkpt lat="43.31718474668444" lon="11.358274319290413"><ele>233.5</ele><time>2026-03-29T09:01:30.999Z</time></trkpt><trkpt lat="43.317050625661906" lon="11.358267873760726"><ele>231.75</ele><time>2026-03-29T09:01:31.999Z</time></trkpt><trkpt lat="43.316917118331446" lon="11.35828242407091"><ele>230.0</ele><time>2026-03-29T09:01:32.999Z</time></trkpt><trkpt lat="43.316802083235885" lon="11.358278117318074"><ele>230.0</ele><time>2026-03-29T09:01:33.999Z</time></trkpt><trkpt lat="43.31670335300289" lon="11.35820271875427"><ele>230.0</ele><time>2026-03-29T09:01:34.999Z</time></trkpt><trkpt lat="43.316618773785464" lon="11.358108594699956"><ele>230.0</ele><time>2026-03-29T09:01:35.999Z</time></trkpt><trkpt lat="43.31653949577653" lon="11.357991855153577"><ele>230.0</ele><time>2026-03-29T09:01:36.999Z</time></trkpt><trkpt lat="43.31645633242203" lon="11.357846784161056"><ele>229.25</ele><time>2026-03-29T09:01:37.999Z</time></trkpt><trkpt lat="43.316377481851625" lon="11.357708725133968"><ele>228.5</ele><time>2026-03-29T09:01:38.999Z</time></trkpt><trkpt lat="43.31629470053722" lon="11.357577365344222"><ele>227.75</ele><time>2026-03-29T09:01:39.999Z</time></trkpt><trkpt lat="43.316212829345126" lon="11.357471482580753"><ele>227.0</ele><time>2026-03-29T09:01:40.999Z</time></trkpt><trkpt lat="43.31614534920564" lon="11.357350728229296"><ele>227.0</ele><time>2026-03-29T09:01:41.999Z</time></trkpt><trkpt lat="43.31609732286107" lon="11.35722021868215"><ele>227.0</ele><time>2026-03-29T09:01:42.999Z</time></trkpt><trkpt lat="43.31606737995048" lon="11.35708318354464"><ele>227.0</ele><time>2026-03-29T09:01:43.999Z</time></trkpt><trkpt lat="43.31605131347849" lon="11.356948658100535"><ele>227.0</ele><time>2026-03-29T09:01:44.999Z</time></trkpt><trkpt lat="43.3160414746919" lon="11.356829163576146"><ele>227.0</ele><time>2026-03-29T09:01:45.999Z</time></trkpt><trkpt lat="43.31603618401847" lon="11.356715622233057"><ele>226.8</ele><time>2026-03-29T09:01:46.999Z</time></trkpt><trkpt lat="43.31603014550531" lon="11.356615264458533"><ele>226.6</ele><time>2026-03-29T09:01:47.999Z</time></trkpt><trkpt lat="43.316027124711916" lon="11.356520681291691"><ele>226.40000000000003</ele><time>2026-03-29T09:01:48.999Z</time></trkpt><trkpt lat="43.31601899871312" lon="11.356361932170934"><ele>226.20000000000002</ele><time>2026-03-29T09:01:50.999Z</time></trkpt><trkpt lat="43.316019252055824" lon="11.356212939070097"><ele>226.0</ele><time>2026-03-29T09:01:53Z</time></trkpt><trkpt lat="43.3160618019371" lon="11.356086327974209"><ele>225.83333333333331</ele><time>2026-03-29T09:01:55Z</time></trkpt><trkpt lat="43.31610642808538" lon="11.356012194858982"><ele>225.66666666666666</ele><time>2026-03-29T09:01:56Z</time></trkpt><trkpt lat="43.31615771251883" lon="11.355922444349224"><ele>225.5</ele><time>2026-03-29T09:01:57Z</time></trkpt><trkpt lat="43.3162083956859" lon="11.355834368354355"><ele>225.33333333333331</ele><time>2026-03-29T09:01:58Z</time></trkpt><trkpt lat="43.316257519078924" lon="11.355770827556288"><ele>225.16666666666666</ele><time>2026-03-29T09:01:59Z</time></trkpt><trkpt lat="43.316309733418414" lon="11.355706683273038"><ele>225.0</ele><time>2026-03-29T09:02:00Z</time></trkpt><trkpt lat="43.31634844076867" lon="11.355608539063004"><ele>225.00000000000003</ele><time>2026-03-29T09:02:01Z</time></trkpt><trkpt lat="43.316394320665914" lon="11.355547615888106"><ele>225.0</ele><time>2026-03-29T09:02:02Z</time></trkpt><trkpt lat="43.31640925899264" lon="11.355462546557582"><ele>225.00000000000003</ele><time>2026-03-29T09:02:03Z</time></trkpt><trkpt lat="43.31639858536894" lon="11.35537475612648"><ele>225.00000000000003</ele><time>2026-03-29T09:02:04Z</time></trkpt><trkpt lat="43.31635318624449" lon="11.355299025253863"><ele>225.0</ele><time>2026-03-29T09:02:05Z</time></trkpt><trkpt lat="43.31629666464211" lon="11.35523803786164"><ele>225.00000000000003</ele><time>2026-03-29T09:02:06Z</time></trkpt><trkpt lat="43.31621897485194" lon="11.355199060571524"><ele>225.00000000000003</ele><time>2026-03-29T09:02:07Z</time></trkpt><trkpt lat="43.31613534182889" lon="11.35518495892209"><ele>225.4</ele><time>2026-03-29T09:02:08Z</time></trkpt><trkpt lat="43.31605180964647" lon="11.355205432745088"><ele>225.8</ele><time>2026-03-29T09:02:09Z</time></trkpt><trkpt lat="43.316000081868914" lon="11.35507979699417"><ele>226.2</ele><time>2026-03-29T09:02:10Z</time></trkpt><trkpt lat="43.31595155615298" lon="11.354992914661318"><ele>226.6</ele><time>2026-03-29T09:02:11Z</time></trkpt><trkpt lat="43.31592850437699" lon="11.354840147715603"><ele>227.0</ele><time>2026-03-29T09:02:12Z</time></trkpt><trkpt lat="43.315879002985895" lon="11.354657754043373"><ele>228.33333333333334</ele><time>2026-03-29T09:02:13Z</time></trkpt><trkpt lat="43.31582094517074" lon="11.354442160747451"><ele>229.66666666666669</ele><time>2026-03-29T09:02:14Z</time></trkpt><trkpt lat="43.31575929772723" lon="11.354213082389853"><ele>231.0</ele><time>2026-03-29T09:02:15Z</time></trkpt><trkpt lat="43.31569521599713" lon="11.353974578220289"><ele>232.0</ele><time>2026-03-29T09:02:16Z</time></trkpt><trkpt lat="43.3156362076677" lon="11.353752243449762"><ele>233.0</ele><time>2026-03-29T09:02:17Z</time></trkpt><trkpt lat="43.31557271028681" lon="11.353568417469964"><ele>234.0</ele><time>2026-03-29T09:02:18Z</time></trkpt><trkpt lat="43.31552682116292" lon="11.353393051124216"><ele>234.0</ele><time>2026-03-29T09:02:19Z</time></trkpt><trkpt lat="43.31548143180635" lon="11.353225666500592"><ele>234.0</ele><time>2026-03-29T09:02:20Z</time></trkpt><trkpt lat="43.31543481775217" lon="11.353056358643547"><ele>234.0</ele><time>2026-03-29T09:02:21Z</time></trkpt><trkpt lat="43.315387192009844" lon="11.352867932456707"><ele>234.0</ele><time>2026-03-29T09:02:22Z</time></trkpt><trkpt lat="43.3153331610025" lon="11.352650900464198"><ele>235.0</ele><time>2026-03-29T09:02:23Z</time></trkpt><trkpt lat="43.31527082710259" lon="11.352414580217106"><ele>236.0</ele><time>2026-03-29T09:02:24Z</time></trkpt><trkpt lat="43.31521652427612" lon="11.352205177711038"><ele>237.0</ele><time>2026-03-29T09:02:25Z</time></trkpt><trkpt lat="43.315170234323304" lon="11.352025882459046"><ele>238.75</ele><time>2026-03-29T09:02:26Z</time></trkpt><trkpt lat="43.31512532473236" lon="11.35185365796992"><ele>240.5</ele><time>2026-03-29T09:02:27Z</time></trkpt><trkpt lat="43.31506295392271" lon="11.351686919425227"><ele>242.25</ele><time>2026-03-29T09:02:28Z</time></trkpt><trkpt lat="43.31498241211745" lon="11.351511015559494"><ele>244.0</ele><time>2026-03-29T09:02:29Z</time></trkpt><trkpt lat="43.31489840173037" lon="11.351352003528948"><ele>243.79999999999998</ele><time>2026-03-29T09:02:30Z</time></trkpt><trkpt lat="43.31483116568844" lon="11.35122027810343"><ele>243.59999999999997</ele><time>2026-03-29T09:02:31Z</time></trkpt><trkpt lat="43.314781967611985" lon="11.351100610990326"><ele>243.4</ele><time>2026-03-29T09:02:32Z</time></trkpt><trkpt lat="43.31470790193423" lon="11.350997639854679"><ele>243.2</ele><time>2026-03-29T09:02:33Z</time></trkpt><trkpt lat="43.31464029781812" lon="11.350896632540707"><ele>243.0</ele><time>2026-03-29T09:02:34Z</time></trkpt><trkpt lat="43.31458311793512" lon="11.350810916035531"><ele>243.0</ele><time>2026-03-29T09:02:35Z</time></trkpt><trkpt lat="43.31452945422458" lon="11.35073306706402"><ele>243.0</ele><time>2026-03-29T09:02:36Z</time></trkpt><trkpt lat="43.31447242989183" lon="11.350650826297281"><ele>243.0</ele><time>2026-03-29T09:02:37Z</time></trkpt><trkpt lat="43.31441387652469" lon="11.350558671839918"><ele>243.0</ele><time>2026-03-29T09:02:38Z</time></trkpt><trkpt lat="43.31437368875192" lon="11.350451540167162"><ele>243.0</ele><time>2026-03-29T09:02:39Z</time></trkpt><trkpt lat="43.314358632620944" lon="11.35032899046604"><ele>243.0</ele><time>2026-03-29T09:02:40Z</time></trkpt><trkpt lat="43.31437073080477" lon="11.350208192778783"><ele>243.60000000000002</ele><time>2026-03-29T09:02:41Z</time></trkpt><trkpt lat="43.31439698265997" lon="11.350087066860777"><ele>244.20000000000002</ele><time>2026-03-29T09:02:42Z</time></trkpt><trkpt lat="43.31443972798052" lon="11.349969473299975"><ele>244.8</ele><time>2026-03-29T09:02:43Z</time></trkpt><trkpt lat="43.31451374111295" lon="11.349882986158729"><ele>245.4</ele><time>2026-03-29T09:02:44Z</time></trkpt><trkpt lat="43.31459362017846" lon="11.349851309111523"><ele>246.0</ele><time>2026-03-29T09:02:45Z</time></trkpt><trkpt lat="43.314686073759404" lon="11.349870639941646"><ele>249.0</ele><time>2026-03-29T09:02:46Z</time></trkpt><trkpt lat="43.314785769491" lon="11.349857481039178"><ele>252.00000000000003</ele><time>2026-03-29T09:02:47Z</time></trkpt><trkpt lat="43.31489558626684" lon="11.349853475150786"><ele>255.00000000000003</ele><time>2026-03-29T09:02:48Z</time></trkpt><trkpt lat="43.31499920747196" lon="11.349796616920582"><ele>258.0</ele><time>2026-03-29T09:02:49Z</time></trkpt><trkpt lat="43.315072556678054" lon="11.34969978000064"><ele>261.0</ele><time>2026-03-29T09:02:50Z</time></trkpt><trkpt lat="43.31512024704276" lon="11.349577131204853"><ele>261.75</ele><time>2026-03-29T09:02:51Z</time></trkpt><trkpt lat="43.31514159576905" lon="11.349437275863016"><ele>262.5</ele><time>2026-03-29T09:02:52Z</time></trkpt><trkpt lat="43.31512280668633" lon="11.349284923699322"><ele>263.25</ele><time>2026-03-29T09:02:53Z</time></trkpt><trkpt lat="43.31506937535838" lon="11.34913794315613"><ele>264.0</ele><time>2026-03-29T09:02:54Z</time></trkpt><trkpt lat="43.31498459346064" lon="11.349022722525687"><ele>264.0</ele><time>2026-03-29T09:02:55Z</time></trkpt><trkpt lat="43.31488444881236" lon="11.348943865805166"><ele>264.0</ele><time>2026-03-29T09:02:56Z</time></trkpt><trkpt lat="43.31476870395866" lon="11.348890104147516"><ele>264.0</ele><time>2026-03-29T09:02:57Z</time></trkpt><trkpt lat="43.31465424228795" lon="11.348830849696425"><ele>264.0</ele><time>2026-03-29T09:02:58Z</time></trkpt><trkpt lat="43.31457872527936" lon="11.348711270244518"><ele>261.75</ele><time>2026-03-29T09:02:59Z</time></trkpt><trkpt lat="43.314538068486435" lon="11.348574645948393"><ele>259.5</ele><time>2026-03-29T09:03:00Z</time></trkpt><trkpt lat="43.31453652201846" lon="11.348422658216634"><ele>257.25</ele><time>2026-03-29T09:03:01Z</time></trkpt><trkpt lat="43.314562151834714" lon="11.348242213938905"><ele>255.0</ele><time>2026-03-29T09:03:02Z</time></trkpt><trkpt lat="43.31462285189913" lon="11.34805994347328"><ele>254.5</ele><time>2026-03-29T09:03:03Z</time></trkpt><trkpt lat="43.314697378634236" lon="11.347889317905581"><ele>254.0</ele><time>2026-03-29T09:03:03.999Z</time></trkpt><trkpt lat="43.314793748420286" lon="11.347737576648798"><ele>253.5</ele><time>2026-03-29T09:03:04.999Z</time></trkpt><trkpt lat="43.31488576964924" lon="11.347595107944993"><ele>253.0</ele><time>2026-03-29T09:03:05.999Z</time></trkpt><trkpt lat="43.31497861433099" lon="11.347469238877176"><ele>256.75</ele><time>2026-03-29T09:03:06.999Z</time></trkpt><trkpt lat="43.315058163528796" lon="11.347348727978902"><ele>260.5</ele><time>2026-03-29T09:03:07.999Z</time></trkpt><trkpt lat="43.31512478008952" lon="11.347220030789632"><ele>264.25</ele><time>2026-03-29T09:03:08.999Z</time></trkpt><trkpt lat="43.315199359426586" lon="11.34710013777718"><ele>268.0</ele><time>2026-03-29T09:03:09.999Z</time></trkpt><trkpt lat="43.3152832223357" lon="11.346969804284367"><ele>268.0</ele><time>2026-03-29T09:03:10.999Z</time></trkpt><trkpt lat="43.315351478047255" lon="11.346847113433054"><ele>268.0</ele><time>2026-03-29T09:03:11.999Z</time></trkpt><trkpt lat="43.31542547280673" lon="11.346755417243505"><ele>268.0</ele><time>2026-03-29T09:03:12.999Z</time></trkpt><trkpt lat="43.315484423577885" lon="11.346661873517135"><ele>268.0</ele><time>2026-03-29T09:03:13.999Z</time></trkpt><trkpt lat="43.31554066398933" lon="11.346552814658327"><ele>268.0</ele><time>2026-03-29T09:03:14.999Z</time></trkpt><trkpt lat="43.3156009891676" lon="11.346456032864326"><ele>270.4</ele><time>2026-03-29T09:03:15.999Z</time></trkpt><trkpt lat="43.31565478782177" lon="11.34635006907597"><ele>272.8</ele><time>2026-03-29T09:03:16.999Z</time></trkpt><trkpt lat="43.31571757029206" lon="11.346246581252917"><ele>275.2</ele><time>2026-03-29T09:03:17.999Z</time></trkpt><trkpt lat="43.31577201002257" lon="11.346135763339557"><ele>277.6</ele><time>2026-03-29T09:03:18.999Z</time></trkpt><trkpt lat="43.315831777391544" lon="11.3460342776191"><ele>280.0</ele><time>2026-03-29T09:03:19.999Z</time></trkpt><trkpt lat="43.31589805161339" lon="11.345934042114141"><ele>280.0</ele><time>2026-03-29T09:03:20.999Z</time></trkpt><trkpt lat="43.3159589495862" lon="11.345830500108606"><ele>280.0</ele><time>2026-03-29T09:03:21.999Z</time></trkpt><trkpt lat="43.31602120261979" lon="11.345728527049225"><ele>280.0</ele><time>2026-03-29T09:03:22.999Z</time></trkpt><trkpt lat="43.316076775215315" lon="11.34562291044989"><ele>280.0</ele><time>2026-03-29T09:03:23.999Z</time></trkpt><trkpt lat="43.31614766829329" lon="11.34551296851716"><ele>280.0</ele><time>2026-03-29T09:03:24.999Z</time></trkpt><trkpt lat="43.316217661212626" lon="11.345391468192913"><ele>281.2</ele><time>2026-03-29T09:03:25.999Z</time></trkpt><trkpt lat="43.316289412240906" lon="11.345280081676124"><ele>282.4</ele><time>2026-03-29T09:03:26.999Z</time></trkpt><trkpt lat="43.31634497493122" lon="11.345185011505096"><ele>283.6</ele><time>2026-03-29T09:03:27.999Z</time></trkpt><trkpt lat="43.316399382431065" lon="11.345094389124023"><ele>284.8</ele><time>2026-03-29T09:03:28.999Z</time></trkpt><trkpt lat="43.31645490058112" lon="11.344997759559988"><ele>286.0</ele><time>2026-03-29T09:03:29.999Z</time></trkpt><trkpt lat="43.316515369394196" lon="11.344895595824022"><ele>286.0</ele><time>2026-03-29T09:03:30.999Z</time></trkpt><trkpt lat="43.31657879055805" lon="11.344801277783452"><ele>286.0</ele><time>2026-03-29T09:03:31.999Z</time></trkpt><trkpt lat="43.31664027285884" lon="11.344707915844955"><ele>286.0</ele><time>2026-03-29T09:03:32.999Z</time></trkpt><trkpt lat="43.31669652446204" lon="11.344607562278233"><ele>286.0</ele><time>2026-03-29T09:03:33.999Z</time></trkpt><trkpt lat="43.31675761752955" lon="11.344504609939225"><ele>286.0</ele><time>2026-03-29T09:03:34.999Z</time></trkpt><trkpt lat="43.31681269714387" lon="11.344398796478465"><ele>285.6</ele><time>2026-03-29T09:03:35.999Z</time></trkpt><trkpt lat="43.31686946329209" lon="11.344287768315013"><ele>285.20000000000005</ele><time>2026-03-29T09:03:36.999Z</time></trkpt><trkpt lat="43.3169107721832" lon="11.34417166533803"><ele>284.79999999999995</ele><time>2026-03-29T09:03:37.999Z</time></trkpt><trkpt lat="43.31694935757274" lon="11.344054610515252"><ele>284.4</ele><time>2026-03-29T09:03:38.999Z</time></trkpt><trkpt lat="43.31697946894306" lon="11.343971105239246"><ele>284.0</ele><time>2026-03-29T09:03:39.999Z</time></trkpt><trkpt lat="43.31702048374341" lon="11.34382803282406"><ele>283.59999999999997</ele><time>2026-03-29T09:03:41.999Z</time></trkpt><trkpt lat="43.31705991377579" lon="11.34368200584076"><ele>283.2</ele><time>2026-03-29T09:03:43.999Z</time></trkpt><trkpt lat="43.31708803997912" lon="11.343530161577231"><ele>282.79999999999995</ele><time>2026-03-29T09:03:45.999Z</time></trkpt><trkpt lat="43.31711409672675" lon="11.343402261904995"><ele>282.4</ele><time>2026-03-29T09:03:47.999Z</time></trkpt><trkpt lat="43.317134723111565" lon="11.343285479430145"><ele>282.0</ele><time>2026-03-29T09:03:52.999Z</time></trkpt><trkpt lat="43.317147177345404" lon="11.343193333620361"><ele>282.0</ele><time>2026-03-29T09:04:04Z</time></trkpt><trkpt lat="43.31717628834197" lon="11.343113717470382"><ele>282.0</ele><time>2026-03-29T09:04:07Z</time></trkpt><trkpt lat="43.317205871788" lon="11.342997739808533"><ele>282.0</ele><time>2026-03-29T09:04:16Z</time></trkpt><trkpt lat="43.31723199074993" lon="11.34290773062623"><ele>282.0</ele><time>2026-03-29T09:06:07Z</time></trkpt><trkpt lat="43.317276581687224" lon="11.342843395299568"><ele>282.0</ele><time>2026-03-29T09:19:28Z</time></trkpt><trkpt lat="43.31724485200187" lon="11.342924423484817"><ele>282.0</ele><time>2026-03-29T09:20:22.999Z</time></trkpt><trkpt lat="43.317215851515776" lon="11.34283538971641"><ele>282.0</ele><time>2026-03-29T09:24:32.999Z</time></trkpt><trkpt lat="43.31729341730094" lon="11.342697700306738"><ele>284.4</ele><time>2026-03-29T09:24:34.999Z</time></trkpt><trkpt lat="43.31738596204691" lon="11.342608919542796"><ele>286.79999999999995</ele><time>2026-03-29T09:24:35.999Z</time></trkpt><trkpt lat="43.31747624787311" lon="11.342523231258623"><ele>289.2</ele><time>2026-03-29T09:24:36.999Z</time></trkpt><trkpt lat="43.3175976184859" lon="11.342506982224025"><ele>291.59999999999997</ele><time>2026-03-29T09:24:37.999Z</time></trkpt><trkpt lat="43.317658952252664" lon="11.342455504118265"><ele>294.0</ele><time>2026-03-29T09:24:38.999Z</time></trkpt><trkpt lat="43.3177016741959" lon="11.342369567318315"><ele>294.0</ele><time>2026-03-29T09:24:39.999Z</time></trkpt><trkpt lat="43.317792437345325" lon="11.34233381769572"><ele>294.0</ele><time>2026-03-29T09:24:40.999Z</time></trkpt><trkpt lat="43.3178965730767" lon="11.342304351060847"><ele>294.0</ele><time>2026-03-29T09:24:41.999Z</time></trkpt><trkpt lat="43.318000093696014" lon="11.342280052190409"><ele>294.0</ele><time>2026-03-29T09:24:42.999Z</time></trkpt><trkpt lat="43.31808799775074" lon="11.34225804427883"><ele>294.0</ele><time>2026-03-29T09:24:43.999Z</time></trkpt><trkpt lat="43.318198147499416" lon="11.342268999645958"><ele>294.2</ele><time>2026-03-29T09:24:44.999Z</time></trkpt><trkpt lat="43.318300734049075" lon="11.342245042953744"><ele>294.4</ele><time>2026-03-29T09:24:45.999Z</time></trkpt><trkpt lat="43.31839012132285" lon="11.342224966386606"><ele>294.6</ele><time>2026-03-29T09:24:46.999Z</time></trkpt><trkpt lat="43.31847229960124" lon="11.342207728020794"><ele>294.8</ele><time>2026-03-29T09:24:47.999Z</time></trkpt><trkpt lat="43.31856850997525" lon="11.342187546176985"><ele>295.0</ele><time>2026-03-29T09:24:48.999Z</time></trkpt><trkpt lat="43.3186575404832" lon="11.34214620997187"><ele>295.66666666666663</ele><time>2026-03-29T09:24:49.999Z</time></trkpt><trkpt lat="43.31873179235259" lon="11.342134681854395"><ele>296.3333333333333</ele><time>2026-03-29T09:24:50.999Z</time></trkpt><trkpt lat="43.31880259548083" lon="11.342131832199295"><ele>297.0</ele><time>2026-03-29T09:24:51.999Z</time></trkpt><trkpt lat="43.31887336530033" lon="11.34212100415369"><ele>297.6666666666667</ele><time>2026-03-29T09:24:52.999Z</time></trkpt><trkpt lat="43.31894072353207" lon="11.342097388648183"><ele>298.33333333333337</ele><time>2026-03-29T09:24:53.999Z</time></trkpt><trkpt lat="43.319016632126036" lon="11.342071326179541"><ele>299.0</ele><time>2026-03-29T09:24:54.999Z</time></trkpt><trkpt lat="43.31909122205576" lon="11.342002493921413"><ele>299.0</ele><time>2026-03-29T09:24:55.999Z</time></trkpt><trkpt lat="43.31914946820361" lon="11.341893699414772"><ele>299.0</ele><time>2026-03-29T09:24:56.999Z</time></trkpt><trkpt lat="43.31917949693165" lon="11.341770253631399"><ele>299.0</ele><time>2026-03-29T09:24:58Z</time></trkpt><trkpt lat="43.31916667909291" lon="11.341645478826822"><ele>299.0</ele><time>2026-03-29T09:24:59Z</time></trkpt><trkpt lat="43.31914497942021" lon="11.341524659217734"><ele>299.0</ele><time>2026-03-29T09:25:00Z</time></trkpt><trkpt lat="43.319061094674126" lon="11.341418223070606"><ele>300.0</ele><time>2026-03-29T09:25:01Z</time></trkpt><trkpt lat="43.31897746260151" lon="11.341281871315006"><ele>301.0</ele><time>2026-03-29T09:25:02Z</time></trkpt><trkpt lat="43.31888760995659" lon="11.341095958862597"><ele>302.0</ele><time>2026-03-29T09:25:03Z</time></trkpt><trkpt lat="43.318792684088336" lon="11.340933379173135"><ele>303.0</ele><time>2026-03-29T09:25:04Z</time></trkpt><trkpt lat="43.31870654871377" lon="11.340785854977815"><ele>303.0</ele><time>2026-03-29T09:25:05Z</time></trkpt><trkpt lat="43.318609938326944" lon="11.34064115235532"><ele>303.0</ele><time>2026-03-29T09:25:06Z</time></trkpt><trkpt lat="43.31853664505996" lon="11.34046451172082"><ele>303.0</ele><time>2026-03-29T09:25:07Z</time></trkpt><trkpt lat="43.318476513702244" lon="11.340306923537991"><ele>303.0</ele><time>2026-03-29T09:25:08Z</time></trkpt><trkpt lat="43.31844009959501" lon="11.340145015352944"><ele>303.5</ele><time>2026-03-29T09:25:09Z</time></trkpt><trkpt lat="43.31842229289772" lon="11.33998023171493"><ele>304.0</ele><time>2026-03-29T09:25:10Z</time></trkpt><trkpt lat="43.31842767593494" lon="11.339807940377089"><ele>304.5</ele><time>2026-03-29T09:25:11Z</time></trkpt><trkpt lat="43.31844114495787" lon="11.339648476622644"><ele>305.0</ele><time>2026-03-29T09:25:12Z</time></trkpt><trkpt lat="43.318501616067906" lon="11.339517902916457"><ele>305.0</ele><time>2026-03-29T09:25:13Z</time></trkpt><trkpt lat="43.31858621917089" lon="11.33944162169302"><ele>305.0</ele><time>2026-03-29T09:25:14Z</time></trkpt><trkpt lat="43.318686694987726" lon="11.33938059051115"><ele>305.0</ele><time>2026-03-29T09:25:15Z</time></trkpt><trkpt lat="43.31880704808595" lon="11.33940135216846"><ele>305.0</ele><time>2026-03-29T09:25:16Z</time></trkpt><trkpt lat="43.318935545234744" lon="11.339384541403591"><ele>300.75</ele><time>2026-03-29T09:25:17Z</time></trkpt><trkpt lat="43.31906316538379" lon="11.33940010811401"><ele>296.5</ele><time>2026-03-29T09:25:18Z</time></trkpt><trkpt lat="43.31919379030443" lon="11.33938161418229"><ele>292.25</ele><time>2026-03-29T09:25:19Z</time></trkpt><trkpt lat="43.319328599724" lon="11.33933175872584"><ele>288.0</ele><time>2026-03-29T09:25:20Z</time></trkpt><trkpt lat="43.319454692100926" lon="11.33930144621266"><ele>288.0</ele><time>2026-03-29T09:25:21Z</time></trkpt><trkpt lat="43.31959020975248" lon="11.339283059234113"><ele>288.0</ele><time>2026-03-29T09:25:22Z</time></trkpt><trkpt lat="43.31972530589926" lon="11.339270548907514"><ele>288.0</ele><time>2026-03-29T09:25:23Z</time></trkpt><trkpt lat="43.31983536618765" lon="11.339265206271508"><ele>288.0</ele><time>2026-03-29T09:25:24Z</time></trkpt><trkpt lat="43.31991024983193" lon="11.339258293708397"><ele>286.6666666666667</ele><time>2026-03-29T09:25:25Z</time></trkpt><trkpt lat="43.31996723774535" lon="11.339212234175706"><ele>285.3333333333333</ele><time>2026-03-29T09:25:26Z</time></trkpt><trkpt lat="43.320020006326736" lon="11.33916036261551"><ele>284.0</ele><time>2026-03-29T09:25:27Z</time></trkpt><trkpt lat="43.32003752324639" lon="11.339041990235527"><ele>282.66666666666663</ele><time>2026-03-29T09:25:28Z</time></trkpt><trkpt lat="43.31997377092993" lon="11.338912476708716"><ele>281.3333333333333</ele><time>2026-03-29T09:25:29Z</time></trkpt><trkpt lat="43.319912796831936" lon="11.338797331939455"><ele>280.0</ele><time>2026-03-29T09:25:30Z</time></trkpt><trkpt lat="43.319869463028894" lon="11.338667213702138"><ele>280.0</ele><time>2026-03-29T09:25:31Z</time></trkpt><trkpt lat="43.31982577966056" lon="11.338521048867467"><ele>280.0</ele><time>2026-03-29T09:25:32Z</time></trkpt><trkpt lat="43.31980187618486" lon="11.338389889500215"><ele>280.0</ele><time>2026-03-29T09:25:33Z</time></trkpt><trkpt lat="43.31983007976353" lon="11.338261936579"><ele>280.0</ele><time>2026-03-29T09:25:34Z</time></trkpt><trkpt lat="43.319859047090986" lon="11.338132096246596"><ele>280.0</ele><time>2026-03-29T09:25:35Z</time></trkpt><trkpt lat="43.31993008977947" lon="11.338015342609644"><ele>280.0</ele><time>2026-03-29T09:25:36Z</time></trkpt><trkpt lat="43.320016916718295" lon="11.337917740076458"><ele>280.0</ele><time>2026-03-29T09:25:37Z</time></trkpt><trkpt lat="43.32011992126367" lon="11.337861124182297"><ele>280.0</ele><time>2026-03-29T09:25:38Z</time></trkpt><trkpt lat="43.32022076494989" lon="11.337856028725389"><ele>280.0</ele><time>2026-03-29T09:25:39Z</time></trkpt><trkpt lat="43.32032151369052" lon="11.337902187945609"><ele>280.0</ele><time>2026-03-29T09:25:40Z</time></trkpt><trkpt lat="43.320418697871574" lon="11.338003735213096"><ele>279.25</ele><time>2026-03-29T09:25:41Z</time></trkpt><trkpt lat="43.32053833472705" lon="11.338113841679816"><ele>278.5</ele><time>2026-03-29T09:25:42Z</time></trkpt><trkpt lat="43.320622584098814" lon="11.338204562786526"><ele>277.75</ele><time>2026-03-29T09:25:43Z</time></trkpt><trkpt lat="43.32072738515475" lon="11.338273020453132"><ele>277.0</ele><time>2026-03-29T09:25:44Z</time></trkpt><trkpt lat="43.32082637514404" lon="11.338363332949182"><ele>276.75</ele><time>2026-03-29T09:25:45Z</time></trkpt><trkpt lat="43.3209386455947" lon="11.338435229642851"><ele>276.5</ele><time>2026-03-29T09:25:46Z</time></trkpt><trkpt lat="43.321042344315956" lon="11.338479947217813"><ele>276.25</ele><time>2026-03-29T09:25:47Z</time></trkpt><trkpt lat="43.32114269771319" lon="11.338518931917775"><ele>276.0</ele><time>2026-03-29T09:25:48Z</time></trkpt><trkpt lat="43.32125595227049" lon="11.338511019936714"><ele>276.0</ele><time>2026-03-29T09:25:49Z</time></trkpt><trkpt lat="43.32136545006648" lon="11.338494288825453"><ele>276.0</ele><time>2026-03-29T09:25:50Z</time></trkpt><trkpt lat="43.32146405473635" lon="11.338458963731354"><ele>276.0</ele><time>2026-03-29T09:25:51Z</time></trkpt><trkpt lat="43.32155728462011" lon="11.338403387509434"><ele>276.0</ele><time>2026-03-29T09:25:52Z</time></trkpt><trkpt lat="43.32164847322849" lon="11.338329609784932"><ele>276.0</ele><time>2026-03-29T09:25:53Z</time></trkpt><trkpt lat="43.32173448592315" lon="11.338229067468887"><ele>276.25</ele><time>2026-03-29T09:25:54Z</time></trkpt><trkpt lat="43.3218147341194" lon="11.338109334317615"><ele>276.5</ele><time>2026-03-29T09:25:55Z</time></trkpt><trkpt lat="43.32188808207151" lon="11.337976384020772"><ele>276.75</ele><time>2026-03-29T09:25:56Z</time></trkpt><trkpt lat="43.32195468940398" lon="11.337827392926533"><ele>277.0</ele><time>2026-03-29T09:25:57Z</time></trkpt><trkpt lat="43.322002569026495" lon="11.337668517941317"><ele>280.75</ele><time>2026-03-29T09:25:58Z</time></trkpt><trkpt lat="43.32207263412225" lon="11.337510385841252"><ele>284.5</ele><time>2026-03-29T09:25:59Z</time></trkpt><trkpt lat="43.322146353949144" lon="11.337380673824905"><ele>288.25</ele><time>2026-03-29T09:26:00Z</time></trkpt><trkpt lat="43.32222860555991" lon="11.337285539359545"><ele>292.0</ele><time>2026-03-29T09:26:01Z</time></trkpt><trkpt lat="43.32233197594572" lon="11.33719429146483"><ele>292.0</ele><time>2026-03-29T09:26:02Z</time></trkpt><trkpt lat="43.322461488212866" lon="11.33710909248468"><ele>292.0</ele><time>2026-03-29T09:26:03Z</time></trkpt><trkpt lat="43.322583677858674" lon="11.337034441787615"><ele>292.0</ele><time>2026-03-29T09:26:04Z</time></trkpt><trkpt lat="43.32268576938772" lon="11.33696513094366"><ele>292.0</ele><time>2026-03-29T09:26:05Z</time></trkpt><trkpt lat="43.32278201052717" lon="11.336870072321185"><ele>292.0</ele><time>2026-03-29T09:26:06Z</time></trkpt><trkpt lat="43.32287906454481" lon="11.3367618459031"><ele>292.0</ele><time>2026-03-29T09:26:07Z</time></trkpt><trkpt lat="43.3229729101068" lon="11.336639206268813"><ele>292.0</ele><time>2026-03-29T09:26:08Z</time></trkpt><trkpt lat="43.32306114188979" lon="11.336504009136418"><ele>292.0</ele><time>2026-03-29T09:26:09Z</time></trkpt><trkpt lat="43.32314787502861" lon="11.336369282459955"><ele>292.0</ele><time>2026-03-29T09:26:09.999Z</time></trkpt><trkpt lat="43.3232269173911" lon="11.336214407281554"><ele>292.0</ele><time>2026-03-29T09:26:10.999Z</time></trkpt><trkpt lat="43.323300129088686" lon="11.336055586585823"><ele>292.0</ele><time>2026-03-29T09:26:11.999Z</time></trkpt><trkpt lat="43.32335127291885" lon="11.335912318767063"><ele>292.0</ele><time>2026-03-29T09:26:12.999Z</time></trkpt><trkpt lat="43.32338848876512" lon="11.335752695621075"><ele>292.0</ele><time>2026-03-29T09:26:13.999Z</time></trkpt><trkpt lat="43.323426556957756" lon="11.335590189197314"><ele>292.0</ele><time>2026-03-29T09:26:14.999Z</time></trkpt><trkpt lat="43.32346332074013" lon="11.335410824461194"><ele>292.0</ele><time>2026-03-29T09:26:15.999Z</time></trkpt><trkpt lat="43.32348425145989" lon="11.335237678087545"><ele>292.0</ele><time>2026-03-29T09:26:16.999Z</time></trkpt><trkpt lat="43.32348918354331" lon="11.335073158068624"><ele>294.25</ele><time>2026-03-29T09:26:17.999Z</time></trkpt><trkpt lat="43.32350347053394" lon="11.33490961656459"><ele>296.5</ele><time>2026-03-29T09:26:18.999Z</time></trkpt><trkpt lat="43.32352604562438" lon="11.334747600536323"><ele>298.75</ele><time>2026-03-29T09:26:19.999Z</time></trkpt><trkpt lat="43.32353768035961" lon="11.33456580429777"><ele>301.0</ele><time>2026-03-29T09:26:20.999Z</time></trkpt><trkpt lat="43.3235467428993" lon="11.334401921066732"><ele>301.40000000000003</ele><time>2026-03-29T09:26:21.999Z</time></trkpt><trkpt lat="43.323559835450375" lon="11.334249830327161"><ele>301.8</ele><time>2026-03-29T09:26:22.999Z</time></trkpt><trkpt lat="43.3235701176369" lon="11.33409688699651"><ele>302.20000000000005</ele><time>2026-03-29T09:26:23.999Z</time></trkpt><trkpt lat="43.323587138862266" lon="11.333961504349386"><ele>302.6</ele><time>2026-03-29T09:26:24.999Z</time></trkpt><trkpt lat="43.32360179412181" lon="11.33382471543478"><ele>303.0</ele><time>2026-03-29T09:26:25.999Z</time></trkpt><trkpt lat="43.3236172356466" lon="11.333693749966585"><ele>303.0</ele><time>2026-03-29T09:26:26.999Z</time></trkpt><trkpt lat="43.323629789528816" lon="11.3335744741748"><ele>303.0</ele><time>2026-03-29T09:26:27.999Z</time></trkpt><trkpt lat="43.323646416683296" lon="11.333470065942175"><ele>303.0</ele><time>2026-03-29T09:26:28.999Z</time></trkpt><trkpt lat="43.32367709638191" lon="11.33339447627491"><ele>303.0</ele><time>2026-03-29T09:26:29.999Z</time></trkpt><trkpt lat="43.323756897517065" lon="11.333270191736448"><ele>303.0</ele><time>2026-03-29T09:26:31.999Z</time></trkpt><trkpt lat="43.32384577898238" lon="11.333237143918716"><ele>303.0</ele><time>2026-03-29T09:26:33.999Z</time></trkpt><trkpt lat="43.323924087651626" lon="11.333389025740015"><ele>302.2</ele><time>2026-03-29T09:26:35.999Z</time></trkpt><trkpt lat="43.323983306965154" lon="11.33346698109307"><ele>301.4</ele><time>2026-03-29T09:26:36.999Z</time></trkpt><trkpt lat="43.32404832126522" lon="11.333579507947384"><ele>300.59999999999997</ele><time>2026-03-29T09:26:37.999Z</time></trkpt><trkpt lat="43.324119675437714" lon="11.333681600421153"><ele>299.8</ele><time>2026-03-29T09:26:38.999Z</time></trkpt><trkpt lat="43.324175083712866" lon="11.333777147508513"><ele>299.0</ele><time>2026-03-29T09:26:39.999Z</time></trkpt><trkpt lat="43.324259586919446" lon="11.333850709102371"><ele>299.0</ele><time>2026-03-29T09:26:40.999Z</time></trkpt><trkpt lat="43.3243698465429" lon="11.333870126458867"><ele>299.0</ele><time>2026-03-29T09:26:41.999Z</time></trkpt><trkpt lat="43.32447332831183" lon="11.333854925645408"><ele>299.0</ele><time>2026-03-29T09:26:42.999Z</time></trkpt><trkpt lat="43.32458079823107" lon="11.333835154719074"><ele>299.0</ele><time>2026-03-29T09:26:43.999Z</time></trkpt><trkpt lat="43.324688095813876" lon="11.33381581209637"><ele>299.0</ele><time>2026-03-29T09:26:44.999Z</time></trkpt><trkpt lat="43.32480247602699" lon="11.333794071010677"><ele>300.0</ele><time>2026-03-29T09:26:45.999Z</time></trkpt><trkpt lat="43.32493749442243" lon="11.333767209330299"><ele>301.0</ele><time>2026-03-29T09:26:46.999Z</time></trkpt><trkpt lat="43.32505619238611" lon="11.333739571181805"><ele>302.0</ele><time>2026-03-29T09:26:47.999Z</time></trkpt><trkpt lat="43.32518050978403" lon="11.33369738310543"><ele>303.0</ele><time>2026-03-29T09:26:48.999Z</time></trkpt><trkpt lat="43.32532150442427" lon="11.333728134292762"><ele>303.0</ele><time>2026-03-29T09:26:49.999Z</time></trkpt><trkpt lat="43.325462530277846" lon="11.333755049761926"><ele>303.0</ele><time>2026-03-29T09:26:50.999Z</time></trkpt><trkpt lat="43.3256110279524" lon="11.333761029594562"><ele>303.0</ele><time>2026-03-29T09:26:51.999Z</time></trkpt><trkpt lat="43.32576521001395" lon="11.333791049135392"><ele>303.0</ele><time>2026-03-29T09:26:52.999Z</time></trkpt><trkpt lat="43.32590394233126" lon="11.333814443945693"><ele>303.5</ele><time>2026-03-29T09:26:53.999Z</time></trkpt><trkpt lat="43.32604314313286" lon="11.333834267532229"><ele>304.0</ele><time>2026-03-29T09:26:54.999Z</time></trkpt><trkpt lat="43.32617601953322" lon="11.333848256067009"><ele>304.5</ele><time>2026-03-29T09:26:55.999Z</time></trkpt><trkpt lat="43.32628837198016" lon="11.333847951392787"><ele>305.0</ele><time>2026-03-29T09:26:56.999Z</time></trkpt><trkpt lat="43.326375467775705" lon="11.333851711244655"><ele>304.5</ele><time>2026-03-29T09:26:57.999Z</time></trkpt><trkpt lat="43.32644875874827" lon="11.333852785325929"><ele>304.0</ele><time>2026-03-29T09:26:58.999Z</time></trkpt><trkpt lat="43.32653722600846" lon="11.33385730636696"><ele>303.5</ele><time>2026-03-29T09:27:00.999Z</time></trkpt><trkpt lat="43.3266118963719" lon="11.333840381540435"><ele>303.0</ele><time>2026-03-29T09:27:02.999Z</time></trkpt><trkpt lat="43.32669194361804" lon="11.333845668472277"><ele>302.5</ele><time>2026-03-29T09:27:05Z</time></trkpt><trkpt lat="43.32676782603413" lon="11.333722054222498"><ele>302.0</ele><time>2026-03-29T09:27:07Z</time></trkpt><trkpt lat="43.32678763813877" lon="11.333638958959439"><ele>302.00000000000006</ele><time>2026-03-29T09:27:08Z</time></trkpt><trkpt lat="43.32680309078367" lon="11.333552342891357"><ele>302.0</ele><time>2026-03-29T09:27:09Z</time></trkpt><trkpt lat="43.32683753921716" lon="11.333456353660221"><ele>302.0</ele><time>2026-03-29T09:27:10Z</time></trkpt><trkpt lat="43.32686285576206" lon="11.333368738738969"><ele>302.0</ele><time>2026-03-29T09:27:11Z</time></trkpt><trkpt lat="43.32687405207628" lon="11.3332808803392"><ele>302.0</ele><time>2026-03-29T09:27:12Z</time></trkpt><trkpt lat="43.32689872988012" lon="11.333199189024155"><ele>302.00000000000006</ele><time>2026-03-29T09:27:13Z</time></trkpt><trkpt lat="43.326928347706605" lon="11.333112615479111"><ele>302.0</ele><time>2026-03-29T09:27:14Z</time></trkpt><trkpt lat="43.326951789029884" lon="11.333024382112551"><ele>303.0</ele><time>2026-03-29T09:27:15Z</time></trkpt><trkpt lat="43.32697208126466" lon="11.332933174830751"><ele>304.0</ele><time>2026-03-29T09:27:16Z</time></trkpt><trkpt lat="43.32699538891199" lon="11.332836814216432"><ele>305.0</ele><time>2026-03-29T09:27:17Z</time></trkpt><trkpt lat="43.327023754516546" lon="11.332747719774755"><ele>306.0</ele><time>2026-03-29T09:27:18Z</time></trkpt><trkpt lat="43.327077542364776" lon="11.332603238557857"><ele>307.0</ele><time>2026-03-29T09:27:20Z</time></trkpt><trkpt lat="43.327095080050384" lon="11.332513420579845"><ele>308.0</ele><time>2026-03-29T09:27:21Z</time></trkpt><trkpt lat="43.32719552456944" lon="11.332411068067476"><ele>304.0</ele><time>2026-03-29T09:27:23Z</time></trkpt><trkpt lat="43.3272977477168" lon="11.332399757821076"><ele>300.0</ele><time>2026-03-29T09:27:25Z</time></trkpt><trkpt lat="43.32737547807443" lon="11.332427496637468"><ele>296.0</ele><time>2026-03-29T09:27:27Z</time></trkpt><trkpt lat="43.32744790829029" lon="11.332420678850598"><ele>292.0</ele><time>2026-03-29T09:27:30Z</time></trkpt><trkpt lat="43.327516746499626" lon="11.332403846572905"><ele>288.0</ele><time>2026-03-29T09:29:45Z</time></trkpt><trkpt lat="43.32758823310927" lon="11.332369144906346"><ele>284.0</ele><time>2026-03-29T09:29:47Z</time></trkpt><trkpt lat="43.327622560186775" lon="11.33229240607458"><ele>284.5</ele><time>2026-03-29T09:29:48Z</time></trkpt><trkpt lat="43.327639236744" lon="11.332196441260232"><ele>285.0</ele><time>2026-03-29T09:29:49Z</time></trkpt><trkpt lat="43.327631367775204" lon="11.332102359354995"><ele>285.5</ele><time>2026-03-29T09:29:50Z</time></trkpt><trkpt lat="43.32760828586507" lon="11.332011252036684"><ele>286.0</ele><time>2026-03-29T09:29:51Z</time></trkpt><trkpt lat="43.32756028419619" lon="11.33193486584436"><ele>286.5</ele><time>2026-03-29T09:29:52Z</time></trkpt><trkpt lat="43.32750399011531" lon="11.331887977268266"><ele>287.0</ele><time>2026-03-29T09:29:53Z</time></trkpt><trkpt lat="43.32738339763222" lon="11.331886648606348"><ele>287.0</ele><time>2026-03-29T09:29:55Z</time></trkpt><trkpt lat="43.32732522018542" lon="11.331930543624026"><ele>287.0</ele><time>2026-03-29T09:29:56Z</time></trkpt><trkpt lat="43.3272817571783" lon="11.332003428532845"><ele>287.0</ele><time>2026-03-29T09:29:57Z</time></trkpt><trkpt lat="43.327265246414356" lon="11.332099621781184"><ele>287.0</ele><time>2026-03-29T09:29:58Z</time></trkpt><trkpt lat="43.327270771218146" lon="11.33219624826192"><ele>287.0</ele><time>2026-03-29T09:29:59Z</time></trkpt><trkpt lat="43.32733994425633" lon="11.33233504544082"><ele>287.0</ele><time>2026-03-29T09:30:01Z</time></trkpt><trkpt lat="43.32738972932328" lon="11.332393641532645"><ele>286.4</ele><time>2026-03-29T09:30:02Z</time></trkpt><trkpt lat="43.32744126171596" lon="11.332448346264965"><ele>285.79999999999995</ele><time>2026-03-29T09:30:03Z</time></trkpt><trkpt lat="43.32751442252271" lon="11.332554042816085"><ele>285.2</ele><time>2026-03-29T09:30:05Z</time></trkpt><trkpt lat="43.327577322889795" lon="11.332666363784854"><ele>284.59999999999997</ele><time>2026-03-29T09:30:08Z</time></trkpt><trkpt lat="43.32760107242501" lon="11.332763409741903"><ele>284.0</ele><time>2026-03-29T09:30:36.999Z</time></trkpt><trkpt lat="43.327659718089244" lon="11.332881262189234"><ele>284.0</ele><time>2026-03-29T09:30:38.999Z</time></trkpt><trkpt lat="43.32770694649973" lon="11.332997120926793"><ele>284.0</ele><time>2026-03-29T09:30:39.999Z</time></trkpt><trkpt lat="43.32775155007658" lon="11.333128321556728"><ele>284.0</ele><time>2026-03-29T09:30:40.999Z</time></trkpt><trkpt lat="43.32779977545837" lon="11.333288549589223"><ele>284.0</ele><time>2026-03-29T09:30:41.999Z</time></trkpt><trkpt lat="43.32784737692469" lon="11.333449211484684"><ele>282.75</ele><time>2026-03-29T09:30:42.999Z</time></trkpt><trkpt lat="43.32788658136989" lon="11.333614318099922"><ele>281.5</ele><time>2026-03-29T09:30:43.999Z</time></trkpt><trkpt lat="43.32791742115264" lon="11.333773755058873"><ele>280.25</ele><time>2026-03-29T09:30:44.999Z</time></trkpt><trkpt lat="43.327943317498445" lon="11.33393837393846"><ele>279.0</ele><time>2026-03-29T09:30:45.999Z</time></trkpt><trkpt lat="43.32796822370942" lon="11.334121727635617"><ele>277.25</ele><time>2026-03-29T09:30:46.999Z</time></trkpt><trkpt lat="43.32798959265151" lon="11.334319609972107"><ele>275.5</ele><time>2026-03-29T09:30:47.999Z</time></trkpt><trkpt lat="43.328001674511" lon="11.334500131718574"><ele>273.75</ele><time>2026-03-29T09:30:48.999Z</time></trkpt><trkpt lat="43.328009600304426" lon="11.334682950134017"><ele>272.0</ele><time>2026-03-29T09:30:49.999Z</time></trkpt><trkpt lat="43.32801479111757" lon="11.334870568671823"><ele>271.0</ele><time>2026-03-29T09:30:50.999Z</time></trkpt><trkpt lat="43.32803152242182" lon="11.335062844322891"><ele>270.0</ele><time>2026-03-29T09:30:51.999Z</time></trkpt><trkpt lat="43.32804084190614" lon="11.33522867517856"><ele>269.0</ele><time>2026-03-29T09:30:52.999Z</time></trkpt><trkpt lat="43.32804660407162" lon="11.335400355511425"><ele>268.0</ele><time>2026-03-29T09:30:53.999Z</time></trkpt><trkpt lat="43.32805441506896" lon="11.33557967043038"><ele>267.5</ele><time>2026-03-29T09:30:54.999Z</time></trkpt><trkpt lat="43.32805995919245" lon="11.3357481679228"><ele>267.0</ele><time>2026-03-29T09:30:55.999Z</time></trkpt><trkpt lat="43.328061760602395" lon="11.335900435603536"><ele>266.5</ele><time>2026-03-29T09:30:56.999Z</time></trkpt><trkpt lat="43.32806026327264" lon="11.336060850199006"><ele>266.0</ele><time>2026-03-29T09:30:57.999Z</time></trkpt><trkpt lat="43.328050022558074" lon="11.336277780429057"><ele>265.5</ele><time>2026-03-29T09:30:58.999Z</time></trkpt><trkpt lat="43.32803265640801" lon="11.336498739924345"><ele>265.0</ele><time>2026-03-29T09:30:59.999Z</time></trkpt><trkpt lat="43.328010778934214" lon="11.336684880314936"><ele>264.5</ele><time>2026-03-29T09:31:00.999Z</time></trkpt><trkpt lat="43.32798455460965" lon="11.336862484283365"><ele>264.0</ele><time>2026-03-29T09:31:01.999Z</time></trkpt><trkpt lat="43.32795698928747" lon="11.337032517878532"><ele>264.0</ele><time>2026-03-29T09:31:02.999Z</time></trkpt><trkpt lat="43.327922717962174" lon="11.337186361215375"><ele>264.0</ele><time>2026-03-29T09:31:03.999Z</time></trkpt><trkpt lat="43.32789305579183" lon="11.337325906190165"><ele>264.0</ele><time>2026-03-29T09:31:04.999Z</time></trkpt><trkpt lat="43.32786369833999" lon="11.337445434358544"><ele>264.0</ele><time>2026-03-29T09:31:05.999Z</time></trkpt><trkpt lat="43.327829850198135" lon="11.337551308726928"><ele>264.0</ele><time>2026-03-29T09:31:06.999Z</time></trkpt><trkpt lat="43.327793251653105" lon="11.337632004644798"><ele>263.8333333333333</ele><time>2026-03-29T09:31:07.999Z</time></trkpt><trkpt lat="43.32775147436003" lon="11.337699373013555"><ele>263.6666666666667</ele><time>2026-03-29T09:31:08.999Z</time></trkpt><trkpt lat="43.327697484832434" lon="11.337754715110867"><ele>263.5</ele><time>2026-03-29T09:31:09.999Z</time></trkpt><trkpt lat="43.327638440313926" lon="11.337794024217224"><ele>263.33333333333337</ele><time>2026-03-29T09:31:10.999Z</time></trkpt><trkpt lat="43.32758230319482" lon="11.337843956156382"><ele>263.1666666666667</ele><time>2026-03-29T09:31:11.999Z</time></trkpt><trkpt lat="43.32753180459015" lon="11.337974156111397"><ele>263.0</ele><time>2026-03-29T09:31:13.999Z</time></trkpt><trkpt lat="43.32748280254234" lon="11.338075690243071"><ele>262.83333333333337</ele><time>2026-03-29T09:31:16Z</time></trkpt><trkpt lat="43.3275345241566" lon="11.33817600682958"><ele>262.6666666666667</ele><time>2026-03-29T09:31:17Z</time></trkpt><trkpt lat="43.32760904256562" lon="11.338301255330729"><ele>262.5</ele><time>2026-03-29T09:31:19Z</time></trkpt><trkpt lat="43.32770418400288" lon="11.338292032909862"><ele>262.3333333333333</ele><time>2026-03-29T09:31:20Z</time></trkpt><trkpt lat="43.32776768868021" lon="11.338276451746111"><ele>262.16666666666663</ele><time>2026-03-29T09:31:21Z</time></trkpt><trkpt lat="43.32782110601045" lon="11.338222658641502"><ele>262.0</ele><time>2026-03-29T09:31:22Z</time></trkpt><trkpt lat="43.327881604066704" lon="11.338175769001628"><ele>262.0</ele><time>2026-03-29T09:31:25Z</time></trkpt><trkpt lat="43.32792296907793" lon="11.338089717116642"><ele>262.0</ele><time>2026-03-29T09:32:13Z</time></trkpt><trkpt lat="43.32791153548621" lon="11.337967572778703"><ele>262.0</ele><time>2026-03-29T09:32:15Z</time></trkpt><trkpt lat="43.32787358195236" lon="11.337884941096943"><ele>262.0</ele><time>2026-03-29T09:32:17Z</time></trkpt><trkpt lat="43.32777888846916" lon="11.337782240087511"><ele>262.0</ele><time>2026-03-29T09:32:18.999Z</time></trkpt><trkpt lat="43.32770546698848" lon="11.337771481712439"><ele>262.0</ele><time>2026-03-29T09:32:19.999Z</time></trkpt><trkpt lat="43.32763854338838" lon="11.337788449817019"><ele>262.0</ele><time>2026-03-29T09:32:20.999Z</time></trkpt><trkpt lat="43.32758705462524" lon="11.337840187268714"><ele>262.0</ele><time>2026-03-29T09:32:21.999Z</time></trkpt><trkpt lat="43.32754574586881" lon="11.337919396590475"><ele>262.0</ele><time>2026-03-29T09:32:22.999Z</time></trkpt><trkpt lat="43.32750406185357" lon="11.338006350361162"><ele>262.0</ele><time>2026-03-29T09:32:23.999Z</time></trkpt><trkpt lat="43.327532199712174" lon="11.338122173678721"><ele>262.0</ele><time>2026-03-29T09:32:24.999Z</time></trkpt><trkpt lat="43.32756494598525" lon="11.338200133303523"><ele>262.0</ele><time>2026-03-29T09:32:25.999Z</time></trkpt><trkpt lat="43.32767426276361" lon="11.338284833791667"><ele>262.0</ele><time>2026-03-29T09:32:27.999Z</time></trkpt><trkpt lat="43.32774272966246" lon="11.33828042064874"><ele>262.0</ele><time>2026-03-29T09:32:28.999Z</time></trkpt><trkpt lat="43.327812297848475" lon="11.338261425830014"><ele>262.0</ele><time>2026-03-29T09:32:29.999Z</time></trkpt><trkpt lat="43.32787613232123" lon="11.33823968995056"><ele>262.0</ele><time>2026-03-29T09:32:30.999Z</time></trkpt><trkpt lat="43.32797258201184" lon="11.338191281087768"><ele>262.0</ele><time>2026-03-29T09:32:32.999Z</time></trkpt><trkpt lat="43.32805896253996" lon="11.338241247049766"><ele>262.0</ele><time>2026-03-29T09:32:34.999Z</time></trkpt><trkpt lat="43.32813322719078" lon="11.33827506201735"><ele>262.6</ele><time>2026-03-29T09:32:35.999Z</time></trkpt><trkpt lat="43.3282192716926" lon="11.338316772608998"><ele>263.2</ele><time>2026-03-29T09:32:36.999Z</time></trkpt><trkpt lat="43.32829856509167" lon="11.338354384917686"><ele>263.8</ele><time>2026-03-29T09:32:37.999Z</time></trkpt><trkpt lat="43.32834290907023" lon="11.338444342077114"><ele>264.4</ele><time>2026-03-29T09:32:38.999Z</time></trkpt><trkpt lat="43.32837247517236" lon="11.338575366535336"><ele>265.0</ele><time>2026-03-29T09:32:39.999Z</time></trkpt><trkpt lat="43.328343233148296" lon="11.338722551365448"><ele>265.0</ele><time>2026-03-29T09:32:40.999Z</time></trkpt><trkpt lat="43.32828598432787" lon="11.338817254403427"><ele>265.0</ele><time>2026-03-29T09:32:41.999Z</time></trkpt><trkpt lat="43.32823438419091" lon="11.338929799732558"><ele>265.0</ele><time>2026-03-29T09:32:42.999Z</time></trkpt><trkpt lat="43.32815014376459" lon="11.339044525697004"><ele>265.0</ele><time>2026-03-29T09:32:43.999Z</time></trkpt><trkpt lat="43.32806840817824" lon="11.339204670320512"><ele>265.0</ele><time>2026-03-29T09:32:44.999Z</time></trkpt><trkpt lat="43.32797925139784" lon="11.33939333916382"><ele>265.0</ele><time>2026-03-29T09:32:45.999Z</time></trkpt><trkpt lat="43.32790550920187" lon="11.339561696903239"><ele>265.0</ele><time>2026-03-29T09:32:46.999Z</time></trkpt><trkpt lat="43.32783726786571" lon="11.339725351291138"><ele>265.0</ele><time>2026-03-29T09:32:47.999Z</time></trkpt><trkpt lat="43.32776784801906" lon="11.339913650257852"><ele>265.0</ele><time>2026-03-29T09:32:48.999Z</time></trkpt><trkpt lat="43.32770576382161" lon="11.340101937832173"><ele>265.0</ele><time>2026-03-29T09:32:49.999Z</time></trkpt><trkpt lat="43.32763987565892" lon="11.340287621647018"><ele>265.0</ele><time>2026-03-29T09:32:50.999Z</time></trkpt><trkpt lat="43.327602608288466" lon="11.340432468743597"><ele>265.0</ele><time>2026-03-29T09:32:51.999Z</time></trkpt><trkpt lat="43.32759677672397" lon="11.340572661778364"><ele>265.0</ele><time>2026-03-29T09:32:52.999Z</time></trkpt><trkpt lat="43.32759430966162" lon="11.340704534215122"><ele>266.2</ele><time>2026-03-29T09:32:53.999Z</time></trkpt><trkpt lat="43.327631448014074" lon="11.340829472542708"><ele>267.4</ele><time>2026-03-29T09:32:54.999Z</time></trkpt><trkpt lat="43.32771136422561" lon="11.340936268590601"><ele>268.6</ele><time>2026-03-29T09:32:55.999Z</time></trkpt><trkpt lat="43.327810782587655" lon="11.341006009274684"><ele>269.8</ele><time>2026-03-29T09:32:56.999Z</time></trkpt><trkpt lat="43.32789460520523" lon="11.341066393263802"><ele>271.0</ele><time>2026-03-29T09:32:57.999Z</time></trkpt><trkpt lat="43.32798594733249" lon="11.341140021154274"><ele>274.5</ele><time>2026-03-29T09:32:58.999Z</time></trkpt><trkpt lat="43.32808093166539" lon="11.341236835669266"><ele>278.0</ele><time>2026-03-29T09:32:59.999Z</time></trkpt><trkpt lat="43.32817597641695" lon="11.341370595161349"><ele>281.5</ele><time>2026-03-29T09:33:00.999Z</time></trkpt><trkpt lat="43.328253330334576" lon="11.341536844228084"><ele>285.0</ele><time>2026-03-29T09:33:01.999Z</time></trkpt><trkpt lat="43.32831208040257" lon="11.34168177582847"><ele>285.0</ele><time>2026-03-29T09:33:02.999Z</time></trkpt><trkpt lat="43.32837851728525" lon="11.341823033804568"><ele>285.0</ele><time>2026-03-29T09:33:03.999Z</time></trkpt><trkpt lat="43.32847532810727" lon="11.341937736635499"><ele>285.0</ele><time>2026-03-29T09:33:04.999Z</time></trkpt><trkpt lat="43.328586871326834" lon="11.34206270616269"><ele>285.0</ele><time>2026-03-29T09:33:05.999Z</time></trkpt><trkpt lat="43.32872353811118" lon="11.342154029016797"><ele>285.75</ele><time>2026-03-29T09:33:06.999Z</time></trkpt><trkpt lat="43.328867128480795" lon="11.342244197321508"><ele>286.5</ele><time>2026-03-29T09:33:07.999Z</time></trkpt><trkpt lat="43.32899610209671" lon="11.342320940867808"><ele>287.25</ele><time>2026-03-29T09:33:08.999Z</time></trkpt><trkpt lat="43.32912893250748" lon="11.34239862232747"><ele>288.0</ele><time>2026-03-29T09:33:09.999Z</time></trkpt><trkpt lat="43.3292629171869" lon="11.342476813828759"><ele>288.6666666666667</ele><time>2026-03-29T09:33:10.999Z</time></trkpt><trkpt lat="43.32939817819168" lon="11.342556103441966"><ele>289.33333333333337</ele><time>2026-03-29T09:33:11.999Z</time></trkpt><trkpt lat="43.3295476594872" lon="11.342620902104112"><ele>290.0</ele><time>2026-03-29T09:33:12.999Z</time></trkpt><trkpt lat="43.3296900812096" lon="11.342709334998954"><ele>291.75</ele><time>2026-03-29T09:33:13.999Z</time></trkpt><trkpt lat="43.32983101985629" lon="11.342797559261953"><ele>293.5</ele><time>2026-03-29T09:33:14.999Z</time></trkpt><trkpt lat="43.32995434027776" lon="11.342870465973833"><ele>295.25</ele><time>2026-03-29T09:33:15.999Z</time></trkpt><trkpt lat="43.33007055308664" lon="11.34293781709572"><ele>297.0</ele><time>2026-03-29T09:33:16.999Z</time></trkpt><trkpt lat="43.33018450974953" lon="11.342992940409353"><ele>297.0</ele><time>2026-03-29T09:33:17.999Z</time></trkpt><trkpt lat="43.330296060507905" lon="11.343036318385632"><ele>297.0</ele><time>2026-03-29T09:33:18.999Z</time></trkpt><trkpt lat="43.330410895220496" lon="11.34307358705961"><ele>297.0</ele><time>2026-03-29T09:33:19.999Z</time></trkpt><trkpt lat="43.3305335545835" lon="11.343112912109474"><ele>297.0</ele><time>2026-03-29T09:33:20.999Z</time></trkpt><trkpt lat="43.33065312777995" lon="11.34315804424983"><ele>296.8</ele><time>2026-03-29T09:33:22Z</time></trkpt><trkpt lat="43.330749701142544" lon="11.343202016279145"><ele>296.6</ele><time>2026-03-29T09:33:23Z</time></trkpt><trkpt lat="43.330821410121025" lon="11.34327409494324"><ele>296.40000000000003</ele><time>2026-03-29T09:33:24Z</time></trkpt><trkpt lat="43.330900137966175" lon="11.343335544002276"><ele>296.2</ele><time>2026-03-29T09:33:25Z</time></trkpt><trkpt lat="43.330990472376854" lon="11.343391112242013"><ele>296.0</ele><time>2026-03-29T09:33:26Z</time></trkpt><trkpt lat="43.33107142406524" lon="11.343458795144105"><ele>296.0</ele><time>2026-03-29T09:33:27Z</time></trkpt><trkpt lat="43.33115386884482" lon="11.34352539205972"><ele>296.0</ele><time>2026-03-29T09:33:28Z</time></trkpt><trkpt lat="43.33123979338849" lon="11.343582492656209"><ele>296.0</ele><time>2026-03-29T09:33:29Z</time></trkpt><trkpt lat="43.33132981330594" lon="11.343642106535093"><ele>296.0</ele><time>2026-03-29T09:33:30Z</time></trkpt><trkpt lat="43.33141694377099" lon="11.343706600404639"><ele>296.0</ele><time>2026-03-29T09:33:31Z</time></trkpt><trkpt lat="43.33151007940492" lon="11.343767874566858"><ele>296.8</ele><time>2026-03-29T09:33:32Z</time></trkpt><trkpt lat="43.331597569234376" lon="11.34382821960166"><ele>297.6</ele><time>2026-03-29T09:33:33Z</time></trkpt><trkpt lat="43.331681094361365" lon="11.3438846360647"><ele>298.4</ele><time>2026-03-29T09:33:34Z</time></trkpt><trkpt lat="43.33176971239311" lon="11.343942798805926"><ele>299.2</ele><time>2026-03-29T09:33:35Z</time></trkpt><trkpt lat="43.331857541710754" lon="11.344005402269039"><ele>300.0</ele><time>2026-03-29T09:33:36Z</time></trkpt><trkpt lat="43.33194023186716" lon="11.344063132452812"><ele>300.0</ele><time>2026-03-29T09:33:37Z</time></trkpt><trkpt lat="43.33201700861176" lon="11.344114781177863"><ele>300.0</ele><time>2026-03-29T09:33:38Z</time></trkpt><trkpt lat="43.33209945997503" lon="11.34416826663513"><ele>300.0</ele><time>2026-03-29T09:33:39Z</time></trkpt><trkpt lat="43.33218562706471" lon="11.344216513624206"><ele>300.0</ele><time>2026-03-29T09:33:40Z</time></trkpt><trkpt lat="43.332283872212585" lon="11.344244735250061"><ele>300.0</ele><time>2026-03-29T09:33:41Z</time></trkpt><trkpt lat="43.332384564948846" lon="11.34426956882277"><ele>301.5</ele><time>2026-03-29T09:33:42Z</time></trkpt><trkpt lat="43.33249656940682" lon="11.344290106823173"><ele>303.0</ele><time>2026-03-29T09:33:43Z</time></trkpt><trkpt lat="43.332626014320795" lon="11.344300731337073"><ele>304.5</ele><time>2026-03-29T09:33:44Z</time></trkpt><trkpt lat="43.33277025157783" lon="11.34431039434812"><ele>306.0</ele><time>2026-03-29T09:33:45Z</time></trkpt><trkpt lat="43.332891388329166" lon="11.34431573272014"><ele>306.0</ele><time>2026-03-29T09:33:46Z</time></trkpt><trkpt lat="43.33300047648129" lon="11.34432500668889"><ele>306.0</ele><time>2026-03-29T09:33:47Z</time></trkpt><trkpt lat="43.33311094665101" lon="11.344330603995452"><ele>306.0</ele><time>2026-03-29T09:33:48Z</time></trkpt><trkpt lat="43.33322183626634" lon="11.344340609946626"><ele>306.0</ele><time>2026-03-29T09:33:49Z</time></trkpt><trkpt lat="43.33331910136394" lon="11.344361021388965"><ele>306.0</ele><time>2026-03-29T09:33:50Z</time></trkpt><trkpt lat="43.33339861271975" lon="11.344387173894159"><ele>306.8333333333333</ele><time>2026-03-29T09:33:51Z</time></trkpt><trkpt lat="43.333469369324675" lon="11.344426774578878"><ele>307.6666666666667</ele><time>2026-03-29T09:33:52Z</time></trkpt><trkpt lat="43.33352685562415" lon="11.344498538496124"><ele>308.5</ele><time>2026-03-29T09:33:53Z</time></trkpt><trkpt lat="43.33359835049509" lon="11.34455841418777"><ele>309.33333333333337</ele><time>2026-03-29T09:33:54Z</time></trkpt><trkpt lat="43.33366628415217" lon="11.344638049729843"><ele>310.1666666666667</ele><time>2026-03-29T09:33:55Z</time></trkpt><trkpt lat="43.33373027885259" lon="11.344725994052519"><ele>311.0</ele><time>2026-03-29T09:33:56Z</time></trkpt><trkpt lat="43.3338021924749" lon="11.344793230570994"><ele>311.0</ele><time>2026-03-29T09:33:57Z</time></trkpt><trkpt lat="43.333852268613974" lon="11.344896657791494"><ele>311.0</ele><time>2026-03-29T09:33:58Z</time></trkpt><trkpt lat="43.333902295297385" lon="11.345000485301178"><ele>311.0</ele><time>2026-03-29T09:33:59Z</time></trkpt><trkpt lat="43.3339469039497" lon="11.345114333094271"><ele>311.0</ele><time>2026-03-29T09:34:00Z</time></trkpt><trkpt lat="43.333963680593165" lon="11.345250040324505"><ele>311.0</ele><time>2026-03-29T09:34:01Z</time></trkpt><trkpt lat="43.333961125755465" lon="11.345385059168795"><ele>311.75</ele><time>2026-03-29T09:34:02Z</time></trkpt><trkpt lat="43.333911098710146" lon="11.345513563808861"><ele>312.5</ele><time>2026-03-29T09:34:03Z</time></trkpt><trkpt lat="43.33386794928899" lon="11.345661481477435"><ele>313.25</ele><time>2026-03-29T09:34:04Z</time></trkpt><trkpt lat="43.3338328356655" lon="11.345818221952236"><ele>314.0</ele><time>2026-03-29T09:34:05Z</time></trkpt><trkpt lat="43.333811693200246" lon="11.345975279783035"><ele>314.0</ele><time>2026-03-29T09:34:06Z</time></trkpt><trkpt lat="43.33380479081254" lon="11.346103851486895"><ele>314.0</ele><time>2026-03-29T09:34:07Z</time></trkpt><trkpt lat="43.33379177227974" lon="11.346237323368573"><ele>314.0</ele><time>2026-03-29T09:34:08Z</time></trkpt><trkpt lat="43.333800747051676" lon="11.346374597118482"><ele>314.0</ele><time>2026-03-29T09:34:09Z</time></trkpt><trkpt lat="43.33381727814147" lon="11.34650231954742"><ele>314.0</ele><time>2026-03-29T09:34:10Z</time></trkpt><trkpt lat="43.333822776161036" lon="11.346621963764559"><ele>313.8</ele><time>2026-03-29T09:34:11Z</time></trkpt><trkpt lat="43.333838149408656" lon="11.346732793213306"><ele>313.59999999999997</ele><time>2026-03-29T09:34:12Z</time></trkpt><trkpt lat="43.333869845332565" lon="11.346857354492657"><ele>313.4</ele><time>2026-03-29T09:34:13Z</time></trkpt><trkpt lat="43.33388743810385" lon="11.346985067828241"><ele>313.2</ele><time>2026-03-29T09:34:14Z</time></trkpt><trkpt lat="43.333927208501066" lon="11.347119788151518"><ele>313.0</ele><time>2026-03-29T09:34:15Z</time></trkpt><trkpt lat="43.33397069760994" lon="11.347243085505324"><ele>313.0</ele><time>2026-03-29T09:34:16Z</time></trkpt><trkpt lat="43.33402893778541" lon="11.347362171040006"><ele>313.0</ele><time>2026-03-29T09:34:17Z</time></trkpt><trkpt lat="43.334071874107515" lon="11.347480462385501"><ele>313.0</ele><time>2026-03-29T09:34:18Z</time></trkpt><trkpt lat="43.33411982462654" lon="11.347598963769967"><ele>313.0</ele><time>2026-03-29T09:34:19Z</time></trkpt><trkpt lat="43.33416968578714" lon="11.347730577006654"><ele>313.0</ele><time>2026-03-29T09:34:20Z</time></trkpt><trkpt lat="43.334213496966804" lon="11.34786371090379"><ele>313.0</ele><time>2026-03-29T09:34:21Z</time></trkpt><trkpt lat="43.33424698639528" lon="11.347999611693528"><ele>313.0</ele><time>2026-03-29T09:34:22Z</time></trkpt><trkpt lat="43.33427737645208" lon="11.348120868465124"><ele>313.0</ele><time>2026-03-29T09:34:23Z</time></trkpt><trkpt lat="43.33429979666429" lon="11.348240851311926"><ele>313.0</ele><time>2026-03-29T09:34:23.999Z</time></trkpt><trkpt lat="43.33432121823477" lon="11.34839002002797"><ele>313.0</ele><time>2026-03-29T09:34:24.999Z</time></trkpt><trkpt lat="43.33434965224574" lon="11.348545295548021"><ele>312.0</ele><time>2026-03-29T09:34:25.999Z</time></trkpt><trkpt lat="43.33437501369589" lon="11.348687152160188"><ele>311.0</ele><time>2026-03-29T09:34:26.999Z</time></trkpt><trkpt lat="43.33440422237023" lon="11.348849178464194"><ele>310.0</ele><time>2026-03-29T09:34:27.999Z</time></trkpt><trkpt lat="43.334432609868706" lon="11.349013321151675"><ele>309.0</ele><time>2026-03-29T09:34:28.999Z</time></trkpt><trkpt lat="43.334461184829685" lon="11.349186026980243"><ele>308.0</ele><time>2026-03-29T09:34:29.999Z</time></trkpt><trkpt lat="43.334487972799735" lon="11.349350961046332"><ele>307.0</ele><time>2026-03-29T09:34:30.999Z</time></trkpt><trkpt lat="43.33451431982742" lon="11.349518201294579"><ele>306.0</ele><time>2026-03-29T09:34:31.999Z</time></trkpt><trkpt lat="43.334537155104364" lon="11.349682520863466"><ele>305.0</ele><time>2026-03-29T09:34:32.999Z</time></trkpt><trkpt lat="43.33455925418224" lon="11.349853763857476"><ele>304.0</ele><time>2026-03-29T09:34:33.999Z</time></trkpt><trkpt lat="43.33457806428628" lon="11.350025407802827"><ele>303.0</ele><time>2026-03-29T09:34:34.999Z</time></trkpt><trkpt lat="43.334595511236586" lon="11.350186348794741"><ele>302.0</ele><time>2026-03-29T09:34:35.999Z</time></trkpt><trkpt lat="43.33461541503164" lon="11.350341012488537"><ele>301.0</ele><time>2026-03-29T09:34:36.999Z</time></trkpt><trkpt lat="43.334642947464936" lon="11.350488859515355"><ele>301.5</ele><time>2026-03-29T09:34:37.999Z</time></trkpt><trkpt lat="43.33468497381585" lon="11.350634408946435"><ele>302.0</ele><time>2026-03-29T09:34:38.999Z</time></trkpt><trkpt lat="43.334738042944466" lon="11.350772441245734"><ele>302.5</ele><time>2026-03-29T09:34:39.999Z</time></trkpt><trkpt lat="43.33480030042412" lon="11.350913339139963"><ele>303.0</ele><time>2026-03-29T09:34:40.999Z</time></trkpt><trkpt lat="43.33486435164343" lon="11.3510552406914"><ele>303.0</ele><time>2026-03-29T09:34:41.999Z</time></trkpt><trkpt lat="43.334922994185156" lon="11.35118992100281"><ele>303.0</ele><time>2026-03-29T09:34:42.999Z</time></trkpt><trkpt lat="43.3349847109876" lon="11.351308556795889"><ele>303.0</ele><time>2026-03-29T09:34:43.999Z</time></trkpt><trkpt lat="43.33506101695193" lon="11.351406931482993"><ele>303.0</ele><time>2026-03-29T09:34:44.999Z</time></trkpt><trkpt lat="43.335143759520406" lon="11.351453828577856"><ele>303.0</ele><time>2026-03-29T09:34:45.999Z</time></trkpt><trkpt lat="43.335233562257685" lon="11.351491087291679"><ele>303.2</ele><time>2026-03-29T09:34:46.999Z</time></trkpt><trkpt lat="43.33533261645514" lon="11.351520756272965"><ele>303.4</ele><time>2026-03-29T09:34:47.999Z</time></trkpt><trkpt lat="43.33542946026822" lon="11.351576946158398"><ele>303.59999999999997</ele><time>2026-03-29T09:34:48.999Z</time></trkpt><trkpt lat="43.3355269727508" lon="11.351656383900362"><ele>303.8</ele><time>2026-03-29T09:34:49.999Z</time></trkpt><trkpt lat="43.33562275569778" lon="11.351760195785877"><ele>304.0</ele><time>2026-03-29T09:34:50.999Z</time></trkpt><trkpt lat="43.33571271023293" lon="11.351878934259448"><ele>304.0</ele><time>2026-03-29T09:34:51.999Z</time></trkpt><trkpt lat="43.335786513293684" lon="11.352005769602615"><ele>304.0</ele><time>2026-03-29T09:34:52.999Z</time></trkpt><trkpt lat="43.33585032644772" lon="11.352149892247525"><ele>304.0</ele><time>2026-03-29T09:34:53.999Z</time></trkpt><trkpt lat="43.33591281902718" lon="11.352296887100135"><ele>304.0</ele><time>2026-03-29T09:34:54.999Z</time></trkpt><trkpt lat="43.335971242240035" lon="11.352433828933417"><ele>304.25</ele><time>2026-03-29T09:34:55.999Z</time></trkpt><trkpt lat="43.33603145910739" lon="11.352571704229623"><ele>304.5</ele><time>2026-03-29T09:34:56.999Z</time></trkpt><trkpt lat="43.33608877346174" lon="11.352706299220406"><ele>304.75</ele><time>2026-03-29T09:34:57.999Z</time></trkpt><trkpt lat="43.33615214656798" lon="11.352846980926557"><ele>305.0</ele><time>2026-03-29T09:34:58.999Z</time></trkpt><trkpt lat="43.336219444771096" lon="11.352994939996918"><ele>305.25</ele><time>2026-03-29T09:34:59.999Z</time></trkpt><trkpt lat="43.33628410501707" lon="11.353149130683315"><ele>305.5</ele><time>2026-03-29T09:35:00.999Z</time></trkpt><trkpt lat="43.33634342640091" lon="11.353291714130407"><ele>305.75</ele><time>2026-03-29T09:35:01.999Z</time></trkpt><trkpt lat="43.3364030969923" lon="11.353424934798232"><ele>306.0</ele><time>2026-03-29T09:35:02.999Z</time></trkpt><trkpt lat="43.336449710196426" lon="11.353543210444952"><ele>303.8</ele><time>2026-03-29T09:35:03.999Z</time></trkpt><trkpt lat="43.336503338095476" lon="11.353648317294285"><ele>301.6</ele><time>2026-03-29T09:35:04.999Z</time></trkpt><trkpt lat="43.336559970630695" lon="11.353752405287041"><ele>299.4</ele><time>2026-03-29T09:35:05.999Z</time></trkpt><trkpt lat="43.33661644931142" lon="11.353845671311962"><ele>297.2</ele><time>2026-03-29T09:35:06.999Z</time></trkpt><trkpt lat="43.33667105036888" lon="11.353940293064822"><ele>295.0</ele><time>2026-03-29T09:35:07.999Z</time></trkpt><trkpt lat="43.33673113859544" lon="11.354032526224966"><ele>294.66666666666663</ele><time>2026-03-29T09:35:08.999Z</time></trkpt><trkpt lat="43.336784386057616" lon="11.35411326840511"><ele>294.3333333333333</ele><time>2026-03-29T09:35:09.999Z</time></trkpt><trkpt lat="43.33684393546454" lon="11.354213281314024"><ele>294.0</ele><time>2026-03-29T09:35:11.999Z</time></trkpt><trkpt lat="43.33687125861" lon="11.354303167068366"><ele>293.6666666666667</ele><time>2026-03-29T09:35:15.999Z</time></trkpt><trkpt lat="43.33691735129699" lon="11.35437689403737"><ele>293.33333333333337</ele><time>2026-03-29T09:45:15.999Z</time></trkpt><trkpt lat="43.33684812732453" lon="11.35452363079403"><ele>293.0</ele><time>2026-03-29T09:45:38.999Z</time></trkpt><trkpt lat="43.33677658353816" lon="11.354628222648877"><ele>292.6</ele><time>2026-03-29T09:45:40.999Z</time></trkpt><trkpt lat="43.3367439378271" lon="11.354761404092441"><ele>292.20000000000005</ele><time>2026-03-29T09:46:26Z</time></trkpt><trkpt lat="43.33670756260825" lon="11.354876224720947"><ele>291.8</ele><time>2026-03-29T09:46:27Z</time></trkpt><trkpt lat="43.336650057287606" lon="11.355017741372517"><ele>291.40000000000003</ele><time>2026-03-29T09:46:28Z</time></trkpt><trkpt lat="43.33659195431143" lon="11.355162876587608"><ele>291.0</ele><time>2026-03-29T09:46:29Z</time></trkpt><trkpt lat="43.336532911218" lon="11.355323672974773"><ele>291.0</ele><time>2026-03-29T09:46:30Z</time></trkpt><trkpt lat="43.33647200128432" lon="11.355472651147211"><ele>291.0</ele><time>2026-03-29T09:46:31Z</time></trkpt><trkpt lat="43.336419828911524" lon="11.355628031762208"><ele>291.0</ele><time>2026-03-29T09:46:32Z</time></trkpt><trkpt lat="43.336389633365535" lon="11.355807593136475"><ele>291.0</ele><time>2026-03-29T09:46:33Z</time></trkpt><trkpt lat="43.33637989925671" lon="11.3560096262148"><ele>293.2</ele><time>2026-03-29T09:46:34Z</time></trkpt><trkpt lat="43.33638111434202" lon="11.356178505904134"><ele>295.40000000000003</ele><time>2026-03-29T09:46:35Z</time></trkpt><trkpt lat="43.336377537133906" lon="11.35631372897575"><ele>297.6</ele><time>2026-03-29T09:46:36Z</time></trkpt><trkpt lat="43.33637290534276" lon="11.356441651308078"><ele>299.8</ele><time>2026-03-29T09:46:37Z</time></trkpt><trkpt lat="43.33635968214642" lon="11.35660054974392"><ele>302.0</ele><time>2026-03-29T09:46:38Z</time></trkpt><trkpt lat="43.33633590020824" lon="11.35678399498299"><ele>302.0</ele><time>2026-03-29T09:46:39Z</time></trkpt><trkpt lat="43.336298092107775" lon="11.356964583071287"><ele>302.0</ele><time>2026-03-29T09:46:40Z</time></trkpt><trkpt lat="43.33626511789864" lon="11.357111410840618"><ele>302.0</ele><time>2026-03-29T09:46:41Z</time></trkpt><trkpt lat="43.33622442965797" lon="11.357248270024982"><ele>302.0</ele><time>2026-03-29T09:46:42Z</time></trkpt><trkpt lat="43.336179536745085" lon="11.357384463218644"><ele>301.0</ele><time>2026-03-29T09:46:43Z</time></trkpt><trkpt lat="43.336138729760684" lon="11.357534203968946"><ele>300.0</ele><time>2026-03-29T09:46:44Z</time></trkpt><trkpt lat="43.336069295767096" lon="11.357686023263629"><ele>299.0</ele><time>2026-03-29T09:46:45Z</time></trkpt><trkpt lat="43.33597723822412" lon="11.357815937988407"><ele>298.0</ele><time>2026-03-29T09:46:46Z</time></trkpt><trkpt lat="43.33589082944268" lon="11.357928299087739"><ele>298.0</ele><time>2026-03-29T09:46:47Z</time></trkpt><trkpt lat="43.335802182490966" lon="11.358016113123842"><ele>298.0</ele><time>2026-03-29T09:46:48Z</time></trkpt><trkpt lat="43.33570076662822" lon="11.35811475385338"><ele>298.0</ele><time>2026-03-29T09:46:49Z</time></trkpt><trkpt lat="43.33559149865198" lon="11.358209346838999"><ele>298.0</ele><time>2026-03-29T09:46:50Z</time></trkpt><trkpt lat="43.33549735517849" lon="11.358317095805093"><ele>299.5</ele><time>2026-03-29T09:46:51Z</time></trkpt><trkpt lat="43.33539396077499" lon="11.358405898568705"><ele>301.0</ele><time>2026-03-29T09:46:52Z</time></trkpt><trkpt lat="43.335271665807575" lon="11.358470293466777"><ele>302.5</ele><time>2026-03-29T09:46:53Z</time></trkpt><trkpt lat="43.335142894916494" lon="11.358563087368706"><ele>304.0</ele><time>2026-03-29T09:46:54Z</time></trkpt><trkpt lat="43.334996571558136" lon="11.3586397443053"><ele>304.0</ele><time>2026-03-29T09:46:55Z</time></trkpt><trkpt lat="43.33484476558705" lon="11.3587205406719"><ele>304.0</ele><time>2026-03-29T09:46:56Z</time></trkpt><trkpt lat="43.33471063361702" lon="11.358835990810244"><ele>304.0</ele><time>2026-03-29T09:46:57Z</time></trkpt><trkpt lat="43.33461059886326" lon="11.358955309797231"><ele>305.5</ele><time>2026-03-29T09:46:58Z</time></trkpt><trkpt lat="43.33451128619227" lon="11.35907536468305"><ele>307.0</ele><time>2026-03-29T09:46:59Z</time></trkpt><trkpt lat="43.33441210728962" lon="11.359180286216542"><ele>308.5</ele><time>2026-03-29T09:47:00Z</time></trkpt><trkpt lat="43.33432561612755" lon="11.359265121441357"><ele>310.0</ele><time>2026-03-29T09:47:01Z</time></trkpt><trkpt lat="43.334234714639194" lon="11.359341014138424"><ele>310.0</ele><time>2026-03-29T09:47:02Z</time></trkpt><trkpt lat="43.33413476643236" lon="11.35942547344501"><ele>310.0</ele><time>2026-03-29T09:47:03Z</time></trkpt><trkpt lat="43.334022944168666" lon="11.35948533109786"><ele>310.0</ele><time>2026-03-29T09:47:04Z</time></trkpt><trkpt lat="43.33390657661799" lon="11.359532479292367"><ele>310.0</ele><time>2026-03-29T09:47:05Z</time></trkpt><trkpt lat="43.333800340329624" lon="11.359546421688302"><ele>312.0</ele><time>2026-03-29T09:47:06Z</time></trkpt><trkpt lat="43.33368330594121" lon="11.359564397821678"><ele>314.0</ele><time>2026-03-29T09:47:07Z</time></trkpt><trkpt lat="43.3335428717218" lon="11.35956527565388"><ele>316.0</ele><time>2026-03-29T09:47:08Z</time></trkpt><trkpt lat="43.33339231413537" lon="11.359564837598299"><ele>318.0</ele><time>2026-03-29T09:47:09Z</time></trkpt><trkpt lat="43.33319736855072" lon="11.359538995348887"><ele>318.0</ele><time>2026-03-29T09:47:10Z</time></trkpt><trkpt lat="43.333122450227286" lon="11.359572888162257"><ele>318.0</ele><time>2026-03-29T09:47:11Z</time></trkpt><trkpt lat="43.3330019462401" lon="11.359539702336223"><ele>318.0</ele><time>2026-03-29T09:47:11.999Z</time></trkpt><trkpt lat="43.33285123349493" lon="11.359489459822681"><ele>318.0</ele><time>2026-03-29T09:47:12.999Z</time></trkpt><trkpt lat="43.33272062286987" lon="11.359451453431083"><ele>318.25</ele><time>2026-03-29T09:47:13.999Z</time></trkpt><trkpt lat="43.33262929673508" lon="11.359380010456087"><ele>318.5</ele><time>2026-03-29T09:47:14.999Z</time></trkpt><trkpt lat="43.33250426808795" lon="11.359405527371297"><ele>318.75</ele><time>2026-03-29T09:47:15.999Z</time></trkpt><trkpt lat="43.33237593019077" lon="11.359371700206015"><ele>319.0</ele><time>2026-03-29T09:47:16.999Z</time></trkpt><trkpt lat="43.33225305260509" lon="11.359316903408"><ele>319.25</ele><time>2026-03-29T09:47:17.999Z</time></trkpt><trkpt lat="43.33213835410173" lon="11.359223254262565"><ele>319.5</ele><time>2026-03-29T09:47:18.999Z</time></trkpt><trkpt lat="43.33205044099172" lon="11.359137286242786"><ele>319.75</ele><time>2026-03-29T09:47:19.999Z</time></trkpt><trkpt lat="43.33195408081767" lon="11.359043269584367"><ele>320.0</ele><time>2026-03-29T09:47:20.999Z</time></trkpt><trkpt lat="43.331849689247804" lon="11.358912971206783"><ele>322.75</ele><time>2026-03-29T09:47:21.999Z</time></trkpt><trkpt lat="43.331750543698085" lon="11.358819218973789"><ele>325.5</ele><time>2026-03-29T09:47:22.999Z</time></trkpt><trkpt lat="43.33164952910568" lon="11.358786379718953"><ele>328.25</ele><time>2026-03-29T09:47:23.999Z</time></trkpt><trkpt lat="43.33152845349976" lon="11.358816123987772"><ele>331.0</ele><time>2026-03-29T09:47:24.999Z</time></trkpt><trkpt lat="43.33140006504436" lon="11.358845782119126"><ele>329.75</ele><time>2026-03-29T09:47:25.999Z</time></trkpt><trkpt lat="43.33127590048308" lon="11.358881066835442"><ele>328.5</ele><time>2026-03-29T09:47:26.999Z</time></trkpt><trkpt lat="43.33115880125251" lon="11.358905962696094"><ele>327.25</ele><time>2026-03-29T09:47:27.999Z</time></trkpt><trkpt lat="43.331046872929726" lon="11.358937975308796"><ele>326.0</ele><time>2026-03-29T09:47:28.999Z</time></trkpt><trkpt lat="43.330946973012225" lon="11.358959028852336"><ele>326.0</ele><time>2026-03-29T09:47:29.999Z</time></trkpt><trkpt lat="43.330847540707325" lon="11.35899500225541"><ele>326.0</ele><time>2026-03-29T09:47:30.999Z</time></trkpt><trkpt lat="43.330770060237036" lon="11.35905062088962"><ele>326.0</ele><time>2026-03-29T09:47:31.999Z</time></trkpt><trkpt lat="43.3307150149599" lon="11.359155832970094"><ele>326.0</ele><time>2026-03-29T09:47:32.999Z</time></trkpt><trkpt lat="43.330662984538556" lon="11.359290201031753"><ele>326.0</ele><time>2026-03-29T09:47:33.999Z</time></trkpt><trkpt lat="43.33059817582025" lon="11.359421193571741"><ele>327.25</ele><time>2026-03-29T09:47:34.999Z</time></trkpt><trkpt lat="43.33055622672977" lon="11.359581159848588"><ele>328.5</ele><time>2026-03-29T09:47:35.999Z</time></trkpt><trkpt lat="43.330534539969136" lon="11.359774163187364"><ele>329.75</ele><time>2026-03-29T09:47:36.999Z</time></trkpt><trkpt lat="43.33049681382793" lon="11.359966398577052"><ele>331.0</ele><time>2026-03-29T09:47:37.999Z</time></trkpt><trkpt lat="43.330462258655764" lon="11.360181831878752"><ele>331.0</ele><time>2026-03-29T09:47:38.999Z</time></trkpt><trkpt lat="43.33043556440335" lon="11.360356568983278"><ele>331.0</ele><time>2026-03-29T09:47:39.999Z</time></trkpt><trkpt lat="43.33040337280995" lon="11.360502003782806"><ele>331.0</ele><time>2026-03-29T09:47:40.999Z</time></trkpt><trkpt lat="43.330375311132045" lon="11.360604920822388"><ele>331.0</ele><time>2026-03-29T09:47:41.999Z</time></trkpt><trkpt lat="43.330345002043416" lon="11.360724671795444"><ele>331.0</ele><time>2026-03-29T09:47:43.999Z</time></trkpt><trkpt lat="43.3303070940581" lon="11.36079479713568"><ele>331.0</ele><time>2026-03-29T09:47:49.999Z</time></trkpt><trkpt lat="43.33025630547334" lon="11.36085535883278"><ele>331.0</ele><time>2026-03-29T09:48:39Z</time></trkpt><trkpt lat="43.33015610989181" lon="11.360790144258374"><ele>331.0</ele><time>2026-03-29T09:48:46Z</time></trkpt><trkpt lat="43.33003327401793" lon="11.360657359112968"><ele>331.0</ele><time>2026-03-29T09:48:48Z</time></trkpt><trkpt lat="43.32994679196357" lon="11.36058638780304"><ele>331.0</ele><time>2026-03-29T09:48:49Z</time></trkpt><trkpt lat="43.32985419659339" lon="11.360486584543352"><ele>331.0</ele><time>2026-03-29T09:48:50Z</time></trkpt><trkpt lat="43.32975176451236" lon="11.360380932897263"><ele>331.0</ele><time>2026-03-29T09:48:51Z</time></trkpt><trkpt lat="43.32965501538482" lon="11.360298430853994"><ele>331.0</ele><time>2026-03-29T09:48:52Z</time></trkpt><trkpt lat="43.329577598824145" lon="11.360239202612028"><ele>331.0</ele><time>2026-03-29T09:48:53Z</time></trkpt><trkpt lat="43.329510345439346" lon="11.360199341215582"><ele>331.0</ele><time>2026-03-29T09:48:54Z</time></trkpt><trkpt lat="43.329441111845846" lon="11.360190357971524"><ele>330.3333333333333</ele><time>2026-03-29T09:48:55Z</time></trkpt><trkpt lat="43.32933637792204" lon="11.36013124882261"><ele>329.66666666666663</ele><time>2026-03-29T09:48:57Z</time></trkpt><trkpt lat="43.32926169326388" lon="11.360113180737859"><ele>329.0</ele><time>2026-03-29T09:48:58Z</time></trkpt><trkpt lat="43.329186833276545" lon="11.360087665301359"><ele>328.3333333333333</ele><time>2026-03-29T09:48:59Z</time></trkpt><trkpt lat="43.32911472421576" lon="11.360056524886955"><ele>327.6666666666667</ele><time>2026-03-29T09:49:00Z</time></trkpt><trkpt lat="43.329042700939915" lon="11.360035010166209"><ele>327.0</ele><time>2026-03-29T09:49:01Z</time></trkpt><trkpt lat="43.328959896867275" lon="11.36001221068577"><ele>324.8</ele><time>2026-03-29T09:49:02Z</time></trkpt><trkpt lat="43.328882944888214" lon="11.359987718201005"><ele>322.6</ele><time>2026-03-29T09:49:03Z</time></trkpt><trkpt lat="43.328805327626505" lon="11.359930792337982"><ele>320.40000000000003</ele><time>2026-03-29T09:49:04Z</time></trkpt><trkpt lat="43.3287318291624" lon="11.359865612521077"><ele>318.20000000000005</ele><time>2026-03-29T09:49:05Z</time></trkpt><trkpt lat="43.32865841389136" lon="11.359771530096314"><ele>316.0</ele><time>2026-03-29T09:49:06Z</time></trkpt><trkpt lat="43.32859414534936" lon="11.359662972645138"><ele>315.8</ele><time>2026-03-29T09:49:07Z</time></trkpt><trkpt lat="43.3285232153595" lon="11.359557812311513"><ele>315.6</ele><time>2026-03-29T09:49:08Z</time></trkpt><trkpt lat="43.32844551740608" lon="11.359461349608816"><ele>315.4</ele><time>2026-03-29T09:49:09Z</time></trkpt><trkpt lat="43.32836941429381" lon="11.359383594849437"><ele>315.2</ele><time>2026-03-29T09:49:10Z</time></trkpt><trkpt lat="43.328288429103715" lon="11.359306856575477"><ele>315.0</ele><time>2026-03-29T09:49:11Z</time></trkpt><trkpt lat="43.32819501886411" lon="11.359239280430819"><ele>315.0</ele><time>2026-03-29T09:49:12Z</time></trkpt><trkpt lat="43.32810191137018" lon="11.359195835804632"><ele>315.0</ele><time>2026-03-29T09:49:13Z</time></trkpt><trkpt lat="43.32800820143577" lon="11.359198158759819"><ele>315.0</ele><time>2026-03-29T09:49:14Z</time></trkpt><trkpt lat="43.32790906535504" lon="11.359207759880164"><ele>315.0</ele><time>2026-03-29T09:49:15Z</time></trkpt><trkpt lat="43.3277942791893" lon="11.359231256184206"><ele>315.0</ele><time>2026-03-29T09:49:16Z</time></trkpt><trkpt lat="43.32769611454007" lon="11.359221444580653"><ele>314.5</ele><time>2026-03-29T09:49:17Z</time></trkpt><trkpt lat="43.32760420890098" lon="11.359216662545624"><ele>314.0</ele><time>2026-03-29T09:49:18Z</time></trkpt><trkpt lat="43.327520846474265" lon="11.359204532182567"><ele>313.5</ele><time>2026-03-29T09:49:18.999Z</time></trkpt><trkpt lat="43.32741808137161" lon="11.35918511506238"><ele>313.0</ele><time>2026-03-29T09:49:19.999Z</time></trkpt><trkpt lat="43.32732269826747" lon="11.359177365886692"><ele>312.5</ele><time>2026-03-29T09:49:20.999Z</time></trkpt><trkpt lat="43.3272505748757" lon="11.359182980132529"><ele>312.0</ele><time>2026-03-29T09:49:21.999Z</time></trkpt><trkpt lat="43.32717999634313" lon="11.359225265091306"><ele>311.6666666666667</ele><time>2026-03-29T09:49:22.999Z</time></trkpt><trkpt lat="43.327118773422285" lon="11.35928999639592"><ele>311.3333333333333</ele><time>2026-03-29T09:49:23.999Z</time></trkpt><trkpt lat="43.32704918289733" lon="11.35938875730713"><ele>311.0</ele><time>2026-03-29T09:49:24.999Z</time></trkpt><trkpt lat="43.32702002735917" lon="11.359519756360655"><ele>310.66666666666663</ele><time>2026-03-29T09:49:25.999Z</time></trkpt><trkpt lat="43.326974691414144" lon="11.359620823953371"><ele>310.3333333333333</ele><time>2026-03-29T09:49:26.999Z</time></trkpt><trkpt lat="43.32692655650647" lon="11.35971636203122"><ele>310.0</ele><time>2026-03-29T09:49:27.999Z</time></trkpt><trkpt lat="43.326876595357305" lon="11.359798706841557"><ele>309.66666666666663</ele><time>2026-03-29T09:49:28.999Z</time></trkpt><trkpt lat="43.326817975230846" lon="11.359879398545829"><ele>309.3333333333333</ele><time>2026-03-29T09:49:29.999Z</time></trkpt><trkpt lat="43.32673506256025" lon="11.359935644442881"><ele>309.0</ele><time>2026-03-29T09:49:30.999Z</time></trkpt><trkpt lat="43.32665991684789" lon="11.359990709190438"><ele>308.6666666666667</ele><time>2026-03-29T09:49:31.999Z</time></trkpt><trkpt lat="43.3265960721133" lon="11.360017114783581"><ele>308.33333333333337</ele><time>2026-03-29T09:49:32.999Z</time></trkpt><trkpt lat="43.32654900212819" lon="11.360087655244984"><ele>308.0</ele><time>2026-03-29T09:49:33.999Z</time></trkpt><trkpt lat="43.32649624317536" lon="11.360162221652363"><ele>308.0</ele><time>2026-03-29T09:49:34.999Z</time></trkpt><trkpt lat="43.32645164936077" lon="11.360237683107476"><ele>308.0</ele><time>2026-03-29T09:49:35.999Z</time></trkpt><trkpt lat="43.326398523430136" lon="11.36030695604443"><ele>308.0</ele><time>2026-03-29T09:49:36.999Z</time></trkpt><trkpt lat="43.32633764293149" lon="11.36037086133879"><ele>308.0</ele><time>2026-03-29T09:49:37.999Z</time></trkpt><trkpt lat="43.326275300847136" lon="11.360421856344905"><ele>308.0</ele><time>2026-03-29T09:49:38.999Z</time></trkpt><trkpt lat="43.32620941192358" lon="11.360474578137245"><ele>308.0</ele><time>2026-03-29T09:49:39.999Z</time></trkpt><trkpt lat="43.32613488258011" lon="11.360526805963474"><ele>307.6666666666667</ele><time>2026-03-29T09:49:40.999Z</time></trkpt><trkpt lat="43.32605655451932" lon="11.360569179056808"><ele>307.33333333333337</ele><time>2026-03-29T09:49:41.999Z</time></trkpt><trkpt lat="43.32597685667844" lon="11.360612992403077"><ele>307.0</ele><time>2026-03-29T09:49:42.999Z</time></trkpt><trkpt lat="43.325909446781516" lon="11.360658505392385"><ele>306.6666666666667</ele><time>2026-03-29T09:49:43.999Z</time></trkpt><trkpt lat="43.32583629339809" lon="11.36070139569248"><ele>306.3333333333333</ele><time>2026-03-29T09:49:44.999Z</time></trkpt><trkpt lat="43.32577110145385" lon="11.360737456506442"><ele>306.0</ele><time>2026-03-29T09:49:45.999Z</time></trkpt><trkpt lat="43.32570345744674" lon="11.360775697279195"><ele>306.0</ele><time>2026-03-29T09:49:46.999Z</time></trkpt><trkpt lat="43.32563166921481" lon="11.360809812697429"><ele>306.0</ele><time>2026-03-29T09:49:47.999Z</time></trkpt><trkpt lat="43.32554909160163" lon="11.360832065287424"><ele>306.0</ele><time>2026-03-29T09:49:48.999Z</time></trkpt><trkpt lat="43.325453923325185" lon="11.360844793635154"><ele>306.0</ele><time>2026-03-29T09:49:49.999Z</time></trkpt><trkpt lat="43.32536933550147" lon="11.360840151978705"><ele>306.0</ele><time>2026-03-29T09:49:50.999Z</time></trkpt><trkpt lat="43.325291401893494" lon="11.360816090304292"><ele>306.0</ele><time>2026-03-29T09:49:51.999Z</time></trkpt><trkpt lat="43.325193502568716" lon="11.36076116893126"><ele>305.6</ele><time>2026-03-29T09:49:52.999Z</time></trkpt><trkpt lat="43.32510305211028" lon="11.360706595753667"><ele>305.20000000000005</ele><time>2026-03-29T09:49:53.999Z</time></trkpt><trkpt lat="43.32501505907349" lon="11.360648452925314"><ele>304.79999999999995</ele><time>2026-03-29T09:49:54.999Z</time></trkpt><trkpt lat="43.32493068311917" lon="11.360596529509786"><ele>304.4</ele><time>2026-03-29T09:49:55.999Z</time></trkpt><trkpt lat="43.32484359614434" lon="11.36054914073876"><ele>304.0</ele><time>2026-03-29T09:49:56.999Z</time></trkpt><trkpt lat="43.32475520657793" lon="11.360508297196919"><ele>302.0</ele><time>2026-03-29T09:49:57.999Z</time></trkpt><trkpt lat="43.32467110311818" lon="11.360451277442193"><ele>300.0</ele><time>2026-03-29T09:49:58.999Z</time></trkpt><trkpt lat="43.32457351627777" lon="11.360402773710549"><ele>298.0</ele><time>2026-03-29T09:49:59.999Z</time></trkpt><trkpt lat="43.32447625688651" lon="11.360373886220904"><ele>296.0</ele><time>2026-03-29T09:50:00.999Z</time></trkpt><trkpt lat="43.324385578235855" lon="11.360360596505025"><ele>294.0</ele><time>2026-03-29T09:50:01.999Z</time></trkpt><trkpt lat="43.32429002127572" lon="11.360353097106689"><ele>294.0</ele><time>2026-03-29T09:50:02.999Z</time></trkpt><trkpt lat="43.324186160638874" lon="11.360368285088361"><ele>294.0</ele><time>2026-03-29T09:50:03.999Z</time></trkpt><trkpt lat="43.324090847681425" lon="11.360339617295358"><ele>294.0</ele><time>2026-03-29T09:50:04.999Z</time></trkpt><trkpt lat="43.32399830507004" lon="11.360334194255087"><ele>294.0</ele><time>2026-03-29T09:50:05.999Z</time></trkpt><trkpt lat="43.32390992472982" lon="11.360329777957723"><ele>294.0</ele><time>2026-03-29T09:50:06.999Z</time></trkpt><trkpt lat="43.32381621771046" lon="11.360346100034363"><ele>294.0</ele><time>2026-03-29T09:50:07.999Z</time></trkpt><trkpt lat="43.32371834602475" lon="11.360327956386605"><ele>294.0</ele><time>2026-03-29T09:50:08.999Z</time></trkpt><trkpt lat="43.32362681003407" lon="11.36030941352999"><ele>294.0</ele><time>2026-03-29T09:50:10Z</time></trkpt><trkpt lat="43.32354121382928" lon="11.360257331529581"><ele>294.0</ele><time>2026-03-29T09:50:11Z</time></trkpt><trkpt lat="43.323484892726725" lon="11.360170957615582"><ele>294.0</ele><time>2026-03-29T09:50:12Z</time></trkpt><trkpt lat="43.32340458277956" lon="11.360123629843317"><ele>294.0</ele><time>2026-03-29T09:50:13Z</time></trkpt><trkpt lat="43.32332964214773" lon="11.360061188799055"><ele>294.0</ele><time>2026-03-29T09:50:14Z</time></trkpt><trkpt lat="43.32324296559326" lon="11.359997694905063"><ele>294.0</ele><time>2026-03-29T09:50:15Z</time></trkpt><trkpt lat="43.3231360490916" lon="11.359911715585346"><ele>294.0</ele><time>2026-03-29T09:50:16Z</time></trkpt><trkpt lat="43.32305874927057" lon="11.359825750809042"><ele>294.0</ele><time>2026-03-29T09:50:17Z</time></trkpt><trkpt lat="43.32299431093657" lon="11.359740719778593"><ele>293.4</ele><time>2026-03-29T09:50:18Z</time></trkpt><trkpt lat="43.32293361219426" lon="11.359650337108997"><ele>292.79999999999995</ele><time>2026-03-29T09:50:19Z</time></trkpt><trkpt lat="43.32287892672036" lon="11.359559508820901"><ele>292.20000000000005</ele><time>2026-03-29T09:50:20Z</time></trkpt><trkpt lat="43.32283486054694" lon="11.35948930796118"><ele>291.6</ele><time>2026-03-29T09:50:21Z</time></trkpt><trkpt lat="43.322763537410985" lon="11.35938329509325"><ele>291.0</ele><time>2026-03-29T09:50:23Z</time></trkpt><trkpt lat="43.32268065784079" lon="11.359269260107135"><ele>291.0</ele><time>2026-03-29T09:50:25Z</time></trkpt><trkpt lat="43.32263212260208" lon="11.359204313388679"><ele>291.0</ele><time>2026-03-29T09:50:26Z</time></trkpt><trkpt lat="43.32260343523245" lon="11.35911170031936"><ele>291.0</ele><time>2026-03-29T09:50:27Z</time></trkpt><trkpt lat="43.32256231404862" lon="11.35901295387343"><ele>291.0</ele><time>2026-03-29T09:50:28Z</time></trkpt><trkpt lat="43.32251686504772" lon="11.358899754573804"><ele>291.0</ele><time>2026-03-29T09:50:29Z</time></trkpt><trkpt lat="43.32246202920893" lon="11.35879475329465"><ele>291.0</ele><time>2026-03-29T09:50:30Z</time></trkpt><trkpt lat="43.32241336145934" lon="11.358673175423153"><ele>289.8333333333333</ele><time>2026-03-29T09:50:31Z</time></trkpt><trkpt lat="43.322362035679255" lon="11.358576205903478"><ele>288.6666666666667</ele><time>2026-03-29T09:50:32Z</time></trkpt><trkpt lat="43.32233225509234" lon="11.358485954487184"><ele>287.5</ele><time>2026-03-29T09:50:33Z</time></trkpt><trkpt lat="43.322279854515195" lon="11.358399001285619"><ele>286.33333333333337</ele><time>2026-03-29T09:50:34Z</time></trkpt><trkpt lat="43.32221227585651" lon="11.358319529389545"><ele>285.1666666666667</ele><time>2026-03-29T09:50:35Z</time></trkpt><trkpt lat="43.32213430140942" lon="11.358241315649988"><ele>284.0</ele><time>2026-03-29T09:50:36Z</time></trkpt><trkpt lat="43.32206459276712" lon="11.358158561922323"><ele>282.0</ele><time>2026-03-29T09:50:37Z</time></trkpt><trkpt lat="43.32201624255362" lon="11.358059574222592"><ele>280.0</ele><time>2026-03-29T09:50:38Z</time></trkpt><trkpt lat="43.32195743904892" lon="11.357934259988319"><ele>278.0</ele><time>2026-03-29T09:50:39Z</time></trkpt><trkpt lat="43.32190924279996" lon="11.357816015264817"><ele>276.0</ele><time>2026-03-29T09:50:40Z</time></trkpt><trkpt lat="43.321854872335415" lon="11.357677096991985"><ele>274.0</ele><time>2026-03-29T09:50:41Z</time></trkpt><trkpt lat="43.32176819279569" lon="11.357565969671036"><ele>274.0</ele><time>2026-03-29T09:50:42Z</time></trkpt><trkpt lat="43.321683411666896" lon="11.357450572410835"><ele>274.0</ele><time>2026-03-29T09:50:43Z</time></trkpt><trkpt lat="43.32162073931677" lon="11.357312497821573"><ele>274.0</ele><time>2026-03-29T09:50:44Z</time></trkpt><trkpt lat="43.321540529991154" lon="11.357202152484914"><ele>274.0</ele><time>2026-03-29T09:50:45Z</time></trkpt><trkpt lat="43.32146920563402" lon="11.35707186703177"><ele>272.8</ele><time>2026-03-29T09:50:46Z</time></trkpt><trkpt lat="43.32141366863668" lon="11.356950551492286"><ele>271.59999999999997</ele><time>2026-03-29T09:50:47Z</time></trkpt><trkpt lat="43.321325484047506" lon="11.356869420763498"><ele>270.4</ele><time>2026-03-29T09:50:48Z</time></trkpt><trkpt lat="43.321239349840475" lon="11.356794684605745"><ele>269.2</ele><time>2026-03-29T09:50:49Z</time></trkpt><trkpt lat="43.321148846103135" lon="11.356712666793117"><ele>268.0</ele><time>2026-03-29T09:50:50Z</time></trkpt><trkpt lat="43.32105292878123" lon="11.35664681456308"><ele>265.4</ele><time>2026-03-29T09:50:51Z</time></trkpt><trkpt lat="43.32095632066654" lon="11.356594147131721"><ele>262.8</ele><time>2026-03-29T09:50:52Z</time></trkpt><trkpt lat="43.3208596876118" lon="11.356511386170048"><ele>260.2</ele><time>2026-03-29T09:50:53Z</time></trkpt><trkpt lat="43.32077557428924" lon="11.356434644185327"><ele>257.6</ele><time>2026-03-29T09:50:54Z</time></trkpt><trkpt lat="43.320712209900705" lon="11.35634223536993"><ele>255.0</ele><time>2026-03-29T09:50:55Z</time></trkpt><trkpt lat="43.32064190148218" lon="11.356258319733872"><ele>252.6</ele><time>2026-03-29T09:50:56Z</time></trkpt><trkpt lat="43.320557922775286" lon="11.356193640587053"><ele>250.2</ele><time>2026-03-29T09:50:57Z</time></trkpt><trkpt lat="43.320505295777785" lon="11.356118402989567"><ele>247.8</ele><time>2026-03-29T09:50:58Z</time></trkpt><trkpt lat="43.32044916823269" lon="11.355987315544773"><ele>245.4</ele><time>2026-03-29T09:51:00Z</time></trkpt><trkpt lat="43.320486951032386" lon="11.355852122451145"><ele>243.0</ele><time>2026-03-29T09:51:01Z</time></trkpt><trkpt lat="43.32051219110332" lon="11.355741557489416"><ele>243.0</ele><time>2026-03-29T09:51:02Z</time></trkpt><trkpt lat="43.320552542977715" lon="11.35561219200334"><ele>243.0</ele><time>2026-03-29T09:51:03Z</time></trkpt><trkpt lat="43.32058758549206" lon="11.355455240473443"><ele>243.0</ele><time>2026-03-29T09:51:04Z</time></trkpt><trkpt lat="43.320628776241456" lon="11.355320828991413"><ele>243.0</ele><time>2026-03-29T09:51:05Z</time></trkpt><trkpt lat="43.320672265357366" lon="11.355198436065207"><ele>243.0</ele><time>2026-03-29T09:51:06Z</time></trkpt><trkpt lat="43.32072305899586" lon="11.355082703528184"><ele>243.16666666666666</ele><time>2026-03-29T09:51:07Z</time></trkpt><trkpt lat="43.32076830957105" lon="11.354973296597011"><ele>243.33333333333331</ele><time>2026-03-29T09:51:08Z</time></trkpt><trkpt lat="43.32081547681894" lon="11.354870081822389"><ele>243.5</ele><time>2026-03-29T09:51:09Z</time></trkpt><trkpt lat="43.32085513222616" lon="11.354767732116738"><ele>243.66666666666666</ele><time>2026-03-29T09:51:10Z</time></trkpt><trkpt lat="43.32089437457603" lon="11.354673370519029"><ele>243.83333333333331</ele><time>2026-03-29T09:51:11Z</time></trkpt><trkpt lat="43.320933680915275" lon="11.354578936584103"><ele>244.0</ele><time>2026-03-29T09:51:12Z</time></trkpt><trkpt lat="43.32097959991728" lon="11.354490452260261"><ele>243.99999999999997</ele><time>2026-03-29T09:51:13Z</time></trkpt><trkpt lat="43.32100707099843" lon="11.354406387153105"><ele>244.0</ele><time>2026-03-29T09:51:14Z</time></trkpt><trkpt lat="43.32101275789135" lon="11.354275062244096"><ele>244.0</ele><time>2026-03-29T09:51:16Z</time></trkpt><trkpt lat="43.320973555524574" lon="11.354164807908955"><ele>244.0</ele><time>2026-03-29T09:51:18Z</time></trkpt><trkpt lat="43.320883666453305" lon="11.354164462670909"><ele>243.99999999999997</ele><time>2026-03-29T09:51:19Z</time></trkpt><trkpt lat="43.32083993249501" lon="11.354096771490058"><ele>244.0</ele><time>2026-03-29T09:51:20Z</time></trkpt><trkpt lat="43.320830291968385" lon="11.353913663778494"><ele>244.33333333333331</ele><time>2026-03-29T09:51:22Z</time></trkpt><trkpt lat="43.320818996717605" lon="11.353797743411295"><ele>244.66666666666666</ele><time>2026-03-29T09:51:23Z</time></trkpt><trkpt lat="43.320802079819735" lon="11.353666001174691"><ele>245.0</ele><time>2026-03-29T09:51:23.999Z</time></trkpt><trkpt lat="43.320797626676566" lon="11.35354206212388"><ele>245.33333333333331</ele><time>2026-03-29T09:51:24.999Z</time></trkpt><trkpt lat="43.320802367597615" lon="11.353444602127963"><ele>245.66666666666666</ele><time>2026-03-29T09:51:25.999Z</time></trkpt><trkpt lat="43.32079713389492" lon="11.35334862204816"><ele>246.0</ele><time>2026-03-29T09:51:26.999Z</time></trkpt><trkpt lat="43.320780120785294" lon="11.353255408145953"><ele>246.0</ele><time>2026-03-29T09:51:27.999Z</time></trkpt><trkpt lat="43.32076238789525" lon="11.353164701199477"><ele>246.0</ele><time>2026-03-29T09:51:28.999Z</time></trkpt><trkpt lat="43.32073345590654" lon="11.353010364820607"><ele>246.0</ele><time>2026-03-29T09:51:30.999Z</time></trkpt><trkpt lat="43.32069853643537" lon="11.35284599310194"><ele>246.0</ele><time>2026-03-29T09:51:32.999Z</time></trkpt><trkpt lat="43.32068179095774" lon="11.352759619751495"><ele>246.0</ele><time>2026-03-29T09:51:33.999Z</time></trkpt><trkpt lat="43.320664117884746" lon="11.352675771982115"><ele>246.0</ele><time>2026-03-29T09:51:34.999Z</time></trkpt><trkpt lat="43.320655246784526" lon="11.352586913931669"><ele>246.16666666666666</ele><time>2026-03-29T09:51:35.999Z</time></trkpt><trkpt lat="43.320656274888314" lon="11.352459997719112"><ele>246.33333333333331</ele><time>2026-03-29T09:51:37.999Z</time></trkpt><trkpt lat="43.320652386666126" lon="11.352316586344047"><ele>246.5</ele><time>2026-03-29T09:51:39.999Z</time></trkpt><trkpt lat="43.320644963125275" lon="11.352229159145642"><ele>246.66666666666666</ele><time>2026-03-29T09:51:40.999Z</time></trkpt><trkpt lat="43.3206508994142" lon="11.35212056494519"><ele>246.83333333333331</ele><time>2026-03-29T09:51:41.999Z</time></trkpt><trkpt lat="43.32067842370367" lon="11.351994249995178"><ele>247.0</ele><time>2026-03-29T09:51:42.999Z</time></trkpt><trkpt lat="43.32072182135224" lon="11.351839175051062"><ele>247.16666666666666</ele><time>2026-03-29T09:51:43.999Z</time></trkpt><trkpt lat="43.32076338721436" lon="11.351703227993433"><ele>247.33333333333331</ele><time>2026-03-29T09:51:44.999Z</time></trkpt><trkpt lat="43.32079335852" lon="11.351587995752892"><ele>247.5</ele><time>2026-03-29T09:51:45.999Z</time></trkpt><trkpt lat="43.32081342508144" lon="11.351499190704974"><ele>247.66666666666669</ele><time>2026-03-29T09:51:46.999Z</time></trkpt><trkpt lat="43.320838616782986" lon="11.35141548970503"><ele>247.83333333333334</ele><time>2026-03-29T09:51:47.999Z</time></trkpt><trkpt lat="43.32086964739789" lon="11.351315390578396"><ele>248.0</ele><time>2026-03-29T09:51:48.999Z</time></trkpt><trkpt lat="43.3209157970014" lon="11.351192969971608"><ele>247.33333333333334</ele><time>2026-03-29T09:51:49.999Z</time></trkpt><trkpt lat="43.32095733779111" lon="11.351082156622805"><ele>246.66666666666669</ele><time>2026-03-29T09:51:50.999Z</time></trkpt><trkpt lat="43.32099411676438" lon="11.350983039852705"><ele>246.0</ele><time>2026-03-29T09:51:51.999Z</time></trkpt><trkpt lat="43.321028032402246" lon="11.350892939309327"><ele>245.33333333333331</ele><time>2026-03-29T09:51:52.999Z</time></trkpt><trkpt lat="43.32106379359629" lon="11.350804317619755"><ele>244.66666666666666</ele><time>2026-03-29T09:51:53.999Z</time></trkpt><trkpt lat="43.321101736240905" lon="11.350712287823077"><ele>244.0</ele><time>2026-03-29T09:51:54.999Z</time></trkpt><trkpt lat="43.32112677183166" lon="11.350627508573968"><ele>243.16666666666666</ele><time>2026-03-29T09:51:55.999Z</time></trkpt><trkpt lat="43.321171205040464" lon="11.35048377832396"><ele>242.33333333333331</ele><time>2026-03-29T09:51:57.999Z</time></trkpt><trkpt lat="43.32123088536211" lon="11.350433075568606"><ele>241.5</ele><time>2026-03-29T09:51:58.999Z</time></trkpt><trkpt lat="43.32127596858676" lon="11.350354037461477"><ele>240.66666666666669</ele><time>2026-03-29T09:51:59.999Z</time></trkpt><trkpt lat="43.32131556807214" lon="11.350250141693664"><ele>239.83333333333334</ele><time>2026-03-29T09:52:00.999Z</time></trkpt><trkpt lat="43.32134060574679" lon="11.350139541596219"><ele>239.0</ele><time>2026-03-29T09:52:01.999Z</time></trkpt><trkpt lat="43.32134168836843" lon="11.35003194450055"><ele>239.00000000000003</ele><time>2026-03-29T09:52:02.999Z</time></trkpt><trkpt lat="43.32131346909625" lon="11.349951228351378"><ele>239.0</ele><time>2026-03-29T09:52:03.999Z</time></trkpt><trkpt lat="43.321201946778714" lon="11.349859323843049"><ele>239.0</ele><time>2026-03-29T09:52:05.999Z</time></trkpt><trkpt lat="43.321126541857545" lon="11.349851026826915"><ele>239.0</ele><time>2026-03-29T09:52:06.999Z</time></trkpt><trkpt lat="43.321049364110415" lon="11.349891916193313"><ele>239.00000000000003</ele><time>2026-03-29T09:52:07.999Z</time></trkpt><trkpt lat="43.320984843896646" lon="11.349966300848745"><ele>239.0</ele><time>2026-03-29T09:52:08.999Z</time></trkpt><trkpt lat="43.32094132204293" lon="11.350099177027499"><ele>239.0</ele><time>2026-03-29T09:52:09.999Z</time></trkpt><trkpt lat="43.32091294732969" lon="11.350220820895995"><ele>238.99999999999997</ele><time>2026-03-29T09:52:10.999Z</time></trkpt><trkpt lat="43.32083042108944" lon="11.350310447546754"><ele>238.99999999999997</ele><time>2026-03-29T09:52:11.999Z</time></trkpt><trkpt lat="43.320758878711494" lon="11.35041553967064"><ele>239.0</ele><time>2026-03-29T09:52:12.999Z</time></trkpt><trkpt lat="43.32063223775319" lon="11.350450076310931"><ele>239.0</ele><time>2026-03-29T09:52:13.999Z</time></trkpt><trkpt lat="43.32052095627034" lon="11.35049598604215"><ele>239.0</ele><time>2026-03-29T09:52:14.999Z</time></trkpt><trkpt lat="43.32040109002672" lon="11.350536914232237"><ele>239.0</ele><time>2026-03-29T09:52:16Z</time></trkpt><trkpt lat="43.32028103283161" lon="11.350582509171637"><ele>239.0</ele><time>2026-03-29T09:52:17Z</time></trkpt><trkpt lat="43.32015769489187" lon="11.35063445110489"><ele>239.0</ele><time>2026-03-29T09:52:18Z</time></trkpt><trkpt lat="43.32004278686667" lon="11.35067728839851"><ele>238.75</ele><time>2026-03-29T09:52:19Z</time></trkpt><trkpt lat="43.3199265138298" lon="11.350715278833112"><ele>238.5</ele><time>2026-03-29T09:52:20Z</time></trkpt><trkpt lat="43.31980557338759" lon="11.350764596580794"><ele>238.25</ele><time>2026-03-29T09:52:21Z</time></trkpt><trkpt lat="43.319679419022805" lon="11.350824732126252"><ele>238.0</ele><time>2026-03-29T09:52:22Z</time></trkpt><trkpt lat="43.31957441725423" lon="11.350896173891385"><ele>238.0</ele><time>2026-03-29T09:52:23Z</time></trkpt><trkpt lat="43.31947868805118" lon="11.350968829486725"><ele>238.0</ele><time>2026-03-29T09:52:24Z</time></trkpt><trkpt lat="43.319384002012185" lon="11.351060389742358"><ele>238.0</ele><time>2026-03-29T09:52:25Z</time></trkpt><trkpt lat="43.319287092608626" lon="11.35117189344807"><ele>238.0</ele><time>2026-03-29T09:52:26Z</time></trkpt><trkpt lat="43.31919319991904" lon="11.351300123771644"><ele>238.75</ele><time>2026-03-29T09:52:27Z</time></trkpt><trkpt lat="43.319104623101495" lon="11.351428174371417"><ele>239.5</ele><time>2026-03-29T09:52:28Z</time></trkpt><trkpt lat="43.31902650406157" lon="11.351542973503953"><ele>240.25</ele><time>2026-03-29T09:52:29Z</time></trkpt><trkpt lat="43.31894801405587" lon="11.351662043568652"><ele>241.0</ele><time>2026-03-29T09:52:30Z</time></trkpt><trkpt lat="43.3188642961603" lon="11.351787208231924"><ele>239.8</ele><time>2026-03-29T09:52:31Z</time></trkpt><trkpt lat="43.31878735710592" lon="11.351905754334181"><ele>238.60000000000002</ele><time>2026-03-29T09:52:32Z</time></trkpt><trkpt lat="43.31871564762056" lon="11.352010890447023"><ele>237.4</ele><time>2026-03-29T09:52:33Z</time></trkpt><trkpt lat="43.31864675356851" lon="11.35211198087788"><ele>236.2</ele><time>2026-03-29T09:52:34Z</time></trkpt><trkpt lat="43.318576553979604" lon="11.352218491737371"><ele>235.0</ele><time>2026-03-29T09:52:35Z</time></trkpt><trkpt lat="43.31850220525699" lon="11.352332673791121"><ele>235.0</ele><time>2026-03-29T09:52:36Z</time></trkpt><trkpt lat="43.31842698602498" lon="11.35245188161342"><ele>235.0</ele><time>2026-03-29T09:52:37Z</time></trkpt><trkpt lat="43.31834635654215" lon="11.352570383396102"><ele>235.0</ele><time>2026-03-29T09:52:38Z</time></trkpt><trkpt lat="43.31827054170432" lon="11.352694568457236"><ele>235.0</ele><time>2026-03-29T09:52:39Z</time></trkpt><trkpt lat="43.318195272596235" lon="11.35280797530101"><ele>235.0</ele><time>2026-03-29T09:52:40Z</time></trkpt><trkpt lat="43.31810698479298" lon="11.352939768211204"><ele>235.0</ele><time>2026-03-29T09:52:41Z</time></trkpt><trkpt lat="43.31802746341963" lon="11.353058962588497"><ele>235.0</ele><time>2026-03-29T09:52:42Z</time></trkpt><trkpt lat="43.31795540492478" lon="11.35317538983399"><ele>235.0</ele><time>2026-03-29T09:52:43Z</time></trkpt><trkpt lat="43.31787625935367" lon="11.353293993718852"><ele>234.25</ele><time>2026-03-29T09:52:44Z</time></trkpt><trkpt lat="43.31778985119148" lon="11.35342450212988"><ele>233.5</ele><time>2026-03-29T09:52:45Z</time></trkpt><trkpt lat="43.31771009836378" lon="11.353540610928054"><ele>232.75</ele><time>2026-03-29T09:52:46Z</time></trkpt><trkpt lat="43.31763440374956" lon="11.353657279199346"><ele>232.0</ele><time>2026-03-29T09:52:47Z</time></trkpt><trkpt lat="43.317559730891546" lon="11.353784565321188"><ele>231.75</ele><time>2026-03-29T09:52:48Z</time></trkpt><trkpt lat="43.3174753551052" lon="11.353910908628565"><ele>231.5</ele><time>2026-03-29T09:52:49Z</time></trkpt><trkpt lat="43.31738857454649" lon="11.354040886917149"><ele>231.25</ele><time>2026-03-29T09:52:50Z</time></trkpt><trkpt lat="43.31731029027744" lon="11.35416168361511"><ele>231.0</ele><time>2026-03-29T09:52:51Z</time></trkpt><trkpt lat="43.31722716752123" lon="11.354284649421976"><ele>230.5</ele><time>2026-03-29T09:52:52Z</time></trkpt><trkpt lat="43.31714225618852" lon="11.354413301498836"><ele>230.0</ele><time>2026-03-29T09:52:53Z</time></trkpt><trkpt lat="43.3170555373437" lon="11.354543360449549"><ele>229.5</ele><time>2026-03-29T09:52:54Z</time></trkpt><trkpt lat="43.31696709400873" lon="11.354674325067544"><ele>229.0</ele><time>2026-03-29T09:52:55Z</time></trkpt><trkpt lat="43.316887331102116" lon="11.354800304943334"><ele>228.79999999999998</ele><time>2026-03-29T09:52:56Z</time></trkpt><trkpt lat="43.31681155889874" lon="11.354914640752892"><ele>228.59999999999997</ele><time>2026-03-29T09:52:57Z</time></trkpt><trkpt lat="43.31674091280461" lon="11.35501919500081"><ele>228.4</ele><time>2026-03-29T09:52:58Z</time></trkpt><trkpt lat="43.31667983585756" lon="11.35511744667966"><ele>228.2</ele><time>2026-03-29T09:52:59Z</time></trkpt><trkpt lat="43.31663348435501" lon="11.355182443828673"><ele>228.0</ele><time>2026-03-29T09:53:00Z</time></trkpt><trkpt lat="43.31656675324765" lon="11.355275732830249"><ele>228.0</ele><time>2026-03-29T09:53:02Z</time></trkpt><trkpt lat="43.31649945888521" lon="11.355321424325222"><ele>228.0</ele><time>2026-03-29T09:53:04Z</time></trkpt><trkpt lat="43.31642618807919" lon="11.355311181055306"><ele>228.0</ele><time>2026-03-29T09:53:06Z</time></trkpt><trkpt lat="43.3163596507687" lon="11.355234114569672"><ele>228.0</ele><time>2026-03-29T09:53:09Z</time></trkpt><trkpt lat="43.31628538431443" lon="11.35518792210746"><ele>228.0</ele><time>2026-03-29T09:53:11Z</time></trkpt><trkpt lat="43.31620450806368" lon="11.35518625128082"><ele>228.0</ele><time>2026-03-29T09:53:13Z</time></trkpt><trkpt lat="43.31611753619882" lon="11.355245441594027"><ele>227.83333333333334</ele><time>2026-03-29T09:53:15Z</time></trkpt><trkpt lat="43.31607066291224" lon="11.355406371579624"><ele>227.66666666666669</ele><time>2026-03-29T09:53:17Z</time></trkpt><trkpt lat="43.31606708597846" lon="11.355517136974742"><ele>227.5</ele><time>2026-03-29T09:53:18Z</time></trkpt><trkpt lat="43.316062561708854" lon="11.355627153272028"><ele>227.33333333333334</ele><time>2026-03-29T09:53:19Z</time></trkpt><trkpt lat="43.316034777929175" lon="11.355726525672912"><ele>227.16666666666669</ele><time>2026-03-29T09:53:20Z</time></trkpt><trkpt lat="43.31599090347476" lon="11.355823640091629"><ele>227.0</ele><time>2026-03-29T09:53:21Z</time></trkpt><trkpt lat="43.315943537239676" lon="11.355904445895838"><ele>226.6</ele><time>2026-03-29T09:53:22Z</time></trkpt><trkpt lat="43.315889756853935" lon="11.355978048029138"><ele>226.2</ele><time>2026-03-29T09:53:23Z</time></trkpt><trkpt lat="43.31583389141205" lon="11.356036437519949"><ele>225.8</ele><time>2026-03-29T09:53:24Z</time></trkpt><trkpt lat="43.315739139995635" lon="11.355937253160562"><ele>225.4</ele><time>2026-03-29T09:53:28.999Z</time></trkpt><trkpt lat="43.31563537756205" lon="11.355870522413005"><ele>225.0</ele><time>2026-03-29T09:53:30.999Z</time></trkpt><trkpt lat="43.315567382917685" lon="11.355836166063396"><ele>225.66666666666666</ele><time>2026-03-29T09:53:32.999Z</time></trkpt><trkpt lat="43.31548512453363" lon="11.355822130970319"><ele>226.33333333333331</ele><time>2026-03-29T09:53:35.999Z</time></trkpt><trkpt lat="43.31539668475124" lon="11.355795849609583"><ele>227.0</ele><time>2026-03-29T09:53:38.999Z</time></trkpt><trkpt lat="43.31529735455664" lon="11.355786731390843"><ele>227.66666666666666</ele><time>2026-03-29T09:53:40.999Z</time></trkpt><trkpt lat="43.31523030817271" lon="11.35580432880046"><ele>228.33333333333331</ele><time>2026-03-29T09:53:41.999Z</time></trkpt><trkpt lat="43.31514679589241" lon="11.355826409775252"><ele>229.0</ele><time>2026-03-29T09:53:42.999Z</time></trkpt><trkpt lat="43.31508650233239" lon="11.35589604094174"><ele>229.0</ele><time>2026-03-29T09:53:43.999Z</time></trkpt><trkpt lat="43.31502293953274" lon="11.355956119786223"><ele>228.99999999999997</ele><time>2026-03-29T09:53:44.999Z</time></trkpt><trkpt lat="43.31495368549094" lon="11.356024624413287"><ele>228.99999999999997</ele><time>2026-03-29T09:53:45.999Z</time></trkpt><trkpt lat="43.31486440018808" lon="11.356081911336755"><ele>229.0</ele><time>2026-03-29T09:53:46.999Z</time></trkpt><trkpt lat="43.31477342640031" lon="11.356167693370958"><ele>229.0</ele><time>2026-03-29T09:53:47.999Z</time></trkpt><trkpt lat="43.31467643263489" lon="11.35625915182007"><ele>229.79999999999998</ele><time>2026-03-29T09:53:48.999Z</time></trkpt><trkpt lat="43.31460979170188" lon="11.356337068405145"><ele>230.59999999999997</ele><time>2026-03-29T09:53:49.999Z</time></trkpt><trkpt lat="43.314542356533835" lon="11.356394980660797"><ele>231.4</ele><time>2026-03-29T09:53:50.999Z</time></trkpt><trkpt lat="43.31444440784994" lon="11.356354470025856"><ele>232.2</ele><time>2026-03-29T09:53:52.999Z</time></trkpt><trkpt lat="43.31443919746573" lon="11.35619138901981"><ele>233.0</ele><time>2026-03-29T09:53:54.999Z</time></trkpt><trkpt lat="43.314479948982125" lon="11.356087612810995"><ele>235.5</ele><time>2026-03-29T09:53:55.999Z</time></trkpt><trkpt lat="43.31453250639692" lon="11.35594958082003"><ele>238.0</ele><time>2026-03-29T09:53:56.999Z</time></trkpt><trkpt lat="43.314570381158354" lon="11.355793398725524"><ele>240.5</ele><time>2026-03-29T09:53:57.999Z</time></trkpt><trkpt lat="43.31461206559361" lon="11.355634973417896"><ele>243.0</ele><time>2026-03-29T09:53:58.999Z</time></trkpt><trkpt lat="43.31463877252658" lon="11.355446992295922"><ele>245.75</ele><time>2026-03-29T09:53:59.999Z</time></trkpt><trkpt lat="43.31465614809605" lon="11.355243742173606"><ele>248.5</ele><time>2026-03-29T09:54:00.999Z</time></trkpt><trkpt lat="43.31466029154981" lon="11.355043744324151"><ele>251.25</ele><time>2026-03-29T09:54:01.999Z</time></trkpt><trkpt lat="43.31465857983361" lon="11.354892531925177"><ele>254.0</ele><time>2026-03-29T09:54:02.999Z</time></trkpt><trkpt lat="43.3146642607512" lon="11.354781680790316"><ele>255.25</ele><time>2026-03-29T09:54:03.999Z</time></trkpt><trkpt lat="43.31463759913097" lon="11.354614846983342"><ele>256.5</ele><time>2026-03-29T09:54:05.999Z</time></trkpt><trkpt lat="43.314547368947586" lon="11.35436815933294"><ele>257.75</ele><time>2026-03-29T09:54:06.999Z</time></trkpt><trkpt lat="43.314471157437765" lon="11.354262339548171"><ele>259.0</ele><time>2026-03-29T09:54:07.999Z</time></trkpt><trkpt lat="43.31437627601817" lon="11.35414728608505"><ele>259.0</ele><time>2026-03-29T09:54:08.999Z</time></trkpt><trkpt lat="43.31430523664796" lon="11.354011890145479"><ele>259.0</ele><time>2026-03-29T09:54:09.999Z</time></trkpt><trkpt lat="43.31424951897074" lon="11.353846028137076"><ele>259.0</ele><time>2026-03-29T09:54:10.999Z</time></trkpt><trkpt lat="43.31417958591491" lon="11.353717006568301"><ele>259.0</ele><time>2026-03-29T09:54:11.999Z</time></trkpt><trkpt lat="43.31411425770884" lon="11.353603716066086"><ele>258.0</ele><time>2026-03-29T09:54:12.999Z</time></trkpt><trkpt lat="43.31401080512708" lon="11.353479085102752"><ele>257.0</ele><time>2026-03-29T09:54:13.999Z</time></trkpt><trkpt lat="43.31388558039246" lon="11.353349805212591"><ele>256.0</ele><time>2026-03-29T09:54:14.999Z</time></trkpt><trkpt lat="43.31377293417608" lon="11.35322340384487"><ele>255.0</ele><time>2026-03-29T09:54:15.999Z</time></trkpt><trkpt lat="43.31366391294186" lon="11.353089696986205"><ele>258.5</ele><time>2026-03-29T09:54:16.999Z</time></trkpt><trkpt lat="43.31355082482957" lon="11.352955364368515"><ele>262.0</ele><time>2026-03-29T09:54:17.999Z</time></trkpt><trkpt lat="43.31346034434987" lon="11.352795680392864"><ele>265.5</ele><time>2026-03-29T09:54:18.999Z</time></trkpt><trkpt lat="43.31336733435802" lon="11.352641095721381"><ele>269.0</ele><time>2026-03-29T09:54:19.999Z</time></trkpt><trkpt lat="43.313276353650686" lon="11.352474456470912"><ele>269.0</ele><time>2026-03-29T09:54:20.999Z</time></trkpt><trkpt lat="43.313191569232494" lon="11.352333724158946"><ele>269.0</ele><time>2026-03-29T09:54:22Z</time></trkpt><trkpt lat="43.31312944965024" lon="11.352210178013376"><ele>269.0</ele><time>2026-03-29T09:54:23Z</time></trkpt><trkpt lat="43.31308280662826" lon="11.35212180806402"><ele>269.0</ele><time>2026-03-29T09:54:24Z</time></trkpt><trkpt lat="43.313055459271176" lon="11.352030440849056"><ele>269.0</ele><time>2026-03-29T09:54:25Z</time></trkpt><trkpt lat="43.31301550764251" lon="11.35193889702366"><ele>270.75</ele><time>2026-03-29T09:54:26Z</time></trkpt><trkpt lat="43.31296307883158" lon="11.351801836899442"><ele>272.5</ele><time>2026-03-29T09:54:27Z</time></trkpt><trkpt lat="43.31291514714254" lon="11.351637983999424"><ele>274.25</ele><time>2026-03-29T09:54:28Z</time></trkpt><trkpt lat="43.31287534645446" lon="11.351475218900143"><ele>276.0</ele><time>2026-03-29T09:54:29Z</time></trkpt><trkpt lat="43.312841679008905" lon="11.351314178888531"><ele>277.0</ele><time>2026-03-29T09:54:30Z</time></trkpt><trkpt lat="43.31280361702256" lon="11.351150373561632"><ele>278.0</ele><time>2026-03-29T09:54:31Z</time></trkpt><trkpt lat="43.312776690160476" lon="11.351004993179668"><ele>279.0</ele><time>2026-03-29T09:54:32Z</time></trkpt><trkpt lat="43.312753163819195" lon="11.350880766081126"><ele>280.0</ele><time>2026-03-29T09:54:33Z</time></trkpt><trkpt lat="43.312717580872665" lon="11.350757994611492"><ele>281.0</ele><time>2026-03-29T09:54:34Z</time></trkpt><trkpt lat="43.31267467724211" lon="11.350616474876729"><ele>280.6666666666667</ele><time>2026-03-29T09:54:35Z</time></trkpt><trkpt lat="43.31263459838679" lon="11.350490771886191"><ele>280.33333333333337</ele><time>2026-03-29T09:54:36Z</time></trkpt><trkpt lat="43.31260847927611" lon="11.350396090524463"><ele>280.0</ele><time>2026-03-29T09:54:37Z</time></trkpt><trkpt lat="43.312579738357954" lon="11.350317937126452"><ele>279.6666666666667</ele><time>2026-03-29T09:54:38Z</time></trkpt><trkpt lat="43.31254090245532" lon="11.350226294381494"><ele>279.3333333333333</ele><time>2026-03-29T09:54:39Z</time></trkpt><trkpt lat="43.31251078726502" lon="11.350138466835164"><ele>279.0</ele><time>2026-03-29T09:54:40Z</time></trkpt><trkpt lat="43.31247220314353" lon="11.349981134188464"><ele>279.0</ele><time>2026-03-29T09:54:42Z</time></trkpt><trkpt lat="43.31248459296309" lon="11.349811147224855"><ele>279.0</ele><time>2026-03-29T09:54:44Z</time></trkpt><trkpt lat="43.31252456294483" lon="11.349728309260737"><ele>279.0</ele><time>2026-03-29T09:54:45Z</time></trkpt><trkpt lat="43.31256168498755" lon="11.349652342088493"><ele>279.0</ele><time>2026-03-29T09:54:46Z</time></trkpt><trkpt lat="43.31261368709625" lon="11.34952090712437"><ele>279.0</ele><time>2026-03-29T09:54:48Z</time></trkpt><trkpt lat="43.3126785641437" lon="11.34939805181113"><ele>278.0</ele><time>2026-03-29T09:54:50Z</time></trkpt><trkpt lat="43.31271727302674" lon="11.34924963696899"><ele>277.0</ele><time>2026-03-29T09:54:52Z</time></trkpt><trkpt lat="43.312751037756975" lon="11.349084298971695"><ele>276.0</ele><time>2026-03-29T09:54:54Z</time></trkpt><trkpt lat="43.31273355258637" lon="11.348926124418739"><ele>275.0</ele><time>2026-03-29T09:54:56Z</time></trkpt><trkpt lat="43.31273310501714" lon="11.348836700443668"><ele>274.0</ele><time>2026-03-29T09:54:57Z</time></trkpt><trkpt lat="43.312713839368804" lon="11.3487521172461"><ele>273.2</ele><time>2026-03-29T09:54:58Z</time></trkpt><trkpt lat="43.31267503913214" lon="11.348670769635012"><ele>272.4</ele><time>2026-03-29T09:54:59Z</time></trkpt><trkpt lat="43.31265105189549" lon="11.348589620447015"><ele>271.6</ele><time>2026-03-29T09:55:00Z</time></trkpt><trkpt lat="43.31260048159724" lon="11.348439629263503"><ele>270.8</ele><time>2026-03-29T09:55:02Z</time></trkpt><trkpt lat="43.312537575501594" lon="11.348318517484469"><ele>270.0</ele><time>2026-03-29T09:55:04Z</time></trkpt><trkpt lat="43.312480974023934" lon="11.348227374124399"><ele>270.0</ele><time>2026-03-29T09:55:06Z</time></trkpt><trkpt lat="43.31241861515607" lon="11.348154361786625"><ele>270.0</ele><time>2026-03-29T09:55:08Z</time></trkpt><trkpt lat="43.31237653469287" lon="11.348077562738172"><ele>270.0</ele><time>2026-03-29T09:55:10Z</time></trkpt><trkpt lat="43.312325692871966" lon="11.348001607479194"><ele>270.0</ele><time>2026-03-29T09:55:18Z</time></trkpt><trkpt lat="43.312201406852196" lon="11.348147480017586"><ele>270.0</ele><time>2026-03-29T09:55:21Z</time></trkpt><trkpt lat="43.312170115417274" lon="11.348231462292048"><ele>269.1666666666667</ele><time>2026-03-29T09:55:22Z</time></trkpt><trkpt lat="43.312127946413256" lon="11.348310457075137"><ele>268.3333333333333</ele><time>2026-03-29T09:55:23Z</time></trkpt><trkpt lat="43.31208774226828" lon="11.348389341805833"><ele>267.5</ele><time>2026-03-29T09:55:24Z</time></trkpt><trkpt lat="43.312054605949584" lon="11.34851003923209"><ele>266.66666666666663</ele><time>2026-03-29T09:55:25Z</time></trkpt><trkpt lat="43.31202620602802" lon="11.348603633399119"><ele>265.8333333333333</ele><time>2026-03-29T09:55:26Z</time></trkpt><trkpt lat="43.31199950062834" lon="11.348703719372526"><ele>265.0</ele><time>2026-03-29T09:55:27Z</time></trkpt><trkpt lat="43.311976203236455" lon="11.348835416244226"><ele>264.5</ele><time>2026-03-29T09:55:28Z</time></trkpt><trkpt lat="43.31193571020358" lon="11.348986839116993"><ele>264.0</ele><time>2026-03-29T09:55:28.999Z</time></trkpt><trkpt lat="43.31189441971961" lon="11.349105710502624"><ele>263.5</ele><time>2026-03-29T09:55:29.999Z</time></trkpt><trkpt lat="43.3118611326376" lon="11.349210456670395"><ele>263.0</ele><time>2026-03-29T09:55:30.999Z</time></trkpt><trkpt lat="43.3118295309796" lon="11.349300019219147"><ele>262.5</ele><time>2026-03-29T09:55:31.999Z</time></trkpt><trkpt lat="43.31178971634467" lon="11.349393034788935"><ele>262.0</ele><time>2026-03-29T09:55:32.999Z</time></trkpt><trkpt lat="43.31174733029878" lon="11.349478155741288"><ele>262.0</ele><time>2026-03-29T09:55:33.999Z</time></trkpt><trkpt lat="43.31170162625304" lon="11.349557975328725"><ele>262.0</ele><time>2026-03-29T09:55:34.999Z</time></trkpt><trkpt lat="43.311636605201684" lon="11.349620613297528"><ele>262.0</ele><time>2026-03-29T09:55:35.999Z</time></trkpt><trkpt lat="43.311576456436704" lon="11.349683023686847"><ele>262.0</ele><time>2026-03-29T09:55:36.999Z</time></trkpt><trkpt lat="43.311505469463135" lon="11.349746169807567"><ele>262.0</ele><time>2026-03-29T09:55:37.999Z</time></trkpt><trkpt lat="43.31138371524688" lon="11.349822097416896"><ele>262.0</ele><time>2026-03-29T09:55:39.999Z</time></trkpt><trkpt lat="43.311317472585046" lon="11.349847672751117"><ele>262.0</ele><time>2026-03-29T09:55:40.999Z</time></trkpt><trkpt lat="43.31121127568737" lon="11.349892531952012"><ele>262.0</ele><time>2026-03-29T09:55:42.999Z</time></trkpt><trkpt lat="43.31110008156517" lon="11.34992327110466"><ele>262.0</ele><time>2026-03-29T09:55:44.999Z</time></trkpt><trkpt lat="43.310984353686" lon="11.34994442046499"><ele>262.0</ele><time>2026-03-29T09:55:46.999Z</time></trkpt><trkpt lat="43.31087416541067" lon="11.34998039667173"><ele>262.0</ele><time>2026-03-29T09:55:48.999Z</time></trkpt><trkpt lat="43.310760553239895" lon="11.350020865857234"><ele>262.0</ele><time>2026-03-29T09:55:50.999Z</time></trkpt><trkpt lat="43.31066446499474" lon="11.350094505770326"><ele>262.0</ele><time>2026-03-29T09:55:52.999Z</time></trkpt><trkpt lat="43.31056648087573" lon="11.35013202369341"><ele>262.0</ele><time>2026-03-29T09:55:54.999Z</time></trkpt><trkpt lat="43.31045832408239" lon="11.350209074888147"><ele>262.0</ele><time>2026-03-29T09:55:56.999Z</time></trkpt><trkpt lat="43.31040290479078" lon="11.350252536899333"><ele>262.0</ele><time>2026-03-29T09:55:57.999Z</time></trkpt><trkpt lat="43.31030124735024" lon="11.35034261341524"><ele>262.0</ele><time>2026-03-29T09:55:59.999Z</time></trkpt><trkpt lat="43.31022314143604" lon="11.350445902260429"><ele>262.0</ele><time>2026-03-29T09:56:01.999Z</time></trkpt><trkpt lat="43.310137564148754" lon="11.350553298135983"><ele>262.0</ele><time>2026-03-29T09:56:03.999Z</time></trkpt><trkpt lat="43.31006210327845" lon="11.350682725369774"><ele>261.8333333333333</ele><time>2026-03-29T09:56:05.999Z</time></trkpt><trkpt lat="43.309971007494894" lon="11.350784919179194"><ele>261.66666666666663</ele><time>2026-03-29T09:56:07.999Z</time></trkpt><trkpt lat="43.30991938227749" lon="11.350845221221295"><ele>261.5</ele><time>2026-03-29T09:56:08.999Z</time></trkpt><trkpt lat="43.30987025603156" lon="11.350937670046692"><ele>261.3333333333333</ele><time>2026-03-29T09:56:09.999Z</time></trkpt><trkpt lat="43.30982384328115" lon="11.351014398798858"><ele>261.1666666666667</ele><time>2026-03-29T09:56:10.999Z</time></trkpt><trkpt lat="43.309787226561184" lon="11.351114243002076"><ele>261.0</ele><time>2026-03-29T09:56:11.999Z</time></trkpt><trkpt lat="43.30971785998144" lon="11.351241908529893"><ele>262.0</ele><time>2026-03-29T09:56:12.999Z</time></trkpt><trkpt lat="43.30965813154774" lon="11.35139860027033"><ele>263.0</ele><time>2026-03-29T09:56:13.999Z</time></trkpt><trkpt lat="43.309604729199556" lon="11.35157367567516"><ele>264.0</ele><time>2026-03-29T09:56:14.999Z</time></trkpt><trkpt lat="43.309584431392764" lon="11.351733776062707"><ele>265.0</ele><time>2026-03-29T09:56:15.999Z</time></trkpt><trkpt lat="43.309545565209376" lon="11.351912263826165"><ele>265.0</ele><time>2026-03-29T09:56:16.999Z</time></trkpt><trkpt lat="43.30950091938027" lon="11.352136114188019"><ele>265.0</ele><time>2026-03-29T09:56:17.999Z</time></trkpt><trkpt lat="43.30945034803887" lon="11.35237008154668"><ele>265.0</ele><time>2026-03-29T09:56:18.999Z</time></trkpt><trkpt lat="43.30940922751548" lon="11.352634769393761"><ele>265.0</ele><time>2026-03-29T09:56:19.999Z</time></trkpt><trkpt lat="43.30935568853174" lon="11.352919912714281"><ele>265.0</ele><time>2026-03-29T09:56:20.999Z</time></trkpt><trkpt lat="43.30931650372594" lon="11.353169799468551"><ele>265.0</ele><time>2026-03-29T09:56:21.999Z</time></trkpt><trkpt lat="43.30928133943337" lon="11.353360391068774"><ele>265.0</ele><time>2026-03-29T09:56:22.999Z</time></trkpt><trkpt lat="43.309248432042075" lon="11.353514273122627"><ele>265.0</ele><time>2026-03-29T09:56:23.999Z</time></trkpt><trkpt lat="43.309237531910114" lon="11.353631972823234"><ele>265.0</ele><time>2026-03-29T09:56:24.999Z</time></trkpt><trkpt lat="43.309234385313864" lon="11.353725902546838"><ele>265.0</ele><time>2026-03-29T09:56:25.999Z</time></trkpt><trkpt lat="43.30923656593163" lon="11.353860266653744"><ele>265.0</ele><time>2026-03-29T09:56:28Z</time></trkpt><trkpt lat="43.30923387558634" lon="11.353951851347777"><ele>265.0</ele><time>2026-03-29T09:56:29Z</time></trkpt><trkpt lat="43.30922676374686" lon="11.354098898076794"><ele>264.5</ele><time>2026-03-29T09:56:30Z</time></trkpt><trkpt lat="43.30922209308775" lon="11.35427077417494"><ele>264.0</ele><time>2026-03-29T09:56:31Z</time></trkpt><trkpt lat="43.30921631287641" lon="11.354439661065804"><ele>263.5</ele><time>2026-03-29T09:56:32Z</time></trkpt><trkpt lat="43.30921624807223" lon="11.354591320250167"><ele>263.0</ele><time>2026-03-29T09:56:33Z</time></trkpt><trkpt lat="43.30921862465074" lon="11.354727300102017"><ele>263.0</ele><time>2026-03-29T09:56:34Z</time></trkpt><trkpt lat="43.309222589834654" lon="11.354852603721174"><ele>263.0</ele><time>2026-03-29T09:56:35Z</time></trkpt><trkpt lat="43.309231929857965" lon="11.354973839179408"><ele>263.0</ele><time>2026-03-29T09:56:36Z</time></trkpt><trkpt lat="43.309246496433516" lon="11.35508147588656"><ele>263.0</ele><time>2026-03-29T09:56:37Z</time></trkpt><trkpt lat="43.30926017454571" lon="11.355188407825855"><ele>263.0</ele><time>2026-03-29T09:56:38Z</time></trkpt><trkpt lat="43.30929459789006" lon="11.355314520872135"><ele>263.0</ele><time>2026-03-29T09:56:39Z</time></trkpt><trkpt lat="43.3093236892898" lon="11.35543241297554"><ele>262.6</ele><time>2026-03-29T09:56:40Z</time></trkpt><trkpt lat="43.30934241508368" lon="11.355557180759584"><ele>262.20000000000005</ele><time>2026-03-29T09:56:41Z</time></trkpt><trkpt lat="43.30937448641337" lon="11.355680447551"><ele>261.8</ele><time>2026-03-29T09:56:42Z</time></trkpt><trkpt lat="43.309404478637845" lon="11.35582512172837"><ele>261.40000000000003</ele><time>2026-03-29T09:56:43Z</time></trkpt><trkpt lat="43.30944009071127" lon="11.355965333912328"><ele>261.0</ele><time>2026-03-29T09:56:44Z</time></trkpt><trkpt lat="43.30946822880073" lon="11.35608122310356"><ele>261.0</ele><time>2026-03-29T09:56:45Z</time></trkpt><trkpt lat="43.309490517883155" lon="11.356199331321525"><ele>261.0</ele><time>2026-03-29T09:56:46Z</time></trkpt><trkpt lat="43.30950832513417" lon="11.356322782129494"><ele>261.0</ele><time>2026-03-29T09:56:47Z</time></trkpt><trkpt lat="43.30951160843033" lon="11.356440286161119"><ele>261.0</ele><time>2026-03-29T09:56:48Z</time></trkpt><trkpt lat="43.30950364440501" lon="11.356567273773619"><ele>261.0</ele><time>2026-03-29T09:56:49Z</time></trkpt><trkpt lat="43.309476986470784" lon="11.356707889566842"><ele>260.0</ele><time>2026-03-29T09:56:50Z</time></trkpt><trkpt lat="43.30943988619076" lon="11.35684159864018"><ele>259.0</ele><time>2026-03-29T09:56:51Z</time></trkpt><trkpt lat="43.309411772599994" lon="11.356958537618148"><ele>258.0</ele><time>2026-03-29T09:56:52Z</time></trkpt><trkpt lat="43.3093768463259" lon="11.357063916894024"><ele>257.0</ele><time>2026-03-29T09:56:53Z</time></trkpt><trkpt lat="43.309347160961764" lon="11.357168672767987"><ele>256.0</ele><time>2026-03-29T09:56:54Z</time></trkpt><trkpt lat="43.30931194686788" lon="11.357254376422695"><ele>255.0</ele><time>2026-03-29T09:56:55Z</time></trkpt><trkpt lat="43.3092624956583" lon="11.357321960850099"><ele>254.66666666666666</ele><time>2026-03-29T09:56:56Z</time></trkpt><trkpt lat="43.309197538607144" lon="11.357391325241055"><ele>254.33333333333331</ele><time>2026-03-29T09:56:57Z</time></trkpt><trkpt lat="43.30912862898286" lon="11.357472852622942"><ele>254.0</ele><time>2026-03-29T09:56:58Z</time></trkpt><trkpt lat="43.309058923286685" lon="11.357554414914851"><ele>253.66666666666666</ele><time>2026-03-29T09:56:59Z</time></trkpt><trkpt lat="43.309000238193065" lon="11.357605041720015"><ele>253.33333333333331</ele><time>2026-03-29T09:57:00Z</time></trkpt><trkpt lat="43.30894266635383" lon="11.357661965138652"><ele>253.0</ele><time>2026-03-29T09:57:01Z</time></trkpt><trkpt lat="43.30888128122604" lon="11.357724530850072"><ele>251.99999999999997</ele><time>2026-03-29T09:57:02Z</time></trkpt><trkpt lat="43.30881493571665" lon="11.357795792595184"><ele>251.0</ele><time>2026-03-29T09:57:03Z</time></trkpt><trkpt lat="43.30875261658399" lon="11.35785761304969"><ele>250.0</ele><time>2026-03-29T09:57:04Z</time></trkpt><trkpt lat="43.308681970162596" lon="11.357926982915323"><ele>249.0</ele><time>2026-03-29T09:57:05Z</time></trkpt><trkpt lat="43.30860737772536" lon="11.357997019697832"><ele>247.99999999999997</ele><time>2026-03-29T09:57:06Z</time></trkpt><trkpt lat="43.308525479578265" lon="11.358067037433479"><ele>247.0</ele><time>2026-03-29T09:57:07Z</time></trkpt><trkpt lat="43.30843111044285" lon="11.358129514082403"><ele>247.0</ele><time>2026-03-29T09:57:08Z</time></trkpt><trkpt lat="43.30833764355465" lon="11.358196482864395"><ele>247.0</ele><time>2026-03-29T09:57:09Z</time></trkpt><trkpt lat="43.30825489744802" lon="11.358269743551865"><ele>247.0</ele><time>2026-03-29T09:57:10Z</time></trkpt><trkpt lat="43.308173497684315" lon="11.358343497047684"><ele>247.0</ele><time>2026-03-29T09:57:11Z</time></trkpt><trkpt lat="43.30809091180226" lon="11.358415762750793"><ele>247.0</ele><time>2026-03-29T09:57:12Z</time></trkpt><trkpt lat="43.30800567602777" lon="11.358492074157784"><ele>244.75</ele><time>2026-03-29T09:57:13Z</time></trkpt><trkpt lat="43.30791590006487" lon="11.35857907237128"><ele>242.5</ele><time>2026-03-29T09:57:14Z</time></trkpt><trkpt lat="43.30783365264551" lon="11.358678055201446"><ele>240.25</ele><time>2026-03-29T09:57:15Z</time></trkpt><trkpt lat="43.30774141564576" lon="11.35879660157924"><ele>238.0</ele><time>2026-03-29T09:57:16Z</time></trkpt><trkpt lat="43.30764189386169" lon="11.358913270598126"><ele>238.0</ele><time>2026-03-29T09:57:17Z</time></trkpt><trkpt lat="43.30753973414728" lon="11.3590411257044"><ele>238.0</ele><time>2026-03-29T09:57:18Z</time></trkpt><trkpt lat="43.307432051808604" lon="11.359166984035339"><ele>238.0</ele><time>2026-03-29T09:57:19Z</time></trkpt><trkpt lat="43.30734340520742" lon="11.359269782832934"><ele>238.0</ele><time>2026-03-29T09:57:20Z</time></trkpt><trkpt lat="43.307259546465325" lon="11.359363884753321"><ele>238.75</ele><time>2026-03-29T09:57:21Z</time></trkpt><trkpt lat="43.30717058755911" lon="11.359462434397946"><ele>239.5</ele><time>2026-03-29T09:57:22Z</time></trkpt><trkpt lat="43.307084942634276" lon="11.359556815355429"><ele>240.25</ele><time>2026-03-29T09:57:23Z</time></trkpt><trkpt lat="43.306991908828664" lon="11.359685721620982"><ele>241.0</ele><time>2026-03-29T09:57:24Z</time></trkpt><trkpt lat="43.30690256941122" lon="11.359788410538366"><ele>241.0</ele><time>2026-03-29T09:57:25Z</time></trkpt><trkpt lat="43.306819010204265" lon="11.359897812453594"><ele>241.0</ele><time>2026-03-29T09:57:26Z</time></trkpt><trkpt lat="43.3067358331947" lon="11.360015416938076"><ele>241.0</ele><time>2026-03-29T09:57:27Z</time></trkpt><trkpt lat="43.30665220137041" lon="11.360133080716503"><ele>241.0</ele><time>2026-03-29T09:57:28Z</time></trkpt><trkpt lat="43.30658074873723" lon="11.360248899930683"><ele>241.0</ele><time>2026-03-29T09:57:29Z</time></trkpt><trkpt lat="43.30651753545619" lon="11.360357759090762"><ele>241.00000000000003</ele><time>2026-03-29T09:57:30Z</time></trkpt><trkpt lat="43.306438759416615" lon="11.36047468125715"><ele>241.00000000000003</ele><time>2026-03-29T09:57:31Z</time></trkpt><trkpt lat="43.306367951650635" lon="11.360593024361577"><ele>241.0</ele><time>2026-03-29T09:57:31.999Z</time></trkpt><trkpt lat="43.30629299397244" lon="11.360692277792136"><ele>241.0</ele><time>2026-03-29T09:57:32.999Z</time></trkpt><trkpt lat="43.30622520653145" lon="11.360778203888476"><ele>243.20000000000002</ele><time>2026-03-29T09:57:33.999Z</time></trkpt><trkpt lat="43.306162974019124" lon="11.360866624403656"><ele>245.40000000000003</ele><time>2026-03-29T09:57:34.999Z</time></trkpt><trkpt lat="43.30611194982392" lon="11.360989223336292"><ele>247.6</ele><time>2026-03-29T09:57:35.999Z</time></trkpt><trkpt lat="43.30606382786357" lon="11.361116567739016"><ele>249.8</ele><time>2026-03-29T09:57:36.999Z</time></trkpt><trkpt lat="43.3060196893175" lon="11.361226878713035"><ele>252.0</ele><time>2026-03-29T09:57:37.999Z</time></trkpt><trkpt lat="43.305980971273534" lon="11.36131938116846"><ele>251.0</ele><time>2026-03-29T09:57:38.999Z</time></trkpt><trkpt lat="43.30593508818209" lon="11.36140135419364"><ele>250.0</ele><time>2026-03-29T09:57:39.999Z</time></trkpt><trkpt lat="43.30588724084755" lon="11.36148216416432"><ele>249.0</ele><time>2026-03-29T09:57:40.999Z</time></trkpt><trkpt lat="43.30581143316009" lon="11.361554376670034"><ele>248.0</ele><time>2026-03-29T09:57:41.999Z</time></trkpt><trkpt lat="43.30574009909324" lon="11.361615402526605"><ele>247.0</ele><time>2026-03-29T09:57:42.999Z</time></trkpt><trkpt lat="43.305668700719664" lon="11.361656134739647"><ele>246.0</ele><time>2026-03-29T09:57:43.999Z</time></trkpt><trkpt lat="43.30557872169052" lon="11.361689451122166"><ele>246.20000000000002</ele><time>2026-03-29T09:57:44.999Z</time></trkpt><trkpt lat="43.3054859699215" lon="11.361688143182338"><ele>246.40000000000003</ele><time>2026-03-29T09:57:45.999Z</time></trkpt><trkpt lat="43.30537710232518" lon="11.361726563698355"><ele>246.6</ele><time>2026-03-29T09:57:46.999Z</time></trkpt><trkpt lat="43.30526792230987" lon="11.361736234514192"><ele>246.8</ele><time>2026-03-29T09:57:47.999Z</time></trkpt><trkpt lat="43.305159395833385" lon="11.361755421147537"><ele>247.0</ele><time>2026-03-29T09:57:48.999Z</time></trkpt><trkpt lat="43.3050555972809" lon="11.361776880052792"><ele>246.99999999999997</ele><time>2026-03-29T09:57:49.999Z</time></trkpt><trkpt lat="43.304969886089424" lon="11.361800838484795"><ele>247.0</ele><time>2026-03-29T09:57:50.999Z</time></trkpt><trkpt lat="43.30488288360439" lon="11.361816533517903"><ele>247.0</ele><time>2026-03-29T09:57:51.999Z</time></trkpt><trkpt lat="43.304803024024494" lon="11.361822594616417"><ele>247.0</ele><time>2026-03-29T09:57:52.999Z</time></trkpt><trkpt lat="43.30471567565793" lon="11.36183215708131"><ele>246.99999999999997</ele><time>2026-03-29T09:57:53.999Z</time></trkpt><trkpt lat="43.304615814989084" lon="11.36183884352367"><ele>247.0</ele><time>2026-03-29T09:57:54.999Z</time></trkpt><trkpt lat="43.3045292650316" lon="11.361833908249524"><ele>245.0</ele><time>2026-03-29T09:57:55.999Z</time></trkpt><trkpt lat="43.304433446442424" lon="11.361863054702287"><ele>243.0</ele><time>2026-03-29T09:57:56.999Z</time></trkpt><trkpt lat="43.30433774534619" lon="11.36191349324097"><ele>241.0</ele><time>2026-03-29T09:57:57.999Z</time></trkpt><trkpt lat="43.30423535403028" lon="11.361979192545753"><ele>239.0</ele><time>2026-03-29T09:57:58.999Z</time></trkpt><trkpt lat="43.30412909417815" lon="11.362059260646147"><ele>237.0</ele><time>2026-03-29T09:57:59.999Z</time></trkpt><trkpt lat="43.30401815449011" lon="11.362147799386753"><ele>239.25</ele><time>2026-03-29T09:58:00.999Z</time></trkpt><trkpt lat="43.30391226649761" lon="11.362227123183859"><ele>241.5</ele><time>2026-03-29T09:58:01.999Z</time></trkpt><trkpt lat="43.303805677792695" lon="11.362321523144065"><ele>243.75</ele><time>2026-03-29T09:58:02.999Z</time></trkpt><trkpt lat="43.30370127903037" lon="11.362411753327523"><ele>246.0</ele><time>2026-03-29T09:58:03.999Z</time></trkpt><trkpt lat="43.303612366189675" lon="11.362500873695518"><ele>246.0</ele><time>2026-03-29T09:58:04.999Z</time></trkpt><trkpt lat="43.30352430210016" lon="11.362616574084404"><ele>246.0</ele><time>2026-03-29T09:58:05.999Z</time></trkpt><trkpt lat="43.30345790839765" lon="11.362736325351358"><ele>246.0</ele><time>2026-03-29T09:58:06.999Z</time></trkpt><trkpt lat="43.30341511485036" lon="11.362877883122827"><ele>246.0</ele><time>2026-03-29T09:58:07.999Z</time></trkpt><trkpt lat="43.303390895189864" lon="11.36304738722756"><ele>247.0</ele><time>2026-03-29T09:58:08.999Z</time></trkpt><trkpt lat="43.303378382122766" lon="11.363223239898476"><ele>248.00000000000003</ele><time>2026-03-29T09:58:09.999Z</time></trkpt><trkpt lat="43.30336454355417" lon="11.36339621512727"><ele>249.00000000000003</ele><time>2026-03-29T09:58:10.999Z</time></trkpt><trkpt lat="43.30334341643414" lon="11.36353367482675"><ele>250.0</ele><time>2026-03-29T09:58:11.999Z</time></trkpt><trkpt lat="43.30331288831684" lon="11.363639434163964"><ele>251.0</ele><time>2026-03-29T09:58:12.999Z</time></trkpt><trkpt lat="43.303281837648484" lon="11.36372839351327"><ele>251.00000000000003</ele><time>2026-03-29T09:58:13.999Z</time></trkpt><trkpt lat="43.30324418491975" lon="11.363817545895246"><ele>251.0</ele><time>2026-03-29T09:58:14.999Z</time></trkpt><trkpt lat="43.30318419924724" lon="11.363881457219154"><ele>251.0</ele><time>2026-03-29T09:58:15.999Z</time></trkpt><trkpt lat="43.30312356312192" lon="11.363911017153514"><ele>251.0</ele><time>2026-03-29T09:58:16.999Z</time></trkpt><trkpt lat="43.30305158423802" lon="11.363939485543785"><ele>251.00000000000003</ele><time>2026-03-29T09:58:17.999Z</time></trkpt><trkpt lat="43.30296578133077" lon="11.363957013511488"><ele>251.0</ele><time>2026-03-29T09:58:18.999Z</time></trkpt><trkpt lat="43.302859970567916" lon="11.363964125990417"><ele>251.4</ele><time>2026-03-29T09:58:19.999Z</time></trkpt><trkpt lat="43.30276197312522" lon="11.363957684167046"><ele>251.8</ele><time>2026-03-29T09:58:20.999Z</time></trkpt><trkpt lat="43.30267653288192" lon="11.363963207949237"><ele>252.20000000000002</ele><time>2026-03-29T09:58:21.999Z</time></trkpt><trkpt lat="43.30260054199703" lon="11.363968683678085"><ele>252.60000000000002</ele><time>2026-03-29T09:58:22.999Z</time></trkpt><trkpt lat="43.30250978451076" lon="11.363995187503376"><ele>253.0</ele><time>2026-03-29T09:58:23.999Z</time></trkpt><trkpt lat="43.30241730722522" lon="11.36404859484361"><ele>253.0</ele><time>2026-03-29T09:58:24.999Z</time></trkpt><trkpt lat="43.30230928397079" lon="11.364113482329666"><ele>253.0</ele><time>2026-03-29T09:58:25.999Z</time></trkpt><trkpt lat="43.30220212105294" lon="11.36417669009433"><ele>253.0</ele><time>2026-03-29T09:58:26.999Z</time></trkpt><trkpt lat="43.30211073636594" lon="11.36424470585823"><ele>253.0</ele><time>2026-03-29T09:58:27.999Z</time></trkpt><trkpt lat="43.30202989882278" lon="11.364311360362223"><ele>253.0</ele><time>2026-03-29T09:58:28.999Z</time></trkpt><trkpt lat="43.30196382208045" lon="11.364386210527567"><ele>251.0</ele><time>2026-03-29T09:58:29.999Z</time></trkpt><trkpt lat="43.30190574359883" lon="11.3644786016767"><ele>249.0</ele><time>2026-03-29T09:58:30.999Z</time></trkpt><trkpt lat="43.3018489300855" lon="11.36459143679748"><ele>247.0</ele><time>2026-03-29T09:58:31.999Z</time></trkpt><trkpt lat="43.301807120272734" lon="11.36472358712068"><ele>245.0</ele><time>2026-03-29T09:58:32.999Z</time></trkpt><trkpt lat="43.30176405756221" lon="11.364870203322237"><ele>243.0</ele><time>2026-03-29T09:58:34Z</time></trkpt><trkpt lat="43.30171596089258" lon="11.365002341289596"><ele>243.0</ele><time>2026-03-29T09:58:35Z</time></trkpt><trkpt lat="43.30165625851332" lon="11.365122391546828"><ele>243.0</ele><time>2026-03-29T09:58:36Z</time></trkpt><trkpt lat="43.30158443734437" lon="11.365215409999083"><ele>243.0</ele><time>2026-03-29T09:58:37Z</time></trkpt><trkpt lat="43.30150122562933" lon="11.36528770582109"><ele>243.0</ele><time>2026-03-29T09:58:38Z</time></trkpt><trkpt lat="43.30140519541986" lon="11.365357067095037"><ele>243.0</ele><time>2026-03-29T09:58:39Z</time></trkpt><trkpt lat="43.30129481234989" lon="11.365440235729732"><ele>242.60000000000002</ele><time>2026-03-29T09:58:40Z</time></trkpt><trkpt lat="43.30118767761098" lon="11.365491954054907"><ele>242.20000000000002</ele><time>2026-03-29T09:58:41Z</time></trkpt><trkpt lat="43.301094477723595" lon="11.365559614881397"><ele>241.8</ele><time>2026-03-29T09:58:42Z</time></trkpt><trkpt lat="43.30100369551237" lon="11.365611675665154"><ele>241.4</ele><time>2026-03-29T09:58:43Z</time></trkpt><trkpt lat="43.30091343988766" lon="11.365665494954724"><ele>241.0</ele><time>2026-03-29T09:58:44Z</time></trkpt><trkpt lat="43.30082318556064" lon="11.365702005437473"><ele>241.0</ele><time>2026-03-29T09:58:45Z</time></trkpt><trkpt lat="43.30071399258293" lon="11.365715667349221"><ele>241.00000000000003</ele><time>2026-03-29T09:58:46Z</time></trkpt><trkpt lat="43.300602272962884" lon="11.365717636854487"><ele>241.00000000000003</ele><time>2026-03-29T09:58:47Z</time></trkpt><trkpt lat="43.300492289393915" lon="11.365720815416402"><ele>241.0</ele><time>2026-03-29T09:58:48Z</time></trkpt><trkpt lat="43.30039823301826" lon="11.365714278591525"><ele>241.0</ele><time>2026-03-29T09:58:49Z</time></trkpt><trkpt lat="43.30030356872037" lon="11.365722831293079"><ele>241.75</ele><time>2026-03-29T09:58:50Z</time></trkpt><trkpt lat="43.30018937309858" lon="11.365742933288923"><ele>242.5</ele><time>2026-03-29T09:58:51Z</time></trkpt><trkpt lat="43.300092257873054" lon="11.36580220566147"><ele>243.25</ele><time>2026-03-29T09:58:52Z</time></trkpt><trkpt lat="43.299976273174046" lon="11.365862972559109"><ele>244.0</ele><time>2026-03-29T09:58:53Z</time></trkpt><trkpt lat="43.299883218911425" lon="11.365947981553168"><ele>244.0</ele><time>2026-03-29T09:58:54Z</time></trkpt><trkpt lat="43.29980218406402" lon="11.366032586807464"><ele>244.0</ele><time>2026-03-29T09:58:55Z</time></trkpt><trkpt lat="43.299719620254926" lon="11.366130342238774"><ele>244.0</ele><time>2026-03-29T09:58:56Z</time></trkpt><trkpt lat="43.29963355759853" lon="11.366241498811677"><ele>244.0</ele><time>2026-03-29T09:58:57Z</time></trkpt><trkpt lat="43.29955183055144" lon="11.366380234711823"><ele>242.25</ele><time>2026-03-29T09:58:58Z</time></trkpt><trkpt lat="43.29945825966791" lon="11.366469128738295"><ele>240.5</ele><time>2026-03-29T09:58:59Z</time></trkpt><trkpt lat="43.29937034687449" lon="11.366578756386845"><ele>238.75</ele><time>2026-03-29T09:59:00Z</time></trkpt><trkpt lat="43.29927756396265" lon="11.366695092618258"><ele>237.0</ele><time>2026-03-29T09:59:01Z</time></trkpt><trkpt lat="43.29918523792476" lon="11.366821326479064"><ele>237.0</ele><time>2026-03-29T09:59:02Z</time></trkpt><trkpt lat="43.29909669567579" lon="11.366968630825957"><ele>237.0</ele><time>2026-03-29T09:59:03Z</time></trkpt><trkpt lat="43.299026748578385" lon="11.367122651501543"><ele>237.0</ele><time>2026-03-29T09:59:04Z</time></trkpt><trkpt lat="43.29896587927607" lon="11.367270151024867"><ele>237.0</ele><time>2026-03-29T09:59:05Z</time></trkpt><trkpt lat="43.29891533625887" lon="11.367404974485227"><ele>236.6</ele><time>2026-03-29T09:59:06Z</time></trkpt><trkpt lat="43.29886579488667" lon="11.367538762066097"><ele>236.2</ele><time>2026-03-29T09:59:07Z</time></trkpt><trkpt lat="43.298817678310336" lon="11.367694341235957"><ele>235.8</ele><time>2026-03-29T09:59:08Z</time></trkpt><trkpt lat="43.29876634032346" lon="11.36782564934136"><ele>235.4</ele><time>2026-03-29T09:59:09Z</time></trkpt><trkpt lat="43.298712553432125" lon="11.367943652341514"><ele>235.0</ele><time>2026-03-29T09:59:10Z</time></trkpt><trkpt lat="43.2986603877628" lon="11.368061421576419"><ele>234.99999999999997</ele><time>2026-03-29T09:59:11Z</time></trkpt><trkpt lat="43.29860236106077" lon="11.368177097241183"><ele>235.0</ele><time>2026-03-29T09:59:12Z</time></trkpt><trkpt lat="43.29854023707296" lon="11.368273957025053"><ele>235.0</ele><time>2026-03-29T09:59:13Z</time></trkpt><trkpt lat="43.298474694031576" lon="11.368347188936061"><ele>235.0</ele><time>2026-03-29T09:59:14Z</time></trkpt><trkpt lat="43.2984017617112" lon="11.368379482393568"><ele>234.99999999999997</ele><time>2026-03-29T09:59:15Z</time></trkpt><trkpt lat="43.29832591622856" lon="11.368444132486697"><ele>235.0</ele><time>2026-03-29T09:59:16Z</time></trkpt><trkpt lat="43.29823062276799" lon="11.368474038850593"><ele>235.0</ele><time>2026-03-29T09:59:17Z</time></trkpt><trkpt lat="43.29813184440829" lon="11.368496738355008"><ele>235.0</ele><time>2026-03-29T09:59:18Z</time></trkpt><trkpt lat="43.29803749102114" lon="11.368516295467902"><ele>235.0</ele><time>2026-03-29T09:59:19Z</time></trkpt><trkpt lat="43.297952806087274" lon="11.368523275821978"><ele>235.0</ele><time>2026-03-29T09:59:20Z</time></trkpt><trkpt lat="43.297871316030374" lon="11.368505949793786"><ele>235.0</ele><time>2026-03-29T09:59:21Z</time></trkpt><trkpt lat="43.29778427442313" lon="11.368472797163918"><ele>235.75</ele><time>2026-03-29T09:59:22Z</time></trkpt><trkpt lat="43.29767987771401" lon="11.368421993435543"><ele>236.5</ele><time>2026-03-29T09:59:23Z</time></trkpt><trkpt lat="43.29757924889339" lon="11.368364270142878"><ele>237.25</ele><time>2026-03-29T09:59:24Z</time></trkpt><trkpt lat="43.29747261454559" lon="11.368300461853526"><ele>238.0</ele><time>2026-03-29T09:59:25Z</time></trkpt><trkpt lat="43.29736698898807" lon="11.368239133285432"><ele>238.0</ele><time>2026-03-29T09:59:26Z</time></trkpt><trkpt lat="43.2972598703373" lon="11.368191074624006"><ele>238.0</ele><time>2026-03-29T09:59:27Z</time></trkpt><trkpt lat="43.29714923342763" lon="11.36813801409329"><ele>238.0</ele><time>2026-03-29T09:59:28Z</time></trkpt><trkpt lat="43.297039897846616" lon="11.368081592893347"><ele>238.0</ele><time>2026-03-29T09:59:29Z</time></trkpt><trkpt lat="43.29692313760474" lon="11.36805927931677"><ele>237.4</ele><time>2026-03-29T09:59:30Z</time></trkpt><trkpt lat="43.29680705451164" lon="11.368035444559919"><ele>236.8</ele><time>2026-03-29T09:59:31Z</time></trkpt><trkpt lat="43.2966906701954" lon="11.368018234652034"><ele>236.2</ele><time>2026-03-29T09:59:32Z</time></trkpt><trkpt lat="43.29658648112593" lon="11.36802205484926"><ele>235.6</ele><time>2026-03-29T09:59:33Z</time></trkpt><trkpt lat="43.29650100619235" lon="11.36802330498508"><ele>235.0</ele><time>2026-03-29T09:59:34Z</time></trkpt><trkpt lat="43.29641237488255" lon="11.368038296104263"><ele>237.0</ele><time>2026-03-29T09:59:35Z</time></trkpt><trkpt lat="43.29632299315756" lon="11.368046110052989"><ele>239.0</ele><time>2026-03-29T09:59:36Z</time></trkpt><trkpt lat="43.296232840149614" lon="11.368062501876766"><ele>241.0</ele><time>2026-03-29T09:59:37Z</time></trkpt><trkpt lat="43.29612515847887" lon="11.368098471135209"><ele>243.0</ele><time>2026-03-29T09:59:37.999Z</time></trkpt><trkpt lat="43.29600423902123" lon="11.368149858458086"><ele>245.0</ele><time>2026-03-29T09:59:38.999Z</time></trkpt><trkpt lat="43.29590016676427" lon="11.368208231926134"><ele>245.00000000000003</ele><time>2026-03-29T09:59:39.999Z</time></trkpt><trkpt lat="43.29580621122025" lon="11.368238590722273"><ele>245.0</ele><time>2026-03-29T09:59:40.999Z</time></trkpt><trkpt lat="43.29572216421096" lon="11.368273636975609"><ele>245.0</ele><time>2026-03-29T09:59:41.999Z</time></trkpt><trkpt lat="43.295650585622006" lon="11.36828828786053"><ele>245.0</ele><time>2026-03-29T09:59:42.999Z</time></trkpt><trkpt lat="43.29557786746682" lon="11.368298086909185"><ele>245.00000000000003</ele><time>2026-03-29T09:59:43.999Z</time></trkpt><trkpt lat="43.29550366719086" lon="11.36831007477404"><ele>245.0</ele><time>2026-03-29T09:59:44.999Z</time></trkpt><trkpt lat="43.295427559655074" lon="11.368325790905384"><ele>243.6</ele><time>2026-03-29T09:59:45.999Z</time></trkpt><trkpt lat="43.29534696950323" lon="11.368354740205056"><ele>242.2</ele><time>2026-03-29T09:59:46.999Z</time></trkpt><trkpt lat="43.295259958930224" lon="11.368391591850218"><ele>240.8</ele><time>2026-03-29T09:59:47.999Z</time></trkpt><trkpt lat="43.29517398231906" lon="11.368436194210942"><ele>239.4</ele><time>2026-03-29T09:59:48.999Z</time></trkpt><trkpt lat="43.295093362806554" lon="11.36849289973212"><ele>238.0</ele><time>2026-03-29T09:59:49.999Z</time></trkpt><trkpt lat="43.295016711155945" lon="11.368575554380907"><ele>238.0</ele><time>2026-03-29T09:59:50.999Z</time></trkpt><trkpt lat="43.29494517271617" lon="11.368685334838279"><ele>238.0</ele><time>2026-03-29T09:59:51.999Z</time></trkpt><trkpt lat="43.29488142633285" lon="11.368822321562153"><ele>238.0</ele><time>2026-03-29T09:59:52.999Z</time></trkpt><trkpt lat="43.29482666568405" lon="11.368947521810773"><ele>238.0</ele><time>2026-03-29T09:59:53.999Z</time></trkpt><trkpt lat="43.294751075840395" lon="11.369034336878283"><ele>238.0</ele><time>2026-03-29T09:59:54.999Z</time></trkpt><trkpt lat="43.29467649522507" lon="11.369118774430456"><ele>236.4</ele><time>2026-03-29T09:59:55.999Z</time></trkpt><trkpt lat="43.29460198892796" lon="11.369187370488058"><ele>234.8</ele><time>2026-03-29T09:59:56.999Z</time></trkpt><trkpt lat="43.29452973191643" lon="11.369263710344352"><ele>233.2</ele><time>2026-03-29T09:59:57.999Z</time></trkpt><trkpt lat="43.294437089042944" lon="11.369325464396866"><ele>231.6</ele><time>2026-03-29T09:59:58.999Z</time></trkpt><trkpt lat="43.29434043183461" lon="11.369385825544954"><ele>230.0</ele><time>2026-03-29T09:59:59.999Z</time></trkpt><trkpt lat="43.294244884097715" lon="11.369450687870472"><ele>230.0</ele><time>2026-03-29T10:00:00.999Z</time></trkpt><trkpt lat="43.29414962489031" lon="11.369508945298607"><ele>230.0</ele><time>2026-03-29T10:00:01.999Z</time></trkpt><trkpt lat="43.29405168812216" lon="11.36956542233893"><ele>230.0</ele><time>2026-03-29T10:00:02.999Z</time></trkpt><trkpt lat="43.29394854484755" lon="11.369633873325364"><ele>230.0</ele><time>2026-03-29T10:00:03.999Z</time></trkpt><trkpt lat="43.293844997230664" lon="11.36970910153808"><ele>230.0</ele><time>2026-03-29T10:00:04.999Z</time></trkpt><trkpt lat="43.29374218124058" lon="11.369752518166704"><ele>229.0</ele><time>2026-03-29T10:00:05.999Z</time></trkpt><trkpt lat="43.29365134787384" lon="11.369826131355683"><ele>228.0</ele><time>2026-03-29T10:00:06.999Z</time></trkpt><trkpt lat="43.293548643195884" lon="11.369880013355314"><ele>227.0</ele><time>2026-03-29T10:00:07.999Z</time></trkpt><trkpt lat="43.293437338379405" lon="11.369925701280955"><ele>226.0</ele><time>2026-03-29T10:00:08.999Z</time></trkpt><trkpt lat="43.293329673589355" lon="11.369959630236695"><ele>225.0</ele><time>2026-03-29T10:00:09.999Z</time></trkpt><trkpt lat="43.29322602878626" lon="11.369996439825568"><ele>225.0</ele><time>2026-03-29T10:00:10.999Z</time></trkpt><trkpt lat="43.2931131485008" lon="11.370028405512587"><ele>225.0</ele><time>2026-03-29T10:00:11.999Z</time></trkpt><trkpt lat="43.29299461731076" lon="11.370048781665727"><ele>225.0</ele><time>2026-03-29T10:00:12.999Z</time></trkpt><trkpt lat="43.29288985315767" lon="11.370055888855891"><ele>225.0</ele><time>2026-03-29T10:00:13.999Z</time></trkpt><trkpt lat="43.29278963081338" lon="11.37006098214126"><ele>225.0</ele><time>2026-03-29T10:00:14.999Z</time></trkpt><trkpt lat="43.29268969441063" lon="11.370063339636479"><ele>224.6</ele><time>2026-03-29T10:00:15.999Z</time></trkpt><trkpt lat="43.29259094551511" lon="11.370057806742166"><ele>224.2</ele><time>2026-03-29T10:00:16.999Z</time></trkpt><trkpt lat="43.29248762914882" lon="11.370051794788683"><ele>223.8</ele><time>2026-03-29T10:00:17.999Z</time></trkpt><trkpt lat="43.29238688911986" lon="11.370046752832785"><ele>223.4</ele><time>2026-03-29T10:00:18.999Z</time></trkpt><trkpt lat="43.292290518430875" lon="11.370040720833806"><ele>223.0</ele><time>2026-03-29T10:00:19.999Z</time></trkpt><trkpt lat="43.292196097547105" lon="11.370045788143093"><ele>223.0</ele><time>2026-03-29T10:00:20.999Z</time></trkpt><trkpt lat="43.292107359225085" lon="11.370052374819752"><ele>223.0</ele><time>2026-03-29T10:00:21.999Z</time></trkpt><trkpt lat="43.29201178006778" lon="11.370062389080296"><ele>223.0</ele><time>2026-03-29T10:00:22.999Z</time></trkpt><trkpt lat="43.29190507717203" lon="11.370056112033016"><ele>223.0</ele><time>2026-03-29T10:00:23.999Z</time></trkpt><trkpt lat="43.29180356805763" lon="11.370102221914413"><ele>223.0</ele><time>2026-03-29T10:00:24.999Z</time></trkpt><trkpt lat="43.2916979435741" lon="11.370136167873719"><ele>223.0</ele><time>2026-03-29T10:00:25.999Z</time></trkpt><trkpt lat="43.291589835322206" lon="11.370181103232945"><ele>223.0</ele><time>2026-03-29T10:00:26.999Z</time></trkpt><trkpt lat="43.29148397793445" lon="11.370237721850705"><ele>223.0</ele><time>2026-03-29T10:00:27.999Z</time></trkpt><trkpt lat="43.291393042071014" lon="11.370293424564162"><ele>223.0</ele><time>2026-03-29T10:00:28.999Z</time></trkpt><trkpt lat="43.2913186649319" lon="11.370346651085121"><ele>223.0</ele><time>2026-03-29T10:00:29.999Z</time></trkpt><trkpt lat="43.291246476586714" lon="11.37040203037518"><ele>223.33333333333331</ele><time>2026-03-29T10:00:30.999Z</time></trkpt><trkpt lat="43.29116272402429" lon="11.370462326516698"><ele>223.66666666666666</ele><time>2026-03-29T10:00:31.999Z</time></trkpt><trkpt lat="43.29108218250272" lon="11.370522471115546"><ele>224.0</ele><time>2026-03-29T10:00:32.999Z</time></trkpt><trkpt lat="43.29101119128868" lon="11.37056739883196"><ele>224.33333333333331</ele><time>2026-03-29T10:00:33.999Z</time></trkpt><trkpt lat="43.2909307002753" lon="11.370596664469511"><ele>224.66666666666666</ele><time>2026-03-29T10:00:34.999Z</time></trkpt><trkpt lat="43.29083973370445" lon="11.370625739849727"><ele>225.0</ele><time>2026-03-29T10:00:35.999Z</time></trkpt><trkpt lat="43.29076428541244" lon="11.370654252568528"><ele>225.0</ele><time>2026-03-29T10:00:36.999Z</time></trkpt><trkpt lat="43.29068409022323" lon="11.370691545003393"><ele>225.0</ele><time>2026-03-29T10:00:37.999Z</time></trkpt><trkpt lat="43.29060813769546" lon="11.370753456936427"><ele>225.0</ele><time>2026-03-29T10:00:38.999Z</time></trkpt><trkpt lat="43.29053232647595" lon="11.370837322455799"><ele>225.0</ele><time>2026-03-29T10:00:40Z</time></trkpt><trkpt lat="43.29044965176256" lon="11.370929998182932"><ele>225.0</ele><time>2026-03-29T10:00:41Z</time></trkpt><trkpt lat="43.29040218990142" lon="11.371053976655935"><ele>225.0</ele><time>2026-03-29T10:00:42Z</time></trkpt><trkpt lat="43.290355025949154" lon="11.371151394544137"><ele>225.0</ele><time>2026-03-29T10:00:43Z</time></trkpt><trkpt lat="43.29030526214714" lon="11.371255593124753"><ele>225.0</ele><time>2026-03-29T10:00:44Z</time></trkpt><trkpt lat="43.29024032979001" lon="11.37134672499128"><ele>225.0</ele><time>2026-03-29T10:00:45Z</time></trkpt><trkpt lat="43.29016478237695" lon="11.371409132646528"><ele>225.0</ele><time>2026-03-29T10:00:46Z</time></trkpt><trkpt lat="43.290086935445025" lon="11.371458008930425"><ele>225.0</ele><time>2026-03-29T10:00:47Z</time></trkpt><trkpt lat="43.29001362069785" lon="11.371491115939826"><ele>225.0</ele><time>2026-03-29T10:00:48Z</time></trkpt><trkpt lat="43.289959520878874" lon="11.371541622433822"><ele>225.0</ele><time>2026-03-29T10:00:49Z</time></trkpt><trkpt lat="43.28990680609333" lon="11.371677000621036"><ele>225.0</ele><time>2026-03-29T10:00:51Z</time></trkpt><trkpt lat="43.289905064985895" lon="11.371838975355677"><ele>225.0</ele><time>2026-03-29T10:00:53Z</time></trkpt><trkpt lat="43.28989718031129" lon="11.371983795952866"><ele>225.0</ele><time>2026-03-29T10:00:55Z</time></trkpt><trkpt lat="43.28982304153234" lon="11.37210676409563"><ele>225.0</ele><time>2026-03-29T10:00:57Z</time></trkpt><trkpt lat="43.289763846859145" lon="11.372153403348804"><ele>225.0</ele><time>2026-03-29T10:00:58Z</time></trkpt><trkpt lat="43.28969215091542" lon="11.372171780962045"><ele>225.0</ele><time>2026-03-29T10:00:59Z</time></trkpt><trkpt lat="43.289627496047025" lon="11.372224859575715"><ele>225.0</ele><time>2026-03-29T10:01:00Z</time></trkpt><trkpt lat="43.28955387994786" lon="11.372264038501717"><ele>225.0</ele><time>2026-03-29T10:01:01Z</time></trkpt><trkpt lat="43.289476893333884" lon="11.372303814243661"><ele>225.0</ele><time>2026-03-29T10:01:02Z</time></trkpt><trkpt lat="43.2894064703578" lon="11.372340636815803"><ele>223.4</ele><time>2026-03-29T10:01:03Z</time></trkpt><trkpt lat="43.289292622572894" lon="11.372397993370852"><ele>221.8</ele><time>2026-03-29T10:01:05Z</time></trkpt><trkpt lat="43.289194488679364" lon="11.372462547011976"><ele>220.2</ele><time>2026-03-29T10:01:07Z</time></trkpt><trkpt lat="43.28912563347473" lon="11.37257790001102"><ele>218.6</ele><time>2026-03-29T10:01:09Z</time></trkpt><trkpt lat="43.28911069103217" lon="11.37266842584312"><ele>217.0</ele><time>2026-03-29T10:01:10Z</time></trkpt><trkpt lat="43.28910115327033" lon="11.372764316879575"><ele>216.99999999999997</ele><time>2026-03-29T10:01:11Z</time></trkpt><trkpt lat="43.28909261762222" lon="11.372872302197054"><ele>217.0</ele><time>2026-03-29T10:01:12Z</time></trkpt><trkpt lat="43.28908922508391" lon="11.372987312838257"><ele>217.0</ele><time>2026-03-29T10:01:13Z</time></trkpt><trkpt lat="43.28908827726091" lon="11.37309853717242"><ele>217.0</ele><time>2026-03-29T10:01:14Z</time></trkpt><trkpt lat="43.28908733536494" lon="11.373196562369554"><ele>216.99999999999997</ele><time>2026-03-29T10:01:15Z</time></trkpt><trkpt lat="43.2890801725129" lon="11.373288789918025"><ele>217.0</ele><time>2026-03-29T10:01:16Z</time></trkpt><trkpt lat="43.28907621068434" lon="11.373384500695748"><ele>216.0</ele><time>2026-03-29T10:01:17Z</time></trkpt><trkpt lat="43.289077219749544" lon="11.373472153643236"><ele>215.0</ele><time>2026-03-29T10:01:18Z</time></trkpt><trkpt lat="43.289073588481315" lon="11.373567992591754"><ele>214.0</ele><time>2026-03-29T10:01:19Z</time></trkpt><trkpt lat="43.28907420855191" lon="11.37366498012827"><ele>213.0</ele><time>2026-03-29T10:01:20Z</time></trkpt><trkpt lat="43.28907530434322" lon="11.37376936852131"><ele>212.0</ele><time>2026-03-29T10:01:21Z</time></trkpt><trkpt lat="43.28907995172729" lon="11.373879570541824"><ele>211.0</ele><time>2026-03-29T10:01:22Z</time></trkpt><trkpt lat="43.28908115479996" lon="11.373983988093467"><ele>210.0</ele><time>2026-03-29T10:01:23Z</time></trkpt><trkpt lat="43.28908966965023" lon="11.374096191896275"><ele>208.66666666666666</ele><time>2026-03-29T10:01:24Z</time></trkpt><trkpt lat="43.289097644421176" lon="11.374197240003284"><ele>207.33333333333331</ele><time>2026-03-29T10:01:25Z</time></trkpt><trkpt lat="43.28909701555974" lon="11.374303592988236"><ele>206.0</ele><time>2026-03-29T10:01:26Z</time></trkpt><trkpt lat="43.289103502374346" lon="11.374412287237453"><ele>204.66666666666666</ele><time>2026-03-29T10:01:27Z</time></trkpt><trkpt lat="43.2891060843486" lon="11.374527033737746"><ele>203.33333333333331</ele><time>2026-03-29T10:01:28Z</time></trkpt><trkpt lat="43.28910961860063" lon="11.374644703848022"><ele>202.0</ele><time>2026-03-29T10:01:29Z</time></trkpt><trkpt lat="43.28911078513616" lon="11.374767909326584"><ele>200.66666666666666</ele><time>2026-03-29T10:01:30Z</time></trkpt><trkpt lat="43.289113863808886" lon="11.374879036940019"><ele>199.33333333333331</ele><time>2026-03-29T10:01:31Z</time></trkpt><trkpt lat="43.28911899582408" lon="11.374991591740729"><ele>198.0</ele><time>2026-03-29T10:01:32Z</time></trkpt><trkpt lat="43.28912003463993" lon="11.375101536124792"><ele>196.66666666666669</ele><time>2026-03-29T10:01:33Z</time></trkpt><trkpt lat="43.289120825886116" lon="11.37521431877751"><ele>195.33333333333334</ele><time>2026-03-29T10:01:34Z</time></trkpt><trkpt lat="43.2891235193294" lon="11.375342457534687"><ele>194.0</ele><time>2026-03-29T10:01:35Z</time></trkpt><trkpt lat="43.289126830373135" lon="11.375464840844277"><ele>192.66666666666669</ele><time>2026-03-29T10:01:36Z</time></trkpt><trkpt lat="43.289129164518776" lon="11.375575571768916"><ele>191.33333333333334</ele><time>2026-03-29T10:01:37Z</time></trkpt><trkpt lat="43.289133772709484" lon="11.375694572602798"><ele>190.0</ele><time>2026-03-29T10:01:38Z</time></trkpt><trkpt lat="43.28913787705949" lon="11.375834511537427"><ele>188.66666666666669</ele><time>2026-03-29T10:01:39Z</time></trkpt><trkpt lat="43.28913860211107" lon="11.375951399928036"><ele>187.33333333333334</ele><time>2026-03-29T10:01:40Z</time></trkpt><trkpt lat="43.28914084630259" lon="11.376063824798164"><ele>186.0</ele><time>2026-03-29T10:01:41Z</time></trkpt><trkpt lat="43.289143797353404" lon="11.376179449650143"><ele>186.0</ele><time>2026-03-29T10:01:42Z</time></trkpt><trkpt lat="43.289149011238294" lon="11.376297087241008"><ele>186.0</ele><time>2026-03-29T10:01:43Z</time></trkpt><trkpt lat="43.28915729641438" lon="11.37643184798385"><ele>186.0</ele><time>2026-03-29T10:01:43.999Z</time></trkpt><trkpt lat="43.289166590417125" lon="11.376575357666955"><ele>186.0</ele><time>2026-03-29T10:01:44.999Z</time></trkpt><trkpt lat="43.289175673153125" lon="11.37673136860841"><ele>186.0</ele><time>2026-03-29T10:01:45.999Z</time></trkpt><trkpt lat="43.28919089102863" lon="11.376888990710572"><ele>185.8</ele><time>2026-03-29T10:01:46.999Z</time></trkpt><trkpt lat="43.28920873676282" lon="11.377057374419236"><ele>185.60000000000002</ele><time>2026-03-29T10:01:47.999Z</time></trkpt><trkpt lat="43.28922367065338" lon="11.377196675626344"><ele>185.4</ele><time>2026-03-29T10:01:48.999Z</time></trkpt><trkpt lat="43.28923041490707" lon="11.377331638989839"><ele>185.2</ele><time>2026-03-29T10:01:49.999Z</time></trkpt><trkpt lat="43.2892420324254" lon="11.377476056020678"><ele>185.0</ele><time>2026-03-29T10:01:50.999Z</time></trkpt><trkpt lat="43.28923498326868" lon="11.377618138237615"><ele>185.0</ele><time>2026-03-29T10:01:51.999Z</time></trkpt><trkpt lat="43.289224822586824" lon="11.377727715885287"><ele>185.0</ele><time>2026-03-29T10:01:52.999Z</time></trkpt><trkpt lat="43.28919321255915" lon="11.377830817167066"><ele>185.0</ele><time>2026-03-29T10:01:53.999Z</time></trkpt><trkpt lat="43.28912012911776" lon="11.377882061869636"><ele>185.0</ele><time>2026-03-29T10:01:54.999Z</time></trkpt><trkpt lat="43.28903863131989" lon="11.377895458024236"><ele>185.0</ele><time>2026-03-29T10:01:55.999Z</time></trkpt><trkpt lat="43.288953761235184" lon="11.377942897203756"><ele>185.0</ele><time>2026-03-29T10:01:56.999Z</time></trkpt><trkpt lat="43.28884420563275" lon="11.378004881955368"><ele>187.6</ele><time>2026-03-29T10:01:57.999Z</time></trkpt><trkpt lat="43.288730244442476" lon="11.378099560930771"><ele>190.2</ele><time>2026-03-29T10:01:58.999Z</time></trkpt><trkpt lat="43.288619988188714" lon="11.37814643238231"><ele>192.8</ele><time>2026-03-29T10:01:59.999Z</time></trkpt><trkpt lat="43.288544928983676" lon="11.378207343260215"><ele>195.4</ele><time>2026-03-29T10:02:00.999Z</time></trkpt><trkpt lat="43.28847250401556" lon="11.378260837079209"><ele>198.0</ele><time>2026-03-29T10:02:01.999Z</time></trkpt><trkpt lat="43.28836962079503" lon="11.378312193725955"><ele>198.0</ele><time>2026-03-29T10:02:02.999Z</time></trkpt><trkpt lat="43.28829130020237" lon="11.378403570347778"><ele>198.0</ele><time>2026-03-29T10:02:03.999Z</time></trkpt><trkpt lat="43.28820886346063" lon="11.37850535215537"><ele>198.0</ele><time>2026-03-29T10:02:04.999Z</time></trkpt><trkpt lat="43.288135730675386" lon="11.37860216471413"><ele>198.0</ele><time>2026-03-29T10:02:05.999Z</time></trkpt><trkpt lat="43.2880878121334" lon="11.378684494937955"><ele>198.0</ele><time>2026-03-29T10:02:06.999Z</time></trkpt><trkpt lat="43.28801887164618" lon="11.378820450796006"><ele>198.33333333333334</ele><time>2026-03-29T10:02:08.999Z</time></trkpt><trkpt lat="43.28799026908745" lon="11.378923126319252"><ele>198.66666666666669</ele><time>2026-03-29T10:02:09.999Z</time></trkpt><trkpt lat="43.28799139739967" lon="11.379033616564781"><ele>199.0</ele><time>2026-03-29T10:02:10.999Z</time></trkpt><trkpt lat="43.288000193302835" lon="11.37913390080529"><ele>199.33333333333334</ele><time>2026-03-29T10:02:11.999Z</time></trkpt><trkpt lat="43.288004248407944" lon="11.379241273842519"><ele>199.66666666666669</ele><time>2026-03-29T10:02:12.999Z</time></trkpt><trkpt lat="43.288009883129675" lon="11.379370573218207"><ele>200.0</ele><time>2026-03-29T10:02:14.999Z</time></trkpt><trkpt lat="43.287997348147215" lon="11.379470904007553"><ele>200.0</ele><time>2026-03-29T10:02:17.999Z</time></trkpt><trkpt lat="43.28789589313162" lon="11.379572275759429"><ele>200.0</ele><time>2026-03-29T10:02:20.999Z</time></trkpt><trkpt lat="43.28778132279817" lon="11.379613393955886"><ele>200.0</ele><time>2026-03-29T10:02:21.999Z</time></trkpt><trkpt lat="43.287670684702896" lon="11.379669142429194"><ele>200.0</ele><time>2026-03-29T10:02:22.999Z</time></trkpt><trkpt lat="43.28755678686304" lon="11.37972630876474"><ele>199.5</ele><time>2026-03-29T10:02:23.999Z</time></trkpt><trkpt lat="43.28745190416858" lon="11.379780563950927"><ele>199.0</ele><time>2026-03-29T10:02:24.999Z</time></trkpt><trkpt lat="43.287340202383845" lon="11.379823142613116"><ele>198.5</ele><time>2026-03-29T10:02:25.999Z</time></trkpt><trkpt lat="43.28721867825552" lon="11.379861226510254"><ele>198.0</ele><time>2026-03-29T10:02:26.999Z</time></trkpt><trkpt lat="43.28709391367459" lon="11.379858389078159"><ele>197.25</ele><time>2026-03-29T10:02:27.999Z</time></trkpt><trkpt lat="43.286960445071074" lon="11.379849698163142"><ele>196.5</ele><time>2026-03-29T10:02:28.999Z</time></trkpt><trkpt lat="43.286826867861386" lon="11.379831386320202"><ele>195.75</ele><time>2026-03-29T10:02:29.999Z</time></trkpt><trkpt lat="43.28668977000884" lon="11.379797715944264"><ele>195.0</ele><time>2026-03-29T10:02:30.999Z</time></trkpt><trkpt lat="43.28655971592141" lon="11.379759984251773"><ele>195.0</ele><time>2026-03-29T10:02:31.999Z</time></trkpt><trkpt lat="43.286431603607525" lon="11.379709894844096"><ele>195.0</ele><time>2026-03-29T10:02:32.999Z</time></trkpt><trkpt lat="43.28630143925448" lon="11.37965156837797"><ele>195.0</ele><time>2026-03-29T10:02:33.999Z</time></trkpt><trkpt lat="43.28617451992596" lon="11.379582328387452"><ele>195.0</ele><time>2026-03-29T10:02:34.999Z</time></trkpt><trkpt lat="43.286058323760145" lon="11.37950290961182"><ele>195.5</ele><time>2026-03-29T10:02:35.999Z</time></trkpt><trkpt lat="43.28595631022073" lon="11.379427760294789"><ele>196.0</ele><time>2026-03-29T10:02:36.999Z</time></trkpt><trkpt lat="43.28586027551464" lon="11.37935783695693"><ele>196.5</ele><time>2026-03-29T10:02:37.999Z</time></trkpt><trkpt lat="43.285755042036556" lon="11.379281194641864"><ele>197.0</ele><time>2026-03-29T10:02:38.999Z</time></trkpt><trkpt lat="43.28563901946099" lon="11.379197517428585"><ele>196.25</ele><time>2026-03-29T10:02:39.999Z</time></trkpt><trkpt lat="43.28553353892127" lon="11.379130029281256"><ele>195.5</ele><time>2026-03-29T10:02:40.999Z</time></trkpt><trkpt lat="43.285417916044175" lon="11.379069977466337"><ele>194.75</ele><time>2026-03-29T10:02:41.999Z</time></trkpt><trkpt lat="43.28528810034275" lon="11.379030229999037"><ele>194.0</ele><time>2026-03-29T10:02:42.999Z</time></trkpt><trkpt lat="43.28514439871244" lon="11.379001421805564"><ele>194.0</ele><time>2026-03-29T10:02:43.999Z</time></trkpt><trkpt lat="43.28499569738351" lon="11.378989679159824"><ele>194.0</ele><time>2026-03-29T10:02:44.999Z</time></trkpt><trkpt lat="43.28486915099676" lon="11.378976741287039"><ele>194.0</ele><time>2026-03-29T10:02:46Z</time></trkpt><trkpt lat="43.284746379890755" lon="11.378967155856618"><ele>194.0</ele><time>2026-03-29T10:02:47Z</time></trkpt><trkpt lat="43.28463079921527" lon="11.378960493256756"><ele>193.75</ele><time>2026-03-29T10:02:48Z</time></trkpt><trkpt lat="43.28451935097702" lon="11.378940450547798"><ele>193.5</ele><time>2026-03-29T10:02:49Z</time></trkpt><trkpt lat="43.2843926934657" lon="11.378915139974298"><ele>193.25</ele><time>2026-03-29T10:02:50Z</time></trkpt><trkpt lat="43.284271222600324" lon="11.378881104645426"><ele>193.0</ele><time>2026-03-29T10:02:51Z</time></trkpt><trkpt lat="43.28415883111359" lon="11.378809852093163"><ele>191.5</ele><time>2026-03-29T10:02:52Z</time></trkpt><trkpt lat="43.284070646037925" lon="11.378713701785662"><ele>190.0</ele><time>2026-03-29T10:02:53Z</time></trkpt><trkpt lat="43.28400526086868" lon="11.378590355339552"><ele>188.5</ele><time>2026-03-29T10:02:54Z</time></trkpt><trkpt lat="43.283926522467176" lon="11.378425220884305"><ele>187.0</ele><time>2026-03-29T10:02:55Z</time></trkpt><trkpt lat="43.28387026495462" lon="11.378266155469754"><ele>185.5</ele><time>2026-03-29T10:02:56Z</time></trkpt><trkpt lat="43.283800455056316" lon="11.378119017662346"><ele>184.0</ele><time>2026-03-29T10:02:57Z</time></trkpt><trkpt lat="43.28370974269518" lon="11.377993247201482"><ele>182.5</ele><time>2026-03-29T10:02:58Z</time></trkpt><trkpt lat="43.28359436250261" lon="11.377899367182664"><ele>181.0</ele><time>2026-03-29T10:02:59Z</time></trkpt><trkpt lat="43.28347509524139" lon="11.377830614797965"><ele>180.5</ele><time>2026-03-29T10:03:00Z</time></trkpt><trkpt lat="43.28333314694877" lon="11.377776469362487"><ele>180.0</ele><time>2026-03-29T10:03:01Z</time></trkpt><trkpt lat="43.28318926085498" lon="11.37776585567781"><ele>179.5</ele><time>2026-03-29T10:03:02Z</time></trkpt><trkpt lat="43.28303620298765" lon="11.377792461075458"><ele>179.0</ele><time>2026-03-29T10:03:03Z</time></trkpt><trkpt lat="43.28291176089846" lon="11.37783124104951"><ele>178.66666666666666</ele><time>2026-03-29T10:03:04Z</time></trkpt><trkpt lat="43.282836492137235" lon="11.377868774685654"><ele>178.33333333333334</ele><time>2026-03-29T10:03:05Z</time></trkpt><trkpt lat="43.28251849062616" lon="11.37795798697997"><ele>178.0</ele><time>2026-03-29T10:03:07Z</time></trkpt><trkpt lat="43.28240427049395" lon="11.37792330033733"><ele>178.0</ele><time>2026-03-29T10:03:08Z</time></trkpt><trkpt lat="43.28229093805446" lon="11.377874848703991"><ele>178.0</ele><time>2026-03-29T10:03:09Z</time></trkpt><trkpt lat="43.28219188342822" lon="11.377778654411104"><ele>178.0</ele><time>2026-03-29T10:03:10Z</time></trkpt><trkpt lat="43.28210519806453" lon="11.377662750292076"><ele>178.0</ele><time>2026-03-29T10:03:11Z</time></trkpt><trkpt lat="43.28204679361663" lon="11.377542720287954"><ele>177.8</ele><time>2026-03-29T10:03:12Z</time></trkpt><trkpt lat="43.28200300109581" lon="11.37741248643221"><ele>177.60000000000002</ele><time>2026-03-29T10:03:13Z</time></trkpt><trkpt lat="43.2819667034273" lon="11.377264213745086"><ele>177.39999999999998</ele><time>2026-03-29T10:03:14Z</time></trkpt><trkpt lat="43.28192944124747" lon="11.377110583596519"><ele>177.2</ele><time>2026-03-29T10:03:15Z</time></trkpt><trkpt lat="43.28189785083426" lon="11.376985976795792"><ele>177.0</ele><time>2026-03-29T10:03:16Z</time></trkpt><trkpt lat="43.28187076072487" lon="11.376874993303042"><ele>177.0</ele><time>2026-03-29T10:03:17Z</time></trkpt><trkpt lat="43.28184675641038" lon="11.376776370289644"><ele>177.0</ele><time>2026-03-29T10:03:18Z</time></trkpt><trkpt lat="43.28183139422972" lon="11.37668072139886"><ele>177.0</ele><time>2026-03-29T10:03:19Z</time></trkpt><trkpt lat="43.28186030032893" lon="11.376579482292811"><ele>177.0</ele><time>2026-03-29T10:03:20Z</time></trkpt><trkpt lat="43.2819179843679" lon="11.37647482847421"><ele>177.0</ele><time>2026-03-29T10:03:21Z</time></trkpt><trkpt lat="43.281962286358876" lon="11.376359045714167"><ele>177.0</ele><time>2026-03-29T10:03:22Z</time></trkpt><trkpt lat="43.28196286214238" lon="11.376214003192034"><ele>177.0</ele><time>2026-03-29T10:03:23Z</time></trkpt><trkpt lat="43.28191916431137" lon="11.37607880935596"><ele>177.0</ele><time>2026-03-29T10:03:24Z</time></trkpt><trkpt lat="43.28184269833443" lon="11.375990774004046"><ele>177.0</ele><time>2026-03-29T10:03:25Z</time></trkpt><trkpt lat="43.28174291650365" lon="11.375930689392614"><ele>177.0</ele><time>2026-03-29T10:03:26Z</time></trkpt><trkpt lat="43.28163811295492" lon="11.375835231188606"><ele>177.0</ele><time>2026-03-29T10:03:27Z</time></trkpt><trkpt lat="43.281552073824535" lon="11.375729281762487"><ele>178.66666666666666</ele><time>2026-03-29T10:03:28Z</time></trkpt><trkpt lat="43.28156264772359" lon="11.37551314573729"><ele>180.33333333333331</ele><time>2026-03-29T10:03:29Z</time></trkpt><trkpt lat="43.281540738318974" lon="11.375294704942387"><ele>182.0</ele><time>2026-03-29T10:03:30Z</time></trkpt><trkpt lat="43.28154111550728" lon="11.375053012867284"><ele>182.0</ele><time>2026-03-29T10:03:31Z</time></trkpt><trkpt lat="43.28154519330371" lon="11.374873296268456"><ele>182.0</ele><time>2026-03-29T10:03:32Z</time></trkpt><trkpt lat="43.281584690665134" lon="11.374687794390589"><ele>182.0</ele><time>2026-03-29T10:03:33Z</time></trkpt><trkpt lat="43.281647903051756" lon="11.374483884744404"><ele>182.0</ele><time>2026-03-29T10:03:34Z</time></trkpt><trkpt lat="43.28173344329771" lon="11.374278811676048"><ele>183.75</ele><time>2026-03-29T10:03:35Z</time></trkpt><trkpt lat="43.28181767431615" lon="11.374108028541604"><ele>185.5</ele><time>2026-03-29T10:03:36Z</time></trkpt><trkpt lat="43.281898484352695" lon="11.373965072971126"><ele>187.25</ele><time>2026-03-29T10:03:37Z</time></trkpt><trkpt lat="43.28197147243875" lon="11.373832837989884"><ele>189.0</ele><time>2026-03-29T10:03:38Z</time></trkpt><trkpt lat="43.2820467309313" lon="11.373686074553973"><ele>190.33333333333331</ele><time>2026-03-29T10:03:39Z</time></trkpt><trkpt lat="43.282121602897256" lon="11.373520996167384"><ele>191.66666666666666</ele><time>2026-03-29T10:03:40Z</time></trkpt><trkpt lat="43.28218454791665" lon="11.373332841692074"><ele>193.0</ele><time>2026-03-29T10:03:41Z</time></trkpt><trkpt lat="43.28222705518751" lon="11.373120314797461"><ele>193.66666666666666</ele><time>2026-03-29T10:03:42Z</time></trkpt><trkpt lat="43.28225663738239" lon="11.37289336423635"><ele>194.33333333333331</ele><time>2026-03-29T10:03:43Z</time></trkpt><trkpt lat="43.2822699467268" lon="11.372655534510265"><ele>195.0</ele><time>2026-03-29T10:03:44Z</time></trkpt><trkpt lat="43.28228614427094" lon="11.372387083413086"><ele>196.33333333333331</ele><time>2026-03-29T10:03:45Z</time></trkpt><trkpt lat="43.28230999497078" lon="11.372105870987603"><ele>197.66666666666666</ele><time>2026-03-29T10:03:46Z</time></trkpt><trkpt lat="43.2823349062548" lon="11.37180568112194"><ele>199.0</ele><time>2026-03-29T10:03:47Z</time></trkpt><trkpt lat="43.28236056580045" lon="11.371504142916558"><ele>199.66666666666666</ele><time>2026-03-29T10:03:48Z</time></trkpt><trkpt lat="43.28238066345004" lon="11.37123602861185"><ele>200.33333333333331</ele><time>2026-03-29T10:03:49Z</time></trkpt><trkpt lat="43.28240528878514" lon="11.370964578722308"><ele>201.0</ele><time>2026-03-29T10:03:49.999Z</time></trkpt><trkpt lat="43.28244137979222" lon="11.37067924833103"><ele>202.33333333333331</ele><time>2026-03-29T10:03:50.999Z</time></trkpt><trkpt lat="43.28251681266256" lon="11.370404200220253"><ele>203.66666666666666</ele><time>2026-03-29T10:03:51.999Z</time></trkpt><trkpt lat="43.28258899433653" lon="11.37011433687656"><ele>205.0</ele><time>2026-03-29T10:03:52.999Z</time></trkpt><trkpt lat="43.282689949205555" lon="11.369856689185216"><ele>204.66666666666666</ele><time>2026-03-29T10:03:53.999Z</time></trkpt><trkpt lat="43.28279659426335" lon="11.36962275461164"><ele>204.33333333333331</ele><time>2026-03-29T10:03:54.999Z</time></trkpt><trkpt lat="43.282920927743326" lon="11.369383937049767"><ele>204.0</ele><time>2026-03-29T10:03:55.999Z</time></trkpt><trkpt lat="43.2830465190731" lon="11.369152369399393"><ele>205.0</ele><time>2026-03-29T10:03:56.999Z</time></trkpt><trkpt lat="43.283149657333155" lon="11.368950883885864"><ele>206.0</ele><time>2026-03-29T10:03:57.999Z</time></trkpt><trkpt lat="43.28324017683709" lon="11.368765765082683"><ele>207.0</ele><time>2026-03-29T10:03:58.999Z</time></trkpt><trkpt lat="43.28332053052656" lon="11.368585643971093"><ele>207.33333333333331</ele><time>2026-03-29T10:03:59.999Z</time></trkpt><trkpt lat="43.2833864480793" lon="11.368388142230875"><ele>207.66666666666666</ele><time>2026-03-29T10:04:00.999Z</time></trkpt><trkpt lat="43.283441190374326" lon="11.368150084295742"><ele>208.0</ele><time>2026-03-29T10:04:01.999Z</time></trkpt><trkpt lat="43.28347734462633" lon="11.367894617106337"><ele>208.0</ele><time>2026-03-29T10:04:02.999Z</time></trkpt><trkpt lat="43.28348038841767" lon="11.367658090896771"><ele>208.0</ele><time>2026-03-29T10:04:03.999Z</time></trkpt><trkpt lat="43.28347931048078" lon="11.36742939209397"><ele>208.0</ele><time>2026-03-29T10:04:04.999Z</time></trkpt><trkpt lat="43.2834446891296" lon="11.367191940048135"><ele>209.0</ele><time>2026-03-29T10:04:05.999Z</time></trkpt><trkpt lat="43.28338933983986" lon="11.366942430304544"><ele>210.0</ele><time>2026-03-29T10:04:06.999Z</time></trkpt><trkpt lat="43.28330187952954" lon="11.36669933338416"><ele>211.0</ele><time>2026-03-29T10:04:07.999Z</time></trkpt><trkpt lat="43.28319430568547" lon="11.36647187537456"><ele>212.33333333333331</ele><time>2026-03-29T10:04:08.999Z</time></trkpt><trkpt lat="43.283075971918834" lon="11.366254587796302"><ele>213.66666666666669</ele><time>2026-03-29T10:04:09.999Z</time></trkpt><trkpt lat="43.28294540200615" lon="11.366089794346346"><ele>215.0</ele><time>2026-03-29T10:04:10.999Z</time></trkpt><trkpt lat="43.28279464208294" lon="11.365930953366048"><ele>215.0</ele><time>2026-03-29T10:04:11.999Z</time></trkpt><trkpt lat="43.28263568381436" lon="11.365781550845796"><ele>215.0</ele><time>2026-03-29T10:04:12.999Z</time></trkpt><trkpt lat="43.28250694491839" lon="11.365618894132854"><ele>215.0</ele><time>2026-03-29T10:04:13.999Z</time></trkpt><trkpt lat="43.28238688959612" lon="11.365480545953128"><ele>215.0</ele><time>2026-03-29T10:04:14.999Z</time></trkpt><trkpt lat="43.28228894720252" lon="11.365334560281736"><ele>215.0</ele><time>2026-03-29T10:04:15.999Z</time></trkpt><trkpt lat="43.28222158473235" lon="11.365154347262234"><ele>215.0</ele><time>2026-03-29T10:04:16.999Z</time></trkpt><trkpt lat="43.28217409360248" lon="11.364951508456613"><ele>215.0</ele><time>2026-03-29T10:04:17.999Z</time></trkpt><trkpt lat="43.28216098025743" lon="11.364737014235775"><ele>213.66666666666669</ele><time>2026-03-29T10:04:18.999Z</time></trkpt><trkpt lat="43.2821753782251" lon="11.364508981587436"><ele>212.33333333333331</ele><time>2026-03-29T10:04:19.999Z</time></trkpt><trkpt lat="43.282207677865" lon="11.364262389511367"><ele>211.0</ele><time>2026-03-29T10:04:20.999Z</time></trkpt><trkpt lat="43.2822489084972" lon="11.364029607892382"><ele>214.0</ele><time>2026-03-29T10:04:21.999Z</time></trkpt><trkpt lat="43.28230750379452" lon="11.363831161299277"><ele>217.0</ele><time>2026-03-29T10:04:22.999Z</time></trkpt><trkpt lat="43.28239080959865" lon="11.363610831937537"><ele>220.0</ele><time>2026-03-29T10:04:23.999Z</time></trkpt><trkpt lat="43.28248835298591" lon="11.36338340068948"><ele>220.0</ele><time>2026-03-29T10:04:24.999Z</time></trkpt><trkpt lat="43.282585609319305" lon="11.363152290327875"><ele>220.0</ele><time>2026-03-29T10:04:25.999Z</time></trkpt><trkpt lat="43.282706978446235" lon="11.362922802026915"><ele>220.0</ele><time>2026-03-29T10:04:26.999Z</time></trkpt><trkpt lat="43.28284116509175" lon="11.362680352925565"><ele>222.0</ele><time>2026-03-29T10:04:27.999Z</time></trkpt><trkpt lat="43.28295947499914" lon="11.362441880343763"><ele>224.0</ele><time>2026-03-29T10:04:28.999Z</time></trkpt><trkpt lat="43.283051463552965" lon="11.362220895619586"><ele>226.0</ele><time>2026-03-29T10:04:29.999Z</time></trkpt><trkpt lat="43.28312678330306" lon="11.362015046476047"><ele>226.0</ele><time>2026-03-29T10:04:30.999Z</time></trkpt><trkpt lat="43.283196127576964" lon="11.361817281231415"><ele>226.0</ele><time>2026-03-29T10:04:31.999Z</time></trkpt><trkpt lat="43.28325063427284" lon="11.361634757933858"><ele>226.0</ele><time>2026-03-29T10:04:32.999Z</time></trkpt><trkpt lat="43.28330059733877" lon="11.361431821470472"><ele>225.0</ele><time>2026-03-29T10:04:33.999Z</time></trkpt><trkpt lat="43.283337997559585" lon="11.36119748395204"><ele>224.0</ele><time>2026-03-29T10:04:34.999Z</time></trkpt><trkpt lat="43.28337700476991" lon="11.360948343610831"><ele>223.0</ele><time>2026-03-29T10:04:35.999Z</time></trkpt><trkpt lat="43.28342574374645" lon="11.360693068359843"><ele>221.0</ele><time>2026-03-29T10:04:36.999Z</time></trkpt><trkpt lat="43.28348588706457" lon="11.360437357009756"><ele>219.0</ele><time>2026-03-29T10:04:37.999Z</time></trkpt><trkpt lat="43.2835679342565" lon="11.360168220378348"><ele>217.0</ele><time>2026-03-29T10:04:38.999Z</time></trkpt><trkpt lat="43.283658943067536" lon="11.359905822633818"><ele>216.33333333333331</ele><time>2026-03-29T10:04:39.999Z</time></trkpt><trkpt lat="43.28373195131943" lon="11.359638810162467"><ele>215.66666666666669</ele><time>2026-03-29T10:04:40.999Z</time></trkpt><trkpt lat="43.28380111357589" lon="11.359399716499892"><ele>215.0</ele><time>2026-03-29T10:04:41.999Z</time></trkpt><trkpt lat="43.28386256268216" lon="11.35917342401994"><ele>215.0</ele><time>2026-03-29T10:04:42.999Z</time></trkpt><trkpt lat="43.28392256234584" lon="11.358953769835182"><ele>215.0</ele><time>2026-03-29T10:04:43.999Z</time></trkpt><trkpt lat="43.28399244056259" lon="11.358716558473445"><ele>215.0</ele><time>2026-03-29T10:04:44.999Z</time></trkpt><trkpt lat="43.2840582854399" lon="11.358477939189523"><ele>219.33333333333334</ele><time>2026-03-29T10:04:45.999Z</time></trkpt><trkpt lat="43.28411250838707" lon="11.358262728546743"><ele>223.66666666666669</ele><time>2026-03-29T10:04:46.999Z</time></trkpt><trkpt lat="43.28416289373944" lon="11.358053265641379"><ele>228.0</ele><time>2026-03-29T10:04:47.999Z</time></trkpt><trkpt lat="43.28420684541371" lon="11.357829461910661"><ele>228.0</ele><time>2026-03-29T10:04:48.999Z</time></trkpt><trkpt lat="43.2842488516765" lon="11.357589001422845"><ele>228.0</ele><time>2026-03-29T10:04:49.999Z</time></trkpt><trkpt lat="43.28429892867617" lon="11.357337975873245"><ele>228.0</ele><time>2026-03-29T10:04:50.999Z</time></trkpt><trkpt lat="43.28435980243927" lon="11.357090204715368"><ele>227.66666666666669</ele><time>2026-03-29T10:04:52Z</time></trkpt><trkpt lat="43.284435191794415" lon="11.356829409751056"><ele>227.33333333333334</ele><time>2026-03-29T10:04:53Z</time></trkpt><trkpt lat="43.28451664075264" lon="11.35656478679475"><ele>227.0</ele><time>2026-03-29T10:04:54Z</time></trkpt><trkpt lat="43.2845963638576" lon="11.356323689697449"><ele>226.66666666666669</ele><time>2026-03-29T10:04:55Z</time></trkpt><trkpt lat="43.28466514344099" lon="11.356116068105612"><ele>226.33333333333331</ele><time>2026-03-29T10:04:56Z</time></trkpt><trkpt lat="43.28473804314408" lon="11.355915777058202"><ele>226.0</ele><time>2026-03-29T10:04:57Z</time></trkpt><trkpt lat="43.28479916605207" lon="11.35574650210632"><ele>228.5</ele><time>2026-03-29T10:04:58Z</time></trkpt><trkpt lat="43.28486088756892" lon="11.355589346103962"><ele>231.0</ele><time>2026-03-29T10:04:59Z</time></trkpt><trkpt lat="43.2849244231007" lon="11.355414540418714"><ele>233.5</ele><time>2026-03-29T10:05:00Z</time></trkpt><trkpt lat="43.28499024405944" lon="11.355230562687115"><ele>236.0</ele><time>2026-03-29T10:05:01Z</time></trkpt><trkpt lat="43.285043750323574" lon="11.355067214604787"><ele>236.0</ele><time>2026-03-29T10:05:02Z</time></trkpt><trkpt lat="43.28508399457764" lon="11.354911981370432"><ele>236.0</ele><time>2026-03-29T10:05:03Z</time></trkpt><trkpt lat="43.28509617719256" lon="11.3547594089525"><ele>236.0</ele><time>2026-03-29T10:05:04Z</time></trkpt><trkpt lat="43.285088704881346" lon="11.35461038433501"><ele>236.0</ele><time>2026-03-29T10:05:05Z</time></trkpt><trkpt lat="43.28505768075896" lon="11.35446358043051"><ele>236.4</ele><time>2026-03-29T10:05:06Z</time></trkpt><trkpt lat="43.28500768688525" lon="11.354319398329192"><ele>236.8</ele><time>2026-03-29T10:05:07Z</time></trkpt><trkpt lat="43.28494681231457" lon="11.35417883371333"><ele>237.20000000000002</ele><time>2026-03-29T10:05:08Z</time></trkpt><trkpt lat="43.28487591698087" lon="11.35408023028071"><ele>237.60000000000002</ele><time>2026-03-29T10:05:09Z</time></trkpt><trkpt lat="43.28480371935402" lon="11.353991384168065"><ele>238.0</ele><time>2026-03-29T10:05:10Z</time></trkpt><trkpt lat="43.28473160941838" lon="11.353894932541555"><ele>237.66666666666666</ele><time>2026-03-29T10:05:11Z</time></trkpt><trkpt lat="43.284663832909395" lon="11.353789610196962"><ele>237.33333333333331</ele><time>2026-03-29T10:05:12Z</time></trkpt><trkpt lat="43.28460921054418" lon="11.353707980514978"><ele>237.0</ele><time>2026-03-29T10:05:13Z</time></trkpt><trkpt lat="43.2845822491058" lon="11.353619500621406"><ele>236.66666666666669</ele><time>2026-03-29T10:05:14Z</time></trkpt><trkpt lat="43.2844974194491" lon="11.353497677186192"><ele>236.33333333333334</ele><time>2026-03-29T10:05:16Z</time></trkpt><trkpt lat="43.284464769817745" lon="11.353410636312928"><ele>236.0</ele><time>2026-03-29T10:05:19Z</time></trkpt><trkpt lat="43.28441557893071" lon="11.353343335280696"><ele>236.0</ele><time>2026-03-29T10:05:23Z</time></trkpt><trkpt lat="43.28432849396002" lon="11.353302722089389"><ele>236.00000000000003</ele><time>2026-03-29T10:06:12.999Z</time></trkpt><trkpt lat="43.28422087001248" lon="11.353391711032497"><ele>236.00000000000003</ele><time>2026-03-29T10:06:13.999Z</time></trkpt><trkpt lat="43.28413699200048" lon="11.3534497757309"><ele>236.0</ele><time>2026-03-29T10:06:14.999Z</time></trkpt><trkpt lat="43.284043803658065" lon="11.353503988704276"><ele>236.0</ele><time>2026-03-29T10:06:15.999Z</time></trkpt><trkpt lat="43.28392554256009" lon="11.353560105497284"><ele>236.5</ele><time>2026-03-29T10:06:16.999Z</time></trkpt><trkpt lat="43.283800459492994" lon="11.353608788723289"><ele>237.0</ele><time>2026-03-29T10:06:17.999Z</time></trkpt><trkpt lat="43.28366275897841" lon="11.353646757794083"><ele>237.5</ele><time>2026-03-29T10:06:18.999Z</time></trkpt><trkpt lat="43.28350879886382" lon="11.353667824645667"><ele>238.0</ele><time>2026-03-29T10:06:19.999Z</time></trkpt><trkpt lat="43.283339687289065" lon="11.353682692807274"><ele>238.0</ele><time>2026-03-29T10:06:20.999Z</time></trkpt><trkpt lat="43.28318635812054" lon="11.353668221882115"><ele>238.0</ele><time>2026-03-29T10:06:21.999Z</time></trkpt><trkpt lat="43.28301272737012" lon="11.353642210949591"><ele>238.0</ele><time>2026-03-29T10:06:22.999Z</time></trkpt><trkpt lat="43.282806851512824" lon="11.353604779762277"><ele>238.0</ele><time>2026-03-29T10:06:23.999Z</time></trkpt><trkpt lat="43.282586397354024" lon="11.353546334693112"><ele>238.0</ele><time>2026-03-29T10:06:24.999Z</time></trkpt><trkpt lat="43.28248713131872" lon="11.353526042940846"><ele>238.0</ele><time>2026-03-29T10:06:26.999Z</time></trkpt><trkpt lat="43.28233993132714" lon="11.353488154992144"><ele>238.0</ele><time>2026-03-29T10:06:27.999Z</time></trkpt><trkpt lat="43.282188924597826" lon="11.353453265117322"><ele>238.0</ele><time>2026-03-29T10:06:28.999Z</time></trkpt><trkpt lat="43.28203745602228" lon="11.353417915631153"><ele>238.0</ele><time>2026-03-29T10:06:29.999Z</time></trkpt><trkpt lat="43.281894900766424" lon="11.353387207463054"><ele>238.0</ele><time>2026-03-29T10:06:30.999Z</time></trkpt><trkpt lat="43.28177082213646" lon="11.35336258690655"><ele>238.0</ele><time>2026-03-29T10:06:31.999Z</time></trkpt><trkpt lat="43.281637834232576" lon="11.353331646189018"><ele>238.0</ele><time>2026-03-29T10:06:32.999Z</time></trkpt><trkpt lat="43.281489191802855" lon="11.353292793629748"><ele>238.0</ele><time>2026-03-29T10:06:33.999Z</time></trkpt><trkpt lat="43.28132999667909" lon="11.353253265928458"><ele>238.0</ele><time>2026-03-29T10:06:34.999Z</time></trkpt><trkpt lat="43.28119395964728" lon="11.353213590598513"><ele>238.0</ele><time>2026-03-29T10:06:35.999Z</time></trkpt><trkpt lat="43.28107099302906" lon="11.353171258944647"><ele>238.0</ele><time>2026-03-29T10:06:36.999Z</time></trkpt><trkpt lat="43.28094800902069" lon="11.353125588346973"><ele>238.0</ele><time>2026-03-29T10:06:37.999Z</time></trkpt><trkpt lat="43.280818861173486" lon="11.353083030621333"><ele>237.25</ele><time>2026-03-29T10:06:38.999Z</time></trkpt><trkpt lat="43.28068675464484" lon="11.353034154103783"><ele>236.5</ele><time>2026-03-29T10:06:39.999Z</time></trkpt><trkpt lat="43.28054877471517" lon="11.352981384716644"><ele>235.75</ele><time>2026-03-29T10:06:40.999Z</time></trkpt><trkpt lat="43.280406150984255" lon="11.352926906894654"><ele>235.0</ele><time>2026-03-29T10:06:41.999Z</time></trkpt><trkpt lat="43.280251515780975" lon="11.352870742159046"><ele>233.33333333333331</ele><time>2026-03-29T10:06:42.999Z</time></trkpt><trkpt lat="43.28008790341537" lon="11.352812866003442"><ele>231.66666666666669</ele><time>2026-03-29T10:06:43.999Z</time></trkpt><trkpt lat="43.279925159570034" lon="11.352759556730476"><ele>230.0</ele><time>2026-03-29T10:06:44.999Z</time></trkpt><trkpt lat="43.27975191695946" lon="11.352716699977412"><ele>229.0</ele><time>2026-03-29T10:06:45.999Z</time></trkpt><trkpt lat="43.27957090827586" lon="11.352676207416625"><ele>228.0</ele><time>2026-03-29T10:06:46.999Z</time></trkpt><trkpt lat="43.27938547554978" lon="11.352651175591333"><ele>227.0</ele><time>2026-03-29T10:06:47.999Z</time></trkpt><trkpt lat="43.27919901180784" lon="11.352628752538783"><ele>227.0</ele><time>2026-03-29T10:06:48.999Z</time></trkpt><trkpt lat="43.279042005015036" lon="11.352626684628806"><ele>227.0</ele><time>2026-03-29T10:06:49.999Z</time></trkpt><trkpt lat="43.278899062888115" lon="11.35262702785101"><ele>227.0</ele><time>2026-03-29T10:06:50.999Z</time></trkpt><trkpt lat="43.278767058441495" lon="11.352643933663519"><ele>227.0</ele><time>2026-03-29T10:06:51.999Z</time></trkpt><trkpt lat="43.278653083659805" lon="11.352686021572524"><ele>227.0</ele><time>2026-03-29T10:06:52.999Z</time></trkpt><trkpt lat="43.27856516288113" lon="11.35273977263694"><ele>227.0</ele><time>2026-03-29T10:06:53.999Z</time></trkpt><trkpt lat="43.27848867002626" lon="11.352795568354622"><ele>227.0</ele><time>2026-03-29T10:06:54.999Z</time></trkpt><trkpt lat="43.27840425094588" lon="11.35284740285862"><ele>227.0</ele><time>2026-03-29T10:06:55.999Z</time></trkpt><trkpt lat="43.27829379883155" lon="11.35290861044711"><ele>227.0</ele><time>2026-03-29T10:06:56.999Z</time></trkpt><trkpt lat="43.278168712101255" lon="11.352984311171767"><ele>228.33333333333334</ele><time>2026-03-29T10:06:58Z</time></trkpt><trkpt lat="43.27802657704198" lon="11.353078068066774"><ele>229.66666666666669</ele><time>2026-03-29T10:06:59Z</time></trkpt><trkpt lat="43.2778755372182" lon="11.353173718841374"><ele>231.0</ele><time>2026-03-29T10:07:00Z</time></trkpt><trkpt lat="43.277735684665096" lon="11.353256527466824"><ele>231.0</ele><time>2026-03-29T10:07:01Z</time></trkpt><trkpt lat="43.27760864289951" lon="11.353337461925872"><ele>231.0</ele><time>2026-03-29T10:07:02Z</time></trkpt><trkpt lat="43.277482196342376" lon="11.3534179064583"><ele>231.0</ele><time>2026-03-29T10:07:03Z</time></trkpt><trkpt lat="43.27735888595119" lon="11.353493027103047"><ele>231.0</ele><time>2026-03-29T10:07:04Z</time></trkpt><trkpt lat="43.27722294059813" lon="11.353558571519567"><ele>231.33333333333331</ele><time>2026-03-29T10:07:05Z</time></trkpt><trkpt lat="43.277079553218606" lon="11.353615639012686"><ele>231.66666666666666</ele><time>2026-03-29T10:07:06Z</time></trkpt><trkpt lat="43.27692386102799" lon="11.353665027448383"><ele>232.0</ele><time>2026-03-29T10:07:07Z</time></trkpt><trkpt lat="43.2767517938078" lon="11.35370261997957"><ele>232.0</ele><time>2026-03-29T10:07:08Z</time></trkpt><trkpt lat="43.27658103786234" lon="11.353737340570435"><ele>232.0</ele><time>2026-03-29T10:07:09Z</time></trkpt><trkpt lat="43.27641008733421" lon="11.353770097681686"><ele>232.0</ele><time>2026-03-29T10:07:10Z</time></trkpt><trkpt lat="43.276235367259524" lon="11.353804505539223"><ele>230.33333333333331</ele><time>2026-03-29T10:07:11Z</time></trkpt><trkpt lat="43.276057519456174" lon="11.353840259732749"><ele>228.66666666666669</ele><time>2026-03-29T10:07:12Z</time></trkpt><trkpt lat="43.27588204143762" lon="11.353873584399823"><ele>227.0</ele><time>2026-03-29T10:07:13Z</time></trkpt><trkpt lat="43.27571097759915" lon="11.353902169263137"><ele>225.33333333333334</ele><time>2026-03-29T10:07:14Z</time></trkpt><trkpt lat="43.27555208807877" lon="11.353932378151125"><ele>223.66666666666669</ele><time>2026-03-29T10:07:15Z</time></trkpt><trkpt lat="43.27540453425461" lon="11.35396172784288"><ele>222.0</ele><time>2026-03-29T10:07:16Z</time></trkpt><trkpt lat="43.27525672265636" lon="11.353986840604172"><ele>222.0</ele><time>2026-03-29T10:07:17Z</time></trkpt><trkpt lat="43.27510469807085" lon="11.354014861870196"><ele>222.0</ele><time>2026-03-29T10:07:18Z</time></trkpt><trkpt lat="43.27494746104724" lon="11.354047566463679"><ele>222.0</ele><time>2026-03-29T10:07:19Z</time></trkpt><trkpt lat="43.27479007930511" lon="11.35410771104763"><ele>223.0</ele><time>2026-03-29T10:07:20Z</time></trkpt><trkpt lat="43.274636074209525" lon="11.354178841922165"><ele>224.0</ele><time>2026-03-29T10:07:21Z</time></trkpt><trkpt lat="43.274492671760996" lon="11.354291950274638"><ele>225.0</ele><time>2026-03-29T10:07:22Z</time></trkpt><trkpt lat="43.2743723234844" lon="11.354432085343161"><ele>225.0</ele><time>2026-03-29T10:07:23Z</time></trkpt><trkpt lat="43.274251560136484" lon="11.354608209269886"><ele>225.0</ele><time>2026-03-29T10:07:24Z</time></trkpt><trkpt lat="43.27412859348291" lon="11.354811536356918"><ele>225.0</ele><time>2026-03-29T10:07:25Z</time></trkpt><trkpt lat="43.273999427376076" lon="11.355017301034314"><ele>222.33333333333331</ele><time>2026-03-29T10:07:26Z</time></trkpt><trkpt lat="43.27387000800556" lon="11.355176482165833"><ele>219.66666666666666</ele><time>2026-03-29T10:07:27Z</time></trkpt><trkpt lat="43.27374484291173" lon="11.35530494032703"><ele>217.0</ele><time>2026-03-29T10:07:28Z</time></trkpt><trkpt lat="43.27362456382685" lon="11.355427962522084"><ele>219.0</ele><time>2026-03-29T10:07:29Z</time></trkpt><trkpt lat="43.273514890090105" lon="11.355552997499249"><ele>221.0</ele><time>2026-03-29T10:07:30Z</time></trkpt><trkpt lat="43.27340083867687" lon="11.35568549350337"><ele>223.0</ele><time>2026-03-29T10:07:31Z</time></trkpt><trkpt lat="43.27327286534636" lon="11.355831196176862"><ele>223.0</ele><time>2026-03-29T10:07:32Z</time></trkpt><trkpt lat="43.27313851455868" lon="11.355985329738099"><ele>223.0</ele><time>2026-03-29T10:07:33Z</time></trkpt><trkpt lat="43.27299514565519" lon="11.356145285173888"><ele>223.0</ele><time>2026-03-29T10:07:34Z</time></trkpt><trkpt lat="43.27285654778348" lon="11.356305224596456"><ele>224.33333333333331</ele><time>2026-03-29T10:07:35Z</time></trkpt><trkpt lat="43.272702331907375" lon="11.356468694478199"><ele>225.66666666666669</ele><time>2026-03-29T10:07:36Z</time></trkpt><trkpt lat="43.27256323708619" lon="11.356632793140284"><ele>227.0</ele><time>2026-03-29T10:07:37Z</time></trkpt><trkpt lat="43.27242762660185" lon="11.356777062784099"><ele>227.0</ele><time>2026-03-29T10:07:38Z</time></trkpt><trkpt lat="43.27230167743616" lon="11.356917037453288"><ele>227.0</ele><time>2026-03-29T10:07:39Z</time></trkpt><trkpt lat="43.27219078305648" lon="11.35704053620413"><ele>227.0</ele><time>2026-03-29T10:07:40Z</time></trkpt><trkpt lat="43.27209840086872" lon="11.357141032162138"><ele>227.0</ele><time>2026-03-29T10:07:41Z</time></trkpt><trkpt lat="43.27202779801757" lon="11.357218962895068"><ele>226.33333333333334</ele><time>2026-03-29T10:07:42Z</time></trkpt><trkpt lat="43.27196589496074" lon="11.35728608444121"><ele>225.66666666666669</ele><time>2026-03-29T10:07:43Z</time></trkpt><trkpt lat="43.271918965254955" lon="11.357345133892071"><ele>225.0</ele><time>2026-03-29T10:07:44Z</time></trkpt><trkpt lat="43.271829974648064" lon="11.357398510871915"><ele>224.33333333333331</ele><time>2026-03-29T10:07:46Z</time></trkpt><trkpt lat="43.27171363430708" lon="11.357333848049363"><ele>223.66666666666666</ele><time>2026-03-29T10:07:48Z</time></trkpt><trkpt lat="43.271660169235005" lon="11.357273951936005"><ele>223.0</ele><time>2026-03-29T10:07:49Z</time></trkpt><trkpt lat="43.271595899655196" lon="11.357190265930816"><ele>223.0</ele><time>2026-03-29T10:07:50Z</time></trkpt><trkpt lat="43.27151555861352" lon="11.357110532860347"><ele>223.0</ele><time>2026-03-29T10:07:51Z</time></trkpt><trkpt lat="43.27142825959577" lon="11.357020063686997"><ele>223.0</ele><time>2026-03-29T10:07:52Z</time></trkpt><trkpt lat="43.2713476083765" lon="11.356935607036629"><ele>223.0</ele><time>2026-03-29T10:07:53Z</time></trkpt><trkpt lat="43.27127754462274" lon="11.356852502103024"><ele>223.0</ele><time>2026-03-29T10:07:54Z</time></trkpt><trkpt lat="43.27120620905897" lon="11.35677264128863"><ele>222.83333333333331</ele><time>2026-03-29T10:07:55Z</time></trkpt><trkpt lat="43.27112964449652" lon="11.356698718714954"><ele>222.66666666666666</ele><time>2026-03-29T10:07:56Z</time></trkpt><trkpt lat="43.2710635026601" lon="11.356622063570676"><ele>222.5</ele><time>2026-03-29T10:07:57Z</time></trkpt><trkpt lat="43.27099156116397" lon="11.356546517475332"><ele>222.33333333333331</ele><time>2026-03-29T10:07:58Z</time></trkpt><trkpt lat="43.27093358276629" lon="11.356486189580332"><ele>222.16666666666666</ele><time>2026-03-29T10:07:59Z</time></trkpt><trkpt lat="43.27086847073902" lon="11.356418484643287"><ele>222.0</ele><time>2026-03-29T10:08:00Z</time></trkpt><trkpt lat="43.270797036751624" lon="11.356354278661515"><ele>220.0</ele><time>2026-03-29T10:08:01Z</time></trkpt><trkpt lat="43.27071853332642" lon="11.35627187862971"><ele>218.0</ele><time>2026-03-29T10:08:02Z</time></trkpt><trkpt lat="43.270634226810074" lon="11.35618159160088"><ele>216.0</ele><time>2026-03-29T10:08:03Z</time></trkpt><trkpt lat="43.27055736047491" lon="11.356102452871474"><ele>214.0</ele><time>2026-03-29T10:08:04Z</time></trkpt><trkpt lat="43.270494715492205" lon="11.356036411283196"><ele>212.0</ele><time>2026-03-29T10:08:05Z</time></trkpt><trkpt lat="43.2704303484501" lon="11.355981782911476"><ele>211.66666666666669</ele><time>2026-03-29T10:08:06Z</time></trkpt><trkpt lat="43.27036718340831" lon="11.355943442549497"><ele>211.33333333333334</ele><time>2026-03-29T10:08:06.999Z</time></trkpt><trkpt lat="43.270287333715864" lon="11.355912680158125"><ele>211.0</ele><time>2026-03-29T10:08:07.999Z</time></trkpt><trkpt lat="43.270196049407524" lon="11.355897327258774"><ele>210.66666666666669</ele><time>2026-03-29T10:08:08.999Z</time></trkpt><trkpt lat="43.27009306447672" lon="11.355888744803796"><ele>210.33333333333334</ele><time>2026-03-29T10:08:09.999Z</time></trkpt><trkpt lat="43.27000222856766" lon="11.35589518013141"><ele>210.0</ele><time>2026-03-29T10:08:10.999Z</time></trkpt><trkpt lat="43.26991873424851" lon="11.355909112250822"><ele>210.0</ele><time>2026-03-29T10:08:11.999Z</time></trkpt><trkpt lat="43.26983335778365" lon="11.355928534770584"><ele>210.0</ele><time>2026-03-29T10:08:12.999Z</time></trkpt><trkpt lat="43.26973914664391" lon="11.355953931712236"><ele>210.0</ele><time>2026-03-29T10:08:13.999Z</time></trkpt><trkpt lat="43.26964306248791" lon="11.355997747322183"><ele>210.0</ele><time>2026-03-29T10:08:14.999Z</time></trkpt><trkpt lat="43.269557989333975" lon="11.356056725031122"><ele>210.0</ele><time>2026-03-29T10:08:15.999Z</time></trkpt><trkpt lat="43.26948030553049" lon="11.356122443122125"><ele>208.4</ele><time>2026-03-29T10:08:16.999Z</time></trkpt><trkpt lat="43.26940997514135" lon="11.356192930813213"><ele>206.8</ele><time>2026-03-29T10:08:17.999Z</time></trkpt><trkpt lat="43.26933926319158" lon="11.356259325059124"><ele>205.2</ele><time>2026-03-29T10:08:18.999Z</time></trkpt><trkpt lat="43.269269247684505" lon="11.35634217202248"><ele>203.6</ele><time>2026-03-29T10:08:19.999Z</time></trkpt><trkpt lat="43.26920218369694" lon="11.356438237608941"><ele>202.0</ele><time>2026-03-29T10:08:20.999Z</time></trkpt><trkpt lat="43.26913704381821" lon="11.356542650473866"><ele>202.0</ele><time>2026-03-29T10:08:21.999Z</time></trkpt><trkpt lat="43.26908663955999" lon="11.356660270041793"><ele>202.0</ele><time>2026-03-29T10:08:22.999Z</time></trkpt><trkpt lat="43.26904025704756" lon="11.356788745435312"><ele>202.0</ele><time>2026-03-29T10:08:23.999Z</time></trkpt><trkpt lat="43.26899939043813" lon="11.356924731342374"><ele>202.0</ele><time>2026-03-29T10:08:24.999Z</time></trkpt><trkpt lat="43.26896848760699" lon="11.357061851685225"><ele>202.0</ele><time>2026-03-29T10:08:25.999Z</time></trkpt><trkpt lat="43.26894696724376" lon="11.357192605271646"><ele>198.75</ele><time>2026-03-29T10:08:26.999Z</time></trkpt><trkpt lat="43.268933480129945" lon="11.357335289654259"><ele>195.5</ele><time>2026-03-29T10:08:27.999Z</time></trkpt><trkpt lat="43.268933529301584" lon="11.357507192669145"><ele>192.25</ele><time>2026-03-29T10:08:28.999Z</time></trkpt><trkpt lat="43.26892526972073" lon="11.357686069086508"><ele>189.0</ele><time>2026-03-29T10:08:29.999Z</time></trkpt><trkpt lat="43.268930905201245" lon="11.357833434532667"><ele>189.0</ele><time>2026-03-29T10:08:30.999Z</time></trkpt><trkpt lat="43.26892895248035" lon="11.357964603708426"><ele>189.0</ele><time>2026-03-29T10:08:31.999Z</time></trkpt><trkpt lat="43.26892425031132" lon="11.35808979230593"><ele>189.0</ele><time>2026-03-29T10:08:32.999Z</time></trkpt><trkpt lat="43.26891335810634" lon="11.358233378862929"><ele>189.0</ele><time>2026-03-29T10:08:33.999Z</time></trkpt><trkpt lat="43.268897081170714" lon="11.35838975443236"><ele>189.0</ele><time>2026-03-29T10:08:34.999Z</time></trkpt><trkpt lat="43.26886908065655" lon="11.35852074497677"><ele>189.0</ele><time>2026-03-29T10:08:35.999Z</time></trkpt><trkpt lat="43.26883641233752" lon="11.358641498439683"><ele>189.0</ele><time>2026-03-29T10:08:36.999Z</time></trkpt><trkpt lat="43.26879453655618" lon="11.35876315185114"><ele>189.0</ele><time>2026-03-29T10:08:37.999Z</time></trkpt><trkpt lat="43.2687448492986" lon="11.358881965499155"><ele>189.0</ele><time>2026-03-29T10:08:38.999Z</time></trkpt><trkpt lat="43.26868427927474" lon="11.358985887353908"><ele>189.0</ele><time>2026-03-29T10:08:39.999Z</time></trkpt><trkpt lat="43.26861272361534" lon="11.359082326755454"><ele>189.2</ele><time>2026-03-29T10:08:40.999Z</time></trkpt><trkpt lat="43.268521341115736" lon="11.35917700427202"><ele>189.39999999999998</ele><time>2026-03-29T10:08:41.999Z</time></trkpt><trkpt lat="43.26843462015773" lon="11.359248921765209"><ele>189.6</ele><time>2026-03-29T10:08:42.999Z</time></trkpt><trkpt lat="43.268344018677666" lon="11.359305936675518"><ele>189.8</ele><time>2026-03-29T10:08:43.999Z</time></trkpt><trkpt lat="43.26823421806182" lon="11.359356634549671"><ele>190.0</ele><time>2026-03-29T10:08:44.999Z</time></trkpt><trkpt lat="43.26811398415639" lon="11.359398650982529"><ele>189.0</ele><time>2026-03-29T10:08:45.999Z</time></trkpt><trkpt lat="43.267994477296845" lon="11.359408568316509"><ele>188.0</ele><time>2026-03-29T10:08:46.999Z</time></trkpt><trkpt lat="43.267877120493466" lon="11.359396217266621"><ele>187.0</ele><time>2026-03-29T10:08:47.999Z</time></trkpt><trkpt lat="43.267759806816265" lon="11.359364929449658"><ele>186.0</ele><time>2026-03-29T10:08:48.999Z</time></trkpt><trkpt lat="43.26762349320783" lon="11.35931004901603"><ele>186.0</ele><time>2026-03-29T10:08:49.999Z</time></trkpt><trkpt lat="43.26747463141424" lon="11.359247275869853"><ele>186.0</ele><time>2026-03-29T10:08:50.999Z</time></trkpt><trkpt lat="43.26733366865701" lon="11.359188692822267"><ele>186.0</ele><time>2026-03-29T10:08:51.999Z</time></trkpt><trkpt lat="43.267205128512124" lon="11.359130922197204"><ele>186.0</ele><time>2026-03-29T10:08:52.999Z</time></trkpt><trkpt lat="43.26706048148749" lon="11.359071708294707"><ele>185.75</ele><time>2026-03-29T10:08:53.999Z</time></trkpt><trkpt lat="43.2669118412344" lon="11.359015896334544"><ele>185.5</ele><time>2026-03-29T10:08:54.999Z</time></trkpt><trkpt lat="43.26678838042375" lon="11.358968669784067"><ele>185.25</ele><time>2026-03-29T10:08:55.999Z</time></trkpt><trkpt lat="43.26668332668401" lon="11.35891911953251"><ele>185.0</ele><time>2026-03-29T10:08:56.999Z</time></trkpt><trkpt lat="43.26658322028266" lon="11.358878964611272"><ele>185.0</ele><time>2026-03-29T10:08:57.999Z</time></trkpt><trkpt lat="43.266473591844516" lon="11.35882733857921"><ele>185.0</ele><time>2026-03-29T10:08:58.999Z</time></trkpt><trkpt lat="43.266348931084224" lon="11.358775401740003"><ele>185.0</ele><time>2026-03-29T10:08:59.999Z</time></trkpt><trkpt lat="43.2662091156208" lon="11.358714062485813"><ele>185.0</ele><time>2026-03-29T10:09:00.999Z</time></trkpt><trkpt lat="43.26605603972379" lon="11.358655488993177"><ele>185.0</ele><time>2026-03-29T10:09:01.999Z</time></trkpt><trkpt lat="43.26592369911737" lon="11.358575922999322"><ele>185.0</ele><time>2026-03-29T10:09:02.999Z</time></trkpt><trkpt lat="43.26579926089475" lon="11.358521572601484"><ele>185.0</ele><time>2026-03-29T10:09:04Z</time></trkpt><trkpt lat="43.26568332090641" lon="11.358471065032777"><ele>185.0</ele><time>2026-03-29T10:09:05Z</time></trkpt><trkpt lat="43.265579754345545" lon="11.358425947766777"><ele>184.75</ele><time>2026-03-29T10:09:06Z</time></trkpt><trkpt lat="43.26545965817919" lon="11.358397989534895"><ele>184.5</ele><time>2026-03-29T10:09:07Z</time></trkpt><trkpt lat="43.26535395482029" lon="11.358344218820832"><ele>184.25</ele><time>2026-03-29T10:09:08Z</time></trkpt><trkpt lat="43.26524880119427" lon="11.358304448877314"><ele>184.0</ele><time>2026-03-29T10:09:09Z</time></trkpt><trkpt lat="43.26513638710943" lon="11.358255856969075"><ele>184.0</ele><time>2026-03-29T10:09:10Z</time></trkpt><trkpt lat="43.26504443070733" lon="11.35821849381685"><ele>184.0</ele><time>2026-03-29T10:09:11Z</time></trkpt><trkpt lat="43.26496236312493" lon="11.358190281641317"><ele>184.0</ele><time>2026-03-29T10:09:12Z</time></trkpt><trkpt lat="43.264881690298616" lon="11.358191304717442"><ele>184.0</ele><time>2026-03-29T10:09:13Z</time></trkpt><trkpt lat="43.26479878489034" lon="11.35818880510096"><ele>184.0</ele><time>2026-03-29T10:09:14Z</time></trkpt><trkpt lat="43.26471186491094" lon="11.358226897829052"><ele>184.0</ele><time>2026-03-29T10:09:15Z</time></trkpt><trkpt lat="43.2646325087727" lon="11.358280822108249"><ele>184.0</ele><time>2026-03-29T10:09:16Z</time></trkpt><trkpt lat="43.26456827594406" lon="11.358385609054592"><ele>184.0</ele><time>2026-03-29T10:09:17Z</time></trkpt><trkpt lat="43.264514468290685" lon="11.358495233995166"><ele>184.0</ele><time>2026-03-29T10:09:18Z</time></trkpt><trkpt lat="43.26444554003968" lon="11.358636284444843"><ele>184.0</ele><time>2026-03-29T10:09:19Z</time></trkpt><trkpt lat="43.26436708204107" lon="11.358768678849614"><ele>184.0</ele><time>2026-03-29T10:09:20Z</time></trkpt><trkpt lat="43.264291886659066" lon="11.358906180403261"><ele>184.0</ele><time>2026-03-29T10:09:21Z</time></trkpt><trkpt lat="43.2642207350894" lon="11.35901232645583"><ele>184.0</ele><time>2026-03-29T10:09:22Z</time></trkpt><trkpt lat="43.264134710983406" lon="11.359126317271645"><ele>184.0</ele><time>2026-03-29T10:09:23Z</time></trkpt><trkpt lat="43.264040808663445" lon="11.359226651116998"><ele>184.0</ele><time>2026-03-29T10:09:24Z</time></trkpt><trkpt lat="43.263942937771304" lon="11.359305136443504"><ele>183.79999999999998</ele><time>2026-03-29T10:09:25Z</time></trkpt><trkpt lat="43.26384938718792" lon="11.359371486262345"><ele>183.6</ele><time>2026-03-29T10:09:26Z</time></trkpt><trkpt lat="43.26375539500225" lon="11.359432709566102"><ele>183.4</ele><time>2026-03-29T10:09:27Z</time></trkpt><trkpt lat="43.263652947891586" lon="11.359497401044901"><ele>183.2</ele><time>2026-03-29T10:09:28Z</time></trkpt><trkpt lat="43.26355093404971" lon="11.359573598237382"><ele>183.0</ele><time>2026-03-29T10:09:29Z</time></trkpt><trkpt lat="43.26345500476462" lon="11.359647668768892"><ele>182.75</ele><time>2026-03-29T10:09:30Z</time></trkpt><trkpt lat="43.26336090760622" lon="11.359735396728885"><ele>182.5</ele><time>2026-03-29T10:09:31Z</time></trkpt><trkpt lat="43.26326540907313" lon="11.359834229010469"><ele>182.25</ele><time>2026-03-29T10:09:32Z</time></trkpt><trkpt lat="43.26316296242467" lon="11.359940330019896"><ele>182.0</ele><time>2026-03-29T10:09:33Z</time></trkpt><trkpt lat="43.26304982188211" lon="11.360054295909226"><ele>182.2</ele><time>2026-03-29T10:09:34Z</time></trkpt><trkpt lat="43.26294844605239" lon="11.360168632062724"><ele>182.39999999999998</ele><time>2026-03-29T10:09:35Z</time></trkpt><trkpt lat="43.262867957522644" lon="11.360259933946693"><ele>182.60000000000002</ele><time>2026-03-29T10:09:36Z</time></trkpt><trkpt lat="43.26279171409229" lon="11.360345890141767"><ele>182.8</ele><time>2026-03-29T10:09:37Z</time></trkpt><trkpt lat="43.26270398040784" lon="11.360445208835111"><ele>183.0</ele><time>2026-03-29T10:09:38Z</time></trkpt><trkpt lat="43.262612467727756" lon="11.36055262379198"><ele>183.0</ele><time>2026-03-29T10:09:39Z</time></trkpt><trkpt lat="43.262518953383925" lon="11.360672472126524"><ele>183.0</ele><time>2026-03-29T10:09:40Z</time></trkpt><trkpt lat="43.26243248957858" lon="11.360787946914957"><ele>183.0</ele><time>2026-03-29T10:09:41Z</time></trkpt><trkpt lat="43.26233633442932" lon="11.360911307009328"><ele>183.0</ele><time>2026-03-29T10:09:42Z</time></trkpt><trkpt lat="43.262250541460354" lon="11.361022934145481"><ele>182.75</ele><time>2026-03-29T10:09:43Z</time></trkpt><trkpt lat="43.262170564274044" lon="11.361123796713713"><ele>182.5</ele><time>2026-03-29T10:09:44Z</time></trkpt><trkpt lat="43.26207591256585" lon="11.361228919605262"><ele>182.25</ele><time>2026-03-29T10:09:45Z</time></trkpt><trkpt lat="43.26197139308877" lon="11.361338988462842"><ele>182.0</ele><time>2026-03-29T10:09:46Z</time></trkpt><trkpt lat="43.2618640492379" lon="11.361433838929539"><ele>182.0</ele><time>2026-03-29T10:09:47Z</time></trkpt><trkpt lat="43.261764675374216" lon="11.361511749931879"><ele>182.0</ele><time>2026-03-29T10:09:48Z</time></trkpt><trkpt lat="43.26165363569559" lon="11.36159269337667"><ele>182.0</ele><time>2026-03-29T10:09:49Z</time></trkpt><trkpt lat="43.261520756991295" lon="11.361686106007232"><ele>182.0</ele><time>2026-03-29T10:09:50Z</time></trkpt><trkpt lat="43.2613958338597" lon="11.361741172664493"><ele>182.0</ele><time>2026-03-29T10:09:51Z</time></trkpt><trkpt lat="43.26128459230426" lon="11.361799532626824"><ele>182.0</ele><time>2026-03-29T10:09:52Z</time></trkpt><trkpt lat="43.26117039798029" lon="11.361850263128145"><ele>182.0</ele><time>2026-03-29T10:09:53Z</time></trkpt><trkpt lat="43.2610397768082" lon="11.361899719844741"><ele>182.0</ele><time>2026-03-29T10:09:54Z</time></trkpt><trkpt lat="43.260898762015096" lon="11.36193266618992"><ele>182.0</ele><time>2026-03-29T10:09:55Z</time></trkpt><trkpt lat="43.26076294305555" lon="11.361944267069893"><ele>182.0</ele><time>2026-03-29T10:09:56Z</time></trkpt><trkpt lat="43.26063581696384" lon="11.361939099003461"><ele>182.0</ele><time>2026-03-29T10:09:57Z</time></trkpt><trkpt lat="43.26049519674385" lon="11.361921343857103"><ele>182.0</ele><time>2026-03-29T10:09:58Z</time></trkpt><trkpt lat="43.26035034245526" lon="11.361914361907793"><ele>182.75</ele><time>2026-03-29T10:09:59Z</time></trkpt><trkpt lat="43.26021265533745" lon="11.361876616861368"><ele>183.5</ele><time>2026-03-29T10:10:00Z</time></trkpt><trkpt lat="43.26009163090986" lon="11.361834247113983"><ele>184.25</ele><time>2026-03-29T10:10:01Z</time></trkpt><trkpt lat="43.25997429854819" lon="11.36179575820522"><ele>185.0</ele><time>2026-03-29T10:10:02Z</time></trkpt><trkpt lat="43.25985291364122" lon="11.361759610165121"><ele>187.0</ele><time>2026-03-29T10:10:03Z</time></trkpt><trkpt lat="43.25972470241058" lon="11.361715712197888"><ele>189.0</ele><time>2026-03-29T10:10:04Z</time></trkpt><trkpt lat="43.259594566184255" lon="11.36166283330458"><ele>191.0</ele><time>2026-03-29T10:10:05Z</time></trkpt><trkpt lat="43.25946746887492" lon="11.36160346077665"><ele>193.0</ele><time>2026-03-29T10:10:06Z</time></trkpt><trkpt lat="43.25934318530731" lon="11.361538182163024"><ele>193.0</ele><time>2026-03-29T10:10:07Z</time></trkpt><trkpt lat="43.25920927004988" lon="11.361467390901138"><ele>193.0</ele><time>2026-03-29T10:10:07.999Z</time></trkpt><trkpt lat="43.2590752448881" lon="11.361394194901736"><ele>193.0</ele><time>2026-03-29T10:10:08.999Z</time></trkpt><trkpt lat="43.258944447819125" lon="11.36132167188738"><ele>193.0</ele><time>2026-03-29T10:10:09.999Z</time></trkpt><trkpt lat="43.25883632139716" lon="11.361223455912187"><ele>193.5</ele><time>2026-03-29T10:10:10.999Z</time></trkpt><trkpt lat="43.25872294761562" lon="11.361125744539159"><ele>194.0</ele><time>2026-03-29T10:10:11.999Z</time></trkpt><trkpt lat="43.25859907197683" lon="11.361039058670645"><ele>194.5</ele><time>2026-03-29T10:10:12.999Z</time></trkpt><trkpt lat="43.25848220765309" lon="11.360922819761525"><ele>195.0</ele><time>2026-03-29T10:10:13.999Z</time></trkpt><trkpt lat="43.258381451737485" lon="11.360826127056328"><ele>195.0</ele><time>2026-03-29T10:10:14.999Z</time></trkpt><trkpt lat="43.25828543407615" lon="11.360736735222401"><ele>195.0</ele><time>2026-03-29T10:10:15.999Z</time></trkpt><trkpt lat="43.25818684375025" lon="11.360645184429469"><ele>195.0</ele><time>2026-03-29T10:10:16.999Z</time></trkpt><trkpt lat="43.258107786698474" lon="11.36055533907213"><ele>195.0</ele><time>2026-03-29T10:10:17.999Z</time></trkpt><trkpt lat="43.25802338771554" lon="11.360482027319646"><ele>195.0</ele><time>2026-03-29T10:10:18.999Z</time></trkpt><trkpt lat="43.257941024665996" lon="11.360403056204813"><ele>195.0</ele><time>2026-03-29T10:10:19.999Z</time></trkpt><trkpt lat="43.25783308046986" lon="11.360353669318158"><ele>195.0</ele><time>2026-03-29T10:10:20.999Z</time></trkpt><trkpt lat="43.257718833459634" lon="11.360302027659156"><ele>195.0</ele><time>2026-03-29T10:10:21.999Z</time></trkpt><trkpt lat="43.25760134836177" lon="11.36024620031995"><ele>195.0</ele><time>2026-03-29T10:10:22.999Z</time></trkpt><trkpt lat="43.25749995062055" lon="11.36020101619529"><ele>195.0</ele><time>2026-03-29T10:10:23.999Z</time></trkpt><trkpt lat="43.257398274296555" lon="11.360162023307986"><ele>195.0</ele><time>2026-03-29T10:10:24.999Z</time></trkpt><trkpt lat="43.25729829073581" lon="11.360119860173606"><ele>195.0</ele><time>2026-03-29T10:10:25.999Z</time></trkpt><trkpt lat="43.25720230484092" lon="11.360090602583405"><ele>195.0</ele><time>2026-03-29T10:10:26.999Z</time></trkpt><trkpt lat="43.25709744659139" lon="11.360070736246035"><ele>195.0</ele><time>2026-03-29T10:10:27.999Z</time></trkpt><trkpt lat="43.25698221164546" lon="11.360063590967545"><ele>196.0</ele><time>2026-03-29T10:10:28.999Z</time></trkpt><trkpt lat="43.25687230592781" lon="11.36006629666997"><ele>197.0</ele><time>2026-03-29T10:10:29.999Z</time></trkpt><trkpt lat="43.25675229926762" lon="11.360074430853912"><ele>198.0</ele><time>2026-03-29T10:10:30.999Z</time></trkpt><trkpt lat="43.2566142545263" lon="11.360088911047598"><ele>199.0</ele><time>2026-03-29T10:10:31.999Z</time></trkpt><trkpt lat="43.256477763208665" lon="11.360116154402164"><ele>199.79999999999998</ele><time>2026-03-29T10:10:32.999Z</time></trkpt><trkpt lat="43.256379712907325" lon="11.360139508265384"><ele>200.6</ele><time>2026-03-29T10:10:33.999Z</time></trkpt><trkpt lat="43.256292256675664" lon="11.360159944317333"><ele>201.4</ele><time>2026-03-29T10:10:34.999Z</time></trkpt><trkpt lat="43.256204709649126" lon="11.360182655808247"><ele>202.2</ele><time>2026-03-29T10:10:35.999Z</time></trkpt><trkpt lat="43.256111818780745" lon="11.360225830267092"><ele>203.0</ele><time>2026-03-29T10:10:36.999Z</time></trkpt><trkpt lat="43.25601507624142" lon="11.360283895267282"><ele>203.0</ele><time>2026-03-29T10:10:37.999Z</time></trkpt><trkpt lat="43.25590559899496" lon="11.360362191903318"><ele>203.0</ele><time>2026-03-29T10:10:38.999Z</time></trkpt><trkpt lat="43.25579092990595" lon="11.360445501985769"><ele>203.0</ele><time>2026-03-29T10:10:39.999Z</time></trkpt><trkpt lat="43.255671426449545" lon="11.36053129514549"><ele>203.0</ele><time>2026-03-29T10:10:40.999Z</time></trkpt><trkpt lat="43.25556671327933" lon="11.360598406531139"><ele>205.2</ele><time>2026-03-29T10:10:41.999Z</time></trkpt><trkpt lat="43.25547433906095" lon="11.360661851137642"><ele>207.4</ele><time>2026-03-29T10:10:42.999Z</time></trkpt><trkpt lat="43.255376132920176" lon="11.360733577849052"><ele>209.59999999999997</ele><time>2026-03-29T10:10:43.999Z</time></trkpt><trkpt lat="43.25528706682886" lon="11.360810383333188"><ele>211.79999999999998</ele><time>2026-03-29T10:10:44.999Z</time></trkpt><trkpt lat="43.255213232969155" lon="11.360888155123632"><ele>214.0</ele><time>2026-03-29T10:10:45.999Z</time></trkpt><trkpt lat="43.255145196604616" lon="11.360981323508263"><ele>214.0</ele><time>2026-03-29T10:10:46.999Z</time></trkpt><trkpt lat="43.2550681719117" lon="11.361095219571153"><ele>213.99999999999997</ele><time>2026-03-29T10:10:47.999Z</time></trkpt><trkpt lat="43.254990166742616" lon="11.361225839748645"><ele>213.99999999999997</ele><time>2026-03-29T10:10:48.999Z</time></trkpt><trkpt lat="43.2549237256435" lon="11.361353613326697"><ele>214.0</ele><time>2026-03-29T10:10:49.999Z</time></trkpt><trkpt lat="43.254879463751614" lon="11.361449683862649"><ele>214.0</ele><time>2026-03-29T10:10:50.999Z</time></trkpt><trkpt lat="43.254838197028015" lon="11.36153197620301"><ele>213.99999999999997</ele><time>2026-03-29T10:10:51.999Z</time></trkpt><trkpt lat="43.25479898014601" lon="11.361613032786753"><ele>214.0</ele><time>2026-03-29T10:10:52.999Z</time></trkpt><trkpt lat="43.254750760901885" lon="11.361718895917287"><ele>214.0</ele><time>2026-03-29T10:10:53.999Z</time></trkpt><trkpt lat="43.254688910334245" lon="11.361837579430846"><ele>214.0</ele><time>2026-03-29T10:10:54.999Z</time></trkpt><trkpt lat="43.25461880014072" lon="11.361940054097062"><ele>213.99999999999997</ele><time>2026-03-29T10:10:55.999Z</time></trkpt><trkpt lat="43.25456776396881" lon="11.3620118677787"><ele>214.0</ele><time>2026-03-29T10:10:56.999Z</time></trkpt><trkpt lat="43.25446488746802" lon="11.362109532289988"><ele>215.2</ele><time>2026-03-29T10:10:58.999Z</time></trkpt><trkpt lat="43.25439960894067" lon="11.362160747440695"><ele>216.39999999999998</ele><time>2026-03-29T10:10:59.999Z</time></trkpt><trkpt lat="43.254320276511066" lon="11.36221459167459"><ele>217.6</ele><time>2026-03-29T10:11:00.999Z</time></trkpt><trkpt lat="43.25423339885504" lon="11.362270528493509"><ele>218.8</ele><time>2026-03-29T10:11:01.999Z</time></trkpt><trkpt lat="43.25413108939029" lon="11.362321703286124"><ele>220.0</ele><time>2026-03-29T10:11:02.999Z</time></trkpt><trkpt lat="43.25402578798282" lon="11.362351860327907"><ele>221.25</ele><time>2026-03-29T10:11:03.999Z</time></trkpt><trkpt lat="43.253918860527094" lon="11.362351601828411"><ele>222.5</ele><time>2026-03-29T10:11:04.999Z</time></trkpt><trkpt lat="43.25380049935239" lon="11.362384946471328"><ele>223.75</ele><time>2026-03-29T10:11:05.999Z</time></trkpt><trkpt lat="43.25367305476367" lon="11.362397678092666"><ele>225.0</ele><time>2026-03-29T10:11:06.999Z</time></trkpt><trkpt lat="43.253530483022885" lon="11.362420043166102"><ele>225.0</ele><time>2026-03-29T10:11:07.999Z</time></trkpt><trkpt lat="43.25339265704656" lon="11.362456322848185"><ele>225.0</ele><time>2026-03-29T10:11:08.999Z</time></trkpt><trkpt lat="43.25326924392059" lon="11.362497351074655"><ele>225.0</ele><time>2026-03-29T10:11:10Z</time></trkpt><trkpt lat="43.253142391644765" lon="11.362551430601227"><ele>225.0</ele><time>2026-03-29T10:11:11Z</time></trkpt><trkpt lat="43.25300553613986" lon="11.362616879036636"><ele>225.75</ele><time>2026-03-29T10:11:12Z</time></trkpt><trkpt lat="43.252877187057294" lon="11.362682985858111"><ele>226.5</ele><time>2026-03-29T10:11:13Z</time></trkpt><trkpt lat="43.252772670521864" lon="11.362746930090442"><ele>227.25</ele><time>2026-03-29T10:11:14Z</time></trkpt><trkpt lat="43.252667874934964" lon="11.36281389240698"><ele>228.0</ele><time>2026-03-29T10:11:15Z</time></trkpt><trkpt lat="43.25255856998738" lon="11.36288528237535"><ele>228.0</ele><time>2026-03-29T10:11:16Z</time></trkpt><trkpt lat="43.25245599927488" lon="11.362961000014453"><ele>228.0</ele><time>2026-03-29T10:11:17Z</time></trkpt><trkpt lat="43.25237447207954" lon="11.36303332386943"><ele>228.0</ele><time>2026-03-29T10:11:18Z</time></trkpt><trkpt lat="43.25230340752206" lon="11.363113441832489"><ele>228.0</ele><time>2026-03-29T10:11:19Z</time></trkpt><trkpt lat="43.252226472280334" lon="11.363200299493416"><ele>228.0</ele><time>2026-03-29T10:11:20Z</time></trkpt><trkpt lat="43.25213922275957" lon="11.363294624426544"><ele>229.0</ele><time>2026-03-29T10:11:21Z</time></trkpt><trkpt lat="43.25205196842335" lon="11.363387757398117"><ele>230.0</ele><time>2026-03-29T10:11:22Z</time></trkpt><trkpt lat="43.251975538262414" lon="11.363466233012785"><ele>231.0</ele><time>2026-03-29T10:11:23Z</time></trkpt><trkpt lat="43.25188777239801" lon="11.363503535911795"><ele>232.0</ele><time>2026-03-29T10:11:24Z</time></trkpt><trkpt lat="43.25181251296676" lon="11.3635488768849"><ele>233.0</ele><time>2026-03-29T10:11:25Z</time></trkpt><trkpt lat="43.25173123277049" lon="11.363581138324749"><ele>233.0</ele><time>2026-03-29T10:11:26Z</time></trkpt><trkpt lat="43.25163551913024" lon="11.363598273663147"><ele>233.0</ele><time>2026-03-29T10:11:27Z</time></trkpt><trkpt lat="43.25154514603809" lon="11.363602365394275"><ele>233.0</ele><time>2026-03-29T10:11:28Z</time></trkpt><trkpt lat="43.25145710127005" lon="11.363591576127092"><ele>233.0</ele><time>2026-03-29T10:11:29Z</time></trkpt><trkpt lat="43.251359608459055" lon="11.363574407636289"><ele>233.0</ele><time>2026-03-29T10:11:30Z</time></trkpt><trkpt lat="43.251255129524665" lon="11.36354322623116"><ele>231.4</ele><time>2026-03-29T10:11:31Z</time></trkpt><trkpt lat="43.25115250209937" lon="11.363498012799578"><ele>229.8</ele><time>2026-03-29T10:11:32Z</time></trkpt><trkpt lat="43.251053591386736" lon="11.363451703057272"><ele>228.2</ele><time>2026-03-29T10:11:33Z</time></trkpt><trkpt lat="43.25094773389093" lon="11.36340586785023"><ele>226.6</ele><time>2026-03-29T10:11:34Z</time></trkpt><trkpt lat="43.2508261773678" lon="11.363374236962754"><ele>225.0</ele><time>2026-03-29T10:11:35Z</time></trkpt><trkpt lat="43.250716611219865" lon="11.363331780718926"><ele>224.6</ele><time>2026-03-29T10:11:36Z</time></trkpt><trkpt lat="43.25061116143998" lon="11.36329449071599"><ele>224.2</ele><time>2026-03-29T10:11:37Z</time></trkpt><trkpt lat="43.250515542523246" lon="11.363271764169376"><ele>223.8</ele><time>2026-03-29T10:11:38Z</time></trkpt><trkpt lat="43.25041348877798" lon="11.363249880151109"><ele>223.4</ele><time>2026-03-29T10:11:39Z</time></trkpt><trkpt lat="43.25030428389079" lon="11.363222983270115"><ele>223.0</ele><time>2026-03-29T10:11:40Z</time></trkpt><trkpt lat="43.250197227012684" lon="11.363197718440933"><ele>223.0</ele><time>2026-03-29T10:11:41Z</time></trkpt><trkpt lat="43.250101831969594" lon="11.363171694168377"><ele>223.0</ele><time>2026-03-29T10:11:42Z</time></trkpt><trkpt lat="43.25000565403108" lon="11.363140634980446"><ele>223.0</ele><time>2026-03-29T10:11:43Z</time></trkpt><trkpt lat="43.24990397983814" lon="11.363106045433344"><ele>223.0</ele><time>2026-03-29T10:11:44Z</time></trkpt><trkpt lat="43.24979977943189" lon="11.363078234422677"><ele>223.0</ele><time>2026-03-29T10:11:45Z</time></trkpt><trkpt lat="43.2497054571606" lon="11.363063890980989"><ele>224.0</ele><time>2026-03-29T10:11:46Z</time></trkpt><trkpt lat="43.249610749429046" lon="11.363060921456837"><ele>225.0</ele><time>2026-03-29T10:11:47Z</time></trkpt><trkpt lat="43.249512444239976" lon="11.363071427103394"><ele>226.0</ele><time>2026-03-29T10:11:48Z</time></trkpt><trkpt lat="43.249418670371696" lon="11.363094347546866"><ele>227.0</ele><time>2026-03-29T10:11:49Z</time></trkpt><trkpt lat="43.249330881717" lon="11.363132070040754"><ele>228.0</ele><time>2026-03-29T10:11:50Z</time></trkpt><trkpt lat="43.24924211198196" lon="11.36317881183294"><ele>228.0</ele><time>2026-03-29T10:11:51Z</time></trkpt><trkpt lat="43.249157364866335" lon="11.363242037598189"><ele>228.0</ele><time>2026-03-29T10:11:52Z</time></trkpt><trkpt lat="43.24908507101064" lon="11.363308572500202"><ele>228.0</ele><time>2026-03-29T10:11:53Z</time></trkpt><trkpt lat="43.24902517745335" lon="11.3633763454584"><ele>228.0</ele><time>2026-03-29T10:11:54Z</time></trkpt><trkpt lat="43.24896550646283" lon="11.363446299100247"><ele>228.0</ele><time>2026-03-29T10:11:55Z</time></trkpt><trkpt lat="43.24890410759746" lon="11.363533215487164"><ele>228.0</ele><time>2026-03-29T10:11:56Z</time></trkpt><trkpt lat="43.24883413540219" lon="11.363633900694825"><ele>228.0</ele><time>2026-03-29T10:11:57Z</time></trkpt><trkpt lat="43.24876015600798" lon="11.363747368740738"><ele>228.0</ele><time>2026-03-29T10:11:58Z</time></trkpt><trkpt lat="43.24868513380295" lon="11.36386347755349"><ele>228.0</ele><time>2026-03-29T10:11:59Z</time></trkpt><trkpt lat="43.24861469986851" lon="11.363961224596686"><ele>228.0</ele><time>2026-03-29T10:12:00Z</time></trkpt><trkpt lat="43.24854520906957" lon="11.3640605780797"><ele>228.0</ele><time>2026-03-29T10:12:01Z</time></trkpt><trkpt lat="43.24847041070452" lon="11.364157082116495"><ele>227.83333333333334</ele><time>2026-03-29T10:12:02Z</time></trkpt><trkpt lat="43.24840411223749" lon="11.364241564159114"><ele>227.66666666666669</ele><time>2026-03-29T10:12:03Z</time></trkpt><trkpt lat="43.248350986388935" lon="11.364327000047751"><ele>227.5</ele><time>2026-03-29T10:12:04Z</time></trkpt><trkpt lat="43.24830428446118" lon="11.364430559441772"><ele>227.33333333333334</ele><time>2026-03-29T10:12:05Z</time></trkpt><trkpt lat="43.248270687412315" lon="11.364541524964979"><ele>227.16666666666669</ele><time>2026-03-29T10:12:06Z</time></trkpt><trkpt lat="43.24824888274681" lon="11.364653620539931"><ele>227.0</ele><time>2026-03-29T10:12:07Z</time></trkpt><trkpt lat="43.24824298242889" lon="11.364779135125202"><ele>226.6</ele><time>2026-03-29T10:12:08Z</time></trkpt><trkpt lat="43.24824248876338" lon="11.364919235891643"><ele>226.2</ele><time>2026-03-29T10:12:09Z</time></trkpt><trkpt lat="43.248243536632266" lon="11.365069749640778"><ele>225.8</ele><time>2026-03-29T10:12:10Z</time></trkpt><trkpt lat="43.24823807739793" lon="11.365215069997918"><ele>225.4</ele><time>2026-03-29T10:12:11Z</time></trkpt><trkpt lat="43.248217509106446" lon="11.365328898859344"><ele>225.0</ele><time>2026-03-29T10:12:12Z</time></trkpt><trkpt lat="43.248174524082785" lon="11.36543435730013"><ele>224.6</ele><time>2026-03-29T10:12:13Z</time></trkpt><trkpt lat="43.248123304410875" lon="11.365539017608477"><ele>224.2</ele><time>2026-03-29T10:12:13.999Z</time></trkpt><trkpt lat="43.24806152929603" lon="11.365641851002234"><ele>223.8</ele><time>2026-03-29T10:12:14.999Z</time></trkpt><trkpt lat="43.247991678455215" lon="11.365740151683715"><ele>223.4</ele><time>2026-03-29T10:12:15.999Z</time></trkpt><trkpt lat="43.24791600891441" lon="11.365838466942353"><ele>223.0</ele><time>2026-03-29T10:12:16.999Z</time></trkpt><trkpt lat="43.24783785115766" lon="11.365919529535223"><ele>223.0</ele><time>2026-03-29T10:12:17.999Z</time></trkpt><trkpt lat="43.247748875383756" lon="11.365987448850243"><ele>223.0</ele><time>2026-03-29T10:12:18.999Z</time></trkpt><trkpt lat="43.24764412605341" lon="11.36603586464978"><ele>223.0</ele><time>2026-03-29T10:12:19.999Z</time></trkpt><trkpt lat="43.24752652618776" lon="11.366066069708948"><ele>223.0</ele><time>2026-03-29T10:12:20.999Z</time></trkpt><trkpt lat="43.24740749654325" lon="11.36608643589938"><ele>223.0</ele><time>2026-03-29T10:12:21.999Z</time></trkpt><trkpt lat="43.24729887725509" lon="11.36610258958109"><ele>223.0</ele><time>2026-03-29T10:12:22.999Z</time></trkpt><trkpt lat="43.24720915501483" lon="11.366113220582523"><ele>223.0</ele><time>2026-03-29T10:12:23.999Z</time></trkpt><trkpt lat="43.24712020248395" lon="11.366140200203697"><ele>223.0</ele><time>2026-03-29T10:12:24.999Z</time></trkpt><trkpt lat="43.24702864157197" lon="11.36616964130348"><ele>223.0</ele><time>2026-03-29T10:12:25.999Z</time></trkpt><trkpt lat="43.24693263107466" lon="11.366200813398352"><ele>223.0</ele><time>2026-03-29T10:12:26.999Z</time></trkpt><trkpt lat="43.24683537418323" lon="11.366231849586923"><ele>223.0</ele><time>2026-03-29T10:12:27.999Z</time></trkpt><trkpt lat="43.24674413384134" lon="11.36626719440305"><ele>223.0</ele><time>2026-03-29T10:12:28.999Z</time></trkpt><trkpt lat="43.246659270345354" lon="11.3663043836203"><ele>223.0</ele><time>2026-03-29T10:12:29.999Z</time></trkpt><trkpt lat="43.24657022340536" lon="11.366351045202302"><ele>223.0</ele><time>2026-03-29T10:12:30.999Z</time></trkpt><trkpt lat="43.246472659990054" lon="11.36640393395901"><ele>223.2</ele><time>2026-03-29T10:12:31.999Z</time></trkpt><trkpt lat="43.24637072053538" lon="11.366457070438763"><ele>223.4</ele><time>2026-03-29T10:12:32.999Z</time></trkpt><trkpt lat="43.246275132054144" lon="11.366514424556572"><ele>223.59999999999997</ele><time>2026-03-29T10:12:33.999Z</time></trkpt><trkpt lat="43.246195372234226" lon="11.366576402580431"><ele>223.79999999999998</ele><time>2026-03-29T10:12:34.999Z</time></trkpt><trkpt lat="43.246123279757576" lon="11.366649862974825"><ele>224.0</ele><time>2026-03-29T10:12:35.999Z</time></trkpt><trkpt lat="43.24604958486954" lon="11.366731311537096"><ele>224.0</ele><time>2026-03-29T10:12:36.999Z</time></trkpt><trkpt lat="43.24596964909031" lon="11.366819699134481"><ele>223.99999999999997</ele><time>2026-03-29T10:12:37.999Z</time></trkpt><trkpt lat="43.24588930934854" lon="11.36691341358087"><ele>223.99999999999997</ele><time>2026-03-29T10:12:38.999Z</time></trkpt><trkpt lat="43.24582017863064" lon="11.366993540755779"><ele>224.0</ele><time>2026-03-29T10:12:39.999Z</time></trkpt><trkpt lat="43.24575180014976" lon="11.367066150850073"><ele>224.0</ele><time>2026-03-29T10:12:40.999Z</time></trkpt><trkpt lat="43.2456850503436" lon="11.367132417369627"><ele>223.2</ele><time>2026-03-29T10:12:41.999Z</time></trkpt><trkpt lat="43.24560111421352" lon="11.367202892612735"><ele>222.39999999999998</ele><time>2026-03-29T10:12:42.999Z</time></trkpt><trkpt lat="43.24551501395215" lon="11.367265697645953"><ele>221.6</ele><time>2026-03-29T10:12:43.999Z</time></trkpt><trkpt lat="43.245428776435425" lon="11.367314218957114"><ele>220.8</ele><time>2026-03-29T10:12:44.999Z</time></trkpt><trkpt lat="43.245341250450025" lon="11.367361897841011"><ele>220.0</ele><time>2026-03-29T10:12:45.999Z</time></trkpt><trkpt lat="43.245241623282425" lon="11.36740376702357"><ele>220.0</ele><time>2026-03-29T10:12:46.999Z</time></trkpt><trkpt lat="43.245136980800474" lon="11.367443441713238"><ele>220.0</ele><time>2026-03-29T10:12:47.999Z</time></trkpt><trkpt lat="43.245023074472385" lon="11.367478696449632"><ele>220.0</ele><time>2026-03-29T10:12:48.999Z</time></trkpt><trkpt lat="43.24490452703949" lon="11.36751800330505"><ele>220.0</ele><time>2026-03-29T10:12:49.999Z</time></trkpt><trkpt lat="43.244785790947105" lon="11.367556114533349"><ele>220.6</ele><time>2026-03-29T10:12:50.999Z</time></trkpt><trkpt lat="43.244681171520156" lon="11.367588108024531"><ele>221.2</ele><time>2026-03-29T10:12:51.999Z</time></trkpt><trkpt lat="43.244581867336606" lon="11.367617566449175"><ele>221.8</ele><time>2026-03-29T10:12:52.999Z</time></trkpt><trkpt lat="43.24446643613064" lon="11.367650659879757"><ele>222.4</ele><time>2026-03-29T10:12:53.999Z</time></trkpt><trkpt lat="43.24436051706708" lon="11.367684321216885"><ele>223.0</ele><time>2026-03-29T10:12:54.999Z</time></trkpt><trkpt lat="43.24426575612183" lon="11.367714293803212"><ele>223.0</ele><time>2026-03-29T10:12:55.999Z</time></trkpt><trkpt lat="43.24417067638029" lon="11.367750441371191"><ele>223.0</ele><time>2026-03-29T10:12:56.999Z</time></trkpt><trkpt lat="43.24406796423082" lon="11.36778559717062"><ele>223.0</ele><time>2026-03-29T10:12:57.999Z</time></trkpt><trkpt lat="43.24395821430071" lon="11.367822652554686"><ele>223.0</ele><time>2026-03-29T10:12:58.999Z</time></trkpt><trkpt lat="43.243841485769906" lon="11.367861568821962"><ele>223.0</ele><time>2026-03-29T10:12:59.999Z</time></trkpt><trkpt lat="43.243733989496874" lon="11.367899138703576"><ele>223.60000000000002</ele><time>2026-03-29T10:13:00.999Z</time></trkpt><trkpt lat="43.24364161155684" lon="11.367922822113334"><ele>224.20000000000002</ele><time>2026-03-29T10:13:01.999Z</time></trkpt><trkpt lat="43.2435537576007" lon="11.367948795290742"><ele>224.8</ele><time>2026-03-29T10:13:02.999Z</time></trkpt><trkpt lat="43.24345845295266" lon="11.367968430846345"><ele>225.4</ele><time>2026-03-29T10:13:03.999Z</time></trkpt><trkpt lat="43.24335845497934" lon="11.367985085733274"><ele>226.0</ele><time>2026-03-29T10:13:04.999Z</time></trkpt><trkpt lat="43.24325902889541" lon="11.368000659671166"><ele>226.0</ele><time>2026-03-29T10:13:05.999Z</time></trkpt><trkpt lat="43.243157969143624" lon="11.368021245142147"><ele>226.00000000000003</ele><time>2026-03-29T10:13:06.999Z</time></trkpt><trkpt lat="43.243059888739474" lon="11.368052582592586"><ele>226.00000000000003</ele><time>2026-03-29T10:13:07.999Z</time></trkpt><trkpt lat="43.24295477640828" lon="11.368088949286339"><ele>226.0</ele><time>2026-03-29T10:13:08.999Z</time></trkpt><trkpt lat="43.24285177911431" lon="11.368133639829196"><ele>226.0</ele><time>2026-03-29T10:13:09.999Z</time></trkpt><trkpt lat="43.24275295997387" lon="11.368191815634807"><ele>225.20000000000002</ele><time>2026-03-29T10:13:10.999Z</time></trkpt><trkpt lat="43.24266651841284" lon="11.368260057246337"><ele>224.40000000000003</ele><time>2026-03-29T10:13:11.999Z</time></trkpt><trkpt lat="43.242579562600994" lon="11.36833855148995"><ele>223.6</ele><time>2026-03-29T10:13:12.999Z</time></trkpt><trkpt lat="43.24249281021823" lon="11.368429401244496"><ele>222.8</ele><time>2026-03-29T10:13:13.999Z</time></trkpt><trkpt lat="43.24241566226956" lon="11.368521254977793"><ele>222.0</ele><time>2026-03-29T10:13:14.999Z</time></trkpt><trkpt lat="43.24234114613863" lon="11.368623028679043"><ele>222.25</ele><time>2026-03-29T10:13:16Z</time></trkpt><trkpt lat="43.242265178004956" lon="11.368731806088821"><ele>222.5</ele><time>2026-03-29T10:13:17Z</time></trkpt><trkpt lat="43.24218174500331" lon="11.368839568938403"><ele>222.75</ele><time>2026-03-29T10:13:18Z</time></trkpt><trkpt lat="43.24209788879127" lon="11.368953856699486"><ele>223.0</ele><time>2026-03-29T10:13:19Z</time></trkpt><trkpt lat="43.24201603857867" lon="11.369073089422761"><ele>222.25</ele><time>2026-03-29T10:13:20Z</time></trkpt><trkpt lat="43.24193516018818" lon="11.369186228414405"><ele>221.5</ele><time>2026-03-29T10:13:21Z</time></trkpt><trkpt lat="43.241851197544825" lon="11.369293424547"><ele>220.75</ele><time>2026-03-29T10:13:22Z</time></trkpt><trkpt lat="43.241759322720895" lon="11.36940496440415"><ele>220.0</ele><time>2026-03-29T10:13:23Z</time></trkpt><trkpt lat="43.2416668285167" lon="11.369516570438178"><ele>220.0</ele><time>2026-03-29T10:13:24Z</time></trkpt><trkpt lat="43.24158494415685" lon="11.369614709904019"><ele>220.0</ele><time>2026-03-29T10:13:25Z</time></trkpt><trkpt lat="43.24149509652428" lon="11.369713822500659"><ele>220.0</ele><time>2026-03-29T10:13:26Z</time></trkpt><trkpt lat="43.24140172287972" lon="11.36981618709716"><ele>220.0</ele><time>2026-03-29T10:13:27Z</time></trkpt><trkpt lat="43.24131708017212" lon="11.36990629661877"><ele>219.0</ele><time>2026-03-29T10:13:28Z</time></trkpt><trkpt lat="43.24124143296117" lon="11.36998161428432"><ele>218.0</ele><time>2026-03-29T10:13:29Z</time></trkpt><trkpt lat="43.24116823791453" lon="11.3700500797131"><ele>217.0</ele><time>2026-03-29T10:13:30Z</time></trkpt><trkpt lat="43.241096722591294" lon="11.37011638602244"><ele>216.0</ele><time>2026-03-29T10:13:31Z</time></trkpt><trkpt lat="43.24101976249917" lon="11.370182545566415"><ele>215.0</ele><time>2026-03-29T10:13:32Z</time></trkpt><trkpt lat="43.24094140864266" lon="11.370250522445563"><ele>215.0</ele><time>2026-03-29T10:13:33Z</time></trkpt><trkpt lat="43.24086217322597" lon="11.370318214286705"><ele>215.0</ele><time>2026-03-29T10:13:34Z</time></trkpt><trkpt lat="43.240778400747686" lon="11.370393602270346"><ele>215.0</ele><time>2026-03-29T10:13:35Z</time></trkpt><trkpt lat="43.24069955560241" lon="11.370463003423811"><ele>215.0</ele><time>2026-03-29T10:13:36Z</time></trkpt><trkpt lat="43.24062341655328" lon="11.370543272721578"><ele>215.0</ele><time>2026-03-29T10:13:37Z</time></trkpt><trkpt lat="43.24054915694164" lon="11.37063124753263"><ele>215.5</ele><time>2026-03-29T10:13:38Z</time></trkpt><trkpt lat="43.240478810955494" lon="11.37072718882998"><ele>216.0</ele><time>2026-03-29T10:13:39Z</time></trkpt><trkpt lat="43.240403603202026" lon="11.37083641240782"><ele>216.5</ele><time>2026-03-29T10:13:40Z</time></trkpt><trkpt lat="43.24032531701787" lon="11.370957834797801"><ele>217.0</ele><time>2026-03-29T10:13:41Z</time></trkpt><trkpt lat="43.240242310398735" lon="11.37109741464245"><ele>217.0</ele><time>2026-03-29T10:13:42Z</time></trkpt><trkpt lat="43.24016699094005" lon="11.371231702224971"><ele>217.0</ele><time>2026-03-29T10:13:43Z</time></trkpt><trkpt lat="43.240097983815375" lon="11.371356998489931"><ele>217.0</ele><time>2026-03-29T10:13:44Z</time></trkpt><trkpt lat="43.24003421924318" lon="11.371469796554104"><ele>217.0</ele><time>2026-03-29T10:13:45Z</time></trkpt><trkpt lat="43.23997087678751" lon="11.371598775765197"><ele>216.25</ele><time>2026-03-29T10:13:46Z</time></trkpt><trkpt lat="43.23990038359563" lon="11.371733333879067"><ele>215.5</ele><time>2026-03-29T10:13:47Z</time></trkpt><trkpt lat="43.2398376496981" lon="11.371861863679252"><ele>214.75</ele><time>2026-03-29T10:13:48Z</time></trkpt><trkpt lat="43.23977637626219" lon="11.37198893398057"><ele>214.0</ele><time>2026-03-29T10:13:49Z</time></trkpt><trkpt lat="43.23971776753493" lon="11.372122118067544"><ele>213.79999999999998</ele><time>2026-03-29T10:13:50Z</time></trkpt><trkpt lat="43.2396593464931" lon="11.37225155260275"><ele>213.59999999999997</ele><time>2026-03-29T10:13:51Z</time></trkpt><trkpt lat="43.2396103132819" lon="11.372360908924518"><ele>213.4</ele><time>2026-03-29T10:13:52Z</time></trkpt><trkpt lat="43.23956743201318" lon="11.372458023109928"><ele>213.2</ele><time>2026-03-29T10:13:53Z</time></trkpt><trkpt lat="43.239513736020974" lon="11.372547294930898"><ele>213.0</ele><time>2026-03-29T10:13:54Z</time></trkpt><trkpt lat="43.23945385894344" lon="11.372618331815348"><ele>213.0</ele><time>2026-03-29T10:13:55Z</time></trkpt><trkpt lat="43.23938218368614" lon="11.372661488564505"><ele>213.0</ele><time>2026-03-29T10:13:56Z</time></trkpt><trkpt lat="43.23929593674416" lon="11.372686997442699"><ele>213.0</ele><time>2026-03-29T10:13:57Z</time></trkpt><trkpt lat="43.239189585337996" lon="11.372689198029944"><ele>213.0</ele><time>2026-03-29T10:13:58Z</time></trkpt><trkpt lat="43.23906114702236" lon="11.372686644410305"><ele>213.0</ele><time>2026-03-29T10:13:59Z</time></trkpt><trkpt lat="43.2389440402631" lon="11.372683978864803"><ele>213.0</ele><time>2026-03-29T10:14:00Z</time></trkpt><trkpt lat="43.23883908791037" lon="11.372690667764154"><ele>213.0</ele><time>2026-03-29T10:14:01Z</time></trkpt><trkpt lat="43.23872586886009" lon="11.37272221848691"><ele>213.0</ele><time>2026-03-29T10:14:02Z</time></trkpt><trkpt lat="43.238621101455195" lon="11.372765904240115"><ele>213.0</ele><time>2026-03-29T10:14:03Z</time></trkpt><trkpt lat="43.238525168802425" lon="11.372819578609235"><ele>213.0</ele><time>2026-03-29T10:14:04Z</time></trkpt><trkpt lat="43.238435183998455" lon="11.37287839664052"><ele>213.0</ele><time>2026-03-29T10:14:05Z</time></trkpt><trkpt lat="43.23834934727597" lon="11.372940176312202"><ele>213.0</ele><time>2026-03-29T10:14:06Z</time></trkpt><trkpt lat="43.238276033761906" lon="11.37300786963951"><ele>213.0</ele><time>2026-03-29T10:14:07Z</time></trkpt><trkpt lat="43.238225055236974" lon="11.373096440161328"><ele>213.0</ele><time>2026-03-29T10:14:08Z</time></trkpt><trkpt lat="43.23819654415128" lon="11.373202474673265"><ele>213.0</ele><time>2026-03-29T10:14:09Z</time></trkpt><trkpt lat="43.23818879743642" lon="11.37331315200296"><ele>213.0</ele><time>2026-03-29T10:14:10Z</time></trkpt><trkpt lat="43.23819734076258" lon="11.373440640752895"><ele>211.0</ele><time>2026-03-29T10:14:11Z</time></trkpt><trkpt lat="43.238209222884784" lon="11.373625469131799"><ele>209.0</ele><time>2026-03-29T10:14:12Z</time></trkpt><trkpt lat="43.23822173272087" lon="11.373824167084967"><ele>207.0</ele><time>2026-03-29T10:14:13Z</time></trkpt><trkpt lat="43.23823769366215" lon="11.373979947206877"><ele>205.0</ele><time>2026-03-29T10:14:14Z</time></trkpt><trkpt lat="43.23824998458114" lon="11.374136972547129"><ele>204.8</ele><time>2026-03-29T10:14:15Z</time></trkpt><trkpt lat="43.23826191461932" lon="11.374311669479145"><ele>204.6</ele><time>2026-03-29T10:14:16Z</time></trkpt><trkpt lat="43.238273253019806" lon="11.374470005230586"><ele>204.39999999999998</ele><time>2026-03-29T10:14:17Z</time></trkpt><trkpt lat="43.238276626454045" lon="11.374593688406463"><ele>204.2</ele><time>2026-03-29T10:14:18Z</time></trkpt><trkpt lat="43.23827717382013" lon="11.374703631909695"><ele>204.0</ele><time>2026-03-29T10:14:19Z</time></trkpt><trkpt lat="43.238264823870196" lon="11.374829599228285"><ele>204.0</ele><time>2026-03-29T10:14:20Z</time></trkpt><trkpt lat="43.238241660930434" lon="11.374949432040731"><ele>204.0</ele><time>2026-03-29T10:14:20.999Z</time></trkpt><trkpt lat="43.23820094739121" lon="11.37504304407278"><ele>204.0</ele><time>2026-03-29T10:14:21.999Z</time></trkpt><trkpt lat="43.238152905529134" lon="11.375119485881179"><ele>204.0</ele><time>2026-03-29T10:14:22.999Z</time></trkpt><trkpt lat="43.238083914696176" lon="11.375191615220977"><ele>204.0</ele><time>2026-03-29T10:14:23.999Z</time></trkpt><trkpt lat="43.23799440793559" lon="11.37526598685477"><ele>204.0</ele><time>2026-03-29T10:14:24.999Z</time></trkpt><trkpt lat="43.23789516756706" lon="11.375343162881823"><ele>204.0</ele><time>2026-03-29T10:14:25.999Z</time></trkpt><trkpt lat="43.23779336552357" lon="11.375424934397454"><ele>204.0</ele><time>2026-03-29T10:14:26.999Z</time></trkpt><trkpt lat="43.23769163037446" lon="11.375520168435527"><ele>204.0</ele><time>2026-03-29T10:14:27.999Z</time></trkpt><trkpt lat="43.237600585628485" lon="11.375616436775632"><ele>204.0</ele><time>2026-03-29T10:14:28.999Z</time></trkpt><trkpt lat="43.23750711384704" lon="11.375726123956296"><ele>203.0</ele><time>2026-03-29T10:14:29.999Z</time></trkpt><trkpt lat="43.23741137333337" lon="11.375829585725004"><ele>202.0</ele><time>2026-03-29T10:14:30.999Z</time></trkpt><trkpt lat="43.237324163352916" lon="11.37592550090882"><ele>201.0</ele><time>2026-03-29T10:14:31.999Z</time></trkpt><trkpt lat="43.23724420808894" lon="11.376013067862468"><ele>200.0</ele><time>2026-03-29T10:14:32.999Z</time></trkpt><trkpt lat="43.237168786851136" lon="11.376099073906925"><ele>199.0</ele><time>2026-03-29T10:14:33.999Z</time></trkpt><trkpt lat="43.23709179965361" lon="11.376191036168255"><ele>198.39999999999998</ele><time>2026-03-29T10:14:34.999Z</time></trkpt><trkpt lat="43.23700989067615" lon="11.37627599216258"><ele>197.8</ele><time>2026-03-29T10:14:35.999Z</time></trkpt><trkpt lat="43.23692416515944" lon="11.376334650480125"><ele>197.2</ele><time>2026-03-29T10:14:36.999Z</time></trkpt><trkpt lat="43.23682394428033" lon="11.376367074075397"><ele>196.60000000000002</ele><time>2026-03-29T10:14:37.999Z</time></trkpt><trkpt lat="43.23671185309202" lon="11.376377030442967"><ele>196.0</ele><time>2026-03-29T10:14:38.999Z</time></trkpt><trkpt lat="43.23659270776764" lon="11.376362497425243"><ele>196.0</ele><time>2026-03-29T10:14:39.999Z</time></trkpt><trkpt lat="43.236486063118925" lon="11.376321000542802"><ele>196.0</ele><time>2026-03-29T10:14:40.999Z</time></trkpt><trkpt lat="43.23639609042428" lon="11.37626634406458"><ele>196.0</ele><time>2026-03-29T10:14:41.999Z</time></trkpt><trkpt lat="43.236338538401355" lon="11.376175680631839"><ele>196.0</ele><time>2026-03-29T10:14:42.999Z</time></trkpt><trkpt lat="43.236294254942734" lon="11.376085981056184"><ele>196.0</ele><time>2026-03-29T10:14:43.999Z</time></trkpt><trkpt lat="43.236248550691805" lon="11.375978085376248"><ele>194.0</ele><time>2026-03-29T10:14:44.999Z</time></trkpt><trkpt lat="43.23622511277332" lon="11.37585898510215"><ele>192.0</ele><time>2026-03-29T10:14:45.999Z</time></trkpt><trkpt lat="43.23620603122183" lon="11.375736315923852"><ele>190.0</ele><time>2026-03-29T10:14:46.999Z</time></trkpt><trkpt lat="43.23619289626231" lon="11.37559811859403"><ele>188.0</ele><time>2026-03-29T10:14:47.999Z</time></trkpt><trkpt lat="43.23617559116605" lon="11.375456542865669"><ele>186.0</ele><time>2026-03-29T10:14:48.999Z</time></trkpt><trkpt lat="43.23618926563611" lon="11.3753251586902"><ele>185.20000000000002</ele><time>2026-03-29T10:14:49.999Z</time></trkpt><trkpt lat="43.2362365894685" lon="11.375217502318732"><ele>184.4</ele><time>2026-03-29T10:14:50.999Z</time></trkpt><trkpt lat="43.236292533831495" lon="11.37512140606844"><ele>183.6</ele><time>2026-03-29T10:14:51.999Z</time></trkpt><trkpt lat="43.236344582965465" lon="11.374997793921075"><ele>182.8</ele><time>2026-03-29T10:14:52.999Z</time></trkpt><trkpt lat="43.23638831170462" lon="11.374859035784477"><ele>182.0</ele><time>2026-03-29T10:14:53.999Z</time></trkpt><trkpt lat="43.23644030500008" lon="11.374732642354381"><ele>183.8</ele><time>2026-03-29T10:14:54.999Z</time></trkpt><trkpt lat="43.23649526006937" lon="11.374609643815718"><ele>185.6</ele><time>2026-03-29T10:14:55.999Z</time></trkpt><trkpt lat="43.236530475858096" lon="11.374466968918245"><ele>187.4</ele><time>2026-03-29T10:14:56.999Z</time></trkpt><trkpt lat="43.23655739582787" lon="11.374319126839916"><ele>189.20000000000002</ele><time>2026-03-29T10:14:57.999Z</time></trkpt><trkpt lat="43.23657470094223" lon="11.374183372554608"><ele>191.0</ele><time>2026-03-29T10:14:58.999Z</time></trkpt><trkpt lat="43.23658622969468" lon="11.374055934257697"><ele>191.0</ele><time>2026-03-29T10:14:59.999Z</time></trkpt><trkpt lat="43.236588090096085" lon="11.373930241972046"><ele>191.0</ele><time>2026-03-29T10:15:00.999Z</time></trkpt><trkpt lat="43.23657512557183" lon="11.373807907270587"><ele>191.0</ele><time>2026-03-29T10:15:01.999Z</time></trkpt><trkpt lat="43.23654937204675" lon="11.3736953681194"><ele>191.0</ele><time>2026-03-29T10:15:02.999Z</time></trkpt><trkpt lat="43.23649935425827" lon="11.373583587017427"><ele>191.0</ele><time>2026-03-29T10:15:03.999Z</time></trkpt><trkpt lat="43.23643201931002" lon="11.373485868519046"><ele>189.20000000000002</ele><time>2026-03-29T10:15:04.999Z</time></trkpt><trkpt lat="43.23634963955526" lon="11.373421725261649"><ele>187.4</ele><time>2026-03-29T10:15:05.999Z</time></trkpt><trkpt lat="43.23626166124716" lon="11.373385371948347"><ele>185.6</ele><time>2026-03-29T10:15:06.999Z</time></trkpt><trkpt lat="43.236166661642244" lon="11.373397131517631"><ele>183.8</ele><time>2026-03-29T10:15:07.999Z</time></trkpt><trkpt lat="43.236066623372736" lon="11.373397599113282"><ele>182.0</ele><time>2026-03-29T10:15:08.999Z</time></trkpt><trkpt lat="43.23594747038169" lon="11.373406055128848"><ele>182.0</ele><time>2026-03-29T10:15:09.999Z</time></trkpt><trkpt lat="43.23582022727657" lon="11.373397727001779"><ele>182.0</ele><time>2026-03-29T10:15:10.999Z</time></trkpt><trkpt lat="43.23568346362172" lon="11.373413741043803"><ele>182.0</ele><time>2026-03-29T10:15:11.999Z</time></trkpt><trkpt lat="43.23553414071702" lon="11.373455255972248"><ele>182.0</ele><time>2026-03-29T10:15:12.999Z</time></trkpt><trkpt lat="43.23537452215291" lon="11.373467177488852"><ele>181.0</ele><time>2026-03-29T10:15:13.999Z</time></trkpt><trkpt lat="43.23522911626012" lon="11.373485162170427"><ele>180.0</ele><time>2026-03-29T10:15:14.999Z</time></trkpt><trkpt lat="43.235094688760306" lon="11.373476365815158"><ele>179.0</ele><time>2026-03-29T10:15:15.999Z</time></trkpt><trkpt lat="43.23495212796592" lon="11.373507855185771"><ele>178.0</ele><time>2026-03-29T10:15:16.999Z</time></trkpt><trkpt lat="43.23480028620204" lon="11.373521769175147"><ele>178.0</ele><time>2026-03-29T10:15:17.999Z</time></trkpt><trkpt lat="43.234649740305144" lon="11.373530002247442"><ele>178.0</ele><time>2026-03-29T10:15:18.999Z</time></trkpt><trkpt lat="43.23450711368929" lon="11.37354214035541"><ele>178.0</ele><time>2026-03-29T10:15:19.999Z</time></trkpt><trkpt lat="43.23437560950811" lon="11.37355179492818"><ele>178.0</ele><time>2026-03-29T10:15:20.999Z</time></trkpt><trkpt lat="43.2342526437647" lon="11.373569277283492"><ele>178.0</ele><time>2026-03-29T10:15:22Z</time></trkpt><trkpt lat="43.23412400634255" lon="11.37357018093796"><ele>178.0</ele><time>2026-03-29T10:15:23Z</time></trkpt><trkpt lat="43.23400852484292" lon="11.373580375267018"><ele>178.0</ele><time>2026-03-29T10:15:24Z</time></trkpt><trkpt lat="43.23390754912276" lon="11.373587113144747"><ele>178.0</ele><time>2026-03-29T10:15:25Z</time></trkpt><trkpt lat="43.23380061571476" lon="11.373604020879133"><ele>178.25</ele><time>2026-03-29T10:15:26Z</time></trkpt><trkpt lat="43.23368567030369" lon="11.373642884442873"><ele>178.5</ele><time>2026-03-29T10:15:27Z</time></trkpt><trkpt lat="43.233566386509814" lon="11.373713773699365"><ele>178.75</ele><time>2026-03-29T10:15:28Z</time></trkpt><trkpt lat="43.23344660568683" lon="11.373797199775272"><ele>179.0</ele><time>2026-03-29T10:15:29Z</time></trkpt><trkpt lat="43.233327640844536" lon="11.373879170659537"><ele>179.0</ele><time>2026-03-29T10:15:30Z</time></trkpt><trkpt lat="43.23320325766033" lon="11.373969944411277"><ele>179.0</ele><time>2026-03-29T10:15:31Z</time></trkpt><trkpt lat="43.23307219513792" lon="11.374066012138195"><ele>179.0</ele><time>2026-03-29T10:15:32Z</time></trkpt><trkpt lat="43.23293810560085" lon="11.37416193852222"><ele>179.0</ele><time>2026-03-29T10:15:33Z</time></trkpt><trkpt lat="43.23279874804332" lon="11.374258553698109"><ele>179.0</ele><time>2026-03-29T10:15:34Z</time></trkpt><trkpt lat="43.23265796661216" lon="11.374356718539566"><ele>179.0</ele><time>2026-03-29T10:15:35Z</time></trkpt><trkpt lat="43.23252539643218" lon="11.374444048630156"><ele>179.0</ele><time>2026-03-29T10:15:36Z</time></trkpt><trkpt lat="43.232403423052126" lon="11.374509493521078"><ele>179.0</ele><time>2026-03-29T10:15:37Z</time></trkpt><trkpt lat="43.232302885505746" lon="11.374602626212287"><ele>179.0</ele><time>2026-03-29T10:15:38Z</time></trkpt><trkpt lat="43.23219376832425" lon="11.374674027151382"><ele>179.0</ele><time>2026-03-29T10:15:39Z</time></trkpt><trkpt lat="43.232082671870906" lon="11.374752976764539"><ele>179.0</ele><time>2026-03-29T10:15:40Z</time></trkpt><trkpt lat="43.2319684293171" lon="11.374833925804742"><ele>179.0</ele><time>2026-03-29T10:15:41Z</time></trkpt><trkpt lat="43.23185503462979" lon="11.374917646354723"><ele>179.0</ele><time>2026-03-29T10:15:42Z</time></trkpt><trkpt lat="43.23174299037308" lon="11.37499677234074"><ele>179.0</ele><time>2026-03-29T10:15:43Z</time></trkpt><trkpt lat="43.231627839154655" lon="11.375078115198287"><ele>179.0</ele><time>2026-03-29T10:15:44Z</time></trkpt><trkpt lat="43.23151199693245" lon="11.375163974846773"><ele>179.0</ele><time>2026-03-29T10:15:45Z</time></trkpt><trkpt lat="43.23139296426063" lon="11.375248641881727"><ele>179.0</ele><time>2026-03-29T10:15:46Z</time></trkpt><trkpt lat="43.23127069868592" lon="11.375335736844848"><ele>179.0</ele><time>2026-03-29T10:15:47Z</time></trkpt><trkpt lat="43.23114839918338" lon="11.3754225772424"><ele>179.0</ele><time>2026-03-29T10:15:48Z</time></trkpt><trkpt lat="43.23102530988578" lon="11.375504820844116"><ele>179.0</ele><time>2026-03-29T10:15:49Z</time></trkpt><trkpt lat="43.23090816204752" lon="11.375587508706037"><ele>179.0</ele><time>2026-03-29T10:15:50Z</time></trkpt><trkpt lat="43.23078069830105" lon="11.375680571310077"><ele>179.0</ele><time>2026-03-29T10:15:51Z</time></trkpt><trkpt lat="43.23064602703152" lon="11.375781675645397"><ele>179.0</ele><time>2026-03-29T10:15:52Z</time></trkpt><trkpt lat="43.23051736531585" lon="11.375869977418098"><ele>179.0</ele><time>2026-03-29T10:15:53Z</time></trkpt><trkpt lat="43.23040471195182" lon="11.375952535187082"><ele>180.25</ele><time>2026-03-29T10:15:54Z</time></trkpt><trkpt lat="43.23029140423561" lon="11.376037285659468"><ele>181.5</ele><time>2026-03-29T10:15:55Z</time></trkpt><trkpt lat="43.23017188580054" lon="11.376118797950756"><ele>182.75</ele><time>2026-03-29T10:15:56Z</time></trkpt><trkpt lat="43.23005644554301" lon="11.37620430781552"><ele>184.0</ele><time>2026-03-29T10:15:57Z</time></trkpt><trkpt lat="43.22993916220343" lon="11.376296029942264"><ele>184.5</ele><time>2026-03-29T10:15:58Z</time></trkpt><trkpt lat="43.22981922205495" lon="11.37639021316986"><ele>185.0</ele><time>2026-03-29T10:15:59Z</time></trkpt><trkpt lat="43.22969641977357" lon="11.376492743490214"><ele>185.5</ele><time>2026-03-29T10:16:00Z</time></trkpt><trkpt lat="43.22957503789538" lon="11.376590730830923"><ele>186.0</ele><time>2026-03-29T10:16:01Z</time></trkpt><trkpt lat="43.229466450568765" lon="11.376675830067878"><ele>186.0</ele><time>2026-03-29T10:16:02Z</time></trkpt><trkpt lat="43.22936364840166" lon="11.376757292320573"><ele>186.0</ele><time>2026-03-29T10:16:03Z</time></trkpt><trkpt lat="43.22926087813579" lon="11.376848802327972"><ele>186.0</ele><time>2026-03-29T10:16:04Z</time></trkpt><trkpt lat="43.22915097062811" lon="11.376940445769222"><ele>186.0</ele><time>2026-03-29T10:16:05Z</time></trkpt><trkpt lat="43.229045228678636" lon="11.37702439725658"><ele>187.0</ele><time>2026-03-29T10:16:06Z</time></trkpt><trkpt lat="43.22894490563118" lon="11.377091279906745"><ele>188.0</ele><time>2026-03-29T10:16:07Z</time></trkpt><trkpt lat="43.228837467590175" lon="11.377150010886385"><ele>189.0</ele><time>2026-03-29T10:16:08Z</time></trkpt><trkpt lat="43.228716370780255" lon="11.377176070276267"><ele>190.0</ele><time>2026-03-29T10:16:09Z</time></trkpt><trkpt lat="43.228586592208615" lon="11.377211738531695"><ele>187.0</ele><time>2026-03-29T10:16:10Z</time></trkpt><trkpt lat="43.22844978063024" lon="11.377234608917796"><ele>184.0</ele><time>2026-03-29T10:16:11Z</time></trkpt><trkpt lat="43.228309638681125" lon="11.377272154184869"><ele>181.0</ele><time>2026-03-29T10:16:12Z</time></trkpt><trkpt lat="43.22817061983655" lon="11.377274169755072"><ele>178.0</ele><time>2026-03-29T10:16:13Z</time></trkpt><trkpt lat="43.22803072812575" lon="11.377279080160786"><ele>178.0</ele><time>2026-03-29T10:16:14Z</time></trkpt><trkpt lat="43.22790023614413" lon="11.37729092026873"><ele>178.0</ele><time>2026-03-29T10:16:15Z</time></trkpt><trkpt lat="43.227778613306086" lon="11.377302588098889"><ele>178.0</ele><time>2026-03-29T10:16:16Z</time></trkpt><trkpt lat="43.22765430245736" lon="11.377311679937607"><ele>178.0</ele><time>2026-03-29T10:16:17Z</time></trkpt><trkpt lat="43.22753156114243" lon="11.377314511595843"><ele>178.0</ele><time>2026-03-29T10:16:18Z</time></trkpt><trkpt lat="43.22741815393271" lon="11.377307138767456"><ele>178.0</ele><time>2026-03-29T10:16:19Z</time></trkpt><trkpt lat="43.22730511408634" lon="11.377284832099996"><ele>178.0</ele><time>2026-03-29T10:16:19.999Z</time></trkpt><trkpt lat="43.22718515950478" lon="11.37724782792358"><ele>178.0</ele><time>2026-03-29T10:16:20.999Z</time></trkpt><trkpt lat="43.2270565698426" lon="11.377189604689491"><ele>178.75</ele><time>2026-03-29T10:16:21.999Z</time></trkpt><trkpt lat="43.22693309847341" lon="11.377111485600475"><ele>179.5</ele><time>2026-03-29T10:16:22.999Z</time></trkpt><trkpt lat="43.226820252140826" lon="11.37703675960871"><ele>180.25</ele><time>2026-03-29T10:16:23.999Z</time></trkpt><trkpt lat="43.22672007757009" lon="11.376956144378042"><ele>181.0</ele><time>2026-03-29T10:16:24.999Z</time></trkpt><trkpt lat="43.226618285763756" lon="11.376865049286268"><ele>181.0</ele><time>2026-03-29T10:16:25.999Z</time></trkpt><trkpt lat="43.226515213386975" lon="11.37675905316079"><ele>181.0</ele><time>2026-03-29T10:16:26.999Z</time></trkpt><trkpt lat="43.22641791793253" lon="11.37664260697096"><ele>181.0</ele><time>2026-03-29T10:16:27.999Z</time></trkpt><trkpt lat="43.22632918412555" lon="11.376510522945603"><ele>181.0</ele><time>2026-03-29T10:16:28.999Z</time></trkpt><trkpt lat="43.22625009806981" lon="11.376371082574737"><ele>180.5</ele><time>2026-03-29T10:16:29.999Z</time></trkpt><trkpt lat="43.226180107968396" lon="11.376224946233702"><ele>180.0</ele><time>2026-03-29T10:16:30.999Z</time></trkpt><trkpt lat="43.22612266763464" lon="11.37606767304492"><ele>179.5</ele><time>2026-03-29T10:16:31.999Z</time></trkpt><trkpt lat="43.22607163090892" lon="11.375899871629382"><ele>179.0</ele><time>2026-03-29T10:16:32.999Z</time></trkpt><trkpt lat="43.22602936989792" lon="11.375723603024184"><ele>179.0</ele><time>2026-03-29T10:16:33.999Z</time></trkpt><trkpt lat="43.22603069325227" lon="11.37555813341747"><ele>179.0</ele><time>2026-03-29T10:16:34.999Z</time></trkpt><trkpt lat="43.226025362481984" lon="11.375402881468023"><ele>179.0</ele><time>2026-03-29T10:16:35.999Z</time></trkpt><trkpt lat="43.22603244576189" lon="11.375245566781189"><ele>179.0</ele><time>2026-03-29T10:16:36.999Z</time></trkpt><trkpt lat="43.226047475745496" lon="11.375070208268458"><ele>178.75</ele><time>2026-03-29T10:16:37.999Z</time></trkpt><trkpt lat="43.22606412733284" lon="11.374885343846103"><ele>178.5</ele><time>2026-03-29T10:16:38.999Z</time></trkpt><trkpt lat="43.22608684727716" lon="11.374687475130074"><ele>178.25</ele><time>2026-03-29T10:16:39.999Z</time></trkpt><trkpt lat="43.22611013592027" lon="11.374484773007769"><ele>178.0</ele><time>2026-03-29T10:16:40.999Z</time></trkpt><trkpt lat="43.22612672472691" lon="11.374310599073794"><ele>178.0</ele><time>2026-03-29T10:16:41.999Z</time></trkpt><trkpt lat="43.22612528105352" lon="11.374143812215262"><ele>178.0</ele><time>2026-03-29T10:16:42.999Z</time></trkpt><trkpt lat="43.22613415297612" lon="11.373968378202822"><ele>178.0</ele><time>2026-03-29T10:16:43.999Z</time></trkpt><trkpt lat="43.22612813020878" lon="11.373794776470197"><ele>178.0</ele><time>2026-03-29T10:16:44.999Z</time></trkpt><trkpt lat="43.2261099749215" lon="11.373631202808516"><ele>178.0</ele><time>2026-03-29T10:16:45.999Z</time></trkpt><trkpt lat="43.22607730714042" lon="11.3734724074427"><ele>178.0</ele><time>2026-03-29T10:16:46.999Z</time></trkpt><trkpt lat="43.22603110595921" lon="11.373309252296314"><ele>178.0</ele><time>2026-03-29T10:16:47.999Z</time></trkpt><trkpt lat="43.225996856818874" lon="11.373140754973832"><ele>178.0</ele><time>2026-03-29T10:16:48.999Z</time></trkpt><trkpt lat="43.225950481313824" lon="11.372991409446996"><ele>178.8</ele><time>2026-03-29T10:16:49.999Z</time></trkpt><trkpt lat="43.225904013196285" lon="11.372845321861762"><ele>179.60000000000002</ele><time>2026-03-29T10:16:50.999Z</time></trkpt><trkpt lat="43.22585281199794" lon="11.372711397841034"><ele>180.39999999999998</ele><time>2026-03-29T10:16:51.999Z</time></trkpt><trkpt lat="43.2258085784155" lon="11.372583604893432"><ele>181.2</ele><time>2026-03-29T10:16:52.999Z</time></trkpt><trkpt lat="43.22577750623041" lon="11.372461131712555"><ele>182.0</ele><time>2026-03-29T10:16:53.999Z</time></trkpt><trkpt lat="43.22573909874373" lon="11.372371840117102"><ele>182.0</ele><time>2026-03-29T10:16:54.999Z</time></trkpt><trkpt lat="43.2257058906964" lon="11.372291640175382"><ele>182.0</ele><time>2026-03-29T10:16:55.999Z</time></trkpt><trkpt lat="43.22566417893111" lon="11.372223907129218"><ele>182.0</ele><time>2026-03-29T10:16:56.999Z</time></trkpt><trkpt lat="43.225552585115665" lon="11.37213225753621"><ele>182.0</ele><time>2026-03-29T10:16:58.999Z</time></trkpt><trkpt lat="43.22546823070387" lon="11.372142633523179"><ele>182.0</ele><time>2026-03-29T10:16:59.999Z</time></trkpt><trkpt lat="43.22540650465127" lon="11.372202933157144"><ele>182.0</ele><time>2026-03-29T10:17:00.999Z</time></trkpt><trkpt lat="43.225289691244306" lon="11.37232396849426"><ele>181.6</ele><time>2026-03-29T10:17:02.999Z</time></trkpt><trkpt lat="43.22523580170085" lon="11.372433967754215"><ele>181.2</ele><time>2026-03-29T10:17:03.999Z</time></trkpt><trkpt lat="43.225189611802136" lon="11.372565831354462"><ele>180.8</ele><time>2026-03-29T10:17:04.999Z</time></trkpt><trkpt lat="43.225158768866926" lon="11.372712321477014"><ele>180.4</ele><time>2026-03-29T10:17:05.999Z</time></trkpt><trkpt lat="43.225101356797445" lon="11.37284849392089"><ele>180.0</ele><time>2026-03-29T10:17:06.999Z</time></trkpt><trkpt lat="43.22505236336575" lon="11.372984910715202"><ele>180.0</ele><time>2026-03-29T10:17:07.999Z</time></trkpt><trkpt lat="43.22497622717063" lon="11.373102961819153"><ele>180.0</ele><time>2026-03-29T10:17:08.999Z</time></trkpt><trkpt lat="43.22493069194491" lon="11.373218025120718"><ele>180.0</ele><time>2026-03-29T10:17:09.999Z</time></trkpt><trkpt lat="43.22486872719539" lon="11.37329960371055"><ele>180.0</ele><time>2026-03-29T10:17:10.999Z</time></trkpt><trkpt lat="43.22480119992185" lon="11.373357598640586"><ele>180.0</ele><time>2026-03-29T10:17:11.999Z</time></trkpt><trkpt lat="43.22471763216143" lon="11.373416388866769"><ele>181.6</ele><time>2026-03-29T10:17:12.999Z</time></trkpt><trkpt lat="43.22462434943042" lon="11.373464649407824"><ele>183.2</ele><time>2026-03-29T10:17:13.999Z</time></trkpt><trkpt lat="43.22452106650719" lon="11.373501709777669"><ele>184.8</ele><time>2026-03-29T10:17:14.999Z</time></trkpt><trkpt lat="43.22441781095125" lon="11.373525075631314"><ele>186.4</ele><time>2026-03-29T10:17:15.999Z</time></trkpt><trkpt lat="43.22430611191286" lon="11.373527863112757"><ele>188.0</ele><time>2026-03-29T10:17:16.999Z</time></trkpt><trkpt lat="43.22420285000324" lon="11.373507656760221"><ele>188.0</ele><time>2026-03-29T10:17:17.999Z</time></trkpt><trkpt lat="43.22412129086863" lon="11.373478241385186"><ele>188.0</ele><time>2026-03-29T10:17:18.999Z</time></trkpt><trkpt lat="43.224046107795886" lon="11.37343536900397"><ele>188.0</ele><time>2026-03-29T10:17:19.999Z</time></trkpt><trkpt lat="43.22397184007744" lon="11.373387571591424"><ele>188.0</ele><time>2026-03-29T10:17:20.999Z</time></trkpt><trkpt lat="43.223897902728844" lon="11.373332093499306"><ele>188.0</ele><time>2026-03-29T10:17:21.999Z</time></trkpt><trkpt lat="43.22382645282795" lon="11.373261116826189"><ele>188.0</ele><time>2026-03-29T10:17:22.999Z</time></trkpt><trkpt lat="43.22375698611176" lon="11.373175372971158"><ele>191.60000000000002</ele><time>2026-03-29T10:17:23.999Z</time></trkpt><trkpt lat="43.22369956658488" lon="11.373071644688862"><ele>195.20000000000002</ele><time>2026-03-29T10:17:24.999Z</time></trkpt><trkpt lat="43.22364212572117" lon="11.372953510176782"><ele>198.8</ele><time>2026-03-29T10:17:25.999Z</time></trkpt><trkpt lat="43.22361340831082" lon="11.372797287657805"><ele>202.4</ele><time>2026-03-29T10:17:26.999Z</time></trkpt><trkpt lat="43.223596232824534" lon="11.372653612103484"><ele>206.0</ele><time>2026-03-29T10:17:28Z</time></trkpt><trkpt lat="43.22359913244485" lon="11.372535174979813"><ele>206.0</ele><time>2026-03-29T10:17:29Z</time></trkpt><trkpt lat="43.22361070131522" lon="11.372410298165365"><ele>206.0</ele><time>2026-03-29T10:17:30Z</time></trkpt><trkpt lat="43.22362122484164" lon="11.372262556827675"><ele>206.0</ele><time>2026-03-29T10:17:31Z</time></trkpt><trkpt lat="43.22365165216192" lon="11.372090495127042"><ele>206.0</ele><time>2026-03-29T10:17:32Z</time></trkpt><trkpt lat="43.22365234644388" lon="11.371954374055477"><ele>206.0</ele><time>2026-03-29T10:17:33Z</time></trkpt><trkpt lat="43.22364086840611" lon="11.371825976639212"><ele>206.0</ele><time>2026-03-29T10:17:34Z</time></trkpt><trkpt lat="43.223629305958895" lon="11.371681830475334"><ele>206.0</ele><time>2026-03-29T10:17:35Z</time></trkpt><trkpt lat="43.223580885530296" lon="11.371535550988847"><ele>206.0</ele><time>2026-03-29T10:17:36Z</time></trkpt><trkpt lat="43.22350355374559" lon="11.371406300985331"><ele>206.0</ele><time>2026-03-29T10:17:37Z</time></trkpt><trkpt lat="43.22341793114855" lon="11.371292372156685"><ele>205.33333333333334</ele><time>2026-03-29T10:17:38Z</time></trkpt><trkpt lat="43.22332634543928" lon="11.37119826379894"><ele>204.66666666666669</ele><time>2026-03-29T10:17:39Z</time></trkpt><trkpt lat="43.22324386915846" lon="11.371136447812928"><ele>204.0</ele><time>2026-03-29T10:17:40Z</time></trkpt><trkpt lat="43.223171115207286" lon="11.37112821717847"><ele>203.33333333333331</ele><time>2026-03-29T10:17:41Z</time></trkpt><trkpt lat="43.223103534984105" lon="11.371141397513632"><ele>202.66666666666666</ele><time>2026-03-29T10:17:42Z</time></trkpt><trkpt lat="43.22303677935875" lon="11.371197593000911"><ele>202.0</ele><time>2026-03-29T10:17:43Z</time></trkpt><trkpt lat="43.22296867504379" lon="11.371242985976597"><ele>201.8</ele><time>2026-03-29T10:17:44Z</time></trkpt><trkpt lat="43.222902626687734" lon="11.371304744081815"><ele>201.6</ele><time>2026-03-29T10:17:45Z</time></trkpt><trkpt lat="43.22284019046999" lon="11.37139341691535"><ele>201.4</ele><time>2026-03-29T10:17:46Z</time></trkpt><trkpt lat="43.22278413482405" lon="11.371501833976295"><ele>201.20000000000002</ele><time>2026-03-29T10:17:47Z</time></trkpt><trkpt lat="43.22271973954061" lon="11.371628448714851"><ele>201.0</ele><time>2026-03-29T10:17:48Z</time></trkpt><trkpt lat="43.22264632938781" lon="11.371764168624878"><ele>202.75</ele><time>2026-03-29T10:17:49Z</time></trkpt><trkpt lat="43.22256178016082" lon="11.37191408666003"><ele>204.5</ele><time>2026-03-29T10:17:50Z</time></trkpt><trkpt lat="43.222468079955945" lon="11.372068560857768"><ele>206.25</ele><time>2026-03-29T10:17:51Z</time></trkpt><trkpt lat="43.22238067199794" lon="11.372187446890017"><ele>208.0</ele><time>2026-03-29T10:17:52Z</time></trkpt><trkpt lat="43.222284881253955" lon="11.37230318858153"><ele>211.25</ele><time>2026-03-29T10:17:53Z</time></trkpt><trkpt lat="43.222174884545005" lon="11.372417107412732"><ele>214.5</ele><time>2026-03-29T10:17:54Z</time></trkpt><trkpt lat="43.22206300561341" lon="11.372510662158131"><ele>217.75</ele><time>2026-03-29T10:17:55Z</time></trkpt><trkpt lat="43.22196233293544" lon="11.372575549673556"><ele>221.0</ele><time>2026-03-29T10:17:56Z</time></trkpt><trkpt lat="43.22185522910233" lon="11.372620121157377"><ele>221.0</ele><time>2026-03-29T10:17:57Z</time></trkpt><trkpt lat="43.22174267295754" lon="11.37265852008492"><ele>221.0</ele><time>2026-03-29T10:17:58Z</time></trkpt><trkpt lat="43.22162621817954" lon="11.37269070783515"><ele>221.0</ele><time>2026-03-29T10:17:59Z</time></trkpt><trkpt lat="43.221505541854704" lon="11.372699358059995"><ele>221.0</ele><time>2026-03-29T10:18:00Z</time></trkpt><trkpt lat="43.22137209964846" lon="11.372728453748223"><ele>223.0</ele><time>2026-03-29T10:18:01Z</time></trkpt><trkpt lat="43.221223022930644" lon="11.372760247852298"><ele>225.0</ele><time>2026-03-29T10:18:02Z</time></trkpt><trkpt lat="43.22106725069724" lon="11.37279233651822"><ele>227.0</ele><time>2026-03-29T10:18:03Z</time></trkpt><trkpt lat="43.22092748336891" lon="11.372820824375175"><ele>227.0</ele><time>2026-03-29T10:18:04Z</time></trkpt><trkpt lat="43.220810911810915" lon="11.372844793621011"><ele>227.0</ele><time>2026-03-29T10:18:05Z</time></trkpt><trkpt lat="43.22069298561252" lon="11.372870029060685"><ele>227.0</ele><time>2026-03-29T10:18:06Z</time></trkpt><trkpt lat="43.220569246904674" lon="11.372903044054171"><ele>227.0</ele><time>2026-03-29T10:18:07Z</time></trkpt><trkpt lat="43.220453909535586" lon="11.372932214066594"><ele>227.8</ele><time>2026-03-29T10:18:08Z</time></trkpt><trkpt lat="43.22035291360898" lon="11.372959938540541"><ele>228.6</ele><time>2026-03-29T10:18:09Z</time></trkpt><trkpt lat="43.220253227856325" lon="11.372977588575528"><ele>229.40000000000003</ele><time>2026-03-29T10:18:10Z</time></trkpt><trkpt lat="43.22016051643722" lon="11.372996644578972"><ele>230.20000000000002</ele><time>2026-03-29T10:18:11Z</time></trkpt><trkpt lat="43.220070399681674" lon="11.373014346933154"><ele>231.0</ele><time>2026-03-29T10:18:12Z</time></trkpt><trkpt lat="43.21996739310336" lon="11.373038274833648"><ele>231.0</ele><time>2026-03-29T10:18:13Z</time></trkpt><trkpt lat="43.21985833382563" lon="11.373054865034266"><ele>231.00000000000003</ele><time>2026-03-29T10:18:14Z</time></trkpt><trkpt lat="43.21975206818018" lon="11.373075094224383"><ele>231.00000000000003</ele><time>2026-03-29T10:18:15Z</time></trkpt><trkpt lat="43.219658133256026" lon="11.373063735675988"><ele>231.0</ele><time>2026-03-29T10:18:16Z</time></trkpt><trkpt lat="43.219559428342244" lon="11.373084418186718"><ele>231.0</ele><time>2026-03-29T10:18:17Z</time></trkpt><trkpt lat="43.21945256876926" lon="11.373090451179564"><ele>234.25</ele><time>2026-03-29T10:18:18Z</time></trkpt><trkpt lat="43.21932125149765" lon="11.373068043404237"><ele>237.5</ele><time>2026-03-29T10:18:19Z</time></trkpt><trkpt lat="43.21921357316306" lon="11.3730568402531"><ele>240.75</ele><time>2026-03-29T10:18:20Z</time></trkpt><trkpt lat="43.21913834435671" lon="11.373039834082705"><ele>244.0</ele><time>2026-03-29T10:18:21Z</time></trkpt><trkpt lat="43.21900528175594" lon="11.373005538470053"><ele>245.6</ele><time>2026-03-29T10:18:23Z</time></trkpt><trkpt lat="43.21889049551847" lon="11.37294764736993"><ele>247.2</ele><time>2026-03-29T10:18:25Z</time></trkpt><trkpt lat="43.218780623645415" lon="11.372897993464626"><ele>248.79999999999998</ele><time>2026-03-29T10:18:27Z</time></trkpt><trkpt lat="43.21871582351784" lon="11.372868356189349"><ele>250.39999999999998</ele><time>2026-03-29T10:18:28Z</time></trkpt><trkpt lat="43.218633704383286" lon="11.372844115030553"><ele>252.0</ele><time>2026-03-29T10:18:29Z</time></trkpt><trkpt lat="43.21854205377047" lon="11.372786617366318"><ele>252.0</ele><time>2026-03-29T10:18:30Z</time></trkpt><trkpt lat="43.21843410744107" lon="11.372735690535425"><ele>252.0</ele><time>2026-03-29T10:18:31Z</time></trkpt><trkpt lat="43.21832611208044" lon="11.3726765165906"><ele>252.0</ele><time>2026-03-29T10:18:32Z</time></trkpt><trkpt lat="43.21823362286001" lon="11.37264540859313"><ele>252.0</ele><time>2026-03-29T10:18:33Z</time></trkpt><trkpt lat="43.2181491717185" lon="11.372587199380781"><ele>252.0</ele><time>2026-03-29T10:18:34Z</time></trkpt><trkpt lat="43.21804742915783" lon="11.37254397139583"><ele>250.33333333333334</ele><time>2026-03-29T10:18:34.999Z</time></trkpt><trkpt lat="43.21795108933954" lon="11.372497120138924"><ele>248.66666666666669</ele><time>2026-03-29T10:18:35.999Z</time></trkpt><trkpt lat="43.217865768015194" lon="11.37245774858687"><ele>247.0</ele><time>2026-03-29T10:18:36.999Z</time></trkpt><trkpt lat="43.21778733130696" lon="11.372417181476683"><ele>245.33333333333334</ele><time>2026-03-29T10:18:37.999Z</time></trkpt><trkpt lat="43.21771332112367" lon="11.37237939621258"><ele>243.66666666666669</ele><time>2026-03-29T10:18:38.999Z</time></trkpt><trkpt lat="43.217646787792965" lon="11.37234589911313"><ele>242.0</ele><time>2026-03-29T10:18:39.999Z</time></trkpt><trkpt lat="43.21758793079147" lon="11.372312248372266"><ele>242.0</ele><time>2026-03-29T10:18:40.999Z</time></trkpt><trkpt lat="43.21748996820736" lon="11.372266374980908"><ele>242.0</ele><time>2026-03-29T10:18:42.999Z</time></trkpt><trkpt lat="43.217395367000684" lon="11.372226171728478"><ele>242.0</ele><time>2026-03-29T10:18:44.999Z</time></trkpt><trkpt lat="43.21732540486958" lon="11.372193967576226"><ele>242.0</ele><time>2026-03-29T10:18:45.999Z</time></trkpt><trkpt lat="43.21723775649052" lon="11.372145445967401"><ele>242.0</ele><time>2026-03-29T10:18:46.999Z</time></trkpt><trkpt lat="43.217136167082984" lon="11.3720925655376"><ele>241.2</ele><time>2026-03-29T10:18:47.999Z</time></trkpt><trkpt lat="43.21703434202208" lon="11.3720329621649"><ele>240.39999999999998</ele><time>2026-03-29T10:18:48.999Z</time></trkpt><trkpt lat="43.21693411336053" lon="11.371981234961938"><ele>239.60000000000002</ele><time>2026-03-29T10:18:49.999Z</time></trkpt><trkpt lat="43.216835631684155" lon="11.371927594735888"><ele>238.8</ele><time>2026-03-29T10:18:50.999Z</time></trkpt><trkpt lat="43.21672307486195" lon="11.37187240049524"><ele>238.0</ele><time>2026-03-29T10:18:51.999Z</time></trkpt><trkpt lat="43.21661272979551" lon="11.371817576705762"><ele>238.0</ele><time>2026-03-29T10:18:52.999Z</time></trkpt><trkpt lat="43.21650484704206" lon="11.371758941620827"><ele>238.0</ele><time>2026-03-29T10:18:53.999Z</time></trkpt><trkpt lat="43.21640042412105" lon="11.371707244488592"><ele>238.0</ele><time>2026-03-29T10:18:54.999Z</time></trkpt><trkpt lat="43.21631584467955" lon="11.371665730138224"><ele>238.0</ele><time>2026-03-29T10:18:55.999Z</time></trkpt><trkpt lat="43.2162479842009" lon="11.371630426810912"><ele>238.0</ele><time>2026-03-29T10:18:56.999Z</time></trkpt><trkpt lat="43.216181701074134" lon="11.371597936382452"><ele>238.28571428571428</ele><time>2026-03-29T10:18:57.999Z</time></trkpt><trkpt lat="43.216112541787496" lon="11.371567492035659"><ele>238.57142857142856</ele><time>2026-03-29T10:18:58.999Z</time></trkpt><trkpt lat="43.2160445103498" lon="11.371539687119208"><ele>238.85714285714286</ele><time>2026-03-29T10:18:59.999Z</time></trkpt><trkpt lat="43.21598697031774" lon="11.371488112101453"><ele>239.14285714285714</ele><time>2026-03-29T10:19:00.999Z</time></trkpt><trkpt lat="43.21591869135906" lon="11.371467714745771"><ele>239.42857142857142</ele><time>2026-03-29T10:19:01.999Z</time></trkpt><trkpt lat="43.215853083272535" lon="11.371419577779939"><ele>239.71428571428572</ele><time>2026-03-29T10:19:02.999Z</time></trkpt><trkpt lat="43.215790831576186" lon="11.371371626655659"><ele>240.0</ele><time>2026-03-29T10:19:03.999Z</time></trkpt><trkpt lat="43.2157466888031" lon="11.371297491166208"><ele>240.0</ele><time>2026-03-29T10:19:04.999Z</time></trkpt><trkpt lat="43.21568319199254" lon="11.371243410203544"><ele>240.0</ele><time>2026-03-29T10:19:05.999Z</time></trkpt><trkpt lat="43.21562383947032" lon="11.371162138704896"><ele>240.0</ele><time>2026-03-29T10:19:06.999Z</time></trkpt><trkpt lat="43.21555152120644" lon="11.371087561900689"><ele>240.0</ele><time>2026-03-29T10:19:07.999Z</time></trkpt><trkpt lat="43.21547189552951" lon="11.371011167548815"><ele>240.0</ele><time>2026-03-29T10:19:08.999Z</time></trkpt><trkpt lat="43.21537926525712" lon="11.370930958642056"><ele>240.0</ele><time>2026-03-29T10:19:09.999Z</time></trkpt><trkpt lat="43.21528608350856" lon="11.370862218238523"><ele>240.0</ele><time>2026-03-29T10:19:10.999Z</time></trkpt><trkpt lat="43.21520142659834" lon="11.370810970646303"><ele>240.0</ele><time>2026-03-29T10:19:11.999Z</time></trkpt><trkpt lat="43.21511484776555" lon="11.37076450459867"><ele>240.0</ele><time>2026-03-29T10:19:12.999Z</time></trkpt><trkpt lat="43.21502908797947" lon="11.370727528360755"><ele>240.0</ele><time>2026-03-29T10:19:13.999Z</time></trkpt><trkpt lat="43.21495522303429" lon="11.370696429044811"><ele>240.0</ele><time>2026-03-29T10:19:14.999Z</time></trkpt><trkpt lat="43.21487781855246" lon="11.370668602077545"><ele>240.0</ele><time>2026-03-29T10:19:15.999Z</time></trkpt><trkpt lat="43.21478628422072" lon="11.370660649680032"><ele>240.0</ele><time>2026-03-29T10:19:16.999Z</time></trkpt><trkpt lat="43.21468587417898" lon="11.370690209483246"><ele>240.0</ele><time>2026-03-29T10:19:17.999Z</time></trkpt><trkpt lat="43.21458582699757" lon="11.370736006641987"><ele>240.0</ele><time>2026-03-29T10:19:18.999Z</time></trkpt><trkpt lat="43.214484511193696" lon="11.370797178420977"><ele>237.0</ele><time>2026-03-29T10:19:19.999Z</time></trkpt><trkpt lat="43.2143754903601" lon="11.370864120934995"><ele>234.0</ele><time>2026-03-29T10:19:20.999Z</time></trkpt><trkpt lat="43.214265005230345" lon="11.37093655755559"><ele>231.0</ele><time>2026-03-29T10:19:21.999Z</time></trkpt><trkpt lat="43.21415683955274" lon="11.371007992672245"><ele>228.0</ele><time>2026-03-29T10:19:22.999Z</time></trkpt><trkpt lat="43.21406382267997" lon="11.371093762946288"><ele>227.0</ele><time>2026-03-29T10:19:23.999Z</time></trkpt><trkpt lat="43.213968831164344" lon="11.371149869914275"><ele>226.0</ele><time>2026-03-29T10:19:24.999Z</time></trkpt><trkpt lat="43.21389885390118" lon="11.371193309801738"><ele>225.0</ele><time>2026-03-29T10:19:25.999Z</time></trkpt><trkpt lat="43.21378768383183" lon="11.37126100065102"><ele>224.0</ele><time>2026-03-29T10:19:27.999Z</time></trkpt><trkpt lat="43.21372178248663" lon="11.37130003215942"><ele>223.0</ele><time>2026-03-29T10:19:28.999Z</time></trkpt><trkpt lat="43.21364923074501" lon="11.37132895671604"><ele>222.0</ele><time>2026-03-29T10:19:29.999Z</time></trkpt><trkpt lat="43.213560582401875" lon="11.37136471410951"><ele>222.0</ele><time>2026-03-29T10:19:30.999Z</time></trkpt><trkpt lat="43.213490363658934" lon="11.37137466027558"><ele>222.0</ele><time>2026-03-29T10:19:31.999Z</time></trkpt><trkpt lat="43.213417511089006" lon="11.37136743940154"><ele>222.0</ele><time>2026-03-29T10:19:32.999Z</time></trkpt><trkpt lat="43.213345045926474" lon="11.371331140172593"><ele>222.0</ele><time>2026-03-29T10:19:34Z</time></trkpt><trkpt lat="43.21327771755244" lon="11.371262385209567"><ele>222.0</ele><time>2026-03-29T10:19:35Z</time></trkpt><trkpt lat="43.21320792397002" lon="11.371161760999822"><ele>222.0</ele><time>2026-03-29T10:19:36Z</time></trkpt><trkpt lat="43.21315179789415" lon="11.371059053087434"><ele>222.0</ele><time>2026-03-29T10:19:37Z</time></trkpt><trkpt lat="43.213092812646394" lon="11.37094522187722"><ele>222.0</ele><time>2026-03-29T10:19:38Z</time></trkpt><trkpt lat="43.21303093473093" lon="11.370826306587363"><ele>222.0</ele><time>2026-03-29T10:19:39Z</time></trkpt><trkpt lat="43.21296558620823" lon="11.370702575696292"><ele>222.0</ele><time>2026-03-29T10:19:40Z</time></trkpt><trkpt lat="43.21290163034225" lon="11.370580037330676"><ele>222.0</ele><time>2026-03-29T10:19:41Z</time></trkpt><trkpt lat="43.2128388565012" lon="11.370456243532924"><ele>223.25</ele><time>2026-03-29T10:19:42Z</time></trkpt><trkpt lat="43.21277532282189" lon="11.37032114614552"><ele>224.5</ele><time>2026-03-29T10:19:43Z</time></trkpt><trkpt lat="43.212716269702604" lon="11.37018928701005"><ele>225.75</ele><time>2026-03-29T10:19:44Z</time></trkpt><trkpt lat="43.212651118938005" lon="11.370058947527635"><ele>227.0</ele><time>2026-03-29T10:19:45Z</time></trkpt><trkpt lat="43.21257826292332" lon="11.369927799096251"><ele>227.0</ele><time>2026-03-29T10:19:46Z</time></trkpt><trkpt lat="43.2124956471247" lon="11.36979520823538"><ele>227.0</ele><time>2026-03-29T10:19:47Z</time></trkpt><trkpt lat="43.212405173369156" lon="11.369654521511762"><ele>227.0</ele><time>2026-03-29T10:19:48Z</time></trkpt><trkpt lat="43.21232611535741" lon="11.369536930311531"><ele>227.0</ele><time>2026-03-29T10:19:49Z</time></trkpt><trkpt lat="43.2122495119311" lon="11.369416896461594"><ele>228.75</ele><time>2026-03-29T10:19:50Z</time></trkpt><trkpt lat="43.21216831880976" lon="11.369288525619366"><ele>230.5</ele><time>2026-03-29T10:19:51Z</time></trkpt><trkpt lat="43.21208504731891" lon="11.369181642947542"><ele>232.25</ele><time>2026-03-29T10:19:52Z</time></trkpt><trkpt lat="43.2119976609127" lon="11.36909615619727"><ele>234.0</ele><time>2026-03-29T10:19:53Z</time></trkpt><trkpt lat="43.21190049085959" lon="11.369020404286132"><ele>234.0</ele><time>2026-03-29T10:19:54Z</time></trkpt><trkpt lat="43.211790028416424" lon="11.368948406651695"><ele>234.0</ele><time>2026-03-29T10:19:55Z</time></trkpt><trkpt lat="43.21167950630489" lon="11.368875923106053"><ele>234.0</ele><time>2026-03-29T10:19:56Z</time></trkpt><trkpt lat="43.21155811843934" lon="11.36879894336689"><ele>234.0</ele><time>2026-03-29T10:19:57Z</time></trkpt><trkpt lat="43.21144441809134" lon="11.36875171954545"><ele>233.75</ele><time>2026-03-29T10:19:58Z</time></trkpt><trkpt lat="43.211340859667885" lon="11.368714850832744"><ele>233.5</ele><time>2026-03-29T10:19:59Z</time></trkpt><trkpt lat="43.211227420511946" lon="11.368677091917496"><ele>233.25</ele><time>2026-03-29T10:20:00Z</time></trkpt><trkpt lat="43.211106077213174" lon="11.368612355969573"><ele>233.0</ele><time>2026-03-29T10:20:01Z</time></trkpt><trkpt lat="43.21097823034488" lon="11.368591602442137"><ele>233.0</ele><time>2026-03-29T10:20:02Z</time></trkpt><trkpt lat="43.21085179694083" lon="11.368544215741347"><ele>233.0</ele><time>2026-03-29T10:20:03Z</time></trkpt><trkpt lat="43.210725848007435" lon="11.368501784504549"><ele>233.0</ele><time>2026-03-29T10:20:04Z</time></trkpt><trkpt lat="43.21061608747988" lon="11.368465113927295"><ele>233.0</ele><time>2026-03-29T10:20:05Z</time></trkpt><trkpt lat="43.21051038310295" lon="11.368436065431675"><ele>232.66666666666669</ele><time>2026-03-29T10:20:06Z</time></trkpt><trkpt lat="43.21041757687048" lon="11.368406389348692"><ele>232.33333333333334</ele><time>2026-03-29T10:20:07Z</time></trkpt><trkpt lat="43.2103358141232" lon="11.368354666410847"><ele>232.0</ele><time>2026-03-29T10:20:08Z</time></trkpt><trkpt lat="43.210252695561735" lon="11.368325478244953"><ele>231.66666666666669</ele><time>2026-03-29T10:20:09Z</time></trkpt><trkpt lat="43.210170541372165" lon="11.368319881868"><ele>231.33333333333334</ele><time>2026-03-29T10:20:10Z</time></trkpt><trkpt lat="43.21009817308534" lon="11.368287450072565"><ele>231.0</ele><time>2026-03-29T10:20:11Z</time></trkpt><trkpt lat="43.21001592471835" lon="11.36826362527439"><ele>231.0</ele><time>2026-03-29T10:20:12Z</time></trkpt><trkpt lat="43.209931280041346" lon="11.368233857401083"><ele>231.0</ele><time>2026-03-29T10:20:13Z</time></trkpt><trkpt lat="43.20985595237067" lon="11.368213471237787"><ele>231.0</ele><time>2026-03-29T10:20:14Z</time></trkpt><trkpt lat="43.20973865870923" lon="11.368184996798085"><ele>231.0</ele><time>2026-03-29T10:20:16Z</time></trkpt><trkpt lat="43.20967439168782" lon="11.368206476842747"><ele>231.0</ele><time>2026-03-29T10:20:17Z</time></trkpt><trkpt lat="43.209611366401106" lon="11.368236112504023"><ele>231.0</ele><time>2026-03-29T10:20:18Z</time></trkpt><trkpt lat="43.20954740327726" lon="11.368313243071393"><ele>232.60000000000002</ele><time>2026-03-29T10:20:19Z</time></trkpt><trkpt lat="43.20948928321806" lon="11.368387449493582"><ele>234.20000000000002</ele><time>2026-03-29T10:20:20Z</time></trkpt><trkpt lat="43.20942882899095" lon="11.36847868455465"><ele>235.79999999999998</ele><time>2026-03-29T10:20:21Z</time></trkpt><trkpt lat="43.20936326040634" lon="11.368585464110867"><ele>237.39999999999998</ele><time>2026-03-29T10:20:22Z</time></trkpt><trkpt lat="43.209283565255376" lon="11.368715848657382"><ele>239.0</ele><time>2026-03-29T10:20:23Z</time></trkpt><trkpt lat="43.20920525510527" lon="11.368866306424962"><ele>239.0</ele><time>2026-03-29T10:20:24Z</time></trkpt><trkpt lat="43.20909616707421" lon="11.369000529161996"><ele>239.0</ele><time>2026-03-29T10:20:25Z</time></trkpt><trkpt lat="43.20900010963862" lon="11.36913866398882"><ele>239.0</ele><time>2026-03-29T10:20:26Z</time></trkpt><trkpt lat="43.20892538863079" lon="11.369276976305223"><ele>239.0</ele><time>2026-03-29T10:20:27Z</time></trkpt><trkpt lat="43.20883487600333" lon="11.369370775764608"><ele>242.5</ele><time>2026-03-29T10:20:28Z</time></trkpt><trkpt lat="43.20874542380091" lon="11.369493800445808"><ele>246.0</ele><time>2026-03-29T10:20:29Z</time></trkpt><trkpt lat="43.20864929770839" lon="11.369623058101322"><ele>249.5</ele><time>2026-03-29T10:20:30Z</time></trkpt><trkpt lat="43.20853846605167" lon="11.36977209024634"><ele>253.0</ele><time>2026-03-29T10:20:31Z</time></trkpt><trkpt lat="43.20842203789124" lon="11.369928647640494"><ele>253.0</ele><time>2026-03-29T10:20:32Z</time></trkpt><trkpt lat="43.2083057420278" lon="11.370087481448248"><ele>253.0</ele><time>2026-03-29T10:20:33Z</time></trkpt><trkpt lat="43.20817815721804" lon="11.370263401496832"><ele>253.0</ele><time>2026-03-29T10:20:34Z</time></trkpt><trkpt lat="43.20805411205758" lon="11.370437237398653"><ele>258.66666666666663</ele><time>2026-03-29T10:20:35Z</time></trkpt><trkpt lat="43.20793633605186" lon="11.370602334083912"><ele>264.3333333333333</ele><time>2026-03-29T10:20:36Z</time></trkpt><trkpt lat="43.207838543650524" lon="11.370738713754687"><ele>270.0</ele><time>2026-03-29T10:20:37Z</time></trkpt><trkpt lat="43.20773557578688" lon="11.370882059254933"><ele>270.0</ele><time>2026-03-29T10:20:38Z</time></trkpt><trkpt lat="43.207628187120854" lon="11.371031100627327"><ele>270.0</ele><time>2026-03-29T10:20:39Z</time></trkpt><trkpt lat="43.20751941064472" lon="11.371178695506407"><ele>270.0</ele><time>2026-03-29T10:20:40Z</time></trkpt><trkpt lat="43.20742612308325" lon="11.371308020589552"><ele>270.0</ele><time>2026-03-29T10:20:40.999Z</time></trkpt><trkpt lat="43.207346390995156" lon="11.371449460505442"><ele>274.25</ele><time>2026-03-29T10:20:41.999Z</time></trkpt><trkpt lat="43.20725750292599" lon="11.371579925391874"><ele>278.5</ele><time>2026-03-29T10:20:42.999Z</time></trkpt><trkpt lat="43.20718026536297" lon="11.371688491990502"><ele>282.75</ele><time>2026-03-29T10:20:43.999Z</time></trkpt><trkpt lat="43.20710960741154" lon="11.371800465714179"><ele>287.0</ele><time>2026-03-29T10:20:44.999Z</time></trkpt><trkpt lat="43.20704887173291" lon="11.371930904673105"><ele>287.0</ele><time>2026-03-29T10:20:45.999Z</time></trkpt><trkpt lat="43.20698094336829" lon="11.372079639436551"><ele>287.0</ele><time>2026-03-29T10:20:46.999Z</time></trkpt><trkpt lat="43.20691301420093" lon="11.37220946163513"><ele>287.0</ele><time>2026-03-29T10:20:47.999Z</time></trkpt><trkpt lat="43.206840197298774" lon="11.372323488392945"><ele>287.0</ele><time>2026-03-29T10:20:48.999Z</time></trkpt><trkpt lat="43.20676140882667" lon="11.372431805981869"><ele>287.5</ele><time>2026-03-29T10:20:49.999Z</time></trkpt><trkpt lat="43.20667582913361" lon="11.372569473872016"><ele>288.0</ele><time>2026-03-29T10:20:50.999Z</time></trkpt><trkpt lat="43.20658211344712" lon="11.372699142467152"><ele>288.5</ele><time>2026-03-29T10:20:51.999Z</time></trkpt><trkpt lat="43.20648952103433" lon="11.37280351998414"><ele>289.0</ele><time>2026-03-29T10:20:52.999Z</time></trkpt><trkpt lat="43.20638607844802" lon="11.37288493957357"><ele>289.0</ele><time>2026-03-29T10:20:53.999Z</time></trkpt><trkpt lat="43.206261563503006" lon="11.372973417773036"><ele>289.0</ele><time>2026-03-29T10:20:54.999Z</time></trkpt><trkpt lat="43.20612732227889" lon="11.373071255844073"><ele>289.0</ele><time>2026-03-29T10:20:55.999Z</time></trkpt><trkpt lat="43.206007081116894" lon="11.373179492518755"><ele>289.0</ele><time>2026-03-29T10:20:56.999Z</time></trkpt><trkpt lat="43.205886129682845" lon="11.373255831959368"><ele>284.8</ele><time>2026-03-29T10:20:57.999Z</time></trkpt><trkpt lat="43.205788812136575" lon="11.37332975595572"><ele>280.59999999999997</ele><time>2026-03-29T10:20:58.999Z</time></trkpt><trkpt lat="43.20569858173909" lon="11.37340721420143"><ele>276.4</ele><time>2026-03-29T10:20:59.999Z</time></trkpt><trkpt lat="43.20561268777198" lon="11.373490278207676"><ele>272.2</ele><time>2026-03-29T10:21:00.999Z</time></trkpt><trkpt lat="43.205545236914205" lon="11.373577442984669"><ele>268.0</ele><time>2026-03-29T10:21:01.999Z</time></trkpt><trkpt lat="43.20546723058003" lon="11.373628572918449"><ele>268.0</ele><time>2026-03-29T10:21:02.999Z</time></trkpt><trkpt lat="43.20539331316136" lon="11.373679846053161"><ele>268.0</ele><time>2026-03-29T10:21:03.999Z</time></trkpt><trkpt lat="43.20530410363465" lon="11.373728979500898"><ele>268.0</ele><time>2026-03-29T10:21:04.999Z</time></trkpt><trkpt lat="43.20521289013411" lon="11.373739753680349"><ele>268.0</ele><time>2026-03-29T10:21:05.999Z</time></trkpt><trkpt lat="43.205114254091036" lon="11.373736851208024"><ele>268.0</ele><time>2026-03-29T10:21:06.999Z</time></trkpt><trkpt lat="43.20498895701827" lon="11.37373746092816"><ele>268.0</ele><time>2026-03-29T10:21:07.999Z</time></trkpt><trkpt lat="43.2048776638819" lon="11.373763733360331"><ele>268.0</ele><time>2026-03-29T10:21:08.999Z</time></trkpt><trkpt lat="43.204781898288516" lon="11.373759867821292"><ele>268.0</ele><time>2026-03-29T10:21:09.999Z</time></trkpt><trkpt lat="43.204679153726225" lon="11.3737774647607"><ele>268.0</ele><time>2026-03-29T10:21:10.999Z</time></trkpt><trkpt lat="43.204565308667256" lon="11.373803040646088"><ele>268.0</ele><time>2026-03-29T10:21:11.999Z</time></trkpt><trkpt lat="43.20444662705243" lon="11.373839893633843"><ele>263.75</ele><time>2026-03-29T10:21:12.999Z</time></trkpt><trkpt lat="43.20432598076815" lon="11.373886154926549"><ele>259.5</ele><time>2026-03-29T10:21:13.999Z</time></trkpt><trkpt lat="43.204212047980405" lon="11.373923058996875"><ele>255.25</ele><time>2026-03-29T10:21:14.999Z</time></trkpt><trkpt lat="43.204105490391385" lon="11.373959385516555"><ele>251.0</ele><time>2026-03-29T10:21:15.999Z</time></trkpt><trkpt lat="43.204002080144996" lon="11.373991871445241"><ele>252.4</ele><time>2026-03-29T10:21:16.999Z</time></trkpt><trkpt lat="43.20390021369945" lon="11.374023925404945"><ele>253.8</ele><time>2026-03-29T10:21:17.999Z</time></trkpt><trkpt lat="43.203803569735015" lon="11.374047988034958"><ele>255.20000000000002</ele><time>2026-03-29T10:21:18.999Z</time></trkpt><trkpt lat="43.20371317565451" lon="11.374096649970463"><ele>256.6</ele><time>2026-03-29T10:21:19.999Z</time></trkpt><trkpt lat="43.20363719275425" lon="11.3741575585062"><ele>258.0</ele><time>2026-03-29T10:21:20.999Z</time></trkpt><trkpt lat="43.20356118718895" lon="11.374225655047914"><ele>258.0</ele><time>2026-03-29T10:21:21.999Z</time></trkpt><trkpt lat="43.20347852965652" lon="11.3743043220581"><ele>258.0</ele><time>2026-03-29T10:21:22.999Z</time></trkpt><trkpt lat="43.20339520295494" lon="11.374386655483264"><ele>258.0</ele><time>2026-03-29T10:21:23.999Z</time></trkpt><trkpt lat="43.203299813221584" lon="11.374432934535367"><ele>258.0</ele><time>2026-03-29T10:21:24.999Z</time></trkpt><trkpt lat="43.20319405730671" lon="11.374490516045187"><ele>258.0</ele><time>2026-03-29T10:21:25.999Z</time></trkpt><trkpt lat="43.20307808980373" lon="11.374528688084803"><ele>259.75</ele><time>2026-03-29T10:21:26.999Z</time></trkpt><trkpt lat="43.202940432845985" lon="11.374560877932712"><ele>261.5</ele><time>2026-03-29T10:21:27.999Z</time></trkpt><trkpt lat="43.20279110450436" lon="11.3745971719495"><ele>263.25</ele><time>2026-03-29T10:21:28.999Z</time></trkpt><trkpt lat="43.2026650393575" lon="11.374648107696684"><ele>265.0</ele><time>2026-03-29T10:21:29.999Z</time></trkpt><trkpt lat="43.20252684928983" lon="11.374676349421085"><ele>265.3333333333333</ele><time>2026-03-29T10:21:30.999Z</time></trkpt><trkpt lat="43.20237233748599" lon="11.374723077131287"><ele>265.6666666666667</ele><time>2026-03-29T10:21:31.999Z</time></trkpt><trkpt lat="43.20221370519878" lon="11.37474252504494"><ele>266.0</ele><time>2026-03-29T10:21:32.999Z</time></trkpt><trkpt lat="43.20206786699602" lon="11.374784934267264"><ele>266.0</ele><time>2026-03-29T10:21:33.999Z</time></trkpt><trkpt lat="43.20196109959932" lon="11.374841923184764"><ele>266.0</ele><time>2026-03-29T10:21:34.999Z</time></trkpt><trkpt lat="43.201870997797855" lon="11.374872674528651"><ele>266.0</ele><time>2026-03-29T10:21:35.999Z</time></trkpt><trkpt lat="43.20179060493035" lon="11.374909206362387"><ele>266.0</ele><time>2026-03-29T10:21:36.999Z</time></trkpt><trkpt lat="43.20171276078584" lon="11.374948164642479"><ele>266.0</ele><time>2026-03-29T10:21:37.999Z</time></trkpt><trkpt lat="43.201632584833305" lon="11.374999445144832"><ele>266.0</ele><time>2026-03-29T10:21:38.999Z</time></trkpt><trkpt lat="43.20154908172018" lon="11.375060348729141"><ele>266.0</ele><time>2026-03-29T10:21:40Z</time></trkpt><trkpt lat="43.20145877606255" lon="11.375124018724739"><ele>266.0</ele><time>2026-03-29T10:21:41Z</time></trkpt><trkpt lat="43.20136102403644" lon="11.375204662128862"><ele>266.0</ele><time>2026-03-29T10:21:42Z</time></trkpt><trkpt lat="43.20125682839342" lon="11.37525975685513"><ele>266.0</ele><time>2026-03-29T10:21:43Z</time></trkpt><trkpt lat="43.201178490551605" lon="11.375325111522598"><ele>266.83333333333337</ele><time>2026-03-29T10:21:44Z</time></trkpt><trkpt lat="43.20107549788304" lon="11.375387794122604"><ele>267.6666666666667</ele><time>2026-03-29T10:21:46Z</time></trkpt><trkpt lat="43.20098603226591" lon="11.375387167439461"><ele>268.5</ele><time>2026-03-29T10:21:48Z</time></trkpt><trkpt lat="43.20092435864219" lon="11.375368886792362"><ele>269.3333333333333</ele><time>2026-03-29T10:21:51Z</time></trkpt><trkpt lat="43.20082053682767" lon="11.3753204885244"><ele>270.16666666666663</ele><time>2026-03-29T10:21:54Z</time></trkpt><trkpt lat="43.20075987115312" lon="11.375285887002763"><ele>271.0</ele><time>2026-03-29T10:21:55Z</time></trkpt><trkpt lat="43.20069541552869" lon="11.375247543985576"><ele>268.5</ele><time>2026-03-29T10:21:56Z</time></trkpt><trkpt lat="43.20062731962628" lon="11.375227991317916"><ele>266.0</ele><time>2026-03-29T10:21:57Z</time></trkpt><trkpt lat="43.200575038981604" lon="11.375175935050784"><ele>263.5</ele><time>2026-03-29T10:21:58Z</time></trkpt><trkpt lat="43.20051641704997" lon="11.375141062369256"><ele>261.0</ele><time>2026-03-29T10:21:59Z</time></trkpt><trkpt lat="43.20045533774481" lon="11.375104727839776"><ele>258.5</ele><time>2026-03-29T10:22:00Z</time></trkpt><trkpt lat="43.20034588524077" lon="11.375040151652799"><ele>256.0</ele><time>2026-03-29T10:22:02Z</time></trkpt><trkpt lat="43.200237424267094" lon="11.375001010050877"><ele>255.99999999999997</ele><time>2026-03-29T10:22:04Z</time></trkpt><trkpt lat="43.20014563255458" lon="11.374960775386489"><ele>256.0</ele><time>2026-03-29T10:22:06Z</time></trkpt><trkpt lat="43.20004804102415" lon="11.374992526580984"><ele>256.0</ele><time>2026-03-29T10:22:08Z</time></trkpt><trkpt lat="43.200001065251755" lon="11.375052744557003"><ele>256.0</ele><time>2026-03-29T10:22:09Z</time></trkpt><trkpt lat="43.19998011849585" lon="11.375137531204594"><ele>255.99999999999997</ele><time>2026-03-29T10:22:10Z</time></trkpt><trkpt lat="43.19994036988628" lon="11.375218186890283"><ele>256.0</ele><time>2026-03-29T10:22:11Z</time></trkpt><trkpt lat="43.19989929332119" lon="11.37531773029046"><ele>256.0</ele><time>2026-03-29T10:22:12Z</time></trkpt><trkpt lat="43.19984654499302" lon="11.375424364147053"><ele>256.0</ele><time>2026-03-29T10:22:13Z</time></trkpt><trkpt lat="43.19976308776467" lon="11.375524599108331"><ele>256.0</ele><time>2026-03-29T10:22:14Z</time></trkpt><trkpt lat="43.19968055554252" lon="11.375635867034045"><ele>256.0</ele><time>2026-03-29T10:22:15Z</time></trkpt><trkpt lat="43.199618179712935" lon="11.375733372651903"><ele>256.0</ele><time>2026-03-29T10:22:16Z</time></trkpt><trkpt lat="43.199550624088474" lon="11.375811711028872"><ele>253.60000000000002</ele><time>2026-03-29T10:22:17Z</time></trkpt><trkpt lat="43.1994836849594" lon="11.375891030986459"><ele>251.20000000000002</ele><time>2026-03-29T10:22:18Z</time></trkpt><trkpt lat="43.199414353195635" lon="11.375969792897505"><ele>248.79999999999998</ele><time>2026-03-29T10:22:19Z</time></trkpt><trkpt lat="43.19934377104371" lon="11.376045232048233"><ele>246.39999999999998</ele><time>2026-03-29T10:22:20Z</time></trkpt><trkpt lat="43.19926644475696" lon="11.376113099362783"><ele>244.0</ele><time>2026-03-29T10:22:21Z</time></trkpt><trkpt lat="43.19918461133026" lon="11.376166855772093"><ele>244.0</ele><time>2026-03-29T10:22:22Z</time></trkpt><trkpt lat="43.19910086500375" lon="11.376196547488705"><ele>243.99999999999997</ele><time>2026-03-29T10:22:23Z</time></trkpt><trkpt lat="43.199011423275586" lon="11.376216835633473"><ele>243.99999999999997</ele><time>2026-03-29T10:22:24Z</time></trkpt><trkpt lat="43.19892029867718" lon="11.376238654368843"><ele>244.0</ele><time>2026-03-29T10:22:25Z</time></trkpt><trkpt lat="43.198821834843095" lon="11.376253618643346"><ele>244.0</ele><time>2026-03-29T10:22:26Z</time></trkpt><trkpt lat="43.19873858696555" lon="11.376272992702999"><ele>243.33333333333331</ele><time>2026-03-29T10:22:27Z</time></trkpt><trkpt lat="43.198657480278285" lon="11.376283466476984"><ele>242.66666666666666</ele><time>2026-03-29T10:22:28Z</time></trkpt><trkpt lat="43.19858409581078" lon="11.376312901005845"><ele>242.0</ele><time>2026-03-29T10:22:29Z</time></trkpt><trkpt lat="43.19849177682409" lon="11.376324626280477"><ele>241.33333333333331</ele><time>2026-03-29T10:22:30Z</time></trkpt><trkpt lat="43.19840320717386" lon="11.376367568077582"><ele>240.66666666666666</ele><time>2026-03-29T10:22:31Z</time></trkpt><trkpt lat="43.19831458230842" lon="11.376434575704614"><ele>240.0</ele><time>2026-03-29T10:22:32Z</time></trkpt><trkpt lat="43.19821957163231" lon="11.37653128723726"><ele>239.33333333333334</ele><time>2026-03-29T10:22:33Z</time></trkpt><trkpt lat="43.19814348894835" lon="11.37661755231236"><ele>238.66666666666669</ele><time>2026-03-29T10:22:34Z</time></trkpt><trkpt lat="43.198079770173145" lon="11.376689316443143"><ele>238.0</ele><time>2026-03-29T10:22:35Z</time></trkpt><trkpt lat="43.1980185202323" lon="11.37675615897608"><ele>237.33333333333334</ele><time>2026-03-29T10:22:36Z</time></trkpt><trkpt lat="43.19794910540877" lon="11.376831402543463"><ele>236.66666666666669</ele><time>2026-03-29T10:22:37Z</time></trkpt><trkpt lat="43.1978694430155" lon="11.37691388595767"><ele>236.0</ele><time>2026-03-29T10:22:38Z</time></trkpt><trkpt lat="43.19779287396614" lon="11.377008004842416"><ele>236.0</ele><time>2026-03-29T10:22:39Z</time></trkpt><trkpt lat="43.19769472755928" lon="11.37705728666492"><ele>236.00000000000003</ele><time>2026-03-29T10:22:40Z</time></trkpt><trkpt lat="43.1976027235858" lon="11.377123198656667"><ele>236.00000000000003</ele><time>2026-03-29T10:22:41Z</time></trkpt><trkpt lat="43.19749479538496" lon="11.37719724422978"><ele>236.0</ele><time>2026-03-29T10:22:42Z</time></trkpt><trkpt lat="43.19740050777537" lon="11.377261554032012"><ele>236.0</ele><time>2026-03-29T10:22:43Z</time></trkpt><trkpt lat="43.197326797566596" lon="11.377327313021388"><ele>235.20000000000002</ele><time>2026-03-29T10:22:43.999Z</time></trkpt><trkpt lat="43.19724834988852" lon="11.377384520908878"><ele>234.40000000000003</ele><time>2026-03-29T10:22:44.999Z</time></trkpt><trkpt lat="43.19717297603255" lon="11.377431508396112"><ele>233.6</ele><time>2026-03-29T10:22:45.999Z</time></trkpt><trkpt lat="43.19708770764457" lon="11.377487012982716"><ele>232.8</ele><time>2026-03-29T10:22:46.999Z</time></trkpt><trkpt lat="43.19698050041612" lon="11.377556570164373"><ele>232.0</ele><time>2026-03-29T10:22:47.999Z</time></trkpt><trkpt lat="43.196855691222495" lon="11.37764381515009"><ele>232.0</ele><time>2026-03-29T10:22:48.999Z</time></trkpt><trkpt lat="43.19673473366031" lon="11.377733108753878"><ele>232.0</ele><time>2026-03-29T10:22:49.999Z</time></trkpt><trkpt lat="43.196625007454294" lon="11.377804603844508"><ele>232.0</ele><time>2026-03-29T10:22:50.999Z</time></trkpt><trkpt lat="43.19650733815896" lon="11.377868613418283"><ele>232.0</ele><time>2026-03-29T10:22:51.999Z</time></trkpt><trkpt lat="43.19639273014657" lon="11.377972210596562"><ele>232.5</ele><time>2026-03-29T10:22:52.999Z</time></trkpt><trkpt lat="43.19626875928342" lon="11.378052316585071"><ele>233.0</ele><time>2026-03-29T10:22:53.999Z</time></trkpt><trkpt lat="43.19614507363871" lon="11.378137110029028"><ele>233.5</ele><time>2026-03-29T10:22:54.999Z</time></trkpt><trkpt lat="43.19602103535134" lon="11.378216879377927"><ele>234.0</ele><time>2026-03-29T10:22:55.999Z</time></trkpt><trkpt lat="43.1958909184372" lon="11.378283645158065"><ele>234.0</ele><time>2026-03-29T10:22:56.999Z</time></trkpt><trkpt lat="43.195762423318314" lon="11.378351137189446"><ele>234.0</ele><time>2026-03-29T10:22:57.999Z</time></trkpt><trkpt lat="43.19563987269481" lon="11.378387857203471"><ele>234.0</ele><time>2026-03-29T10:22:58.999Z</time></trkpt><trkpt lat="43.195533899642" lon="11.378450939683312"><ele>234.0</ele><time>2026-03-29T10:22:59.999Z</time></trkpt><trkpt lat="43.1954257077291" lon="11.378498927616496"><ele>233.79999999999998</ele><time>2026-03-29T10:23:00.999Z</time></trkpt><trkpt lat="43.19533739706088" lon="11.378548876233864"><ele>233.59999999999997</ele><time>2026-03-29T10:23:01.999Z</time></trkpt><trkpt lat="43.1952581903308" lon="11.37861180508203"><ele>233.4</ele><time>2026-03-29T10:23:02.999Z</time></trkpt><trkpt lat="43.19516984714842" lon="11.378667021097773"><ele>233.2</ele><time>2026-03-29T10:23:03.999Z</time></trkpt><trkpt lat="43.19510259348456" lon="11.378777548122075"><ele>233.0</ele><time>2026-03-29T10:23:04.999Z</time></trkpt><trkpt lat="43.195014143117874" lon="11.378862986077428"><ele>233.0</ele><time>2026-03-29T10:23:05.999Z</time></trkpt><trkpt lat="43.19494410745743" lon="11.378992380479673"><ele>233.0</ele><time>2026-03-29T10:23:06.999Z</time></trkpt><trkpt lat="43.194861245230726" lon="11.379116548889854"><ele>233.0</ele><time>2026-03-29T10:23:07.999Z</time></trkpt><trkpt lat="43.194781079569495" lon="11.37925312766029"><ele>233.0</ele><time>2026-03-29T10:23:08.999Z</time></trkpt><trkpt lat="43.194715430716464" lon="11.37938168057501"><ele>231.8</ele><time>2026-03-29T10:23:09.999Z</time></trkpt><trkpt lat="43.19466640326874" lon="11.379500883311346"><ele>230.60000000000002</ele><time>2026-03-29T10:23:10.999Z</time></trkpt><trkpt lat="43.19463272385243" lon="11.379621194864932"><ele>229.39999999999998</ele><time>2026-03-29T10:23:11.999Z</time></trkpt><trkpt lat="43.194583070031086" lon="11.379752110268077"><ele>228.2</ele><time>2026-03-29T10:23:12.999Z</time></trkpt><trkpt lat="43.19455348523211" lon="11.379900386649428"><ele>227.0</ele><time>2026-03-29T10:23:13.999Z</time></trkpt><trkpt lat="43.19455300925312" lon="11.38005563740903"><ele>227.0</ele><time>2026-03-29T10:23:14.999Z</time></trkpt><trkpt lat="43.19453561832745" lon="11.380207632317969"><ele>227.0</ele><time>2026-03-29T10:23:15.999Z</time></trkpt><trkpt lat="43.19452483997498" lon="11.380369861349466"><ele>227.0</ele><time>2026-03-29T10:23:16.999Z</time></trkpt><trkpt lat="43.194512704964566" lon="11.380538976804077"><ele>227.0</ele><time>2026-03-29T10:23:17.999Z</time></trkpt><trkpt lat="43.19449807482243" lon="11.380696515092223"><ele>227.25</ele><time>2026-03-29T10:23:18.999Z</time></trkpt><trkpt lat="43.194467991835054" lon="11.38084454734457"><ele>227.5</ele><time>2026-03-29T10:23:19.999Z</time></trkpt><trkpt lat="43.194434581612654" lon="11.380979418190252"><ele>227.75</ele><time>2026-03-29T10:23:20.999Z</time></trkpt><trkpt lat="43.19438974533461" lon="11.381124889613936"><ele>228.0</ele><time>2026-03-29T10:23:21.999Z</time></trkpt><trkpt lat="43.19434916090652" lon="11.381278479722425"><ele>228.0</ele><time>2026-03-29T10:23:22.999Z</time></trkpt><trkpt lat="43.19429371948709" lon="11.381444380194688"><ele>228.0</ele><time>2026-03-29T10:23:23.999Z</time></trkpt><trkpt lat="43.19423137650805" lon="11.381602127460463"><ele>228.0</ele><time>2026-03-29T10:23:24.999Z</time></trkpt><trkpt lat="43.19418323305365" lon="11.381742340286452"><ele>228.0</ele><time>2026-03-29T10:23:25.999Z</time></trkpt><trkpt lat="43.194138592292134" lon="11.381883388935165"><ele>228.0</ele><time>2026-03-29T10:23:26.999Z</time></trkpt><trkpt lat="43.19409018787292" lon="11.382028526505394"><ele>228.0</ele><time>2026-03-29T10:23:27.999Z</time></trkpt><trkpt lat="43.19403376786797" lon="11.382172727401306"><ele>228.0</ele><time>2026-03-29T10:23:28.999Z</time></trkpt><trkpt lat="43.19398463324644" lon="11.382326846462032"><ele>228.0</ele><time>2026-03-29T10:23:29.999Z</time></trkpt><trkpt lat="43.19392851595443" lon="11.382490661768166"><ele>227.5</ele><time>2026-03-29T10:23:30.999Z</time></trkpt><trkpt lat="43.193861805358125" lon="11.382666642768154"><ele>227.0</ele><time>2026-03-29T10:23:31.999Z</time></trkpt><trkpt lat="43.19380382326758" lon="11.382833997108687"><ele>226.5</ele><time>2026-03-29T10:23:32.999Z</time></trkpt><trkpt lat="43.19375885450607" lon="11.382969898329627"><ele>226.0</ele><time>2026-03-29T10:23:33.999Z</time></trkpt><trkpt lat="43.19371395440281" lon="11.383094732755104"><ele>226.0</ele><time>2026-03-29T10:23:34.999Z</time></trkpt><trkpt lat="43.193664371936656" lon="11.38320976006077"><ele>226.00000000000003</ele><time>2026-03-29T10:23:35.999Z</time></trkpt><trkpt lat="43.19360682139827" lon="11.38330423252234"><ele>226.00000000000003</ele><time>2026-03-29T10:23:36.999Z</time></trkpt><trkpt lat="43.19352912898684" lon="11.383387191822647"><ele>226.0</ele><time>2026-03-29T10:23:37.999Z</time></trkpt><trkpt lat="43.19343276178486" lon="11.383459094212608"><ele>226.0</ele><time>2026-03-29T10:23:38.999Z</time></trkpt><trkpt lat="43.193311413680284" lon="11.383527753966291"><ele>226.0</ele><time>2026-03-29T10:23:39.999Z</time></trkpt><trkpt lat="43.19317755347576" lon="11.383575804406643"><ele>226.0</ele><time>2026-03-29T10:23:40.999Z</time></trkpt><trkpt lat="43.193058253017" lon="11.383617830470495"><ele>226.0</ele><time>2026-03-29T10:23:41.999Z</time></trkpt><trkpt lat="43.19295363177641" lon="11.38367339724929"><ele>226.0</ele><time>2026-03-29T10:23:42.999Z</time></trkpt><trkpt lat="43.19283655147828" lon="11.383743282592176"><ele>225.5</ele><time>2026-03-29T10:23:43.999Z</time></trkpt><trkpt lat="43.192715784079226" lon="11.38380978883857"><ele>225.0</ele><time>2026-03-29T10:23:44.999Z</time></trkpt><trkpt lat="43.192593311978236" lon="11.383873504229035"><ele>224.5</ele><time>2026-03-29T10:23:46Z</time></trkpt><trkpt lat="43.19246862218673" lon="11.383923754224702"><ele>224.0</ele><time>2026-03-29T10:23:47Z</time></trkpt><trkpt lat="43.19234962288444" lon="11.383951923025595"><ele>224.2</ele><time>2026-03-29T10:23:48Z</time></trkpt><trkpt lat="43.19223555615201" lon="11.383961709464618"><ele>224.39999999999998</ele><time>2026-03-29T10:23:49Z</time></trkpt><trkpt lat="43.19213176555541" lon="11.383937512581673"><ele>224.6</ele><time>2026-03-29T10:23:50Z</time></trkpt><trkpt lat="43.19203900791289" lon="11.383926152030126"><ele>224.8</ele><time>2026-03-29T10:23:51Z</time></trkpt><trkpt lat="43.19194105323096" lon="11.38393786321133"><ele>225.0</ele><time>2026-03-29T10:23:52Z</time></trkpt><trkpt lat="43.191858884167566" lon="11.38394254510342"><ele>225.0</ele><time>2026-03-29T10:23:53Z</time></trkpt><trkpt lat="43.19177974785472" lon="11.383980236558003"><ele>225.0</ele><time>2026-03-29T10:23:54Z</time></trkpt><trkpt lat="43.1916909005617" lon="11.38405646777071"><ele>225.0</ele><time>2026-03-29T10:23:55Z</time></trkpt><trkpt lat="43.191592609183374" lon="11.384145556306052"><ele>225.0</ele><time>2026-03-29T10:23:56Z</time></trkpt><trkpt lat="43.19150305195894" lon="11.384267118142573"><ele>225.0</ele><time>2026-03-29T10:23:57Z</time></trkpt><trkpt lat="43.19143149145377" lon="11.384375119124641"><ele>225.75</ele><time>2026-03-29T10:23:58Z</time></trkpt><trkpt lat="43.19134269154793" lon="11.384505794619983"><ele>226.5</ele><time>2026-03-29T10:23:59Z</time></trkpt><trkpt lat="43.19124618083011" lon="11.384641834006642"><ele>227.25</ele><time>2026-03-29T10:24:00Z</time></trkpt><trkpt lat="43.1911466477153" lon="11.384777455058952"><ele>228.0</ele><time>2026-03-29T10:24:01Z</time></trkpt><trkpt lat="43.19103741883693" lon="11.384909705942007"><ele>228.0</ele><time>2026-03-29T10:24:02Z</time></trkpt><trkpt lat="43.19093703005523" lon="11.385016327805833"><ele>228.0</ele><time>2026-03-29T10:24:03Z</time></trkpt><trkpt lat="43.19082983297675" lon="11.385119112051862"><ele>228.0</ele><time>2026-03-29T10:24:04Z</time></trkpt><trkpt lat="43.19071044472364" lon="11.38522612923525"><ele>228.0</ele><time>2026-03-29T10:24:05Z</time></trkpt><trkpt lat="43.19058592801783" lon="11.38533902161256"><ele>229.33333333333331</ele><time>2026-03-29T10:24:06Z</time></trkpt><trkpt lat="43.190446528528696" lon="11.385427744600713"><ele>230.66666666666666</ele><time>2026-03-29T10:24:07Z</time></trkpt><trkpt lat="43.19029194889049" lon="11.38548550419044"><ele>232.0</ele><time>2026-03-29T10:24:08Z</time></trkpt><trkpt lat="43.190154816499835" lon="11.385542244989955"><ele>229.5</ele><time>2026-03-29T10:24:09Z</time></trkpt><trkpt lat="43.19003233813951" lon="11.38560160380291"><ele>227.0</ele><time>2026-03-29T10:24:10Z</time></trkpt><trkpt lat="43.18990504756256" lon="11.385632056395465"><ele>224.5</ele><time>2026-03-29T10:24:11Z</time></trkpt><trkpt lat="43.1897745882802" lon="11.385659710804354"><ele>222.0</ele><time>2026-03-29T10:24:12Z</time></trkpt><trkpt lat="43.18965480208752" lon="11.38567812005369"><ele>221.25</ele><time>2026-03-29T10:24:13Z</time></trkpt><trkpt lat="43.18952029548327" lon="11.385713865709706"><ele>220.5</ele><time>2026-03-29T10:24:14Z</time></trkpt><trkpt lat="43.18938457798972" lon="11.385756413283131"><ele>219.75</ele><time>2026-03-29T10:24:15Z</time></trkpt><trkpt lat="43.18926222542568" lon="11.385796022758063"><ele>219.0</ele><time>2026-03-29T10:24:16Z</time></trkpt><trkpt lat="43.18914551260886" lon="11.385805575679644"><ele>219.0</ele><time>2026-03-29T10:24:17Z</time></trkpt><trkpt lat="43.18904044642329" lon="11.385841079400688"><ele>218.99999999999997</ele><time>2026-03-29T10:24:18Z</time></trkpt><trkpt lat="43.188938577151966" lon="11.385875502903017"><ele>218.99999999999997</ele><time>2026-03-29T10:24:19Z</time></trkpt><trkpt lat="43.18884605332445" lon="11.385914180591708"><ele>219.0</ele><time>2026-03-29T10:24:20Z</time></trkpt><trkpt lat="43.18877107928332" lon="11.385943400555306"><ele>219.0</ele><time>2026-03-29T10:24:21Z</time></trkpt><trkpt lat="43.18870131821196" lon="11.38595402703562"><ele>220.39999999999998</ele><time>2026-03-29T10:24:22Z</time></trkpt><trkpt lat="43.18857623417328" lon="11.385947944041716"><ele>221.79999999999998</ele><time>2026-03-29T10:24:24Z</time></trkpt><trkpt lat="43.188510693876005" lon="11.385930087844295"><ele>223.20000000000002</ele><time>2026-03-29T10:24:25Z</time></trkpt><trkpt lat="43.18841151122182" lon="11.38584102326582"><ele>224.60000000000002</ele><time>2026-03-29T10:24:27Z</time></trkpt><trkpt lat="43.18829265640453" lon="11.385764284061727"><ele>226.0</ele><time>2026-03-29T10:24:29Z</time></trkpt><trkpt lat="43.18822400798454" lon="11.385695080007958"><ele>228.8</ele><time>2026-03-29T10:24:30Z</time></trkpt><trkpt lat="43.18814613630197" lon="11.38562517025184"><ele>231.60000000000002</ele><time>2026-03-29T10:24:31Z</time></trkpt><trkpt lat="43.188072381992775" lon="11.38553474108434"><ele>234.4</ele><time>2026-03-29T10:24:32Z</time></trkpt><trkpt lat="43.18796781890227" lon="11.385457521104625"><ele>237.2</ele><time>2026-03-29T10:24:33Z</time></trkpt><trkpt lat="43.18785138578542" lon="11.385392516049825"><ele>240.0</ele><time>2026-03-29T10:24:34Z</time></trkpt><trkpt lat="43.18773333892445" lon="11.385338099962553"><ele>240.0</ele><time>2026-03-29T10:24:35Z</time></trkpt><trkpt lat="43.18760093952056" lon="11.385306790874711"><ele>240.0</ele><time>2026-03-29T10:24:36Z</time></trkpt><trkpt lat="43.18749209679009" lon="11.385266704507401"><ele>240.0</ele><time>2026-03-29T10:24:37Z</time></trkpt><trkpt lat="43.1873989261819" lon="11.385240902570072"><ele>240.0</ele><time>2026-03-29T10:24:38Z</time></trkpt><trkpt lat="43.187299901991715" lon="11.385239705758478"><ele>240.0</ele><time>2026-03-29T10:24:39Z</time></trkpt><trkpt lat="43.187197748974526" lon="11.385247670669617"><ele>241.6</ele><time>2026-03-29T10:24:40Z</time></trkpt><trkpt lat="43.18711123932343" lon="11.385242487733253"><ele>243.2</ele><time>2026-03-29T10:24:41Z</time></trkpt><trkpt lat="43.187037828846165" lon="11.385254756232637"><ele>244.8</ele><time>2026-03-29T10:24:42Z</time></trkpt><trkpt lat="43.18692449303911" lon="11.385276847118801"><ele>246.4</ele><time>2026-03-29T10:24:44Z</time></trkpt><trkpt lat="43.18684469821709" lon="11.385317285299807"><ele>248.0</ele><time>2026-03-29T10:24:45Z</time></trkpt><trkpt lat="43.186720287763585" lon="11.385320445255111"><ele>248.0</ele><time>2026-03-29T10:24:46Z</time></trkpt><trkpt lat="43.18658050239406" lon="11.385345953892076"><ele>248.0</ele><time>2026-03-29T10:24:47Z</time></trkpt><trkpt lat="43.18643576968197" lon="11.385370803246534"><ele>248.0</ele><time>2026-03-29T10:24:48Z</time></trkpt><trkpt lat="43.18631265633793" lon="11.385387812683247"><ele>248.0</ele><time>2026-03-29T10:24:49Z</time></trkpt><trkpt lat="43.18618981756786" lon="11.385398574203535"><ele>250.66666666666669</ele><time>2026-03-29T10:24:50Z</time></trkpt><trkpt lat="43.186048284022036" lon="11.385416165078778"><ele>253.33333333333331</ele><time>2026-03-29T10:24:51Z</time></trkpt><trkpt lat="43.18589121271968" lon="11.385418060308513"><ele>256.0</ele><time>2026-03-29T10:24:52Z</time></trkpt><trkpt lat="43.18573516114831" lon="11.385419085813952"><ele>258.2</ele><time>2026-03-29T10:24:52.999Z</time></trkpt><trkpt lat="43.18559789595229" lon="11.385419836595585"><ele>260.40000000000003</ele><time>2026-03-29T10:24:53.999Z</time></trkpt><trkpt lat="43.18550822615706" lon="11.385379837331946"><ele>262.6</ele><time>2026-03-29T10:24:54.999Z</time></trkpt><trkpt lat="43.18542334405172" lon="11.38534877636449"><ele>264.8</ele><time>2026-03-29T10:24:55.999Z</time></trkpt><trkpt lat="43.185345633179395" lon="11.385278113396915"><ele>267.0</ele><time>2026-03-29T10:24:56.999Z</time></trkpt><trkpt lat="43.185271373386534" lon="11.385192315511727"><ele>267.0</ele><time>2026-03-29T10:24:57.999Z</time></trkpt><trkpt lat="43.185184184621434" lon="11.385081216739781"><ele>267.0</ele><time>2026-03-29T10:24:58.999Z</time></trkpt><trkpt lat="43.18510116760936" lon="11.384961225091876"><ele>267.0</ele><time>2026-03-29T10:24:59.999Z</time></trkpt><trkpt lat="43.18500213651461" lon="11.38481170178902"><ele>267.0</ele><time>2026-03-29T10:25:00.999Z</time></trkpt><trkpt lat="43.18491152140992" lon="11.384671973827034"><ele>269.0</ele><time>2026-03-29T10:25:01.999Z</time></trkpt><trkpt lat="43.18480164831139" lon="11.384552904619522"><ele>271.0</ele><time>2026-03-29T10:25:02.999Z</time></trkpt><trkpt lat="43.184720913973756" lon="11.38444378335402"><ele>273.0</ele><time>2026-03-29T10:25:03.999Z</time></trkpt><trkpt lat="43.18464848199273" lon="11.384337058461448"><ele>275.0</ele><time>2026-03-29T10:25:04.999Z</time></trkpt><trkpt lat="43.18455967886984" lon="11.3842460601539"><ele>275.0</ele><time>2026-03-29T10:25:05.999Z</time></trkpt><trkpt lat="43.1844585848332" lon="11.384147643430678"><ele>275.0</ele><time>2026-03-29T10:25:06.999Z</time></trkpt><trkpt lat="43.18433258497178" lon="11.384062949850323"><ele>275.0</ele><time>2026-03-29T10:25:07.999Z</time></trkpt><trkpt lat="43.18421840088585" lon="11.38396349881864"><ele>275.0</ele><time>2026-03-29T10:25:08.999Z</time></trkpt><trkpt lat="43.184108298491644" lon="11.383906418550108"><ele>275.0</ele><time>2026-03-29T10:25:09.999Z</time></trkpt><trkpt lat="43.18403211431768" lon="11.383848865506605"><ele>275.0</ele><time>2026-03-29T10:25:10.999Z</time></trkpt><trkpt lat="43.18393200575915" lon="11.383831641099908"><ele>275.0</ele><time>2026-03-29T10:25:11.999Z</time></trkpt><trkpt lat="43.18382980117448" lon="11.383795920620251"><ele>275.0</ele><time>2026-03-29T10:25:12.999Z</time></trkpt><trkpt lat="43.18371977286156" lon="11.383752146743118"><ele>275.0</ele><time>2026-03-29T10:25:13.999Z</time></trkpt><trkpt lat="43.18360892229026" lon="11.383711379828128"><ele>274.8</ele><time>2026-03-29T10:25:14.999Z</time></trkpt><trkpt lat="43.18350977314982" lon="11.383679871595097"><ele>274.6</ele><time>2026-03-29T10:25:15.999Z</time></trkpt><trkpt lat="43.183418734679314" lon="11.383621319291233"><ele>274.4</ele><time>2026-03-29T10:25:16.999Z</time></trkpt><trkpt lat="43.18333265291308" lon="11.383583628835877"><ele>274.2</ele><time>2026-03-29T10:25:17.999Z</time></trkpt><trkpt lat="43.18323615299574" lon="11.38354137688307"><ele>274.0</ele><time>2026-03-29T10:25:18.999Z</time></trkpt><trkpt lat="43.18312050041788" lon="11.383511946228762"><ele>273.25</ele><time>2026-03-29T10:25:19.999Z</time></trkpt><trkpt lat="43.18300125597195" lon="11.383433272035644"><ele>272.5</ele><time>2026-03-29T10:25:20.999Z</time></trkpt><trkpt lat="43.182871386113675" lon="11.383375083579406"><ele>271.75</ele><time>2026-03-29T10:25:21.999Z</time></trkpt><trkpt lat="43.182728308573544" lon="11.383336494755603"><ele>271.0</ele><time>2026-03-29T10:25:22.999Z</time></trkpt><trkpt lat="43.18260125490695" lon="11.383270222829152"><ele>271.0</ele><time>2026-03-29T10:25:23.999Z</time></trkpt><trkpt lat="43.182484485498385" lon="11.383231076152803"><ele>271.0</ele><time>2026-03-29T10:25:24.999Z</time></trkpt><trkpt lat="43.18236308999341" lon="11.383190090657514"><ele>271.0</ele><time>2026-03-29T10:25:25.999Z</time></trkpt><trkpt lat="43.182215250778704" lon="11.383130428497575"><ele>271.0</ele><time>2026-03-29T10:25:26.999Z</time></trkpt><trkpt lat="43.18206990640657" lon="11.383084559063892"><ele>270.5</ele><time>2026-03-29T10:25:27.999Z</time></trkpt><trkpt lat="43.18193867501282" lon="11.383062889007057"><ele>270.0</ele><time>2026-03-29T10:25:28.999Z</time></trkpt><trkpt lat="43.18180700964582" lon="11.38302118889429"><ele>269.5</ele><time>2026-03-29T10:25:29.999Z</time></trkpt><trkpt lat="43.18166753240203" lon="11.382986757497473"><ele>269.0</ele><time>2026-03-29T10:25:30.999Z</time></trkpt><trkpt lat="43.181546620235366" lon="11.382951816206827"><ele>268.5</ele><time>2026-03-29T10:25:31.999Z</time></trkpt><trkpt lat="43.18144389123676" lon="11.382932519981296"><ele>268.0</ele><time>2026-03-29T10:25:32.999Z</time></trkpt><trkpt lat="43.18135179831781" lon="11.3829097048488"><ele>267.5</ele><time>2026-03-29T10:25:33.999Z</time></trkpt><trkpt lat="43.181259800365424" lon="11.382889456706451"><ele>267.0</ele><time>2026-03-29T10:25:34.999Z</time></trkpt><trkpt lat="43.18117889906195" lon="11.382854648272438"><ele>266.5</ele><time>2026-03-29T10:25:35.999Z</time></trkpt><trkpt lat="43.181112850204954" lon="11.38281715657473"><ele>266.0</ele><time>2026-03-29T10:25:36.999Z</time></trkpt><trkpt lat="43.18104990302628" lon="11.38277493509807"><ele>266.0</ele><time>2026-03-29T10:25:37.999Z</time></trkpt><trkpt lat="43.180991281283646" lon="11.382743018802197"><ele>266.0</ele><time>2026-03-29T10:25:38.999Z</time></trkpt><trkpt lat="43.18091897343355" lon="11.382685050647504"><ele>266.0</ele><time>2026-03-29T10:25:40.999Z</time></trkpt><trkpt lat="43.1808321119206" lon="11.382666329629457"><ele>266.0</ele><time>2026-03-29T10:27:43.999Z</time></trkpt><trkpt lat="43.180749324020894" lon="11.382714233977095"><ele>266.0</ele><time>2026-03-29T10:27:45.999Z</time></trkpt><trkpt lat="43.18069028270003" lon="11.38278017112656"><ele>266.0</ele><time>2026-03-29T10:27:46.999Z</time></trkpt><trkpt lat="43.18060680938188" lon="11.382859832584714"><ele>266.0</ele><time>2026-03-29T10:27:47.999Z</time></trkpt><trkpt lat="43.180507456475965" lon="11.382956438151028"><ele>266.0</ele><time>2026-03-29T10:27:48.999Z</time></trkpt><trkpt lat="43.18039640670513" lon="11.383065754483857"><ele>266.0</ele><time>2026-03-29T10:27:49.999Z</time></trkpt><trkpt lat="43.180269167066335" lon="11.383184190425068"><ele>266.0</ele><time>2026-03-29T10:27:50.999Z</time></trkpt><trkpt lat="43.18014051074038" lon="11.38329988891404"><ele>266.0</ele><time>2026-03-29T10:27:51.999Z</time></trkpt><trkpt lat="43.179999143981085" lon="11.383404230509312"><ele>266.0</ele><time>2026-03-29T10:27:52.999Z</time></trkpt><trkpt lat="43.17983577802501" lon="11.383498055796693"><ele>266.0</ele><time>2026-03-29T10:27:53.999Z</time></trkpt><trkpt lat="43.179702555852884" lon="11.383560018868954"><ele>265.25</ele><time>2026-03-29T10:27:54.999Z</time></trkpt><trkpt lat="43.179582028189806" lon="11.38363155233918"><ele>264.5</ele><time>2026-03-29T10:27:55.999Z</time></trkpt><trkpt lat="43.1794534732783" lon="11.383698505097122"><ele>263.75</ele><time>2026-03-29T10:27:56.999Z</time></trkpt><trkpt lat="43.17930918118635" lon="11.383775877071084"><ele>263.0</ele><time>2026-03-29T10:27:58Z</time></trkpt><trkpt lat="43.17915292847163" lon="11.383862910182462"><ele>264.5</ele><time>2026-03-29T10:27:59Z</time></trkpt><trkpt lat="43.179013628526896" lon="11.383938904740882"><ele>266.0</ele><time>2026-03-29T10:28:00Z</time></trkpt><trkpt lat="43.1788898582477" lon="11.384019514601752"><ele>267.5</ele><time>2026-03-29T10:28:01Z</time></trkpt><trkpt lat="43.178758726606404" lon="11.384122882765324"><ele>269.0</ele><time>2026-03-29T10:28:02Z</time></trkpt><trkpt lat="43.17863085579921" lon="11.384258414406554"><ele>269.0</ele><time>2026-03-29T10:28:03Z</time></trkpt><trkpt lat="43.17851592194211" lon="11.384416569387493"><ele>269.0</ele><time>2026-03-29T10:28:04Z</time></trkpt><trkpt lat="43.17841563764618" lon="11.384557716623554"><ele>269.0</ele><time>2026-03-29T10:28:05Z</time></trkpt><trkpt lat="43.178313385369535" lon="11.384685029821314"><ele>269.0</ele><time>2026-03-29T10:28:06Z</time></trkpt><trkpt lat="43.17819501072796" lon="11.384816279338592"><ele>269.0</ele><time>2026-03-29T10:28:07Z</time></trkpt><trkpt lat="43.17805992791202" lon="11.384937293839494"><ele>269.0</ele><time>2026-03-29T10:28:08Z</time></trkpt><trkpt lat="43.177905493869474" lon="11.385061324940432"><ele>269.0</ele><time>2026-03-29T10:28:09Z</time></trkpt><trkpt lat="43.177762868743045" lon="11.385165521436655"><ele>269.0</ele><time>2026-03-29T10:28:10Z</time></trkpt><trkpt lat="43.177634298787616" lon="11.385270344884466"><ele>269.0</ele><time>2026-03-29T10:28:11Z</time></trkpt><trkpt lat="43.17751492410501" lon="11.385378719948715"><ele>269.0</ele><time>2026-03-29T10:28:12Z</time></trkpt><trkpt lat="43.17740689953846" lon="11.385501263430553"><ele>269.0</ele><time>2026-03-29T10:28:13Z</time></trkpt><trkpt lat="43.17730439304236" lon="11.38566881427424"><ele>270.0</ele><time>2026-03-29T10:28:14Z</time></trkpt><trkpt lat="43.177208134496986" lon="11.385866133858963"><ele>271.0</ele><time>2026-03-29T10:28:15Z</time></trkpt><trkpt lat="43.177109674255014" lon="11.386103543104579"><ele>272.0</ele><time>2026-03-29T10:28:16Z</time></trkpt><trkpt lat="43.177004556240576" lon="11.386349694531004"><ele>272.0</ele><time>2026-03-29T10:28:17Z</time></trkpt><trkpt lat="43.176898740188484" lon="11.386579448311196"><ele>272.0</ele><time>2026-03-29T10:28:18Z</time></trkpt><trkpt lat="43.17679452495636" lon="11.386815303005267"><ele>272.0</ele><time>2026-03-29T10:28:19Z</time></trkpt><trkpt lat="43.17671156120212" lon="11.387008273190501"><ele>272.0</ele><time>2026-03-29T10:28:20Z</time></trkpt><trkpt lat="43.17666004785005" lon="11.387145629777157"><ele>272.0</ele><time>2026-03-29T10:28:21Z</time></trkpt><trkpt lat="43.176579183152995" lon="11.38733408825662"><ele>272.0</ele><time>2026-03-29T10:28:22Z</time></trkpt><trkpt lat="43.176497021990905" lon="11.387531000133928"><ele>272.0</ele><time>2026-03-29T10:28:23Z</time></trkpt><trkpt lat="43.17641980607051" lon="11.387720513235138"><ele>272.6666666666667</ele><time>2026-03-29T10:28:24Z</time></trkpt><trkpt lat="43.176327794584054" lon="11.387884711420165"><ele>273.3333333333333</ele><time>2026-03-29T10:28:25Z</time></trkpt><trkpt lat="43.17620020687585" lon="11.388039157265624"><ele>274.0</ele><time>2026-03-29T10:28:26Z</time></trkpt><trkpt lat="43.17606297064487" lon="11.388178709680629"><ele>274.0</ele><time>2026-03-29T10:28:27Z</time></trkpt><trkpt lat="43.17592543977015" lon="11.388291434424396"><ele>274.0</ele><time>2026-03-29T10:28:28Z</time></trkpt><trkpt lat="43.175766305658165" lon="11.388387177672932"><ele>274.0</ele><time>2026-03-29T10:28:29Z</time></trkpt><trkpt lat="43.17560041658672" lon="11.388449108299882"><ele>273.66666666666663</ele><time>2026-03-29T10:28:30Z</time></trkpt><trkpt lat="43.175444571779295" lon="11.38852212159164"><ele>273.3333333333333</ele><time>2026-03-29T10:28:31Z</time></trkpt><trkpt lat="43.17528979677126" lon="11.388591819947166"><ele>273.0</ele><time>2026-03-29T10:28:32Z</time></trkpt><trkpt lat="43.17512656985447" lon="11.38866071595745"><ele>273.0</ele><time>2026-03-29T10:28:33Z</time></trkpt><trkpt lat="43.17497264795715" lon="11.388733949503028"><ele>273.0</ele><time>2026-03-29T10:28:34Z</time></trkpt><trkpt lat="43.174777981145496" lon="11.388807790434761"><ele>273.0</ele><time>2026-03-29T10:28:35Z</time></trkpt><trkpt lat="43.17459301833936" lon="11.388889126529525"><ele>275.0</ele><time>2026-03-29T10:28:36Z</time></trkpt><trkpt lat="43.174410613408526" lon="11.388966805139138"><ele>277.0</ele><time>2026-03-29T10:28:37Z</time></trkpt><trkpt lat="43.174244271764636" lon="11.38903339630424"><ele>279.0</ele><time>2026-03-29T10:28:38Z</time></trkpt><trkpt lat="43.17410556458842" lon="11.389096790808829"><ele>282.0</ele><time>2026-03-29T10:28:39Z</time></trkpt><trkpt lat="43.17398603022153" lon="11.38916640756902"><ele>285.0</ele><time>2026-03-29T10:28:40Z</time></trkpt><trkpt lat="43.17387149489563" lon="11.389258933248302"><ele>288.0</ele><time>2026-03-29T10:28:41Z</time></trkpt><trkpt lat="43.17376271509885" lon="11.38937432598316"><ele>291.0</ele><time>2026-03-29T10:28:42Z</time></trkpt><trkpt lat="43.17366207407316" lon="11.389506937955455"><ele>291.0</ele><time>2026-03-29T10:28:43Z</time></trkpt><trkpt lat="43.17358896060471" lon="11.389641816286929"><ele>291.0</ele><time>2026-03-29T10:28:44Z</time></trkpt><trkpt lat="43.17353871178207" lon="11.389746369089774"><ele>291.0</ele><time>2026-03-29T10:28:45Z</time></trkpt><trkpt lat="43.17349680946073" lon="11.389841829623508"><ele>291.0</ele><time>2026-03-29T10:28:46Z</time></trkpt><trkpt lat="43.17346703793754" lon="11.389940966594821"><ele>291.0</ele><time>2026-03-29T10:28:47Z</time></trkpt><trkpt lat="43.17345773900322" lon="11.39004861829286"><ele>290.1666666666667</ele><time>2026-03-29T10:28:48Z</time></trkpt><trkpt lat="43.1733534289785" lon="11.390109498365202"><ele>289.3333333333333</ele><time>2026-03-29T10:28:49Z</time></trkpt><trkpt lat="43.17329897802166" lon="11.390204464683613"><ele>288.5</ele><time>2026-03-29T10:28:50Z</time></trkpt><trkpt lat="43.17324600253987" lon="11.390297243880024"><ele>287.66666666666663</ele><time>2026-03-29T10:28:51Z</time></trkpt><trkpt lat="43.17320210159762" lon="11.39037357168955"><ele>286.8333333333333</ele><time>2026-03-29T10:28:52Z</time></trkpt><trkpt lat="43.173156035560574" lon="11.390450434611605"><ele>286.0</ele><time>2026-03-29T10:28:53Z</time></trkpt><trkpt lat="43.17308262554992" lon="11.390537044636586"><ele>289.0</ele><time>2026-03-29T10:28:54Z</time></trkpt><trkpt lat="43.172996007906704" lon="11.39063634721108"><ele>292.0</ele><time>2026-03-29T10:28:55Z</time></trkpt><trkpt lat="43.17288400685685" lon="11.390703653345286"><ele>295.0</ele><time>2026-03-29T10:28:56Z</time></trkpt><trkpt lat="43.17276677505343" lon="11.390765019836298"><ele>298.0</ele><time>2026-03-29T10:28:57Z</time></trkpt><trkpt lat="43.17264403279505" lon="11.390848572009345"><ele>298.0</ele><time>2026-03-29T10:28:58Z</time></trkpt><trkpt lat="43.1725114803093" lon="11.3908985150782"><ele>298.0</ele><time>2026-03-29T10:28:59Z</time></trkpt><trkpt lat="43.172405218581986" lon="11.390951283137007"><ele>298.0</ele><time>2026-03-29T10:29:00Z</time></trkpt><trkpt lat="43.17227582884271" lon="11.391014648398146"><ele>298.0</ele><time>2026-03-29T10:29:01Z</time></trkpt><trkpt lat="43.1721386320928" lon="11.391084694204709"><ele>299.4</ele><time>2026-03-29T10:29:02Z</time></trkpt><trkpt lat="43.17201820110995" lon="11.391143318076272"><ele>300.8</ele><time>2026-03-29T10:29:02.999Z</time></trkpt><trkpt lat="43.1719268119831" lon="11.391185971982226"><ele>302.2</ele><time>2026-03-29T10:29:03.999Z</time></trkpt><trkpt lat="43.171836192500145" lon="11.391230466005462"><ele>303.6</ele><time>2026-03-29T10:29:04.999Z</time></trkpt><trkpt lat="43.17174175527779" lon="11.391272735817678"><ele>305.0</ele><time>2026-03-29T10:29:05.999Z</time></trkpt><trkpt lat="43.171646652035726" lon="11.391293672476"><ele>305.0</ele><time>2026-03-29T10:29:06.999Z</time></trkpt><trkpt lat="43.171559760850364" lon="11.39129863390056"><ele>305.0</ele><time>2026-03-29T10:29:07.999Z</time></trkpt><trkpt lat="43.17148692192291" lon="11.39132857957104"><ele>305.0</ele><time>2026-03-29T10:29:08.999Z</time></trkpt><trkpt lat="43.17139977614464" lon="11.391324372775664"><ele>305.0</ele><time>2026-03-29T10:29:09.999Z</time></trkpt><trkpt lat="43.17130661152213" lon="11.391323611045635"><ele>305.0</ele><time>2026-03-29T10:29:10.999Z</time></trkpt><trkpt lat="43.17120924428749" lon="11.391293673744633"><ele>305.0</ele><time>2026-03-29T10:29:11.999Z</time></trkpt><trkpt lat="43.171135159756076" lon="11.39126460149647"><ele>304.5</ele><time>2026-03-29T10:29:12.999Z</time></trkpt><trkpt lat="43.171062446242864" lon="11.391225133679097"><ele>304.0</ele><time>2026-03-29T10:29:13.999Z</time></trkpt><trkpt lat="43.17098307146123" lon="11.391200154670447"><ele>303.5</ele><time>2026-03-29T10:29:14.999Z</time></trkpt><trkpt lat="43.17090416064564" lon="11.391147372754718"><ele>303.0</ele><time>2026-03-29T10:29:15.999Z</time></trkpt><trkpt lat="43.17081260172721" lon="11.391089572594401"><ele>302.5</ele><time>2026-03-29T10:29:16.999Z</time></trkpt><trkpt lat="43.17072299030931" lon="11.391042232366985"><ele>302.0</ele><time>2026-03-29T10:29:17.999Z</time></trkpt><trkpt lat="43.17064553732094" lon="11.391003421214934"><ele>302.0</ele><time>2026-03-29T10:29:18.999Z</time></trkpt><trkpt lat="43.17057824003928" lon="11.390959536279613"><ele>302.0</ele><time>2026-03-29T10:29:19.999Z</time></trkpt><trkpt lat="43.17051139991617" lon="11.390925644328426"><ele>302.0</ele><time>2026-03-29T10:29:20.999Z</time></trkpt><trkpt lat="43.17042717868078" lon="11.390873370802497"><ele>302.0</ele><time>2026-03-29T10:29:21.999Z</time></trkpt><trkpt lat="43.17034455429429" lon="11.390805059183414"><ele>302.0</ele><time>2026-03-29T10:29:22.999Z</time></trkpt><trkpt lat="43.17023399497635" lon="11.39072972160707"><ele>302.0</ele><time>2026-03-29T10:29:23.999Z</time></trkpt><trkpt lat="43.17014695501625" lon="11.390651820052716"><ele>302.0</ele><time>2026-03-29T10:29:24.999Z</time></trkpt><trkpt lat="43.170058803798106" lon="11.3905843135698"><ele>302.0</ele><time>2026-03-29T10:29:25.999Z</time></trkpt><trkpt lat="43.169968127150355" lon="11.390491621799498"><ele>302.0</ele><time>2026-03-29T10:29:26.999Z</time></trkpt><trkpt lat="43.169863936425436" lon="11.390416311312789"><ele>302.0</ele><time>2026-03-29T10:29:27.999Z</time></trkpt><trkpt lat="43.16976468055748" lon="11.390338869356071"><ele>299.6</ele><time>2026-03-29T10:29:28.999Z</time></trkpt><trkpt lat="43.169673198744306" lon="11.39027006772242"><ele>297.2</ele><time>2026-03-29T10:29:29.999Z</time></trkpt><trkpt lat="43.16958026221475" lon="11.390212590609247"><ele>294.8</ele><time>2026-03-29T10:29:30.999Z</time></trkpt><trkpt lat="43.169471462144585" lon="11.390150002252849"><ele>292.4</ele><time>2026-03-29T10:29:31.999Z</time></trkpt><trkpt lat="43.16936411363937" lon="11.39009263715243"><ele>290.0</ele><time>2026-03-29T10:29:32.999Z</time></trkpt><trkpt lat="43.16924744146969" lon="11.390051781452405"><ele>290.0</ele><time>2026-03-29T10:29:33.999Z</time></trkpt><trkpt lat="43.16913941574498" lon="11.390028137617408"><ele>290.0</ele><time>2026-03-29T10:29:34.999Z</time></trkpt><trkpt lat="43.16903396310652" lon="11.390010114004838"><ele>290.0</ele><time>2026-03-29T10:29:35.999Z</time></trkpt><trkpt lat="43.16894452012911" lon="11.389995096527487"><ele>290.0</ele><time>2026-03-29T10:29:36.999Z</time></trkpt><trkpt lat="43.168854032617865" lon="11.389986418175507"><ele>290.0</ele><time>2026-03-29T10:29:37.999Z</time></trkpt><trkpt lat="43.16876238858387" lon="11.389980878012262"><ele>287.8</ele><time>2026-03-29T10:29:38.999Z</time></trkpt><trkpt lat="43.16866343777215" lon="11.389968643550054"><ele>285.6</ele><time>2026-03-29T10:29:39.999Z</time></trkpt><trkpt lat="43.16856811076995" lon="11.389968080685055"><ele>283.4</ele><time>2026-03-29T10:29:40.999Z</time></trkpt><trkpt lat="43.16847054189424" lon="11.389953135882315"><ele>281.2</ele><time>2026-03-29T10:29:41.999Z</time></trkpt><trkpt lat="43.168358112646054" lon="11.389943075502886"><ele>279.0</ele><time>2026-03-29T10:29:42.999Z</time></trkpt><trkpt lat="43.16822938600023" lon="11.389932059042218"><ele>277.5</ele><time>2026-03-29T10:29:43.999Z</time></trkpt><trkpt lat="43.16809195179195" lon="11.389921687363424"><ele>276.0</ele><time>2026-03-29T10:29:44.999Z</time></trkpt><trkpt lat="43.16795724177071" lon="11.389909815551478"><ele>274.5</ele><time>2026-03-29T10:29:45.999Z</time></trkpt><trkpt lat="43.16782296087621" lon="11.38990349705428"><ele>273.0</ele><time>2026-03-29T10:29:46.999Z</time></trkpt><trkpt lat="43.16767240468789" lon="11.389889394471128"><ele>273.0</ele><time>2026-03-29T10:29:47.999Z</time></trkpt><trkpt lat="43.16752641347727" lon="11.389882770453521"><ele>273.0</ele><time>2026-03-29T10:29:48.999Z</time></trkpt><trkpt lat="43.16738436418507" lon="11.389853770251575"><ele>273.0</ele><time>2026-03-29T10:29:49.999Z</time></trkpt><trkpt lat="43.16724233742036" lon="11.389861667457364"><ele>273.0</ele><time>2026-03-29T10:29:50.999Z</time></trkpt><trkpt lat="43.16710436398526" lon="11.389854405299566"><ele>273.25</ele><time>2026-03-29T10:29:51.999Z</time></trkpt><trkpt lat="43.16697436828489" lon="11.38986639705699"><ele>273.5</ele><time>2026-03-29T10:29:52.999Z</time></trkpt><trkpt lat="43.16685937261255" lon="11.389902811072563"><ele>273.75</ele><time>2026-03-29T10:29:53.999Z</time></trkpt><trkpt lat="43.16676198147814" lon="11.38995388141712"><ele>274.0</ele><time>2026-03-29T10:29:54.999Z</time></trkpt><trkpt lat="43.16665922657289" lon="11.389982264408763"><ele>274.0</ele><time>2026-03-29T10:29:55.999Z</time></trkpt><trkpt lat="43.166569636701674" lon="11.390073047552729"><ele>274.0</ele><time>2026-03-29T10:29:56.999Z</time></trkpt><trkpt lat="43.16647725828825" lon="11.390177419099832"><ele>274.0</ele><time>2026-03-29T10:29:57.999Z</time></trkpt><trkpt lat="43.166398902226476" lon="11.39029706984076"><ele>274.0</ele><time>2026-03-29T10:29:58.999Z</time></trkpt><trkpt lat="43.16633268297178" lon="11.39040496965199"><ele>274.5</ele><time>2026-03-29T10:29:59.999Z</time></trkpt><trkpt lat="43.166273668334355" lon="11.390497038268554"><ele>275.0</ele><time>2026-03-29T10:30:00.999Z</time></trkpt><trkpt lat="43.16621890710363" lon="11.390572804476678"><ele>275.5</ele><time>2026-03-29T10:30:01.999Z</time></trkpt><trkpt lat="43.16616268920459" lon="11.39064197515871"><ele>276.0</ele><time>2026-03-29T10:30:02.999Z</time></trkpt><trkpt lat="43.16608040469785" lon="11.390660045920246"><ele>276.5</ele><time>2026-03-29T10:30:04Z</time></trkpt><trkpt lat="43.16601923452223" lon="11.390713836845961"><ele>277.0</ele><time>2026-03-29T10:30:05Z</time></trkpt><trkpt lat="43.16593087336325" lon="11.390760595515793"><ele>276.25</ele><time>2026-03-29T10:30:06Z</time></trkpt><trkpt lat="43.16582368579589" lon="11.390805962522096"><ele>275.5</ele><time>2026-03-29T10:30:07Z</time></trkpt><trkpt lat="43.16570584260589" lon="11.390846034985445"><ele>274.75</ele><time>2026-03-29T10:30:08Z</time></trkpt><trkpt lat="43.16557481066148" lon="11.390893215301633"><ele>274.0</ele><time>2026-03-29T10:30:09Z</time></trkpt><trkpt lat="43.16543033063182" lon="11.390929585000093"><ele>274.0</ele><time>2026-03-29T10:30:10Z</time></trkpt><trkpt lat="43.16528630127124" lon="11.390968716428555"><ele>274.0</ele><time>2026-03-29T10:30:11Z</time></trkpt><trkpt lat="43.16514143963943" lon="11.391003648699515"><ele>274.0</ele><time>2026-03-29T10:30:12Z</time></trkpt><trkpt lat="43.164994036298054" lon="11.39103979886944"><ele>274.0</ele><time>2026-03-29T10:30:13Z</time></trkpt><trkpt lat="43.16483610223084" lon="11.391088678343808"><ele>274.3333333333333</ele><time>2026-03-29T10:30:14Z</time></trkpt><trkpt lat="43.16465921668064" lon="11.391129943823358"><ele>274.6666666666667</ele><time>2026-03-29T10:30:15Z</time></trkpt><trkpt lat="43.1644558388267" lon="11.391176674572852"><ele>275.0</ele><time>2026-03-29T10:30:16Z</time></trkpt><trkpt lat="43.1642240224728" lon="11.391233935199054"><ele>276.0</ele><time>2026-03-29T10:30:17Z</time></trkpt><trkpt lat="43.163999335062265" lon="11.391289328413322"><ele>277.0</ele><time>2026-03-29T10:30:18Z</time></trkpt><trkpt lat="43.163776035940124" lon="11.391344662293887"><ele>277.0</ele><time>2026-03-29T10:30:19Z</time></trkpt><trkpt lat="43.16357333916307" lon="11.391397859039937"><ele>277.0</ele><time>2026-03-29T10:30:20Z</time></trkpt><trkpt lat="43.16341492979369" lon="11.391438147571039"><ele>277.0</ele><time>2026-03-29T10:30:21Z</time></trkpt><trkpt lat="43.163265953692466" lon="11.391471554055318"><ele>278.25</ele><time>2026-03-29T10:30:22Z</time></trkpt><trkpt lat="43.163127856089204" lon="11.39150647443358"><ele>279.5</ele><time>2026-03-29T10:30:23Z</time></trkpt><trkpt lat="43.1629927808123" lon="11.391535335813627"><ele>280.75</ele><time>2026-03-29T10:30:24Z</time></trkpt><trkpt lat="43.162860227555235" lon="11.39156343096016"><ele>282.0</ele><time>2026-03-29T10:30:25Z</time></trkpt><trkpt lat="43.162728381591464" lon="11.3915892285614"><ele>282.0</ele><time>2026-03-29T10:30:26Z</time></trkpt><trkpt lat="43.16259799825776" lon="11.39161429090245"><ele>282.0</ele><time>2026-03-29T10:30:27Z</time></trkpt><trkpt lat="43.16247808358803" lon="11.391622314211089"><ele>282.0</ele><time>2026-03-29T10:30:28Z</time></trkpt><trkpt lat="43.16237109346828" lon="11.391634555219053"><ele>282.0</ele><time>2026-03-29T10:30:29Z</time></trkpt><trkpt lat="43.162271242537905" lon="11.391640552507827"><ele>282.8</ele><time>2026-03-29T10:30:30Z</time></trkpt><trkpt lat="43.16217411237099" lon="11.391658452047798"><ele>283.6</ele><time>2026-03-29T10:30:31Z</time></trkpt><trkpt lat="43.16207750180247" lon="11.391678324835759"><ele>284.40000000000003</ele><time>2026-03-29T10:30:32Z</time></trkpt><trkpt lat="43.16199165301824" lon="11.391705858469791"><ele>285.2</ele><time>2026-03-29T10:30:33Z</time></trkpt><trkpt lat="43.16190338395959" lon="11.391749923829023"><ele>286.0</ele><time>2026-03-29T10:30:34Z</time></trkpt><trkpt lat="43.16181705135142" lon="11.391832918727626"><ele>286.0</ele><time>2026-03-29T10:30:35Z</time></trkpt><trkpt lat="43.16173872741129" lon="11.391950357838173"><ele>286.0</ele><time>2026-03-29T10:30:36Z</time></trkpt><trkpt lat="43.16167897207924" lon="11.392099396041798"><ele>286.0</ele><time>2026-03-29T10:30:37Z</time></trkpt><trkpt lat="43.1616287416814" lon="11.39228884969057"><ele>286.0</ele><time>2026-03-29T10:30:38Z</time></trkpt><trkpt lat="43.161583301572556" lon="11.392476638334687"><ele>284.25</ele><time>2026-03-29T10:30:39Z</time></trkpt><trkpt lat="43.161527133444935" lon="11.39266687278336"><ele>282.5</ele><time>2026-03-29T10:30:40Z</time></trkpt><trkpt lat="43.1614580023419" lon="11.392826152894157"><ele>280.75</ele><time>2026-03-29T10:30:41Z</time></trkpt><trkpt lat="43.16136562837321" lon="11.392952705250044"><ele>279.0</ele><time>2026-03-29T10:30:42Z</time></trkpt><trkpt lat="43.161233427895105" lon="11.393058896195136"><ele>279.0</ele><time>2026-03-29T10:30:43Z</time></trkpt><trkpt lat="43.161073549944724" lon="11.393132314446616"><ele>279.0</ele><time>2026-03-29T10:30:44Z</time></trkpt><trkpt lat="43.160898481434494" lon="11.393206126331028"><ele>279.0</ele><time>2026-03-29T10:30:45Z</time></trkpt><trkpt lat="43.160723905022884" lon="11.393266157825021"><ele>278.5</ele><time>2026-03-29T10:30:46Z</time></trkpt><trkpt lat="43.16056893947175" lon="11.393329667807361"><ele>278.0</ele><time>2026-03-29T10:30:47Z</time></trkpt><trkpt lat="43.16043388909354" lon="11.393388817988344"><ele>277.5</ele><time>2026-03-29T10:30:48Z</time></trkpt><trkpt lat="43.16030419910373" lon="11.39344350541336"><ele>277.0</ele><time>2026-03-29T10:30:49Z</time></trkpt><trkpt lat="43.1601762330448" lon="11.393501901843264"><ele>277.0</ele><time>2026-03-29T10:30:50Z</time></trkpt><trkpt lat="43.160044073816515" lon="11.393567274104297"><ele>277.0</ele><time>2026-03-29T10:30:51Z</time></trkpt><trkpt lat="43.15990730543411" lon="11.393634425783523"><ele>277.0</ele><time>2026-03-29T10:30:52Z</time></trkpt><trkpt lat="43.1597633530257" lon="11.393714543626675"><ele>277.0</ele><time>2026-03-29T10:30:53Z</time></trkpt><trkpt lat="43.159629585185314" lon="11.393801304559531"><ele>276.75</ele><time>2026-03-29T10:30:54Z</time></trkpt><trkpt lat="43.159513595158124" lon="11.393893558154192"><ele>276.5</ele><time>2026-03-29T10:30:55Z</time></trkpt><trkpt lat="43.15940056169379" lon="11.394007018689276"><ele>276.25</ele><time>2026-03-29T10:30:56Z</time></trkpt><trkpt lat="43.159286764529554" lon="11.394134759954468"><ele>276.0</ele><time>2026-03-29T10:30:57Z</time></trkpt><trkpt lat="43.15917253459016" lon="11.394280756598436"><ele>276.0</ele><time>2026-03-29T10:30:58Z</time></trkpt><trkpt lat="43.15905707897082" lon="11.394437527277518"><ele>276.0</ele><time>2026-03-29T10:30:59Z</time></trkpt><trkpt lat="43.15896161270398" lon="11.394593263387595"><ele>276.0</ele><time>2026-03-29T10:31:00Z</time></trkpt><trkpt lat="43.1588760582904" lon="11.39475807975369"><ele>277.0</ele><time>2026-03-29T10:31:01Z</time></trkpt><trkpt lat="43.15879906100282" lon="11.394940248330796"><ele>278.0</ele><time>2026-03-29T10:31:02Z</time></trkpt><trkpt lat="43.15874242439576" lon="11.39513782418805"><ele>279.0</ele><time>2026-03-29T10:31:03Z</time></trkpt><trkpt lat="43.15870856431084" lon="11.395346548158583"><ele>279.0</ele><time>2026-03-29T10:31:04Z</time></trkpt><trkpt lat="43.15868975219185" lon="11.395578351854965"><ele>279.0</ele><time>2026-03-29T10:31:05Z</time></trkpt><trkpt lat="43.15867926825623" lon="11.39583739064751"><ele>279.0</ele><time>2026-03-29T10:31:06Z</time></trkpt><trkpt lat="43.15867922397998" lon="11.396071326633688"><ele>279.0</ele><time>2026-03-29T10:31:07Z</time></trkpt><trkpt lat="43.15867746092177" lon="11.396284642105908"><ele>279.0</ele><time>2026-03-29T10:31:08Z</time></trkpt><trkpt lat="43.158671236413554" lon="11.3965135718429"><ele>279.0</ele><time>2026-03-29T10:31:09Z</time></trkpt><trkpt lat="43.158667845638" lon="11.396754444358082"><ele>279.3333333333333</ele><time>2026-03-29T10:31:10Z</time></trkpt><trkpt lat="43.15866534247806" lon="11.397012787295898"><ele>279.66666666666663</ele><time>2026-03-29T10:31:11Z</time></trkpt><trkpt lat="43.1586592551222" lon="11.397257834011636"><ele>280.0</ele><time>2026-03-29T10:31:12Z</time></trkpt><trkpt lat="43.15866111380885" lon="11.397474421338583"><ele>280.0</ele><time>2026-03-29T10:31:12.999Z</time></trkpt><trkpt lat="43.15867025612561" lon="11.397709528679927"><ele>280.0</ele><time>2026-03-29T10:31:13.999Z</time></trkpt><trkpt lat="43.1586962389064" lon="11.397963644508746"><ele>280.0</ele><time>2026-03-29T10:31:14.999Z</time></trkpt><trkpt lat="43.1587123765315" lon="11.398191506478435"><ele>280.66666666666663</ele><time>2026-03-29T10:31:15.999Z</time></trkpt><trkpt lat="43.158767629243435" lon="11.398429489044396"><ele>281.3333333333333</ele><time>2026-03-29T10:31:16.999Z</time></trkpt><trkpt lat="43.15882140040135" lon="11.398622903662291"><ele>282.0</ele><time>2026-03-29T10:31:17.999Z</time></trkpt><trkpt lat="43.158870965250195" lon="11.398798948103575"><ele>282.6666666666667</ele><time>2026-03-29T10:31:18.999Z</time></trkpt><trkpt lat="43.158913349455226" lon="11.399008491857066"><ele>283.33333333333337</ele><time>2026-03-29T10:31:19.999Z</time></trkpt><trkpt lat="43.158928842794865" lon="11.399222001996675"><ele>284.0</ele><time>2026-03-29T10:31:20.999Z</time></trkpt><trkpt lat="43.15888229733601" lon="11.399405626294758"><ele>284.0</ele><time>2026-03-29T10:31:21.999Z</time></trkpt><trkpt lat="43.15882165295489" lon="11.399537874218959"><ele>284.0</ele><time>2026-03-29T10:31:22.999Z</time></trkpt><trkpt lat="43.15874087063856" lon="11.399611955559125"><ele>284.0</ele><time>2026-03-29T10:31:23.999Z</time></trkpt><trkpt lat="43.1586560964637" lon="11.399690790060394"><ele>284.0</ele><time>2026-03-29T10:31:24.999Z</time></trkpt><trkpt lat="43.15855504535514" lon="11.399641354896977"><ele>284.0</ele><time>2026-03-29T10:31:25.999Z</time></trkpt><trkpt lat="43.158427647982656" lon="11.39961682029664"><ele>284.0</ele><time>2026-03-29T10:31:26.999Z</time></trkpt><trkpt lat="43.15828229847646" lon="11.399605305685876"><ele>284.0</ele><time>2026-03-29T10:31:27.999Z</time></trkpt><trkpt lat="43.15812143090226" lon="11.399641148765735"><ele>284.0</ele><time>2026-03-29T10:31:28.999Z</time></trkpt><trkpt lat="43.15796234948765" lon="11.399682873680192"><ele>286.0</ele><time>2026-03-29T10:31:29.999Z</time></trkpt><trkpt lat="43.15782337787027" lon="11.39976086374259"><ele>288.0</ele><time>2026-03-29T10:31:30.999Z</time></trkpt><trkpt lat="43.15770524902908" lon="11.399867442661233"><ele>290.0</ele><time>2026-03-29T10:31:31.999Z</time></trkpt><trkpt lat="43.15756912148026" lon="11.399999558788137"><ele>290.0</ele><time>2026-03-29T10:31:32.999Z</time></trkpt><trkpt lat="43.1574129312696" lon="11.400131393795592"><ele>290.0</ele><time>2026-03-29T10:31:33.999Z</time></trkpt><trkpt lat="43.15726055118493" lon="11.400172933518816"><ele>290.0</ele><time>2026-03-29T10:31:34.999Z</time></trkpt><trkpt lat="43.15712706679425" lon="11.400171070606266"><ele>291.33333333333337</ele><time>2026-03-29T10:31:35.999Z</time></trkpt><trkpt lat="43.15698837904082" lon="11.400131382279376"><ele>292.6666666666667</ele><time>2026-03-29T10:31:36.999Z</time></trkpt><trkpt lat="43.15683521290143" lon="11.40007125068671"><ele>294.0</ele><time>2026-03-29T10:31:37.999Z</time></trkpt><trkpt lat="43.15667928317325" lon="11.400010993677725"><ele>294.0</ele><time>2026-03-29T10:31:38.999Z</time></trkpt><trkpt lat="43.15655835923221" lon="11.399994627577977"><ele>294.0</ele><time>2026-03-29T10:31:39.999Z</time></trkpt><trkpt lat="43.15646233247993" lon="11.399978260113715"><ele>294.0</ele><time>2026-03-29T10:31:40.999Z</time></trkpt><trkpt lat="43.156368459435356" lon="11.40001725090584"><ele>294.0</ele><time>2026-03-29T10:31:41.999Z</time></trkpt><trkpt lat="43.156300044666246" lon="11.400099246883823"><ele>294.0</ele><time>2026-03-29T10:31:42.999Z</time></trkpt><trkpt lat="43.15625092577659" lon="11.40022676169728"><ele>297.25</ele><time>2026-03-29T10:31:43.999Z</time></trkpt><trkpt lat="43.15623948324266" lon="11.400382273922077"><ele>300.5</ele><time>2026-03-29T10:31:44.999Z</time></trkpt><trkpt lat="43.15626947726604" lon="11.400533578288877"><ele>303.75</ele><time>2026-03-29T10:31:45.999Z</time></trkpt><trkpt lat="43.15639380624925" lon="11.400760644009186"><ele>307.0</ele><time>2026-03-29T10:31:46.999Z</time></trkpt><trkpt lat="43.15648672586993" lon="11.400955498594959"><ele>300.3333333333333</ele><time>2026-03-29T10:31:47.999Z</time></trkpt><trkpt lat="43.15658666059539" lon="11.401147163809123"><ele>293.6666666666667</ele><time>2026-03-29T10:31:48.999Z</time></trkpt><trkpt lat="43.1566528434085" lon="11.401359285528848"><ele>287.0</ele><time>2026-03-29T10:31:49.999Z</time></trkpt><trkpt lat="43.156700036236785" lon="11.401543941919078"><ele>286.5</ele><time>2026-03-29T10:31:50.999Z</time></trkpt><trkpt lat="43.15669694845377" lon="11.401719719052798"><ele>286.0</ele><time>2026-03-29T10:31:51.999Z</time></trkpt><trkpt lat="43.156670194906404" lon="11.401913354297031"><ele>285.5</ele><time>2026-03-29T10:31:52.999Z</time></trkpt><trkpt lat="43.15663084013043" lon="11.402143750231149"><ele>285.0</ele><time>2026-03-29T10:31:53.999Z</time></trkpt><trkpt lat="43.15658623480896" lon="11.402401717667086"><ele>284.3333333333333</ele><time>2026-03-29T10:31:54.999Z</time></trkpt><trkpt lat="43.15654950073548" lon="11.402691476919957"><ele>283.66666666666663</ele><time>2026-03-29T10:31:55.999Z</time></trkpt><trkpt lat="43.15648988386802" lon="11.402974492285928"><ele>283.0</ele><time>2026-03-29T10:31:56.999Z</time></trkpt><trkpt lat="43.15646232043921" lon="11.403286682973855"><ele>286.0</ele><time>2026-03-29T10:31:57.999Z</time></trkpt><trkpt lat="43.15643775240372" lon="11.403553278998407"><ele>289.0</ele><time>2026-03-29T10:31:58.999Z</time></trkpt><trkpt lat="43.156416549721236" lon="11.403807403583915"><ele>292.0</ele><time>2026-03-29T10:31:59.999Z</time></trkpt><trkpt lat="43.15640359743226" lon="11.404037300517967"><ele>292.0</ele><time>2026-03-29T10:32:00.999Z</time></trkpt><trkpt lat="43.15637450658736" lon="11.404238635102848"><ele>292.0</ele><time>2026-03-29T10:32:01.999Z</time></trkpt><trkpt lat="43.156301322084055" lon="11.404415027732373"><ele>292.0</ele><time>2026-03-29T10:32:02.999Z</time></trkpt><trkpt lat="43.15619977805715" lon="11.404559959828743"><ele>292.0</ele><time>2026-03-29T10:32:03.999Z</time></trkpt><trkpt lat="43.156036397683046" lon="11.404661073804702"><ele>289.66666666666663</ele><time>2026-03-29T10:32:04.999Z</time></trkpt><trkpt lat="43.15588731584044" lon="11.404790002668934"><ele>287.3333333333333</ele><time>2026-03-29T10:32:05.999Z</time></trkpt><trkpt lat="43.15570615319869" lon="11.40488176330218"><ele>285.0</ele><time>2026-03-29T10:32:06.999Z</time></trkpt><trkpt lat="43.155513938029145" lon="11.404885347182338"><ele>285.0</ele><time>2026-03-29T10:32:07.999Z</time></trkpt><trkpt lat="43.15533759853522" lon="11.404926431214752"><ele>285.0</ele><time>2026-03-29T10:32:08.999Z</time></trkpt><trkpt lat="43.15515372483709" lon="11.404955842631397"><ele>285.0</ele><time>2026-03-29T10:32:10Z</time></trkpt><trkpt lat="43.15496746569004" lon="11.405033198936627"><ele>288.0</ele><time>2026-03-29T10:32:11Z</time></trkpt><trkpt lat="43.154767516187306" lon="11.405142296467302"><ele>291.0</ele><time>2026-03-29T10:32:12Z</time></trkpt><trkpt lat="43.15458227195029" lon="11.405233429821287"><ele>294.0</ele><time>2026-03-29T10:32:13Z</time></trkpt><trkpt lat="43.15442223231994" lon="11.405317993366111"><ele>294.0</ele><time>2026-03-29T10:32:14Z</time></trkpt><trkpt lat="43.15428354949806" lon="11.405425035020915"><ele>294.0</ele><time>2026-03-29T10:32:15Z</time></trkpt><trkpt lat="43.154155818698605" lon="11.40552929537047"><ele>294.0</ele><time>2026-03-29T10:32:16Z</time></trkpt><trkpt lat="43.15402355758191" lon="11.405629113916785"><ele>291.3333333333333</ele><time>2026-03-29T10:32:17Z</time></trkpt><trkpt lat="43.153863464472934" lon="11.405661072488154"><ele>288.66666666666663</ele><time>2026-03-29T10:32:18Z</time></trkpt><trkpt lat="43.153690514995496" lon="11.40567200766923"><ele>286.0</ele><time>2026-03-29T10:32:19Z</time></trkpt><trkpt lat="43.153526254268215" lon="11.40569846776839"><ele>286.0</ele><time>2026-03-29T10:32:20Z</time></trkpt><trkpt lat="43.15337512279211" lon="11.405716961789295"><ele>286.0</ele><time>2026-03-29T10:32:21Z</time></trkpt><trkpt lat="43.15323434683541" lon="11.405790785534414"><ele>286.0</ele><time>2026-03-29T10:32:22Z</time></trkpt><trkpt lat="43.15309215322116" lon="11.405921515249775"><ele>285.0</ele><time>2026-03-29T10:32:23Z</time></trkpt><trkpt lat="43.15295170872583" lon="11.406089388965777"><ele>284.0</ele><time>2026-03-29T10:32:24Z</time></trkpt><trkpt lat="43.15280725047939" lon="11.406256446657531"><ele>283.0</ele><time>2026-03-29T10:32:25Z</time></trkpt><trkpt lat="43.152655559788926" lon="11.406349089256112"><ele>283.0</ele><time>2026-03-29T10:32:26Z</time></trkpt><trkpt lat="43.152485047186424" lon="11.40646254634075"><ele>283.0</ele><time>2026-03-29T10:32:27Z</time></trkpt><trkpt lat="43.15230526526542" lon="11.4065326947995"><ele>283.0</ele><time>2026-03-29T10:32:28Z</time></trkpt><trkpt lat="43.152122967495345" lon="11.406585960897297"><ele>283.0</ele><time>2026-03-29T10:32:29Z</time></trkpt><trkpt lat="43.15192365193807" lon="11.406605055175282"><ele>283.0</ele><time>2026-03-29T10:32:30Z</time></trkpt><trkpt lat="43.151710326687194" lon="11.40661964814532"><ele>283.0</ele><time>2026-03-29T10:32:31Z</time></trkpt><trkpt lat="43.151490684537684" lon="11.406657064123685"><ele>284.0</ele><time>2026-03-29T10:32:32Z</time></trkpt><trkpt lat="43.15128150722412" lon="11.406705474708097"><ele>285.0</ele><time>2026-03-29T10:32:33Z</time></trkpt><trkpt lat="43.15109823337765" lon="11.406769056190633"><ele>286.0</ele><time>2026-03-29T10:32:34Z</time></trkpt><trkpt lat="43.15092728964007" lon="11.406792559690453"><ele>286.0</ele><time>2026-03-29T10:32:35Z</time></trkpt><trkpt lat="43.15075828919614" lon="11.406799656709772"><ele>286.0</ele><time>2026-03-29T10:32:36Z</time></trkpt><trkpt lat="43.15057909523403" lon="11.406778506941324"><ele>286.0</ele><time>2026-03-29T10:32:37Z</time></trkpt><trkpt lat="43.150404641388185" lon="11.406735685620887"><ele>284.75</ele><time>2026-03-29T10:32:38Z</time></trkpt><trkpt lat="43.1502615312101" lon="11.406681316797785"><ele>283.5</ele><time>2026-03-29T10:32:39Z</time></trkpt><trkpt lat="43.15014065781631" lon="11.406597732301782"><ele>282.25</ele><time>2026-03-29T10:32:40Z</time></trkpt><trkpt lat="43.1500476859587" lon="11.406473799680768"><ele>281.0</ele><time>2026-03-29T10:32:41Z</time></trkpt><trkpt lat="43.14995245565799" lon="11.406333471811806"><ele>284.5</ele><time>2026-03-29T10:32:42Z</time></trkpt><trkpt lat="43.149857932682764" lon="11.40623762827991"><ele>288.0</ele><time>2026-03-29T10:32:43Z</time></trkpt><trkpt lat="43.149743587995296" lon="11.406188150175453"><ele>291.5</ele><time>2026-03-29T10:32:44Z</time></trkpt><trkpt lat="43.149614577571356" lon="11.406181110014469"><ele>295.0</ele><time>2026-03-29T10:32:45Z</time></trkpt><trkpt lat="43.14948424643534" lon="11.406248504614249"><ele>292.5</ele><time>2026-03-29T10:32:46Z</time></trkpt><trkpt lat="43.14937100220547" lon="11.406375236160269"><ele>290.0</ele><time>2026-03-29T10:32:47Z</time></trkpt><trkpt lat="43.14926672847275" lon="11.40653741218015"><ele>287.5</ele><time>2026-03-29T10:32:48Z</time></trkpt><trkpt lat="43.14917185387599" lon="11.406686547784053"><ele>285.0</ele><time>2026-03-29T10:32:49Z</time></trkpt><trkpt lat="43.149048819224326" lon="11.40671203244033"><ele>286.0</ele><time>2026-03-29T10:32:50Z</time></trkpt><trkpt lat="43.148917750983" lon="11.4067306780285"><ele>287.0</ele><time>2026-03-29T10:32:51Z</time></trkpt><trkpt lat="43.14876217589928" lon="11.406773712824373"><ele>288.0</ele><time>2026-03-29T10:32:52Z</time></trkpt><trkpt lat="43.14862848757677" lon="11.406795302518812"><ele>289.0</ele><time>2026-03-29T10:32:53Z</time></trkpt><trkpt lat="43.14851921241093" lon="11.406868414018884"><ele>289.0</ele><time>2026-03-29T10:32:54Z</time></trkpt><trkpt lat="43.14841805491678" lon="11.406963072660595"><ele>289.0</ele><time>2026-03-29T10:32:55Z</time></trkpt><trkpt lat="43.14834177974938" lon="11.407079837588514"><ele>289.0</ele><time>2026-03-29T10:32:56Z</time></trkpt><trkpt lat="43.14827817221865" lon="11.407216418600372"><ele>289.0</ele><time>2026-03-29T10:32:57Z</time></trkpt><trkpt lat="43.14820742129594" lon="11.407378202370932"><ele>290.0</ele><time>2026-03-29T10:32:58Z</time></trkpt><trkpt lat="43.1481308740596" lon="11.407572061240332"><ele>291.0</ele><time>2026-03-29T10:32:59Z</time></trkpt><trkpt lat="43.14803601863144" lon="11.407760326109914"><ele>292.0</ele><time>2026-03-29T10:33:00Z</time></trkpt><trkpt lat="43.147963248882235" lon="11.407944452479505"><ele>290.0</ele><time>2026-03-29T10:33:01Z</time></trkpt><trkpt lat="43.14791501430089" lon="11.408120515619512"><ele>288.0</ele><time>2026-03-29T10:33:02Z</time></trkpt><trkpt lat="43.147879008103565" lon="11.408348439911084"><ele>286.0</ele><time>2026-03-29T10:33:03Z</time></trkpt><trkpt lat="43.14786134593998" lon="11.4086060124892"><ele>284.0</ele><time>2026-03-29T10:33:04Z</time></trkpt><trkpt lat="43.14784501697663" lon="11.408877731320421"><ele>282.0</ele><time>2026-03-29T10:33:05Z</time></trkpt><trkpt lat="43.14780922880452" lon="11.40915789042461"><ele>280.0</ele><time>2026-03-29T10:33:06Z</time></trkpt><trkpt lat="43.147771586069084" lon="11.40939854217222"><ele>280.0</ele><time>2026-03-29T10:33:07Z</time></trkpt><trkpt lat="43.147736713092804" lon="11.409635755534854"><ele>280.0</ele><time>2026-03-29T10:33:08Z</time></trkpt><trkpt lat="43.14768215223398" lon="11.409851190141406"><ele>280.0</ele><time>2026-03-29T10:33:09Z</time></trkpt><trkpt lat="43.14763950909364" lon="11.410053152703325"><ele>278.25</ele><time>2026-03-29T10:33:10Z</time></trkpt><trkpt lat="43.14757934531488" lon="11.41022715959813"><ele>276.5</ele><time>2026-03-29T10:33:11Z</time></trkpt><trkpt lat="43.14748874600385" lon="11.410377536322995"><ele>274.75</ele><time>2026-03-29T10:33:12Z</time></trkpt><trkpt lat="43.147379143145514" lon="11.410506963225204"><ele>273.0</ele><time>2026-03-29T10:33:13Z</time></trkpt><trkpt lat="43.14724224107412" lon="11.410610683063068"><ele>270.6666666666667</ele><time>2026-03-29T10:33:14Z</time></trkpt><trkpt lat="43.14708141784937" lon="11.410711947599394"><ele>268.33333333333337</ele><time>2026-03-29T10:33:15Z</time></trkpt><trkpt lat="43.146902217001404" lon="11.410829481181759"><ele>266.0</ele><time>2026-03-29T10:33:16Z</time></trkpt><trkpt lat="43.146742562516245" lon="11.41097382764991"><ele>266.0</ele><time>2026-03-29T10:33:17Z</time></trkpt><trkpt lat="43.14661517438033" lon="11.411129738164332"><ele>266.0</ele><time>2026-03-29T10:33:17.999Z</time></trkpt><trkpt lat="43.146514018354075" lon="11.411306380579497"><ele>266.0</ele><time>2026-03-29T10:33:18.999Z</time></trkpt><trkpt lat="43.14640830512717" lon="11.411502741129373"><ele>264.33333333333337</ele><time>2026-03-29T10:33:19.999Z</time></trkpt><trkpt lat="43.14629978894852" lon="11.411700362509968"><ele>262.6666666666667</ele><time>2026-03-29T10:33:20.999Z</time></trkpt><trkpt lat="43.146182336666" lon="11.411901653945266"><ele>261.0</ele><time>2026-03-29T10:33:21.999Z</time></trkpt><trkpt lat="43.14607760094655" lon="11.412096812702051"><ele>258.3333333333333</ele><time>2026-03-29T10:33:22.999Z</time></trkpt><trkpt lat="43.145992465423944" lon="11.412301797198372"><ele>255.66666666666666</ele><time>2026-03-29T10:33:23.999Z</time></trkpt><trkpt lat="43.14592554851436" lon="11.412521452303224"><ele>253.0</ele><time>2026-03-29T10:33:24.999Z</time></trkpt><trkpt lat="43.145871159600496" lon="11.412757843470668"><ele>253.0</ele><time>2026-03-29T10:33:25.999Z</time></trkpt><trkpt lat="43.145832475707806" lon="11.412982409734253"><ele>253.0</ele><time>2026-03-29T10:33:26.999Z</time></trkpt><trkpt lat="43.145769960188005" lon="11.413187282836352"><ele>253.0</ele><time>2026-03-29T10:33:27.999Z</time></trkpt><trkpt lat="43.14569485402797" lon="11.413392172790333"><ele>250.66666666666666</ele><time>2026-03-29T10:33:28.999Z</time></trkpt><trkpt lat="43.14558671406535" lon="11.413552379241002"><ele>248.33333333333331</ele><time>2026-03-29T10:33:29.999Z</time></trkpt><trkpt lat="43.14548381288032" lon="11.413717739957017"><ele>246.0</ele><time>2026-03-29T10:33:30.999Z</time></trkpt><trkpt lat="43.14537217726885" lon="11.41386466985133"><ele>245.0</ele><time>2026-03-29T10:33:31.999Z</time></trkpt><trkpt lat="43.14528764446832" lon="11.413992037397524"><ele>244.0</ele><time>2026-03-29T10:33:32.999Z</time></trkpt><trkpt lat="43.14522841906754" lon="11.41413233088575"><ele>243.0</ele><time>2026-03-29T10:33:33.999Z</time></trkpt><trkpt lat="43.14520126116866" lon="11.414291594273443"><ele>242.0</ele><time>2026-03-29T10:33:34.999Z</time></trkpt><trkpt lat="43.14519697253661" lon="11.414466501268027"><ele>242.0</ele><time>2026-03-29T10:33:35.999Z</time></trkpt><trkpt lat="43.14523037510547" lon="11.414651563545497"><ele>242.0</ele><time>2026-03-29T10:33:36.999Z</time></trkpt><trkpt lat="43.14528919130342" lon="11.41481253109538"><ele>242.0</ele><time>2026-03-29T10:33:37.999Z</time></trkpt><trkpt lat="43.1453882790859" lon="11.414959535330565"><ele>242.0</ele><time>2026-03-29T10:33:38.999Z</time></trkpt><trkpt lat="43.145516667547675" lon="11.415132427169551"><ele>241.0</ele><time>2026-03-29T10:33:39.999Z</time></trkpt><trkpt lat="43.1456172875875" lon="11.415314198768023"><ele>240.0</ele><time>2026-03-29T10:33:40.999Z</time></trkpt><trkpt lat="43.145699502213155" lon="11.41548736458582"><ele>239.0</ele><time>2026-03-29T10:33:41.999Z</time></trkpt><trkpt lat="43.145744240050014" lon="11.415658181354365"><ele>239.0</ele><time>2026-03-29T10:33:42.999Z</time></trkpt><trkpt lat="43.14579378890331" lon="11.415848620972849"><ele>239.0</ele><time>2026-03-29T10:33:43.999Z</time></trkpt><trkpt lat="43.14577121109414" lon="11.416070813465925"><ele>239.0</ele><time>2026-03-29T10:33:44.999Z</time></trkpt><trkpt lat="43.14575044653326" lon="11.416311928214183"><ele>238.0</ele><time>2026-03-29T10:33:45.999Z</time></trkpt><trkpt lat="43.14573321299569" lon="11.416563652106005"><ele>237.0</ele><time>2026-03-29T10:33:46.999Z</time></trkpt><trkpt lat="43.145702778335405" lon="11.416805857418858"><ele>236.0</ele><time>2026-03-29T10:33:47.999Z</time></trkpt><trkpt lat="43.145675012975055" lon="11.417025898048564"><ele>229.66666666666669</ele><time>2026-03-29T10:33:48.999Z</time></trkpt><trkpt lat="43.145638036200886" lon="11.417248882742397"><ele>223.33333333333331</ele><time>2026-03-29T10:33:49.999Z</time></trkpt><trkpt lat="43.14555990951133" lon="11.417465038233985"><ele>217.0</ele><time>2026-03-29T10:33:50.999Z</time></trkpt><trkpt lat="43.14549830561467" lon="11.417705619825938"><ele>217.0</ele><time>2026-03-29T10:33:51.999Z</time></trkpt><trkpt lat="43.14542288396679" lon="11.417922627224161"><ele>217.0</ele><time>2026-03-29T10:33:52.999Z</time></trkpt><trkpt lat="43.14537850134292" lon="11.41812954657632"><ele>217.0</ele><time>2026-03-29T10:33:53.999Z</time></trkpt><trkpt lat="43.145345916047674" lon="11.418350322511738"><ele>216.0</ele><time>2026-03-29T10:33:54.999Z</time></trkpt><trkpt lat="43.14533435864504" lon="11.41859659024803"><ele>215.0</ele><time>2026-03-29T10:33:55.999Z</time></trkpt><trkpt lat="43.14533306872609" lon="11.418861122647785"><ele>214.0</ele><time>2026-03-29T10:33:56.999Z</time></trkpt><trkpt lat="43.145323961956876" lon="11.419097571940346"><ele>213.66666666666666</ele><time>2026-03-29T10:33:57.999Z</time></trkpt><trkpt lat="43.14529782434357" lon="11.41932335860125"><ele>213.33333333333331</ele><time>2026-03-29T10:33:58.999Z</time></trkpt><trkpt lat="43.14526032920852" lon="11.419546136388538"><ele>213.0</ele><time>2026-03-29T10:33:59.999Z</time></trkpt><trkpt lat="43.145210795044356" lon="11.419741312451286"><ele>212.25</ele><time>2026-03-29T10:34:00.999Z</time></trkpt><trkpt lat="43.14516147770537" lon="11.41993413651677"><ele>211.5</ele><time>2026-03-29T10:34:01.999Z</time></trkpt><trkpt lat="43.14513912800909" lon="11.420118666089811"><ele>210.75</ele><time>2026-03-29T10:34:02.999Z</time></trkpt><trkpt lat="43.14513269555187" lon="11.420286650867938"><ele>210.0</ele><time>2026-03-29T10:34:03.999Z</time></trkpt><trkpt lat="43.145133237339806" lon="11.420448362648004"><ele>209.5</ele><time>2026-03-29T10:34:04.999Z</time></trkpt><trkpt lat="43.14513708984386" lon="11.42059345060936"><ele>209.0</ele><time>2026-03-29T10:34:05.999Z</time></trkpt><trkpt lat="43.14514107846817" lon="11.420733060511644"><ele>208.5</ele><time>2026-03-29T10:34:06.999Z</time></trkpt><trkpt lat="43.14514154385192" lon="11.420857753605745"><ele>208.0</ele><time>2026-03-29T10:34:07.999Z</time></trkpt><trkpt lat="43.14513762388434" lon="11.420969667195108"><ele>207.5</ele><time>2026-03-29T10:34:08.999Z</time></trkpt><trkpt lat="43.14512427224522" lon="11.421061110687297"><ele>207.0</ele><time>2026-03-29T10:34:09.999Z</time></trkpt><trkpt lat="43.14509887620531" lon="11.421197046652374"><ele>207.0</ele><time>2026-03-29T10:34:11.999Z</time></trkpt><trkpt lat="43.14515780589815" lon="11.421273623625778"><ele>207.0</ele><time>2026-03-29T10:34:12.999Z</time></trkpt><trkpt lat="43.14520853066152" lon="11.421388088691122"><ele>207.0</ele><time>2026-03-29T10:34:14.999Z</time></trkpt><trkpt lat="43.14523462286177" lon="11.4214675412582"><ele>207.0</ele><time>2026-03-29T10:34:16Z</time></trkpt><trkpt lat="43.1452677164108" lon="11.421559384026763"><ele>207.0</ele><time>2026-03-29T10:34:17Z</time></trkpt><trkpt lat="43.14531043137481" lon="11.421670030427585"><ele>207.0</ele><time>2026-03-29T10:34:18Z</time></trkpt><trkpt lat="43.145346577675774" lon="11.421789240868462"><ele>206.8</ele><time>2026-03-29T10:34:19Z</time></trkpt><trkpt lat="43.14538233165274" lon="11.421907019220424"><ele>206.6</ele><time>2026-03-29T10:34:20Z</time></trkpt><trkpt lat="43.14542607690239" lon="11.422030442252872"><ele>206.4</ele><time>2026-03-29T10:34:21Z</time></trkpt><trkpt lat="43.14547320269835" lon="11.422171738113404"><ele>206.20000000000002</ele><time>2026-03-29T10:34:22Z</time></trkpt><trkpt lat="43.14552780037923" lon="11.422322235337782"><ele>206.0</ele><time>2026-03-29T10:34:23Z</time></trkpt><trkpt lat="43.1455855139165" lon="11.422484113426103"><ele>206.25</ele><time>2026-03-29T10:34:24Z</time></trkpt><trkpt lat="43.145637955057055" lon="11.422630564017707"><ele>206.5</ele><time>2026-03-29T10:34:25Z</time></trkpt><trkpt lat="43.14569225859522" lon="11.422780482523699"><ele>206.75</ele><time>2026-03-29T10:34:26Z</time></trkpt><trkpt lat="43.14574365705554" lon="11.422928883081465"><ele>207.0</ele><time>2026-03-29T10:34:27Z</time></trkpt><trkpt lat="43.14579644844727" lon="11.423079707155505"><ele>207.0</ele><time>2026-03-29T10:34:28Z</time></trkpt><trkpt lat="43.14584579026303" lon="11.423232490060787"><ele>207.0</ele><time>2026-03-29T10:34:29Z</time></trkpt><trkpt lat="43.14589238894383" lon="11.423374920901617"><ele>207.0</ele><time>2026-03-29T10:34:30Z</time></trkpt><trkpt lat="43.145928372907385" lon="11.423510219980269"><ele>207.0</ele><time>2026-03-29T10:34:31Z</time></trkpt><trkpt lat="43.14594780526425" lon="11.423632753790711"><ele>207.0</ele><time>2026-03-29T10:34:32Z</time></trkpt><trkpt lat="43.14596043366317" lon="11.423750329506108"><ele>206.83333333333334</ele><time>2026-03-29T10:34:33Z</time></trkpt><trkpt lat="43.1459613716102" lon="11.423858527958688"><ele>206.66666666666669</ele><time>2026-03-29T10:34:34Z</time></trkpt><trkpt lat="43.145953191092936" lon="11.423977054641124"><ele>206.5</ele><time>2026-03-29T10:34:35Z</time></trkpt><trkpt lat="43.14593188623156" lon="11.424093963938947"><ele>206.33333333333334</ele><time>2026-03-29T10:34:36Z</time></trkpt><trkpt lat="43.14590370674501" lon="11.42419310965636"><ele>206.16666666666669</ele><time>2026-03-29T10:34:37Z</time></trkpt><trkpt lat="43.14586561860666" lon="11.424297194918053"><ele>206.0</ele><time>2026-03-29T10:34:38Z</time></trkpt><trkpt lat="43.14582282447195" lon="11.424398114456219"><ele>206.00000000000003</ele><time>2026-03-29T10:34:39Z</time></trkpt><trkpt lat="43.14575586732829" lon="11.424495252751154"><ele>206.0</ele><time>2026-03-29T10:34:40Z</time></trkpt><trkpt lat="43.14570706207983" lon="11.424616696108988"><ele>206.0</ele><time>2026-03-29T10:34:41Z</time></trkpt><trkpt lat="43.145649781394724" lon="11.424710002991597"><ele>206.0</ele><time>2026-03-29T10:34:42Z</time></trkpt><trkpt lat="43.14560281371012" lon="11.424792460971366"><ele>206.00000000000003</ele><time>2026-03-29T10:34:43Z</time></trkpt><trkpt lat="43.145566166260394" lon="11.424867795802994"><ele>206.0</ele><time>2026-03-29T10:34:44Z</time></trkpt><trkpt lat="43.14552669665352" lon="11.424952806948665"><ele>206.0</ele><time>2026-03-29T10:34:45Z</time></trkpt><trkpt lat="43.14552973028031" lon="11.425082512470702"><ele>206.0</ele><time>2026-03-29T10:34:46Z</time></trkpt><trkpt lat="43.14558138572687" lon="11.425194312171099"><ele>206.0</ele><time>2026-03-29T10:34:47Z</time></trkpt><trkpt lat="43.14564030184388" lon="11.425274360202435"><ele>206.0</ele><time>2026-03-29T10:34:48Z</time></trkpt><trkpt lat="43.145714918179976" lon="11.425321986868983"><ele>206.0</ele><time>2026-03-29T10:34:49Z</time></trkpt><trkpt lat="43.145803543238564" lon="11.425367164195618"><ele>206.0</ele><time>2026-03-29T10:34:50Z</time></trkpt><trkpt lat="43.145905491078025" lon="11.425422460347551"><ele>206.0</ele><time>2026-03-29T10:34:51Z</time></trkpt><trkpt lat="43.14600338805867" lon="11.42548391392206"><ele>206.0</ele><time>2026-03-29T10:34:52Z</time></trkpt><trkpt lat="43.14609135943408" lon="11.425559513996463"><ele>206.0</ele><time>2026-03-29T10:34:53Z</time></trkpt><trkpt lat="43.14618215392009" lon="11.42565724841411"><ele>206.0</ele><time>2026-03-29T10:34:54Z</time></trkpt><trkpt lat="43.14626115133933" lon="11.42580218344857"><ele>204.75</ele><time>2026-03-29T10:34:55Z</time></trkpt><trkpt lat="43.14637057340597" lon="11.425926079321425"><ele>203.5</ele><time>2026-03-29T10:34:56Z</time></trkpt><trkpt lat="43.14649588354596" lon="11.426029908262091"><ele>202.25</ele><time>2026-03-29T10:34:57Z</time></trkpt><trkpt lat="43.146604225603376" lon="11.42613057148131"><ele>201.0</ele><time>2026-03-29T10:34:58Z</time></trkpt><trkpt lat="43.146716839667114" lon="11.42623545967223"><ele>203.75</ele><time>2026-03-29T10:34:59Z</time></trkpt><trkpt lat="43.14682363081657" lon="11.426320165644725"><ele>206.5</ele><time>2026-03-29T10:35:00Z</time></trkpt><trkpt lat="43.14692564177597" lon="11.426401590034889"><ele>209.25</ele><time>2026-03-29T10:35:01Z</time></trkpt><trkpt lat="43.14703013562181" lon="11.42649978041221"><ele>212.0</ele><time>2026-03-29T10:35:02Z</time></trkpt><trkpt lat="43.14714829090729" lon="11.42658712520313"><ele>212.0</ele><time>2026-03-29T10:35:03Z</time></trkpt><trkpt lat="43.14724199548575" lon="11.426725580761957"><ele>212.0</ele><time>2026-03-29T10:35:04Z</time></trkpt><trkpt lat="43.147337044258435" lon="11.4268479995523"><ele>212.0</ele><time>2026-03-29T10:35:05Z</time></trkpt><trkpt lat="43.147444403970724" lon="11.426952672021052"><ele>212.0</ele><time>2026-03-29T10:35:06Z</time></trkpt><trkpt lat="43.147535433455836" lon="11.427059778465436"><ele>211.0</ele><time>2026-03-29T10:35:07Z</time></trkpt><trkpt lat="43.147629228911065" lon="11.42713305833359"><ele>210.0</ele><time>2026-03-29T10:35:08Z</time></trkpt><trkpt lat="43.14773123891412" lon="11.427185793497964"><ele>209.0</ele><time>2026-03-29T10:35:09Z</time></trkpt><trkpt lat="43.147848181644676" lon="11.427225912182436"><ele>208.0</ele><time>2026-03-29T10:35:10Z</time></trkpt><trkpt lat="43.14796596391768" lon="11.4272479987342"><ele>208.0</ele><time>2026-03-29T10:35:11Z</time></trkpt><trkpt lat="43.1480756715886" lon="11.427272656217513"><ele>208.0</ele><time>2026-03-29T10:35:12Z</time></trkpt><trkpt lat="43.14818280873547" lon="11.427308869585762"><ele>208.0</ele><time>2026-03-29T10:35:13Z</time></trkpt><trkpt lat="43.148293823893944" lon="11.427365409652051"><ele>208.0</ele><time>2026-03-29T10:35:14Z</time></trkpt><trkpt lat="43.14841034641217" lon="11.427435552712705"><ele>207.25</ele><time>2026-03-29T10:35:15Z</time></trkpt><trkpt lat="43.1485324799309" lon="11.427496020256383"><ele>206.5</ele><time>2026-03-29T10:35:16Z</time></trkpt><trkpt lat="43.148641359916795" lon="11.427556623069119"><ele>205.75</ele><time>2026-03-29T10:35:17Z</time></trkpt><trkpt lat="43.14874610476052" lon="11.42760664740431"><ele>205.0</ele><time>2026-03-29T10:35:18Z</time></trkpt><trkpt lat="43.14884724075208" lon="11.427670649072942"><ele>205.0</ele><time>2026-03-29T10:35:19Z</time></trkpt><trkpt lat="43.14895801190636" lon="11.427730464913639"><ele>205.0</ele><time>2026-03-29T10:35:20Z</time></trkpt><trkpt lat="43.14907025883743" lon="11.427784254549044"><ele>205.0</ele><time>2026-03-29T10:35:21Z</time></trkpt><trkpt lat="43.149170388830214" lon="11.427841884787211"><ele>205.0</ele><time>2026-03-29T10:35:22Z</time></trkpt><trkpt lat="43.14926505635377" lon="11.427917686451286"><ele>202.25</ele><time>2026-03-29T10:35:23Z</time></trkpt><trkpt lat="43.14935919291213" lon="11.428011165982532"><ele>199.5</ele><time>2026-03-29T10:35:23.999Z</time></trkpt><trkpt lat="43.14945708785853" lon="11.428121596272533"><ele>196.75</ele><time>2026-03-29T10:35:24.999Z</time></trkpt><trkpt lat="43.14954977496667" lon="11.428232491207735"><ele>194.0</ele><time>2026-03-29T10:35:25.999Z</time></trkpt><trkpt lat="43.1496323955316" lon="11.428325705188147"><ele>194.0</ele><time>2026-03-29T10:35:26.999Z</time></trkpt><trkpt lat="43.14971470826308" lon="11.428409044657222"><ele>194.0</ele><time>2026-03-29T10:35:27.999Z</time></trkpt><trkpt lat="43.14980009061651" lon="11.42848873616375"><ele>194.0</ele><time>2026-03-29T10:35:28.999Z</time></trkpt><trkpt lat="43.14988969460108" lon="11.428577193543365"><ele>194.0</ele><time>2026-03-29T10:35:29.999Z</time></trkpt><trkpt lat="43.149972319777326" lon="11.428662860819786"><ele>194.0</ele><time>2026-03-29T10:35:30.999Z</time></trkpt><trkpt lat="43.150053146301644" lon="11.428764562174152"><ele>192.75</ele><time>2026-03-29T10:35:31.999Z</time></trkpt><trkpt lat="43.1501267623842" lon="11.42888108837939"><ele>191.5</ele><time>2026-03-29T10:35:32.999Z</time></trkpt><trkpt lat="43.15017752876059" lon="11.42903147612171"><ele>190.25</ele><time>2026-03-29T10:35:33.999Z</time></trkpt><trkpt lat="43.150259255879206" lon="11.429148565903043"><ele>189.0</ele><time>2026-03-29T10:35:34.999Z</time></trkpt><trkpt lat="43.15033191947665" lon="11.429275736343206"><ele>189.0</ele><time>2026-03-29T10:35:35.999Z</time></trkpt><trkpt lat="43.150408091217905" lon="11.429385467109675"><ele>189.0</ele><time>2026-03-29T10:35:36.999Z</time></trkpt><trkpt lat="43.150487041526915" lon="11.429499709420337"><ele>189.0</ele><time>2026-03-29T10:35:37.999Z</time></trkpt><trkpt lat="43.15056764797442" lon="11.429599731001248"><ele>189.0</ele><time>2026-03-29T10:35:38.999Z</time></trkpt><trkpt lat="43.15063943483122" lon="11.429698029018144"><ele>189.0</ele><time>2026-03-29T10:35:39.999Z</time></trkpt><trkpt lat="43.15071653665858" lon="11.429782169854306"><ele>189.2</ele><time>2026-03-29T10:35:40.999Z</time></trkpt><trkpt lat="43.150800881700434" lon="11.429853794102884"><ele>189.39999999999998</ele><time>2026-03-29T10:35:41.999Z</time></trkpt><trkpt lat="43.15089414752469" lon="11.429922203997473"><ele>189.6</ele><time>2026-03-29T10:35:42.999Z</time></trkpt><trkpt lat="43.150970644018535" lon="11.4300174656785"><ele>189.8</ele><time>2026-03-29T10:35:43.999Z</time></trkpt><trkpt lat="43.151046656270594" lon="11.430095021011898"><ele>190.0</ele><time>2026-03-29T10:35:44.999Z</time></trkpt><trkpt lat="43.15110661123932" lon="11.430219457534271"><ele>190.0</ele><time>2026-03-29T10:35:45.999Z</time></trkpt><trkpt lat="43.15114133122659" lon="11.430341990535068"><ele>190.0</ele><time>2026-03-29T10:35:46.999Z</time></trkpt><trkpt lat="43.15113673349998" lon="11.430482623962918"><ele>190.0</ele><time>2026-03-29T10:35:47.999Z</time></trkpt><trkpt lat="43.151126500763375" lon="11.430634812777651"><ele>190.0</ele><time>2026-03-29T10:35:48.999Z</time></trkpt><trkpt lat="43.15112848520214" lon="11.430796295205093"><ele>190.0</ele><time>2026-03-29T10:35:49.999Z</time></trkpt><trkpt lat="43.15111417079812" lon="11.430941827528683"><ele>188.6</ele><time>2026-03-29T10:35:50.999Z</time></trkpt><trkpt lat="43.15110290460897" lon="11.431081172966886"><ele>187.2</ele><time>2026-03-29T10:35:51.999Z</time></trkpt><trkpt lat="43.15108980431693" lon="11.431211946810889"><ele>185.8</ele><time>2026-03-29T10:35:52.999Z</time></trkpt><trkpt lat="43.151080177088176" lon="11.431360170957053"><ele>184.4</ele><time>2026-03-29T10:35:53.999Z</time></trkpt><trkpt lat="43.15108321492735" lon="11.431520664214675"><ele>183.0</ele><time>2026-03-29T10:35:54.999Z</time></trkpt><trkpt lat="43.15109306954164" lon="11.43168778576547"><ele>181.8</ele><time>2026-03-29T10:35:55.999Z</time></trkpt><trkpt lat="43.15111530135685" lon="11.431853877797128"><ele>180.60000000000002</ele><time>2026-03-29T10:35:56.999Z</time></trkpt><trkpt lat="43.15111978244128" lon="11.432004347395868"><ele>179.39999999999998</ele><time>2026-03-29T10:35:57.999Z</time></trkpt><trkpt lat="43.15114132232712" lon="11.432149189545934"><ele>178.2</ele><time>2026-03-29T10:35:58.999Z</time></trkpt><trkpt lat="43.151129987004495" lon="11.432296219306892"><ele>177.0</ele><time>2026-03-29T10:35:59.999Z</time></trkpt><trkpt lat="43.15111083518607" lon="11.432424190959033"><ele>176.39999999999998</ele><time>2026-03-29T10:36:00.999Z</time></trkpt><trkpt lat="43.15109488825148" lon="11.432551234137817"><ele>175.79999999999998</ele><time>2026-03-29T10:36:01.999Z</time></trkpt><trkpt lat="43.15111029271362" lon="11.432680255936507"><ele>175.2</ele><time>2026-03-29T10:36:02.999Z</time></trkpt><trkpt lat="43.151145874176926" lon="11.432798844981903"><ele>174.6</ele><time>2026-03-29T10:36:03.999Z</time></trkpt><trkpt lat="43.15119802272207" lon="11.432915850500686"><ele>174.0</ele><time>2026-03-29T10:36:04.999Z</time></trkpt><trkpt lat="43.151274391229855" lon="11.433002373593272"><ele>173.2</ele><time>2026-03-29T10:36:05.999Z</time></trkpt><trkpt lat="43.151335732941774" lon="11.433117868176646"><ele>172.39999999999998</ele><time>2026-03-29T10:36:06.999Z</time></trkpt><trkpt lat="43.15141908857257" lon="11.433218370358553"><ele>171.6</ele><time>2026-03-29T10:36:07.999Z</time></trkpt><trkpt lat="43.15151955260502" lon="11.43329949209662"><ele>170.8</ele><time>2026-03-29T10:36:08.999Z</time></trkpt><trkpt lat="43.15161121915596" lon="11.433381850447782"><ele>170.0</ele><time>2026-03-29T10:36:09.999Z</time></trkpt><trkpt lat="43.151698090345484" lon="11.4334470364348"><ele>171.33333333333331</ele><time>2026-03-29T10:36:10.999Z</time></trkpt><trkpt lat="43.15178398912445" lon="11.433500636377342"><ele>172.66666666666666</ele><time>2026-03-29T10:36:11.999Z</time></trkpt><trkpt lat="43.15186868356597" lon="11.43352289259226"><ele>174.0</ele><time>2026-03-29T10:36:12.999Z</time></trkpt><trkpt lat="43.15194534317058" lon="11.433527859215728"><ele>175.33333333333334</ele><time>2026-03-29T10:36:13.999Z</time></trkpt><trkpt lat="43.15202824588584" lon="11.433507226927675"><ele>176.66666666666669</ele><time>2026-03-29T10:36:14.999Z</time></trkpt><trkpt lat="43.15211465669586" lon="11.433471412364616"><ele>178.0</ele><time>2026-03-29T10:36:15.999Z</time></trkpt><trkpt lat="43.152200374707235" lon="11.433399085361765"><ele>178.0</ele><time>2026-03-29T10:36:16.999Z</time></trkpt><trkpt lat="43.15227733648906" lon="11.433297838386716"><ele>178.0</ele><time>2026-03-29T10:36:17.999Z</time></trkpt><trkpt lat="43.15236237334906" lon="11.433192948979386"><ele>178.0</ele><time>2026-03-29T10:36:18.999Z</time></trkpt><trkpt lat="43.152435607017146" lon="11.433107292838674"><ele>178.0</ele><time>2026-03-29T10:36:19.999Z</time></trkpt><trkpt lat="43.152490023211044" lon="11.433043218306352"><ele>178.0</ele><time>2026-03-29T10:36:20.999Z</time></trkpt><trkpt lat="43.1526019377482" lon="11.432981235063275"><ele>176.83333333333334</ele><time>2026-03-29T10:36:23Z</time></trkpt><trkpt lat="43.15267556746875" lon="11.432987741767324"><ele>175.66666666666669</ele><time>2026-03-29T10:36:24Z</time></trkpt><trkpt lat="43.15274088097338" lon="11.43301449933164"><ele>174.5</ele><time>2026-03-29T10:36:25Z</time></trkpt><trkpt lat="43.152781959043985" lon="11.433173156826426"><ele>173.33333333333334</ele><time>2026-03-29T10:36:27Z</time></trkpt><trkpt lat="43.152773955676864" lon="11.433264596107069"><ele>172.16666666666666</ele><time>2026-03-29T10:36:28Z</time></trkpt><trkpt lat="43.15273962480025" lon="11.433337278391644"><ele>171.0</ele><time>2026-03-29T10:36:29Z</time></trkpt><trkpt lat="43.1526905783926" lon="11.433401323228782"><ele>171.0</ele><time>2026-03-29T10:36:30Z</time></trkpt><trkpt lat="43.152631734211" lon="11.433480300648428"><ele>171.0</ele><time>2026-03-29T10:36:31Z</time></trkpt><trkpt lat="43.15256373439088" lon="11.433562042380135"><ele>171.0</ele><time>2026-03-29T10:36:32Z</time></trkpt><trkpt lat="43.152468063150025" lon="11.433694512456409"><ele>171.0</ele><time>2026-03-29T10:36:33Z</time></trkpt><trkpt lat="43.15235481446833" lon="11.433839958570639"><ele>170.25</ele><time>2026-03-29T10:36:34Z</time></trkpt><trkpt lat="43.152245256088406" lon="11.433955893903871"><ele>169.5</ele><time>2026-03-29T10:36:35Z</time></trkpt><trkpt lat="43.15215689578669" lon="11.434065052867508"><ele>168.75</ele><time>2026-03-29T10:36:36Z</time></trkpt><trkpt lat="43.15205975191921" lon="11.434179203191594"><ele>168.0</ele><time>2026-03-29T10:36:37Z</time></trkpt><trkpt lat="43.15196177537978" lon="11.434298300077758"><ele>168.0</ele><time>2026-03-29T10:36:38Z</time></trkpt><trkpt lat="43.15187033576408" lon="11.434404506030937"><ele>168.0</ele><time>2026-03-29T10:36:39Z</time></trkpt><trkpt lat="43.151780996247425" lon="11.434508478061575"><ele>168.0</ele><time>2026-03-29T10:36:40Z</time></trkpt><trkpt lat="43.15170836557762" lon="11.434595211912201"><ele>168.0</ele><time>2026-03-29T10:36:41Z</time></trkpt><trkpt lat="43.151644357020196" lon="11.434689775986723"><ele>168.0</ele><time>2026-03-29T10:36:42Z</time></trkpt><trkpt lat="43.15160225145425" lon="11.43479908298852"><ele>166.20000000000002</ele><time>2026-03-29T10:36:43Z</time></trkpt><trkpt lat="43.15156964806924" lon="11.434910813073616"><ele>164.4</ele><time>2026-03-29T10:36:44Z</time></trkpt><trkpt lat="43.15155453792645" lon="11.435051947752703"><ele>162.60000000000002</ele><time>2026-03-29T10:36:45Z</time></trkpt><trkpt lat="43.15155338283103" lon="11.43521945726198"><ele>160.8</ele><time>2026-03-29T10:36:46Z</time></trkpt><trkpt lat="43.15157737468154" lon="11.435385450450287"><ele>159.0</ele><time>2026-03-29T10:36:47Z</time></trkpt><trkpt lat="43.151610537866496" lon="11.435561770245092"><ele>158.5</ele><time>2026-03-29T10:36:48Z</time></trkpt><trkpt lat="43.15164234804932" lon="11.435757267893434"><ele>158.0</ele><time>2026-03-29T10:36:49Z</time></trkpt><trkpt lat="43.151671808479186" lon="11.435948814613456"><ele>157.5</ele><time>2026-03-29T10:36:50Z</time></trkpt><trkpt lat="43.15170070098211" lon="11.436154565622218"><ele>157.0</ele><time>2026-03-29T10:36:51Z</time></trkpt><trkpt lat="43.15173531538422" lon="11.436382822860471"><ele>156.33333333333334</ele><time>2026-03-29T10:36:52Z</time></trkpt><trkpt lat="43.15177587966321" lon="11.43662650823855"><ele>155.66666666666666</ele><time>2026-03-29T10:36:53Z</time></trkpt><trkpt lat="43.15181002967104" lon="11.436860689658117"><ele>155.0</ele><time>2026-03-29T10:36:54Z</time></trkpt><trkpt lat="43.151839102341256" lon="11.437061930145756"><ele>155.25</ele><time>2026-03-29T10:36:55Z</time></trkpt><trkpt lat="43.15187046957213" lon="11.437258498848806"><ele>155.5</ele><time>2026-03-29T10:36:56Z</time></trkpt><trkpt lat="43.15189333327886" lon="11.437447239403989"><ele>155.75</ele><time>2026-03-29T10:36:57Z</time></trkpt><trkpt lat="43.151929213960535" lon="11.437650237028011"><ele>156.0</ele><time>2026-03-29T10:36:58Z</time></trkpt><trkpt lat="43.15195778229167" lon="11.4378487126369"><ele>157.25</ele><time>2026-03-29T10:36:59Z</time></trkpt><trkpt lat="43.15198575063734" lon="11.438016574350016"><ele>158.5</ele><time>2026-03-29T10:37:00Z</time></trkpt><trkpt lat="43.151991314007105" lon="11.43817512129125"><ele>159.75</ele><time>2026-03-29T10:37:01Z</time></trkpt><trkpt lat="43.151998100694065" lon="11.438324822308472"><ele>161.0</ele><time>2026-03-29T10:37:02Z</time></trkpt><trkpt lat="43.151990362092015" lon="11.43847199187579"><ele>161.0</ele><time>2026-03-29T10:37:03Z</time></trkpt><trkpt lat="43.151965072418086" lon="11.43859545617976"><ele>161.0</ele><time>2026-03-29T10:37:04Z</time></trkpt><trkpt lat="43.15191985809781" lon="11.438713174240146"><ele>161.0</ele><time>2026-03-29T10:37:05Z</time></trkpt><trkpt lat="43.15184521918437" lon="11.438832282429749"><ele>161.0</ele><time>2026-03-29T10:37:06Z</time></trkpt><trkpt lat="43.15175480884553" lon="11.438981713297554"><ele>161.0</ele><time>2026-03-29T10:37:07Z</time></trkpt><trkpt lat="43.15166064207789" lon="11.439138272633613"><ele>161.25</ele><time>2026-03-29T10:37:08Z</time></trkpt><trkpt lat="43.15157722007949" lon="11.439276967499692"><ele>161.5</ele><time>2026-03-29T10:37:09Z</time></trkpt><trkpt lat="43.15150260049737" lon="11.439401026761491"><ele>161.75</ele><time>2026-03-29T10:37:10Z</time></trkpt><trkpt lat="43.15142647874874" lon="11.439531621677363"><ele>162.0</ele><time>2026-03-29T10:37:11Z</time></trkpt><trkpt lat="43.151345364385335" lon="11.43967746393665"><ele>162.0</ele><time>2026-03-29T10:37:12Z</time></trkpt><trkpt lat="43.15125786792496" lon="11.43984621537957"><ele>162.0</ele><time>2026-03-29T10:37:13Z</time></trkpt><trkpt lat="43.1511689396396" lon="11.440034358285043"><ele>162.0</ele><time>2026-03-29T10:37:14Z</time></trkpt><trkpt lat="43.15109055076289" lon="11.440223667714141"><ele>162.0</ele><time>2026-03-29T10:37:15Z</time></trkpt><trkpt lat="43.15103342469683" lon="11.440382133160323"><ele>162.0</ele><time>2026-03-29T10:37:16Z</time></trkpt><trkpt lat="43.15098295194461" lon="11.440519013236463"><ele>162.0</ele><time>2026-03-29T10:37:17Z</time></trkpt><trkpt lat="43.150917094017714" lon="11.440651776350606"><ele>162.0</ele><time>2026-03-29T10:37:18Z</time></trkpt><trkpt lat="43.150823900455606" lon="11.440760332799659"><ele>162.25</ele><time>2026-03-29T10:37:19Z</time></trkpt><trkpt lat="43.15071610467147" lon="11.44085329658671"><ele>162.5</ele><time>2026-03-29T10:37:20Z</time></trkpt><trkpt lat="43.15059462759794" lon="11.44094224177803"><ele>162.75</ele><time>2026-03-29T10:37:21Z</time></trkpt><trkpt lat="43.15046667435192" lon="11.441043050304058"><ele>163.0</ele><time>2026-03-29T10:37:22Z</time></trkpt><trkpt lat="43.15033998966738" lon="11.441148259228484"><ele>163.0</ele><time>2026-03-29T10:37:23Z</time></trkpt><trkpt lat="43.150215197131395" lon="11.441251896417842"><ele>163.0</ele><time>2026-03-29T10:37:24Z</time></trkpt><trkpt lat="43.15009237015223" lon="11.441350723647272"><ele>163.0</ele><time>2026-03-29T10:37:25Z</time></trkpt><trkpt lat="43.1499601080678" lon="11.441455739362057"><ele>163.0</ele><time>2026-03-29T10:37:26Z</time></trkpt><trkpt lat="43.14982647986653" lon="11.441584605975219"><ele>163.0</ele><time>2026-03-29T10:37:27Z</time></trkpt><trkpt lat="43.149673552464066" lon="11.441683264693417"><ele>163.0</ele><time>2026-03-29T10:37:28Z</time></trkpt><trkpt lat="43.14953001825425" lon="11.441797230771144"><ele>163.0</ele><time>2026-03-29T10:37:28.999Z</time></trkpt><trkpt lat="43.14940595543834" lon="11.441896160467524"><ele>163.0</ele><time>2026-03-29T10:37:29.999Z</time></trkpt><trkpt lat="43.14928552017192" lon="11.44199367593242"><ele>163.0</ele><time>2026-03-29T10:37:30.999Z</time></trkpt><trkpt lat="43.14915750955262" lon="11.442099093757237"><ele>163.0</ele><time>2026-03-29T10:37:31.999Z</time></trkpt><trkpt lat="43.14902320911377" lon="11.442213513310797"><ele>163.0</ele><time>2026-03-29T10:37:32.999Z</time></trkpt><trkpt lat="43.14890265994796" lon="11.442317007837536"><ele>163.25</ele><time>2026-03-29T10:37:33.999Z</time></trkpt><trkpt lat="43.148805302202426" lon="11.442406808400445"><ele>163.5</ele><time>2026-03-29T10:37:34.999Z</time></trkpt><trkpt lat="43.14871612422198" lon="11.442533213612865"><ele>163.75</ele><time>2026-03-29T10:37:35.999Z</time></trkpt><trkpt lat="43.148628372347616" lon="11.442658272052695"><ele>164.0</ele><time>2026-03-29T10:37:36.999Z</time></trkpt><trkpt lat="43.148524860292746" lon="11.442784877811178"><ele>164.0</ele><time>2026-03-29T10:37:37.999Z</time></trkpt><trkpt lat="43.148425761337776" lon="11.442934910379892"><ele>164.0</ele><time>2026-03-29T10:37:38.999Z</time></trkpt><trkpt lat="43.148323745691954" lon="11.443089648547193"><ele>164.0</ele><time>2026-03-29T10:37:39.999Z</time></trkpt><trkpt lat="43.148230879268944" lon="11.443230509092324"><ele>164.0</ele><time>2026-03-29T10:37:40.999Z</time></trkpt><trkpt lat="43.14817299339787" lon="11.443352896266482"><ele>164.0</ele><time>2026-03-29T10:37:41.999Z</time></trkpt><trkpt lat="43.14811615516262" lon="11.443454268700872"><ele>164.0</ele><time>2026-03-29T10:37:42.999Z</time></trkpt><trkpt lat="43.14806004772445" lon="11.443570918091133"><ele>164.0</ele><time>2026-03-29T10:37:43.999Z</time></trkpt><trkpt lat="43.14804073431063" lon="11.443670873463379"><ele>164.0</ele><time>2026-03-29T10:37:44.999Z</time></trkpt><trkpt lat="43.14802734984616" lon="11.443765844597818"><ele>164.0</ele><time>2026-03-29T10:37:45.999Z</time></trkpt><trkpt lat="43.14805562408402" lon="11.443887632832412"><ele>164.0</ele><time>2026-03-29T10:37:46.999Z</time></trkpt><trkpt lat="43.14809106096604" lon="11.444010743274925"><ele>164.0</ele><time>2026-03-29T10:37:47.999Z</time></trkpt><trkpt lat="43.148142802989064" lon="11.444143925074968"><ele>164.0</ele><time>2026-03-29T10:37:48.999Z</time></trkpt><trkpt lat="43.14820013767166" lon="11.444263166262328"><ele>164.0</ele><time>2026-03-29T10:37:49.999Z</time></trkpt><trkpt lat="43.14820864878548" lon="11.444433842481027"><ele>164.0</ele><time>2026-03-29T10:37:50.999Z</time></trkpt><trkpt lat="43.14820882659194" lon="11.444531301282508"><ele>164.0</ele><time>2026-03-29T10:37:51.999Z</time></trkpt><trkpt lat="43.148177663039135" lon="11.444626823318774"><ele>165.16666666666666</ele><time>2026-03-29T10:37:52.999Z</time></trkpt><trkpt lat="43.14812580279405" lon="11.444724845632043"><ele>166.33333333333331</ele><time>2026-03-29T10:37:53.999Z</time></trkpt><trkpt lat="43.1480579943016" lon="11.44477555705575"><ele>167.5</ele><time>2026-03-29T10:37:54.999Z</time></trkpt><trkpt lat="43.14797892968006" lon="11.44481482839249"><ele>168.66666666666666</ele><time>2026-03-29T10:37:55.999Z</time></trkpt><trkpt lat="43.14789765700513" lon="11.444795156743275"><ele>169.83333333333334</ele><time>2026-03-29T10:37:56.999Z</time></trkpt><trkpt lat="43.14781773900087" lon="11.444762480217717"><ele>171.0</ele><time>2026-03-29T10:37:57.999Z</time></trkpt><trkpt lat="43.14771447603039" lon="11.44471226791503"><ele>171.0</ele><time>2026-03-29T10:37:58.999Z</time></trkpt><trkpt lat="43.14759762233404" lon="11.44467578576522"><ele>171.0</ele><time>2026-03-29T10:37:59.999Z</time></trkpt><trkpt lat="43.147460328183165" lon="11.444611839177183"><ele>171.0</ele><time>2026-03-29T10:38:00.999Z</time></trkpt><trkpt lat="43.14733290731527" lon="11.444578516962434"><ele>171.0</ele><time>2026-03-29T10:38:01.999Z</time></trkpt><trkpt lat="43.14722568866777" lon="11.444549817703564"><ele>168.75</ele><time>2026-03-29T10:38:02.999Z</time></trkpt><trkpt lat="43.14711405454478" lon="11.444512135427932"><ele>166.5</ele><time>2026-03-29T10:38:03.999Z</time></trkpt><trkpt lat="43.14698410222102" lon="11.44450052206341"><ele>164.25</ele><time>2026-03-29T10:38:04.999Z</time></trkpt><trkpt lat="43.14684095523115" lon="11.444498656750621"><ele>162.0</ele><time>2026-03-29T10:38:05.999Z</time></trkpt><trkpt lat="43.14669778384483" lon="11.444508487535726"><ele>162.0</ele><time>2026-03-29T10:38:06.999Z</time></trkpt><trkpt lat="43.146572362777015" lon="11.444531760425148"><ele>162.0</ele><time>2026-03-29T10:38:07.999Z</time></trkpt><trkpt lat="43.14645863894787" lon="11.444566905318572"><ele>162.0</ele><time>2026-03-29T10:38:08.999Z</time></trkpt><trkpt lat="43.14636077983315" lon="11.444619050641021"><ele>162.0</ele><time>2026-03-29T10:38:09.999Z</time></trkpt><trkpt lat="43.14627954117338" lon="11.444685266100368"><ele>162.0</ele><time>2026-03-29T10:38:10.999Z</time></trkpt><trkpt lat="43.146213149492894" lon="11.44478349300914"><ele>162.0</ele><time>2026-03-29T10:38:11.999Z</time></trkpt><trkpt lat="43.14615914180462" lon="11.444907584707284"><ele>162.0</ele><time>2026-03-29T10:38:12.999Z</time></trkpt><trkpt lat="43.146117173877215" lon="11.445055915587563"><ele>162.0</ele><time>2026-03-29T10:38:13.999Z</time></trkpt><trkpt lat="43.14609363586358" lon="11.445211233923848"><ele>162.0</ele><time>2026-03-29T10:38:14.999Z</time></trkpt><trkpt lat="43.14609443887216" lon="11.445342150696924"><ele>162.0</ele><time>2026-03-29T10:38:15.999Z</time></trkpt><trkpt lat="43.14612522039613" lon="11.445482225197361"><ele>161.75</ele><time>2026-03-29T10:38:16.999Z</time></trkpt><trkpt lat="43.14617518846786" lon="11.445638360119197"><ele>161.5</ele><time>2026-03-29T10:38:17.999Z</time></trkpt><trkpt lat="43.146202517394244" lon="11.44583226812109"><ele>161.25</ele><time>2026-03-29T10:38:18.999Z</time></trkpt><trkpt lat="43.146252288552525" lon="11.446034687502527"><ele>161.0</ele><time>2026-03-29T10:38:19.999Z</time></trkpt><trkpt lat="43.14632060134588" lon="11.446225980054281"><ele>162.0</ele><time>2026-03-29T10:38:20.999Z</time></trkpt><trkpt lat="43.14635706837962" lon="11.446377195796664"><ele>163.0</ele><time>2026-03-29T10:38:21.999Z</time></trkpt><trkpt lat="43.14639231440995" lon="11.446505922931596"><ele>164.0</ele><time>2026-03-29T10:38:22.999Z</time></trkpt><trkpt lat="43.14640789033515" lon="11.446632986684858"><ele>165.0</ele><time>2026-03-29T10:38:23.999Z</time></trkpt><trkpt lat="43.14642139289143" lon="11.446736654867482"><ele>166.0</ele><time>2026-03-29T10:38:24.999Z</time></trkpt><trkpt lat="43.14642977681238" lon="11.446834223483355"><ele>166.0</ele><time>2026-03-29T10:38:25.999Z</time></trkpt><trkpt lat="43.14637124978479" lon="11.446894463031517"><ele>166.0</ele><time>2026-03-29T10:38:26.999Z</time></trkpt><trkpt lat="43.1462651279402" lon="11.446916168276466"><ele>166.0</ele><time>2026-03-29T10:38:29Z</time></trkpt><trkpt lat="43.14620167478939" lon="11.446894588076338"><ele>166.0</ele><time>2026-03-29T10:38:30Z</time></trkpt><trkpt lat="43.14610588038941" lon="11.44686934301864"><ele>166.0</ele><time>2026-03-29T10:38:31Z</time></trkpt><trkpt lat="43.14599301785866" lon="11.446855030479536"><ele>166.0</ele><time>2026-03-29T10:38:32Z</time></trkpt><trkpt lat="43.14587527475436" lon="11.446842979275061"><ele>166.0</ele><time>2026-03-29T10:38:33Z</time></trkpt><trkpt lat="43.14575537883951" lon="11.446840571726947"><ele>166.0</ele><time>2026-03-29T10:38:34Z</time></trkpt><trkpt lat="43.145644748159064" lon="11.446854546246728"><ele>166.0</ele><time>2026-03-29T10:38:35Z</time></trkpt><trkpt lat="43.145546312739086" lon="11.446876954278991"><ele>166.0</ele><time>2026-03-29T10:38:36Z</time></trkpt><trkpt lat="43.14545120221378" lon="11.446917977731527"><ele>166.4</ele><time>2026-03-29T10:38:37Z</time></trkpt><trkpt lat="43.145361133636236" lon="11.446976569363907"><ele>166.8</ele><time>2026-03-29T10:38:38Z</time></trkpt><trkpt lat="43.145272743027924" lon="11.447073464686062"><ele>167.20000000000002</ele><time>2026-03-29T10:38:39Z</time></trkpt><trkpt lat="43.145182430926155" lon="11.447174775331497"><ele>167.60000000000002</ele><time>2026-03-29T10:38:40Z</time></trkpt><trkpt lat="43.1451063239723" lon="11.447265965991988"><ele>168.0</ele><time>2026-03-29T10:38:41Z</time></trkpt><trkpt lat="43.145042788993855" lon="11.447346071846397"><ele>168.0</ele><time>2026-03-29T10:38:42Z</time></trkpt><trkpt lat="43.14497637462673" lon="11.44743429198587"><ele>168.0</ele><time>2026-03-29T10:38:43Z</time></trkpt><trkpt lat="43.144929573280095" lon="11.447503865098865"><ele>168.0</ele><time>2026-03-29T10:38:44Z</time></trkpt><trkpt lat="43.14489068979852" lon="11.447608531657423"><ele>168.0</ele><time>2026-03-29T10:38:46Z</time></trkpt><trkpt lat="43.14488195547989" lon="11.447709343517376"><ele>168.0</ele><time>2026-03-29T10:38:48Z</time></trkpt><trkpt lat="43.144866550947945" lon="11.447809181058808"><ele>168.0</ele><time>2026-03-29T10:39:30Z</time></trkpt><trkpt lat="43.14493826922469" lon="11.447891948351632"><ele>168.0</ele><time>2026-03-29T10:39:49.999Z</time></trkpt><trkpt lat="43.14493492353265" lon="11.447803463608771"><ele>168.0</ele><time>2026-03-29T10:40:31.999Z</time></trkpt><trkpt lat="43.144894721765645" lon="11.44789957426037"><ele>168.0</ele><time>2026-03-29T10:56:02Z</time></trkpt><trkpt lat="43.14489414122283" lon="11.448019776422846"><ele>168.0</ele><time>2026-03-29T10:56:04Z</time></trkpt><trkpt lat="43.14489496197705" lon="11.448150960846084"><ele>168.0</ele><time>2026-03-29T10:56:06Z</time></trkpt><trkpt lat="43.14488055716865" lon="11.448312693472287"><ele>168.0</ele><time>2026-03-29T10:56:08Z</time></trkpt><trkpt lat="43.1448165419626" lon="11.448463247972299"><ele>167.85714285714286</ele><time>2026-03-29T10:56:10Z</time></trkpt><trkpt lat="43.144753439527335" lon="11.448502320342017"><ele>167.71428571428572</ele><time>2026-03-29T10:56:11Z</time></trkpt><trkpt lat="43.14468286617028" lon="11.448530955157128"><ele>167.57142857142856</ele><time>2026-03-29T10:56:12Z</time></trkpt><trkpt lat="43.14461693528661" lon="11.448555206264668"><ele>167.42857142857144</ele><time>2026-03-29T10:56:13Z</time></trkpt><trkpt lat="43.14454503576686" lon="11.44856024692507"><ele>167.28571428571428</ele><time>2026-03-29T10:56:14Z</time></trkpt><trkpt lat="43.144464465596634" lon="11.44855637180892"><ele>167.14285714285714</ele><time>2026-03-29T10:56:15Z</time></trkpt><trkpt lat="43.144380796326516" lon="11.448545014329646"><ele>167.0</ele><time>2026-03-29T10:56:16Z</time></trkpt><trkpt lat="43.1442856284164" lon="11.448526770438127"><ele>167.0</ele><time>2026-03-29T10:56:17Z</time></trkpt><trkpt lat="43.14416821063082" lon="11.448508767061107"><ele>167.0</ele><time>2026-03-29T10:56:17.999Z</time></trkpt><trkpt lat="43.144031675247625" lon="11.448449634587803"><ele>167.0</ele><time>2026-03-29T10:56:18.999Z</time></trkpt><trkpt lat="43.143919621024764" lon="11.4483897847535"><ele>167.0</ele><time>2026-03-29T10:56:19.999Z</time></trkpt><trkpt lat="43.14381842063953" lon="11.448321731131358"><ele>168.0</ele><time>2026-03-29T10:56:20.999Z</time></trkpt><trkpt lat="43.14373202443487" lon="11.448264427989013"><ele>169.0</ele><time>2026-03-29T10:56:21.999Z</time></trkpt><trkpt lat="43.143633229156386" lon="11.44820174102327"><ele>170.0</ele><time>2026-03-29T10:56:22.999Z</time></trkpt><trkpt lat="43.143531134716675" lon="11.44813942468086"><ele>171.0</ele><time>2026-03-29T10:56:23.999Z</time></trkpt><trkpt lat="43.1434196533454" lon="11.448063123648302"><ele>172.0</ele><time>2026-03-29T10:56:24.999Z</time></trkpt><trkpt lat="43.143321419298005" lon="11.447980753908778"><ele>170.2</ele><time>2026-03-29T10:56:25.999Z</time></trkpt><trkpt lat="43.14323641101388" lon="11.447911628460663"><ele>168.39999999999998</ele><time>2026-03-29T10:56:26.999Z</time></trkpt><trkpt lat="43.14315618829883" lon="11.447857446645218"><ele>166.60000000000002</ele><time>2026-03-29T10:56:27.999Z</time></trkpt><trkpt lat="43.14306112053028" lon="11.447778059347328"><ele>164.8</ele><time>2026-03-29T10:56:28.999Z</time></trkpt><trkpt lat="43.14294611387431" lon="11.447722377872633"><ele>163.0</ele><time>2026-03-29T10:56:29.999Z</time></trkpt><trkpt lat="43.142825193217774" lon="11.447684254800754"><ele>163.0</ele><time>2026-03-29T10:56:30.999Z</time></trkpt><trkpt lat="43.142708200452745" lon="11.447666613803415"><ele>163.0</ele><time>2026-03-29T10:56:31.999Z</time></trkpt><trkpt lat="43.14260338500831" lon="11.447668104062515"><ele>163.0</ele><time>2026-03-29T10:56:32.999Z</time></trkpt><trkpt lat="43.142487691543195" lon="11.447704576789985"><ele>163.0</ele><time>2026-03-29T10:56:33.999Z</time></trkpt><trkpt lat="43.14238018699583" lon="11.447737430554783"><ele>162.75</ele><time>2026-03-29T10:56:34.999Z</time></trkpt><trkpt lat="43.14226425735871" lon="11.447747468187217"><ele>162.5</ele><time>2026-03-29T10:56:35.999Z</time></trkpt><trkpt lat="43.14214744665825" lon="11.44778551434436"><ele>162.25</ele><time>2026-03-29T10:56:36.999Z</time></trkpt><trkpt lat="43.142023807324534" lon="11.44782730671256"><ele>162.0</ele><time>2026-03-29T10:56:37.999Z</time></trkpt><trkpt lat="43.1418975424584" lon="11.447870548104104"><ele>162.0</ele><time>2026-03-29T10:56:38.999Z</time></trkpt><trkpt lat="43.14176724425624" lon="11.44791558050537"><ele>162.0</ele><time>2026-03-29T10:56:39.999Z</time></trkpt><trkpt lat="43.141631025699226" lon="11.447963135996895"><ele>162.0</ele><time>2026-03-29T10:56:40.999Z</time></trkpt><trkpt lat="43.141495747603436" lon="11.448023500908496"><ele>162.0</ele><time>2026-03-29T10:56:41.999Z</time></trkpt><trkpt lat="43.14135066949669" lon="11.448063462723391"><ele>164.25</ele><time>2026-03-29T10:56:42.999Z</time></trkpt><trkpt lat="43.141202918390086" lon="11.448072283253115"><ele>166.5</ele><time>2026-03-29T10:56:43.999Z</time></trkpt><trkpt lat="43.14107853638936" lon="11.44809566387445"><ele>168.75</ele><time>2026-03-29T10:56:44.999Z</time></trkpt><trkpt lat="43.14095096064322" lon="11.448118903108265"><ele>171.0</ele><time>2026-03-29T10:56:45.999Z</time></trkpt><trkpt lat="43.140816878304896" lon="11.448142886749023"><ele>170.4</ele><time>2026-03-29T10:56:46.999Z</time></trkpt><trkpt lat="43.14069117476257" lon="11.448159716108439"><ele>169.8</ele><time>2026-03-29T10:56:47.999Z</time></trkpt><trkpt lat="43.14059027961859" lon="11.448167532391219"><ele>169.20000000000002</ele><time>2026-03-29T10:56:48.999Z</time></trkpt><trkpt lat="43.14050392749893" lon="11.448157414124315"><ele>168.60000000000002</ele><time>2026-03-29T10:56:49.999Z</time></trkpt><trkpt lat="43.140416830752834" lon="11.448137899022718"><ele>168.0</ele><time>2026-03-29T10:56:50.999Z</time></trkpt><trkpt lat="43.14031570635127" lon="11.448105149792285"><ele>168.0</ele><time>2026-03-29T10:56:51.999Z</time></trkpt><trkpt lat="43.140215995754986" lon="11.448058391529024"><ele>168.0</ele><time>2026-03-29T10:56:52.999Z</time></trkpt><trkpt lat="43.14011651667786" lon="11.448010312919743"><ele>168.0</ele><time>2026-03-29T10:56:53.999Z</time></trkpt><trkpt lat="43.140028314021194" lon="11.447961553180614"><ele>168.0</ele><time>2026-03-29T10:56:54.999Z</time></trkpt><trkpt lat="43.13994349154662" lon="11.44791068957215"><ele>168.0</ele><time>2026-03-29T10:56:55.999Z</time></trkpt><trkpt lat="43.139870214130184" lon="11.447871306423034"><ele>166.33333333333334</ele><time>2026-03-29T10:56:56.999Z</time></trkpt><trkpt lat="43.139809148174805" lon="11.447829683873971"><ele>164.66666666666666</ele><time>2026-03-29T10:56:57.999Z</time></trkpt><trkpt lat="43.13974108837282" lon="11.447805949410812"><ele>163.0</ele><time>2026-03-29T10:56:58.999Z</time></trkpt><trkpt lat="43.139673745663394" lon="11.447777395607654"><ele>161.33333333333331</ele><time>2026-03-29T10:56:59.999Z</time></trkpt><trkpt lat="43.139589433557056" lon="11.447792024629496"><ele>159.66666666666666</ele><time>2026-03-29T10:57:00.999Z</time></trkpt><trkpt lat="43.139497704859174" lon="11.447840209445262"><ele>158.0</ele><time>2026-03-29T10:57:01.999Z</time></trkpt><trkpt lat="43.13941480675806" lon="11.447925745558225"><ele>158.4</ele><time>2026-03-29T10:57:02.999Z</time></trkpt><trkpt lat="43.139356767838095" lon="11.448013248923255"><ele>158.8</ele><time>2026-03-29T10:57:03.999Z</time></trkpt><trkpt lat="43.13932808826452" lon="11.44815981220503"><ele>159.2</ele><time>2026-03-29T10:57:04.999Z</time></trkpt><trkpt lat="43.13930384977064" lon="11.448297918160247"><ele>159.6</ele><time>2026-03-29T10:57:05.999Z</time></trkpt><trkpt lat="43.13928114181139" lon="11.448472592919506"><ele>160.0</ele><time>2026-03-29T10:57:06.999Z</time></trkpt><trkpt lat="43.139269703419664" lon="11.448618890459775"><ele>160.0</ele><time>2026-03-29T10:57:07.999Z</time></trkpt><trkpt lat="43.139263733114355" lon="11.448754742054849"><ele>160.0</ele><time>2026-03-29T10:57:08.999Z</time></trkpt><trkpt lat="43.139259482377234" lon="11.448917002114339"><ele>160.0</ele><time>2026-03-29T10:57:09.999Z</time></trkpt><trkpt lat="43.139255284040985" lon="11.449092158198846"><ele>160.0</ele><time>2026-03-29T10:57:10.999Z</time></trkpt><trkpt lat="43.13925144192721" lon="11.449252452485311"><ele>160.0</ele><time>2026-03-29T10:57:11.999Z</time></trkpt><trkpt lat="43.1392486091488" lon="11.449433701067505"><ele>160.0</ele><time>2026-03-29T10:57:12.999Z</time></trkpt><trkpt lat="43.13924694808113" lon="11.4496263548414"><ele>160.0</ele><time>2026-03-29T10:57:13.999Z</time></trkpt><trkpt lat="43.13924818969692" lon="11.449832674433543"><ele>160.0</ele><time>2026-03-29T10:57:14.999Z</time></trkpt><trkpt lat="43.139252482622744" lon="11.450028042878708"><ele>160.0</ele><time>2026-03-29T10:57:15.999Z</time></trkpt><trkpt lat="43.13926297951526" lon="11.450206518514563"><ele>160.0</ele><time>2026-03-29T10:57:16.999Z</time></trkpt><trkpt lat="43.13929015124116" lon="11.450349744416416"><ele>160.0</ele><time>2026-03-29T10:57:17.999Z</time></trkpt><trkpt lat="43.139288326064055" lon="11.450503892603678"><ele>160.0</ele><time>2026-03-29T10:57:18.999Z</time></trkpt><trkpt lat="43.13927955017556" lon="11.450661290481678"><ele>160.4</ele><time>2026-03-29T10:57:19.999Z</time></trkpt><trkpt lat="43.139245239831794" lon="11.45079997778051"><ele>160.8</ele><time>2026-03-29T10:57:20.999Z</time></trkpt><trkpt lat="43.13920774283225" lon="11.450907351911935"><ele>161.2</ele><time>2026-03-29T10:57:22Z</time></trkpt><trkpt lat="43.139159679995835" lon="11.451016912258613"><ele>161.6</ele><time>2026-03-29T10:57:23Z</time></trkpt><trkpt lat="43.13910100408324" lon="11.451132442810367"><ele>162.0</ele><time>2026-03-29T10:57:24Z</time></trkpt><trkpt lat="43.139031884928244" lon="11.45126984226809"><ele>160.25</ele><time>2026-03-29T10:57:25Z</time></trkpt><trkpt lat="43.13897751106777" lon="11.45141882470416"><ele>158.5</ele><time>2026-03-29T10:57:26Z</time></trkpt><trkpt lat="43.13889495632017" lon="11.451544331567808"><ele>156.75</ele><time>2026-03-29T10:57:27Z</time></trkpt><trkpt lat="43.13881380308453" lon="11.451702405719077"><ele>155.0</ele><time>2026-03-29T10:57:28Z</time></trkpt><trkpt lat="43.138731882855666" lon="11.45185692619652"><ele>155.0</ele><time>2026-03-29T10:57:29Z</time></trkpt><trkpt lat="43.138651534958626" lon="11.451993140108621"><ele>155.0</ele><time>2026-03-29T10:57:30Z</time></trkpt><trkpt lat="43.1385587447338" lon="11.45213296961697"><ele>155.0</ele><time>2026-03-29T10:57:31Z</time></trkpt><trkpt lat="43.13846815807893" lon="11.452254912909861"><ele>155.0</ele><time>2026-03-29T10:57:32Z</time></trkpt><trkpt lat="43.13837837426941" lon="11.452366728776939"><ele>154.5</ele><time>2026-03-29T10:57:33Z</time></trkpt><trkpt lat="43.13829868435248" lon="11.452459369122874"><ele>154.0</ele><time>2026-03-29T10:57:34Z</time></trkpt><trkpt lat="43.13821804527594" lon="11.45253936796856"><ele>153.5</ele><time>2026-03-29T10:57:35Z</time></trkpt><trkpt lat="43.13810300318514" lon="11.452633077017145"><ele>153.0</ele><time>2026-03-29T10:57:36Z</time></trkpt><trkpt lat="43.13795397636677" lon="11.452739140514936"><ele>153.0</ele><time>2026-03-29T10:57:37Z</time></trkpt><trkpt lat="43.137788584074876" lon="11.452845320831928"><ele>153.0</ele><time>2026-03-29T10:57:38Z</time></trkpt><trkpt lat="43.13763725167472" lon="11.452940666674507"><ele>153.0</ele><time>2026-03-29T10:57:39Z</time></trkpt><trkpt lat="43.13751338320519" lon="11.453018709050252"><ele>153.0</ele><time>2026-03-29T10:57:40Z</time></trkpt><trkpt lat="43.13739606488859" lon="11.453096773217611"><ele>153.0</ele><time>2026-03-29T10:57:41Z</time></trkpt><trkpt lat="43.137268038458224" lon="11.453193649257939"><ele>153.0</ele><time>2026-03-29T10:57:42Z</time></trkpt><trkpt lat="43.13713747002805" lon="11.45332655031977"><ele>153.0</ele><time>2026-03-29T10:57:43Z</time></trkpt><trkpt lat="43.13701278900398" lon="11.453456866231745"><ele>153.0</ele><time>2026-03-29T10:57:44Z</time></trkpt><trkpt lat="43.136893262854514" lon="11.453578662658861"><ele>153.0</ele><time>2026-03-29T10:57:45Z</time></trkpt><trkpt lat="43.13678582720093" lon="11.453693843930258"><ele>153.0</ele><time>2026-03-29T10:57:46Z</time></trkpt><trkpt lat="43.136681683418765" lon="11.453812852537034"><ele>153.0</ele><time>2026-03-29T10:57:47Z</time></trkpt><trkpt lat="43.136574405706256" lon="11.453947628152005"><ele>152.33333333333334</ele><time>2026-03-29T10:57:48Z</time></trkpt><trkpt lat="43.13646584744783" lon="11.454097669793848"><ele>151.66666666666669</ele><time>2026-03-29T10:57:49Z</time></trkpt><trkpt lat="43.13636372058452" lon="11.454256550345322"><ele>151.0</ele><time>2026-03-29T10:57:50Z</time></trkpt><trkpt lat="43.13626601361549" lon="11.45442980513022"><ele>151.0</ele><time>2026-03-29T10:57:51Z</time></trkpt><trkpt lat="43.13617783240894" lon="11.45460618903276"><ele>151.0</ele><time>2026-03-29T10:57:52Z</time></trkpt><trkpt lat="43.13609712599848" lon="11.454779438785009"><ele>151.0</ele><time>2026-03-29T10:57:53Z</time></trkpt><trkpt lat="43.136022168526566" lon="11.45494573282659"><ele>151.0</ele><time>2026-03-29T10:57:54Z</time></trkpt><trkpt lat="43.13594392349595" lon="11.455119320483002"><ele>151.25</ele><time>2026-03-29T10:57:55Z</time></trkpt><trkpt lat="43.1358598897073" lon="11.45529500802026"><ele>151.5</ele><time>2026-03-29T10:57:56Z</time></trkpt><trkpt lat="43.135773636178435" lon="11.455451869569353"><ele>151.75</ele><time>2026-03-29T10:57:57Z</time></trkpt><trkpt lat="43.13567560728454" lon="11.45558924433961"><ele>152.0</ele><time>2026-03-29T10:57:58Z</time></trkpt><trkpt lat="43.13555852844513" lon="11.45571456894395"><ele>152.0</ele><time>2026-03-29T10:57:59Z</time></trkpt><trkpt lat="43.13543181270642" lon="11.455843334086014"><ele>152.0</ele><time>2026-03-29T10:58:00Z</time></trkpt><trkpt lat="43.13529548339196" lon="11.45598063571608"><ele>152.0</ele><time>2026-03-29T10:58:01Z</time></trkpt><trkpt lat="43.135151294090356" lon="11.45612585343549"><ele>152.0</ele><time>2026-03-29T10:58:02Z</time></trkpt><trkpt lat="43.135014612045694" lon="11.456264219132992"><ele>152.0</ele><time>2026-03-29T10:58:03Z</time></trkpt><trkpt lat="43.13489503005596" lon="11.45639043850654"><ele>152.0</ele><time>2026-03-29T10:58:04Z</time></trkpt><trkpt lat="43.13478446304408" lon="11.456507142487448"><ele>152.0</ele><time>2026-03-29T10:58:05Z</time></trkpt><trkpt lat="43.13466979838181" lon="11.456627046241103"><ele>152.0</ele><time>2026-03-29T10:58:06Z</time></trkpt><trkpt lat="43.13453203100904" lon="11.456765881704303"><ele>152.0</ele><time>2026-03-29T10:58:07Z</time></trkpt><trkpt lat="43.134387919389916" lon="11.456907323354933"><ele>152.0</ele><time>2026-03-29T10:58:08Z</time></trkpt><trkpt lat="43.1342547377317" lon="11.457040691261227"><ele>152.0</ele><time>2026-03-29T10:58:09Z</time></trkpt><trkpt lat="43.13413022037089" lon="11.45716590105911"><ele>152.0</ele><time>2026-03-29T10:58:10Z</time></trkpt><trkpt lat="43.13400215190652" lon="11.457294681795574"><ele>151.33333333333331</ele><time>2026-03-29T10:58:11Z</time></trkpt><trkpt lat="43.13386412976659" lon="11.457432974304071"><ele>150.66666666666666</ele><time>2026-03-29T10:58:12Z</time></trkpt><trkpt lat="43.13372437246643" lon="11.45756847289432"><ele>150.0</ele><time>2026-03-29T10:58:13Z</time></trkpt><trkpt lat="43.13358178452173" lon="11.457700519414486"><ele>150.0</ele><time>2026-03-29T10:58:14Z</time></trkpt><trkpt lat="43.13344491964871" lon="11.457820917546137"><ele>150.0</ele><time>2026-03-29T10:58:15Z</time></trkpt><trkpt lat="43.13331907708452" lon="11.45793039648272"><ele>150.0</ele><time>2026-03-29T10:58:16Z</time></trkpt><trkpt lat="43.133208626547955" lon="11.458039230382886"><ele>150.0</ele><time>2026-03-29T10:58:17Z</time></trkpt><trkpt lat="43.133093351577095" lon="11.45816719447223"><ele>149.25</ele><time>2026-03-29T10:58:18Z</time></trkpt><trkpt lat="43.13297443201502" lon="11.458303434379584"><ele>148.5</ele><time>2026-03-29T10:58:19Z</time></trkpt><trkpt lat="43.13286713057868" lon="11.458431308551935"><ele>147.75</ele><time>2026-03-29T10:58:20Z</time></trkpt><trkpt lat="43.13276754345989" lon="11.458560676864082"><ele>147.0</ele><time>2026-03-29T10:58:21Z</time></trkpt><trkpt lat="43.132668850496046" lon="11.458700720393114"><ele>148.25</ele><time>2026-03-29T10:58:22Z</time></trkpt><trkpt lat="43.132583803943085" lon="11.458868312736135"><ele>149.5</ele><time>2026-03-29T10:58:23Z</time></trkpt><trkpt lat="43.13252458884715" lon="11.459026109420046"><ele>150.75</ele><time>2026-03-29T10:58:23.999Z</time></trkpt><trkpt lat="43.13247029716138" lon="11.45920985978922"><ele>152.0</ele><time>2026-03-29T10:58:24.999Z</time></trkpt><trkpt lat="43.132419138911224" lon="11.459411921203012"><ele>149.66666666666666</ele><time>2026-03-29T10:58:25.999Z</time></trkpt><trkpt lat="43.132366360036904" lon="11.459637546016333"><ele>147.33333333333334</ele><time>2026-03-29T10:58:26.999Z</time></trkpt><trkpt lat="43.132317372081786" lon="11.45984358513497"><ele>145.0</ele><time>2026-03-29T10:58:27.999Z</time></trkpt><trkpt lat="43.13227294207704" lon="11.46002931507865"><ele>145.0</ele><time>2026-03-29T10:58:28.999Z</time></trkpt><trkpt lat="43.13222509656755" lon="11.460227827565305"><ele>145.0</ele><time>2026-03-29T10:58:29.999Z</time></trkpt><trkpt lat="43.132176152816655" lon="11.460426661526524"><ele>145.0</ele><time>2026-03-29T10:58:30.999Z</time></trkpt><trkpt lat="43.13213513040567" lon="11.460602464505964"><ele>145.0</ele><time>2026-03-29T10:58:31.999Z</time></trkpt><trkpt lat="43.132102344443325" lon="11.460758205504504"><ele>145.2</ele><time>2026-03-29T10:58:32.999Z</time></trkpt><trkpt lat="43.132086102516176" lon="11.460910013513377"><ele>145.4</ele><time>2026-03-29T10:58:33.999Z</time></trkpt><trkpt lat="43.13208889702711" lon="11.461059752183779"><ele>145.6</ele><time>2026-03-29T10:58:34.999Z</time></trkpt><trkpt lat="43.13209967766332" lon="11.461204329603465"><ele>145.8</ele><time>2026-03-29T10:58:35.999Z</time></trkpt><trkpt lat="43.132115369915624" lon="11.461333508503019"><ele>146.0</ele><time>2026-03-29T10:58:36.999Z</time></trkpt><trkpt lat="43.1321300291914" lon="11.461452140640608"><ele>146.0</ele><time>2026-03-29T10:58:37.999Z</time></trkpt><trkpt lat="43.132142905973296" lon="11.461559628348898"><ele>146.0</ele><time>2026-03-29T10:58:38.999Z</time></trkpt><trkpt lat="43.13214757899722" lon="11.461650098795596"><ele>146.0</ele><time>2026-03-29T10:58:39.999Z</time></trkpt><trkpt lat="43.132141992061406" lon="11.461797185598977"><ele>146.0</ele><time>2026-03-29T10:58:41.999Z</time></trkpt><trkpt lat="43.13214038300493" lon="11.461907328100946"><ele>146.0</ele><time>2026-03-29T10:58:44.999Z</time></trkpt><trkpt lat="43.13204883140394" lon="11.46184396031333"><ele>146.0</ele><time>2026-03-29T10:59:25.999Z</time></trkpt><trkpt lat="43.132012264315286" lon="11.461769393627332"><ele>146.0</ele><time>2026-03-29T10:59:26.999Z</time></trkpt><trkpt lat="43.13196793786471" lon="11.461687549503532"><ele>146.0</ele><time>2026-03-29T10:59:28Z</time></trkpt><trkpt lat="43.13192389868982" lon="11.46162144210679"><ele>146.0</ele><time>2026-03-29T10:59:29Z</time></trkpt><trkpt lat="43.131884063126186" lon="11.46155065098055"><ele>146.0</ele><time>2026-03-29T10:59:30Z</time></trkpt><trkpt lat="43.13181727566377" lon="11.461431963931437"><ele>146.0</ele><time>2026-03-29T10:59:32Z</time></trkpt><trkpt lat="43.13176252943418" lon="11.461386960422828"><ele>146.0</ele><time>2026-03-29T10:59:33Z</time></trkpt><trkpt lat="43.13174180844941" lon="11.46129782729234"><ele>146.0</ele><time>2026-03-29T10:59:34Z</time></trkpt><trkpt lat="43.13169302228228" lon="11.461230095504977"><ele>146.0</ele><time>2026-03-29T10:59:35Z</time></trkpt><trkpt lat="43.13165175185181" lon="11.461137709754555"><ele>146.0</ele><time>2026-03-29T10:59:36Z</time></trkpt><trkpt lat="43.13159482702474" lon="11.461036499386815"><ele>146.0</ele><time>2026-03-29T10:59:37Z</time></trkpt><trkpt lat="43.131532250867956" lon="11.460925245245226"><ele>146.0</ele><time>2026-03-29T10:59:38Z</time></trkpt><trkpt lat="43.13147023938051" lon="11.460815559580409"><ele>146.0</ele><time>2026-03-29T10:59:39Z</time></trkpt><trkpt lat="43.131417932347944" lon="11.460722726954781"><ele>145.57142857142856</ele><time>2026-03-29T10:59:40Z</time></trkpt><trkpt lat="43.131374678484676" lon="11.460645913949978"><ele>145.14285714285714</ele><time>2026-03-29T10:59:41Z</time></trkpt><trkpt lat="43.131329549331674" lon="11.46056577104614"><ele>144.71428571428572</ele><time>2026-03-29T10:59:42Z</time></trkpt><trkpt lat="43.1312803526657" lon="11.460478404672326"><ele>144.28571428571428</ele><time>2026-03-29T10:59:43Z</time></trkpt><trkpt lat="43.1312242411007" lon="11.460406311609596"><ele>143.85714285714286</ele><time>2026-03-29T10:59:44Z</time></trkpt><trkpt lat="43.13116984820235" lon="11.460345733723761"><ele>143.42857142857142</ele><time>2026-03-29T10:59:45Z</time></trkpt><trkpt lat="43.13111703229474" lon="11.46029475027261"><ele>143.0</ele><time>2026-03-29T10:59:46Z</time></trkpt><trkpt lat="43.1310633995919" lon="11.460243366229237"><ele>143.0</ele><time>2026-03-29T10:59:47Z</time></trkpt><trkpt lat="43.13102849473781" lon="11.460146223734222"><ele>143.0</ele><time>2026-03-29T10:59:48Z</time></trkpt><trkpt lat="43.130991758743434" lon="11.460041375256791"><ele>143.0</ele><time>2026-03-29T10:59:49Z</time></trkpt><trkpt lat="43.13094724149047" lon="11.459923595418251"><ele>143.0</ele><time>2026-03-29T10:59:50Z</time></trkpt><trkpt lat="43.13091095058166" lon="11.459823289920578"><ele>143.0</ele><time>2026-03-29T10:59:51Z</time></trkpt><trkpt lat="43.13085487617509" lon="11.459722355981116"><ele>143.0</ele><time>2026-03-29T10:59:52Z</time></trkpt><trkpt lat="43.13079456069436" lon="11.459613874169284"><ele>144.0</ele><time>2026-03-29T10:59:53Z</time></trkpt><trkpt lat="43.13034147366363" lon="11.459897081938998"><ele>144.0</ele><time>2026-03-29T10:59:54Z</time></trkpt><trkpt lat="43.13030950002512" lon="11.459745097920678"><ele>144.0</ele><time>2026-03-29T10:59:55Z</time></trkpt><trkpt lat="43.130275749282674" lon="11.45959613434155"><ele>144.0</ele><time>2026-03-29T10:59:56Z</time></trkpt><trkpt lat="43.13024391239015" lon="11.459449572598537"><ele>144.0</ele><time>2026-03-29T10:59:57Z</time></trkpt><trkpt lat="43.13020476999091" lon="11.459277070438269"><ele>144.25</ele><time>2026-03-29T10:59:58Z</time></trkpt><trkpt lat="43.1301639063258" lon="11.459089308417981"><ele>144.5</ele><time>2026-03-29T10:59:59Z</time></trkpt><trkpt lat="43.13013052436407" lon="11.45893993209022"><ele>144.75</ele><time>2026-03-29T11:00:00Z</time></trkpt><trkpt lat="43.130093998141" lon="11.458774376432578"><ele>145.0</ele><time>2026-03-29T11:00:01Z</time></trkpt><trkpt lat="43.1300543154673" lon="11.458615280908477"><ele>146.0</ele><time>2026-03-29T11:00:02Z</time></trkpt><trkpt lat="43.13002286669462" lon="11.45849872569666"><ele>147.0</ele><time>2026-03-29T11:00:03Z</time></trkpt><trkpt lat="43.13001123794396" lon="11.458406997253652"><ele>148.0</ele><time>2026-03-29T11:00:04Z</time></trkpt><trkpt lat="43.13002835559186" lon="11.458252412397684"><ele>149.0</ele><time>2026-03-29T11:00:06Z</time></trkpt><trkpt lat="43.13000015106791" lon="11.458164631070522"><ele>150.0</ele><time>2026-03-29T11:00:07Z</time></trkpt><trkpt lat="43.12994423188158" lon="11.458080371101431"><ele>151.0</ele><time>2026-03-29T11:00:08Z</time></trkpt><trkpt lat="43.12987519457404" lon="11.457975075439508"><ele>153.5</ele><time>2026-03-29T11:00:09Z</time></trkpt><trkpt lat="43.12980294144425" lon="11.457849943416747"><ele>156.0</ele><time>2026-03-29T11:00:10Z</time></trkpt><trkpt lat="43.12971918388104" lon="11.457701416940186"><ele>158.5</ele><time>2026-03-29T11:00:11Z</time></trkpt><trkpt lat="43.12962679197693" lon="11.457550002177006"><ele>161.0</ele><time>2026-03-29T11:00:12Z</time></trkpt><trkpt lat="43.12953115603722" lon="11.457384623935555"><ele>161.0</ele><time>2026-03-29T11:00:13Z</time></trkpt><trkpt lat="43.12941702569869" lon="11.457182779164743"><ele>161.0</ele><time>2026-03-29T11:00:14Z</time></trkpt><trkpt lat="43.12931954523311" lon="11.45700105604564"><ele>161.0</ele><time>2026-03-29T11:00:15Z</time></trkpt><trkpt lat="43.12921749691805" lon="11.456814510303301"><ele>161.66666666666666</ele><time>2026-03-29T11:00:16Z</time></trkpt><trkpt lat="43.12909922010188" lon="11.456598789681735"><ele>162.33333333333334</ele><time>2026-03-29T11:00:17Z</time></trkpt><trkpt lat="43.12897813227285" lon="11.456380513590723"><ele>163.0</ele><time>2026-03-29T11:00:18Z</time></trkpt><trkpt lat="43.12887607473606" lon="11.456195369271038"><ele>167.0</ele><time>2026-03-29T11:00:19Z</time></trkpt><trkpt lat="43.12877844518163" lon="11.456017085566804"><ele>171.0</ele><time>2026-03-29T11:00:20Z</time></trkpt><trkpt lat="43.12868790174475" lon="11.455847828218996"><ele>175.0</ele><time>2026-03-29T11:00:21Z</time></trkpt><trkpt lat="43.12859094905984" lon="11.455682657340972"><ele>175.0</ele><time>2026-03-29T11:00:22Z</time></trkpt><trkpt lat="43.12850554403772" lon="11.455563747571864"><ele>175.0</ele><time>2026-03-29T11:00:23Z</time></trkpt><trkpt lat="43.12841438511379" lon="11.455465252975493"><ele>175.0</ele><time>2026-03-29T11:00:24Z</time></trkpt><trkpt lat="43.1282937941204" lon="11.455381900127543"><ele>175.0</ele><time>2026-03-29T11:00:25Z</time></trkpt><trkpt lat="43.12814549426702" lon="11.4553131502848"><ele>181.0</ele><time>2026-03-29T11:00:26Z</time></trkpt><trkpt lat="43.127979628810124" lon="11.455257719314607"><ele>187.0</ele><time>2026-03-29T11:00:27Z</time></trkpt><trkpt lat="43.1278199465524" lon="11.455202064449455"><ele>193.0</ele><time>2026-03-29T11:00:28Z</time></trkpt><trkpt lat="43.12766115028724" lon="11.455127279495642"><ele>193.0</ele><time>2026-03-29T11:00:29Z</time></trkpt><trkpt lat="43.12753423999848" lon="11.455070553989456"><ele>193.0</ele><time>2026-03-29T11:00:30Z</time></trkpt><trkpt lat="43.12742685344901" lon="11.455024490987538"><ele>193.0</ele><time>2026-03-29T11:00:30.999Z</time></trkpt><trkpt lat="43.12732382190644" lon="11.454978560155098"><ele>193.0</ele><time>2026-03-29T11:00:31.999Z</time></trkpt><trkpt lat="43.127238721290695" lon="11.454920128456214"><ele>195.75</ele><time>2026-03-29T11:00:32.999Z</time></trkpt><trkpt lat="43.12715958099143" lon="11.454837829467888"><ele>198.5</ele><time>2026-03-29T11:00:33.999Z</time></trkpt><trkpt lat="43.12707142760176" lon="11.454733221464714"><ele>201.25</ele><time>2026-03-29T11:00:34.999Z</time></trkpt><trkpt lat="43.12699072903046" lon="11.454597740984688"><ele>204.0</ele><time>2026-03-29T11:00:35.999Z</time></trkpt><trkpt lat="43.12691577727726" lon="11.454431125808519"><ele>207.0</ele><time>2026-03-29T11:00:36.999Z</time></trkpt><trkpt lat="43.12681388587742" lon="11.454094413030692"><ele>210.0</ele><time>2026-03-29T11:00:38.999Z</time></trkpt><trkpt lat="43.12679258382022" lon="11.453915303603626"><ele>213.0</ele><time>2026-03-29T11:00:39.999Z</time></trkpt><trkpt lat="43.12678230412703" lon="11.453700855114025"><ele>215.0</ele><time>2026-03-29T11:00:40.999Z</time></trkpt><trkpt lat="43.126774385487565" lon="11.453483939367514"><ele>217.0</ele><time>2026-03-29T11:00:41.999Z</time></trkpt><trkpt lat="43.126771100679136" lon="11.453267222057573"><ele>219.0</ele><time>2026-03-29T11:00:42.999Z</time></trkpt><trkpt lat="43.126771379298596" lon="11.453033149854663"><ele>220.0</ele><time>2026-03-29T11:00:43.999Z</time></trkpt><trkpt lat="43.12677268116466" lon="11.452795409701409"><ele>221.0</ele><time>2026-03-29T11:00:44.999Z</time></trkpt><trkpt lat="43.126781823076314" lon="11.452598520337608"><ele>222.0</ele><time>2026-03-29T11:00:45.999Z</time></trkpt><trkpt lat="43.12678982644703" lon="11.452395756594306"><ele>222.0</ele><time>2026-03-29T11:00:46.999Z</time></trkpt><trkpt lat="43.12678830144511" lon="11.452174619094482"><ele>222.0</ele><time>2026-03-29T11:00:47.999Z</time></trkpt><trkpt lat="43.12677254008168" lon="11.45193187772605"><ele>222.0</ele><time>2026-03-29T11:00:48.999Z</time></trkpt><trkpt lat="43.12674112425901" lon="11.451682047084756"><ele>223.0</ele><time>2026-03-29T11:00:49.999Z</time></trkpt><trkpt lat="43.126713597965725" lon="11.45143197280667"><ele>224.0</ele><time>2026-03-29T11:00:50.999Z</time></trkpt><trkpt lat="43.12667701535271" lon="11.451217810409238"><ele>225.0</ele><time>2026-03-29T11:00:51.999Z</time></trkpt><trkpt lat="43.12661750343767" lon="11.451003925575346"><ele>225.0</ele><time>2026-03-29T11:00:52.999Z</time></trkpt><trkpt lat="43.126539428828494" lon="11.450780350356347"><ele>225.0</ele><time>2026-03-29T11:00:53.999Z</time></trkpt><trkpt lat="43.12646164792871" lon="11.450559480840893"><ele>225.0</ele><time>2026-03-29T11:00:54.999Z</time></trkpt><trkpt lat="43.12639909865508" lon="11.450339648511163"><ele>227.0</ele><time>2026-03-29T11:00:55.999Z</time></trkpt><trkpt lat="43.12633001294927" lon="11.45012260069122"><ele>229.0</ele><time>2026-03-29T11:00:56.999Z</time></trkpt><trkpt lat="43.12626168047301" lon="11.449895067481174"><ele>231.0</ele><time>2026-03-29T11:00:57.999Z</time></trkpt><trkpt lat="43.126204302704714" lon="11.44969753977823"><ele>233.25</ele><time>2026-03-29T11:00:58.999Z</time></trkpt><trkpt lat="43.12615629534579" lon="11.449538764167649"><ele>235.5</ele><time>2026-03-29T11:00:59.999Z</time></trkpt><trkpt lat="43.12610316863832" lon="11.449407109365666"><ele>237.75</ele><time>2026-03-29T11:01:00.999Z</time></trkpt><trkpt lat="43.126024929226915" lon="11.449328716771234"><ele>240.0</ele><time>2026-03-29T11:01:01.999Z</time></trkpt><trkpt lat="43.125916962081156" lon="11.449240033068616"><ele>240.0</ele><time>2026-03-29T11:01:02.999Z</time></trkpt><trkpt lat="43.1257920264193" lon="11.449166443045813"><ele>240.0</ele><time>2026-03-29T11:01:03.999Z</time></trkpt><trkpt lat="43.12567634225468" lon="11.44912058202409"><ele>240.0</ele><time>2026-03-29T11:01:04.999Z</time></trkpt><trkpt lat="43.125558206614166" lon="11.449079087583083"><ele>240.0</ele><time>2026-03-29T11:01:05.999Z</time></trkpt><trkpt lat="43.12545258130109" lon="11.44904287281532"><ele>239.8</ele><time>2026-03-29T11:01:06.999Z</time></trkpt><trkpt lat="43.12535377627055" lon="11.449012692819382"><ele>239.6</ele><time>2026-03-29T11:01:07.999Z</time></trkpt><trkpt lat="43.125260452596706" lon="11.448982477807682"><ele>239.39999999999998</ele><time>2026-03-29T11:01:08.999Z</time></trkpt><trkpt lat="43.125160877713064" lon="11.448944515202498"><ele>239.2</ele><time>2026-03-29T11:01:09.999Z</time></trkpt><trkpt lat="43.12505931754658" lon="11.448900854938389"><ele>239.0</ele><time>2026-03-29T11:01:10.999Z</time></trkpt><trkpt lat="43.12495612455327" lon="11.448852064380159"><ele>239.16666666666669</ele><time>2026-03-29T11:01:11.999Z</time></trkpt><trkpt lat="43.12486458206279" lon="11.44879953545506"><ele>239.33333333333334</ele><time>2026-03-29T11:01:12.999Z</time></trkpt><trkpt lat="43.12478920024273" lon="11.448758140711973"><ele>239.5</ele><time>2026-03-29T11:01:13.999Z</time></trkpt><trkpt lat="43.12472287778508" lon="11.448745886577965"><ele>239.66666666666669</ele><time>2026-03-29T11:01:14.999Z</time></trkpt><trkpt lat="43.12465864044003" lon="11.448767567477695"><ele>239.83333333333334</ele><time>2026-03-29T11:01:15.999Z</time></trkpt><trkpt lat="43.12458472323188" lon="11.448800993214936"><ele>240.0</ele><time>2026-03-29T11:01:16.999Z</time></trkpt><trkpt lat="43.124510318447975" lon="11.448892455535027"><ele>239.4</ele><time>2026-03-29T11:01:17.999Z</time></trkpt><trkpt lat="43.124437854546386" lon="11.4489988113109"><ele>238.8</ele><time>2026-03-29T11:01:18.999Z</time></trkpt><trkpt lat="43.12436454658693" lon="11.449106730470845"><ele>238.2</ele><time>2026-03-29T11:01:19.999Z</time></trkpt><trkpt lat="43.12428657921184" lon="11.449193629835667"><ele>237.6</ele><time>2026-03-29T11:01:20.999Z</time></trkpt><trkpt lat="43.12419930999237" lon="11.449239953308236"><ele>237.0</ele><time>2026-03-29T11:01:21.999Z</time></trkpt><trkpt lat="43.124111787081254" lon="11.449263922881746"><ele>236.39999999999998</ele><time>2026-03-29T11:01:22.999Z</time></trkpt><trkpt lat="43.12401213968397" lon="11.449246746172252"><ele>235.79999999999998</ele><time>2026-03-29T11:01:23.999Z</time></trkpt><trkpt lat="43.12390403430837" lon="11.449206871022355"><ele>235.2</ele><time>2026-03-29T11:01:24.999Z</time></trkpt><trkpt lat="43.12379792226426" lon="11.449168719190332"><ele>234.6</ele><time>2026-03-29T11:01:25.999Z</time></trkpt><trkpt lat="43.12370869120043" lon="11.449128910479818"><ele>234.0</ele><time>2026-03-29T11:01:26.999Z</time></trkpt><trkpt lat="43.12361539346021" lon="11.449109742618214"><ele>234.0</ele><time>2026-03-29T11:01:27.999Z</time></trkpt><trkpt lat="43.12352110884583" lon="11.449077320721544"><ele>233.99999999999997</ele><time>2026-03-29T11:01:28.999Z</time></trkpt><trkpt lat="43.123431070111806" lon="11.449037843439239"><ele>233.99999999999997</ele><time>2026-03-29T11:01:29.999Z</time></trkpt><trkpt lat="43.12334596053509" lon="11.449007891160747"><ele>234.0</ele><time>2026-03-29T11:01:30.999Z</time></trkpt><trkpt lat="43.12325472178418" lon="11.448983740846947"><ele>234.0</ele><time>2026-03-29T11:01:31.999Z</time></trkpt><trkpt lat="43.12316173824106" lon="11.448950940739216"><ele>233.5</ele><time>2026-03-29T11:01:32.999Z</time></trkpt><trkpt lat="43.12305856155172" lon="11.44891886402168"><ele>233.0</ele><time>2026-03-29T11:01:34Z</time></trkpt><trkpt lat="43.12296570379432" lon="11.448900616279895"><ele>232.5</ele><time>2026-03-29T11:01:35Z</time></trkpt><trkpt lat="43.122889840743554" lon="11.448866638651648"><ele>232.0</ele><time>2026-03-29T11:01:36Z</time></trkpt><trkpt lat="43.122811517082596" lon="11.448840861740713"><ele>231.5</ele><time>2026-03-29T11:01:37Z</time></trkpt><trkpt lat="43.12273324858268" lon="11.448812274218474"><ele>231.0</ele><time>2026-03-29T11:01:38Z</time></trkpt><trkpt lat="43.12265769328352" lon="11.44878706936129"><ele>230.8</ele><time>2026-03-29T11:01:39Z</time></trkpt><trkpt lat="43.12257765424732" lon="11.448766405981614"><ele>230.60000000000002</ele><time>2026-03-29T11:01:40Z</time></trkpt><trkpt lat="43.12249959008058" lon="11.44873047252196"><ele>230.4</ele><time>2026-03-29T11:01:41Z</time></trkpt><trkpt lat="43.12240844165722" lon="11.448692095846734"><ele>230.2</ele><time>2026-03-29T11:01:42Z</time></trkpt><trkpt lat="43.122304813142506" lon="11.448664833761661"><ele>230.0</ele><time>2026-03-29T11:01:43Z</time></trkpt><trkpt lat="43.12220925406789" lon="11.448633329154811"><ele>228.8</ele><time>2026-03-29T11:01:44Z</time></trkpt><trkpt lat="43.122122342998935" lon="11.448602328440321"><ele>227.6</ele><time>2026-03-29T11:01:45Z</time></trkpt><trkpt lat="43.1220342203079" lon="11.44856923468657"><ele>226.39999999999998</ele><time>2026-03-29T11:01:46Z</time></trkpt><trkpt lat="43.12194702772766" lon="11.448538265126134"><ele>225.2</ele><time>2026-03-29T11:01:47Z</time></trkpt><trkpt lat="43.12185282139189" lon="11.448501299818753"><ele>224.0</ele><time>2026-03-29T11:01:48Z</time></trkpt><trkpt lat="43.121759784190694" lon="11.448466961171661"><ele>224.0</ele><time>2026-03-29T11:01:49Z</time></trkpt><trkpt lat="43.12167165299736" lon="11.448429804354676"><ele>223.99999999999997</ele><time>2026-03-29T11:01:50Z</time></trkpt><trkpt lat="43.12158229695725" lon="11.448379622892904"><ele>223.99999999999997</ele><time>2026-03-29T11:01:51Z</time></trkpt><trkpt lat="43.12149399093042" lon="11.44830529368064"><ele>224.0</ele><time>2026-03-29T11:01:52Z</time></trkpt><trkpt lat="43.12141403286786" lon="11.44819969821986"><ele>224.0</ele><time>2026-03-29T11:01:53Z</time></trkpt><trkpt lat="43.121344469486104" lon="11.448076451471263"><ele>222.6</ele><time>2026-03-29T11:01:54Z</time></trkpt><trkpt lat="43.12129601563413" lon="11.447946143321"><ele>221.2</ele><time>2026-03-29T11:01:55Z</time></trkpt><trkpt lat="43.12125156776078" lon="11.447822360233825"><ele>219.79999999999998</ele><time>2026-03-29T11:01:56Z</time></trkpt><trkpt lat="43.12121114980289" lon="11.447695505737313"><ele>218.39999999999998</ele><time>2026-03-29T11:01:57Z</time></trkpt><trkpt lat="43.12116483583865" lon="11.447550737426187"><ele>217.0</ele><time>2026-03-29T11:01:58Z</time></trkpt><trkpt lat="43.1211071764507" lon="11.447376245129933"><ele>217.0</ele><time>2026-03-29T11:01:59Z</time></trkpt><trkpt lat="43.12104927204739" lon="11.447194435487114"><ele>217.0</ele><time>2026-03-29T11:02:00Z</time></trkpt><trkpt lat="43.121000488882665" lon="11.447026767057643"><ele>217.0</ele><time>2026-03-29T11:02:01Z</time></trkpt><trkpt lat="43.120955072138976" lon="11.446867080767907"><ele>217.0</ele><time>2026-03-29T11:02:02Z</time></trkpt><trkpt lat="43.12089909609463" lon="11.446703121462098"><ele>216.0</ele><time>2026-03-29T11:02:03Z</time></trkpt><trkpt lat="43.12084710966045" lon="11.446528316482162"><ele>215.0</ele><time>2026-03-29T11:02:04Z</time></trkpt><trkpt lat="43.120796020450406" lon="11.446367630644692"><ele>214.0</ele><time>2026-03-29T11:02:05Z</time></trkpt><trkpt lat="43.120754906649594" lon="11.446229068484557"><ele>213.0</ele><time>2026-03-29T11:02:06Z</time></trkpt><trkpt lat="43.120718902908514" lon="11.446076605987974"><ele>212.5</ele><time>2026-03-29T11:02:07Z</time></trkpt><trkpt lat="43.12070517768104" lon="11.445926442178044"><ele>212.0</ele><time>2026-03-29T11:02:08Z</time></trkpt><trkpt lat="43.120709098542825" lon="11.445777439021674"><ele>211.5</ele><time>2026-03-29T11:02:09Z</time></trkpt><trkpt lat="43.12075868164787" lon="11.445621752708849"><ele>211.0</ele><time>2026-03-29T11:02:10Z</time></trkpt><trkpt lat="43.12081662020527" lon="11.445456612868947"><ele>211.0</ele><time>2026-03-29T11:02:11Z</time></trkpt><trkpt lat="43.120877658170606" lon="11.445302495634655"><ele>211.0</ele><time>2026-03-29T11:02:12Z</time></trkpt><trkpt lat="43.12091691836983" lon="11.445157296011269"><ele>211.0</ele><time>2026-03-29T11:02:13Z</time></trkpt><trkpt lat="43.12092653932528" lon="11.445003444295132"><ele>211.0</ele><time>2026-03-29T11:02:14Z</time></trkpt><trkpt lat="43.12090471632666" lon="11.444842014663466"><ele>211.0</ele><time>2026-03-29T11:02:15Z</time></trkpt><trkpt lat="43.1208559460688" lon="11.44470288428275"><ele>211.0</ele><time>2026-03-29T11:02:16Z</time></trkpt><trkpt lat="43.12077355670994" lon="11.444577745788468"><ele>211.0</ele><time>2026-03-29T11:02:17Z</time></trkpt><trkpt lat="43.12065712701705" lon="11.444479900012785"><ele>211.0</ele><time>2026-03-29T11:02:18Z</time></trkpt><trkpt lat="43.12052090992463" lon="11.444390792491166"><ele>208.66666666666666</ele><time>2026-03-29T11:02:19Z</time></trkpt><trkpt lat="43.12036823682053" lon="11.44430322296085"><ele>206.33333333333331</ele><time>2026-03-29T11:02:20Z</time></trkpt><trkpt lat="43.1202057343393" lon="11.444207775589346"><ele>204.0</ele><time>2026-03-29T11:02:21Z</time></trkpt><trkpt lat="43.1200461288006" lon="11.444096561127633"><ele>201.33333333333331</ele><time>2026-03-29T11:02:22Z</time></trkpt><trkpt lat="43.11988973425565" lon="11.443987745670542"><ele>198.66666666666666</ele><time>2026-03-29T11:02:23Z</time></trkpt><trkpt lat="43.11974216996478" lon="11.443891524651686"><ele>196.0</ele><time>2026-03-29T11:02:24Z</time></trkpt><trkpt lat="43.11960702395547" lon="11.443797117536986"><ele>194.33333333333331</ele><time>2026-03-29T11:02:25Z</time></trkpt><trkpt lat="43.11945479985196" lon="11.443685965246795"><ele>192.66666666666666</ele><time>2026-03-29T11:02:26Z</time></trkpt><trkpt lat="43.11932621237678" lon="11.443592385915055"><ele>191.0</ele><time>2026-03-29T11:02:27Z</time></trkpt><trkpt lat="43.11920198163021" lon="11.443494730240198"><ele>190.0</ele><time>2026-03-29T11:02:28Z</time></trkpt><trkpt lat="43.119064824216174" lon="11.443407266048782"><ele>189.0</ele><time>2026-03-29T11:02:29Z</time></trkpt><trkpt lat="43.118945468342524" lon="11.443287716885841"><ele>188.0</ele><time>2026-03-29T11:02:30Z</time></trkpt><trkpt lat="43.11884419695506" lon="11.443153980122888"><ele>187.0</ele><time>2026-03-29T11:02:31Z</time></trkpt><trkpt lat="43.11875244807225" lon="11.443026030264292"><ele>184.25</ele><time>2026-03-29T11:02:32Z</time></trkpt><trkpt lat="43.11866674416619" lon="11.442902360561444"><ele>181.5</ele><time>2026-03-29T11:02:33Z</time></trkpt><trkpt lat="43.11856967906082" lon="11.442799339112076"><ele>178.75</ele><time>2026-03-29T11:02:34Z</time></trkpt><trkpt lat="43.11847183136209" lon="11.44270341966951"><ele>176.0</ele><time>2026-03-29T11:02:35Z</time></trkpt><trkpt lat="43.11835787698656" lon="11.44260903150936"><ele>176.0</ele><time>2026-03-29T11:02:36Z</time></trkpt><trkpt lat="43.118245315278486" lon="11.442499473278403"><ele>176.0</ele><time>2026-03-29T11:02:37Z</time></trkpt><trkpt lat="43.118145847127316" lon="11.44241502555652"><ele>176.0</ele><time>2026-03-29T11:02:37.999Z</time></trkpt><trkpt lat="43.1180444969189" lon="11.442328902898382"><ele>176.0</ele><time>2026-03-29T11:02:38.999Z</time></trkpt><trkpt lat="43.11794222536385" lon="11.442244769933108"><ele>176.0</ele><time>2026-03-29T11:02:39.999Z</time></trkpt><trkpt lat="43.11784292126151" lon="11.442146873421086"><ele>176.0</ele><time>2026-03-29T11:02:40.999Z</time></trkpt><trkpt lat="43.117738805352225" lon="11.442082190634222"><ele>176.0</ele><time>2026-03-29T11:02:41.999Z</time></trkpt><trkpt lat="43.11764845833099" lon="11.442021535918943"><ele>176.0</ele><time>2026-03-29T11:02:42.999Z</time></trkpt><trkpt lat="43.117562601147746" lon="11.441977117040812"><ele>176.0</ele><time>2026-03-29T11:02:43.999Z</time></trkpt><trkpt lat="43.117478205944934" lon="11.441932972309779"><ele>171.5</ele><time>2026-03-29T11:02:44.999Z</time></trkpt><trkpt lat="43.1173750259961" lon="11.441946503258297"><ele>167.0</ele><time>2026-03-29T11:02:45.999Z</time></trkpt><trkpt lat="43.1172724979296" lon="11.441973095519346"><ele>162.5</ele><time>2026-03-29T11:02:46.999Z</time></trkpt><trkpt lat="43.1171584725437" lon="11.442041626148976"><ele>158.0</ele><time>2026-03-29T11:02:47.999Z</time></trkpt><trkpt lat="43.117050063420955" lon="11.442109803618898"><ele>160.0</ele><time>2026-03-29T11:02:48.999Z</time></trkpt><trkpt lat="43.11694314183701" lon="11.44217120181931"><ele>162.0</ele><time>2026-03-29T11:02:49.999Z</time></trkpt><trkpt lat="43.11684747834426" lon="11.4422214417161"><ele>164.0</ele><time>2026-03-29T11:02:50.999Z</time></trkpt><trkpt lat="43.116765128425506" lon="11.4422515964341"><ele>166.0</ele><time>2026-03-29T11:02:51.999Z</time></trkpt><trkpt lat="43.11668409830376" lon="11.442256068209884"><ele>168.0</ele><time>2026-03-29T11:02:52.999Z</time></trkpt><trkpt lat="43.11659659810149" lon="11.442241487759022"><ele>168.0</ele><time>2026-03-29T11:02:53.999Z</time></trkpt><trkpt lat="43.11650754746778" lon="11.442195719753231"><ele>168.0</ele><time>2026-03-29T11:02:54.999Z</time></trkpt><trkpt lat="43.116432370451925" lon="11.442098745494476"><ele>168.0</ele><time>2026-03-29T11:02:55.999Z</time></trkpt><trkpt lat="43.11634601001797" lon="11.442005685426162"><ele>168.0</ele><time>2026-03-29T11:02:56.999Z</time></trkpt><trkpt lat="43.116259478642" lon="11.44188307363369"><ele>168.0</ele><time>2026-03-29T11:02:57.999Z</time></trkpt><trkpt lat="43.11615664405885" lon="11.441764569255305"><ele>165.75</ele><time>2026-03-29T11:02:58.999Z</time></trkpt><trkpt lat="43.11605259445065" lon="11.441648027656441"><ele>163.5</ele><time>2026-03-29T11:02:59.999Z</time></trkpt><trkpt lat="43.11596661628684" lon="11.441526672628322"><ele>161.25</ele><time>2026-03-29T11:03:00.999Z</time></trkpt><trkpt lat="43.11587727031572" lon="11.441421433964813"><ele>159.0</ele><time>2026-03-29T11:03:01.999Z</time></trkpt><trkpt lat="43.115784172703506" lon="11.441331911362223"><ele>156.6</ele><time>2026-03-29T11:03:02.999Z</time></trkpt><trkpt lat="43.115686061704984" lon="11.44126990652819"><ele>154.2</ele><time>2026-03-29T11:03:03.999Z</time></trkpt><trkpt lat="43.11560151894103" lon="11.441225734399325"><ele>151.79999999999998</ele><time>2026-03-29T11:03:04.999Z</time></trkpt><trkpt lat="43.11551365869196" lon="11.441200534181272"><ele>149.4</ele><time>2026-03-29T11:03:05.999Z</time></trkpt><trkpt lat="43.11541504021533" lon="11.441215277587643"><ele>147.0</ele><time>2026-03-29T11:03:06.999Z</time></trkpt><trkpt lat="43.11530951088083" lon="11.441229716791229"><ele>147.0</ele><time>2026-03-29T11:03:07.999Z</time></trkpt><trkpt lat="43.11518512165356" lon="11.441253611653813"><ele>147.0</ele><time>2026-03-29T11:03:08.999Z</time></trkpt><trkpt lat="43.11504748460871" lon="11.441283419949825"><ele>147.0</ele><time>2026-03-29T11:03:09.999Z</time></trkpt><trkpt lat="43.11491205261215" lon="11.441302363671706"><ele>147.0</ele><time>2026-03-29T11:03:10.999Z</time></trkpt><trkpt lat="43.114783719170966" lon="11.441314925036474"><ele>145.5</ele><time>2026-03-29T11:03:11.999Z</time></trkpt><trkpt lat="43.114649261025704" lon="11.44134093638427"><ele>144.0</ele><time>2026-03-29T11:03:12.999Z</time></trkpt><trkpt lat="43.114512573236006" lon="11.441334785170291"><ele>142.5</ele><time>2026-03-29T11:03:13.999Z</time></trkpt><trkpt lat="43.1143704497507" lon="11.441343899809658"><ele>141.0</ele><time>2026-03-29T11:03:14.999Z</time></trkpt><trkpt lat="43.1142266599464" lon="11.441353444704378"><ele>141.0</ele><time>2026-03-29T11:03:15.999Z</time></trkpt><trkpt lat="43.1140826111556" lon="11.441365574222047"><ele>141.0</ele><time>2026-03-29T11:03:16.999Z</time></trkpt><trkpt lat="43.113939227428475" lon="11.441399868321474"><ele>141.0</ele><time>2026-03-29T11:03:17.999Z</time></trkpt><trkpt lat="43.11379613381635" lon="11.441390326729586"><ele>141.0</ele><time>2026-03-29T11:03:18.999Z</time></trkpt><trkpt lat="43.113653934556645" lon="11.441403104515768"><ele>140.25</ele><time>2026-03-29T11:03:19.999Z</time></trkpt><trkpt lat="43.113514364266" lon="11.441439380807719"><ele>139.5</ele><time>2026-03-29T11:03:20.999Z</time></trkpt><trkpt lat="43.11338630990231" lon="11.441429525185814"><ele>138.75</ele><time>2026-03-29T11:03:21.999Z</time></trkpt><trkpt lat="43.11326679298541" lon="11.44145514121599"><ele>138.0</ele><time>2026-03-29T11:03:22.999Z</time></trkpt><trkpt lat="43.113134110749826" lon="11.441467391111576"><ele>137.75</ele><time>2026-03-29T11:03:23.999Z</time></trkpt><trkpt lat="43.11300114282688" lon="11.44148760775418"><ele>137.5</ele><time>2026-03-29T11:03:24.999Z</time></trkpt><trkpt lat="43.112868610689" lon="11.441490242167282"><ele>137.25</ele><time>2026-03-29T11:03:25.999Z</time></trkpt><trkpt lat="43.1127351366664" lon="11.441502812189064"><ele>137.0</ele><time>2026-03-29T11:03:26.999Z</time></trkpt><trkpt lat="43.11259069000218" lon="11.44151664789839"><ele>137.0</ele><time>2026-03-29T11:03:27.999Z</time></trkpt><trkpt lat="43.11244445921291" lon="11.44152945782958"><ele>137.0</ele><time>2026-03-29T11:03:28.999Z</time></trkpt><trkpt lat="43.112298719750925" lon="11.441547585997524"><ele>137.0</ele><time>2026-03-29T11:03:29.999Z</time></trkpt><trkpt lat="43.112158988478434" lon="11.44155945602352"><ele>137.0</ele><time>2026-03-29T11:03:30.999Z</time></trkpt><trkpt lat="43.11203672559506" lon="11.441569800035444"><ele>136.75</ele><time>2026-03-29T11:03:31.999Z</time></trkpt><trkpt lat="43.11192291614503" lon="11.441579263622735"><ele>136.5</ele><time>2026-03-29T11:03:32.999Z</time></trkpt><trkpt lat="43.11180663522993" lon="11.441581878724776"><ele>136.25</ele><time>2026-03-29T11:03:33.999Z</time></trkpt><trkpt lat="43.111696065356526" lon="11.441589647277134"><ele>136.0</ele><time>2026-03-29T11:03:34.999Z</time></trkpt><trkpt lat="43.11158659113437" lon="11.441604709886118"><ele>135.8</ele><time>2026-03-29T11:03:35.999Z</time></trkpt><trkpt lat="43.11148456047823" lon="11.441622112820658"><ele>135.6</ele><time>2026-03-29T11:03:36.999Z</time></trkpt><trkpt lat="43.11139331069258" lon="11.441637625698519"><ele>135.4</ele><time>2026-03-29T11:03:37.999Z</time></trkpt><trkpt lat="43.11132920034923" lon="11.441658779083427"><ele>135.2</ele><time>2026-03-29T11:03:38.999Z</time></trkpt><trkpt lat="43.111265107157344" lon="11.441648210551833"><ele>135.0</ele><time>2026-03-29T11:03:40Z</time></trkpt><trkpt lat="43.1111267642893" lon="11.441671697570259"><ele>135.0</ele><time>2026-03-29T11:03:42Z</time></trkpt><trkpt lat="43.11104071204244" lon="11.441700302128355"><ele>135.0</ele><time>2026-03-29T11:03:43Z</time></trkpt><trkpt lat="43.11093892318183" lon="11.441715275084885"><ele>135.0</ele><time>2026-03-29T11:03:44Z</time></trkpt><trkpt lat="43.11083278608386" lon="11.441719223297852"><ele>135.0</ele><time>2026-03-29T11:03:45Z</time></trkpt><trkpt lat="43.11071334716768" lon="11.441724010050645"><ele>135.0</ele><time>2026-03-29T11:03:46Z</time></trkpt><trkpt lat="43.11059731940098" lon="11.44172698998887"><ele>134.5</ele><time>2026-03-29T11:03:47Z</time></trkpt><trkpt lat="43.11048834167798" lon="11.441725719041347"><ele>134.0</ele><time>2026-03-29T11:03:48Z</time></trkpt><trkpt lat="43.110373823760845" lon="11.441733150409897"><ele>133.5</ele><time>2026-03-29T11:03:49Z</time></trkpt><trkpt lat="43.1102576296347" lon="11.441748539222061"><ele>133.0</ele><time>2026-03-29T11:03:50Z</time></trkpt><trkpt lat="43.110139769834674" lon="11.441775555924531"><ele>133.0</ele><time>2026-03-29T11:03:51Z</time></trkpt><trkpt lat="43.1100159955091" lon="11.441787768547963"><ele>133.0</ele><time>2026-03-29T11:03:52Z</time></trkpt><trkpt lat="43.109894284696686" lon="11.441829227678303"><ele>133.0</ele><time>2026-03-29T11:03:53Z</time></trkpt><trkpt lat="43.109767304723384" lon="11.441910984700648"><ele>133.0</ele><time>2026-03-29T11:03:54Z</time></trkpt><trkpt lat="43.10964061990402" lon="11.44196598608418"><ele>133.0</ele><time>2026-03-29T11:03:55Z</time></trkpt><trkpt lat="43.109530301580804" lon="11.4420162451972"><ele>133.0</ele><time>2026-03-29T11:03:56Z</time></trkpt><trkpt lat="43.10942609800197" lon="11.442059262353858"><ele>133.0</ele><time>2026-03-29T11:03:57Z</time></trkpt><trkpt lat="43.109323923985166" lon="11.442096964918127"><ele>133.0</ele><time>2026-03-29T11:03:58Z</time></trkpt><trkpt lat="43.1092236216138" lon="11.442126991205598"><ele>133.0</ele><time>2026-03-29T11:03:59Z</time></trkpt><trkpt lat="43.10912177253211" lon="11.442156558878072"><ele>133.0</ele><time>2026-03-29T11:04:00Z</time></trkpt><trkpt lat="43.109018093577475" lon="11.442185194653502"><ele>133.0</ele><time>2026-03-29T11:04:01Z</time></trkpt><trkpt lat="43.10891203640194" lon="11.442211059159366"><ele>133.0</ele><time>2026-03-29T11:04:02Z</time></trkpt><trkpt lat="43.108806342638765" lon="11.442232773175405"><ele>133.0</ele><time>2026-03-29T11:04:03Z</time></trkpt><trkpt lat="43.108701784845216" lon="11.44225895164693"><ele>133.0</ele><time>2026-03-29T11:04:04Z</time></trkpt><trkpt lat="43.10859082609654" lon="11.442279171250874"><ele>133.0</ele><time>2026-03-29T11:04:05Z</time></trkpt><trkpt lat="43.10847542174974" lon="11.442307854521443"><ele>133.0</ele><time>2026-03-29T11:04:06Z</time></trkpt><trkpt lat="43.108347325764726" lon="11.442327525756994"><ele>133.0</ele><time>2026-03-29T11:04:07Z</time></trkpt><trkpt lat="43.10821695802862" lon="11.442352081334487"><ele>133.0</ele><time>2026-03-29T11:04:08Z</time></trkpt><trkpt lat="43.10809903457588" lon="11.442377046530174"><ele>133.20000000000002</ele><time>2026-03-29T11:04:09Z</time></trkpt><trkpt lat="43.10799305808164" lon="11.442400685106447"><ele>133.4</ele><time>2026-03-29T11:04:10Z</time></trkpt><trkpt lat="43.10789187717601" lon="11.442422409991014"><ele>133.60000000000002</ele><time>2026-03-29T11:04:11Z</time></trkpt><trkpt lat="43.10780484241906" lon="11.44244231387776"><ele>133.8</ele><time>2026-03-29T11:04:12Z</time></trkpt><trkpt lat="43.107710095225265" lon="11.442457709435441"><ele>134.0</ele><time>2026-03-29T11:04:13Z</time></trkpt><trkpt lat="43.10761621623798" lon="11.442455529478504"><ele>134.0</ele><time>2026-03-29T11:04:14Z</time></trkpt><trkpt lat="43.107527602941026" lon="11.442427266414995"><ele>134.0</ele><time>2026-03-29T11:04:15Z</time></trkpt><trkpt lat="43.10744083809998" lon="11.442386585223279"><ele>134.0</ele><time>2026-03-29T11:04:16Z</time></trkpt><trkpt lat="43.107353803714965" lon="11.442307293716361"><ele>134.0</ele><time>2026-03-29T11:04:17Z</time></trkpt><trkpt lat="43.10727301412957" lon="11.442200890622647"><ele>134.0</ele><time>2026-03-29T11:04:18Z</time></trkpt><trkpt lat="43.107193821129975" lon="11.442076355039633"><ele>133.25</ele><time>2026-03-29T11:04:19Z</time></trkpt><trkpt lat="43.10710674158551" lon="11.441944614438935"><ele>132.5</ele><time>2026-03-29T11:04:20Z</time></trkpt><trkpt lat="43.10701316248078" lon="11.441804355425052"><ele>131.75</ele><time>2026-03-29T11:04:21Z</time></trkpt><trkpt lat="43.106920392864716" lon="11.441671512714054"><ele>131.0</ele><time>2026-03-29T11:04:22Z</time></trkpt><trkpt lat="43.10682446666519" lon="11.441530470159455"><ele>131.0</ele><time>2026-03-29T11:04:23Z</time></trkpt><trkpt lat="43.10673191354248" lon="11.441400812403204"><ele>131.0</ele><time>2026-03-29T11:04:24Z</time></trkpt><trkpt lat="43.106646695258725" lon="11.44128803419817"><ele>131.0</ele><time>2026-03-29T11:04:25Z</time></trkpt><trkpt lat="43.106555337392926" lon="11.441158768125504"><ele>131.0</ele><time>2026-03-29T11:04:26Z</time></trkpt><trkpt lat="43.1064636539028" lon="11.441023987121797"><ele>131.0</ele><time>2026-03-29T11:04:27Z</time></trkpt><trkpt lat="43.1063696164855" lon="11.440891156969094"><ele>131.0</ele><time>2026-03-29T11:04:28Z</time></trkpt><trkpt lat="43.10627195534924" lon="11.44075428048132"><ele>131.0</ele><time>2026-03-29T11:04:29Z</time></trkpt><trkpt lat="43.10618849262246" lon="11.440632434467716"><ele>131.0</ele><time>2026-03-29T11:04:30Z</time></trkpt><trkpt lat="43.10610223903197" lon="11.440511045692924"><ele>131.0</ele><time>2026-03-29T11:04:31Z</time></trkpt><trkpt lat="43.106008009741814" lon="11.44038777879204"><ele>131.0</ele><time>2026-03-29T11:04:32Z</time></trkpt><trkpt lat="43.10591153846529" lon="11.44025095213126"><ele>131.0</ele><time>2026-03-29T11:04:33Z</time></trkpt><trkpt lat="43.10581079137466" lon="11.440122593745532"><ele>131.0</ele><time>2026-03-29T11:04:34Z</time></trkpt><trkpt lat="43.1057090844025" lon="11.439992957003334"><ele>130.75</ele><time>2026-03-29T11:04:35Z</time></trkpt><trkpt lat="43.10561120191927" lon="11.43985733240112"><ele>130.5</ele><time>2026-03-29T11:04:36Z</time></trkpt><trkpt lat="43.10551351327002" lon="11.439753581828453"><ele>130.25</ele><time>2026-03-29T11:04:37Z</time></trkpt><trkpt lat="43.105425117155164" lon="11.439646506009668"><ele>130.0</ele><time>2026-03-29T11:04:38Z</time></trkpt><trkpt lat="43.10533694249621" lon="11.43952821922234"><ele>129.75</ele><time>2026-03-29T11:04:39Z</time></trkpt><trkpt lat="43.10525166196875" lon="11.439395670266501"><ele>129.5</ele><time>2026-03-29T11:04:40Z</time></trkpt><trkpt lat="43.10516555394357" lon="11.4392474830228"><ele>129.25</ele><time>2026-03-29T11:04:41Z</time></trkpt><trkpt lat="43.10509436882712" lon="11.439099049029629"><ele>129.0</ele><time>2026-03-29T11:04:42Z</time></trkpt><trkpt lat="43.10502343924369" lon="11.43897880594445"><ele>129.0</ele><time>2026-03-29T11:04:43Z</time></trkpt><trkpt lat="43.10495602406046" lon="11.438865047621215"><ele>129.0</ele><time>2026-03-29T11:04:43.999Z</time></trkpt><trkpt lat="43.10489313600934" lon="11.43875697023581"><ele>129.0</ele><time>2026-03-29T11:04:44.999Z</time></trkpt><trkpt lat="43.104826044771535" lon="11.438666341656374"><ele>129.0</ele><time>2026-03-29T11:04:45.999Z</time></trkpt><trkpt lat="43.104754585176" lon="11.438575302567752"><ele>129.0</ele><time>2026-03-29T11:04:46.999Z</time></trkpt><trkpt lat="43.10467973270683" lon="11.438475513827914"><ele>129.5</ele><time>2026-03-29T11:04:47.999Z</time></trkpt><trkpt lat="43.104593402599974" lon="11.438361291383043"><ele>130.0</ele><time>2026-03-29T11:04:48.999Z</time></trkpt><trkpt lat="43.10450979546077" lon="11.438235898161013"><ele>130.5</ele><time>2026-03-29T11:04:49.999Z</time></trkpt><trkpt lat="43.1044202323342" lon="11.4381070353385"><ele>131.0</ele><time>2026-03-29T11:04:50.999Z</time></trkpt><trkpt lat="43.10432424179935" lon="11.437977338329237"><ele>131.0</ele><time>2026-03-29T11:04:51.999Z</time></trkpt><trkpt lat="43.104225389739646" lon="11.437839057145192"><ele>131.0</ele><time>2026-03-29T11:04:52.999Z</time></trkpt><trkpt lat="43.10413553497855" lon="11.43771473055996"><ele>131.0</ele><time>2026-03-29T11:04:53.999Z</time></trkpt><trkpt lat="43.10405555673035" lon="11.43760359290357"><ele>131.0</ele><time>2026-03-29T11:04:54.999Z</time></trkpt><trkpt lat="43.103972493632085" lon="11.437491816299318"><ele>131.25</ele><time>2026-03-29T11:04:55.999Z</time></trkpt><trkpt lat="43.103886610969944" lon="11.43737062445446"><ele>131.5</ele><time>2026-03-29T11:04:56.999Z</time></trkpt><trkpt lat="43.10380995677213" lon="11.437259533849497"><ele>131.75</ele><time>2026-03-29T11:04:57.999Z</time></trkpt><trkpt lat="43.10372593042827" lon="11.437154285440869"><ele>132.0</ele><time>2026-03-29T11:04:58.999Z</time></trkpt><trkpt lat="43.103656681322164" lon="11.437050508278967"><ele>132.4</ele><time>2026-03-29T11:04:59.999Z</time></trkpt><trkpt lat="43.103582328096536" lon="11.436943286531102"><ele>132.79999999999998</ele><time>2026-03-29T11:05:00.999Z</time></trkpt><trkpt lat="43.10350796655235" lon="11.436839565932706"><ele>133.2</ele><time>2026-03-29T11:05:01.999Z</time></trkpt><trkpt lat="43.10342923027718" lon="11.43673257191013"><ele>133.6</ele><time>2026-03-29T11:05:02.999Z</time></trkpt><trkpt lat="43.10336157697059" lon="11.43662623410368"><ele>134.0</ele><time>2026-03-29T11:05:03.999Z</time></trkpt><trkpt lat="43.10329683594623" lon="11.436539528036862"><ele>134.4</ele><time>2026-03-29T11:05:04.999Z</time></trkpt><trkpt lat="43.103227083727774" lon="11.436440788719251"><ele>134.8</ele><time>2026-03-29T11:05:05.999Z</time></trkpt><trkpt lat="43.10314842543762" lon="11.436339399223517"><ele>135.2</ele><time>2026-03-29T11:05:06.999Z</time></trkpt><trkpt lat="43.10306935255651" lon="11.436222869157568"><ele>135.6</ele><time>2026-03-29T11:05:07.999Z</time></trkpt><trkpt lat="43.10298216035467" lon="11.436104830717348"><ele>136.0</ele><time>2026-03-29T11:05:08.999Z</time></trkpt><trkpt lat="43.102910364011265" lon="11.436002398772088"><ele>136.0</ele><time>2026-03-29T11:05:09.999Z</time></trkpt><trkpt lat="43.10284100528285" lon="11.43590713323404"><ele>136.0</ele><time>2026-03-29T11:05:10.999Z</time></trkpt><trkpt lat="43.10276246061771" lon="11.435801084318602"><ele>136.0</ele><time>2026-03-29T11:05:11.999Z</time></trkpt><trkpt lat="43.102685056055016" lon="11.4356885873706"><ele>136.0</ele><time>2026-03-29T11:05:12.999Z</time></trkpt><trkpt lat="43.10260745462853" lon="11.43557869401289"><ele>136.0</ele><time>2026-03-29T11:05:13.999Z</time></trkpt><trkpt lat="43.10253139567829" lon="11.435472581974585"><ele>136.0</ele><time>2026-03-29T11:05:14.999Z</time></trkpt><trkpt lat="43.102462932995685" lon="11.435371474156891"><ele>136.0</ele><time>2026-03-29T11:05:15.999Z</time></trkpt><trkpt lat="43.10238026501155" lon="11.435244244929212"><ele>136.0</ele><time>2026-03-29T11:05:16.999Z</time></trkpt><trkpt lat="43.10230184430473" lon="11.435104113536793"><ele>136.0</ele><time>2026-03-29T11:05:17.999Z</time></trkpt><trkpt lat="43.10223765630469" lon="11.434965654087756"><ele>136.75</ele><time>2026-03-29T11:05:18.999Z</time></trkpt><trkpt lat="43.10220517233319" lon="11.434835300344357"><ele>137.5</ele><time>2026-03-29T11:05:19.999Z</time></trkpt><trkpt lat="43.10219308085825" lon="11.434699161607963"><ele>138.25</ele><time>2026-03-29T11:05:20.999Z</time></trkpt><trkpt lat="43.102202738321935" lon="11.434537483883046"><ele>139.0</ele><time>2026-03-29T11:05:21.999Z</time></trkpt><trkpt lat="43.10223201558321" lon="11.434346416194348"><ele>140.5</ele><time>2026-03-29T11:05:22.999Z</time></trkpt><trkpt lat="43.10226497737647" lon="11.434187222607878"><ele>142.0</ele><time>2026-03-29T11:05:23.999Z</time></trkpt><trkpt lat="43.102296908319175" lon="11.434045561271223"><ele>143.5</ele><time>2026-03-29T11:05:24.999Z</time></trkpt><trkpt lat="43.10231905584087" lon="11.433885934516988"><ele>145.0</ele><time>2026-03-29T11:05:25.999Z</time></trkpt><trkpt lat="43.10233991812121" lon="11.433718948698257"><ele>146.25</ele><time>2026-03-29T11:05:26.999Z</time></trkpt><trkpt lat="43.10235348383851" lon="11.43357057322322"><ele>147.5</ele><time>2026-03-29T11:05:27.999Z</time></trkpt><trkpt lat="43.10235115140311" lon="11.433428653743588"><ele>148.75</ele><time>2026-03-29T11:05:28.999Z</time></trkpt><trkpt lat="43.102337556311866" lon="11.433269757986983"><ele>150.0</ele><time>2026-03-29T11:05:29.999Z</time></trkpt><trkpt lat="43.102305540680085" lon="11.433103443239336"><ele>149.33333333333334</ele><time>2026-03-29T11:05:30.999Z</time></trkpt><trkpt lat="43.10226968899909" lon="11.432950388722396"><ele>148.66666666666666</ele><time>2026-03-29T11:05:31.999Z</time></trkpt><trkpt lat="43.10223206020421" lon="11.432846085885435"><ele>148.0</ele><time>2026-03-29T11:05:32.999Z</time></trkpt><trkpt lat="43.102198360105746" lon="11.43276213116942"><ele>147.33333333333331</ele><time>2026-03-29T11:05:33.999Z</time></trkpt><trkpt lat="43.102156051562915" lon="11.432692380097048"><ele>146.66666666666666</ele><time>2026-03-29T11:05:34.999Z</time></trkpt><trkpt lat="43.10209629835613" lon="11.432622231751845"><ele>146.0</ele><time>2026-03-29T11:05:35.999Z</time></trkpt><trkpt lat="43.10202600798665" lon="11.432549267742257"><ele>146.0</ele><time>2026-03-29T11:05:36.999Z</time></trkpt><trkpt lat="43.10193128347305" lon="11.432499068749177"><ele>146.0</ele><time>2026-03-29T11:05:37.999Z</time></trkpt><trkpt lat="43.10183939709926" lon="11.43245245985418"><ele>146.0</ele><time>2026-03-29T11:05:38.999Z</time></trkpt><trkpt lat="43.10174073504519" lon="11.432436670506156"><ele>146.0</ele><time>2026-03-29T11:05:39.999Z</time></trkpt><trkpt lat="43.10165587187393" lon="11.432427403813664"><ele>146.0</ele><time>2026-03-29T11:05:40.999Z</time></trkpt><trkpt lat="43.101556372779015" lon="11.432416052199764"><ele>147.2</ele><time>2026-03-29T11:05:41.999Z</time></trkpt><trkpt lat="43.10148010124706" lon="11.432407350566592"><ele>148.39999999999998</ele><time>2026-03-29T11:05:42.999Z</time></trkpt><trkpt lat="43.101382481382004" lon="11.432397518784358"><ele>149.6</ele><time>2026-03-29T11:05:43.999Z</time></trkpt><trkpt lat="43.10128354398927" lon="11.432388806733128"><ele>150.79999999999998</ele><time>2026-03-29T11:05:44.999Z</time></trkpt><trkpt lat="43.10117251602368" lon="11.432379147263154"><ele>152.0</ele><time>2026-03-29T11:05:46Z</time></trkpt><trkpt lat="43.10104161075581" lon="11.432367952539884"><ele>152.0</ele><time>2026-03-29T11:05:47Z</time></trkpt><trkpt lat="43.10090190187989" lon="11.43235795300173"><ele>152.0</ele><time>2026-03-29T11:05:48Z</time></trkpt><trkpt lat="43.100760443238556" lon="11.432349222129988"><ele>152.0</ele><time>2026-03-29T11:05:49Z</time></trkpt><trkpt lat="43.10060211885154" lon="11.432337774173162"><ele>152.0</ele><time>2026-03-29T11:05:50Z</time></trkpt><trkpt lat="43.100423835711815" lon="11.432322892934128"><ele>154.0</ele><time>2026-03-29T11:05:51Z</time></trkpt><trkpt lat="43.100257139196344" lon="11.432306383541869"><ele>156.0</ele><time>2026-03-29T11:05:52Z</time></trkpt><trkpt lat="43.10011499717638" lon="11.432290705157484"><ele>158.0</ele><time>2026-03-29T11:05:53Z</time></trkpt><trkpt lat="43.099974801177325" lon="11.432275241426543"><ele>159.0</ele><time>2026-03-29T11:05:54Z</time></trkpt><trkpt lat="43.09982361812093" lon="11.432261139091603"><ele>160.0</ele><time>2026-03-29T11:05:55Z</time></trkpt><trkpt lat="43.09966534226663" lon="11.432247092460315"><ele>161.0</ele><time>2026-03-29T11:05:56Z</time></trkpt><trkpt lat="43.09949865067876" lon="11.432232298950906"><ele>161.0</ele><time>2026-03-29T11:05:57Z</time></trkpt><trkpt lat="43.09935903841318" lon="11.432219908672437"><ele>161.0</ele><time>2026-03-29T11:05:58Z</time></trkpt><trkpt lat="43.099230764341186" lon="11.432208524635332"><ele>161.0</ele><time>2026-03-29T11:05:59Z</time></trkpt><trkpt lat="43.099090791494056" lon="11.432194118479012"><ele>161.0</ele><time>2026-03-29T11:06:00Z</time></trkpt><trkpt lat="43.09896887721715" lon="11.432177792807387"><ele>160.0</ele><time>2026-03-29T11:06:01Z</time></trkpt><trkpt lat="43.09883952102204" lon="11.432158703926232"><ele>159.0</ele><time>2026-03-29T11:06:02Z</time></trkpt><trkpt lat="43.09871985066305" lon="11.432135277147829"><ele>158.0</ele><time>2026-03-29T11:06:03Z</time></trkpt><trkpt lat="43.09860847751723" lon="11.432109455760342"><ele>157.0</ele><time>2026-03-29T11:06:04Z</time></trkpt><trkpt lat="43.09849167518402" lon="11.43203324872164"><ele>158.5</ele><time>2026-03-29T11:06:05Z</time></trkpt><trkpt lat="43.09837140315025" lon="11.431933878933716"><ele>160.0</ele><time>2026-03-29T11:06:06Z</time></trkpt><trkpt lat="43.09824907337017" lon="11.431835876663309"><ele>161.5</ele><time>2026-03-29T11:06:07Z</time></trkpt><trkpt lat="43.098154173504795" lon="11.431726815926007"><ele>163.0</ele><time>2026-03-29T11:06:08Z</time></trkpt><trkpt lat="43.098064762204764" lon="11.43164822079802"><ele>163.0</ele><time>2026-03-29T11:06:09Z</time></trkpt><trkpt lat="43.097969957917726" lon="11.431573259179771"><ele>163.0</ele><time>2026-03-29T11:06:10Z</time></trkpt><trkpt lat="43.09787084063212" lon="11.431494526116797"><ele>163.0</ele><time>2026-03-29T11:06:11Z</time></trkpt><trkpt lat="43.09776641705487" lon="11.431433001602123"><ele>163.0</ele><time>2026-03-29T11:06:12Z</time></trkpt><trkpt lat="43.09767651739526" lon="11.431341767019157"><ele>164.0</ele><time>2026-03-29T11:06:13Z</time></trkpt><trkpt lat="43.097576303410186" lon="11.431266214776603"><ele>165.0</ele><time>2026-03-29T11:06:14Z</time></trkpt><trkpt lat="43.09747886264474" lon="11.431184478617265"><ele>166.0</ele><time>2026-03-29T11:06:15Z</time></trkpt><trkpt lat="43.09738772953565" lon="11.431083287913527"><ele>167.0</ele><time>2026-03-29T11:06:16Z</time></trkpt><trkpt lat="43.09727869028283" lon="11.431012120080487"><ele>167.0</ele><time>2026-03-29T11:06:17Z</time></trkpt><trkpt lat="43.09718073325442" lon="11.430931563279529"><ele>167.0</ele><time>2026-03-29T11:06:18Z</time></trkpt><trkpt lat="43.097080122216994" lon="11.430858573393845"><ele>167.0</ele><time>2026-03-29T11:06:19Z</time></trkpt><trkpt lat="43.09697649926425" lon="11.430780039011486"><ele>167.0</ele><time>2026-03-29T11:06:20Z</time></trkpt><trkpt lat="43.096879532474446" lon="11.430694685483118"><ele>167.0</ele><time>2026-03-29T11:06:21Z</time></trkpt><trkpt lat="43.09679798190711" lon="11.430618540091176"><ele>167.0</ele><time>2026-03-29T11:06:22Z</time></trkpt><trkpt lat="43.09671336750994" lon="11.430522739495814"><ele>167.0</ele><time>2026-03-29T11:06:23Z</time></trkpt><trkpt lat="43.09663253768522" lon="11.430408811443353"><ele>167.0</ele><time>2026-03-29T11:06:24Z</time></trkpt><trkpt lat="43.096540270473035" lon="11.430281152633274"><ele>168.0</ele><time>2026-03-29T11:06:25Z</time></trkpt><trkpt lat="43.09645990952727" lon="11.430174851218817"><ele>169.0</ele><time>2026-03-29T11:06:26Z</time></trkpt><trkpt lat="43.09637084994761" lon="11.430063341168658"><ele>170.0</ele><time>2026-03-29T11:06:27Z</time></trkpt><trkpt lat="43.096277251627114" lon="11.429949505744078"><ele>171.0</ele><time>2026-03-29T11:06:28Z</time></trkpt><trkpt lat="43.096176791676974" lon="11.429832221102103"><ele>171.0</ele><time>2026-03-29T11:06:29Z</time></trkpt><trkpt lat="43.096070751262" lon="11.42971585370948"><ele>171.0</ele><time>2026-03-29T11:06:30Z</time></trkpt><trkpt lat="43.095965708450656" lon="11.42961411069132"><ele>171.0</ele><time>2026-03-29T11:06:31Z</time></trkpt><trkpt lat="43.095869115383834" lon="11.429529667974009"><ele>171.0</ele><time>2026-03-29T11:06:32Z</time></trkpt><trkpt lat="43.0957563077217" lon="11.429450594629646"><ele>173.0</ele><time>2026-03-29T11:06:33Z</time></trkpt><trkpt lat="43.09564626548601" lon="11.429369110199298"><ele>175.0</ele><time>2026-03-29T11:06:34Z</time></trkpt><trkpt lat="43.09552861987018" lon="11.429284952268842"><ele>177.0</ele><time>2026-03-29T11:06:35Z</time></trkpt><trkpt lat="43.09540246287963" lon="11.429198273955086"><ele>179.0</ele><time>2026-03-29T11:06:36Z</time></trkpt><trkpt lat="43.095282638024344" lon="11.429113664650446"><ele>179.0</ele><time>2026-03-29T11:06:37Z</time></trkpt><trkpt lat="43.09518492181167" lon="11.4290368584236"><ele>179.0</ele><time>2026-03-29T11:06:38Z</time></trkpt><trkpt lat="43.09508414267511" lon="11.4289627381733"><ele>179.0</ele><time>2026-03-29T11:06:39Z</time></trkpt><trkpt lat="43.094976799821005" lon="11.428888437788894"><ele>179.0</ele><time>2026-03-29T11:06:40Z</time></trkpt><trkpt lat="43.09486894839225" lon="11.428806327158098"><ele>180.75</ele><time>2026-03-29T11:06:41Z</time></trkpt><trkpt lat="43.09476193859442" lon="11.428729843554724"><ele>182.5</ele><time>2026-03-29T11:06:42Z</time></trkpt><trkpt lat="43.094648996790205" lon="11.428654067756481"><ele>184.25</ele><time>2026-03-29T11:06:43Z</time></trkpt><trkpt lat="43.09454610413485" lon="11.428583110731953"><ele>186.0</ele><time>2026-03-29T11:06:44Z</time></trkpt><trkpt lat="43.094447054936914" lon="11.428508137963911"><ele>186.0</ele><time>2026-03-29T11:06:45Z</time></trkpt><trkpt lat="43.09435095549689" lon="11.4284284615648"><ele>186.0</ele><time>2026-03-29T11:06:46Z</time></trkpt><trkpt lat="43.094249872997906" lon="11.428347838184909"><ele>186.0</ele><time>2026-03-29T11:06:47Z</time></trkpt><trkpt lat="43.09414041225698" lon="11.428271640732294"><ele>186.0</ele><time>2026-03-29T11:06:48Z</time></trkpt><trkpt lat="43.09403545393396" lon="11.428196934353927"><ele>186.4</ele><time>2026-03-29T11:06:49Z</time></trkpt><trkpt lat="43.093935441818594" lon="11.428125011317938"><ele>186.8</ele><time>2026-03-29T11:06:49.999Z</time></trkpt><trkpt lat="43.09383723163168" lon="11.428053433834895"><ele>187.20000000000002</ele><time>2026-03-29T11:06:50.999Z</time></trkpt><trkpt lat="43.09373942737053" lon="11.427980249856722"><ele>187.60000000000002</ele><time>2026-03-29T11:06:51.999Z</time></trkpt><trkpt lat="43.09363837568971" lon="11.427911482128627"><ele>188.0</ele><time>2026-03-29T11:06:52.999Z</time></trkpt><trkpt lat="43.093534792764245" lon="11.427845537178358"><ele>188.60000000000002</ele><time>2026-03-29T11:06:53.999Z</time></trkpt><trkpt lat="43.09343158826455" lon="11.427772243810105"><ele>189.20000000000002</ele><time>2026-03-29T11:06:54.999Z</time></trkpt><trkpt lat="43.09333527573598" lon="11.427697637775115"><ele>189.8</ele><time>2026-03-29T11:06:55.999Z</time></trkpt><trkpt lat="43.09324554914415" lon="11.427634619226986"><ele>190.4</ele><time>2026-03-29T11:06:56.999Z</time></trkpt><trkpt lat="43.09315059497891" lon="11.427562746505062"><ele>191.0</ele><time>2026-03-29T11:06:57.999Z</time></trkpt><trkpt lat="43.093048541879185" lon="11.42748563303359"><ele>191.75</ele><time>2026-03-29T11:06:58.999Z</time></trkpt><trkpt lat="43.09294736576237" lon="11.427410043611022"><ele>192.5</ele><time>2026-03-29T11:06:59.999Z</time></trkpt><trkpt lat="43.09284152420873" lon="11.42734253205413"><ele>193.25</ele><time>2026-03-29T11:07:00.999Z</time></trkpt><trkpt lat="43.09274106729325" lon="11.427274235826278"><ele>194.0</ele><time>2026-03-29T11:07:01.999Z</time></trkpt><trkpt lat="43.09262894718409" lon="11.4271952068229"><ele>194.75</ele><time>2026-03-29T11:07:02.999Z</time></trkpt><trkpt lat="43.09251965386202" lon="11.427102871809327"><ele>195.5</ele><time>2026-03-29T11:07:03.999Z</time></trkpt><trkpt lat="43.09240982120917" lon="11.427016500630973"><ele>196.25</ele><time>2026-03-29T11:07:04.999Z</time></trkpt><trkpt lat="43.09231183586025" lon="11.426940473516355"><ele>197.0</ele><time>2026-03-29T11:07:05.999Z</time></trkpt><trkpt lat="43.092204151522296" lon="11.42686169544479"><ele>197.75</ele><time>2026-03-29T11:07:06.999Z</time></trkpt><trkpt lat="43.09209640589168" lon="11.426786402741808"><ele>198.5</ele><time>2026-03-29T11:07:07.999Z</time></trkpt><trkpt lat="43.0919777098558" lon="11.426704991563534"><ele>199.25</ele><time>2026-03-29T11:07:08.999Z</time></trkpt><trkpt lat="43.091865712489955" lon="11.42663767590996"><ele>200.0</ele><time>2026-03-29T11:07:09.999Z</time></trkpt><trkpt lat="43.09176527935836" lon="11.42656169782753"><ele>200.0</ele><time>2026-03-29T11:07:10.999Z</time></trkpt><trkpt lat="43.09166349987227" lon="11.426486404717659"><ele>200.0</ele><time>2026-03-29T11:07:11.999Z</time></trkpt><trkpt lat="43.091564206352885" lon="11.42640246824636"><ele>200.0</ele><time>2026-03-29T11:07:12.999Z</time></trkpt><trkpt lat="43.09146629878281" lon="11.426326243191445"><ele>200.0</ele><time>2026-03-29T11:07:13.999Z</time></trkpt><trkpt lat="43.0913711205419" lon="11.426254572332494"><ele>200.6</ele><time>2026-03-29T11:07:14.999Z</time></trkpt><trkpt lat="43.09128400285006" lon="11.426185619874941"><ele>201.2</ele><time>2026-03-29T11:07:15.999Z</time></trkpt><trkpt lat="43.09119234614513" lon="11.426116737913624"><ele>201.8</ele><time>2026-03-29T11:07:16.999Z</time></trkpt><trkpt lat="43.0910877776561" lon="11.42605085351329"><ele>202.4</ele><time>2026-03-29T11:07:17.999Z</time></trkpt><trkpt lat="43.09096893246436" lon="11.42599079488102"><ele>203.0</ele><time>2026-03-29T11:07:18.999Z</time></trkpt><trkpt lat="43.09084188474525" lon="11.425951202671186"><ele>204.5</ele><time>2026-03-29T11:07:19.999Z</time></trkpt><trkpt lat="43.09070548964458" lon="11.425915211065128"><ele>206.0</ele><time>2026-03-29T11:07:20.999Z</time></trkpt><trkpt lat="43.090568841051535" lon="11.425849109477845"><ele>207.5</ele><time>2026-03-29T11:07:21.999Z</time></trkpt><trkpt lat="43.09044043665988" lon="11.425816252750478"><ele>209.0</ele><time>2026-03-29T11:07:22.999Z</time></trkpt><trkpt lat="43.09031200082786" lon="11.425782928568937"><ele>209.0</ele><time>2026-03-29T11:07:23.999Z</time></trkpt><trkpt lat="43.09018272566291" lon="11.425748915518817"><ele>209.0</ele><time>2026-03-29T11:07:24.999Z</time></trkpt><trkpt lat="43.09005071862956" lon="11.425712968128877"><ele>209.0</ele><time>2026-03-29T11:07:25.999Z</time></trkpt><trkpt lat="43.08991338266672" lon="11.425675569591528"><ele>209.0</ele><time>2026-03-29T11:07:26.999Z</time></trkpt><trkpt lat="43.08978760256969" lon="11.425641243216473"><ele>210.25</ele><time>2026-03-29T11:07:27.999Z</time></trkpt><trkpt lat="43.08966535852182" lon="11.425607796148158"><ele>211.5</ele><time>2026-03-29T11:07:28.999Z</time></trkpt><trkpt lat="43.08953521800577" lon="11.425575190103284"><ele>212.75</ele><time>2026-03-29T11:07:29.999Z</time></trkpt><trkpt lat="43.08940596193096" lon="11.425566089309454"><ele>214.0</ele><time>2026-03-29T11:07:30.999Z</time></trkpt><trkpt lat="43.08929136081343" lon="11.4255093157168"><ele>214.0</ele><time>2026-03-29T11:07:31.999Z</time></trkpt><trkpt lat="43.08919109164946" lon="11.425490622538328"><ele>213.99999999999997</ele><time>2026-03-29T11:07:32.999Z</time></trkpt><trkpt lat="43.0890974076175" lon="11.425446090948405"><ele>213.99999999999997</ele><time>2026-03-29T11:07:33.999Z</time></trkpt><trkpt lat="43.089015275912665" lon="11.425369446343886"><ele>214.0</ele><time>2026-03-29T11:07:34.999Z</time></trkpt><trkpt lat="43.08896857685579" lon="11.42527566567558"><ele>214.0</ele><time>2026-03-29T11:07:35.999Z</time></trkpt><trkpt lat="43.08895462163611" lon="11.425179482504063"><ele>219.2</ele><time>2026-03-29T11:07:36.999Z</time></trkpt><trkpt lat="43.088959100600384" lon="11.425041325228518"><ele>224.39999999999998</ele><time>2026-03-29T11:07:37.999Z</time></trkpt><trkpt lat="43.08897489138699" lon="11.424890979207193"><ele>229.6</ele><time>2026-03-29T11:07:38.999Z</time></trkpt><trkpt lat="43.088996029416144" lon="11.424751590601103"><ele>234.8</ele><time>2026-03-29T11:07:39.999Z</time></trkpt><trkpt lat="43.08902553491936" lon="11.424599394230219"><ele>240.0</ele><time>2026-03-29T11:07:40.999Z</time></trkpt><trkpt lat="43.08903750707439" lon="11.424438570353212"><ele>239.6</ele><time>2026-03-29T11:07:41.999Z</time></trkpt><trkpt lat="43.089064195811154" lon="11.424305613852262"><ele>239.2</ele><time>2026-03-29T11:07:42.999Z</time></trkpt><trkpt lat="43.089089001884766" lon="11.424171246012333"><ele>238.8</ele><time>2026-03-29T11:07:43.999Z</time></trkpt><trkpt lat="43.0891115407243" lon="11.424026429755708"><ele>238.4</ele><time>2026-03-29T11:07:44.999Z</time></trkpt><trkpt lat="43.08913392668889" lon="11.42388625958114"><ele>238.0</ele><time>2026-03-29T11:07:45.999Z</time></trkpt><trkpt lat="43.089150482116295" lon="11.423757982641852"><ele>238.0</ele><time>2026-03-29T11:07:46.999Z</time></trkpt><trkpt lat="43.0891813745226" lon="11.42363021652367"><ele>238.0</ele><time>2026-03-29T11:07:47.999Z</time></trkpt><trkpt lat="43.08918724276656" lon="11.423506278551"><ele>238.0</ele><time>2026-03-29T11:07:48.999Z</time></trkpt><trkpt lat="43.08918553621358" lon="11.423374241401346"><ele>238.0</ele><time>2026-03-29T11:07:49.999Z</time></trkpt><trkpt lat="43.08917056412914" lon="11.423239913712367"><ele>238.0</ele><time>2026-03-29T11:07:50.999Z</time></trkpt><trkpt lat="43.08913837459535" lon="11.423132819302674"><ele>238.0</ele><time>2026-03-29T11:07:52Z</time></trkpt><trkpt lat="43.08909835452728" lon="11.423018782815753"><ele>238.0</ele><time>2026-03-29T11:07:53Z</time></trkpt><trkpt lat="43.08905161607778" lon="11.422902816622669"><ele>238.0</ele><time>2026-03-29T11:07:54Z</time></trkpt><trkpt lat="43.088998190463016" lon="11.422809306227267"><ele>238.0</ele><time>2026-03-29T11:07:55Z</time></trkpt><trkpt lat="43.088959552902374" lon="11.422667932532294"><ele>238.0</ele><time>2026-03-29T11:07:56Z</time></trkpt><trkpt lat="43.08889504272905" lon="11.42253379773723"><ele>241.8</ele><time>2026-03-29T11:07:57Z</time></trkpt><trkpt lat="43.08884860378392" lon="11.42238824292842"><ele>245.60000000000002</ele><time>2026-03-29T11:07:58Z</time></trkpt><trkpt lat="43.08880509538981" lon="11.422285208563773"><ele>249.39999999999998</ele><time>2026-03-29T11:07:59Z</time></trkpt><trkpt lat="43.08876961197677" lon="11.422175178284823"><ele>253.2</ele><time>2026-03-29T11:08:00Z</time></trkpt><trkpt lat="43.088730961187906" lon="11.422076144077963"><ele>257.0</ele><time>2026-03-29T11:08:01Z</time></trkpt><trkpt lat="43.088690058260966" lon="11.421959008530123"><ele>257.0</ele><time>2026-03-29T11:08:02Z</time></trkpt><trkpt lat="43.08865045731746" lon="11.421868673318336"><ele>257.0</ele><time>2026-03-29T11:08:03Z</time></trkpt><trkpt lat="43.08856040875253" lon="11.42175269731734"><ele>257.0</ele><time>2026-03-29T11:08:05Z</time></trkpt><trkpt lat="43.08843703541705" lon="11.421693688197644"><ele>257.0</ele><time>2026-03-29T11:08:07Z</time></trkpt><trkpt lat="43.088366237583834" lon="11.42165567456556"><ele>257.0</ele><time>2026-03-29T11:08:08Z</time></trkpt><trkpt lat="43.08828578973411" lon="11.421677287013614"><ele>260.6666666666667</ele><time>2026-03-29T11:08:09Z</time></trkpt><trkpt lat="43.08821452995946" lon="11.421733516305709"><ele>264.33333333333337</ele><time>2026-03-29T11:08:10Z</time></trkpt><trkpt lat="43.08816309418794" lon="11.421842599013935"><ele>268.0</ele><time>2026-03-29T11:08:11Z</time></trkpt><trkpt lat="43.088125388398794" lon="11.421934164759637"><ele>271.6666666666667</ele><time>2026-03-29T11:08:12Z</time></trkpt><trkpt lat="43.08809209582491" lon="11.422046102590604"><ele>275.3333333333333</ele><time>2026-03-29T11:08:13Z</time></trkpt><trkpt lat="43.08806466468226" lon="11.422169997181115"><ele>279.0</ele><time>2026-03-29T11:08:14Z</time></trkpt><trkpt lat="43.08803985614821" lon="11.422309654406797"><ele>279.5</ele><time>2026-03-29T11:08:15Z</time></trkpt><trkpt lat="43.08801494109484" lon="11.422452776879659"><ele>280.0</ele><time>2026-03-29T11:08:16Z</time></trkpt><trkpt lat="43.08799281039676" lon="11.422569951359447"><ele>280.5</ele><time>2026-03-29T11:08:17Z</time></trkpt><trkpt lat="43.08797263544369" lon="11.422660738710718"><ele>281.0</ele><time>2026-03-29T11:08:18Z</time></trkpt><trkpt lat="43.08794847704633" lon="11.422761407357457"><ele>281.5</ele><time>2026-03-29T11:08:19Z</time></trkpt><trkpt lat="43.087922206856675" lon="11.422862879033332"><ele>282.0</ele><time>2026-03-29T11:08:20Z</time></trkpt><trkpt lat="43.08789735423007" lon="11.422951082321916"><ele>282.1666666666667</ele><time>2026-03-29T11:08:21Z</time></trkpt><trkpt lat="43.08786693376868" lon="11.423041158252433"><ele>282.3333333333333</ele><time>2026-03-29T11:08:22Z</time></trkpt><trkpt lat="43.087830413536686" lon="11.423139282100578"><ele>282.5</ele><time>2026-03-29T11:08:23Z</time></trkpt><trkpt lat="43.08778046900685" lon="11.423261529953892"><ele>282.66666666666663</ele><time>2026-03-29T11:08:24Z</time></trkpt><trkpt lat="43.08773091088352" lon="11.423358606387897"><ele>282.8333333333333</ele><time>2026-03-29T11:08:25Z</time></trkpt><trkpt lat="43.08766294358812" lon="11.423463994529996"><ele>283.0</ele><time>2026-03-29T11:08:27Z</time></trkpt><trkpt lat="43.08760115300934" lon="11.423507911776698"><ele>283.0</ele><time>2026-03-29T11:08:29Z</time></trkpt><trkpt lat="43.08752566903285" lon="11.423429750070936"><ele>283.0</ele><time>2026-03-29T11:08:31Z</time></trkpt><trkpt lat="43.08747559036922" lon="11.423255895419425"><ele>283.0</ele><time>2026-03-29T11:08:33Z</time></trkpt><trkpt lat="43.08745661599401" lon="11.423158413047586"><ele>283.0</ele><time>2026-03-29T11:08:34Z</time></trkpt><trkpt lat="43.08743969122768" lon="11.423053996783107"><ele>283.0</ele><time>2026-03-29T11:08:35Z</time></trkpt><trkpt lat="43.08742925426236" lon="11.422932117687138"><ele>288.4</ele><time>2026-03-29T11:08:36Z</time></trkpt><trkpt lat="43.087394838496095" lon="11.422803707646356"><ele>293.8</ele><time>2026-03-29T11:08:38Z</time></trkpt><trkpt lat="43.08736637243565" lon="11.422693487318048"><ele>299.2</ele><time>2026-03-29T11:08:40Z</time></trkpt><trkpt lat="43.08731668643353" lon="11.42262089659254"><ele>304.6</ele><time>2026-03-29T11:08:42Z</time></trkpt><trkpt lat="43.087220784877324" lon="11.42263496076294"><ele>310.0</ele><time>2026-03-29T11:08:44Z</time></trkpt><trkpt lat="43.08714568018078" lon="11.422722721163641"><ele>310.0</ele><time>2026-03-29T11:08:46Z</time></trkpt><trkpt lat="43.0871051549478" lon="11.42287342483318"><ele>310.0</ele><time>2026-03-29T11:08:48Z</time></trkpt><trkpt lat="43.087094297016286" lon="11.422964458895411"><ele>310.0</ele><time>2026-03-29T11:08:49Z</time></trkpt><trkpt lat="43.08708028427082" lon="11.423062707513353"><ele>310.0</ele><time>2026-03-29T11:08:50Z</time></trkpt><trkpt lat="43.087054446731976" lon="11.423208567074484"><ele>310.0</ele><time>2026-03-29T11:08:52Z</time></trkpt><trkpt lat="43.08703870856343" lon="11.423293427313695"><ele>310.0</ele><time>2026-03-29T11:08:53Z</time></trkpt><trkpt lat="43.087021563705605" lon="11.423381487502112"><ele>310.0</ele><time>2026-03-29T11:08:54Z</time></trkpt><trkpt lat="43.087000276258124" lon="11.423477178413593"><ele>310.0</ele><time>2026-03-29T11:08:55Z</time></trkpt><trkpt lat="43.08695719514784" lon="11.423634509942051"><ele>310.0</ele><time>2026-03-29T11:08:57Z</time></trkpt><trkpt lat="43.08692758963087" lon="11.423712364750338"><ele>310.0</ele><time>2026-03-29T11:08:57.999Z</time></trkpt><trkpt lat="43.086887345644634" lon="11.423779642694656"><ele>310.0</ele><time>2026-03-29T11:08:58.999Z</time></trkpt><trkpt lat="43.08678525175933" lon="11.423846335349184"><ele>310.0</ele><time>2026-03-29T11:09:00.999Z</time></trkpt><trkpt lat="43.08666672191995" lon="11.423862659370748"><ele>308.16666666666663</ele><time>2026-03-29T11:09:02.999Z</time></trkpt><trkpt lat="43.08659801618367" lon="11.423831631077858"><ele>306.3333333333333</ele><time>2026-03-29T11:09:03.999Z</time></trkpt><trkpt lat="43.0865315673256" lon="11.423789353626715"><ele>304.5</ele><time>2026-03-29T11:09:04.999Z</time></trkpt><trkpt lat="43.08646280150345" lon="11.4237307430749"><ele>302.6666666666667</ele><time>2026-03-29T11:09:05.999Z</time></trkpt><trkpt lat="43.08640608570356" lon="11.423633291251397"><ele>300.83333333333337</ele><time>2026-03-29T11:09:07.999Z</time></trkpt><trkpt lat="43.08639791947908" lon="11.423497692196603"><ele>299.0</ele><time>2026-03-29T11:09:09.999Z</time></trkpt><trkpt lat="43.08644886830917" lon="11.423335498498936"><ele>303.83333333333337</ele><time>2026-03-29T11:09:11.999Z</time></trkpt><trkpt lat="43.0864877179462" lon="11.42324539188207"><ele>308.6666666666667</ele><time>2026-03-29T11:09:12.999Z</time></trkpt><trkpt lat="43.086517044317354" lon="11.423135773274653"><ele>313.5</ele><time>2026-03-29T11:09:13.999Z</time></trkpt><trkpt lat="43.08653878436643" lon="11.423036419359823"><ele>318.3333333333333</ele><time>2026-03-29T11:09:14.999Z</time></trkpt><trkpt lat="43.08654963057803" lon="11.42293977588845"><ele>323.16666666666663</ele><time>2026-03-29T11:09:15.999Z</time></trkpt><trkpt lat="43.08652987773811" lon="11.422774093144673"><ele>328.0</ele><time>2026-03-29T11:09:17.999Z</time></trkpt><trkpt lat="43.08647023621846" lon="11.4226601760993"><ele>328.0</ele><time>2026-03-29T11:09:19.999Z</time></trkpt><trkpt lat="43.086372415524636" lon="11.422602886024865"><ele>328.0</ele><time>2026-03-29T11:09:21.999Z</time></trkpt><trkpt lat="43.08625980998041" lon="11.42262000287691"><ele>328.0</ele><time>2026-03-29T11:09:23.999Z</time></trkpt><trkpt lat="43.086202449594616" lon="11.422674994670503"><ele>328.0</ele><time>2026-03-29T11:09:24.999Z</time></trkpt><trkpt lat="43.08615071501606" lon="11.422759255263555"><ele>328.0</ele><time>2026-03-29T11:09:25.999Z</time></trkpt><trkpt lat="43.086109276391205" lon="11.422855308303514"><ele>328.0</ele><time>2026-03-29T11:09:26.999Z</time></trkpt><trkpt lat="43.086082626798856" lon="11.422957618744007"><ele>328.0</ele><time>2026-03-29T11:09:27.999Z</time></trkpt><trkpt lat="43.08601932422717" lon="11.42308132882279"><ele>328.0</ele><time>2026-03-29T11:09:29.999Z</time></trkpt><trkpt lat="43.085909374937174" lon="11.42321109317066"><ele>328.0</ele><time>2026-03-29T11:09:31.999Z</time></trkpt><trkpt lat="43.08586030774433" lon="11.423281729592349"><ele>328.0</ele><time>2026-03-29T11:09:32.999Z</time></trkpt><trkpt lat="43.08579436555803" lon="11.42329239201929"><ele>331.4</ele><time>2026-03-29T11:09:33.999Z</time></trkpt><trkpt lat="43.085720540010975" lon="11.423267988714027"><ele>334.79999999999995</ele><time>2026-03-29T11:09:34.999Z</time></trkpt><trkpt lat="43.08565707560764" lon="11.423208768029935"><ele>338.2</ele><time>2026-03-29T11:09:35.999Z</time></trkpt><trkpt lat="43.085608585150695" lon="11.423116861138183"><ele>341.6</ele><time>2026-03-29T11:09:36.999Z</time></trkpt><trkpt lat="43.08556014483029" lon="11.42299517183896"><ele>345.0</ele><time>2026-03-29T11:09:37.999Z</time></trkpt><trkpt lat="43.085522821416106" lon="11.422836361730656"><ele>345.8</ele><time>2026-03-29T11:09:38.999Z</time></trkpt><trkpt lat="43.08548889715062" lon="11.422685751085925"><ele>346.6</ele><time>2026-03-29T11:09:39.999Z</time></trkpt><trkpt lat="43.085461775103184" lon="11.422535659303675"><ele>347.4</ele><time>2026-03-29T11:09:40.999Z</time></trkpt><trkpt lat="43.08541637600409" lon="11.42238987447222"><ele>348.2</ele><time>2026-03-29T11:09:41.999Z</time></trkpt><trkpt lat="43.08538585681706" lon="11.42225279783164"><ele>349.0</ele><time>2026-03-29T11:09:42.999Z</time></trkpt><trkpt lat="43.08534816781352" lon="11.422141792158166"><ele>346.4</ele><time>2026-03-29T11:09:43.999Z</time></trkpt><trkpt lat="43.08529974252917" lon="11.422028375306272"><ele>343.79999999999995</ele><time>2026-03-29T11:09:44.999Z</time></trkpt><trkpt lat="43.08524383573931" lon="11.421940178010901"><ele>341.20000000000005</ele><time>2026-03-29T11:09:45.999Z</time></trkpt><trkpt lat="43.08515643290046" lon="11.42185579465314"><ele>338.6</ele><time>2026-03-29T11:09:46.999Z</time></trkpt><trkpt lat="43.085064007135934" lon="11.421780637033269"><ele>336.0</ele><time>2026-03-29T11:09:47.999Z</time></trkpt><trkpt lat="43.08496291728874" lon="11.421717188004507"><ele>338.25</ele><time>2026-03-29T11:09:48.999Z</time></trkpt><trkpt lat="43.08484527947785" lon="11.421664149055692"><ele>340.5</ele><time>2026-03-29T11:09:49.999Z</time></trkpt><trkpt lat="43.084725268607286" lon="11.421615557887701"><ele>342.75</ele><time>2026-03-29T11:09:50.999Z</time></trkpt><trkpt lat="43.08461411160632" lon="11.421574216499975"><ele>345.0</ele><time>2026-03-29T11:09:51.999Z</time></trkpt><trkpt lat="43.084491658425684" lon="11.42152447852757"><ele>345.0</ele><time>2026-03-29T11:09:52.999Z</time></trkpt><trkpt lat="43.08436548494355" lon="11.421451656192598"><ele>345.0</ele><time>2026-03-29T11:09:53.999Z</time></trkpt><trkpt lat="43.084265076029354" lon="11.421373089949816"><ele>345.0</ele><time>2026-03-29T11:09:54.999Z</time></trkpt><trkpt lat="43.08417046438151" lon="11.421294534945758"><ele>345.0</ele><time>2026-03-29T11:09:55.999Z</time></trkpt><trkpt lat="43.08407067276924" lon="11.421212469194497"><ele>345.4</ele><time>2026-03-29T11:09:56.999Z</time></trkpt><trkpt lat="43.0839677408801" lon="11.421131391466307"><ele>345.8</ele><time>2026-03-29T11:09:58Z</time></trkpt><trkpt lat="43.08387484477251" lon="11.421063846355212"><ele>346.20000000000005</ele><time>2026-03-29T11:09:59Z</time></trkpt><trkpt lat="43.08378259710503" lon="11.42100683164864"><ele>346.6</ele><time>2026-03-29T11:10:00Z</time></trkpt><trkpt lat="43.08368363515513" lon="11.420958581998205"><ele>347.0</ele><time>2026-03-29T11:10:01Z</time></trkpt><trkpt lat="43.083582284285285" lon="11.420914073891927"><ele>347.0</ele><time>2026-03-29T11:10:02Z</time></trkpt><trkpt lat="43.08347582973975" lon="11.42087918757145"><ele>347.0</ele><time>2026-03-29T11:10:03Z</time></trkpt><trkpt lat="43.083366107581696" lon="11.420843245972337"><ele>347.0</ele><time>2026-03-29T11:10:04Z</time></trkpt><trkpt lat="43.08325971303403" lon="11.42081522802842"><ele>347.0</ele><time>2026-03-29T11:10:05Z</time></trkpt><trkpt lat="43.083162170048524" lon="11.420791495249727"><ele>347.0</ele><time>2026-03-29T11:10:06Z</time></trkpt><trkpt lat="43.08306790561255" lon="11.420759891187176"><ele>349.0</ele><time>2026-03-29T11:10:07Z</time></trkpt><trkpt lat="43.08296696274807" lon="11.420716348720008"><ele>351.0</ele><time>2026-03-29T11:10:08Z</time></trkpt><trkpt lat="43.08285075047177" lon="11.420675664611695"><ele>353.0</ele><time>2026-03-29T11:10:09Z</time></trkpt><trkpt lat="43.082729826583396" lon="11.420642501639263"><ele>355.0</ele><time>2026-03-29T11:10:10Z</time></trkpt><trkpt lat="43.08261589159458" lon="11.420606758898357"><ele>355.0</ele><time>2026-03-29T11:10:11Z</time></trkpt><trkpt lat="43.082519085303986" lon="11.420581055263938"><ele>355.0</ele><time>2026-03-29T11:10:12Z</time></trkpt><trkpt lat="43.0824311121607" lon="11.420554448193682"><ele>355.0</ele><time>2026-03-29T11:10:13Z</time></trkpt><trkpt lat="43.08233587881371" lon="11.420530407186291"><ele>355.0</ele><time>2026-03-29T11:10:14Z</time></trkpt><trkpt lat="43.08222707095567" lon="11.42053032585973"><ele>355.0</ele><time>2026-03-29T11:10:15Z</time></trkpt><trkpt lat="43.082135476105776" lon="11.420531015482386"><ele>354.8</ele><time>2026-03-29T11:10:16Z</time></trkpt><trkpt lat="43.082038830313174" lon="11.420526043448563"><ele>354.6</ele><time>2026-03-29T11:10:17Z</time></trkpt><trkpt lat="43.08192972674002" lon="11.420521780826435"><ele>354.4</ele><time>2026-03-29T11:10:18Z</time></trkpt><trkpt lat="43.08181370092132" lon="11.420480560063321"><ele>354.2</ele><time>2026-03-29T11:10:19Z</time></trkpt><trkpt lat="43.081724370424546" lon="11.420407668636317"><ele>354.0</ele><time>2026-03-29T11:10:20Z</time></trkpt><trkpt lat="43.08164214343946" lon="11.42032590315711"><ele>357.2</ele><time>2026-03-29T11:10:21Z</time></trkpt><trkpt lat="43.08156350726231" lon="11.420235451439822"><ele>360.4</ele><time>2026-03-29T11:10:22Z</time></trkpt><trkpt lat="43.08149127451026" lon="11.42014357841974"><ele>363.6</ele><time>2026-03-29T11:10:23Z</time></trkpt><trkpt lat="43.081431721366776" lon="11.420052166447892"><ele>366.8</ele><time>2026-03-29T11:10:24Z</time></trkpt><trkpt lat="43.08137551475821" lon="11.419952147345608"><ele>370.0</ele><time>2026-03-29T11:10:25Z</time></trkpt><trkpt lat="43.08131989574419" lon="11.419851420492854"><ele>370.0</ele><time>2026-03-29T11:10:26Z</time></trkpt><trkpt lat="43.08127531732856" lon="11.41976847273381"><ele>370.0</ele><time>2026-03-29T11:10:27Z</time></trkpt><trkpt lat="43.081232236517444" lon="11.41968071545426"><ele>370.0</ele><time>2026-03-29T11:10:28Z</time></trkpt><trkpt lat="43.08116569150514" lon="11.419603500984984"><ele>370.0</ele><time>2026-03-29T11:10:29Z</time></trkpt><trkpt lat="43.0810799943573" lon="11.419541795749716"><ele>370.0</ele><time>2026-03-29T11:10:30Z</time></trkpt><trkpt lat="43.08097903412232" lon="11.419479963049689"><ele>370.0</ele><time>2026-03-29T11:10:31Z</time></trkpt><trkpt lat="43.08087113505356" lon="11.41943270937013"><ele>369.2</ele><time>2026-03-29T11:10:32Z</time></trkpt><trkpt lat="43.080781827978015" lon="11.419404312873292"><ele>368.4</ele><time>2026-03-29T11:10:33Z</time></trkpt><trkpt lat="43.08069467743628" lon="11.419381556551583"><ele>367.6</ele><time>2026-03-29T11:10:34Z</time></trkpt><trkpt lat="43.0806028715293" lon="11.419365964426072"><ele>366.8</ele><time>2026-03-29T11:10:35Z</time></trkpt><trkpt lat="43.08051096917735" lon="11.41934957154055"><ele>366.0</ele><time>2026-03-29T11:10:36Z</time></trkpt><trkpt lat="43.0804116175865" lon="11.419313405769872"><ele>367.6666666666667</ele><time>2026-03-29T11:10:37Z</time></trkpt><trkpt lat="43.08032912736003" lon="11.419264911733015"><ele>369.3333333333333</ele><time>2026-03-29T11:10:38Z</time></trkpt><trkpt lat="43.08026625875275" lon="11.419186277882964"><ele>371.0</ele><time>2026-03-29T11:10:39Z</time></trkpt><trkpt lat="43.08021952860355" lon="11.419083930936553"><ele>372.66666666666663</ele><time>2026-03-29T11:10:40Z</time></trkpt><trkpt lat="43.080194241003625" lon="11.418989715492625"><ele>374.3333333333333</ele><time>2026-03-29T11:10:41Z</time></trkpt><trkpt lat="43.080150728129006" lon="11.418879208100085"><ele>376.0</ele><time>2026-03-29T11:10:42Z</time></trkpt><trkpt lat="43.08009494686349" lon="11.418788764061874"><ele>376.0</ele><time>2026-03-29T11:10:43Z</time></trkpt><trkpt lat="43.08003481584281" lon="11.418726374029365"><ele>376.0</ele><time>2026-03-29T11:10:44Z</time></trkpt><trkpt lat="43.079962127253005" lon="11.418670682129562"><ele>376.0</ele><time>2026-03-29T11:10:45Z</time></trkpt><trkpt lat="43.07987799805807" lon="11.418616884904761"><ele>376.0</ele><time>2026-03-29T11:10:46Z</time></trkpt><trkpt lat="43.07977412501423" lon="11.418564496011733"><ele>376.0</ele><time>2026-03-29T11:10:47Z</time></trkpt><trkpt lat="43.07966127462086" lon="11.418525376430923"><ele>380.20000000000005</ele><time>2026-03-29T11:10:48Z</time></trkpt><trkpt lat="43.07955161592501" lon="11.418480409542815"><ele>384.40000000000003</ele><time>2026-03-29T11:10:49Z</time></trkpt><trkpt lat="43.07945159570275" lon="11.418426732797698"><ele>388.6</ele><time>2026-03-29T11:10:50Z</time></trkpt><trkpt lat="43.07936691528388" lon="11.418388491287956"><ele>392.8</ele><time>2026-03-29T11:10:51Z</time></trkpt><trkpt lat="43.07927608168774" lon="11.41834248473147"><ele>397.0</ele><time>2026-03-29T11:10:52Z</time></trkpt><trkpt lat="43.07919962166839" lon="11.418278374538808"><ele>397.00000000000006</ele><time>2026-03-29T11:10:53Z</time></trkpt><trkpt lat="43.07913662921067" lon="11.41820284654996"><ele>397.0</ele><time>2026-03-29T11:10:54Z</time></trkpt><trkpt lat="43.07907277196183" lon="11.41811238936321"><ele>397.0</ele><time>2026-03-29T11:10:55Z</time></trkpt><trkpt lat="43.07900162603296" lon="11.418035974186713"><ele>397.0</ele><time>2026-03-29T11:10:56Z</time></trkpt><trkpt lat="43.07892257459197" lon="11.417993421207767"><ele>397.00000000000006</ele><time>2026-03-29T11:10:57Z</time></trkpt><trkpt lat="43.078827619110584" lon="11.417965640309037"><ele>397.0</ele><time>2026-03-29T11:10:58Z</time></trkpt><trkpt lat="43.07872602217291" lon="11.417947233630786"><ele>396.6</ele><time>2026-03-29T11:10:59Z</time></trkpt><trkpt lat="43.078634820315806" lon="11.417938150118736"><ele>396.20000000000005</ele><time>2026-03-29T11:11:00Z</time></trkpt><trkpt lat="43.07854142848252" lon="11.417930918984203"><ele>395.8</ele><time>2026-03-29T11:11:00.999Z</time></trkpt><trkpt lat="43.078452044057585" lon="11.417930593553166"><ele>395.4</ele><time>2026-03-29T11:11:01.999Z</time></trkpt><trkpt lat="43.07836151372221" lon="11.417924360002258"><ele>395.0</ele><time>2026-03-29T11:11:02.999Z</time></trkpt><trkpt lat="43.07827207802433" lon="11.417912426581696"><ele>397.8</ele><time>2026-03-29T11:11:03.999Z</time></trkpt><trkpt lat="43.07815376334653" lon="11.417898309067368"><ele>400.6</ele><time>2026-03-29T11:11:04.999Z</time></trkpt><trkpt lat="43.078041217573066" lon="11.417886216463293"><ele>403.4</ele><time>2026-03-29T11:11:05.999Z</time></trkpt><trkpt lat="43.077960629521954" lon="11.417874551917018"><ele>406.2</ele><time>2026-03-29T11:11:06.999Z</time></trkpt><trkpt lat="43.07787428011237" lon="11.417879746610822"><ele>409.0</ele><time>2026-03-29T11:11:07.999Z</time></trkpt><trkpt lat="43.0777817335632" lon="11.417899104986455"><ele>409.0</ele><time>2026-03-29T11:11:08.999Z</time></trkpt><trkpt lat="43.07767665301316" lon="11.4179081473292"><ele>409.0</ele><time>2026-03-29T11:11:09.999Z</time></trkpt><trkpt lat="43.07759045427362" lon="11.417904568237674"><ele>409.0</ele><time>2026-03-29T11:11:10.999Z</time></trkpt><trkpt lat="43.07750447529576" lon="11.417878548715132"><ele>409.0</ele><time>2026-03-29T11:11:11.999Z</time></trkpt><trkpt lat="43.07741059457138" lon="11.417832343730673"><ele>409.0</ele><time>2026-03-29T11:11:12.999Z</time></trkpt><trkpt lat="43.07732256024553" lon="11.417764477735032"><ele>412.6</ele><time>2026-03-29T11:11:13.999Z</time></trkpt><trkpt lat="43.07723530061776" lon="11.417694889300588"><ele>416.2</ele><time>2026-03-29T11:11:14.999Z</time></trkpt><trkpt lat="43.07714520713254" lon="11.417626428323429"><ele>419.80000000000007</ele><time>2026-03-29T11:11:15.999Z</time></trkpt><trkpt lat="43.077060117491186" lon="11.41756425723194"><ele>423.40000000000003</ele><time>2026-03-29T11:11:16.999Z</time></trkpt><trkpt lat="43.07698197309609" lon="11.41748747804603"><ele>427.0</ele><time>2026-03-29T11:11:17.999Z</time></trkpt><trkpt lat="43.07692350954695" lon="11.417396913929267"><ele>427.0</ele><time>2026-03-29T11:11:18.999Z</time></trkpt><trkpt lat="43.07689165793317" lon="11.417301224358697"><ele>427.0</ele><time>2026-03-29T11:11:19.999Z</time></trkpt><trkpt lat="43.07687166656819" lon="11.417217845482794"><ele>427.0</ele><time>2026-03-29T11:11:20.999Z</time></trkpt><trkpt lat="43.076853904852655" lon="11.417119737789875"><ele>427.0</ele><time>2026-03-29T11:11:21.999Z</time></trkpt><trkpt lat="43.07681881006679" lon="11.417022971440115"><ele>427.0</ele><time>2026-03-29T11:11:22.999Z</time></trkpt><trkpt lat="43.076765683926105" lon="11.416944044328034"><ele>427.0</ele><time>2026-03-29T11:11:23.999Z</time></trkpt><trkpt lat="43.07670558775377" lon="11.4168941196816"><ele>427.0</ele><time>2026-03-29T11:11:24.999Z</time></trkpt><trkpt lat="43.07663604122507" lon="11.416861815034775"><ele>427.50000000000006</ele><time>2026-03-29T11:11:25.999Z</time></trkpt><trkpt lat="43.076557389577026" lon="11.416839113779547"><ele>428.0</ele><time>2026-03-29T11:11:26.999Z</time></trkpt><trkpt lat="43.07648078361687" lon="11.416813295843154"><ele>428.5</ele><time>2026-03-29T11:11:27.999Z</time></trkpt><trkpt lat="43.07639559214987" lon="11.416794185262"><ele>429.0</ele><time>2026-03-29T11:11:28.999Z</time></trkpt><trkpt lat="43.076293267240516" lon="11.416777944956843"><ele>429.50000000000006</ele><time>2026-03-29T11:11:29.999Z</time></trkpt><trkpt lat="43.07620397165016" lon="11.416756821930445"><ele>430.0</ele><time>2026-03-29T11:11:30.999Z</time></trkpt><trkpt lat="43.07613277358857" lon="11.416726928986577"><ele>430.00000000000006</ele><time>2026-03-29T11:11:31.999Z</time></trkpt><trkpt lat="43.07606219523466" lon="11.416686655232313"><ele>430.0</ele><time>2026-03-29T11:11:32.999Z</time></trkpt><trkpt lat="43.07599572088738" lon="11.416641530113367"><ele>430.0</ele><time>2026-03-29T11:11:33.999Z</time></trkpt><trkpt lat="43.07592712110254" lon="11.41659059494953"><ele>430.0</ele><time>2026-03-29T11:11:34.999Z</time></trkpt><trkpt lat="43.075856007616856" lon="11.416532344682992"><ele>430.00000000000006</ele><time>2026-03-29T11:11:35.999Z</time></trkpt><trkpt lat="43.07580008634121" lon="11.416480247747193"><ele>430.0</ele><time>2026-03-29T11:11:36.999Z</time></trkpt><trkpt lat="43.07574012329389" lon="11.416426327625777"><ele>430.8</ele><time>2026-03-29T11:11:37.999Z</time></trkpt><trkpt lat="43.075667042106154" lon="11.416376104628311"><ele>431.6</ele><time>2026-03-29T11:11:38.999Z</time></trkpt><trkpt lat="43.07559915722888" lon="11.416313106809813"><ele>432.4</ele><time>2026-03-29T11:11:39.999Z</time></trkpt><trkpt lat="43.0755155937256" lon="11.416265773043914"><ele>433.2</ele><time>2026-03-29T11:11:40.999Z</time></trkpt><trkpt lat="43.075421810533605" lon="11.416193480964758"><ele>434.0</ele><time>2026-03-29T11:11:41.999Z</time></trkpt><trkpt lat="43.075323710272556" lon="11.416106765731689"><ele>434.2</ele><time>2026-03-29T11:11:42.999Z</time></trkpt><trkpt lat="43.075221289087445" lon="11.416035513592792"><ele>434.4</ele><time>2026-03-29T11:11:43.999Z</time></trkpt><trkpt lat="43.075135270733895" lon="11.41597377661315"><ele>434.6</ele><time>2026-03-29T11:11:44.999Z</time></trkpt><trkpt lat="43.075065485397936" lon="11.415935827036861"><ele>434.8</ele><time>2026-03-29T11:11:45.999Z</time></trkpt><trkpt lat="43.074979905172576" lon="11.415889780023813"><ele>435.0</ele><time>2026-03-29T11:11:46.999Z</time></trkpt><trkpt lat="43.074890498973296" lon="11.415847355016465"><ele>435.8333333333333</ele><time>2026-03-29T11:11:47.999Z</time></trkpt><trkpt lat="43.07480178215084" lon="11.415811992150672"><ele>436.66666666666663</ele><time>2026-03-29T11:11:48.999Z</time></trkpt><trkpt lat="43.07473155435831" lon="11.415788254876261"><ele>437.5</ele><time>2026-03-29T11:11:49.999Z</time></trkpt><trkpt lat="43.074658366646524" lon="11.415768677498773"><ele>438.3333333333333</ele><time>2026-03-29T11:11:50.999Z</time></trkpt><trkpt lat="43.074579114697286" lon="11.415753303921614"><ele>439.16666666666663</ele><time>2026-03-29T11:11:51.999Z</time></trkpt><trkpt lat="43.074506048402945" lon="11.415735387896415"><ele>440.0</ele><time>2026-03-29T11:11:52.999Z</time></trkpt><trkpt lat="43.07441528122734" lon="11.415645590974497"><ele>439.99999999999994</ele><time>2026-03-29T11:11:54.999Z</time></trkpt><trkpt lat="43.07437866558593" lon="11.415539726741718"><ele>440.0</ele><time>2026-03-29T11:11:56.999Z</time></trkpt><trkpt lat="43.07437021993867" lon="11.415405781140203"><ele>440.0</ele><time>2026-03-29T11:11:58.999Z</time></trkpt><trkpt lat="43.07437120587977" lon="11.415313429622596"><ele>440.0</ele><time>2026-03-29T11:11:59.999Z</time></trkpt><trkpt lat="43.07437160885153" lon="11.415199098479"><ele>439.99999999999994</ele><time>2026-03-29T11:12:00.999Z</time></trkpt><trkpt lat="43.074359505705985" lon="11.415099189314223"><ele>440.0</ele><time>2026-03-29T11:12:01.999Z</time></trkpt><trkpt lat="43.07434325184722" lon="11.414971166236432"><ele>442.0</ele><time>2026-03-29T11:12:02.999Z</time></trkpt><trkpt lat="43.07431257582953" lon="11.41483528496574"><ele>444.0</ele><time>2026-03-29T11:12:04Z</time></trkpt><trkpt lat="43.074262471401646" lon="11.414690433217396"><ele>446.0</ele><time>2026-03-29T11:12:05Z</time></trkpt><trkpt lat="43.07421164129833" lon="11.414552244652619"><ele>448.0</ele><time>2026-03-29T11:12:06Z</time></trkpt><trkpt lat="43.074168630129016" lon="11.414462168568496"><ele>450.0</ele><time>2026-03-29T11:12:07Z</time></trkpt><trkpt lat="43.07411352149892" lon="11.414416651300053"><ele>453.6</ele><time>2026-03-29T11:12:08Z</time></trkpt><trkpt lat="43.07404291830629" lon="11.414391624921858"><ele>457.2</ele><time>2026-03-29T11:12:09Z</time></trkpt><trkpt lat="43.07395087065307" lon="11.414356461459532"><ele>460.79999999999995</ele><time>2026-03-29T11:12:10Z</time></trkpt><trkpt lat="43.073841797274454" lon="11.41434406507579"><ele>464.4</ele><time>2026-03-29T11:12:11Z</time></trkpt><trkpt lat="43.073727116417714" lon="11.414339863682907"><ele>468.0</ele><time>2026-03-29T11:12:12Z</time></trkpt><trkpt lat="43.073633192586676" lon="11.414356171552091"><ele>468.0</ele><time>2026-03-29T11:12:13Z</time></trkpt><trkpt lat="43.07356398672078" lon="11.414346524881697"><ele>468.0</ele><time>2026-03-29T11:12:14Z</time></trkpt><trkpt lat="43.07348313706633" lon="11.414326695458966"><ele>468.0</ele><time>2026-03-29T11:12:15Z</time></trkpt><trkpt lat="43.07339381777202" lon="11.41430274165055"><ele>468.0</ele><time>2026-03-29T11:12:16Z</time></trkpt><trkpt lat="43.0733112798314" lon="11.414275451203055"><ele>468.0</ele><time>2026-03-29T11:12:17Z</time></trkpt><trkpt lat="43.073201733474505" lon="11.414251058804629"><ele>468.0</ele><time>2026-03-29T11:12:18Z</time></trkpt><trkpt lat="43.073076657770336" lon="11.414241777234865"><ele>469.79999999999995</ele><time>2026-03-29T11:12:19Z</time></trkpt><trkpt lat="43.07294354726752" lon="11.41425074686698"><ele>471.59999999999997</ele><time>2026-03-29T11:12:20Z</time></trkpt><trkpt lat="43.072840382911025" lon="11.414274060542768"><ele>473.40000000000003</ele><time>2026-03-29T11:12:21Z</time></trkpt><trkpt lat="43.07275097801256" lon="11.414253697427137"><ele>475.20000000000005</ele><time>2026-03-29T11:12:22Z</time></trkpt><trkpt lat="43.07265594068455" lon="11.414241119430084"><ele>477.0</ele><time>2026-03-29T11:12:23Z</time></trkpt><trkpt lat="43.072546259992" lon="11.414215202776557"><ele>477.0</ele><time>2026-03-29T11:12:24Z</time></trkpt><trkpt lat="43.07244368880301" lon="11.414152467950919"><ele>477.00000000000006</ele><time>2026-03-29T11:12:25Z</time></trkpt><trkpt lat="43.07234183892045" lon="11.414098692354466"><ele>477.00000000000006</ele><time>2026-03-29T11:12:26Z</time></trkpt><trkpt lat="43.072246739724534" lon="11.414013884845893"><ele>477.0</ele><time>2026-03-29T11:12:27Z</time></trkpt><trkpt lat="43.07216401363741" lon="11.413953095819044"><ele>477.0</ele><time>2026-03-29T11:12:28Z</time></trkpt><trkpt lat="43.07203867790192" lon="11.413902016266235"><ele>476.5</ele><time>2026-03-29T11:12:29Z</time></trkpt><trkpt lat="43.071909807329845" lon="11.413855578849919"><ele>476.0</ele><time>2026-03-29T11:12:30Z</time></trkpt><trkpt lat="43.07179386128189" lon="11.41380144392723"><ele>475.5</ele><time>2026-03-29T11:12:31Z</time></trkpt><trkpt lat="43.07169586994187" lon="11.413725211274912"><ele>475.0</ele><time>2026-03-29T11:12:32Z</time></trkpt><trkpt lat="43.07161334425684" lon="11.413645520637136"><ele>477.2</ele><time>2026-03-29T11:12:33Z</time></trkpt><trkpt lat="43.0715324311109" lon="11.413577920234875"><ele>479.4</ele><time>2026-03-29T11:12:34Z</time></trkpt><trkpt lat="43.07143882954301" lon="11.41353408697565"><ele>481.6</ele><time>2026-03-29T11:12:35Z</time></trkpt><trkpt lat="43.07133038875294" lon="11.41351210828908"><ele>483.8</ele><time>2026-03-29T11:12:36Z</time></trkpt><trkpt lat="43.07121085932357" lon="11.41356601008292"><ele>486.0</ele><time>2026-03-29T11:12:37Z</time></trkpt><trkpt lat="43.07111300660669" lon="11.413605661243642"><ele>486.0</ele><time>2026-03-29T11:12:38Z</time></trkpt><trkpt lat="43.07103486986919" lon="11.41358653332713"><ele>486.0</ele><time>2026-03-29T11:12:39Z</time></trkpt><trkpt lat="43.070949976454074" lon="11.413566961414434"><ele>486.0</ele><time>2026-03-29T11:12:40Z</time></trkpt><trkpt lat="43.07086747560086" lon="11.413482032561422"><ele>486.0</ele><time>2026-03-29T11:12:41Z</time></trkpt><trkpt lat="43.070779119429005" lon="11.413367081835815"><ele>486.0</ele><time>2026-03-29T11:12:42Z</time></trkpt><trkpt lat="43.07068591419634" lon="11.413241719843455"><ele>487.8</ele><time>2026-03-29T11:12:43Z</time></trkpt><trkpt lat="43.070600942533765" lon="11.413135414342428"><ele>489.6</ele><time>2026-03-29T11:12:44Z</time></trkpt><trkpt lat="43.070531637944114" lon="11.413049936295213"><ele>491.4</ele><time>2026-03-29T11:12:45Z</time></trkpt><trkpt lat="43.0704618745088" lon="11.412973454091224"><ele>493.2</ele><time>2026-03-29T11:12:46Z</time></trkpt><trkpt lat="43.07040128617977" lon="11.412917441089286"><ele>495.0</ele><time>2026-03-29T11:12:47Z</time></trkpt><trkpt lat="43.070282652877204" lon="11.412860196605775"><ele>495.0</ele><time>2026-03-29T11:12:49Z</time></trkpt><trkpt lat="43.07020392489614" lon="11.41288118861773"><ele>495.0</ele><time>2026-03-29T11:12:50Z</time></trkpt><trkpt lat="43.070128134444055" lon="11.412962462052915"><ele>495.0</ele><time>2026-03-29T11:12:51Z</time></trkpt><trkpt lat="43.070093309089415" lon="11.41310812928474"><ele>495.0</ele><time>2026-03-29T11:12:52Z</time></trkpt><trkpt lat="43.07004416368633" lon="11.413241490575702"><ele>495.0</ele><time>2026-03-29T11:12:53Z</time></trkpt><trkpt lat="43.06999407128962" lon="11.413390477055477"><ele>495.0</ele><time>2026-03-29T11:12:54Z</time></trkpt><trkpt lat="43.06996553159532" lon="11.413543543162271"><ele>495.0</ele><time>2026-03-29T11:12:55Z</time></trkpt><trkpt lat="43.069970764382475" lon="11.41369154246992"><ele>495.0</ele><time>2026-03-29T11:12:56Z</time></trkpt><trkpt lat="43.06998268325564" lon="11.413860079888448"><ele>495.0</ele><time>2026-03-29T11:12:57Z</time></trkpt><trkpt lat="43.06999772173553" lon="11.414021988055609"><ele>494.8</ele><time>2026-03-29T11:12:58Z</time></trkpt><trkpt lat="43.07000497787561" lon="11.414183668118108"><ele>494.6</ele><time>2026-03-29T11:12:59Z</time></trkpt><trkpt lat="43.07000616701439" lon="11.414323988233651"><ele>494.4</ele><time>2026-03-29T11:13:00Z</time></trkpt><trkpt lat="43.069990381137536" lon="11.414449357048298"><ele>494.2</ele><time>2026-03-29T11:13:01Z</time></trkpt><trkpt lat="43.069960428143446" lon="11.414580564254225"><ele>494.0</ele><time>2026-03-29T11:13:02Z</time></trkpt><trkpt lat="43.06990578143374" lon="11.414691513642097"><ele>495.0</ele><time>2026-03-29T11:13:03Z</time></trkpt><trkpt lat="43.069855750515046" lon="11.414794372369967"><ele>496.0</ele><time>2026-03-29T11:13:04Z</time></trkpt><trkpt lat="43.06980415104023" lon="11.41489580275254"><ele>497.0</ele><time>2026-03-29T11:13:05Z</time></trkpt><trkpt lat="43.06972451372456" lon="11.414975390504873"><ele>498.0</ele><time>2026-03-29T11:13:06Z</time></trkpt><trkpt lat="43.069624778171956" lon="11.41503183030134"><ele>499.0</ele><time>2026-03-29T11:13:07Z</time></trkpt><trkpt lat="43.06952086825643" lon="11.415099852667785"><ele>499.0</ele><time>2026-03-29T11:13:08Z</time></trkpt><trkpt lat="43.069424215759696" lon="11.415174564418043"><ele>499.0</ele><time>2026-03-29T11:13:09Z</time></trkpt><trkpt lat="43.069320248904276" lon="11.415273258923214"><ele>499.0</ele><time>2026-03-29T11:13:09.999Z</time></trkpt><trkpt lat="43.06922946554377" lon="11.415380763948829"><ele>499.0</ele><time>2026-03-29T11:13:10.999Z</time></trkpt><trkpt lat="43.06914112920304" lon="11.415453484293453"><ele>496.25</ele><time>2026-03-29T11:13:11.999Z</time></trkpt><trkpt lat="43.069047873959626" lon="11.415500915281184"><ele>493.5</ele><time>2026-03-29T11:13:12.999Z</time></trkpt><trkpt lat="43.068941717387105" lon="11.415529117824704"><ele>490.75</ele><time>2026-03-29T11:13:13.999Z</time></trkpt><trkpt lat="43.06881789022762" lon="11.415544782080273"><ele>488.0</ele><time>2026-03-29T11:13:14.999Z</time></trkpt><trkpt lat="43.06869296342605" lon="11.415599299797629"><ele>488.0</ele><time>2026-03-29T11:13:15.999Z</time></trkpt><trkpt lat="43.06859245524933" lon="11.415692109113282"><ele>488.0</ele><time>2026-03-29T11:13:16.999Z</time></trkpt><trkpt lat="43.06848993545887" lon="11.415764146950558"><ele>488.0</ele><time>2026-03-29T11:13:17.999Z</time></trkpt><trkpt lat="43.06838022252897" lon="11.415884646915522"><ele>488.0</ele><time>2026-03-29T11:13:18.999Z</time></trkpt><trkpt lat="43.06827197830525" lon="11.416026191937437"><ele>487.75</ele><time>2026-03-29T11:13:19.999Z</time></trkpt><trkpt lat="43.06817322321608" lon="11.416130056847436"><ele>487.5</ele><time>2026-03-29T11:13:20.999Z</time></trkpt><trkpt lat="43.06807871030726" lon="11.416210792946925"><ele>487.25</ele><time>2026-03-29T11:13:21.999Z</time></trkpt><trkpt lat="43.06798513119925" lon="11.41627932241369"><ele>487.0</ele><time>2026-03-29T11:13:22.999Z</time></trkpt><trkpt lat="43.06788614470399" lon="11.416341029439986"><ele>489.0</ele><time>2026-03-29T11:13:23.999Z</time></trkpt><trkpt lat="43.06780497940576" lon="11.416423336729926"><ele>491.00000000000006</ele><time>2026-03-29T11:13:24.999Z</time></trkpt><trkpt lat="43.06773738988508" lon="11.416533605292338"><ele>493.00000000000006</ele><time>2026-03-29T11:13:25.999Z</time></trkpt><trkpt lat="43.06770064530418" lon="11.416686411327909"><ele>495.0</ele><time>2026-03-29T11:13:26.999Z</time></trkpt><trkpt lat="43.06766552105027" lon="11.416828006752253"><ele>497.0</ele><time>2026-03-29T11:13:27.999Z</time></trkpt><trkpt lat="43.06761143344899" lon="11.416959652937587"><ele>497.0</ele><time>2026-03-29T11:13:28.999Z</time></trkpt><trkpt lat="43.067535028241146" lon="11.417100214554102"><ele>497.0</ele><time>2026-03-29T11:13:29.999Z</time></trkpt><trkpt lat="43.067455995720344" lon="11.417240083050899"><ele>497.0</ele><time>2026-03-29T11:13:30.999Z</time></trkpt><trkpt lat="43.06738499960341" lon="11.41734838811173"><ele>497.0</ele><time>2026-03-29T11:13:31.999Z</time></trkpt><trkpt lat="43.067316137374135" lon="11.41743736920176"><ele>498.40000000000003</ele><time>2026-03-29T11:13:32.999Z</time></trkpt><trkpt lat="43.06723852806292" lon="11.417503864067642"><ele>499.80000000000007</ele><time>2026-03-29T11:13:33.999Z</time></trkpt><trkpt lat="43.06714915095862" lon="11.417546226822617"><ele>501.2</ele><time>2026-03-29T11:13:34.999Z</time></trkpt><trkpt lat="43.06704169747377" lon="11.417589864467356"><ele>502.6</ele><time>2026-03-29T11:13:35.999Z</time></trkpt><trkpt lat="43.06692776214135" lon="11.417621310905526"><ele>504.0</ele><time>2026-03-29T11:13:36.999Z</time></trkpt><trkpt lat="43.06683912872179" lon="11.417679445410974"><ele>504.0</ele><time>2026-03-29T11:13:37.999Z</time></trkpt><trkpt lat="43.06676034443398" lon="11.417772546810273"><ele>504.0</ele><time>2026-03-29T11:13:38.999Z</time></trkpt><trkpt lat="43.066702990437264" lon="11.417928841784308"><ele>504.0</ele><time>2026-03-29T11:13:39.999Z</time></trkpt><trkpt lat="43.066650052256335" lon="11.418094869669915"><ele>504.0</ele><time>2026-03-29T11:13:40.999Z</time></trkpt><trkpt lat="43.06660765434354" lon="11.418275741088992"><ele>500.0</ele><time>2026-03-29T11:13:41.999Z</time></trkpt><trkpt lat="43.06657513277084" lon="11.41844628974531"><ele>496.0</ele><time>2026-03-29T11:13:42.999Z</time></trkpt><trkpt lat="43.066551773198256" lon="11.418621775763718"><ele>492.0</ele><time>2026-03-29T11:13:43.999Z</time></trkpt><trkpt lat="43.066538682726154" lon="11.418804697604902"><ele>488.0</ele><time>2026-03-29T11:13:44.999Z</time></trkpt><trkpt lat="43.06653533018489" lon="11.418967793015986"><ele>487.4</ele><time>2026-03-29T11:13:45.999Z</time></trkpt><trkpt lat="43.066537804016406" lon="11.419141920858035"><ele>486.79999999999995</ele><time>2026-03-29T11:13:46.999Z</time></trkpt><trkpt lat="43.06654186837861" lon="11.41929097466663"><ele>486.2</ele><time>2026-03-29T11:13:47.999Z</time></trkpt><trkpt lat="43.066547740179715" lon="11.419422671924961"><ele>485.6</ele><time>2026-03-29T11:13:48.999Z</time></trkpt><trkpt lat="43.0665598527278" lon="11.419560382775083"><ele>485.0</ele><time>2026-03-29T11:13:49.999Z</time></trkpt><trkpt lat="43.0665601741825" lon="11.419693891946693"><ele>485.0</ele><time>2026-03-29T11:13:50.999Z</time></trkpt><trkpt lat="43.06655279166173" lon="11.419822203320862"><ele>485.0</ele><time>2026-03-29T11:13:51.999Z</time></trkpt><trkpt lat="43.06652550985483" lon="11.419941586216842"><ele>485.0</ele><time>2026-03-29T11:13:52.999Z</time></trkpt><trkpt lat="43.06648408644153" lon="11.420063356239478"><ele>485.0</ele><time>2026-03-29T11:13:53.999Z</time></trkpt><trkpt lat="43.06641804326267" lon="11.420172846731635"><ele>485.0</ele><time>2026-03-29T11:13:54.999Z</time></trkpt><trkpt lat="43.066347877649896" lon="11.420300611033666"><ele>485.0</ele><time>2026-03-29T11:13:55.999Z</time></trkpt><trkpt lat="43.06628099425489" lon="11.420449333330941"><ele>485.0</ele><time>2026-03-29T11:13:56.999Z</time></trkpt><trkpt lat="43.066214648637626" lon="11.420608447444643"><ele>485.0</ele><time>2026-03-29T11:13:57.999Z</time></trkpt><trkpt lat="43.06613464360939" lon="11.420769130722347"><ele>485.0</ele><time>2026-03-29T11:13:58.999Z</time></trkpt><trkpt lat="43.06604041606423" lon="11.420939885701305"><ele>485.25</ele><time>2026-03-29T11:13:59.999Z</time></trkpt><trkpt lat="43.06594674409341" lon="11.421098438285634"><ele>485.5</ele><time>2026-03-29T11:14:00.999Z</time></trkpt><trkpt lat="43.06586568387446" lon="11.42124132135752"><ele>485.75</ele><time>2026-03-29T11:14:01.999Z</time></trkpt><trkpt lat="43.065797122608025" lon="11.421382954439077"><ele>486.0</ele><time>2026-03-29T11:14:02.999Z</time></trkpt><trkpt lat="43.065729540773155" lon="11.421529007806619"><ele>486.0</ele><time>2026-03-29T11:14:03.999Z</time></trkpt><trkpt lat="43.065656758013226" lon="11.42167010976608"><ele>486.0</ele><time>2026-03-29T11:14:04.999Z</time></trkpt><trkpt lat="43.06558150348947" lon="11.42178196445484"><ele>486.0</ele><time>2026-03-29T11:14:05.999Z</time></trkpt><trkpt lat="43.06550416275607" lon="11.42185707355138"><ele>486.0</ele><time>2026-03-29T11:14:06.999Z</time></trkpt><trkpt lat="43.06540989289552" lon="11.421938300792206"><ele>486.0</ele><time>2026-03-29T11:14:07.999Z</time></trkpt><trkpt lat="43.06531039754122" lon="11.422038894159522"><ele>486.0</ele><time>2026-03-29T11:14:08.999Z</time></trkpt><trkpt lat="43.065215526333226" lon="11.422116454877088"><ele>486.0</ele><time>2026-03-29T11:14:10Z</time></trkpt><trkpt lat="43.065119416518264" lon="11.422176177954983"><ele>486.0</ele><time>2026-03-29T11:14:11Z</time></trkpt><trkpt lat="43.06502622256832" lon="11.422220355547182"><ele>486.0</ele><time>2026-03-29T11:14:12Z</time></trkpt><trkpt lat="43.06491117328166" lon="11.422224763917642"><ele>486.0</ele><time>2026-03-29T11:14:13Z</time></trkpt><trkpt lat="43.06479216215981" lon="11.422225912552742"><ele>486.0</ele><time>2026-03-29T11:14:14Z</time></trkpt><trkpt lat="43.06467376109935" lon="11.422198685076895"><ele>486.0</ele><time>2026-03-29T11:14:15Z</time></trkpt><trkpt lat="43.06456871426275" lon="11.422179549827476"><ele>486.0</ele><time>2026-03-29T11:14:16Z</time></trkpt><trkpt lat="43.06446638996901" lon="11.422148785803186"><ele>486.0</ele><time>2026-03-29T11:14:17Z</time></trkpt><trkpt lat="43.064365651800586" lon="11.422109620585259"><ele>486.0</ele><time>2026-03-29T11:14:18Z</time></trkpt><trkpt lat="43.06426965477404" lon="11.422085467423999"><ele>484.6</ele><time>2026-03-29T11:14:19Z</time></trkpt><trkpt lat="43.06417694836955" lon="11.42203561028384"><ele>483.20000000000005</ele><time>2026-03-29T11:14:20Z</time></trkpt><trkpt lat="43.06409085460887" lon="11.421980415323073"><ele>481.79999999999995</ele><time>2026-03-29T11:14:21Z</time></trkpt><trkpt lat="43.06401120147752" lon="11.421941980433928"><ele>480.4</ele><time>2026-03-29T11:14:22Z</time></trkpt><trkpt lat="43.063917905957815" lon="11.421922242784506"><ele>479.0</ele><time>2026-03-29T11:14:23Z</time></trkpt><trkpt lat="43.06381181285367" lon="11.421969768738707"><ele>477.6</ele><time>2026-03-29T11:14:24Z</time></trkpt><trkpt lat="43.06370851934832" lon="11.421965884669357"><ele>476.2</ele><time>2026-03-29T11:14:25Z</time></trkpt><trkpt lat="43.06362043726216" lon="11.421983807542679"><ele>474.80000000000007</ele><time>2026-03-29T11:14:26Z</time></trkpt><trkpt lat="43.06350648987385" lon="11.422068738429516"><ele>473.40000000000003</ele><time>2026-03-29T11:14:28Z</time></trkpt><trkpt lat="43.063462785166344" lon="11.422151463964951"><ele>472.0</ele><time>2026-03-29T11:14:29Z</time></trkpt><trkpt lat="43.06345636845675" lon="11.422297805746878"><ele>472.0</ele><time>2026-03-29T11:14:30Z</time></trkpt><trkpt lat="43.06347815012397" lon="11.422429361954133"><ele>472.00000000000006</ele><time>2026-03-29T11:14:31Z</time></trkpt><trkpt lat="43.06353899938067" lon="11.422560365546863"><ele>472.00000000000006</ele><time>2026-03-29T11:14:32Z</time></trkpt><trkpt lat="43.06355381213043" lon="11.422682208128945"><ele>472.0</ele><time>2026-03-29T11:14:33Z</time></trkpt><trkpt lat="43.06355324868781" lon="11.422791487717491"><ele>472.0</ele><time>2026-03-29T11:14:34Z</time></trkpt><trkpt lat="43.06352249342775" lon="11.422893324776568"><ele>471.50000000000006</ele><time>2026-03-29T11:14:35Z</time></trkpt><trkpt lat="43.063473901340615" lon="11.423001381966381"><ele>471.0</ele><time>2026-03-29T11:14:36Z</time></trkpt><trkpt lat="43.063422947319275" lon="11.423106550375893"><ele>470.5</ele><time>2026-03-29T11:14:37Z</time></trkpt><trkpt lat="43.063382277708754" lon="11.423208285802438"><ele>470.0</ele><time>2026-03-29T11:14:38Z</time></trkpt><trkpt lat="43.063346879176265" lon="11.423306594602499"><ele>469.50000000000006</ele><time>2026-03-29T11:14:39Z</time></trkpt><trkpt lat="43.063321323722874" lon="11.423407360429074"><ele>469.0</ele><time>2026-03-29T11:14:40Z</time></trkpt><trkpt lat="43.06331070970218" lon="11.423540624775502"><ele>469.00000000000006</ele><time>2026-03-29T11:14:41Z</time></trkpt><trkpt lat="43.06332746372724" lon="11.423659531110692"><ele>469.0</ele><time>2026-03-29T11:14:42Z</time></trkpt><trkpt lat="43.06335813420649" lon="11.423752941774207"><ele>469.0</ele><time>2026-03-29T11:14:43Z</time></trkpt><trkpt lat="43.06337576728268" lon="11.423847007095286"><ele>469.0</ele><time>2026-03-29T11:14:44Z</time></trkpt><trkpt lat="43.063392513935895" lon="11.423936342822083"><ele>469.00000000000006</ele><time>2026-03-29T11:14:45Z</time></trkpt><trkpt lat="43.063401787862894" lon="11.42402754598686"><ele>469.0</ele><time>2026-03-29T11:14:46Z</time></trkpt><trkpt lat="43.063357968253044" lon="11.424184218989264"><ele>468.2</ele><time>2026-03-29T11:14:48Z</time></trkpt><trkpt lat="43.063318693134086" lon="11.424290180019009"><ele>467.4</ele><time>2026-03-29T11:14:49Z</time></trkpt><trkpt lat="43.06327742676083" lon="11.424420938122829"><ele>466.6</ele><time>2026-03-29T11:14:50Z</time></trkpt><trkpt lat="43.06325299655015" lon="11.424579165558399"><ele>465.8</ele><time>2026-03-29T11:14:51Z</time></trkpt><trkpt lat="43.06323374534976" lon="11.42474115204567"><ele>465.0</ele><time>2026-03-29T11:14:52Z</time></trkpt><trkpt lat="43.063213653673266" lon="11.424876991662654"><ele>465.2</ele><time>2026-03-29T11:14:53Z</time></trkpt><trkpt lat="43.063189691969825" lon="11.424999395058496"><ele>465.4</ele><time>2026-03-29T11:14:54Z</time></trkpt><trkpt lat="43.06315382394174" lon="11.425102116134399"><ele>465.6</ele><time>2026-03-29T11:14:55Z</time></trkpt><trkpt lat="43.06307933989733" lon="11.42523887175826"><ele>465.8</ele><time>2026-03-29T11:14:56Z</time></trkpt><trkpt lat="43.062984503985824" lon="11.425387116362199"><ele>466.0</ele><time>2026-03-29T11:14:57Z</time></trkpt><trkpt lat="43.06290522830404" lon="11.425520913215598"><ele>466.0</ele><time>2026-03-29T11:14:58Z</time></trkpt><trkpt lat="43.06285684547016" lon="11.425651635506176"><ele>466.0</ele><time>2026-03-29T11:14:59Z</time></trkpt><trkpt lat="43.06282912345899" lon="11.425813021350963"><ele>466.0</ele><time>2026-03-29T11:15:00Z</time></trkpt><trkpt lat="43.062819542845354" lon="11.425990942853353"><ele>466.0</ele><time>2026-03-29T11:15:01Z</time></trkpt><trkpt lat="43.0628193486612" lon="11.426159052153965"><ele>466.0</ele><time>2026-03-29T11:15:02Z</time></trkpt><trkpt lat="43.06282988836782" lon="11.426291773368186"><ele>466.0</ele><time>2026-03-29T11:15:03Z</time></trkpt><trkpt lat="43.062839425207486" lon="11.426434913821552"><ele>466.0</ele><time>2026-03-29T11:15:04Z</time></trkpt><trkpt lat="43.062852943116006" lon="11.42660118962545"><ele>466.0</ele><time>2026-03-29T11:15:05Z</time></trkpt><trkpt lat="43.06288191093802" lon="11.426775368104924"><ele>466.00000000000006</ele><time>2026-03-29T11:15:06Z</time></trkpt><trkpt lat="43.062900198201945" lon="11.426913234009225"><ele>466.0</ele><time>2026-03-29T11:15:07Z</time></trkpt><trkpt lat="43.06290164866195" lon="11.42702307215506"><ele>466.0</ele><time>2026-03-29T11:15:08Z</time></trkpt><trkpt lat="43.06287186421775" lon="11.42710899753483"><ele>466.0</ele><time>2026-03-29T11:15:09Z</time></trkpt><trkpt lat="43.062824004301966" lon="11.427212165318643"><ele>466.00000000000006</ele><time>2026-03-29T11:15:10Z</time></trkpt><trkpt lat="43.062749718199086" lon="11.427304780823516"><ele>466.0</ele><time>2026-03-29T11:15:11Z</time></trkpt><trkpt lat="43.06265272199013" lon="11.427374245801733"><ele>466.0</ele><time>2026-03-29T11:15:12Z</time></trkpt><trkpt lat="43.06255242753923" lon="11.427426258938011"><ele>466.0</ele><time>2026-03-29T11:15:13Z</time></trkpt><trkpt lat="43.06247160316377" lon="11.42747898487259"><ele>466.0</ele><time>2026-03-29T11:15:14Z</time></trkpt><trkpt lat="43.06237812065637" lon="11.427522285497378"><ele>466.0</ele><time>2026-03-29T11:15:14.999Z</time></trkpt><trkpt lat="43.062268223274096" lon="11.427572032213998"><ele>466.0</ele><time>2026-03-29T11:15:15.999Z</time></trkpt><trkpt lat="43.06215253398959" lon="11.427584454201513"><ele>466.8</ele><time>2026-03-29T11:15:16.999Z</time></trkpt><trkpt lat="43.062059355318894" lon="11.427599352008556"><ele>467.6</ele><time>2026-03-29T11:15:17.999Z</time></trkpt><trkpt lat="43.061979701415204" lon="11.427601062943"><ele>468.4</ele><time>2026-03-29T11:15:18.999Z</time></trkpt><trkpt lat="43.06188872788909" lon="11.427603181082848"><ele>469.2</ele><time>2026-03-29T11:15:19.999Z</time></trkpt><trkpt lat="43.06178759562631" lon="11.427551814723591"><ele>470.0</ele><time>2026-03-29T11:15:20.999Z</time></trkpt><trkpt lat="43.061692571459936" lon="11.427482443703461"><ele>470.2</ele><time>2026-03-29T11:15:21.999Z</time></trkpt><trkpt lat="43.06161296650747" lon="11.427418773296262"><ele>470.4</ele><time>2026-03-29T11:15:22.999Z</time></trkpt><trkpt lat="43.061524708026575" lon="11.427374836126862"><ele>470.6</ele><time>2026-03-29T11:15:23.999Z</time></trkpt><trkpt lat="43.06141939523955" lon="11.427362126576003"><ele>470.8</ele><time>2026-03-29T11:15:24.999Z</time></trkpt><trkpt lat="43.06130184059577" lon="11.427357755060326"><ele>471.0</ele><time>2026-03-29T11:15:25.999Z</time></trkpt><trkpt lat="43.06117778323138" lon="11.427389737411048"><ele>471.0</ele><time>2026-03-29T11:15:26.999Z</time></trkpt><trkpt lat="43.06105768729561" lon="11.427432728631707"><ele>471.0</ele><time>2026-03-29T11:15:27.999Z</time></trkpt><trkpt lat="43.06096602513799" lon="11.427468009304842"><ele>471.0</ele><time>2026-03-29T11:15:28.999Z</time></trkpt><trkpt lat="43.06089760606936" lon="11.427480326684908"><ele>471.0</ele><time>2026-03-29T11:15:29.999Z</time></trkpt><trkpt lat="43.06081370513598" lon="11.427478031334005"><ele>471.0</ele><time>2026-03-29T11:15:30.999Z</time></trkpt><trkpt lat="43.060728758256246" lon="11.427415605231616"><ele>472.3333333333333</ele><time>2026-03-29T11:15:31.999Z</time></trkpt><trkpt lat="43.0606418572016" lon="11.427340372210004"><ele>473.66666666666663</ele><time>2026-03-29T11:15:32.999Z</time></trkpt><trkpt lat="43.06055690332857" lon="11.427279078798634"><ele>475.0</ele><time>2026-03-29T11:15:33.999Z</time></trkpt><trkpt lat="43.06050340868894" lon="11.427220634319662"><ele>476.3333333333333</ele><time>2026-03-29T11:15:34.999Z</time></trkpt><trkpt lat="43.060402695496975" lon="11.427193825769288"><ele>477.66666666666663</ele><time>2026-03-29T11:15:36.999Z</time></trkpt><trkpt lat="43.060342360370505" lon="11.427231745102372"><ele>479.0</ele><time>2026-03-29T11:15:37.999Z</time></trkpt><trkpt lat="43.0602890589189" lon="11.42731728207101"><ele>478.99999999999994</ele><time>2026-03-29T11:15:38.999Z</time></trkpt><trkpt lat="43.060288319581325" lon="11.42744971987555"><ele>479.0</ele><time>2026-03-29T11:15:39.999Z</time></trkpt><trkpt lat="43.060280208514975" lon="11.427553572417748"><ele>479.0</ele><time>2026-03-29T11:15:40.999Z</time></trkpt><trkpt lat="43.060257327626715" lon="11.427662800242045"><ele>479.0</ele><time>2026-03-29T11:15:41.999Z</time></trkpt><trkpt lat="43.0601651486396" lon="11.427747494189914"><ele>478.99999999999994</ele><time>2026-03-29T11:15:43.999Z</time></trkpt><trkpt lat="43.060097586876175" lon="11.427791670427718"><ele>479.0</ele><time>2026-03-29T11:15:44.999Z</time></trkpt><trkpt lat="43.060022044586034" lon="11.42783454071764"><ele>479.8333333333333</ele><time>2026-03-29T11:15:45.999Z</time></trkpt><trkpt lat="43.05994244933701" lon="11.427870073040001"><ele>480.66666666666663</ele><time>2026-03-29T11:15:46.999Z</time></trkpt><trkpt lat="43.05988180809888" lon="11.427894500492316"><ele>481.5</ele><time>2026-03-29T11:15:47.999Z</time></trkpt><trkpt lat="43.05976190633275" lon="11.427866542296506"><ele>482.33333333333337</ele><time>2026-03-29T11:15:49.999Z</time></trkpt><trkpt lat="43.059720305188435" lon="11.4277647428567"><ele>483.1666666666667</ele><time>2026-03-29T11:15:50.999Z</time></trkpt><trkpt lat="43.05965453227672" lon="11.427697006819663"><ele>484.0</ele><time>2026-03-29T11:15:51.999Z</time></trkpt><trkpt lat="43.059597836153884" lon="11.427602732095206"><ele>484.00000000000006</ele><time>2026-03-29T11:15:52.999Z</time></trkpt><trkpt lat="43.05953429084444" lon="11.427501501082647"><ele>484.0</ele><time>2026-03-29T11:15:53.999Z</time></trkpt><trkpt lat="43.05946617553441" lon="11.427408079679859"><ele>484.0</ele><time>2026-03-29T11:15:54.999Z</time></trkpt><trkpt lat="43.05939843645121" lon="11.42731732278838"><ele>484.0</ele><time>2026-03-29T11:15:55.999Z</time></trkpt><trkpt lat="43.05934824896131" lon="11.427245606895564"><ele>484.00000000000006</ele><time>2026-03-29T11:15:56.999Z</time></trkpt><trkpt lat="43.05928057889004" lon="11.427198956752042"><ele>484.0</ele><time>2026-03-29T11:15:57.999Z</time></trkpt><trkpt lat="43.059185286686535" lon="11.427195399302681"><ele>486.50000000000006</ele><time>2026-03-29T11:15:58.999Z</time></trkpt><trkpt lat="43.05909241672084" lon="11.427254999947285"><ele>489.0</ele><time>2026-03-29T11:15:59.999Z</time></trkpt><trkpt lat="43.059033882799106" lon="11.427329009676425"><ele>491.5</ele><time>2026-03-29T11:16:00.999Z</time></trkpt><trkpt lat="43.058999042882085" lon="11.427415067929191"><ele>494.0</ele><time>2026-03-29T11:16:01.999Z</time></trkpt><trkpt lat="43.05898982345415" lon="11.427520006938629"><ele>496.50000000000006</ele><time>2026-03-29T11:16:02.999Z</time></trkpt><trkpt lat="43.05904072793975" lon="11.427642377838431"><ele>499.0</ele><time>2026-03-29T11:16:03.999Z</time></trkpt><trkpt lat="43.059081268939465" lon="11.427781190380225"><ele>497.4</ele><time>2026-03-29T11:16:04.999Z</time></trkpt><trkpt lat="43.05913533004641" lon="11.427927554848685"><ele>495.79999999999995</ele><time>2026-03-29T11:16:05.999Z</time></trkpt><trkpt lat="43.05916658691767" lon="11.428045968484374"><ele>494.20000000000005</ele><time>2026-03-29T11:16:06.999Z</time></trkpt><trkpt lat="43.05918544253204" lon="11.428146868021505"><ele>492.6</ele><time>2026-03-29T11:16:07.999Z</time></trkpt><trkpt lat="43.05917858718919" lon="11.428281527283033"><ele>491.0</ele><time>2026-03-29T11:16:09.999Z</time></trkpt><trkpt lat="43.05908051343718" lon="11.428386071948877"><ele>491.0</ele><time>2026-03-29T11:16:11.999Z</time></trkpt><trkpt lat="43.058988509443786" lon="11.428360469756665"><ele>491.0</ele><time>2026-03-29T11:16:12.999Z</time></trkpt><trkpt lat="43.058915937131786" lon="11.428417782194058"><ele>491.0</ele><time>2026-03-29T11:16:13.999Z</time></trkpt><trkpt lat="43.05884034487675" lon="11.428478604537649"><ele>491.0</ele><time>2026-03-29T11:16:14.999Z</time></trkpt><trkpt lat="43.05875609310819" lon="11.428545789363753"><ele>491.0</ele><time>2026-03-29T11:16:16Z</time></trkpt><trkpt lat="43.05868209933111" lon="11.428652445310787"><ele>491.0</ele><time>2026-03-29T11:16:17Z</time></trkpt><trkpt lat="43.05861246328217" lon="11.428782990342077"><ele>491.0</ele><time>2026-03-29T11:16:18Z</time></trkpt><trkpt lat="43.05855084595674" lon="11.428934319369674"><ele>491.0</ele><time>2026-03-29T11:16:19Z</time></trkpt><trkpt lat="43.05850476561508" lon="11.429078475503841"><ele>491.0</ele><time>2026-03-29T11:16:20Z</time></trkpt><trkpt lat="43.058459209578224" lon="11.429228632817335"><ele>489.75</ele><time>2026-03-29T11:16:21Z</time></trkpt><trkpt lat="43.05840806904223" lon="11.429402445724385"><ele>488.5</ele><time>2026-03-29T11:16:22Z</time></trkpt><trkpt lat="43.05835818358063" lon="11.429589041470951"><ele>487.25</ele><time>2026-03-29T11:16:23Z</time></trkpt><trkpt lat="43.05831477438405" lon="11.429783254856892"><ele>486.0</ele><time>2026-03-29T11:16:24Z</time></trkpt><trkpt lat="43.058286119846095" lon="11.429952490387237"><ele>485.8</ele><time>2026-03-29T11:16:25Z</time></trkpt><trkpt lat="43.05826936708176" lon="11.430078031072416"><ele>485.6</ele><time>2026-03-29T11:16:26Z</time></trkpt><trkpt lat="43.05826255718715" lon="11.430200052848525"><ele>485.4</ele><time>2026-03-29T11:16:27Z</time></trkpt><trkpt lat="43.058272208727416" lon="11.430336198687586"><ele>485.2</ele><time>2026-03-29T11:16:28Z</time></trkpt><trkpt lat="43.05828266112105" lon="11.430474049336409"><ele>485.0</ele><time>2026-03-29T11:16:29Z</time></trkpt><trkpt lat="43.05829270634755" lon="11.43060050235415"><ele>485.0</ele><time>2026-03-29T11:16:30Z</time></trkpt><trkpt lat="43.0583111110309" lon="11.43071109301714"><ele>485.0</ele><time>2026-03-29T11:16:31Z</time></trkpt><trkpt lat="43.058287587527545" lon="11.430820203076017"><ele>485.0</ele><time>2026-03-29T11:16:32Z</time></trkpt><trkpt lat="43.058236761228436" lon="11.430922536054227"><ele>485.0</ele><time>2026-03-29T11:16:33Z</time></trkpt><trkpt lat="43.058136790523946" lon="11.430973051129588"><ele>485.0</ele><time>2026-03-29T11:16:34Z</time></trkpt><trkpt lat="43.05803451048864" lon="11.431040067696728"><ele>485.75</ele><time>2026-03-29T11:16:35Z</time></trkpt><trkpt lat="43.05791605647358" lon="11.43111663908338"><ele>486.5</ele><time>2026-03-29T11:16:36Z</time></trkpt><trkpt lat="43.05778962019949" lon="11.431193859441544"><ele>487.25</ele><time>2026-03-29T11:16:37Z</time></trkpt><trkpt lat="43.0576815859968" lon="11.43125068829628"><ele>488.0</ele><time>2026-03-29T11:16:38Z</time></trkpt><trkpt lat="43.05758753011978" lon="11.431315064016216"><ele>488.0</ele><time>2026-03-29T11:16:39Z</time></trkpt><trkpt lat="43.05749737593353" lon="11.431415125639678"><ele>487.99999999999994</ele><time>2026-03-29T11:16:40Z</time></trkpt><trkpt lat="43.05741251111114" lon="11.431534218154889"><ele>487.99999999999994</ele><time>2026-03-29T11:16:41Z</time></trkpt><trkpt lat="43.05732540165203" lon="11.43163561355266"><ele>488.0</ele><time>2026-03-29T11:16:42Z</time></trkpt><trkpt lat="43.05726118925454" lon="11.431719865477252"><ele>488.0</ele><time>2026-03-29T11:16:43Z</time></trkpt><trkpt lat="43.05719849703335" lon="11.43181544261089"><ele>488.16666666666663</ele><time>2026-03-29T11:16:44Z</time></trkpt><trkpt lat="43.057141467310146" lon="11.431917458640996"><ele>488.3333333333333</ele><time>2026-03-29T11:16:45Z</time></trkpt><trkpt lat="43.05709939375077" lon="11.431995687378251"><ele>488.5</ele><time>2026-03-29T11:16:46Z</time></trkpt><trkpt lat="43.05704657113088" lon="11.432100659115148"><ele>488.66666666666663</ele><time>2026-03-29T11:16:48Z</time></trkpt><trkpt lat="43.057003623424656" lon="11.432185458452448"><ele>488.8333333333333</ele><time>2026-03-29T11:17:25.999Z</time></trkpt><trkpt lat="43.05693786369595" lon="11.432235736591513"><ele>489.0</ele><time>2026-03-29T11:17:29.999Z</time></trkpt><trkpt lat="43.05689597786443" lon="11.432317384785923"><ele>489.6</ele><time>2026-03-29T11:17:32.999Z</time></trkpt><trkpt lat="43.05676044807127" lon="11.432291176906388"><ele>490.2</ele><time>2026-03-29T11:17:36.999Z</time></trkpt><trkpt lat="43.056673672502235" lon="11.432216784177651"><ele>490.80000000000007</ele><time>2026-03-29T11:17:38.999Z</time></trkpt><trkpt lat="43.05658812784044" lon="11.432136996364797"><ele>491.40000000000003</ele><time>2026-03-29T11:17:40.999Z</time></trkpt><trkpt lat="43.05650145130826" lon="11.432069756318729"><ele>492.0</ele><time>2026-03-29T11:17:42.999Z</time></trkpt><trkpt lat="43.056397320046216" lon="11.432043963339895"><ele>490.7142857142858</ele><time>2026-03-29T11:17:44.999Z</time></trkpt><trkpt lat="43.05629787072721" lon="11.431983374739598"><ele>489.42857142857144</ele><time>2026-03-29T11:17:46.999Z</time></trkpt><trkpt lat="43.05623670616732" lon="11.43195337217533"><ele>488.14285714285717</ele><time>2026-03-29T11:17:47.999Z</time></trkpt><trkpt lat="43.05618014890386" lon="11.43190864231708"><ele>486.8571428571429</ele><time>2026-03-29T11:17:48.999Z</time></trkpt><trkpt lat="43.05611653219296" lon="11.43187887351667"><ele>485.57142857142856</ele><time>2026-03-29T11:17:49.999Z</time></trkpt><trkpt lat="43.0560483090305" lon="11.431847363305547"><ele>484.2857142857143</ele><time>2026-03-29T11:17:50.999Z</time></trkpt><trkpt lat="43.05597991089553" lon="11.431822114648007"><ele>483.0</ele><time>2026-03-29T11:17:51.999Z</time></trkpt><trkpt lat="43.055914460612286" lon="11.43180205379463"><ele>483.0</ele><time>2026-03-29T11:17:52.999Z</time></trkpt><trkpt lat="43.055848023037036" lon="11.431795381132535"><ele>483.0</ele><time>2026-03-29T11:17:53.999Z</time></trkpt><trkpt lat="43.055780377272924" lon="11.431791032936376"><ele>483.0</ele><time>2026-03-29T11:17:54.999Z</time></trkpt><trkpt lat="43.05568927159416" lon="11.431777804896976"><ele>483.0</ele><time>2026-03-29T11:17:55.999Z</time></trkpt><trkpt lat="43.05560240975515" lon="11.431761967079458"><ele>483.0</ele><time>2026-03-29T11:17:56.999Z</time></trkpt><trkpt lat="43.055539044722316" lon="11.431736710941353"><ele>483.0</ele><time>2026-03-29T11:17:57.999Z</time></trkpt><trkpt lat="43.05547766513491" lon="11.431705907026808"><ele>483.0</ele><time>2026-03-29T11:17:58.999Z</time></trkpt><trkpt lat="43.05535407706353" lon="11.431607682493908"><ele>482.0</ele><time>2026-03-29T11:18:00.999Z</time></trkpt><trkpt lat="43.055277255023235" lon="11.431507845359569"><ele>480.99999999999994</ele><time>2026-03-29T11:18:01.999Z</time></trkpt><trkpt lat="43.055199749631846" lon="11.431408270788523"><ele>479.99999999999994</ele><time>2026-03-29T11:18:02.999Z</time></trkpt><trkpt lat="43.055145449562644" lon="11.431313779480591"><ele>479.0</ele><time>2026-03-29T11:18:03.999Z</time></trkpt><trkpt lat="43.055061853914694" lon="11.431261701039952"><ele>478.0</ele><time>2026-03-29T11:18:04.999Z</time></trkpt><trkpt lat="43.054987335548596" lon="11.431178985650462"><ele>476.00000000000006</ele><time>2026-03-29T11:18:05.999Z</time></trkpt><trkpt lat="43.05492289820237" lon="11.43109823791478"><ele>474.0</ele><time>2026-03-29T11:18:06.999Z</time></trkpt><trkpt lat="43.054871737613425" lon="11.431037184210687"><ele>472.0</ele><time>2026-03-29T11:18:07.999Z</time></trkpt><trkpt lat="43.054827836827705" lon="11.430966895139436"><ele>470.0</ele><time>2026-03-29T11:18:08.999Z</time></trkpt><trkpt lat="43.05473632046741" lon="11.430898951831521"><ele>468.00000000000006</ele><time>2026-03-29T11:18:10.999Z</time></trkpt><trkpt lat="43.05464632937312" lon="11.43086939696294"><ele>466.0</ele><time>2026-03-29T11:18:12.999Z</time></trkpt><trkpt lat="43.054581198832345" lon="11.430865463402355"><ele>466.00000000000006</ele><time>2026-03-29T11:18:14.999Z</time></trkpt><trkpt lat="43.05451502548403" lon="11.430853826943855"><ele>466.0</ele><time>2026-03-29T11:18:17.999Z</time></trkpt><trkpt lat="43.054576011375474" lon="11.43088080393526"><ele>466.0</ele><time>2026-03-29T11:19:11Z</time></trkpt><trkpt lat="43.05465056346511" lon="11.430871065629763"><ele>466.0</ele><time>2026-03-29T11:19:26Z</time></trkpt><trkpt lat="43.05477553455978" lon="11.43089161600082"><ele>466.00000000000006</ele><time>2026-03-29T11:19:27.999Z</time></trkpt><trkpt lat="43.0548383116889" lon="11.430903705636025"><ele>466.0</ele><time>2026-03-29T11:19:28.999Z</time></trkpt><trkpt lat="43.05488424348329" lon="11.431040213908481"><ele>466.00000000000006</ele><time>2026-03-29T11:19:29.999Z</time></trkpt><trkpt lat="43.05493783113004" lon="11.431102245505912"><ele>466.0</ele><time>2026-03-29T11:19:30.999Z</time></trkpt><trkpt lat="43.05499602985438" lon="11.431169392093416"><ele>466.0</ele><time>2026-03-29T11:19:31.999Z</time></trkpt><trkpt lat="43.05505334288264" lon="11.431245546441374"><ele>466.0</ele><time>2026-03-29T11:19:32.999Z</time></trkpt><trkpt lat="43.055124257628314" lon="11.431330863658546"><ele>466.00000000000006</ele><time>2026-03-29T11:19:33.999Z</time></trkpt><trkpt lat="43.05518727173846" lon="11.431454594823304"><ele>466.0</ele><time>2026-03-29T11:19:34.999Z</time></trkpt><trkpt lat="43.05526071576236" lon="11.431549413657823"><ele>468.4</ele><time>2026-03-29T11:19:35.999Z</time></trkpt><trkpt lat="43.055314112576056" lon="11.431612493591414"><ele>470.8</ele><time>2026-03-29T11:19:36.999Z</time></trkpt><trkpt lat="43.05540314706981" lon="11.431708463383483"><ele>473.19999999999993</ele><time>2026-03-29T11:19:38.999Z</time></trkpt><trkpt lat="43.055528667591176" lon="11.431775143608293"><ele>475.59999999999997</ele><time>2026-03-29T11:19:40.999Z</time></trkpt><trkpt lat="43.05561135205034" lon="11.431786554055153"><ele>478.0</ele><time>2026-03-29T11:19:41.999Z</time></trkpt><trkpt lat="43.055711778095784" lon="11.431817433264687"><ele>478.83333333333337</ele><time>2026-03-29T11:19:42.999Z</time></trkpt><trkpt lat="43.05579764108747" lon="11.431810348365499"><ele>479.6666666666667</ele><time>2026-03-29T11:19:43.999Z</time></trkpt><trkpt lat="43.05588196748181" lon="11.431830766721676"><ele>480.5</ele><time>2026-03-29T11:19:44.999Z</time></trkpt><trkpt lat="43.05597615025704" lon="11.431869630892944"><ele>481.33333333333337</ele><time>2026-03-29T11:19:45.999Z</time></trkpt><trkpt lat="43.05605209427391" lon="11.431897544713069"><ele>482.1666666666667</ele><time>2026-03-29T11:19:46.999Z</time></trkpt><trkpt lat="43.05611684184081" lon="11.431926829649685"><ele>483.0</ele><time>2026-03-29T11:19:47.999Z</time></trkpt><trkpt lat="43.05618245690628" lon="11.431958200948879"><ele>483.0</ele><time>2026-03-29T11:19:48.999Z</time></trkpt><trkpt lat="43.056266152225874" lon="11.431977083640561"><ele>483.0</ele><time>2026-03-29T11:19:49.999Z</time></trkpt><trkpt lat="43.056336557940845" lon="11.432014238394729"><ele>483.0</ele><time>2026-03-29T11:19:50.999Z</time></trkpt><trkpt lat="43.0564071683692" lon="11.432057646134888"><ele>483.0</ele><time>2026-03-29T11:19:51.999Z</time></trkpt><trkpt lat="43.0564943996325" lon="11.432129777786612"><ele>483.0</ele><time>2026-03-29T11:19:52.999Z</time></trkpt><trkpt lat="43.0565932103754" lon="11.432169448043629"><ele>483.0</ele><time>2026-03-29T11:19:53.999Z</time></trkpt><trkpt lat="43.05666878254251" lon="11.432240333666527"><ele>484.79999999999995</ele><time>2026-03-29T11:19:54.999Z</time></trkpt><trkpt lat="43.056730940577864" lon="11.432295523463702"><ele>486.59999999999997</ele><time>2026-03-29T11:19:55.999Z</time></trkpt><trkpt lat="43.0568013358465" lon="11.432416256582092"><ele>488.40000000000003</ele><time>2026-03-29T11:19:57.999Z</time></trkpt><trkpt lat="43.05681481092493" lon="11.432515250961309"><ele>490.20000000000005</ele><time>2026-03-29T11:19:59.999Z</time></trkpt><trkpt lat="43.05683903047656" lon="11.432598604549534"><ele>492.0</ele><time>2026-03-29T11:20:02.999Z</time></trkpt><trkpt lat="43.056725478959535" lon="11.432676808666512"><ele>492.0</ele><time>2026-03-29T11:20:04.999Z</time></trkpt><trkpt lat="43.05668063466218" lon="11.432746358402277"><ele>492.0</ele><time>2026-03-29T11:20:05.999Z</time></trkpt><trkpt lat="43.05662881342143" lon="11.432828094112306"><ele>492.0</ele><time>2026-03-29T11:20:06.999Z</time></trkpt><trkpt lat="43.05654834274805" lon="11.432950882770289"><ele>492.0</ele><time>2026-03-29T11:20:08.999Z</time></trkpt><trkpt lat="43.05646453289265" lon="11.433058877554771"><ele>492.0</ele><time>2026-03-29T11:20:10.999Z</time></trkpt><trkpt lat="43.056412668394685" lon="11.433109692270586"><ele>492.0</ele><time>2026-03-29T11:20:12.999Z</time></trkpt><trkpt lat="43.05631316770342" lon="11.433182951996223"><ele>492.8333333333333</ele><time>2026-03-29T11:20:23.999Z</time></trkpt><trkpt lat="43.056212341247324" lon="11.433239160376091"><ele>493.66666666666663</ele><time>2026-03-29T11:20:25.999Z</time></trkpt><trkpt lat="43.056158502762024" lon="11.43328824617693"><ele>494.5</ele><time>2026-03-29T11:20:26.999Z</time></trkpt><trkpt lat="43.05609036187551" lon="11.433315118162033"><ele>495.3333333333333</ele><time>2026-03-29T11:20:28Z</time></trkpt><trkpt lat="43.05601950881856" lon="11.433340105419566"><ele>496.16666666666663</ele><time>2026-03-29T11:20:29Z</time></trkpt><trkpt lat="43.05590743874139" lon="11.433377734288502"><ele>497.0</ele><time>2026-03-29T11:20:31Z</time></trkpt><trkpt lat="43.055816516901" lon="11.43339750978816"><ele>496.8333333333333</ele><time>2026-03-29T11:20:33Z</time></trkpt><trkpt lat="43.05575474964244" lon="11.43342173265028"><ele>496.66666666666663</ele><time>2026-03-29T11:20:36Z</time></trkpt><trkpt lat="43.055687397027036" lon="11.433424205374724"><ele>496.5</ele><time>2026-03-29T11:20:40Z</time></trkpt><trkpt lat="43.05562453787247" lon="11.433457633888898"><ele>496.33333333333337</ele><time>2026-03-29T11:20:41Z</time></trkpt><trkpt lat="43.05553216868088" lon="11.433519666638512"><ele>496.1666666666667</ele><time>2026-03-29T11:20:43Z</time></trkpt><trkpt lat="43.055431846056216" lon="11.433590523456473"><ele>496.0</ele><time>2026-03-29T11:20:45Z</time></trkpt><trkpt lat="43.05533541652618" lon="11.433665595372785"><ele>496.00000000000006</ele><time>2026-03-29T11:20:47Z</time></trkpt><trkpt lat="43.05521554620753" lon="11.433696672010354"><ele>496.0</ele><time>2026-03-29T11:20:49Z</time></trkpt><trkpt lat="43.05515425964217" lon="11.433716963700677"><ele>496.0</ele><time>2026-03-29T11:20:50Z</time></trkpt><trkpt lat="43.055084475930194" lon="11.433716526089087"><ele>496.0</ele><time>2026-03-29T11:20:51Z</time></trkpt><trkpt lat="43.05500749333902" lon="11.433748304681327"><ele>496.00000000000006</ele><time>2026-03-29T11:20:52Z</time></trkpt><trkpt lat="43.054923480088625" lon="11.433786684291434"><ele>496.0</ele><time>2026-03-29T11:20:53Z</time></trkpt><trkpt lat="43.05484259993372" lon="11.433831198367738"><ele>494.33333333333337</ele><time>2026-03-29T11:20:54Z</time></trkpt><trkpt lat="43.05475746758454" lon="11.433890658579022"><ele>492.6666666666667</ele><time>2026-03-29T11:20:55Z</time></trkpt><trkpt lat="43.05467955142129" lon="11.433944840660963"><ele>491.0</ele><time>2026-03-29T11:20:56Z</time></trkpt><trkpt lat="43.05460456383228" lon="11.433991229790427"><ele>489.33333333333337</ele><time>2026-03-29T11:20:57Z</time></trkpt><trkpt lat="43.0545326061473" lon="11.434033088110416"><ele>487.6666666666667</ele><time>2026-03-29T11:20:58Z</time></trkpt><trkpt lat="43.054443619647344" lon="11.43407918498983"><ele>486.0</ele><time>2026-03-29T11:20:59Z</time></trkpt><trkpt lat="43.05435700602498" lon="11.43412273055321"><ele>486.0</ele><time>2026-03-29T11:21:00Z</time></trkpt><trkpt lat="43.05428098855515" lon="11.434159825527159"><ele>486.0</ele><time>2026-03-29T11:21:01Z</time></trkpt><trkpt lat="43.05420781031917" lon="11.434194859210885"><ele>486.0</ele><time>2026-03-29T11:21:02Z</time></trkpt><trkpt lat="43.05413692743197" lon="11.434223304582009"><ele>486.0</ele><time>2026-03-29T11:21:03Z</time></trkpt><trkpt lat="43.054054910995426" lon="11.434271983696373"><ele>486.0</ele><time>2026-03-29T11:21:04Z</time></trkpt><trkpt lat="43.05397068076789" lon="11.43428646530677"><ele>486.0</ele><time>2026-03-29T11:21:05Z</time></trkpt><trkpt lat="43.05389477751506" lon="11.434307765961721"><ele>485.6666666666667</ele><time>2026-03-29T11:21:06Z</time></trkpt><trkpt lat="43.05382357704359" lon="11.434326689730302"><ele>485.33333333333337</ele><time>2026-03-29T11:21:07Z</time></trkpt><trkpt lat="43.05374989643967" lon="11.43433100183129"><ele>485.0</ele><time>2026-03-29T11:21:08Z</time></trkpt><trkpt lat="43.05367467019035" lon="11.434371396442458"><ele>484.6666666666667</ele><time>2026-03-29T11:21:09Z</time></trkpt><trkpt lat="43.05359985677198" lon="11.434425768449497"><ele>484.33333333333337</ele><time>2026-03-29T11:21:10Z</time></trkpt><trkpt lat="43.05352348355249" lon="11.434504403260824"><ele>484.0</ele><time>2026-03-29T11:21:11Z</time></trkpt><trkpt lat="43.05345138653032" lon="11.434588553097118"><ele>482.6</ele><time>2026-03-29T11:21:12Z</time></trkpt><trkpt lat="43.05337418548003" lon="11.434705716155776"><ele>481.2</ele><time>2026-03-29T11:21:13Z</time></trkpt><trkpt lat="43.053318743349266" lon="11.434825504524166"><ele>479.80000000000007</ele><time>2026-03-29T11:21:14Z</time></trkpt><trkpt lat="43.05327327440463" lon="11.434946767534392"><ele>478.40000000000003</ele><time>2026-03-29T11:21:15Z</time></trkpt><trkpt lat="43.05323618846702" lon="11.435054147311554"><ele>477.0</ele><time>2026-03-29T11:21:16Z</time></trkpt><trkpt lat="43.05319762848953" lon="11.435173316987791"><ele>477.0</ele><time>2026-03-29T11:21:17Z</time></trkpt><trkpt lat="43.05315567104996" lon="11.4353070965389"><ele>477.0</ele><time>2026-03-29T11:21:18Z</time></trkpt><trkpt lat="43.05311440801807" lon="11.435468099578655"><ele>477.0</ele><time>2026-03-29T11:21:19Z</time></trkpt><trkpt lat="43.05308777450073" lon="11.435632688447685"><ele>477.0</ele><time>2026-03-29T11:21:20Z</time></trkpt><trkpt lat="43.05307327900793" lon="11.435772441326717"><ele>475.20000000000005</ele><time>2026-03-29T11:21:21Z</time></trkpt><trkpt lat="43.053056319111846" lon="11.43591763716887"><ele>473.40000000000003</ele><time>2026-03-29T11:21:22Z</time></trkpt><trkpt lat="43.05303839138093" lon="11.43605535853869"><ele>471.59999999999997</ele><time>2026-03-29T11:21:23Z</time></trkpt><trkpt lat="43.05302326689811" lon="11.436171545553105"><ele>469.79999999999995</ele><time>2026-03-29T11:21:24Z</time></trkpt><trkpt lat="43.053005591462465" lon="11.436276054648141"><ele>468.0</ele><time>2026-03-29T11:21:25Z</time></trkpt><trkpt lat="43.05297666911802" lon="11.436381466709248"><ele>468.0</ele><time>2026-03-29T11:21:26Z</time></trkpt><trkpt lat="43.052926699920825" lon="11.436482991965628"><ele>467.99999999999994</ele><time>2026-03-29T11:21:27Z</time></trkpt><trkpt lat="43.05286066260039" lon="11.436579403845203"><ele>467.99999999999994</ele><time>2026-03-29T11:21:28Z</time></trkpt><trkpt lat="43.052782778117006" lon="11.436667341319874"><ele>468.0</ele><time>2026-03-29T11:21:29Z</time></trkpt><trkpt lat="43.05271030229745" lon="11.436733926986278"><ele>468.0</ele><time>2026-03-29T11:21:30Z</time></trkpt><trkpt lat="43.05263918088472" lon="11.436803820303528"><ele>468.0</ele><time>2026-03-29T11:21:31Z</time></trkpt><trkpt lat="43.05254502869783" lon="11.436817452944167"><ele>467.99999999999994</ele><time>2026-03-29T11:21:32Z</time></trkpt><trkpt lat="43.05245484527797" lon="11.436791785879366"><ele>467.99999999999994</ele><time>2026-03-29T11:21:33Z</time></trkpt><trkpt lat="43.05235429358782" lon="11.436752256598618"><ele>468.0</ele><time>2026-03-29T11:21:34Z</time></trkpt><trkpt lat="43.05225061665386" lon="11.436737184954602"><ele>468.0</ele><time>2026-03-29T11:21:35Z</time></trkpt><trkpt lat="43.052151405634504" lon="11.436756604783481"><ele>468.25</ele><time>2026-03-29T11:21:36Z</time></trkpt><trkpt lat="43.05202825749775" lon="11.436772326930981"><ele>468.5</ele><time>2026-03-29T11:21:37Z</time></trkpt><trkpt lat="43.0519009380353" lon="11.436808507936822"><ele>468.75</ele><time>2026-03-29T11:21:37.999Z</time></trkpt><trkpt lat="43.05178807222378" lon="11.436842918384764"><ele>469.0</ele><time>2026-03-29T11:21:38.999Z</time></trkpt><trkpt lat="43.05169617707419" lon="11.436872940055155"><ele>469.00000000000006</ele><time>2026-03-29T11:21:39.999Z</time></trkpt><trkpt lat="43.051627289170135" lon="11.436892483702636"><ele>469.0</ele><time>2026-03-29T11:21:40.999Z</time></trkpt><trkpt lat="43.05153708052445" lon="11.436967399975517"><ele>469.0</ele><time>2026-03-29T11:21:42.999Z</time></trkpt><trkpt lat="43.05148698399914" lon="11.43705157486413"><ele>469.0</ele><time>2026-03-29T11:21:44.999Z</time></trkpt><trkpt lat="43.05143976360482" lon="11.437137882077602"><ele>469.00000000000006</ele><time>2026-03-29T11:21:47.999Z</time></trkpt><trkpt lat="43.05138334781691" lon="11.43723800602525"><ele>469.0</ele><time>2026-03-29T11:21:55.999Z</time></trkpt><trkpt lat="43.05132557480033" lon="11.437317652855555"><ele>469.2</ele><time>2026-03-29T11:21:57.999Z</time></trkpt><trkpt lat="43.051252167120666" lon="11.437414518883518"><ele>469.4</ele><time>2026-03-29T11:21:59.999Z</time></trkpt><trkpt lat="43.05120003098843" lon="11.437471984105455"><ele>469.6</ele><time>2026-03-29T11:22:00.999Z</time></trkpt><trkpt lat="43.05112719835079" lon="11.437539601400971"><ele>469.8</ele><time>2026-03-29T11:22:01.999Z</time></trkpt><trkpt lat="43.05104132748983" lon="11.437604184264487"><ele>470.0</ele><time>2026-03-29T11:22:02.999Z</time></trkpt><trkpt lat="43.0509472393764" lon="11.437661201997633"><ele>470.0</ele><time>2026-03-29T11:22:03.999Z</time></trkpt><trkpt lat="43.05083570152456" lon="11.437720681238613"><ele>470.0</ele><time>2026-03-29T11:22:04.999Z</time></trkpt><trkpt lat="43.050727999356845" lon="11.437789760690524"><ele>470.0</ele><time>2026-03-29T11:22:05.999Z</time></trkpt><trkpt lat="43.05063003622833" lon="11.437865528230635"><ele>470.0</ele><time>2026-03-29T11:22:06.999Z</time></trkpt><trkpt lat="43.05055010177481" lon="11.437948633530652"><ele>473.0</ele><time>2026-03-29T11:22:07.999Z</time></trkpt><trkpt lat="43.050482803841604" lon="11.438056603985242"><ele>476.0</ele><time>2026-03-29T11:22:08.999Z</time></trkpt><trkpt lat="43.05044162074773" lon="11.438229630274748"><ele>479.0</ele><time>2026-03-29T11:22:09.999Z</time></trkpt><trkpt lat="43.050423026256325" lon="11.438416465626968"><ele>482.0</ele><time>2026-03-29T11:22:10.999Z</time></trkpt><trkpt lat="43.05039906566107" lon="11.438568050019091"><ele>482.0</ele><time>2026-03-29T11:22:11.999Z</time></trkpt><trkpt lat="43.050363574485424" lon="11.43870458838117"><ele>482.0</ele><time>2026-03-29T11:22:12.999Z</time></trkpt><trkpt lat="43.050357148642334" lon="11.43885472395263"><ele>482.0</ele><time>2026-03-29T11:22:13.999Z</time></trkpt><trkpt lat="43.05040163694532" lon="11.438999793667975"><ele>482.0</ele><time>2026-03-29T11:22:14.999Z</time></trkpt><trkpt lat="43.050492896689704" lon="11.439134761932978"><ele>481.8</ele><time>2026-03-29T11:22:15.999Z</time></trkpt><trkpt lat="43.05057537525177" lon="11.43927640392499"><ele>481.6</ele><time>2026-03-29T11:22:16.999Z</time></trkpt><trkpt lat="43.050633489144175" lon="11.439391664099386"><ele>481.40000000000003</ele><time>2026-03-29T11:22:17.999Z</time></trkpt><trkpt lat="43.05067976078337" lon="11.439505488412353"><ele>481.20000000000005</ele><time>2026-03-29T11:22:18.999Z</time></trkpt><trkpt lat="43.05071050453049" lon="11.439634769830507"><ele>481.0</ele><time>2026-03-29T11:22:19.999Z</time></trkpt><trkpt lat="43.05071591192999" lon="11.439785631056917"><ele>481.0</ele><time>2026-03-29T11:22:20.999Z</time></trkpt><trkpt lat="43.05070082182915" lon="11.43993714908041"><ele>481.0</ele><time>2026-03-29T11:22:21.999Z</time></trkpt><trkpt lat="43.050675515561885" lon="11.440086887031647"><ele>481.0</ele><time>2026-03-29T11:22:22.999Z</time></trkpt><trkpt lat="43.050642822587626" lon="11.440221038836587"><ele>481.0</ele><time>2026-03-29T11:22:23.999Z</time></trkpt><trkpt lat="43.05059069957779" lon="11.440342883580758"><ele>481.0</ele><time>2026-03-29T11:22:24.999Z</time></trkpt><trkpt lat="43.05051762663454" lon="11.440449556735716"><ele>478.20000000000005</ele><time>2026-03-29T11:22:25.999Z</time></trkpt><trkpt lat="43.050421876498326" lon="11.440531543349362"><ele>475.40000000000003</ele><time>2026-03-29T11:22:26.999Z</time></trkpt><trkpt lat="43.050324056679784" lon="11.44059668771086"><ele>472.6</ele><time>2026-03-29T11:22:27.999Z</time></trkpt><trkpt lat="43.050229561472754" lon="11.44068377279081"><ele>469.8</ele><time>2026-03-29T11:22:28.999Z</time></trkpt><trkpt lat="43.05015220519417" lon="11.440776106199408"><ele>467.0</ele><time>2026-03-29T11:22:29.999Z</time></trkpt><trkpt lat="43.050086117505096" lon="11.440881507721747"><ele>467.0</ele><time>2026-03-29T11:22:30.999Z</time></trkpt><trkpt lat="43.050045289320856" lon="11.441037022682364"><ele>467.0</ele><time>2026-03-29T11:22:31.999Z</time></trkpt><trkpt lat="43.050040150325735" lon="11.441207741751812"><ele>467.0</ele><time>2026-03-29T11:22:32.999Z</time></trkpt><trkpt lat="43.05005004438303" lon="11.441413278218517"><ele>467.0</ele><time>2026-03-29T11:22:34Z</time></trkpt><trkpt lat="43.05006166242592" lon="11.441617654820202"><ele>466.25</ele><time>2026-03-29T11:22:35Z</time></trkpt><trkpt lat="43.0500740079305" lon="11.441787326405816"><ele>465.5</ele><time>2026-03-29T11:22:36Z</time></trkpt><trkpt lat="43.050081649297056" lon="11.441983697942893"><ele>464.75</ele><time>2026-03-29T11:22:37Z</time></trkpt><trkpt lat="43.050087438887815" lon="11.442195710570926"><ele>464.0</ele><time>2026-03-29T11:22:38Z</time></trkpt><trkpt lat="43.05009236938581" lon="11.442394073744955"><ele>464.0</ele><time>2026-03-29T11:22:39Z</time></trkpt><trkpt lat="43.050097204139824" lon="11.442595680430339"><ele>464.0</ele><time>2026-03-29T11:22:40Z</time></trkpt><trkpt lat="43.05010971335783" lon="11.442815654633742"><ele>464.0</ele><time>2026-03-29T11:22:41Z</time></trkpt><trkpt lat="43.05012172164518" lon="11.442999666538665"><ele>464.0</ele><time>2026-03-29T11:22:42Z</time></trkpt><trkpt lat="43.05012894570617" lon="11.44316297841616"><ele>465.75</ele><time>2026-03-29T11:22:43Z</time></trkpt><trkpt lat="43.050129399684536" lon="11.44331087017444"><ele>467.5</ele><time>2026-03-29T11:22:44Z</time></trkpt><trkpt lat="43.05010910695852" lon="11.443462415493087"><ele>469.25</ele><time>2026-03-29T11:22:45Z</time></trkpt><trkpt lat="43.05006835095034" lon="11.44363505377572"><ele>471.0</ele><time>2026-03-29T11:22:46Z</time></trkpt><trkpt lat="43.0500284312607" lon="11.443808439742305"><ele>470.75</ele><time>2026-03-29T11:22:47Z</time></trkpt><trkpt lat="43.049986113455375" lon="11.44399347848103"><ele>470.5</ele><time>2026-03-29T11:22:48Z</time></trkpt><trkpt lat="43.04995018869189" lon="11.444179753395865"><ele>470.25</ele><time>2026-03-29T11:22:49Z</time></trkpt><trkpt lat="43.04993083204039" lon="11.44435066813146"><ele>470.0</ele><time>2026-03-29T11:22:50Z</time></trkpt><trkpt lat="43.0499232116802" lon="11.444512592085061"><ele>468.2</ele><time>2026-03-29T11:22:51Z</time></trkpt><trkpt lat="43.04992104865487" lon="11.44467921134297"><ele>466.4</ele><time>2026-03-29T11:22:52Z</time></trkpt><trkpt lat="43.04992593255183" lon="11.444844149143306"><ele>464.6</ele><time>2026-03-29T11:22:53Z</time></trkpt><trkpt lat="43.049928635154714" lon="11.444985278357805"><ele>462.8</ele><time>2026-03-29T11:22:54Z</time></trkpt><trkpt lat="43.049939471513454" lon="11.445118722553055"><ele>461.0</ele><time>2026-03-29T11:22:55Z</time></trkpt><trkpt lat="43.04991158389178" lon="11.445243318397063"><ele>461.0</ele><time>2026-03-29T11:22:56Z</time></trkpt><trkpt lat="43.049866096043814" lon="11.445379183224848"><ele>461.0</ele><time>2026-03-29T11:22:57Z</time></trkpt><trkpt lat="43.04981186950716" lon="11.445517943479196"><ele>461.0</ele><time>2026-03-29T11:22:58Z</time></trkpt><trkpt lat="43.04975329667544" lon="11.44565962542739"><ele>461.0</ele><time>2026-03-29T11:22:59Z</time></trkpt><trkpt lat="43.04970627605582" lon="11.445801188308314"><ele>461.0</ele><time>2026-03-29T11:23:00Z</time></trkpt><trkpt lat="43.049658442098405" lon="11.445945166701078"><ele>461.0</ele><time>2026-03-29T11:23:01Z</time></trkpt><trkpt lat="43.04963604384198" lon="11.446086655805207"><ele>461.0</ele><time>2026-03-29T11:23:02Z</time></trkpt><trkpt lat="43.049621947019936" lon="11.446227419053812"><ele>461.0</ele><time>2026-03-29T11:23:03Z</time></trkpt><trkpt lat="43.049611448701484" lon="11.446383155578363"><ele>461.0</ele><time>2026-03-29T11:23:04Z</time></trkpt><trkpt lat="43.04960179328149" lon="11.446553377790279"><ele>462.0</ele><time>2026-03-29T11:23:05Z</time></trkpt><trkpt lat="43.049595351605454" lon="11.44673783320542"><ele>463.0</ele><time>2026-03-29T11:23:06Z</time></trkpt><trkpt lat="43.049589008728915" lon="11.446931167583628"><ele>464.0</ele><time>2026-03-29T11:23:07Z</time></trkpt><trkpt lat="43.04958455967951" lon="11.447100220228464"><ele>465.0</ele><time>2026-03-29T11:23:08Z</time></trkpt><trkpt lat="43.04958270138064" lon="11.447262264067492"><ele>465.2</ele><time>2026-03-29T11:23:09Z</time></trkpt><trkpt lat="43.049580747704994" lon="11.447432625321635"><ele>465.4</ele><time>2026-03-29T11:23:10Z</time></trkpt><trkpt lat="43.04957021939473" lon="11.447592033996763"><ele>465.6</ele><time>2026-03-29T11:23:11Z</time></trkpt><trkpt lat="43.04957106108529" lon="11.447731416297634"><ele>465.8</ele><time>2026-03-29T11:23:12Z</time></trkpt><trkpt lat="43.04959038610902" lon="11.44787112131202"><ele>466.0</ele><time>2026-03-29T11:23:13Z</time></trkpt><trkpt lat="43.049605037055194" lon="11.44799697578878"><ele>466.50000000000006</ele><time>2026-03-29T11:23:14Z</time></trkpt><trkpt lat="43.049616448722034" lon="11.44809500422314"><ele>467.0</ele><time>2026-03-29T11:23:15Z</time></trkpt><trkpt lat="43.0496283364576" lon="11.448197122190178"><ele>467.5</ele><time>2026-03-29T11:23:16Z</time></trkpt><trkpt lat="43.04963964747367" lon="11.448294286033446"><ele>468.0</ele><time>2026-03-29T11:23:17Z</time></trkpt><trkpt lat="43.04968588460682" lon="11.448381007708356"><ele>468.50000000000006</ele><time>2026-03-29T11:23:18Z</time></trkpt><trkpt lat="43.049620806526164" lon="11.448481308647207"><ele>469.0</ele><time>2026-03-29T11:23:19Z</time></trkpt><trkpt lat="43.04953778440775" lon="11.448574205759279"><ele>469.0</ele><time>2026-03-29T11:23:20Z</time></trkpt><trkpt lat="43.04944818566849" lon="11.4486805605133"><ele>469.0</ele><time>2026-03-29T11:23:21Z</time></trkpt><trkpt lat="43.0493545718758" lon="11.448822963657948"><ele>469.0</ele><time>2026-03-29T11:23:22Z</time></trkpt><trkpt lat="43.04925276739494" lon="11.448963308095092"><ele>469.0</ele><time>2026-03-29T11:23:23Z</time></trkpt><trkpt lat="43.04914919402935" lon="11.449105825623494"><ele>469.5</ele><time>2026-03-29T11:23:24Z</time></trkpt><trkpt lat="43.049061515384764" lon="11.449229882634407"><ele>470.0</ele><time>2026-03-29T11:23:25Z</time></trkpt><trkpt lat="43.04896965315648" lon="11.449360545503637"><ele>470.5</ele><time>2026-03-29T11:23:26Z</time></trkpt><trkpt lat="43.04886667111772" lon="11.44951217133502"><ele>471.0</ele><time>2026-03-29T11:23:27Z</time></trkpt><trkpt lat="43.04875600295763" lon="11.449667333066584"><ele>474.25</ele><time>2026-03-29T11:23:28Z</time></trkpt><trkpt lat="43.048645650496496" lon="11.449834458000876"><ele>477.5</ele><time>2026-03-29T11:23:29Z</time></trkpt><trkpt lat="43.04854992821206" lon="11.449972871523094"><ele>480.75</ele><time>2026-03-29T11:23:30Z</time></trkpt><trkpt lat="43.04846269967561" lon="11.450081601978534"><ele>484.0</ele><time>2026-03-29T11:23:31Z</time></trkpt><trkpt lat="43.04836861090071" lon="11.450186239724031"><ele>483.4</ele><time>2026-03-29T11:23:32Z</time></trkpt><trkpt lat="43.048280806883184" lon="11.45027285785141"><ele>482.79999999999995</ele><time>2026-03-29T11:23:33Z</time></trkpt><trkpt lat="43.04821024991111" lon="11.450345838886596"><ele>482.20000000000005</ele><time>2026-03-29T11:23:34Z</time></trkpt><trkpt lat="43.04815516046558" lon="11.45043080688685"><ele>481.6</ele><time>2026-03-29T11:23:35Z</time></trkpt><trkpt lat="43.048115967529135" lon="11.450544044233759"><ele>481.0</ele><time>2026-03-29T11:23:36Z</time></trkpt><trkpt lat="43.048083968128424" lon="11.45066557516966"><ele>481.0</ele><time>2026-03-29T11:23:37Z</time></trkpt><trkpt lat="43.04806675806248" lon="11.4508059603626"><ele>481.0</ele><time>2026-03-29T11:23:38Z</time></trkpt><trkpt lat="43.04804878737845" lon="11.450965565022415"><ele>481.0</ele><time>2026-03-29T11:23:39Z</time></trkpt><trkpt lat="43.04802358887336" lon="11.451122831137738"><ele>481.0</ele><time>2026-03-29T11:23:40Z</time></trkpt><trkpt lat="43.04800580855959" lon="11.451268125746363"><ele>481.0</ele><time>2026-03-29T11:23:41Z</time></trkpt><trkpt lat="43.04798306083573" lon="11.451422210992398"><ele>481.8</ele><time>2026-03-29T11:23:42Z</time></trkpt><trkpt lat="43.04795185175509" lon="11.451559512027691"><ele>482.6</ele><time>2026-03-29T11:23:43Z</time></trkpt><trkpt lat="43.04789799986415" lon="11.451691701266046"><ele>483.4</ele><time>2026-03-29T11:23:44Z</time></trkpt><trkpt lat="43.0478466454664" lon="11.451828744207138"><ele>484.2</ele><time>2026-03-29T11:23:45Z</time></trkpt><trkpt lat="43.04780019803583" lon="11.451969279345398"><ele>485.0</ele><time>2026-03-29T11:23:45.999Z</time></trkpt><trkpt lat="43.04775243061955" lon="11.45211550120456"><ele>486.66666666666663</ele><time>2026-03-29T11:23:46.999Z</time></trkpt><trkpt lat="43.047714651715935" lon="11.452282233586859"><ele>488.33333333333337</ele><time>2026-03-29T11:23:47.999Z</time></trkpt><trkpt lat="43.047685593880914" lon="11.452488093852796"><ele>490.0</ele><time>2026-03-29T11:23:48.999Z</time></trkpt><trkpt lat="43.04765124477707" lon="11.452718930258603"><ele>490.0</ele><time>2026-03-29T11:23:49.999Z</time></trkpt><trkpt lat="43.047613644592616" lon="11.452928324230871"><ele>490.0</ele><time>2026-03-29T11:23:50.999Z</time></trkpt><trkpt lat="43.04758436653539" lon="11.453108149463942"><ele>490.0</ele><time>2026-03-29T11:23:51.999Z</time></trkpt><trkpt lat="43.047556801505756" lon="11.453279475582232"><ele>490.0</ele><time>2026-03-29T11:23:52.999Z</time></trkpt><trkpt lat="43.047540374605674" lon="11.453441550960695"><ele>490.50000000000006</ele><time>2026-03-29T11:23:53.999Z</time></trkpt><trkpt lat="43.04752981271336" lon="11.453567929364294"><ele>491.0</ele><time>2026-03-29T11:23:54.999Z</time></trkpt><trkpt lat="43.047515595106546" lon="11.453667303474539"><ele>491.5</ele><time>2026-03-29T11:23:55.999Z</time></trkpt><trkpt lat="43.04749285487376" lon="11.453753261522909"><ele>492.0</ele><time>2026-03-29T11:23:56.999Z</time></trkpt><trkpt lat="43.047456480807334" lon="11.453826144168074"><ele>492.50000000000006</ele><time>2026-03-29T11:23:57.999Z</time></trkpt><trkpt lat="43.047386115385976" lon="11.453883919124694"><ele>493.0</ele><time>2026-03-29T11:23:59.999Z</time></trkpt><trkpt lat="43.0473039328517" lon="11.453947068648908"><ele>494.50000000000006</ele><time>2026-03-29T11:24:17.999Z</time></trkpt><trkpt lat="43.04723485913251" lon="11.453981080956444"><ele>496.0</ele><time>2026-03-29T11:24:18.999Z</time></trkpt><trkpt lat="43.047157053886494" lon="11.454007889333159"><ele>497.5</ele><time>2026-03-29T11:24:20.999Z</time></trkpt><trkpt lat="43.04709797480306" lon="11.454042976979043"><ele>499.0</ele><time>2026-03-29T11:24:34.999Z</time></trkpt><trkpt lat="43.04702806518865" lon="11.45410846745099"><ele>500.50000000000006</ele><time>2026-03-29T11:24:36.999Z</time></trkpt><trkpt lat="43.04693308643809" lon="11.4541685144963"><ele>502.0</ele><time>2026-03-29T11:24:38.999Z</time></trkpt><trkpt lat="43.046849120669265" lon="11.45422729995169"><ele>502.0</ele><time>2026-03-29T11:24:41Z</time></trkpt><trkpt lat="43.04674798494954" lon="11.454279032108518"><ele>502.00000000000006</ele><time>2026-03-29T11:24:43Z</time></trkpt><trkpt lat="43.046687017993264" lon="11.454324193465515"><ele>502.00000000000006</ele><time>2026-03-29T11:24:44Z</time></trkpt><trkpt lat="43.04661370008355" lon="11.454385353179575"><ele>502.0</ele><time>2026-03-29T11:24:45Z</time></trkpt><trkpt lat="43.04653283131116" lon="11.454457671477943"><ele>502.0</ele><time>2026-03-29T11:24:46Z</time></trkpt><trkpt lat="43.04644673591499" lon="11.454535217684846"><ele>502.83333333333337</ele><time>2026-03-29T11:24:47Z</time></trkpt><trkpt lat="43.04636497305912" lon="11.454606629596725"><ele>503.6666666666667</ele><time>2026-03-29T11:24:48Z</time></trkpt><trkpt lat="43.04629164974914" lon="11.454673594713757"><ele>504.5</ele><time>2026-03-29T11:24:49Z</time></trkpt><trkpt lat="43.04623000123167" lon="11.454728746501736"><ele>505.33333333333337</ele><time>2026-03-29T11:24:50Z</time></trkpt><trkpt lat="43.04617168979421" lon="11.45477138795593"><ele>506.1666666666667</ele><time>2026-03-29T11:24:51Z</time></trkpt><trkpt lat="43.046116131147095" lon="11.454812383931682"><ele>507.0</ele><time>2026-03-29T11:24:52Z</time></trkpt><trkpt lat="43.04605520655827" lon="11.454849164655212"><ele>507.0</ele><time>2026-03-29T11:24:53Z</time></trkpt><trkpt lat="43.04598254868208" lon="11.454891158656068"><ele>507.0</ele><time>2026-03-29T11:24:54Z</time></trkpt><trkpt lat="43.0459009833578" lon="11.454943405224498"><ele>507.0</ele><time>2026-03-29T11:24:55Z</time></trkpt><trkpt lat="43.045804865050144" lon="11.454957114501182"><ele>507.0</ele><time>2026-03-29T11:24:56Z</time></trkpt><trkpt lat="43.0457337177163" lon="11.455004753102033"><ele>507.0</ele><time>2026-03-29T11:24:57Z</time></trkpt><trkpt lat="43.045652291162085" lon="11.455059507092166"><ele>507.0</ele><time>2026-03-29T11:24:58Z</time></trkpt><trkpt lat="43.04556132206322" lon="11.455132248092987"><ele>506.8333333333333</ele><time>2026-03-29T11:24:59Z</time></trkpt><trkpt lat="43.0454873870841" lon="11.455221145881751"><ele>506.66666666666663</ele><time>2026-03-29T11:25:00Z</time></trkpt><trkpt lat="43.045438202142236" lon="11.45532610740443"><ele>506.5</ele><time>2026-03-29T11:25:01Z</time></trkpt><trkpt lat="43.04539589126144" lon="11.455419856892943"><ele>506.3333333333333</ele><time>2026-03-29T11:25:02Z</time></trkpt><trkpt lat="43.04535039300742" lon="11.455520095856295"><ele>506.16666666666663</ele><time>2026-03-29T11:25:03Z</time></trkpt><trkpt lat="43.04529855652383" lon="11.455620686228746"><ele>506.0</ele><time>2026-03-29T11:25:04Z</time></trkpt><trkpt lat="43.04523990533149" lon="11.455731164589128"><ele>505.5</ele><time>2026-03-29T11:25:05Z</time></trkpt><trkpt lat="43.04517368969958" lon="11.455855891584681"><ele>505.0</ele><time>2026-03-29T11:25:06Z</time></trkpt><trkpt lat="43.04510136640088" lon="11.455994271721792"><ele>504.5</ele><time>2026-03-29T11:25:07Z</time></trkpt><trkpt lat="43.04503176077343" lon="11.456130077417889"><ele>504.0</ele><time>2026-03-29T11:25:08Z</time></trkpt><trkpt lat="43.04496898085573" lon="11.456254277342039"><ele>503.6</ele><time>2026-03-29T11:25:09Z</time></trkpt><trkpt lat="43.044914674041614" lon="11.456361714328718"><ele>503.2</ele><time>2026-03-29T11:25:10Z</time></trkpt><trkpt lat="43.04486377147263" lon="11.456471175599196"><ele>502.80000000000007</ele><time>2026-03-29T11:25:11Z</time></trkpt><trkpt lat="43.0447998742742" lon="11.456565482464343"><ele>502.40000000000003</ele><time>2026-03-29T11:25:12Z</time></trkpt><trkpt lat="43.04477679287056" lon="11.456720632443497"><ele>502.0</ele><time>2026-03-29T11:25:13Z</time></trkpt><trkpt lat="43.04477205351052" lon="11.456877242907707"><ele>502.00000000000006</ele><time>2026-03-29T11:25:14Z</time></trkpt><trkpt lat="43.04475441285771" lon="11.457028878897457"><ele>502.0</ele><time>2026-03-29T11:25:15Z</time></trkpt><trkpt lat="43.04473941985852" lon="11.457140374696875"><ele>502.0</ele><time>2026-03-29T11:25:16Z</time></trkpt><trkpt lat="43.04471564947431" lon="11.457247298557554"><ele>502.0</ele><time>2026-03-29T11:25:17Z</time></trkpt><trkpt lat="43.04468030808712" lon="11.457329911531072"><ele>502.00000000000006</ele><time>2026-03-29T11:25:18Z</time></trkpt><trkpt lat="43.04461915179995" lon="11.457373679617534"><ele>502.0</ele><time>2026-03-29T11:25:19Z</time></trkpt><trkpt lat="43.044538481783995" lon="11.45745631293576"><ele>502.8</ele><time>2026-03-29T11:25:20Z</time></trkpt><trkpt lat="43.04444615873772" lon="11.457534946858493"><ele>503.6</ele><time>2026-03-29T11:25:21Z</time></trkpt><trkpt lat="43.0443436687125" lon="11.457629273489763"><ele>504.40000000000003</ele><time>2026-03-29T11:25:22Z</time></trkpt><trkpt lat="43.04425388920742" lon="11.45772133358614"><ele>505.20000000000005</ele><time>2026-03-29T11:25:23Z</time></trkpt><trkpt lat="43.04417967541567" lon="11.45780012647539"><ele>506.0</ele><time>2026-03-29T11:25:24Z</time></trkpt><trkpt lat="43.0441062534209" lon="11.457888853231625"><ele>506.25</ele><time>2026-03-29T11:25:25Z</time></trkpt><trkpt lat="43.04403386057507" lon="11.458005932494759"><ele>506.5</ele><time>2026-03-29T11:25:26Z</time></trkpt><trkpt lat="43.043958034600436" lon="11.458137439488542"><ele>506.75</ele><time>2026-03-29T11:25:27Z</time></trkpt><trkpt lat="43.04387241657289" lon="11.458271070436707"><ele>507.0</ele><time>2026-03-29T11:25:28Z</time></trkpt><trkpt lat="43.04378443626891" lon="11.458408388645655"><ele>507.0</ele><time>2026-03-29T11:25:29Z</time></trkpt><trkpt lat="43.04369455701502" lon="11.458548670561656"><ele>507.0</ele><time>2026-03-29T11:25:30Z</time></trkpt><trkpt lat="43.043596772179264" lon="11.458703356183527"><ele>507.0</ele><time>2026-03-29T11:25:31Z</time></trkpt><trkpt lat="43.04349970681891" lon="11.458856646751924"><ele>507.0</ele><time>2026-03-29T11:25:32Z</time></trkpt><trkpt lat="43.04340275467393" lon="11.458976411126665"><ele>507.0</ele><time>2026-03-29T11:25:33Z</time></trkpt><trkpt lat="43.04331292979158" lon="11.459060535744674"><ele>507.00000000000006</ele><time>2026-03-29T11:25:34Z</time></trkpt><trkpt lat="43.04322614810844" lon="11.459127384660764"><ele>507.00000000000006</ele><time>2026-03-29T11:25:35Z</time></trkpt><trkpt lat="43.04314835236622" lon="11.459173527961774"><ele>507.0</ele><time>2026-03-29T11:25:36Z</time></trkpt><trkpt lat="43.04307188452932" lon="11.459240162360194"><ele>507.0</ele><time>2026-03-29T11:25:37Z</time></trkpt><trkpt lat="43.04299713297392" lon="11.459295215824032"><ele>507.0</ele><time>2026-03-29T11:25:38Z</time></trkpt><trkpt lat="43.04292455562108" lon="11.459334955731647"><ele>507.00000000000006</ele><time>2026-03-29T11:25:39Z</time></trkpt><trkpt lat="43.04286512633738" lon="11.459438910128364"><ele>507.00000000000006</ele><time>2026-03-29T11:25:40Z</time></trkpt><trkpt lat="43.042821303319066" lon="11.45955680061187"><ele>507.0</ele><time>2026-03-29T11:25:41Z</time></trkpt><trkpt lat="43.042787573521885" lon="11.45967757135954"><ele>507.0</ele><time>2026-03-29T11:25:42Z</time></trkpt><trkpt lat="43.042761307987675" lon="11.459798889532768"><ele>507.8</ele><time>2026-03-29T11:25:43Z</time></trkpt><trkpt lat="43.04273726487377" lon="11.459904440856981"><ele>508.6</ele><time>2026-03-29T11:25:44Z</time></trkpt><trkpt lat="43.04271192855564" lon="11.460011875836653"><ele>509.40000000000003</ele><time>2026-03-29T11:25:45Z</time></trkpt><trkpt lat="43.0426941756406" lon="11.46012864042804"><ele>510.20000000000005</ele><time>2026-03-29T11:25:46Z</time></trkpt><trkpt lat="43.04269712014608" lon="11.460248579895655"><ele>511.0</ele><time>2026-03-29T11:25:47Z</time></trkpt><trkpt lat="43.042739489653925" lon="11.460399557023763"><ele>510.8</ele><time>2026-03-29T11:25:48Z</time></trkpt><trkpt lat="43.04281228375509" lon="11.46052846923239"><ele>510.6</ele><time>2026-03-29T11:25:49Z</time></trkpt><trkpt lat="43.04288049828488" lon="11.46063938754373"><ele>510.4</ele><time>2026-03-29T11:25:50Z</time></trkpt><trkpt lat="43.04293940675369" lon="11.4607491185576"><ele>510.2</ele><time>2026-03-29T11:25:50.999Z</time></trkpt><trkpt lat="43.04299065920703" lon="11.460862176970306"><ele>510.0</ele><time>2026-03-29T11:25:51.999Z</time></trkpt><trkpt lat="43.04304699868862" lon="11.461001349766251"><ele>510.0</ele><time>2026-03-29T11:25:52.999Z</time></trkpt><trkpt lat="43.043109967942335" lon="11.461157375321601"><ele>510.0</ele><time>2026-03-29T11:25:53.999Z</time></trkpt><trkpt lat="43.043172798014396" lon="11.461313079059178"><ele>510.0</ele><time>2026-03-29T11:25:54.999Z</time></trkpt><trkpt lat="43.043236056455484" lon="11.461469844417316"><ele>510.0</ele><time>2026-03-29T11:25:55.999Z</time></trkpt><trkpt lat="43.04330941232172" lon="11.461645954644316"><ele>507.75</ele><time>2026-03-29T11:25:56.999Z</time></trkpt><trkpt lat="43.04337539040347" lon="11.46180354032386"><ele>505.5</ele><time>2026-03-29T11:25:57.999Z</time></trkpt><trkpt lat="43.043438979308" lon="11.461958505130902"><ele>503.25</ele><time>2026-03-29T11:25:58.999Z</time></trkpt><trkpt lat="43.043504319552625" lon="11.462127512593385"><ele>501.0</ele><time>2026-03-29T11:25:59.999Z</time></trkpt><trkpt lat="43.04357517316658" lon="11.462266252331835"><ele>501.0</ele><time>2026-03-29T11:26:00.999Z</time></trkpt><trkpt lat="43.043603910425276" lon="11.462406292475222"><ele>501.0</ele><time>2026-03-29T11:26:01.999Z</time></trkpt><trkpt lat="43.04365249838678" lon="11.462514264237432"><ele>501.0</ele><time>2026-03-29T11:26:02.999Z</time></trkpt><trkpt lat="43.04364958052679" lon="11.462632475415704"><ele>501.0</ele><time>2026-03-29T11:26:03.999Z</time></trkpt><trkpt lat="43.043629951271974" lon="11.46272322865143"><ele>501.0</ele><time>2026-03-29T11:26:04.999Z</time></trkpt><trkpt lat="43.04358432123641" lon="11.462826961949098"><ele>501.0</ele><time>2026-03-29T11:26:05.999Z</time></trkpt><trkpt lat="43.04352005178968" lon="11.462926325399959"><ele>501.0</ele><time>2026-03-29T11:26:06.999Z</time></trkpt><trkpt lat="43.0434392544209" lon="11.463038409407117"><ele>501.0</ele><time>2026-03-29T11:26:07.999Z</time></trkpt><trkpt lat="43.04334673304259" lon="11.463158383034239"><ele>501.0</ele><time>2026-03-29T11:26:08.999Z</time></trkpt><trkpt lat="43.043273108916246" lon="11.463277193990415"><ele>501.0</ele><time>2026-03-29T11:26:09.999Z</time></trkpt><trkpt lat="43.04321326367743" lon="11.463410009986166"><ele>500.6</ele><time>2026-03-29T11:26:10.999Z</time></trkpt><trkpt lat="43.043173238607565" lon="11.463541784707434"><ele>500.20000000000005</ele><time>2026-03-29T11:26:11.999Z</time></trkpt><trkpt lat="43.043152424816874" lon="11.46367415913961"><ele>499.79999999999995</ele><time>2026-03-29T11:26:12.999Z</time></trkpt><trkpt lat="43.04313479065278" lon="11.463809901080618"><ele>499.4</ele><time>2026-03-29T11:26:13.999Z</time></trkpt><trkpt lat="43.04311744740794" lon="11.463953962717296"><ele>499.0</ele><time>2026-03-29T11:26:14.999Z</time></trkpt><trkpt lat="43.043098373376246" lon="11.464101183641478"><ele>499.0</ele><time>2026-03-29T11:26:15.999Z</time></trkpt><trkpt lat="43.04307476604193" lon="11.464247487546864"><ele>499.0</ele><time>2026-03-29T11:26:16.999Z</time></trkpt><trkpt lat="43.04304996290816" lon="11.464394970960242"><ele>499.0</ele><time>2026-03-29T11:26:17.999Z</time></trkpt><trkpt lat="43.04302322369866" lon="11.464546250900378"><ele>499.0</ele><time>2026-03-29T11:26:18.999Z</time></trkpt><trkpt lat="43.0429989008315" lon="11.464683861772713"><ele>499.0</ele><time>2026-03-29T11:26:19.999Z</time></trkpt><trkpt lat="43.04296988393678" lon="11.464810786667853"><ele>499.6</ele><time>2026-03-29T11:26:20.999Z</time></trkpt><trkpt lat="43.04293596845957" lon="11.464941526532758"><ele>500.2</ele><time>2026-03-29T11:26:21.999Z</time></trkpt><trkpt lat="43.04287985843244" lon="11.465059868069662"><ele>500.80000000000007</ele><time>2026-03-29T11:26:22.999Z</time></trkpt><trkpt lat="43.04281922507888" lon="11.465188632956336"><ele>501.40000000000003</ele><time>2026-03-29T11:26:23.999Z</time></trkpt><trkpt lat="43.04276034841074" lon="11.465334606194826"><ele>502.0</ele><time>2026-03-29T11:26:24.999Z</time></trkpt><trkpt lat="43.042717004615994" lon="11.465478639611355"><ele>502.0</ele><time>2026-03-29T11:26:25.999Z</time></trkpt><trkpt lat="43.04268883777489" lon="11.465632864816396"><ele>502.0</ele><time>2026-03-29T11:26:26.999Z</time></trkpt><trkpt lat="43.04267108841952" lon="11.46580546666913"><ele>502.0</ele><time>2026-03-29T11:26:27.999Z</time></trkpt><trkpt lat="43.04265796531253" lon="11.466000308472813"><ele>502.0</ele><time>2026-03-29T11:26:28.999Z</time></trkpt><trkpt lat="43.04264751898278" lon="11.466164932815051"><ele>501.8</ele><time>2026-03-29T11:26:29.999Z</time></trkpt><trkpt lat="43.04264010010926" lon="11.466318804411452"><ele>501.6</ele><time>2026-03-29T11:26:30.999Z</time></trkpt><trkpt lat="43.04263304857298" lon="11.466467727033239"><ele>501.40000000000003</ele><time>2026-03-29T11:26:31.999Z</time></trkpt><trkpt lat="43.04262622057047" lon="11.466611928624625"><ele>501.20000000000005</ele><time>2026-03-29T11:26:32.999Z</time></trkpt><trkpt lat="43.04262017077937" lon="11.466762022032459"><ele>501.0</ele><time>2026-03-29T11:26:33.999Z</time></trkpt><trkpt lat="43.04261492487094" lon="11.46690825915288"><ele>501.0</ele><time>2026-03-29T11:26:34.999Z</time></trkpt><trkpt lat="43.04260673793329" lon="11.467030674056007"><ele>501.0</ele><time>2026-03-29T11:26:35.999Z</time></trkpt><trkpt lat="43.04258614212629" lon="11.46714447548172"><ele>501.0</ele><time>2026-03-29T11:26:36.999Z</time></trkpt><trkpt lat="43.04255034359966" lon="11.467239298721772"><ele>501.0</ele><time>2026-03-29T11:26:37.999Z</time></trkpt><trkpt lat="43.042507056943016" lon="11.467346569972342"><ele>501.0</ele><time>2026-03-29T11:26:38.999Z</time></trkpt><trkpt lat="43.042459072423185" lon="11.467470651870432"><ele>501.0</ele><time>2026-03-29T11:26:39.999Z</time></trkpt><trkpt lat="43.042408571714894" lon="11.467602577953082"><ele>501.5</ele><time>2026-03-29T11:26:40.999Z</time></trkpt><trkpt lat="43.042355673625146" lon="11.467745018277725"><ele>502.0</ele><time>2026-03-29T11:26:41.999Z</time></trkpt><trkpt lat="43.042309370832335" lon="11.467896449010551"><ele>502.5</ele><time>2026-03-29T11:26:42.999Z</time></trkpt><trkpt lat="43.042270520031" lon="11.468056533316604"><ele>503.0</ele><time>2026-03-29T11:26:43.999Z</time></trkpt><trkpt lat="43.0422349481361" lon="11.468214606961203"><ele>503.4</ele><time>2026-03-29T11:26:44.999Z</time></trkpt><trkpt lat="43.0421974763631" lon="11.468381126461098"><ele>503.79999999999995</ele><time>2026-03-29T11:26:46Z</time></trkpt><trkpt lat="43.042195929699" lon="11.468539506226128"><ele>504.2</ele><time>2026-03-29T11:26:47Z</time></trkpt><trkpt lat="43.04216841940914" lon="11.468664998713628"><ele>504.6</ele><time>2026-03-29T11:26:48Z</time></trkpt><trkpt lat="43.04214150235016" lon="11.468801864964519"><ele>505.0</ele><time>2026-03-29T11:26:49Z</time></trkpt><trkpt lat="43.04210283507593" lon="11.468938123351919"><ele>505.1666666666667</ele><time>2026-03-29T11:26:50Z</time></trkpt><trkpt lat="43.04202784745828" lon="11.469035516083583"><ele>505.33333333333337</ele><time>2026-03-29T11:26:51Z</time></trkpt><trkpt lat="43.04197881522364" lon="11.4691260813484"><ele>505.5</ele><time>2026-03-29T11:26:52Z</time></trkpt><trkpt lat="43.04192328425082" lon="11.469188425067173"><ele>505.66666666666663</ele><time>2026-03-29T11:26:53Z</time></trkpt><trkpt lat="43.041873768186" lon="11.46925642927139"><ele>505.8333333333333</ele><time>2026-03-29T11:26:54Z</time></trkpt><trkpt lat="43.04179145064591" lon="11.46928030842443"><ele>506.0</ele><time>2026-03-29T11:26:55Z</time></trkpt><trkpt lat="43.04171920077121" lon="11.469338988244507"><ele>506.00000000000006</ele><time>2026-03-29T11:26:56Z</time></trkpt><trkpt lat="43.041643344333444" lon="11.469376159601522"><ele>506.0</ele><time>2026-03-29T11:26:57Z</time></trkpt><trkpt lat="43.041565976642346" lon="11.46941056008042"><ele>506.00000000000006</ele><time>2026-03-29T11:26:58Z</time></trkpt><trkpt lat="43.041500726012345" lon="11.469443188904975"><ele>506.00000000000006</ele><time>2026-03-29T11:26:59Z</time></trkpt><trkpt lat="43.04144094551769" lon="11.469472350827042"><ele>506.0</ele><time>2026-03-29T11:27:00Z</time></trkpt><trkpt lat="43.041376935569" lon="11.469509389176164"><ele>506.00000000000006</ele><time>2026-03-29T11:27:01Z</time></trkpt><trkpt lat="43.0413092224382" lon="11.469530182712337"><ele>506.00000000000006</ele><time>2026-03-29T11:27:02Z</time></trkpt><trkpt lat="43.041238970843345" lon="11.469575423779018"><ele>508.0</ele><time>2026-03-29T11:27:03Z</time></trkpt><trkpt lat="43.041166150906236" lon="11.469629474592246"><ele>510.0</ele><time>2026-03-29T11:27:04Z</time></trkpt><trkpt lat="43.04108643809828" lon="11.46969605865334"><ele>512.0</ele><time>2026-03-29T11:27:05Z</time></trkpt><trkpt lat="43.041000722322536" lon="11.46977649422456"><ele>514.0</ele><time>2026-03-29T11:27:06Z</time></trkpt><trkpt lat="43.04091403991528" lon="11.469865015471289"><ele>516.0</ele><time>2026-03-29T11:27:07Z</time></trkpt><trkpt lat="43.0408264791935" lon="11.469955887293791"><ele>517.25</ele><time>2026-03-29T11:27:08Z</time></trkpt><trkpt lat="43.04074566382686" lon="11.47004818833784"><ele>518.5</ele><time>2026-03-29T11:27:09Z</time></trkpt><trkpt lat="43.040665823417" lon="11.470155907594684"><ele>519.75</ele><time>2026-03-29T11:27:10Z</time></trkpt><trkpt lat="43.04058766826732" lon="11.470279228072803"><ele>521.0</ele><time>2026-03-29T11:27:11Z</time></trkpt><trkpt lat="43.040501536176606" lon="11.470415099821656"><ele>522.75</ele><time>2026-03-29T11:27:12Z</time></trkpt><trkpt lat="43.040412737907346" lon="11.470552529561088"><ele>524.5</ele><time>2026-03-29T11:27:13Z</time></trkpt><trkpt lat="43.04033875716901" lon="11.470655918558062"><ele>526.25</ele><time>2026-03-29T11:27:14Z</time></trkpt><trkpt lat="43.04024028008928" lon="11.47070414308939"><ele>528.0</ele><time>2026-03-29T11:27:15Z</time></trkpt><trkpt lat="43.04013143878933" lon="11.470724961984699"><ele>528.0</ele><time>2026-03-29T11:27:16Z</time></trkpt><trkpt lat="43.04002085265204" lon="11.470749716414057"><ele>528.0</ele><time>2026-03-29T11:27:17Z</time></trkpt><trkpt lat="43.03993843351761" lon="11.470792501567896"><ele>528.0</ele><time>2026-03-29T11:27:18Z</time></trkpt><trkpt lat="43.03983006241066" lon="11.470849882499056"><ele>528.0</ele><time>2026-03-29T11:27:20Z</time></trkpt><trkpt lat="43.03975121695562" lon="11.470888081401533"><ele>528.0</ele><time>2026-03-29T11:27:22Z</time></trkpt><trkpt lat="43.03966521983102" lon="11.470930788288712"><ele>528.8</ele><time>2026-03-29T11:27:54.999Z</time></trkpt><trkpt lat="43.03953643368547" lon="11.47101086346195"><ele>529.5999999999999</ele><time>2026-03-29T11:27:56.999Z</time></trkpt><trkpt lat="43.039459638930545" lon="11.47105349036259"><ele>530.4000000000001</ele><time>2026-03-29T11:27:57.999Z</time></trkpt><trkpt lat="43.039364564656445" lon="11.47110434453349"><ele>531.2</ele><time>2026-03-29T11:27:58.999Z</time></trkpt><trkpt lat="43.039270453161784" lon="11.471161735775272"><ele>532.0</ele><time>2026-03-29T11:27:59.999Z</time></trkpt><trkpt lat="43.03917992896441" lon="11.471229858095699"><ele>532.25</ele><time>2026-03-29T11:28:00.999Z</time></trkpt><trkpt lat="43.03909510203095" lon="11.47132088434314"><ele>532.5</ele><time>2026-03-29T11:28:01.999Z</time></trkpt><trkpt lat="43.03899116321473" lon="11.471412551826397"><ele>532.75</ele><time>2026-03-29T11:28:02.999Z</time></trkpt><trkpt lat="43.038891541010834" lon="11.471550679836259"><ele>533.0</ele><time>2026-03-29T11:28:03.999Z</time></trkpt><trkpt lat="43.03880977201501" lon="11.471683760118099"><ele>533.0</ele><time>2026-03-29T11:28:04.999Z</time></trkpt><trkpt lat="43.03874923440313" lon="11.471820754665371"><ele>533.0</ele><time>2026-03-29T11:28:05.999Z</time></trkpt><trkpt lat="43.038700968192266" lon="11.471968301103841"><ele>533.0</ele><time>2026-03-29T11:28:06.999Z</time></trkpt><trkpt lat="43.03866164488271" lon="11.47213053741264"><ele>533.0</ele><time>2026-03-29T11:28:07.999Z</time></trkpt><trkpt lat="43.03864641770653" lon="11.47231310006463"><ele>536.75</ele><time>2026-03-29T11:28:08.999Z</time></trkpt><trkpt lat="43.038649575401685" lon="11.47249945017668"><ele>540.5</ele><time>2026-03-29T11:28:09.999Z</time></trkpt><trkpt lat="43.03867068005944" lon="11.472688833003627"><ele>544.25</ele><time>2026-03-29T11:28:10.999Z</time></trkpt><trkpt lat="43.038696041859026" lon="11.472884683236648"><ele>548.0</ele><time>2026-03-29T11:28:11.999Z</time></trkpt><trkpt lat="43.03872318711463" lon="11.473099148850226"><ele>550.4</ele><time>2026-03-29T11:28:12.999Z</time></trkpt><trkpt lat="43.03873164883132" lon="11.473290198904998"><ele>552.8</ele><time>2026-03-29T11:28:13.999Z</time></trkpt><trkpt lat="43.03872119832126" lon="11.473416396841987"><ele>555.2</ele><time>2026-03-29T11:28:14.999Z</time></trkpt><trkpt lat="43.03868958870059" lon="11.47354563376932"><ele>557.6</ele><time>2026-03-29T11:28:15.999Z</time></trkpt><trkpt lat="43.0386330152812" lon="11.473665719113136"><ele>560.0</ele><time>2026-03-29T11:28:16.999Z</time></trkpt><trkpt lat="43.03854519250572" lon="11.473773951764592"><ele>563.0</ele><time>2026-03-29T11:28:17.999Z</time></trkpt><trkpt lat="43.0384205854234" lon="11.473854365298548"><ele>566.0</ele><time>2026-03-29T11:28:18.999Z</time></trkpt><trkpt lat="43.03826323718526" lon="11.473940973564796"><ele>569.0</ele><time>2026-03-29T11:28:19.999Z</time></trkpt><trkpt lat="43.03808241907225" lon="11.474035610161854"><ele>569.0</ele><time>2026-03-29T11:28:20.999Z</time></trkpt><trkpt lat="43.037924547120014" lon="11.47412691325262"><ele>569.0</ele><time>2026-03-29T11:28:21.999Z</time></trkpt><trkpt lat="43.03782414358076" lon="11.47421459828811"><ele>569.0</ele><time>2026-03-29T11:28:22.999Z</time></trkpt><trkpt lat="43.037740880839884" lon="11.474312614237112"><ele>569.0</ele><time>2026-03-29T11:28:23.999Z</time></trkpt><trkpt lat="43.037683338211956" lon="11.47446134205705"><ele>573.0</ele><time>2026-03-29T11:28:24.999Z</time></trkpt><trkpt lat="43.03765566995993" lon="11.474641049101002"><ele>577.0</ele><time>2026-03-29T11:28:25.999Z</time></trkpt><trkpt lat="43.03766431536766" lon="11.474850164407282"><ele>581.0</ele><time>2026-03-29T11:28:26.999Z</time></trkpt><trkpt lat="43.037694510630175" lon="11.475100411951834"><ele>581.0</ele><time>2026-03-29T11:28:27.999Z</time></trkpt><trkpt lat="43.037712689402554" lon="11.475380841950194"><ele>581.0</ele><time>2026-03-29T11:28:28.999Z</time></trkpt><trkpt lat="43.037721408995345" lon="11.475657155413273"><ele>581.0</ele><time>2026-03-29T11:28:29.999Z</time></trkpt><trkpt lat="43.03773100310851" lon="11.475875345391426"><ele>583.6666666666666</ele><time>2026-03-29T11:28:30.999Z</time></trkpt><trkpt lat="43.03772840838897" lon="11.476102486779702"><ele>586.3333333333334</ele><time>2026-03-29T11:28:31.999Z</time></trkpt><trkpt lat="43.037753551628825" lon="11.4763521224706"><ele>589.0</ele><time>2026-03-29T11:28:32.999Z</time></trkpt><trkpt lat="43.03774789132136" lon="11.47659929544133"><ele>590.0</ele><time>2026-03-29T11:28:33.999Z</time></trkpt><trkpt lat="43.03775728443266" lon="11.476856739604251"><ele>591.0</ele><time>2026-03-29T11:28:34.999Z</time></trkpt><trkpt lat="43.037765106187365" lon="11.477092691454791"><ele>592.0</ele><time>2026-03-29T11:28:35.999Z</time></trkpt><trkpt lat="43.037764691500236" lon="11.477292295278192"><ele>594.0</ele><time>2026-03-29T11:28:36.999Z</time></trkpt><trkpt lat="43.03775393684495" lon="11.4774901382523"><ele>596.0</ele><time>2026-03-29T11:28:37.999Z</time></trkpt><trkpt lat="43.0377293830101" lon="11.477712124981943"><ele>598.0</ele><time>2026-03-29T11:28:38.999Z</time></trkpt><trkpt lat="43.037697780188196" lon="11.477924148063172"><ele>598.0</ele><time>2026-03-29T11:28:39.999Z</time></trkpt><trkpt lat="43.03765898797592" lon="11.47813703200358"><ele>598.0</ele><time>2026-03-29T11:28:40.999Z</time></trkpt><trkpt lat="43.037617914121306" lon="11.478320140219225"><ele>598.0</ele><time>2026-03-29T11:28:41.999Z</time></trkpt><trkpt lat="43.03756463964447" lon="11.478481626997116"><ele>598.0</ele><time>2026-03-29T11:28:42.999Z</time></trkpt><trkpt lat="43.037489731733025" lon="11.478653178312397"><ele>598.25</ele><time>2026-03-29T11:28:43.999Z</time></trkpt><trkpt lat="43.03739002671664" lon="11.478811482073741"><ele>598.5</ele><time>2026-03-29T11:28:44.999Z</time></trkpt><trkpt lat="43.03729898053252" lon="11.47895283968231"><ele>598.75</ele><time>2026-03-29T11:28:45.999Z</time></trkpt><trkpt lat="43.037229608666024" lon="11.479087464793844"><ele>599.0</ele><time>2026-03-29T11:28:46.999Z</time></trkpt><trkpt lat="43.03714282737163" lon="11.479209303094544"><ele>599.0</ele><time>2026-03-29T11:28:47.999Z</time></trkpt><trkpt lat="43.03706572496029" lon="11.479343106987603"><ele>599.0</ele><time>2026-03-29T11:28:48.999Z</time></trkpt><trkpt lat="43.0369939624095" lon="11.479453649869416"><ele>599.0</ele><time>2026-03-29T11:28:49.999Z</time></trkpt><trkpt lat="43.03693956789834" lon="11.479537085484294"><ele>599.0</ele><time>2026-03-29T11:28:50.999Z</time></trkpt><trkpt lat="43.03687133270627" lon="11.479638783030017"><ele>599.0</ele><time>2026-03-29T11:28:53Z</time></trkpt><trkpt lat="43.03683537988215" lon="11.479710216049757"><ele>599.4</ele><time>2026-03-29T11:28:56Z</time></trkpt><trkpt lat="43.03689353835809" lon="11.47988311764133"><ele>599.8</ele><time>2026-03-29T11:28:59Z</time></trkpt><trkpt lat="43.036966163761726" lon="11.479933642092405"><ele>600.2</ele><time>2026-03-29T11:29:00Z</time></trkpt><trkpt lat="43.03705703951978" lon="11.479980416610983"><ele>600.6</ele><time>2026-03-29T11:29:01Z</time></trkpt><trkpt lat="43.03714521614121" lon="11.48007232950845"><ele>601.0</ele><time>2026-03-29T11:29:02Z</time></trkpt><trkpt lat="43.03725766617587" lon="11.480161353957358"><ele>601.0</ele><time>2026-03-29T11:29:03Z</time></trkpt><trkpt lat="43.03737479889619" lon="11.48025965403499"><ele>601.0</ele><time>2026-03-29T11:29:04Z</time></trkpt><trkpt lat="43.03750132903701" lon="11.480369763877054"><ele>601.0</ele><time>2026-03-29T11:29:05Z</time></trkpt><trkpt lat="43.0376309457402" lon="11.480483318604536"><ele>601.0</ele><time>2026-03-29T11:29:06Z</time></trkpt><trkpt lat="43.03775881982033" lon="11.480595346669949"><ele>598.0</ele><time>2026-03-29T11:29:07Z</time></trkpt><trkpt lat="43.03789529873874" lon="11.48071491332129"><ele>595.0</ele><time>2026-03-29T11:29:08Z</time></trkpt><trkpt lat="43.03803527178456" lon="11.480837069542039"><ele>592.0</ele><time>2026-03-29T11:29:09Z</time></trkpt><trkpt lat="43.03817528713809" lon="11.48096058627731"><ele>591.3333333333334</ele><time>2026-03-29T11:29:10Z</time></trkpt><trkpt lat="43.03831320664003" lon="11.481082017103123"><ele>590.6666666666666</ele><time>2026-03-29T11:29:11Z</time></trkpt><trkpt lat="43.03845866563296" lon="11.481210017419304"><ele>590.0</ele><time>2026-03-29T11:29:12Z</time></trkpt><trkpt lat="43.038613529558035" lon="11.481347299509284"><ele>589.6666666666666</ele><time>2026-03-29T11:29:13Z</time></trkpt><trkpt lat="43.03877740647184" lon="11.481493401297028"><ele>589.3333333333334</ele><time>2026-03-29T11:29:14Z</time></trkpt><trkpt lat="43.03895155824186" lon="11.481648663697742"><ele>589.0</ele><time>2026-03-29T11:29:15Z</time></trkpt><trkpt lat="43.039126306748805" lon="11.481804457996628"><ele>591.3333333333334</ele><time>2026-03-29T11:29:16Z</time></trkpt><trkpt lat="43.039284538271225" lon="11.481942933100513"><ele>593.6666666666666</ele><time>2026-03-29T11:29:17Z</time></trkpt><trkpt lat="43.03942970436102" lon="11.482069895600041"><ele>596.0</ele><time>2026-03-29T11:29:18Z</time></trkpt><trkpt lat="43.039568662348486" lon="11.482191428679778"><ele>599.0</ele><time>2026-03-29T11:29:19Z</time></trkpt><trkpt lat="43.039712667753" lon="11.482317545073698"><ele>602.0</ele><time>2026-03-29T11:29:20Z</time></trkpt><trkpt lat="43.0398620626663" lon="11.482447212203214"><ele>605.0</ele><time>2026-03-29T11:29:21Z</time></trkpt><trkpt lat="43.040009226297556" lon="11.48257076690881"><ele>606.6666666666666</ele><time>2026-03-29T11:29:22Z</time></trkpt><trkpt lat="43.04014332699922" lon="11.482669805321597"><ele>608.3333333333334</ele><time>2026-03-29T11:29:23Z</time></trkpt><trkpt lat="43.040286697184165" lon="11.48273321014719"><ele>610.0</ele><time>2026-03-29T11:29:24Z</time></trkpt><trkpt lat="43.040441890171834" lon="11.482816910186132"><ele>610.0</ele><time>2026-03-29T11:29:25Z</time></trkpt><trkpt lat="43.04060493508355" lon="11.482886035675714"><ele>610.0</ele><time>2026-03-29T11:29:26Z</time></trkpt><trkpt lat="43.04078441707269" lon="11.482950297163528"><ele>610.0</ele><time>2026-03-29T11:29:27Z</time></trkpt><trkpt lat="43.04097239773536" lon="11.483002580265778"><ele>612.6666666666667</ele><time>2026-03-29T11:29:28Z</time></trkpt><trkpt lat="43.04115548424403" lon="11.483062282226921"><ele>615.3333333333334</ele><time>2026-03-29T11:29:29Z</time></trkpt><trkpt lat="43.04131657279202" lon="11.483107878499776"><ele>618.0</ele><time>2026-03-29T11:29:30Z</time></trkpt><trkpt lat="43.04148539999761" lon="11.48316224901917"><ele>616.0</ele><time>2026-03-29T11:29:31Z</time></trkpt><trkpt lat="43.04166670762043" lon="11.483215687463195"><ele>614.0</ele><time>2026-03-29T11:29:32Z</time></trkpt><trkpt lat="43.04185415141352" lon="11.483265336223113"><ele>612.0</ele><time>2026-03-29T11:29:33Z</time></trkpt><trkpt lat="43.042044242541266" lon="11.483319828622115"><ele>612.0</ele><time>2026-03-29T11:29:34Z</time></trkpt><trkpt lat="43.04222055376783" lon="11.48337074172104"><ele>612.0</ele><time>2026-03-29T11:29:35Z</time></trkpt><trkpt lat="43.042379321784196" lon="11.483418085911316"><ele>612.0</ele><time>2026-03-29T11:29:36Z</time></trkpt><trkpt lat="43.04252740389159" lon="11.483463029631496"><ele>612.25</ele><time>2026-03-29T11:29:37Z</time></trkpt><trkpt lat="43.042660292340955" lon="11.483498222116301"><ele>612.5</ele><time>2026-03-29T11:29:38Z</time></trkpt><trkpt lat="43.042785459369874" lon="11.483536617934417"><ele>612.75</ele><time>2026-03-29T11:29:39Z</time></trkpt><trkpt lat="43.042903534185484" lon="11.483571684952308"><ele>613.0</ele><time>2026-03-29T11:29:40Z</time></trkpt><trkpt lat="43.04302035592375" lon="11.483609594268618"><ele>613.0</ele><time>2026-03-29T11:29:41Z</time></trkpt><trkpt lat="43.04313378703882" lon="11.483641087886857"><ele>613.0</ele><time>2026-03-29T11:29:42Z</time></trkpt><trkpt lat="43.04325270491814" lon="11.483677409789435"><ele>613.0</ele><time>2026-03-29T11:29:43Z</time></trkpt><trkpt lat="43.04337170653485" lon="11.48371423843965"><ele>613.0</ele><time>2026-03-29T11:29:44Z</time></trkpt><trkpt lat="43.04349402782219" lon="11.483756894762985"><ele>612.5</ele><time>2026-03-29T11:29:45Z</time></trkpt><trkpt lat="43.043613939780464" lon="11.483835965817157"><ele>612.0</ele><time>2026-03-29T11:29:46Z</time></trkpt><trkpt lat="43.04371476748262" lon="11.483908440592307"><ele>611.5</ele><time>2026-03-29T11:29:47Z</time></trkpt><trkpt lat="43.04380675929236" lon="11.483990907363298"><ele>611.0</ele><time>2026-03-29T11:29:48Z</time></trkpt><trkpt lat="43.043916633440716" lon="11.484058103887945"><ele>611.0</ele><time>2026-03-29T11:29:49Z</time></trkpt><trkpt lat="43.04401417797013" lon="11.484154002101574"><ele>611.0</ele><time>2026-03-29T11:29:50Z</time></trkpt><trkpt lat="43.04411090689491" lon="11.484252779471165"><ele>611.0</ele><time>2026-03-29T11:29:51Z</time></trkpt><trkpt lat="43.04421069548343" lon="11.48435126831684"><ele>611.0</ele><time>2026-03-29T11:29:52Z</time></trkpt><trkpt lat="43.04430084361527" lon="11.484444417642935"><ele>611.0</ele><time>2026-03-29T11:29:53Z</time></trkpt><trkpt lat="43.04437598185343" lon="11.484540376749994"><ele>611.0</ele><time>2026-03-29T11:29:54Z</time></trkpt><trkpt lat="43.04443192551293" lon="11.484624164653347"><ele>611.0</ele><time>2026-03-29T11:29:55Z</time></trkpt><trkpt lat="43.044493942873764" lon="11.484740259949415"><ele>611.0</ele><time>2026-03-29T11:29:57Z</time></trkpt><trkpt lat="43.04454924081519" lon="11.484860973829349"><ele>611.0</ele><time>2026-03-29T11:29:59Z</time></trkpt><trkpt lat="43.04457982470467" lon="11.485060067344836"><ele>611.1666666666666</ele><time>2026-03-29T11:30:01Z</time></trkpt><trkpt lat="43.04461298815957" lon="11.48517421818099"><ele>611.3333333333333</ele><time>2026-03-29T11:30:01.999Z</time></trkpt><trkpt lat="43.044643668975766" lon="11.485283541015987"><ele>611.5</ele><time>2026-03-29T11:30:02.999Z</time></trkpt><trkpt lat="43.04467224997448" lon="11.4853853817842"><ele>611.6666666666666</ele><time>2026-03-29T11:30:03.999Z</time></trkpt><trkpt lat="43.04469483220776" lon="11.485465847537888"><ele>611.8333333333334</ele><time>2026-03-29T11:30:04.999Z</time></trkpt><trkpt lat="43.04471764708847" lon="11.485547142197884"><ele>612.0</ele><time>2026-03-29T11:30:05.999Z</time></trkpt><trkpt lat="43.0447425813109" lon="11.48563598853774"><ele>612.2857142857142</ele><time>2026-03-29T11:30:06.999Z</time></trkpt><trkpt lat="43.0447665328691" lon="11.485721333447861"><ele>612.5714285714286</ele><time>2026-03-29T11:30:07.999Z</time></trkpt><trkpt lat="43.04478926230782" lon="11.485802323664096"><ele>612.8571428571429</ele><time>2026-03-29T11:30:08.999Z</time></trkpt><trkpt lat="43.04481411935493" lon="11.48589136276152"><ele>613.1428571428571</ele><time>2026-03-29T11:30:09.999Z</time></trkpt><trkpt lat="43.044839653482356" lon="11.485983864177326"><ele>613.4285714285714</ele><time>2026-03-29T11:30:10.999Z</time></trkpt><trkpt lat="43.04486873074546" lon="11.486089053328337"><ele>613.7142857142857</ele><time>2026-03-29T11:30:11.999Z</time></trkpt><trkpt lat="43.0448982934539" lon="11.486195998364378"><ele>614.0</ele><time>2026-03-29T11:30:12.999Z</time></trkpt><trkpt lat="43.044930953175935" lon="11.486313136602256"><ele>614.2</ele><time>2026-03-29T11:30:13.999Z</time></trkpt><trkpt lat="43.04496050148009" lon="11.48641620136997"><ele>614.4</ele><time>2026-03-29T11:30:14.999Z</time></trkpt><trkpt lat="43.044993020624325" lon="11.486524668396086"><ele>614.6</ele><time>2026-03-29T11:30:15.999Z</time></trkpt><trkpt lat="43.04502862552205" lon="11.48663991722681"><ele>614.8</ele><time>2026-03-29T11:30:16.999Z</time></trkpt><trkpt lat="43.045067727505746" lon="11.48675634298394"><ele>615.0</ele><time>2026-03-29T11:30:17.999Z</time></trkpt><trkpt lat="43.0451215911354" lon="11.486874203059463"><ele>615.0</ele><time>2026-03-29T11:30:18.999Z</time></trkpt><trkpt lat="43.04520150491123" lon="11.486979753888507"><ele>615.0</ele><time>2026-03-29T11:30:19.999Z</time></trkpt><trkpt lat="43.04530262072674" lon="11.48704794331058"><ele>615.0</ele><time>2026-03-29T11:30:20.999Z</time></trkpt><trkpt lat="43.04541969025926" lon="11.487055886741238"><ele>615.0</ele><time>2026-03-29T11:30:21.999Z</time></trkpt><trkpt lat="43.04554350670745" lon="11.487067666617083"><ele>615.0</ele><time>2026-03-29T11:30:22.999Z</time></trkpt><trkpt lat="43.04567547388064" lon="11.487095415112293"><ele>615.0</ele><time>2026-03-29T11:30:23.999Z</time></trkpt><trkpt lat="43.04578712312478" lon="11.487086761255236"><ele>615.0</ele><time>2026-03-29T11:30:24.999Z</time></trkpt><trkpt lat="43.04588330544105" lon="11.48716047647121"><ele>615.0</ele><time>2026-03-29T11:30:25.999Z</time></trkpt><trkpt lat="43.04596637656794" lon="11.487260115527475"><ele>614.5</ele><time>2026-03-29T11:30:26.999Z</time></trkpt><trkpt lat="43.0460544478932" lon="11.487391352369542"><ele>614.0</ele><time>2026-03-29T11:30:27.999Z</time></trkpt><trkpt lat="43.04612000296702" lon="11.48753248654643"><ele>613.5</ele><time>2026-03-29T11:30:28.999Z</time></trkpt><trkpt lat="43.04617473514251" lon="11.487678804444185"><ele>613.0</ele><time>2026-03-29T11:30:29.999Z</time></trkpt><trkpt lat="43.04621874654323" lon="11.487845524970803"><ele>610.25</ele><time>2026-03-29T11:30:30.999Z</time></trkpt><trkpt lat="43.04625972986962" lon="11.488029133678832"><ele>607.5</ele><time>2026-03-29T11:30:31.999Z</time></trkpt><trkpt lat="43.04629190623672" lon="11.488204818138602"><ele>604.75</ele><time>2026-03-29T11:30:32.999Z</time></trkpt><trkpt lat="43.046325478310784" lon="11.48837006433826"><ele>602.0</ele><time>2026-03-29T11:30:33.999Z</time></trkpt><trkpt lat="43.04636026023389" lon="11.4885369825941"><ele>602.0</ele><time>2026-03-29T11:30:34.999Z</time></trkpt><trkpt lat="43.046393188420495" lon="11.488697254557673"><ele>602.0</ele><time>2026-03-29T11:30:35.999Z</time></trkpt><trkpt lat="43.04642263491285" lon="11.488843495702238"><ele>602.0</ele><time>2026-03-29T11:30:36.999Z</time></trkpt><trkpt lat="43.046456399410296" lon="11.488978626474259"><ele>602.0</ele><time>2026-03-29T11:30:37.999Z</time></trkpt><trkpt lat="43.046498589394744" lon="11.489114203562346"><ele>602.0</ele><time>2026-03-29T11:30:38.999Z</time></trkpt><trkpt lat="43.04657199435754" lon="11.48922462582418"><ele>600.4</ele><time>2026-03-29T11:30:39.999Z</time></trkpt><trkpt lat="43.046626581219364" lon="11.489337469971815"><ele>598.8000000000001</ele><time>2026-03-29T11:30:40.999Z</time></trkpt><trkpt lat="43.0467035496925" lon="11.489421750867972"><ele>597.2</ele><time>2026-03-29T11:30:41.999Z</time></trkpt><trkpt lat="43.04679281834632" lon="11.48948444232301"><ele>595.6</ele><time>2026-03-29T11:30:42.999Z</time></trkpt><trkpt lat="43.0468976448981" lon="11.489515334000975"><ele>594.0</ele><time>2026-03-29T11:30:43.999Z</time></trkpt><trkpt lat="43.04700565365744" lon="11.489545923400545"><ele>594.6</ele><time>2026-03-29T11:30:44.999Z</time></trkpt><trkpt lat="43.047110068273376" lon="11.489552754447516"><ele>595.2</ele><time>2026-03-29T11:30:45.999Z</time></trkpt><trkpt lat="43.04720429845231" lon="11.489540719905852"><ele>595.8000000000001</ele><time>2026-03-29T11:30:46.999Z</time></trkpt><trkpt lat="43.047304684597044" lon="11.4895809217238"><ele>596.4</ele><time>2026-03-29T11:30:47.999Z</time></trkpt><trkpt lat="43.04739794078154" lon="11.489624286089692"><ele>597.0</ele><time>2026-03-29T11:30:48.999Z</time></trkpt><trkpt lat="43.04749633993827" lon="11.489706382095534"><ele>598.5</ele><time>2026-03-29T11:30:49.999Z</time></trkpt><trkpt lat="43.04760437150367" lon="11.48981868261355"><ele>600.0</ele><time>2026-03-29T11:30:50.999Z</time></trkpt><trkpt lat="43.047711462567094" lon="11.489941032781848"><ele>601.5</ele><time>2026-03-29T11:30:51.999Z</time></trkpt><trkpt lat="43.04781743382167" lon="11.490017537977304"><ele>603.0</ele><time>2026-03-29T11:30:52.999Z</time></trkpt><trkpt lat="43.04791844987865" lon="11.490082228144248"><ele>603.0</ele><time>2026-03-29T11:30:53.999Z</time></trkpt><trkpt lat="43.04803124208884" lon="11.490099621228751"><ele>603.0</ele><time>2026-03-29T11:30:54.999Z</time></trkpt><trkpt lat="43.04816534754885" lon="11.490089014521093"><ele>603.0</ele><time>2026-03-29T11:30:55.999Z</time></trkpt><trkpt lat="43.048302517390105" lon="11.490029619517546"><ele>603.0</ele><time>2026-03-29T11:30:56.999Z</time></trkpt><trkpt lat="43.04841785929909" lon="11.489992723399357"><ele>603.0</ele><time>2026-03-29T11:30:58Z</time></trkpt><trkpt lat="43.048527288387476" lon="11.489967394524424"><ele>603.0</ele><time>2026-03-29T11:30:59Z</time></trkpt><trkpt lat="43.0486302412222" lon="11.48994792180798"><ele>603.0</ele><time>2026-03-29T11:31:00Z</time></trkpt><trkpt lat="43.048728991847774" lon="11.489964765267548"><ele>603.0</ele><time>2026-03-29T11:31:01Z</time></trkpt><trkpt lat="43.04881614440837" lon="11.490033307719122"><ele>603.0</ele><time>2026-03-29T11:31:02Z</time></trkpt><trkpt lat="43.0488729519295" lon="11.490165792607643"><ele>603.0</ele><time>2026-03-29T11:31:03Z</time></trkpt><trkpt lat="43.04890741427538" lon="11.490306785556085"><ele>603.0</ele><time>2026-03-29T11:31:04Z</time></trkpt><trkpt lat="43.04894611343797" lon="11.490440809195341"><ele>603.0</ele><time>2026-03-29T11:31:05Z</time></trkpt><trkpt lat="43.04898541661253" lon="11.490583653847665"><ele>603.0</ele><time>2026-03-29T11:31:06Z</time></trkpt><trkpt lat="43.049025917155035" lon="11.490730849383953"><ele>603.0</ele><time>2026-03-29T11:31:07Z</time></trkpt><trkpt lat="43.04907100835706" lon="11.49086158325103"><ele>601.4</ele><time>2026-03-29T11:31:08Z</time></trkpt><trkpt lat="43.049119510076814" lon="11.490980429907223"><ele>599.8</ele><time>2026-03-29T11:31:09Z</time></trkpt><trkpt lat="43.04921086983051" lon="11.491067511707678"><ele>598.2</ele><time>2026-03-29T11:31:10Z</time></trkpt><trkpt lat="43.04931377745859" lon="11.491074096431008"><ele>596.6</ele><time>2026-03-29T11:31:11Z</time></trkpt><trkpt lat="43.049419669688284" lon="11.491069215654647"><ele>595.0</ele><time>2026-03-29T11:31:12Z</time></trkpt><trkpt lat="43.04952875109679" lon="11.491043108911375"><ele>595.0</ele><time>2026-03-29T11:31:13Z</time></trkpt><trkpt lat="43.04962372226681" lon="11.491011498163733"><ele>595.0</ele><time>2026-03-29T11:31:14Z</time></trkpt><trkpt lat="43.04972912267655" lon="11.490996604907183"><ele>595.0</ele><time>2026-03-29T11:31:15Z</time></trkpt><trkpt lat="43.04984312309496" lon="11.490998549026479"><ele>595.0</ele><time>2026-03-29T11:31:16Z</time></trkpt><trkpt lat="43.04996391010249" lon="11.491015906728954"><ele>595.0</ele><time>2026-03-29T11:31:17Z</time></trkpt><trkpt lat="43.050060946496544" lon="11.491030253822231"><ele>595.3333333333334</ele><time>2026-03-29T11:31:18Z</time></trkpt><trkpt lat="43.050144520456605" lon="11.4910182384887"><ele>595.6666666666667</ele><time>2026-03-29T11:31:19Z</time></trkpt><trkpt lat="43.05021341176133" lon="11.49097246876054"><ele>596.0</ele><time>2026-03-29T11:31:20Z</time></trkpt><trkpt lat="43.05026402082755" lon="11.490913112024266"><ele>596.3333333333334</ele><time>2026-03-29T11:31:21Z</time></trkpt><trkpt lat="43.050310181886736" lon="11.490838980503723"><ele>596.6666666666666</ele><time>2026-03-29T11:31:22Z</time></trkpt><trkpt lat="43.050354429649296" lon="11.490749602714878"><ele>597.0</ele><time>2026-03-29T11:31:23Z</time></trkpt><trkpt lat="43.0504008968313" lon="11.490649232792405"><ele>597.0</ele><time>2026-03-29T11:31:24Z</time></trkpt><trkpt lat="43.050451324773874" lon="11.490539674195574"><ele>597.0</ele><time>2026-03-29T11:31:25Z</time></trkpt><trkpt lat="43.05049857454111" lon="11.49043508834745"><ele>597.0</ele><time>2026-03-29T11:31:26Z</time></trkpt><trkpt lat="43.05054324999381" lon="11.490342631447193"><ele>597.0</ele><time>2026-03-29T11:31:27Z</time></trkpt><trkpt lat="43.050584218071656" lon="11.490252500396439"><ele>597.0</ele><time>2026-03-29T11:31:28Z</time></trkpt><trkpt lat="43.050630269125925" lon="11.490158290979362"><ele>597.0</ele><time>2026-03-29T11:31:29Z</time></trkpt><trkpt lat="43.05067903698588" lon="11.490058925634756"><ele>597.8333333333334</ele><time>2026-03-29T11:31:30Z</time></trkpt><trkpt lat="43.05072531187059" lon="11.489948188001755"><ele>598.6666666666666</ele><time>2026-03-29T11:31:31Z</time></trkpt><trkpt lat="43.05077364946557" lon="11.489833179826944"><ele>599.5</ele><time>2026-03-29T11:31:32Z</time></trkpt><trkpt lat="43.05081824423406" lon="11.489728839656335"><ele>600.3333333333333</ele><time>2026-03-29T11:31:33Z</time></trkpt><trkpt lat="43.05086603580102" lon="11.489639074970574"><ele>601.1666666666666</ele><time>2026-03-29T11:31:34Z</time></trkpt><trkpt lat="43.05092603128254" lon="11.489566407146437"><ele>602.0</ele><time>2026-03-29T11:31:35Z</time></trkpt><trkpt lat="43.05099866119091" lon="11.489521484848781"><ele>602.0</ele><time>2026-03-29T11:31:36Z</time></trkpt><trkpt lat="43.05108887028964" lon="11.48951022545425"><ele>602.0</ele><time>2026-03-29T11:31:37Z</time></trkpt><trkpt lat="43.05117307343818" lon="11.489559327232682"><ele>602.0</ele><time>2026-03-29T11:31:38Z</time></trkpt><trkpt lat="43.05124887535939" lon="11.489633451991894"><ele>602.0</ele><time>2026-03-29T11:31:39Z</time></trkpt><trkpt lat="43.05129820608278" lon="11.489740874056706"><ele>602.0</ele><time>2026-03-29T11:31:40Z</time></trkpt><trkpt lat="43.051353674182224" lon="11.489863420061614"><ele>598.75</ele><time>2026-03-29T11:31:41Z</time></trkpt><trkpt lat="43.05140819138084" lon="11.48999169278286"><ele>595.5</ele><time>2026-03-29T11:31:42Z</time></trkpt><trkpt lat="43.051464536128506" lon="11.490128191344953"><ele>592.25</ele><time>2026-03-29T11:31:43Z</time></trkpt><trkpt lat="43.05154709853986" lon="11.490248063801406"><ele>589.0</ele><time>2026-03-29T11:31:44Z</time></trkpt><trkpt lat="43.05160169985428" lon="11.490379320900882"><ele>585.8</ele><time>2026-03-29T11:31:45Z</time></trkpt><trkpt lat="43.05165594827959" lon="11.490493781131947"><ele>582.5999999999999</ele><time>2026-03-29T11:31:46Z</time></trkpt><trkpt lat="43.05172690822786" lon="11.49060005951255"><ele>579.4</ele><time>2026-03-29T11:31:47Z</time></trkpt><trkpt lat="43.05179835240126" lon="11.490713912676249"><ele>576.1999999999999</ele><time>2026-03-29T11:31:48Z</time></trkpt><trkpt lat="43.051901542823614" lon="11.490785403026203"><ele>573.0</ele><time>2026-03-29T11:31:49Z</time></trkpt><trkpt lat="43.0519954544703" lon="11.490872264822277"><ele>573.0</ele><time>2026-03-29T11:31:50Z</time></trkpt><trkpt lat="43.05208693687816" lon="11.490942833523476"><ele>573.0</ele><time>2026-03-29T11:31:51Z</time></trkpt><trkpt lat="43.052185792349704" lon="11.49098317245509"><ele>573.0</ele><time>2026-03-29T11:31:52Z</time></trkpt><trkpt lat="43.05229093231329" lon="11.491001964505035"><ele>573.0</ele><time>2026-03-29T11:31:53Z</time></trkpt><trkpt lat="43.05239847616818" lon="11.490989873019137"><ele>573.0</ele><time>2026-03-29T11:31:54Z</time></trkpt><trkpt lat="43.05250248826394" lon="11.490944779541683"><ele>573.8</ele><time>2026-03-29T11:31:55Z</time></trkpt><trkpt lat="43.05259871257574" lon="11.490892472249799"><ele>574.5999999999999</ele><time>2026-03-29T11:31:56Z</time></trkpt><trkpt lat="43.052693332079386" lon="11.490835256035794"><ele>575.4000000000001</ele><time>2026-03-29T11:31:57Z</time></trkpt><trkpt lat="43.052785794134685" lon="11.490785387422607"><ele>576.2</ele><time>2026-03-29T11:31:58Z</time></trkpt><trkpt lat="43.05287187983033" lon="11.49073453155355"><ele>577.0</ele><time>2026-03-29T11:31:59Z</time></trkpt><trkpt lat="43.052953108969184" lon="11.490676799294741"><ele>577.0</ele><time>2026-03-29T11:32:00Z</time></trkpt><trkpt lat="43.05303081514845" lon="11.490599432239673"><ele>577.0</ele><time>2026-03-29T11:32:01Z</time></trkpt><trkpt lat="43.05309806616084" lon="11.490494942568967"><ele>577.0</ele><time>2026-03-29T11:32:02Z</time></trkpt><trkpt lat="43.053148843610614" lon="11.49036943126165"><ele>577.0</ele><time>2026-03-29T11:32:03Z</time></trkpt><trkpt lat="43.053186727761805" lon="11.490239594561173"><ele>577.0</ele><time>2026-03-29T11:32:04Z</time></trkpt><trkpt lat="43.0532149007913" lon="11.490112819820803"><ele>575.4</ele><time>2026-03-29T11:32:05Z</time></trkpt><trkpt lat="43.05323885698321" lon="11.489991178040666"><ele>573.8000000000001</ele><time>2026-03-29T11:32:06Z</time></trkpt><trkpt lat="43.053262227786746" lon="11.489860948419564"><ele>572.2</ele><time>2026-03-29T11:32:07Z</time></trkpt><trkpt lat="43.053285918650694" lon="11.489732402676568"><ele>570.6</ele><time>2026-03-29T11:32:08Z</time></trkpt><trkpt lat="43.05331037872487" lon="11.489608437309633"><ele>569.0</ele><time>2026-03-29T11:32:09Z</time></trkpt><trkpt lat="43.05333099120195" lon="11.489481122951204"><ele>569.0</ele><time>2026-03-29T11:32:09.999Z</time></trkpt><trkpt lat="43.05335317463078" lon="11.489353572558597"><ele>569.0</ele><time>2026-03-29T11:32:10.999Z</time></trkpt><trkpt lat="43.05338620987571" lon="11.489228643441841"><ele>569.0</ele><time>2026-03-29T11:32:11.999Z</time></trkpt><trkpt lat="43.05343164890331" lon="11.48911609855428"><ele>569.0</ele><time>2026-03-29T11:32:12.999Z</time></trkpt><trkpt lat="43.05349500328633" lon="11.489024829247489"><ele>569.0</ele><time>2026-03-29T11:32:13.999Z</time></trkpt><trkpt lat="43.05356627144393" lon="11.488961926410033"><ele>569.0</ele><time>2026-03-29T11:32:14.999Z</time></trkpt><trkpt lat="43.05364697368159" lon="11.488922749050731"><ele>569.0</ele><time>2026-03-29T11:32:15.999Z</time></trkpt><trkpt lat="43.05373406062581" lon="11.488892478932184"><ele>569.0</ele><time>2026-03-29T11:32:16.999Z</time></trkpt><trkpt lat="43.05381682495354" lon="11.488863706916181"><ele>569.0</ele><time>2026-03-29T11:32:17.999Z</time></trkpt><trkpt lat="43.05389776962768" lon="11.488836276638168"><ele>569.0</ele><time>2026-03-29T11:32:18.999Z</time></trkpt><trkpt lat="43.05398091465907" lon="11.488811000190701"><ele>569.0</ele><time>2026-03-29T11:32:19.999Z</time></trkpt><trkpt lat="43.05406673629393" lon="11.488783129464288"><ele>568.3333333333333</ele><time>2026-03-29T11:32:20.999Z</time></trkpt><trkpt lat="43.054146908972385" lon="11.488752438353627"><ele>567.6666666666666</ele><time>2026-03-29T11:32:21.999Z</time></trkpt><trkpt lat="43.05422625929924" lon="11.488721449540376"><ele>567.0</ele><time>2026-03-29T11:32:22.999Z</time></trkpt><trkpt lat="43.05431042989043" lon="11.488698079451572"><ele>566.3333333333334</ele><time>2026-03-29T11:32:23.999Z</time></trkpt><trkpt lat="43.054405059696194" lon="11.48868598744279"><ele>565.6666666666667</ele><time>2026-03-29T11:32:24.999Z</time></trkpt><trkpt lat="43.05449514036077" lon="11.488694722526434"><ele>565.0</ele><time>2026-03-29T11:32:25.999Z</time></trkpt><trkpt lat="43.05458576808397" lon="11.488720710163363"><ele>565.0</ele><time>2026-03-29T11:32:26.999Z</time></trkpt><trkpt lat="43.05466478551541" lon="11.488758621805607"><ele>565.0</ele><time>2026-03-29T11:32:27.999Z</time></trkpt><trkpt lat="43.054733079853385" lon="11.488796961734183"><ele>565.0</ele><time>2026-03-29T11:32:28.999Z</time></trkpt><trkpt lat="43.05479460274138" lon="11.48883577136609"><ele>565.0</ele><time>2026-03-29T11:32:29.999Z</time></trkpt><trkpt lat="43.05485109701356" lon="11.488877333667672"><ele>565.0</ele><time>2026-03-29T11:32:30.999Z</time></trkpt><trkpt lat="43.05493400791024" lon="11.48894398217516"><ele>565.0</ele><time>2026-03-29T11:32:32.999Z</time></trkpt><trkpt lat="43.05498987262621" lon="11.48898699759007"><ele>562.6</ele><time>2026-03-29T11:32:43.999Z</time></trkpt><trkpt lat="43.05504678693241" lon="11.489037549299017"><ele>560.2</ele><time>2026-03-29T11:32:45.999Z</time></trkpt><trkpt lat="43.05512695070419" lon="11.489118071081233"><ele>557.8</ele><time>2026-03-29T11:32:47.999Z</time></trkpt><trkpt lat="43.055264108553445" lon="11.489102161621943"><ele>555.4</ele><time>2026-03-29T11:32:49.999Z</time></trkpt><trkpt lat="43.055346310626135" lon="11.489072441614098"><ele>553.0</ele><time>2026-03-29T11:32:50.999Z</time></trkpt><trkpt lat="43.05542537210882" lon="11.48904130592946"><ele>553.0</ele><time>2026-03-29T11:32:51.999Z</time></trkpt><trkpt lat="43.05550601351769" lon="11.489013111701835"><ele>553.0</ele><time>2026-03-29T11:32:52.999Z</time></trkpt><trkpt lat="43.05559627105503" lon="11.488978670366553"><ele>553.0</ele><time>2026-03-29T11:32:53.999Z</time></trkpt><trkpt lat="43.055695239496856" lon="11.488951394310844"><ele>553.0</ele><time>2026-03-29T11:32:54.999Z</time></trkpt><trkpt lat="43.05579465329819" lon="11.488965852480263"><ele>553.0</ele><time>2026-03-29T11:32:55.999Z</time></trkpt><trkpt lat="43.05588151321736" lon="11.489004890784194"><ele>552.1999999999999</ele><time>2026-03-29T11:32:56.999Z</time></trkpt><trkpt lat="43.05597524659019" lon="11.489043424634936"><ele>551.4</ele><time>2026-03-29T11:32:57.999Z</time></trkpt><trkpt lat="43.05606462810682" lon="11.48905557656937"><ele>550.5999999999999</ele><time>2026-03-29T11:32:58.999Z</time></trkpt><trkpt lat="43.056172151001846" lon="11.489035018959783"><ele>549.8</ele><time>2026-03-29T11:32:59.999Z</time></trkpt><trkpt lat="43.056293837779826" lon="11.488985907941299"><ele>549.0</ele><time>2026-03-29T11:33:00.999Z</time></trkpt><trkpt lat="43.056382351712394" lon="11.488943024997813"><ele>549.0</ele><time>2026-03-29T11:33:01.999Z</time></trkpt><trkpt lat="43.05646178120544" lon="11.488917715753793"><ele>549.0</ele><time>2026-03-29T11:33:02.999Z</time></trkpt><trkpt lat="43.05652476676694" lon="11.488885582773694"><ele>549.0</ele><time>2026-03-29T11:33:04Z</time></trkpt><trkpt lat="43.05658536056977" lon="11.488859791348107"><ele>549.0</ele><time>2026-03-29T11:33:05Z</time></trkpt><trkpt lat="43.05669499564862" lon="11.488823610655169"><ele>549.0</ele><time>2026-03-29T11:33:07Z</time></trkpt><trkpt lat="43.056765482032645" lon="11.488792376445721"><ele>549.0</ele><time>2026-03-29T11:33:09Z</time></trkpt><trkpt lat="43.05684465640376" lon="11.48872512676091"><ele>546.8333333333334</ele><time>2026-03-29T11:33:12Z</time></trkpt><trkpt lat="43.056889558304505" lon="11.4886439173022"><ele>544.6666666666666</ele><time>2026-03-29T11:33:14Z</time></trkpt><trkpt lat="43.05694054972604" lon="11.488535173765461"><ele>542.5</ele><time>2026-03-29T11:33:16Z</time></trkpt><trkpt lat="43.05697667931838" lon="11.488461908040517"><ele>540.3333333333333</ele><time>2026-03-29T11:33:17Z</time></trkpt><trkpt lat="43.05701465626517" lon="11.488378028217497"><ele>538.1666666666666</ele><time>2026-03-29T11:33:18Z</time></trkpt><trkpt lat="43.057053829892" lon="11.488296202902614"><ele>536.0</ele><time>2026-03-29T11:33:19Z</time></trkpt><trkpt lat="43.05709898122105" lon="11.488212109608881"><ele>536.0</ele><time>2026-03-29T11:33:21Z</time></trkpt><trkpt lat="43.05714782519344" lon="11.488131862726968"><ele>536.0</ele><time>2026-03-29T11:33:43Z</time></trkpt><trkpt lat="43.05718876452218" lon="11.488017860732029"><ele>536.0</ele><time>2026-03-29T11:33:47Z</time></trkpt><trkpt lat="43.057260162521224" lon="11.487877799006952"><ele>536.0</ele><time>2026-03-29T11:33:49Z</time></trkpt><trkpt lat="43.0573073385085" lon="11.487793528094087"><ele>536.0</ele><time>2026-03-29T11:33:50Z</time></trkpt><trkpt lat="43.05735006165705" lon="11.487714276508072"><ele>536.0</ele><time>2026-03-29T11:33:51Z</time></trkpt><trkpt lat="43.05739203412711" lon="11.487631910774978"><ele>537.0</ele><time>2026-03-29T11:33:52Z</time></trkpt><trkpt lat="43.05744174195335" lon="11.48753929575371"><ele>538.0</ele><time>2026-03-29T11:33:53Z</time></trkpt><trkpt lat="43.05749653162787" lon="11.4874485312467"><ele>539.0</ele><time>2026-03-29T11:33:54Z</time></trkpt><trkpt lat="43.05755840435162" lon="11.48735976651073"><ele>540.0</ele><time>2026-03-29T11:33:55Z</time></trkpt><trkpt lat="43.05763013713509" lon="11.48726927144156"><ele>541.0</ele><time>2026-03-29T11:33:56Z</time></trkpt><trkpt lat="43.05771322143431" lon="11.48717626089854"><ele>537.6</ele><time>2026-03-29T11:33:57Z</time></trkpt><trkpt lat="43.05779731670906" lon="11.487083111269005"><ele>534.2</ele><time>2026-03-29T11:33:58Z</time></trkpt><trkpt lat="43.05787377907505" lon="11.486998190007574"><ele>530.8</ele><time>2026-03-29T11:33:59Z</time></trkpt><trkpt lat="43.057953118274085" lon="11.48690578949197"><ele>527.4</ele><time>2026-03-29T11:34:00Z</time></trkpt><trkpt lat="43.05802982436928" lon="11.48681567572424"><ele>524.0</ele><time>2026-03-29T11:34:01Z</time></trkpt><trkpt lat="43.05810161463755" lon="11.48672871637787"><ele>524.0</ele><time>2026-03-29T11:34:02Z</time></trkpt><trkpt lat="43.05815995383845" lon="11.486659277231437"><ele>524.0</ele><time>2026-03-29T11:34:03Z</time></trkpt><trkpt lat="43.058216739851815" lon="11.486599094403108"><ele>524.0</ele><time>2026-03-29T11:34:04Z</time></trkpt><trkpt lat="43.05827254123123" lon="11.486536585741955"><ele>524.0</ele><time>2026-03-29T11:34:05Z</time></trkpt><trkpt lat="43.05832959938635" lon="11.486469467654056"><ele>524.0</ele><time>2026-03-29T11:34:06Z</time></trkpt><trkpt lat="43.05837972757264" lon="11.486414415905495"><ele>524.0</ele><time>2026-03-29T11:34:07Z</time></trkpt><trkpt lat="43.05850791894795" lon="11.486323789440602"><ele>524.6</ele><time>2026-03-29T11:34:09Z</time></trkpt><trkpt lat="43.05861034671607" lon="11.486241622864222"><ele>525.2</ele><time>2026-03-29T11:34:10Z</time></trkpt><trkpt lat="43.05871150062542" lon="11.486181265902108"><ele>525.8000000000001</ele><time>2026-03-29T11:34:11Z</time></trkpt><trkpt lat="43.05879204120568" lon="11.486137049146768"><ele>526.4</ele><time>2026-03-29T11:34:12Z</time></trkpt><trkpt lat="43.05886689323832" lon="11.486122889613322"><ele>527.0</ele><time>2026-03-29T11:34:13Z</time></trkpt><trkpt lat="43.05893586835681" lon="11.48612516589052"><ele>527.0</ele><time>2026-03-29T11:34:14Z</time></trkpt><trkpt lat="43.05901126845953" lon="11.486130788799835"><ele>527.0</ele><time>2026-03-29T11:34:15Z</time></trkpt><trkpt lat="43.05908999169054" lon="11.48614828673565"><ele>527.0</ele><time>2026-03-29T11:34:16Z</time></trkpt><trkpt lat="43.059176051266675" lon="11.486171469280166"><ele>527.0</ele><time>2026-03-29T11:34:17Z</time></trkpt><trkpt lat="43.0592633710304" lon="11.486211164950873"><ele>527.0</ele><time>2026-03-29T11:34:17.999Z</time></trkpt><trkpt lat="43.059352060294515" lon="11.486254137117598"><ele>527.0</ele><time>2026-03-29T11:34:18.999Z</time></trkpt><trkpt lat="43.05944379251614" lon="11.48628991416548"><ele>532.4</ele><time>2026-03-29T11:34:19.999Z</time></trkpt><trkpt lat="43.05952971139369" lon="11.486328413814515"><ele>537.8000000000001</ele><time>2026-03-29T11:34:20.999Z</time></trkpt><trkpt lat="43.059620746708156" lon="11.48636954257261"><ele>543.2</ele><time>2026-03-29T11:34:21.999Z</time></trkpt><trkpt lat="43.05971631130547" lon="11.4864130187339"><ele>548.6</ele><time>2026-03-29T11:34:22.999Z</time></trkpt><trkpt lat="43.059813550271144" lon="11.48645778499313"><ele>554.0</ele><time>2026-03-29T11:34:23.999Z</time></trkpt><trkpt lat="43.05991702596879" lon="11.48650333100676"><ele>553.8</ele><time>2026-03-29T11:34:24.999Z</time></trkpt><trkpt lat="43.06002589186414" lon="11.486550531194514"><ele>553.5999999999999</ele><time>2026-03-29T11:34:25.999Z</time></trkpt><trkpt lat="43.06013601545671" lon="11.486605123621764"><ele>553.4</ele><time>2026-03-29T11:34:26.999Z</time></trkpt><trkpt lat="43.060239360161866" lon="11.486679381881524"><ele>553.1999999999999</ele><time>2026-03-29T11:34:27.999Z</time></trkpt><trkpt lat="43.06033176311012" lon="11.486728961093116"><ele>553.0</ele><time>2026-03-29T11:34:28.999Z</time></trkpt><trkpt lat="43.06041554495814" lon="11.486763050627237"><ele>553.0</ele><time>2026-03-29T11:34:29.999Z</time></trkpt><trkpt lat="43.06047708893402" lon="11.486821252970364"><ele>553.0</ele><time>2026-03-29T11:34:30.999Z</time></trkpt><trkpt lat="43.06056592066498" lon="11.486937971662947"><ele>553.0</ele><time>2026-03-29T11:34:32.999Z</time></trkpt><trkpt lat="43.060637961065375" lon="11.487066435701818"><ele>553.0</ele><time>2026-03-29T11:34:34.999Z</time></trkpt><trkpt lat="43.06063164805998" lon="11.487190756699649"><ele>553.0</ele><time>2026-03-29T11:34:36.999Z</time></trkpt><trkpt lat="43.060646608721584" lon="11.487322509900753"><ele>553.6</ele><time>2026-03-29T11:34:38.999Z</time></trkpt><trkpt lat="43.06065853292686" lon="11.487488076030452"><ele>554.1999999999999</ele><time>2026-03-29T11:34:40.999Z</time></trkpt><trkpt lat="43.06066093547982" lon="11.487641399387046"><ele>554.8</ele><time>2026-03-29T11:34:42.999Z</time></trkpt><trkpt lat="43.060658951716" lon="11.48778102219169"><ele>555.4</ele><time>2026-03-29T11:34:44.999Z</time></trkpt><trkpt lat="43.06066368185612" lon="11.487925493267628"><ele>556.0</ele><time>2026-03-29T11:34:46.999Z</time></trkpt><trkpt lat="43.06066764627897" lon="11.488022339911545"><ele>556.0</ele><time>2026-03-29T11:34:47.999Z</time></trkpt><trkpt lat="43.06067438704041" lon="11.488131480026079"><ele>556.0</ele><time>2026-03-29T11:34:48.999Z</time></trkpt><trkpt lat="43.06066633087727" lon="11.48823952666357"><ele>556.0</ele><time>2026-03-29T11:34:49.999Z</time></trkpt><trkpt lat="43.060670307330355" lon="11.488361301204927"><ele>556.0</ele><time>2026-03-29T11:34:50.999Z</time></trkpt><trkpt lat="43.0606752164061" lon="11.488510459983951"><ele>556.0</ele><time>2026-03-29T11:34:51.999Z</time></trkpt><trkpt lat="43.060696411686756" lon="11.488650106739312"><ele>553.8</ele><time>2026-03-29T11:34:52.999Z</time></trkpt><trkpt lat="43.060694754627626" lon="11.488781727844877"><ele>551.6</ele><time>2026-03-29T11:34:53.999Z</time></trkpt><trkpt lat="43.06069934982923" lon="11.488909347874321"><ele>549.4</ele><time>2026-03-29T11:34:54.999Z</time></trkpt><trkpt lat="43.06070351595686" lon="11.489032362891392"><ele>547.2</ele><time>2026-03-29T11:34:55.999Z</time></trkpt><trkpt lat="43.06071099826617" lon="11.489152508011868"><ele>545.0</ele><time>2026-03-29T11:34:56.999Z</time></trkpt><trkpt lat="43.0607158048405" lon="11.489271925058224"><ele>545.0</ele><time>2026-03-29T11:34:57.999Z</time></trkpt><trkpt lat="43.06070531437882" lon="11.489377797472754"><ele>545.0</ele><time>2026-03-29T11:34:58.999Z</time></trkpt><trkpt lat="43.060723834849625" lon="11.489469524145095"><ele>545.0</ele><time>2026-03-29T11:34:59.999Z</time></trkpt><trkpt lat="43.06072865466662" lon="11.489608407404889"><ele>545.0</ele><time>2026-03-29T11:35:01.999Z</time></trkpt><trkpt lat="43.06071771315894" lon="11.489719724257089"><ele>545.0</ele><time>2026-03-29T11:35:12Z</time></trkpt><trkpt lat="43.0606358260761" lon="11.489791001975195"><ele>545.0</ele><time>2026-03-29T11:35:15Z</time></trkpt><trkpt lat="43.060562367052846" lon="11.489796215368553"><ele>542.6666666666666</ele><time>2026-03-29T11:35:18Z</time></trkpt><trkpt lat="43.06049245728136" lon="11.489830363129812"><ele>540.3333333333333</ele><time>2026-03-29T11:35:22Z</time></trkpt><trkpt lat="43.06042450526535" lon="11.48986123521272"><ele>538.0</ele><time>2026-03-29T11:35:26Z</time></trkpt><trkpt lat="43.06052441159876" lon="11.489838775140889"><ele>535.6666666666666</ele><time>2026-03-29T11:35:59Z</time></trkpt><trkpt lat="43.06058308634709" lon="11.489805381413744"><ele>533.3333333333334</ele><time>2026-03-29T11:36:14Z</time></trkpt><trkpt lat="43.060664778601144" lon="11.489772818995823"><ele>531.0</ele><time>2026-03-29T11:36:16Z</time></trkpt><trkpt lat="43.06075274737867" lon="11.489743470448415"><ele>530.6666666666666</ele><time>2026-03-29T11:36:19Z</time></trkpt><trkpt lat="43.06083455685307" lon="11.489736717915745"><ele>530.3333333333334</ele><time>2026-03-29T11:36:29.999Z</time></trkpt><trkpt lat="43.06091864140202" lon="11.489688126649753"><ele>530.0</ele><time>2026-03-29T11:36:31.999Z</time></trkpt><trkpt lat="43.06100429821151" lon="11.489659550777379"><ele>529.6666666666667</ele><time>2026-03-29T11:36:33.999Z</time></trkpt><trkpt lat="43.06107301444788" lon="11.48963662643391"><ele>529.3333333333334</ele><time>2026-03-29T11:36:35.999Z</time></trkpt><trkpt lat="43.061143448506286" lon="11.48958975259255"><ele>529.0</ele><time>2026-03-29T11:36:39.999Z</time></trkpt><trkpt lat="43.06120257547603" lon="11.489506048987055"><ele>529.0</ele><time>2026-03-29T11:36:42.999Z</time></trkpt><trkpt lat="43.061124182129106" lon="11.489452138577482"><ele>529.0</ele><time>2026-03-29T11:37:17Z</time></trkpt><trkpt lat="43.06101769064608" lon="11.489586558376523"><ele>529.0</ele><time>2026-03-29T11:37:19Z</time></trkpt><trkpt lat="43.06094400925491" lon="11.489643820755386"><ele>529.0</ele><time>2026-03-29T11:37:20Z</time></trkpt><trkpt lat="43.06083301366227" lon="11.48969825377402"><ele>529.0</ele><time>2026-03-29T11:37:22Z</time></trkpt><trkpt lat="43.06076013827022" lon="11.489639681338534"><ele>533.0</ele><time>2026-03-29T11:37:24Z</time></trkpt><trkpt lat="43.060739011654285" lon="11.489425326094945"><ele>537.0</ele><time>2026-03-29T11:37:26Z</time></trkpt><trkpt lat="43.06073853999958" lon="11.48927273051004"><ele>541.0</ele><time>2026-03-29T11:37:27Z</time></trkpt><trkpt lat="43.06073555699558" lon="11.489090533271607"><ele>545.0</ele><time>2026-03-29T11:37:28Z</time></trkpt><trkpt lat="43.0607326808069" lon="11.48890208443861"><ele>547.75</ele><time>2026-03-29T11:37:29Z</time></trkpt><trkpt lat="43.06072998967999" lon="11.488720187531998"><ele>550.5</ele><time>2026-03-29T11:37:30Z</time></trkpt><trkpt lat="43.06072520955314" lon="11.488532563672953"><ele>553.25</ele><time>2026-03-29T11:37:31Z</time></trkpt><trkpt lat="43.06072022439489" lon="11.488347924063834"><ele>556.0</ele><time>2026-03-29T11:37:32Z</time></trkpt><trkpt lat="43.06071253366369" lon="11.488168641284586"><ele>556.0</ele><time>2026-03-29T11:37:33Z</time></trkpt><trkpt lat="43.06070948078224" lon="11.487976439770481"><ele>556.0</ele><time>2026-03-29T11:37:34Z</time></trkpt><trkpt lat="43.06070420484638" lon="11.487765057482754"><ele>556.0</ele><time>2026-03-29T11:37:35Z</time></trkpt><trkpt lat="43.060697674964054" lon="11.487550237149172"><ele>555.4</ele><time>2026-03-29T11:37:36Z</time></trkpt><trkpt lat="43.06069190690145" lon="11.487377454523715"><ele>554.8</ele><time>2026-03-29T11:37:37Z</time></trkpt><trkpt lat="43.06069023518359" lon="11.48722606929625"><ele>554.1999999999999</ele><time>2026-03-29T11:37:38Z</time></trkpt><trkpt lat="43.06068961766616" lon="11.487090714188414"><ele>553.6</ele><time>2026-03-29T11:37:39Z</time></trkpt><trkpt lat="43.060659662087545" lon="11.486978820776315"><ele>553.0</ele><time>2026-03-29T11:37:40Z</time></trkpt><trkpt lat="43.06060006871461" lon="11.48687666462038"><ele>553.0</ele><time>2026-03-29T11:37:41Z</time></trkpt><trkpt lat="43.060512896124145" lon="11.486785396331479"><ele>553.0</ele><time>2026-03-29T11:37:42Z</time></trkpt><trkpt lat="43.06039846073266" lon="11.486707609745082"><ele>553.0</ele><time>2026-03-29T11:37:43Z</time></trkpt><trkpt lat="43.060263878539416" lon="11.486634184396959"><ele>553.0</ele><time>2026-03-29T11:37:44Z</time></trkpt><trkpt lat="43.06012835912694" lon="11.486576649467917"><ele>553.0</ele><time>2026-03-29T11:37:45Z</time></trkpt><trkpt lat="43.05998214408653" lon="11.48650421902885"><ele>553.0</ele><time>2026-03-29T11:37:46Z</time></trkpt><trkpt lat="43.05982432841978" lon="11.486432646253842"><ele>553.0</ele><time>2026-03-29T11:37:47Z</time></trkpt><trkpt lat="43.05965883196218" lon="11.48635941533549"><ele>553.3333333333334</ele><time>2026-03-29T11:37:48Z</time></trkpt><trkpt lat="43.05949094597076" lon="11.486281511429025"><ele>553.6666666666666</ele><time>2026-03-29T11:37:49Z</time></trkpt><trkpt lat="43.0593306707208" lon="11.486218479414616"><ele>554.0</ele><time>2026-03-29T11:37:50Z</time></trkpt><trkpt lat="43.05918691239795" lon="11.486153819224533"><ele>547.25</ele><time>2026-03-29T11:37:51Z</time></trkpt><trkpt lat="43.059065147641945" lon="11.486103441883925"><ele>540.5</ele><time>2026-03-29T11:37:52Z</time></trkpt><trkpt lat="43.058935466437" lon="11.486078750168197"><ele>533.75</ele><time>2026-03-29T11:37:53Z</time></trkpt><trkpt lat="43.05880162940972" lon="11.486084166387599"><ele>527.0</ele><time>2026-03-29T11:37:54Z</time></trkpt><trkpt lat="43.058677208794016" lon="11.486125392489662"><ele>527.0</ele><time>2026-03-29T11:37:55Z</time></trkpt><trkpt lat="43.058560458233494" lon="11.486197229642416"><ele>527.0</ele><time>2026-03-29T11:37:56Z</time></trkpt><trkpt lat="43.0584493140797" lon="11.486306691071372"><ele>527.0</ele><time>2026-03-29T11:37:57Z</time></trkpt><trkpt lat="43.05832114883446" lon="11.486443476587018"><ele>527.0</ele><time>2026-03-29T11:37:58Z</time></trkpt><trkpt lat="43.05817083847074" lon="11.486584970203888"><ele>526.0</ele><time>2026-03-29T11:37:59Z</time></trkpt><trkpt lat="43.05802248743959" lon="11.48675751961762"><ele>525.0</ele><time>2026-03-29T11:38:00Z</time></trkpt><trkpt lat="43.057880364977684" lon="11.486941255028917"><ele>524.0</ele><time>2026-03-29T11:38:01Z</time></trkpt><trkpt lat="43.057810673363576" lon="11.487021782370888"><ele>524.0</ele><time>2026-03-29T11:38:02Z</time></trkpt><trkpt lat="43.05769110157792" lon="11.487148632018792"><ele>524.0</ele><time>2026-03-29T11:38:03Z</time></trkpt><trkpt lat="43.05758769006804" lon="11.48729395082346"><ele>524.0</ele><time>2026-03-29T11:38:04Z</time></trkpt><trkpt lat="43.057476457635715" lon="11.487397857502957"><ele>524.0</ele><time>2026-03-29T11:38:05Z</time></trkpt><trkpt lat="43.05738814958902" lon="11.487554905437847"><ele>524.0</ele><time>2026-03-29T11:38:06Z</time></trkpt><trkpt lat="43.057301494091256" lon="11.487721830402258"><ele>524.0</ele><time>2026-03-29T11:38:07Z</time></trkpt><trkpt lat="43.05721028561988" lon="11.487865046623446"><ele>524.0</ele><time>2026-03-29T11:38:08Z</time></trkpt><trkpt lat="43.05714296948638" lon="11.488005754030338"><ele>524.0</ele><time>2026-03-29T11:38:09Z</time></trkpt><trkpt lat="43.05708296792912" lon="11.48813147857805"><ele>526.4</ele><time>2026-03-29T11:38:10Z</time></trkpt><trkpt lat="43.057027964941824" lon="11.48824672971883"><ele>528.8</ele><time>2026-03-29T11:38:11Z</time></trkpt><trkpt lat="43.05697271663327" lon="11.48836249422521"><ele>531.2</ele><time>2026-03-29T11:38:12Z</time></trkpt><trkpt lat="43.056928697235364" lon="11.488485138846212"><ele>533.6</ele><time>2026-03-29T11:38:13Z</time></trkpt><trkpt lat="43.05688318882628" lon="11.488566828329816"><ele>536.0</ele><time>2026-03-29T11:38:14Z</time></trkpt><trkpt lat="43.05684015778234" lon="11.488648496832736"><ele>536.0</ele><time>2026-03-29T11:38:15Z</time></trkpt><trkpt lat="43.05678594834978" lon="11.488714304951792"><ele>536.0</ele><time>2026-03-29T11:38:17Z</time></trkpt><trkpt lat="43.05688806693961" lon="11.488844370998091"><ele>536.0</ele><time>2026-03-29T11:38:18Z</time></trkpt><trkpt lat="43.05692086562305" lon="11.488919392111324"><ele>536.0</ele><time>2026-03-29T11:38:19Z</time></trkpt><trkpt lat="43.0569759400677" lon="11.489022689219984"><ele>536.0</ele><time>2026-03-29T11:38:21Z</time></trkpt><trkpt lat="43.057020015054476" lon="11.48909390983602"><ele>536.0</ele><time>2026-03-29T11:38:23Z</time></trkpt><trkpt lat="43.056950688605355" lon="11.489168303202055"><ele>550.0</ele><time>2026-03-29T11:41:45Z</time></trkpt><trkpt lat="43.05703272643368" lon="11.489168320001506"><ele>550.0</ele><time>2026-03-29T11:43:15.999Z</time></trkpt><trkpt lat="43.0571020225304" lon="11.489217133683011"><ele>550.0</ele><time>2026-03-29T11:43:21.999Z</time></trkpt><trkpt lat="43.05715419672859" lon="11.48926664759282"><ele>550.0</ele><time>2026-03-29T11:43:25.999Z</time></trkpt><trkpt lat="43.057214655377024" lon="11.489303570964863"><ele>550.0</ele><time>2026-03-29T11:43:29.999Z</time></trkpt><trkpt lat="43.05725362461961" lon="11.489374623281057"><ele>550.0</ele><time>2026-03-29T11:43:37Z</time></trkpt></trkseg><trkseg><trkpt lat="43.05701050338265" lon="11.489350327762825"><ele>550.0</ele><time>2026-03-29T12:28:52Z</time></trkpt><trkpt lat="43.05697534197357" lon="11.489245167344889"><ele>550.0</ele><time>2026-03-29T12:29:04Z</time></trkpt><trkpt lat="43.05705088872557" lon="11.489191356734922"><ele>550.0</ele><time>2026-03-29T12:29:07Z</time></trkpt><trkpt lat="43.057030903873084" lon="11.489078485904459"><ele>550.0</ele><time>2026-03-29T12:29:17Z</time></trkpt><trkpt lat="43.05700420086183" lon="11.488995160386915"><ele>550.0</ele><time>2026-03-29T12:29:17.999Z</time></trkpt><trkpt lat="43.056937201843766" lon="11.488885133796082"><ele>550.0</ele><time>2026-03-29T12:29:18.999Z</time></trkpt><trkpt lat="43.056894880729466" lon="11.4888050701673"><ele>549.8</ele><time>2026-03-29T12:29:19.999Z</time></trkpt><trkpt lat="43.05683842798609" lon="11.488715356471472"><ele>549.6</ele><time>2026-03-29T12:29:21.999Z</time></trkpt><trkpt lat="43.05679645948125" lon="11.488641486680393"><ele>549.4</ele><time>2026-03-29T12:29:23.999Z</time></trkpt><trkpt lat="43.05667495158447" lon="11.488752685619403"><ele>549.2</ele><time>2026-03-29T12:29:24.999Z</time></trkpt><trkpt lat="43.056591048754555" lon="11.4888176229415"><ele>549.0</ele><time>2026-03-29T12:29:25.999Z</time></trkpt><trkpt lat="43.05647965121042" lon="11.488879347668105"><ele>549.0</ele><time>2026-03-29T12:29:26.999Z</time></trkpt><trkpt lat="43.0563338237506" lon="11.488934865230993"><ele>549.0</ele><time>2026-03-29T12:29:27.999Z</time></trkpt><trkpt lat="43.05618892634542" lon="11.488996203864682"><ele>549.0</ele><time>2026-03-29T12:29:28.999Z</time></trkpt><trkpt lat="43.05605900024267" lon="11.48901924080802"><ele>549.0</ele><time>2026-03-29T12:29:29.999Z</time></trkpt><trkpt lat="43.05594778879328" lon="11.48901732311648"><ele>549.0</ele><time>2026-03-29T12:29:30.999Z</time></trkpt><trkpt lat="43.055837241411666" lon="11.488954601160032"><ele>549.0</ele><time>2026-03-29T12:29:31.999Z</time></trkpt><trkpt lat="43.055705492243135" lon="11.488911488318065"><ele>549.0</ele><time>2026-03-29T12:29:32.999Z</time></trkpt><trkpt lat="43.055569733402734" lon="11.488932841284806"><ele>549.0</ele><time>2026-03-29T12:29:33.999Z</time></trkpt><trkpt lat="43.05547597844975" lon="11.48897133787698"><ele>550.0</ele><time>2026-03-29T12:29:34.999Z</time></trkpt><trkpt lat="43.0553866434384" lon="11.488997795349961"><ele>551.0</ele><time>2026-03-29T12:29:35.999Z</time></trkpt><trkpt lat="43.0552686851002" lon="11.489010101042025"><ele>552.0</ele><time>2026-03-29T12:29:36.999Z</time></trkpt><trkpt lat="43.05513816881831" lon="11.489000694639232"><ele>553.0</ele><time>2026-03-29T12:29:37.999Z</time></trkpt><trkpt lat="43.055003176446284" lon="11.488951629540658"><ele>553.5</ele><time>2026-03-29T12:29:38.999Z</time></trkpt><trkpt lat="43.05487114245711" lon="11.488883334108301"><ele>554.0</ele><time>2026-03-29T12:29:39.999Z</time></trkpt><trkpt lat="43.05472776931686" lon="11.488800058675372"><ele>554.5</ele><time>2026-03-29T12:29:40.999Z</time></trkpt><trkpt lat="43.05459603216498" lon="11.488714864844145"><ele>555.0</ele><time>2026-03-29T12:29:41.999Z</time></trkpt><trkpt lat="43.05447378866365" lon="11.488664156396595"><ele>557.5</ele><time>2026-03-29T12:29:42.999Z</time></trkpt><trkpt lat="43.05434334375626" lon="11.488641601137669"><ele>560.0</ele><time>2026-03-29T12:29:43.999Z</time></trkpt><trkpt lat="43.05419138198139" lon="11.48866398474752"><ele>562.5</ele><time>2026-03-29T12:29:44.999Z</time></trkpt><trkpt lat="43.05404060416337" lon="11.488715076082691"><ele>565.0</ele><time>2026-03-29T12:29:45.999Z</time></trkpt><trkpt lat="43.053894510018374" lon="11.488809814615385"><ele>566.0</ele><time>2026-03-29T12:29:46.999Z</time></trkpt><trkpt lat="43.05374279520592" lon="11.488861118631396"><ele>567.0</ele><time>2026-03-29T12:29:47.999Z</time></trkpt><trkpt lat="43.05361933043109" lon="11.48890360583651"><ele>568.0</ele><time>2026-03-29T12:29:48.999Z</time></trkpt><trkpt lat="43.05351303002648" lon="11.48894630413497"><ele>569.0</ele><time>2026-03-29T12:29:49.999Z</time></trkpt><trkpt lat="43.05342330081167" lon="11.489032226168108"><ele>569.0</ele><time>2026-03-29T12:29:50.999Z</time></trkpt><trkpt lat="43.05334917018617" lon="11.489155378449269"><ele>569.0</ele><time>2026-03-29T12:29:51.999Z</time></trkpt><trkpt lat="43.05330163118615" lon="11.489315054089646"><ele>569.0</ele><time>2026-03-29T12:29:52.999Z</time></trkpt><trkpt lat="43.053273966141795" lon="11.489501368803294"><ele>569.0</ele><time>2026-03-29T12:29:53.999Z</time></trkpt><trkpt lat="43.05324159394618" lon="11.489710871352962"><ele>576.3333333333333</ele><time>2026-03-29T12:29:54.999Z</time></trkpt><trkpt lat="43.05320045597284" lon="11.489938062849365"><ele>583.6666666666666</ele><time>2026-03-29T12:29:55.999Z</time></trkpt><trkpt lat="43.053162688572186" lon="11.490152908852673"><ele>591.0</ele><time>2026-03-29T12:29:56.999Z</time></trkpt><trkpt lat="43.05310446243906" lon="11.490322398149619"><ele>587.5</ele><time>2026-03-29T12:29:57.999Z</time></trkpt><trkpt lat="43.053048316480385" lon="11.490486116527032"><ele>584.0</ele><time>2026-03-29T12:29:58.999Z</time></trkpt><trkpt lat="43.05295760307195" lon="11.49059361867134"><ele>580.5</ele><time>2026-03-29T12:29:59.999Z</time></trkpt><trkpt lat="43.052862543110706" lon="11.490681865877082"><ele>577.0</ele><time>2026-03-29T12:30:00.999Z</time></trkpt><trkpt lat="43.052761213397645" lon="11.49074191495735"><ele>577.0</ele><time>2026-03-29T12:30:01.999Z</time></trkpt><trkpt lat="43.05265027481213" lon="11.490808378401926"><ele>577.0</ele><time>2026-03-29T12:30:02.999Z</time></trkpt><trkpt lat="43.052531584854464" lon="11.490900760206488"><ele>577.0</ele><time>2026-03-29T12:30:03.999Z</time></trkpt><trkpt lat="43.05242625455258" lon="11.49092852998333"><ele>577.0</ele><time>2026-03-29T12:30:04.999Z</time></trkpt><trkpt lat="43.05233431991299" lon="11.490954975865389"><ele>576.0</ele><time>2026-03-29T12:30:05.999Z</time></trkpt><trkpt lat="43.05223043112461" lon="11.490960798723997"><ele>575.0</ele><time>2026-03-29T12:30:06.999Z</time></trkpt><trkpt lat="43.05211384909727" lon="11.490970413187982"><ele>574.0</ele><time>2026-03-29T12:30:07.999Z</time></trkpt><trkpt lat="43.052016424328265" lon="11.490872424009227"><ele>573.0</ele><time>2026-03-29T12:30:08.999Z</time></trkpt><trkpt lat="43.05192053145038" lon="11.490781791494438"><ele>573.0</ele><time>2026-03-29T12:30:09.999Z</time></trkpt><trkpt lat="43.05182872902953" lon="11.490690071067108"><ele>573.0</ele><time>2026-03-29T12:30:10.999Z</time></trkpt><trkpt lat="43.05173924808837" lon="11.490615586866886"><ele>573.0</ele><time>2026-03-29T12:30:11.999Z</time></trkpt><trkpt lat="43.051664101311125" lon="11.490514450234096"><ele>573.0</ele><time>2026-03-29T12:30:12.999Z</time></trkpt><trkpt lat="43.05160556128973" lon="11.490376784522978"><ele>573.0</ele><time>2026-03-29T12:30:13.999Z</time></trkpt><trkpt lat="43.05152809872716" lon="11.490232106534885"><ele>577.0</ele><time>2026-03-29T12:30:14.999Z</time></trkpt><trkpt lat="43.05146601376736" lon="11.490063879559838"><ele>581.0</ele><time>2026-03-29T12:30:15.999Z</time></trkpt><trkpt lat="43.05140860471612" lon="11.489925082015905"><ele>585.0</ele><time>2026-03-29T12:30:16.999Z</time></trkpt><trkpt lat="43.051354836532724" lon="11.489796958753415"><ele>589.0</ele><time>2026-03-29T12:30:17.999Z</time></trkpt><trkpt lat="43.05129806531398" lon="11.489661230283817"><ele>591.6</ele><time>2026-03-29T12:30:19Z</time></trkpt><trkpt lat="43.051238734919174" lon="11.489552500590818"><ele>594.2</ele><time>2026-03-29T12:30:20Z</time></trkpt><trkpt lat="43.05116290907991" lon="11.489494105416915"><ele>596.8000000000001</ele><time>2026-03-29T12:30:21Z</time></trkpt><trkpt lat="43.05106827012078" lon="11.489469215968766"><ele>599.4</ele><time>2026-03-29T12:30:22Z</time></trkpt><trkpt lat="43.050980050143664" lon="11.489485752545486"><ele>602.0</ele><time>2026-03-29T12:30:23Z</time></trkpt><trkpt lat="43.05089829009559" lon="11.489533658539033"><ele>603.8000000000001</ele><time>2026-03-29T12:30:24Z</time></trkpt><trkpt lat="43.05082862122526" lon="11.489610989769488"><ele>605.6</ele><time>2026-03-29T12:30:25Z</time></trkpt><trkpt lat="43.050777878576106" lon="11.489713926385345"><ele>607.4000000000001</ele><time>2026-03-29T12:30:26Z</time></trkpt><trkpt lat="43.05073190458444" lon="11.489821239938728"><ele>609.2</ele><time>2026-03-29T12:30:27Z</time></trkpt><trkpt lat="43.05067913799048" lon="11.489932002549706"><ele>611.0</ele><time>2026-03-29T12:30:28Z</time></trkpt><trkpt lat="43.05062753379394" lon="11.49005567275706"><ele>611.0</ele><time>2026-03-29T12:30:29Z</time></trkpt><trkpt lat="43.05056450512675" lon="11.490179591811273"><ele>611.0</ele><time>2026-03-29T12:30:30Z</time></trkpt><trkpt lat="43.05050374998742" lon="11.49031933562948"><ele>611.0</ele><time>2026-03-29T12:30:31Z</time></trkpt><trkpt lat="43.05043002024973" lon="11.490460226425594"><ele>611.0</ele><time>2026-03-29T12:30:32Z</time></trkpt><trkpt lat="43.050376199530035" lon="11.490574220173594"><ele>608.2</ele><time>2026-03-29T12:30:33Z</time></trkpt><trkpt lat="43.05032592775592" lon="11.490677541397215"><ele>605.4000000000001</ele><time>2026-03-29T12:30:34Z</time></trkpt><trkpt lat="43.050267050883775" lon="11.490790325043728"><ele>602.6</ele><time>2026-03-29T12:30:35Z</time></trkpt><trkpt lat="43.050207069302246" lon="11.490902770661663"><ele>599.8000000000001</ele><time>2026-03-29T12:30:36Z</time></trkpt><trkpt lat="43.05012859224979" lon="11.490979780359337"><ele>597.0</ele><time>2026-03-29T12:30:37Z</time></trkpt><trkpt lat="43.05003684713598" lon="11.491012806776588"><ele>596.5</ele><time>2026-03-29T12:30:38Z</time></trkpt><trkpt lat="43.049938128161294" lon="11.490985536514641"><ele>596.0</ele><time>2026-03-29T12:30:39Z</time></trkpt><trkpt lat="43.049823547012906" lon="11.490959595865554"><ele>595.5</ele><time>2026-03-29T12:30:40Z</time></trkpt><trkpt lat="43.04966192596621" lon="11.490961517503514"><ele>595.0</ele><time>2026-03-29T12:30:41Z</time></trkpt><trkpt lat="43.049479529776434" lon="11.491022273205365"><ele>595.0</ele><time>2026-03-29T12:30:42Z</time></trkpt><trkpt lat="43.049330146854196" lon="11.491053867909365"><ele>595.0</ele><time>2026-03-29T12:30:43Z</time></trkpt><trkpt lat="43.04921710916258" lon="11.491018754691273"><ele>595.0</ele><time>2026-03-29T12:30:44Z</time></trkpt><trkpt lat="43.049138772729236" lon="11.49098527751797"><ele>595.0</ele><time>2026-03-29T12:30:45Z</time></trkpt><trkpt lat="43.049087403518065" lon="11.490877676149513"><ele>595.0</ele><time>2026-03-29T12:30:46Z</time></trkpt><trkpt lat="43.049045831041305" lon="11.49073011777244"><ele>597.0</ele><time>2026-03-29T12:30:47Z</time></trkpt><trkpt lat="43.049008903241976" lon="11.490555944431195"><ele>599.0</ele><time>2026-03-29T12:30:48Z</time></trkpt><trkpt lat="43.04896639597772" lon="11.490383342421014"><ele>601.0</ele><time>2026-03-29T12:30:49Z</time></trkpt><trkpt lat="43.04892222558993" lon="11.490222441431497"><ele>603.0</ele><time>2026-03-29T12:30:50Z</time></trkpt><trkpt lat="43.048862996144145" lon="11.490073105297892"><ele>603.0</ele><time>2026-03-29T12:30:51Z</time></trkpt><trkpt lat="43.04877400012684" lon="11.489955557377943"><ele>603.0</ele><time>2026-03-29T12:30:52Z</time></trkpt><trkpt lat="43.048668058519226" lon="11.489899753379502"><ele>603.0</ele><time>2026-03-29T12:30:53Z</time></trkpt><trkpt lat="43.04855007239081" lon="11.489901268007694"><ele>603.0</ele><time>2026-03-29T12:30:54Z</time></trkpt><trkpt lat="43.048409996370914" lon="11.489949481827088"><ele>603.0</ele><time>2026-03-29T12:30:55Z</time></trkpt><trkpt lat="43.04825088069181" lon="11.49000616931534"><ele>603.0</ele><time>2026-03-29T12:30:56Z</time></trkpt><trkpt lat="43.04809750270176" lon="11.49005045537334"><ele>603.0</ele><time>2026-03-29T12:30:57Z</time></trkpt><trkpt lat="43.04797258784941" lon="11.490069589906243"><ele>603.0</ele><time>2026-03-29T12:30:58Z</time></trkpt><trkpt lat="43.047864553490854" lon="11.490016029968062"><ele>603.0</ele><time>2026-03-29T12:30:59Z</time></trkpt><trkpt lat="43.047764549655994" lon="11.48993784333391"><ele>603.0</ele><time>2026-03-29T12:31:00Z</time></trkpt><trkpt lat="43.047650990742206" lon="11.489815557856724"><ele>603.0</ele><time>2026-03-29T12:31:01Z</time></trkpt><trkpt lat="43.04752233276332" lon="11.489697046113504"><ele>603.0</ele><time>2026-03-29T12:31:02Z</time></trkpt><trkpt lat="43.04738186957132" lon="11.489579044476443"><ele>607.0</ele><time>2026-03-29T12:31:03Z</time></trkpt><trkpt lat="43.047218350816145" lon="11.489511189059227"><ele>611.0</ele><time>2026-03-29T12:31:04Z</time></trkpt><trkpt lat="43.047046193486906" lon="11.489491668036683"><ele>615.0</ele><time>2026-03-29T12:31:05Z</time></trkpt><trkpt lat="43.04690659015602" lon="11.489496711803596"><ele>615.0</ele><time>2026-03-29T12:31:06Z</time></trkpt><trkpt lat="43.04678862303669" lon="11.489436802169406"><ele>615.0</ele><time>2026-03-29T12:31:07Z</time></trkpt><trkpt lat="43.04667592715298" lon="11.489337163381855"><ele>615.0</ele><time>2026-03-29T12:31:08Z</time></trkpt><trkpt lat="43.04657590599749" lon="11.48919292632537"><ele>615.0</ele><time>2026-03-29T12:31:09Z</time></trkpt><trkpt lat="43.0464994293723" lon="11.489021001911064"><ele>610.6666666666666</ele><time>2026-03-29T12:31:10Z</time></trkpt><trkpt lat="43.046425819473974" lon="11.488835992049754"><ele>606.3333333333333</ele><time>2026-03-29T12:31:11Z</time></trkpt><trkpt lat="43.04639519342338" lon="11.488637589688881"><ele>602.0</ele><time>2026-03-29T12:31:12Z</time></trkpt><trkpt lat="43.0463680067689" lon="11.488433878646333"><ele>602.0</ele><time>2026-03-29T12:31:13Z</time></trkpt><trkpt lat="43.04633631204916" lon="11.488224497806671"><ele>602.0</ele><time>2026-03-29T12:31:14Z</time></trkpt><trkpt lat="43.04629067587835" lon="11.488015934155152"><ele>602.0</ele><time>2026-03-29T12:31:15Z</time></trkpt><trkpt lat="43.046250597205706" lon="11.487801014879222"><ele>604.75</ele><time>2026-03-29T12:31:16Z</time></trkpt><trkpt lat="43.046198459444945" lon="11.487615399036024"><ele>607.5</ele><time>2026-03-29T12:31:17Z</time></trkpt><trkpt lat="43.04612227866337" lon="11.487442635457972"><ele>610.25</ele><time>2026-03-29T12:31:18Z</time></trkpt><trkpt lat="43.046026801330264" lon="11.487273647040304"><ele>613.0</ele><time>2026-03-29T12:31:19Z</time></trkpt><trkpt lat="43.04592612858683" lon="11.487153599620559"><ele>613.5</ele><time>2026-03-29T12:31:20Z</time></trkpt><trkpt lat="43.045821637662016" lon="11.487072766826488"><ele>614.0</ele><time>2026-03-29T12:31:20.999Z</time></trkpt><trkpt lat="43.045702811214085" lon="11.487038730416579"><ele>614.5</ele><time>2026-03-29T12:31:21.999Z</time></trkpt><trkpt lat="43.04556609737319" lon="11.487041356121523"><ele>615.0</ele><time>2026-03-29T12:31:22.999Z</time></trkpt><trkpt lat="43.04542300273461" lon="11.487030664654814"><ele>615.0</ele><time>2026-03-29T12:31:23.999Z</time></trkpt><trkpt lat="43.04530202778819" lon="11.487006154410597"><ele>615.0</ele><time>2026-03-29T12:31:24.999Z</time></trkpt><trkpt lat="43.04518898676925" lon="11.486936280403297"><ele>615.0</ele><time>2026-03-29T12:31:25.999Z</time></trkpt><trkpt lat="43.04511177995957" lon="11.486788676569702"><ele>615.0</ele><time>2026-03-29T12:31:26.999Z</time></trkpt><trkpt lat="43.04505989065184" lon="11.486628100000333"><ele>615.0</ele><time>2026-03-29T12:31:27.999Z</time></trkpt><trkpt lat="43.04498496863315" lon="11.486422909888004"><ele>615.0</ele><time>2026-03-29T12:31:28.999Z</time></trkpt><trkpt lat="43.04492672348081" lon="11.486190193149117"><ele>615.0</ele><time>2026-03-29T12:31:29.999Z</time></trkpt><trkpt lat="43.04486180623881" lon="11.485964155662634"><ele>614.6666666666666</ele><time>2026-03-29T12:31:30.999Z</time></trkpt><trkpt lat="43.04479864848196" lon="11.485733659465001"><ele>614.3333333333333</ele><time>2026-03-29T12:31:31.999Z</time></trkpt><trkpt lat="43.044733376433776" lon="11.485493649613263"><ele>614.0</ele><time>2026-03-29T12:31:32.999Z</time></trkpt><trkpt lat="43.04466502664314" lon="11.485255171970218"><ele>613.5</ele><time>2026-03-29T12:31:33.999Z</time></trkpt><trkpt lat="43.04460576937073" lon="11.485050562170434"><ele>613.0</ele><time>2026-03-29T12:31:34.999Z</time></trkpt><trkpt lat="43.044560931268414" lon="11.484877090059612"><ele>612.5</ele><time>2026-03-29T12:31:35.999Z</time></trkpt><trkpt lat="43.044507912194646" lon="11.484727926934841"><ele>612.0</ele><time>2026-03-29T12:31:36.999Z</time></trkpt><trkpt lat="43.04441936670567" lon="11.484584109054483"><ele>611.6666666666666</ele><time>2026-03-29T12:31:37.999Z</time></trkpt><trkpt lat="43.04430647583472" lon="11.48444820649414"><ele>611.3333333333333</ele><time>2026-03-29T12:31:38.999Z</time></trkpt><trkpt lat="43.04418131761046" lon="11.484321240785919"><ele>611.0</ele><time>2026-03-29T12:31:39.999Z</time></trkpt><trkpt lat="43.044045957678875" lon="11.484194751502658"><ele>611.0</ele><time>2026-03-29T12:31:40.999Z</time></trkpt><trkpt lat="43.043905991979635" lon="11.484055375191438"><ele>611.0</ele><time>2026-03-29T12:31:41.999Z</time></trkpt><trkpt lat="43.043769857139" lon="11.48391856821754"><ele>611.0</ele><time>2026-03-29T12:31:42.999Z</time></trkpt><trkpt lat="43.043634513078025" lon="11.483814097989413"><ele>611.6666666666666</ele><time>2026-03-29T12:31:43.999Z</time></trkpt><trkpt lat="43.04349893543972" lon="11.483750060811618"><ele>612.3333333333334</ele><time>2026-03-29T12:31:44.999Z</time></trkpt><trkpt lat="43.04336143801149" lon="11.483674738148837"><ele>613.0</ele><time>2026-03-29T12:31:45.999Z</time></trkpt><trkpt lat="43.04319628280573" lon="11.483649039920998"><ele>613.0</ele><time>2026-03-29T12:31:46.999Z</time></trkpt><trkpt lat="43.04302843953152" lon="11.483577456433133"><ele>613.0</ele><time>2026-03-29T12:31:47.999Z</time></trkpt><trkpt lat="43.0428356110044" lon="11.483519785010019"><ele>613.0</ele><time>2026-03-29T12:31:48.999Z</time></trkpt><trkpt lat="43.04264226126106" lon="11.48346199538979"><ele>612.6666666666667</ele><time>2026-03-29T12:31:49.999Z</time></trkpt><trkpt lat="43.04244349908987" lon="11.483403371892631"><ele>612.3333333333334</ele><time>2026-03-29T12:31:50.999Z</time></trkpt><trkpt lat="43.0422374774577" lon="11.483342943761022"><ele>612.0</ele><time>2026-03-29T12:31:51.999Z</time></trkpt><trkpt lat="43.0420255911535" lon="11.483281101230814"><ele>612.0</ele><time>2026-03-29T12:31:52.999Z</time></trkpt><trkpt lat="43.04180455735163" lon="11.483216587065716"><ele>612.0</ele><time>2026-03-29T12:31:53.999Z</time></trkpt><trkpt lat="43.04157691025233" lon="11.483150142654015"><ele>615.0</ele><time>2026-03-29T12:31:54.999Z</time></trkpt><trkpt lat="43.04134371430563" lon="11.483103618200479"><ele>618.0</ele><time>2026-03-29T12:31:55.999Z</time></trkpt><trkpt lat="43.04112247584687" lon="11.48301727593389"><ele>618.0</ele><time>2026-03-29T12:31:56.999Z</time></trkpt><trkpt lat="43.040913884925516" lon="11.482956168747018"><ele>618.0</ele><time>2026-03-29T12:31:57.999Z</time></trkpt><trkpt lat="43.040726257554155" lon="11.482916488905193"><ele>618.0</ele><time>2026-03-29T12:31:58.999Z</time></trkpt><trkpt lat="43.0405610572048" lon="11.482861534193182"><ele>615.3333333333334</ele><time>2026-03-29T12:31:59.999Z</time></trkpt><trkpt lat="43.04038983567291" lon="11.482787374185634"><ele>612.6666666666667</ele><time>2026-03-29T12:32:00.999Z</time></trkpt><trkpt lat="43.040206079501964" lon="11.48267664361017"><ele>610.0</ele><time>2026-03-29T12:32:01.999Z</time></trkpt><trkpt lat="43.04002611667908" lon="11.4825475057485"><ele>608.3333333333334</ele><time>2026-03-29T12:32:02.999Z</time></trkpt><trkpt lat="43.039844408585694" lon="11.482405276581902"><ele>606.6666666666666</ele><time>2026-03-29T12:32:03.999Z</time></trkpt><trkpt lat="43.039660202347896" lon="11.482238768296233"><ele>605.0</ele><time>2026-03-29T12:32:04.999Z</time></trkpt><trkpt lat="43.03946587602938" lon="11.482071882231534"><ele>600.5</ele><time>2026-03-29T12:32:05.999Z</time></trkpt><trkpt lat="43.03926902521773" lon="11.48189735745133"><ele>596.0</ele><time>2026-03-29T12:32:06.999Z</time></trkpt><trkpt lat="43.03906464854113" lon="11.481717279777369"><ele>592.5</ele><time>2026-03-29T12:32:07.999Z</time></trkpt><trkpt lat="43.0388523975685" lon="11.48153191179695"><ele>589.0</ele><time>2026-03-29T12:32:08.999Z</time></trkpt><trkpt lat="43.038644734177225" lon="11.481320872697127"><ele>589.5</ele><time>2026-03-29T12:32:09.999Z</time></trkpt><trkpt lat="43.03843680696575" lon="11.481136745325816"><ele>590.0</ele><time>2026-03-29T12:32:10.999Z</time></trkpt><trkpt lat="43.03824895385582" lon="11.48097143927876"><ele>590.6666666666666</ele><time>2026-03-29T12:32:11.999Z</time></trkpt><trkpt lat="43.038068913461466" lon="11.480812670384699"><ele>591.3333333333334</ele><time>2026-03-29T12:32:12.999Z</time></trkpt><trkpt lat="43.03789896600934" lon="11.48066415916694"><ele>592.0</ele><time>2026-03-29T12:32:13.999Z</time></trkpt><trkpt lat="43.037719700541366" lon="11.480507108186272"><ele>593.0</ele><time>2026-03-29T12:32:14.999Z</time></trkpt><trkpt lat="43.03753862238105" lon="11.48034846910984"><ele>594.0</ele><time>2026-03-29T12:32:15.999Z</time></trkpt><trkpt lat="43.037350379440014" lon="11.480211191572954"><ele>595.0</ele><time>2026-03-29T12:32:16.999Z</time></trkpt><trkpt lat="43.03715186001109" lon="11.480040610976237"><ele>597.0</ele><time>2026-03-29T12:32:17.999Z</time></trkpt><trkpt lat="43.03695879612173" lon="11.479889230501882"><ele>599.0</ele><time>2026-03-29T12:32:18.999Z</time></trkpt><trkpt lat="43.036759327932" lon="11.479753294677574"><ele>601.0</ele><time>2026-03-29T12:32:19.999Z</time></trkpt><trkpt lat="43.03655306862096" lon="11.479619449702644"><ele>604.0</ele><time>2026-03-29T12:32:20.999Z</time></trkpt><trkpt lat="43.03635069593464" lon="11.479489311790314"><ele>607.0</ele><time>2026-03-29T12:32:21.999Z</time></trkpt><trkpt lat="43.03617672812776" lon="11.479376435641084"><ele>610.0</ele><time>2026-03-29T12:32:22.999Z</time></trkpt><trkpt lat="43.03602018769617" lon="11.47926995160281"><ele>610.0</ele><time>2026-03-29T12:32:23.999Z</time></trkpt><trkpt lat="43.035872981215775" lon="11.479168486857427"><ele>610.0</ele><time>2026-03-29T12:32:25Z</time></trkpt><trkpt lat="43.03571801725169" lon="11.479075404422277"><ele>610.0</ele><time>2026-03-29T12:32:26Z</time></trkpt><trkpt lat="43.03554829937623" lon="11.479026985152148"><ele>613.0</ele><time>2026-03-29T12:32:27Z</time></trkpt><trkpt lat="43.03538932951376" lon="11.479026829813282"><ele>616.0</ele><time>2026-03-29T12:32:28Z</time></trkpt><trkpt lat="43.03524762790029" lon="11.479074459168066"><ele>619.0</ele><time>2026-03-29T12:32:29Z</time></trkpt><trkpt lat="43.035101047584305" lon="11.479148275710497"><ele>621.0</ele><time>2026-03-29T12:32:30Z</time></trkpt><trkpt lat="43.03496544830507" lon="11.47926493213239"><ele>623.0</ele><time>2026-03-29T12:32:31Z</time></trkpt><trkpt lat="43.03484084402058" lon="11.479417453503931"><ele>625.0</ele><time>2026-03-29T12:32:32Z</time></trkpt><trkpt lat="43.034740380859894" lon="11.47959662279528"><ele>627.6666666666667</ele><time>2026-03-29T12:32:33Z</time></trkpt><trkpt lat="43.03465770842916" lon="11.479809613716599"><ele>630.3333333333334</ele><time>2026-03-29T12:32:34Z</time></trkpt><trkpt lat="43.034571797121544" lon="11.480039028729676"><ele>633.0</ele><time>2026-03-29T12:32:35Z</time></trkpt><trkpt lat="43.0344714075853" lon="11.480269233986737"><ele>633.0</ele><time>2026-03-29T12:32:36Z</time></trkpt><trkpt lat="43.034350404219616" lon="11.480413894939053"><ele>633.0</ele><time>2026-03-29T12:32:37Z</time></trkpt><trkpt lat="43.034233091470156" lon="11.48050580906682"><ele>633.0</ele><time>2026-03-29T12:32:38Z</time></trkpt><trkpt lat="43.03409510124177" lon="11.480560602175728"><ele>633.0</ele><time>2026-03-29T12:32:39Z</time></trkpt><trkpt lat="43.03393824432052" lon="11.480609831850384"><ele>633.0</ele><time>2026-03-29T12:32:40Z</time></trkpt><trkpt lat="43.033764195238966" lon="11.480684791568057"><ele>633.0</ele><time>2026-03-29T12:32:41Z</time></trkpt><trkpt lat="43.03358455454601" lon="11.480740141498599"><ele>633.0</ele><time>2026-03-29T12:32:42Z</time></trkpt><trkpt lat="43.0334112865132" lon="11.480799502634232"><ele>630.0</ele><time>2026-03-29T12:32:43Z</time></trkpt><trkpt lat="43.03325004440732" lon="11.480855152778501"><ele>627.0</ele><time>2026-03-29T12:32:44Z</time></trkpt><trkpt lat="43.03309470493536" lon="11.480911418794141"><ele>624.0</ele><time>2026-03-29T12:32:45Z</time></trkpt><trkpt lat="43.032932604415926" lon="11.480970511863026"><ele>624.0</ele><time>2026-03-29T12:32:46Z</time></trkpt><trkpt lat="43.03276523316836" lon="11.481025201768324"><ele>624.0</ele><time>2026-03-29T12:32:47Z</time></trkpt><trkpt lat="43.032586130576455" lon="11.481078658147247"><ele>624.0</ele><time>2026-03-29T12:32:48Z</time></trkpt><trkpt lat="43.0323997321474" lon="11.481123987578732"><ele>623.6666666666666</ele><time>2026-03-29T12:32:49Z</time></trkpt><trkpt lat="43.032206188298204" lon="11.481115168729698"><ele>623.3333333333333</ele><time>2026-03-29T12:32:50Z</time></trkpt><trkpt lat="43.03200947459415" lon="11.481117783614176"><ele>623.0</ele><time>2026-03-29T12:32:51Z</time></trkpt><trkpt lat="43.031807058139165" lon="11.481132581963287"><ele>621.3333333333333</ele><time>2026-03-29T12:32:52Z</time></trkpt><trkpt lat="43.031610116717076" lon="11.481136350159643"><ele>619.6666666666666</ele><time>2026-03-29T12:32:53Z</time></trkpt><trkpt lat="43.03141691480997" lon="11.481139561190089"><ele>618.0</ele><time>2026-03-29T12:32:54Z</time></trkpt><trkpt lat="43.0312138278654" lon="11.481138796134633"><ele>618.0</ele><time>2026-03-29T12:32:55Z</time></trkpt><trkpt lat="43.031010448827786" lon="11.481148328217342"><ele>618.0</ele><time>2026-03-29T12:32:56Z</time></trkpt><trkpt lat="43.030800836013256" lon="11.481156496764457"><ele>618.0</ele><time>2026-03-29T12:32:57Z</time></trkpt><trkpt lat="43.03058823546449" lon="11.481154071676833"><ele>618.0</ele><time>2026-03-29T12:32:58Z</time></trkpt><trkpt lat="43.03037161049749" lon="11.48115982862507"><ele>618.0</ele><time>2026-03-29T12:32:59Z</time></trkpt><trkpt lat="43.03015451442273" lon="11.481170836723052"><ele>618.0</ele><time>2026-03-29T12:33:00Z</time></trkpt><trkpt lat="43.02995412278276" lon="11.481192006557043"><ele>616.0</ele><time>2026-03-29T12:33:01Z</time></trkpt><trkpt lat="43.02975197072476" lon="11.481204640211969"><ele>614.0</ele><time>2026-03-29T12:33:02Z</time></trkpt><trkpt lat="43.029544171113656" lon="11.48122544511897"><ele>612.0</ele><time>2026-03-29T12:33:03Z</time></trkpt><trkpt lat="43.02932772561185" lon="11.481248214501006"><ele>612.6666666666666</ele><time>2026-03-29T12:33:04Z</time></trkpt><trkpt lat="43.0291135671106" lon="11.481273004091268"><ele>613.3333333333333</ele><time>2026-03-29T12:33:05Z</time></trkpt><trkpt lat="43.02889238388846" lon="11.481295280026865"><ele>614.0</ele><time>2026-03-29T12:33:06Z</time></trkpt><trkpt lat="43.028664316098975" lon="11.481318792539408"><ele>614.0</ele><time>2026-03-29T12:33:07Z</time></trkpt><trkpt lat="43.02843458639588" lon="11.481343954012546"><ele>614.0</ele><time>2026-03-29T12:33:08Z</time></trkpt><trkpt lat="43.028200402678756" lon="11.48136959494633"><ele>611.5</ele><time>2026-03-29T12:33:09Z</time></trkpt><trkpt lat="43.02795970638444" lon="11.481393448371463"><ele>609.0</ele><time>2026-03-29T12:33:10Z</time></trkpt><trkpt lat="43.02772954889747" lon="11.481417861121432"><ele>609.0</ele><time>2026-03-29T12:33:11Z</time></trkpt><trkpt lat="43.02751689582958" lon="11.481440778100474"><ele>609.0</ele><time>2026-03-29T12:33:12Z</time></trkpt><trkpt lat="43.02731429451155" lon="11.481464382144878"><ele>609.0</ele><time>2026-03-29T12:33:13Z</time></trkpt><trkpt lat="43.02710256083705" lon="11.481483916600993"><ele>608.6666666666666</ele><time>2026-03-29T12:33:14Z</time></trkpt><trkpt lat="43.026884580375906" lon="11.481505629519333"><ele>608.3333333333333</ele><time>2026-03-29T12:33:15Z</time></trkpt><trkpt lat="43.02666407027459" lon="11.481527199416654"><ele>608.0</ele><time>2026-03-29T12:33:16Z</time></trkpt><trkpt lat="43.02646748606941" lon="11.481547835587023"><ele>608.6666666666666</ele><time>2026-03-29T12:33:17Z</time></trkpt><trkpt lat="43.02628115181195" lon="11.481565315429659"><ele>609.3333333333334</ele><time>2026-03-29T12:33:18Z</time></trkpt><trkpt lat="43.02610636307505" lon="11.481582855966222"><ele>610.0</ele><time>2026-03-29T12:33:19Z</time></trkpt><trkpt lat="43.02594344326335" lon="11.481604235079699"><ele>610.6666666666667</ele><time>2026-03-29T12:33:20Z</time></trkpt><trkpt lat="43.025768250714705" lon="11.481635770309815"><ele>611.3333333333334</ele><time>2026-03-29T12:33:21Z</time></trkpt><trkpt lat="43.02560549289435" lon="11.481699422442082"><ele>612.0</ele><time>2026-03-29T12:33:22Z</time></trkpt><trkpt lat="43.025464616029545" lon="11.48179136945986"><ele>612.0</ele><time>2026-03-29T12:33:23Z</time></trkpt><trkpt lat="43.0253335518765" lon="11.481911033729114"><ele>612.0</ele><time>2026-03-29T12:33:24Z</time></trkpt><trkpt lat="43.02519840975015" lon="11.48206936147973"><ele>612.0</ele><time>2026-03-29T12:33:25Z</time></trkpt><trkpt lat="43.02505598302271" lon="11.482253262444889"><ele>609.3333333333334</ele><time>2026-03-29T12:33:26Z</time></trkpt><trkpt lat="43.02491242793577" lon="11.482418759007754"><ele>606.6666666666667</ele><time>2026-03-29T12:33:27Z</time></trkpt><trkpt lat="43.02478167989202" lon="11.482555293066822"><ele>604.0</ele><time>2026-03-29T12:33:28Z</time></trkpt><trkpt lat="43.02465959340768" lon="11.482684939457386"><ele>604.0</ele><time>2026-03-29T12:33:29Z</time></trkpt><trkpt lat="43.024540218444976" lon="11.482811463907861"><ele>604.0</ele><time>2026-03-29T12:33:29.999Z</time></trkpt><trkpt lat="43.02441097325572" lon="11.482941464818234"><ele>604.0</ele><time>2026-03-29T12:33:30.999Z</time></trkpt><trkpt lat="43.02426306284852" lon="11.483028783970386"><ele>603.75</ele><time>2026-03-29T12:33:31.999Z</time></trkpt><trkpt lat="43.024124522855466" lon="11.483098569636558"><ele>603.5</ele><time>2026-03-29T12:33:32.999Z</time></trkpt><trkpt lat="43.02399033085556" lon="11.483174715995661"><ele>603.25</ele><time>2026-03-29T12:33:33.999Z</time></trkpt><trkpt lat="43.02385701929584" lon="11.48322851740226"><ele>603.0</ele><time>2026-03-29T12:33:34.999Z</time></trkpt><trkpt lat="43.023729859689794" lon="11.483292008110736"><ele>603.0</ele><time>2026-03-29T12:33:35.999Z</time></trkpt><trkpt lat="43.02360524851476" lon="11.48334933599852"><ele>603.0</ele><time>2026-03-29T12:33:36.999Z</time></trkpt><trkpt lat="43.02347291470895" lon="11.483395889724832"><ele>603.0</ele><time>2026-03-29T12:33:37.999Z</time></trkpt><trkpt lat="43.02333002313874" lon="11.483440239180053"><ele>603.0</ele><time>2026-03-29T12:33:38.999Z</time></trkpt><trkpt lat="43.02317987711427" lon="11.483455494311858"><ele>601.0</ele><time>2026-03-29T12:33:39.999Z</time></trkpt><trkpt lat="43.02301906861903" lon="11.483465602124634"><ele>599.0</ele><time>2026-03-29T12:33:40.999Z</time></trkpt><trkpt lat="43.022848866861565" lon="11.483477711350004"><ele>597.0</ele><time>2026-03-29T12:33:41.999Z</time></trkpt><trkpt lat="43.02265830675136" lon="11.483472039827282"><ele>594.6666666666666</ele><time>2026-03-29T12:33:42.999Z</time></trkpt><trkpt lat="43.02246244450089" lon="11.483481379194819"><ele>592.3333333333333</ele><time>2026-03-29T12:33:43.999Z</time></trkpt><trkpt lat="43.02225844879756" lon="11.483491106382662"><ele>590.0</ele><time>2026-03-29T12:33:44.999Z</time></trkpt><trkpt lat="43.02204325788522" lon="11.483501367403438"><ele>590.0</ele><time>2026-03-29T12:33:45.999Z</time></trkpt><trkpt lat="43.021818489691476" lon="11.483522284649636"><ele>590.0</ele><time>2026-03-29T12:33:46.999Z</time></trkpt><trkpt lat="43.02159591061998" lon="11.48352458594484"><ele>590.0</ele><time>2026-03-29T12:33:47.999Z</time></trkpt><trkpt lat="43.02139041625665" lon="11.483535856346629"><ele>588.6666666666666</ele><time>2026-03-29T12:33:48.999Z</time></trkpt><trkpt lat="43.02119917569612" lon="11.483544938419664"><ele>587.3333333333334</ele><time>2026-03-29T12:33:49.999Z</time></trkpt><trkpt lat="43.02101584775513" lon="11.483558252871438"><ele>586.0</ele><time>2026-03-29T12:33:50.999Z</time></trkpt><trkpt lat="43.020835696185046" lon="11.48357053382082"><ele>584.6666666666667</ele><time>2026-03-29T12:33:51.999Z</time></trkpt><trkpt lat="43.020649124205335" lon="11.483607453373283"><ele>583.3333333333334</ele><time>2026-03-29T12:33:52.999Z</time></trkpt><trkpt lat="43.020451631048246" lon="11.483663042083412"><ele>582.0</ele><time>2026-03-29T12:33:53.999Z</time></trkpt><trkpt lat="43.02024328795918" lon="11.48373580821187"><ele>582.3333333333334</ele><time>2026-03-29T12:33:54.999Z</time></trkpt><trkpt lat="43.02005079603829" lon="11.48381006214049"><ele>582.6666666666667</ele><time>2026-03-29T12:33:55.999Z</time></trkpt><trkpt lat="43.019874023763" lon="11.483872028753813"><ele>583.0</ele><time>2026-03-29T12:33:56.999Z</time></trkpt><trkpt lat="43.01971038775319" lon="11.483920582616845"><ele>582.0</ele><time>2026-03-29T12:33:57.999Z</time></trkpt><trkpt lat="43.019552988384774" lon="11.483946220403022"><ele>581.0</ele><time>2026-03-29T12:33:58.999Z</time></trkpt><trkpt lat="43.01939328681586" lon="11.483947303506207"><ele>580.0</ele><time>2026-03-29T12:33:59.999Z</time></trkpt><trkpt lat="43.019220558099455" lon="11.483918153396404"><ele>577.6666666666667</ele><time>2026-03-29T12:34:00.999Z</time></trkpt><trkpt lat="43.01903641262121" lon="11.483854204914765"><ele>575.3333333333334</ele><time>2026-03-29T12:34:01.999Z</time></trkpt><trkpt lat="43.01886753051384" lon="11.483742387705934"><ele>573.0</ele><time>2026-03-29T12:34:02.999Z</time></trkpt><trkpt lat="43.01867434155683" lon="11.483657435907084"><ele>573.0</ele><time>2026-03-29T12:34:03.999Z</time></trkpt><trkpt lat="43.01847683432691" lon="11.48354118619891"><ele>573.0</ele><time>2026-03-29T12:34:04.999Z</time></trkpt><trkpt lat="43.018286225933444" lon="11.483434382556759"><ele>573.0</ele><time>2026-03-29T12:34:05.999Z</time></trkpt><trkpt lat="43.018108707775525" lon="11.483339244874866"><ele>570.3333333333334</ele><time>2026-03-29T12:34:06.999Z</time></trkpt><trkpt lat="43.01794772597579" lon="11.483251752122355"><ele>567.6666666666667</ele><time>2026-03-29T12:34:07.999Z</time></trkpt><trkpt lat="43.01779975177494" lon="11.483169045595176"><ele>565.0</ele><time>2026-03-29T12:34:08.999Z</time></trkpt><trkpt lat="43.01766059787038" lon="11.483110133981228"><ele>565.0</ele><time>2026-03-29T12:34:09.999Z</time></trkpt><trkpt lat="43.01749912065734" lon="11.483074612363003"><ele>565.0</ele><time>2026-03-29T12:34:10.999Z</time></trkpt><trkpt lat="43.01731407303288" lon="11.483069714320084"><ele>565.0</ele><time>2026-03-29T12:34:11.999Z</time></trkpt><trkpt lat="43.017135066760275" lon="11.483093240968564"><ele>563.0</ele><time>2026-03-29T12:34:12.999Z</time></trkpt><trkpt lat="43.016963388014176" lon="11.483146771885506"><ele>561.0</ele><time>2026-03-29T12:34:13.999Z</time></trkpt><trkpt lat="43.01678679007414" lon="11.483237842849132"><ele>559.0</ele><time>2026-03-29T12:34:14.999Z</time></trkpt><trkpt lat="43.016611119955215" lon="11.483351212848733"><ele>559.0</ele><time>2026-03-29T12:34:15.999Z</time></trkpt><trkpt lat="43.01643010863985" lon="11.48348298741349"><ele>559.0</ele><time>2026-03-29T12:34:16.999Z</time></trkpt><trkpt lat="43.01624111682924" lon="11.483620201651382"><ele>559.0</ele><time>2026-03-29T12:34:17.999Z</time></trkpt><trkpt lat="43.01604574687938" lon="11.48375992419764"><ele>557.5</ele><time>2026-03-29T12:34:18.999Z</time></trkpt><trkpt lat="43.0158412799631" lon="11.483903444804419"><ele>556.0</ele><time>2026-03-29T12:34:19.999Z</time></trkpt><trkpt lat="43.01563432619248" lon="11.484047002018437"><ele>555.6666666666667</ele><time>2026-03-29T12:34:20.999Z</time></trkpt><trkpt lat="43.01544472840749" lon="11.484175967101319"><ele>555.3333333333334</ele><time>2026-03-29T12:34:21.999Z</time></trkpt><trkpt lat="43.01526479932574" lon="11.48429704689115"><ele>555.0</ele><time>2026-03-29T12:34:22.999Z</time></trkpt><trkpt lat="43.01509980499245" lon="11.484409825076938"><ele>553.0</ele><time>2026-03-29T12:34:23.999Z</time></trkpt><trkpt lat="43.01493685656867" lon="11.484511500910195"><ele>551.0</ele><time>2026-03-29T12:34:24.999Z</time></trkpt><trkpt lat="43.014781539108775" lon="11.484602151539555"><ele>549.0</ele><time>2026-03-29T12:34:25.999Z</time></trkpt><trkpt lat="43.0146263594988" lon="11.48467951478659"><ele>549.0</ele><time>2026-03-29T12:34:26.999Z</time></trkpt><trkpt lat="43.01445053419322" lon="11.484739569035568"><ele>549.0</ele><time>2026-03-29T12:34:27.999Z</time></trkpt><trkpt lat="43.01425946434155" lon="11.484760994030365"><ele>549.0</ele><time>2026-03-29T12:34:28.999Z</time></trkpt><trkpt lat="43.01407049766226" lon="11.484742162332353"><ele>549.0</ele><time>2026-03-29T12:34:29.999Z</time></trkpt><trkpt lat="43.013902132305155" lon="11.4846954301116"><ele>549.0</ele><time>2026-03-29T12:34:31Z</time></trkpt><trkpt lat="43.01372553603667" lon="11.484616033878492"><ele>549.0</ele><time>2026-03-29T12:34:32Z</time></trkpt><trkpt lat="43.013549641181605" lon="11.484511243877241"><ele>549.0</ele><time>2026-03-29T12:34:33Z</time></trkpt><trkpt lat="43.01338733223792" lon="11.484358488837762"><ele>549.0</ele><time>2026-03-29T12:34:34Z</time></trkpt><trkpt lat="43.01320917380365" lon="11.484237146863132"><ele>549.0</ele><time>2026-03-29T12:34:35Z</time></trkpt><trkpt lat="43.013040406919174" lon="11.48409427119098"><ele>550.0</ele><time>2026-03-29T12:34:36Z</time></trkpt><trkpt lat="43.01286553922392" lon="11.48395041346233"><ele>551.0</ele><time>2026-03-29T12:34:37Z</time></trkpt><trkpt lat="43.01268667363666" lon="11.48380312196394"><ele>552.0</ele><time>2026-03-29T12:34:38Z</time></trkpt><trkpt lat="43.01250135053463" lon="11.483654993788923"><ele>552.0</ele><time>2026-03-29T12:34:39Z</time></trkpt><trkpt lat="43.01231753436776" lon="11.48350646318955"><ele>552.0</ele><time>2026-03-29T12:34:40Z</time></trkpt><trkpt lat="43.01215117194599" lon="11.48336160455805"><ele>552.0</ele><time>2026-03-29T12:34:41Z</time></trkpt><trkpt lat="43.01200726254188" lon="11.4832166560542"><ele>552.0</ele><time>2026-03-29T12:34:42Z</time></trkpt><trkpt lat="43.011902084067195" lon="11.483034772087288"><ele>552.0</ele><time>2026-03-29T12:34:43Z</time></trkpt><trkpt lat="43.01182889441479" lon="11.48283640356397"><ele>552.0</ele><time>2026-03-29T12:34:44Z</time></trkpt><trkpt lat="43.01176861443423" lon="11.482619290724795"><ele>549.6666666666666</ele><time>2026-03-29T12:34:45Z</time></trkpt><trkpt lat="43.01169244821606" lon="11.482380615037952"><ele>547.3333333333333</ele><time>2026-03-29T12:34:46Z</time></trkpt><trkpt lat="43.01163255174168" lon="11.482122760619994"><ele>545.0</ele><time>2026-03-29T12:34:47Z</time></trkpt><trkpt lat="43.01156319580528" lon="11.481856306756281"><ele>542.0</ele><time>2026-03-29T12:34:48Z</time></trkpt><trkpt lat="43.01148689704021" lon="11.48157469330441"><ele>539.0</ele><time>2026-03-29T12:34:49Z</time></trkpt><trkpt lat="43.01140958019914" lon="11.48130417467683"><ele>536.0</ele><time>2026-03-29T12:34:50Z</time></trkpt><trkpt lat="43.01133916705961" lon="11.481052407517105"><ele>534.6666666666666</ele><time>2026-03-29T12:34:51Z</time></trkpt><trkpt lat="43.01127588982552" lon="11.480809310672383"><ele>533.3333333333334</ele><time>2026-03-29T12:34:52Z</time></trkpt><trkpt lat="43.01121471325717" lon="11.480563536651534"><ele>532.0</ele><time>2026-03-29T12:34:53Z</time></trkpt><trkpt lat="43.011154895444356" lon="11.480315754255448"><ele>530.0</ele><time>2026-03-29T12:34:54Z</time></trkpt><trkpt lat="43.0111009265002" lon="11.480054814585907"><ele>528.0</ele><time>2026-03-29T12:34:55Z</time></trkpt><trkpt lat="43.0110523786992" lon="11.479770227118625"><ele>526.0</ele><time>2026-03-29T12:34:56Z</time></trkpt><trkpt lat="43.011008786692464" lon="11.479494041910236"><ele>524.3333333333334</ele><time>2026-03-29T12:34:57Z</time></trkpt><trkpt lat="43.01095392095871" lon="11.479221206909665"><ele>522.6666666666666</ele><time>2026-03-29T12:34:58Z</time></trkpt><trkpt lat="43.01090992342983" lon="11.47897285595415"><ele>521.0</ele><time>2026-03-29T12:34:59Z</time></trkpt><trkpt lat="43.010859468915115" lon="11.478742708966022"><ele>516.6666666666666</ele><time>2026-03-29T12:35:00Z</time></trkpt><trkpt lat="43.0107963338988" lon="11.47851963479373"><ele>512.3333333333334</ele><time>2026-03-29T12:35:01Z</time></trkpt><trkpt lat="43.01071355724179" lon="11.478306406442218"><ele>508.0</ele><time>2026-03-29T12:35:02Z</time></trkpt><trkpt lat="43.01060097853021" lon="11.478101219085515"><ele>507.33333333333337</ele><time>2026-03-29T12:35:03Z</time></trkpt><trkpt lat="43.01046417919324" lon="11.477907824333204"><ele>506.66666666666663</ele><time>2026-03-29T12:35:04Z</time></trkpt><trkpt lat="43.010311051902" lon="11.477709750246722"><ele>506.0</ele><time>2026-03-29T12:35:05Z</time></trkpt><trkpt lat="43.01013934415524" lon="11.477501562473114"><ele>501.0</ele><time>2026-03-29T12:35:06Z</time></trkpt><trkpt lat="43.009978014552004" lon="11.477261612017472"><ele>496.0</ele><time>2026-03-29T12:35:07Z</time></trkpt><trkpt lat="43.009803456571895" lon="11.477005175316014"><ele>496.0</ele><time>2026-03-29T12:35:08Z</time></trkpt><trkpt lat="43.0096787748835" lon="11.476870206940717"><ele>496.0</ele><time>2026-03-29T12:35:10Z</time></trkpt><trkpt lat="43.00960270723438" lon="11.476680021462887"><ele>496.0</ele><time>2026-03-29T12:35:11Z</time></trkpt><trkpt lat="43.00953637064433" lon="11.476497263361692"><ele>496.0</ele><time>2026-03-29T12:35:12Z</time></trkpt><trkpt lat="43.00948744368854" lon="11.476304210434025"><ele>496.0</ele><time>2026-03-29T12:35:13Z</time></trkpt><trkpt lat="43.00945274682846" lon="11.476083176436795"><ele>496.0</ele><time>2026-03-29T12:35:14Z</time></trkpt><trkpt lat="43.009431450881635" lon="11.475830024892689"><ele>494.6666666666667</ele><time>2026-03-29T12:35:15Z</time></trkpt><trkpt lat="43.00942262088074" lon="11.475545125006235"><ele>493.33333333333337</ele><time>2026-03-29T12:35:16Z</time></trkpt><trkpt lat="43.00942191551443" lon="11.475273177554158"><ele>492.0</ele><time>2026-03-29T12:35:17Z</time></trkpt><trkpt lat="43.00943871907106" lon="11.475025188959899"><ele>490.0</ele><time>2026-03-29T12:35:18Z</time></trkpt><trkpt lat="43.009466457640556" lon="11.474771385005795"><ele>488.0</ele><time>2026-03-29T12:35:19Z</time></trkpt><trkpt lat="43.00950654936409" lon="11.474513941211638"><ele>486.0</ele><time>2026-03-29T12:35:20Z</time></trkpt><trkpt lat="43.009551771794136" lon="11.474253186671907"><ele>483.66666666666663</ele><time>2026-03-29T12:35:21Z</time></trkpt><trkpt lat="43.00959749300271" lon="11.473993797231195"><ele>481.3333333333333</ele><time>2026-03-29T12:35:22Z</time></trkpt><trkpt lat="43.00962153083974" lon="11.473757504647523"><ele>479.0</ele><time>2026-03-29T12:35:23Z</time></trkpt><trkpt lat="43.00966168245015" lon="11.473532375171748"><ele>478.0</ele><time>2026-03-29T12:35:24Z</time></trkpt><trkpt lat="43.00969563817847" lon="11.473320681650902"><ele>477.0</ele><time>2026-03-29T12:35:25Z</time></trkpt><trkpt lat="43.00970690468654" lon="11.473107139237618"><ele>476.0</ele><time>2026-03-29T12:35:26Z</time></trkpt><trkpt lat="43.00968612821927" lon="11.472879115822863"><ele>476.0</ele><time>2026-03-29T12:35:27Z</time></trkpt><trkpt lat="43.009627173526326" lon="11.472660549972037"><ele>476.0</ele><time>2026-03-29T12:35:28Z</time></trkpt><trkpt lat="43.00952817162448" lon="11.472458381746268"><ele>476.0</ele><time>2026-03-29T12:35:29Z</time></trkpt><trkpt lat="43.009404452402876" lon="11.472267577656321"><ele>477.0</ele><time>2026-03-29T12:35:30Z</time></trkpt><trkpt lat="43.00926527773137" lon="11.472081602306295"><ele>478.0</ele><time>2026-03-29T12:35:31Z</time></trkpt><trkpt lat="43.00911511810333" lon="11.471865747882562"><ele>479.0</ele><time>2026-03-29T12:35:32Z</time></trkpt><trkpt lat="43.00896831188659" lon="11.47166122130718"><ele>479.0</ele><time>2026-03-29T12:35:33Z</time></trkpt><trkpt lat="43.00883320097945" lon="11.471439529192134"><ele>479.0</ele><time>2026-03-29T12:35:34Z</time></trkpt><trkpt lat="43.008696067690465" lon="11.47119602933731"><ele>479.0</ele><time>2026-03-29T12:35:35Z</time></trkpt><trkpt lat="43.00858570341648" lon="11.470908477553923"><ele>479.0</ele><time>2026-03-29T12:35:36Z</time></trkpt><trkpt lat="43.00849065880655" lon="11.470611778399485"><ele>479.0</ele><time>2026-03-29T12:35:37Z</time></trkpt><trkpt lat="43.00841541409676" lon="11.470330618114277"><ele>479.5</ele><time>2026-03-29T12:35:38Z</time></trkpt><trkpt lat="43.00834847204281" lon="11.470032746872493"><ele>480.0</ele><time>2026-03-29T12:35:39Z</time></trkpt><trkpt lat="43.00828473324972" lon="11.469731348245075"><ele>475.0</ele><time>2026-03-29T12:35:40Z</time></trkpt><trkpt lat="43.00822448345644" lon="11.469434275041568"><ele>470.0</ele><time>2026-03-29T12:35:41Z</time></trkpt><trkpt lat="43.008145933289654" lon="11.469137675812744"><ele>470.0</ele><time>2026-03-29T12:35:41.999Z</time></trkpt><trkpt lat="43.008081590307434" lon="11.4688293060165"><ele>470.0</ele><time>2026-03-29T12:35:42.999Z</time></trkpt><trkpt lat="43.00803243188843" lon="11.46851629931485"><ele>471.5</ele><time>2026-03-29T12:35:43.999Z</time></trkpt><trkpt lat="43.00796760010072" lon="11.468204189924503"><ele>473.0</ele><time>2026-03-29T12:35:44.999Z</time></trkpt><trkpt lat="43.00788776253741" lon="11.467909283356347"><ele>473.3333333333333</ele><time>2026-03-29T12:35:45.999Z</time></trkpt><trkpt lat="43.00783251949049" lon="11.467632314969944"><ele>473.66666666666663</ele><time>2026-03-29T12:35:46.999Z</time></trkpt><trkpt lat="43.00777995859153" lon="11.467378660676216"><ele>474.0</ele><time>2026-03-29T12:35:47.999Z</time></trkpt><trkpt lat="43.00773041813644" lon="11.467135728824163"><ele>474.0</ele><time>2026-03-29T12:35:48.999Z</time></trkpt><trkpt lat="43.00767909736249" lon="11.466895131234711"><ele>474.0</ele><time>2026-03-29T12:35:49.999Z</time></trkpt><trkpt lat="43.007629695401924" lon="11.466645410102418"><ele>474.0</ele><time>2026-03-29T12:35:50.999Z</time></trkpt><trkpt lat="43.0075741045468" lon="11.466390178748139"><ele>472.66666666666663</ele><time>2026-03-29T12:35:51.999Z</time></trkpt><trkpt lat="43.00751475966529" lon="11.466125750743272"><ele>471.3333333333333</ele><time>2026-03-29T12:35:52.999Z</time></trkpt><trkpt lat="43.00745676221664" lon="11.46585049034371"><ele>470.0</ele><time>2026-03-29T12:35:53.999Z</time></trkpt><trkpt lat="43.00741926803053" lon="11.465559925552041"><ele>464.5</ele><time>2026-03-29T12:35:54.999Z</time></trkpt><trkpt lat="43.00738234191583" lon="11.465257526035915"><ele>459.0</ele><time>2026-03-29T12:35:55.999Z</time></trkpt><trkpt lat="43.007347988655034" lon="11.464948452618723"><ele>459.0</ele><time>2026-03-29T12:35:56.999Z</time></trkpt><trkpt lat="43.007304716286065" lon="11.464659999064537"><ele>459.0</ele><time>2026-03-29T12:35:57.999Z</time></trkpt><trkpt lat="43.0072810482227" lon="11.464395660684708"><ele>459.0</ele><time>2026-03-29T12:35:58.999Z</time></trkpt><trkpt lat="43.0072810612163" lon="11.464146706647611"><ele>458.0</ele><time>2026-03-29T12:35:59.999Z</time></trkpt><trkpt lat="43.00729105585528" lon="11.463902998186278"><ele>457.0</ele><time>2026-03-29T12:36:00.999Z</time></trkpt><trkpt lat="43.00732247376372" lon="11.463663571065586"><ele>456.0</ele><time>2026-03-29T12:36:01.999Z</time></trkpt><trkpt lat="43.007376916434936" lon="11.463419359329057"><ele>455.66666666666663</ele><time>2026-03-29T12:36:02.999Z</time></trkpt><trkpt lat="43.00745472952834" lon="11.46317796176958"><ele>455.3333333333333</ele><time>2026-03-29T12:36:03.999Z</time></trkpt><trkpt lat="43.00752152732497" lon="11.462966171652726"><ele>455.0</ele><time>2026-03-29T12:36:04.999Z</time></trkpt><trkpt lat="43.0075980381356" lon="11.462792784657271"><ele>454.75</ele><time>2026-03-29T12:36:05.999Z</time></trkpt><trkpt lat="43.00764893434573" lon="11.462616146500446"><ele>454.5</ele><time>2026-03-29T12:36:06.999Z</time></trkpt><trkpt lat="43.00766612734289" lon="11.462419339550353"><ele>454.25</ele><time>2026-03-29T12:36:07.999Z</time></trkpt><trkpt lat="43.00765025769438" lon="11.46221283410693"><ele>454.0</ele><time>2026-03-29T12:36:08.999Z</time></trkpt><trkpt lat="43.00759923740804" lon="11.462027694847368"><ele>451.6666666666667</ele><time>2026-03-29T12:36:09.999Z</time></trkpt><trkpt lat="43.007516053424126" lon="11.461857583567264"><ele>449.33333333333337</ele><time>2026-03-29T12:36:10.999Z</time></trkpt><trkpt lat="43.00740283078483" lon="11.461710676908348"><ele>447.0</ele><time>2026-03-29T12:36:11.999Z</time></trkpt><trkpt lat="43.00727345552112" lon="11.461607966095313"><ele>445.75</ele><time>2026-03-29T12:36:12.999Z</time></trkpt><trkpt lat="43.007136645245865" lon="11.46154864454327"><ele>444.5</ele><time>2026-03-29T12:36:13.999Z</time></trkpt><trkpt lat="43.00699338152975" lon="11.461537808933485"><ele>443.25</ele><time>2026-03-29T12:36:14.999Z</time></trkpt><trkpt lat="43.006840734612474" lon="11.461566886234646"><ele>442.0</ele><time>2026-03-29T12:36:15.999Z</time></trkpt><trkpt lat="43.00668562768814" lon="11.461642489767117"><ele>438.33333333333337</ele><time>2026-03-29T12:36:16.999Z</time></trkpt><trkpt lat="43.00652175022039" lon="11.4617494266588"><ele>434.66666666666663</ele><time>2026-03-29T12:36:17.999Z</time></trkpt><trkpt lat="43.006343255982635" lon="11.461856119821544"><ele>431.0</ele><time>2026-03-29T12:36:18.999Z</time></trkpt><trkpt lat="43.00616545563309" lon="11.461953484613241"><ele>431.0</ele><time>2026-03-29T12:36:19.999Z</time></trkpt><trkpt lat="43.005978424000205" lon="11.462050915364498"><ele>431.0</ele><time>2026-03-29T12:36:20.999Z</time></trkpt><trkpt lat="43.00577994583493" lon="11.462155873833545"><ele>431.0</ele><time>2026-03-29T12:36:21.999Z</time></trkpt><trkpt lat="43.00559089459155" lon="11.462252704531398"><ele>429.3333333333333</ele><time>2026-03-29T12:36:22.999Z</time></trkpt><trkpt lat="43.005415340630485" lon="11.462348287794738"><ele>427.66666666666663</ele><time>2026-03-29T12:36:23.999Z</time></trkpt><trkpt lat="43.005236141803316" lon="11.462420648405782"><ele>426.0</ele><time>2026-03-29T12:36:24.999Z</time></trkpt><trkpt lat="43.005079861775314" lon="11.462527232810698"><ele>423.0</ele><time>2026-03-29T12:36:25.999Z</time></trkpt><trkpt lat="43.00490785784957" lon="11.462614364159494"><ele>420.0</ele><time>2026-03-29T12:36:26.999Z</time></trkpt><trkpt lat="43.00472085359128" lon="11.462712215670352"><ele>417.0</ele><time>2026-03-29T12:36:27.999Z</time></trkpt><trkpt lat="43.00454618022516" lon="11.46280338129889"><ele>417.0</ele><time>2026-03-29T12:36:28.999Z</time></trkpt><trkpt lat="43.004379867017164" lon="11.46288616120313"><ele>417.0</ele><time>2026-03-29T12:36:29.999Z</time></trkpt><trkpt lat="43.00422382408291" lon="11.46295661084427"><ele>417.0</ele><time>2026-03-29T12:36:30.999Z</time></trkpt><trkpt lat="43.00407062684454" lon="11.463018882165938"><ele>416.66666666666663</ele><time>2026-03-29T12:36:31.999Z</time></trkpt><trkpt lat="43.00391715507436" lon="11.463066731670681"><ele>416.3333333333333</ele><time>2026-03-29T12:36:32.999Z</time></trkpt><trkpt lat="43.00376807202088" lon="11.463065355997369"><ele>416.0</ele><time>2026-03-29T12:36:33.999Z</time></trkpt><trkpt lat="43.00362816684097" lon="11.46302082813848"><ele>415.0</ele><time>2026-03-29T12:36:34.999Z</time></trkpt><trkpt lat="43.003493178726565" lon="11.462934110323108"><ele>414.0</ele><time>2026-03-29T12:36:35.999Z</time></trkpt><trkpt lat="43.00335739000736" lon="11.462816480786003"><ele>413.0</ele><time>2026-03-29T12:36:37Z</time></trkpt><trkpt lat="43.00323425835678" lon="11.46264827806554"><ele>417.66666666666663</ele><time>2026-03-29T12:36:38Z</time></trkpt><trkpt lat="43.003125330555235" lon="11.462464208460649"><ele>422.33333333333337</ele><time>2026-03-29T12:36:39Z</time></trkpt><trkpt lat="43.003056278479704" lon="11.462273045599916"><ele>427.0</ele><time>2026-03-29T12:36:40Z</time></trkpt><trkpt lat="43.00302114923618" lon="11.462077229256574"><ele>427.33333333333337</ele><time>2026-03-29T12:36:41Z</time></trkpt><trkpt lat="43.003012066820276" lon="11.461872173493273"><ele>427.66666666666663</ele><time>2026-03-29T12:36:42Z</time></trkpt><trkpt lat="43.00301944370232" lon="11.461650368016471"><ele>428.0</ele><time>2026-03-29T12:36:43Z</time></trkpt><trkpt lat="43.00302216079665" lon="11.461410753044651"><ele>429.3333333333333</ele><time>2026-03-29T12:36:44Z</time></trkpt><trkpt lat="43.00301309570992" lon="11.4611652873608"><ele>430.66666666666663</ele><time>2026-03-29T12:36:45Z</time></trkpt><trkpt lat="43.00299107614936" lon="11.460914830968232"><ele>432.0</ele><time>2026-03-29T12:36:46Z</time></trkpt><trkpt lat="43.002952031774576" lon="11.460697523187493"><ele>432.0</ele><time>2026-03-29T12:36:47Z</time></trkpt><trkpt lat="43.00290323944412" lon="11.46049313166364"><ele>432.0</ele><time>2026-03-29T12:36:48Z</time></trkpt><trkpt lat="43.00284108231695" lon="11.460282484671334"><ele>432.0</ele><time>2026-03-29T12:36:49Z</time></trkpt><trkpt lat="43.00275712280875" lon="11.460065338451663"><ele>433.33333333333337</ele><time>2026-03-29T12:36:50Z</time></trkpt><trkpt lat="43.00265189583539" lon="11.459853060145484"><ele>434.6666666666667</ele><time>2026-03-29T12:36:51Z</time></trkpt><trkpt lat="43.00252665668778" lon="11.459633986207425"><ele>436.0</ele><time>2026-03-29T12:36:52Z</time></trkpt><trkpt lat="43.00239718958012" lon="11.459415604200998"><ele>436.0</ele><time>2026-03-29T12:36:53Z</time></trkpt><trkpt lat="43.00227456391656" lon="11.459230508380976"><ele>436.0</ele><time>2026-03-29T12:36:54Z</time></trkpt><trkpt lat="43.00215012083198" lon="11.459071225268774"><ele>436.0</ele><time>2026-03-29T12:36:55Z</time></trkpt><trkpt lat="43.002017372392096" lon="11.4589319330141"><ele>436.0</ele><time>2026-03-29T12:36:56Z</time></trkpt><trkpt lat="43.00186405239447" lon="11.458795535963318"><ele>436.0</ele><time>2026-03-29T12:36:57Z</time></trkpt><trkpt lat="43.00170522641187" lon="11.45865275353936"><ele>436.0</ele><time>2026-03-29T12:36:58Z</time></trkpt><trkpt lat="43.001543163633684" lon="11.458505882839486"><ele>434.0</ele><time>2026-03-29T12:36:59Z</time></trkpt><trkpt lat="43.001393559010815" lon="11.45837297292193"><ele>432.0</ele><time>2026-03-29T12:37:00Z</time></trkpt><trkpt lat="43.00126529888776" lon="11.4582558287548"><ele>430.0</ele><time>2026-03-29T12:37:01Z</time></trkpt><trkpt lat="43.00113966809302" lon="11.458148542985743"><ele>430.0</ele><time>2026-03-29T12:37:02Z</time></trkpt><trkpt lat="43.00100645794049" lon="11.45803224630253"><ele>430.0</ele><time>2026-03-29T12:37:03Z</time></trkpt><trkpt lat="43.00087547396857" lon="11.45791472226236"><ele>430.0</ele><time>2026-03-29T12:37:04Z</time></trkpt><trkpt lat="43.000751326880405" lon="11.457827455472447"><ele>427.0</ele><time>2026-03-29T12:37:05Z</time></trkpt><trkpt lat="43.00060874459181" lon="11.457771479523126"><ele>424.0</ele><time>2026-03-29T12:37:06Z</time></trkpt><trkpt lat="43.00044582967201" lon="11.457746998322088"><ele>421.0</ele><time>2026-03-29T12:37:07Z</time></trkpt><trkpt lat="43.00027081219574" lon="11.45774977162709"><ele>421.0</ele><time>2026-03-29T12:37:08Z</time></trkpt><trkpt lat="43.0001032294363" lon="11.457763863914378"><ele>421.0</ele><time>2026-03-29T12:37:09Z</time></trkpt><trkpt lat="42.99993102598033" lon="11.457772550572347"><ele>421.0</ele><time>2026-03-29T12:37:10Z</time></trkpt><trkpt lat="42.999759067812505" lon="11.457771761133168"><ele>421.0</ele><time>2026-03-29T12:37:11Z</time></trkpt><trkpt lat="42.999604389167025" lon="11.457773486627648"><ele>421.0</ele><time>2026-03-29T12:37:12Z</time></trkpt><trkpt lat="42.999443863235406" lon="11.457790931707352"><ele>421.0</ele><time>2026-03-29T12:37:13Z</time></trkpt><trkpt lat="42.99928106281136" lon="11.457827489381598"><ele>421.0</ele><time>2026-03-29T12:37:14Z</time></trkpt><trkpt lat="42.99912586009317" lon="11.45786165627111"><ele>421.0</ele><time>2026-03-29T12:37:15Z</time></trkpt><trkpt lat="42.998969922570495" lon="11.457895684822715"><ele>421.0</ele><time>2026-03-29T12:37:16Z</time></trkpt><trkpt lat="42.998804445136585" lon="11.45793130653484"><ele>422.6666666666667</ele><time>2026-03-29T12:37:17Z</time></trkpt><trkpt lat="42.99863428266376" lon="11.45796236510767"><ele>424.33333333333337</ele><time>2026-03-29T12:37:18Z</time></trkpt><trkpt lat="42.99847918628226" lon="11.458006442139176"><ele>426.0</ele><time>2026-03-29T12:37:19Z</time></trkpt><trkpt lat="42.99833618486722" lon="11.45806817922392"><ele>424.0</ele><time>2026-03-29T12:37:20Z</time></trkpt><trkpt lat="42.998186374247695" lon="11.458164277235355"><ele>422.0</ele><time>2026-03-29T12:37:21Z</time></trkpt><trkpt lat="42.998031619542594" lon="11.458275808410427"><ele>420.0</ele><time>2026-03-29T12:37:22Z</time></trkpt><trkpt lat="42.99786790194115" lon="11.45838210418752"><ele>420.0</ele><time>2026-03-29T12:37:23Z</time></trkpt><trkpt lat="42.99771665116406" lon="11.45846927592083"><ele>420.0</ele><time>2026-03-29T12:37:24Z</time></trkpt><trkpt lat="42.99757321523526" lon="11.458543143463865"><ele>420.0</ele><time>2026-03-29T12:37:25Z</time></trkpt><trkpt lat="42.99743268703697" lon="11.458601595829668"><ele>419.0</ele><time>2026-03-29T12:37:26Z</time></trkpt><trkpt lat="42.99729954344673" lon="11.458637783871186"><ele>418.0</ele><time>2026-03-29T12:37:27Z</time></trkpt><trkpt lat="42.99716030363388" lon="11.458642690925847"><ele>417.0</ele><time>2026-03-29T12:37:28Z</time></trkpt><trkpt lat="42.9970198369914" lon="11.458611564641497"><ele>416.0</ele><time>2026-03-29T12:37:29Z</time></trkpt><trkpt lat="42.99686520799646" lon="11.458540662613922"><ele>416.0</ele><time>2026-03-29T12:37:30Z</time></trkpt><trkpt lat="42.99671051741962" lon="11.458448941616274"><ele>416.0</ele><time>2026-03-29T12:37:31Z</time></trkpt><trkpt lat="42.996561076346175" lon="11.458359084955717"><ele>416.0</ele><time>2026-03-29T12:37:32Z</time></trkpt><trkpt lat="42.99642401212961" lon="11.458277311435728"><ele>413.75</ele><time>2026-03-29T12:37:33Z</time></trkpt><trkpt lat="42.99630308486411" lon="11.458205192090965"><ele>411.5</ele><time>2026-03-29T12:37:34Z</time></trkpt><trkpt lat="42.996188180551904" lon="11.458116520985378"><ele>409.25</ele><time>2026-03-29T12:37:35Z</time></trkpt><trkpt lat="42.99608714397797" lon="11.458000116821369"><ele>407.0</ele><time>2026-03-29T12:37:36Z</time></trkpt><trkpt lat="42.99600030635868" lon="11.45787053092501"><ele>407.0</ele><time>2026-03-29T12:37:37Z</time></trkpt><trkpt lat="42.995931512962066" lon="11.457725554491697"><ele>407.0</ele><time>2026-03-29T12:37:38Z</time></trkpt><trkpt lat="42.995873462412206" lon="11.457564739210673"><ele>407.0</ele><time>2026-03-29T12:37:39Z</time></trkpt><trkpt lat="42.99582510609449" lon="11.457368734611642"><ele>407.0</ele><time>2026-03-29T12:37:40Z</time></trkpt><trkpt lat="42.995792209567945" lon="11.457162260453153"><ele>402.75</ele><time>2026-03-29T12:37:41Z</time></trkpt><trkpt lat="42.995764622949544" lon="11.45694568785505"><ele>398.5</ele><time>2026-03-29T12:37:42Z</time></trkpt><trkpt lat="42.995734821001825" lon="11.456758441836728"><ele>394.25</ele><time>2026-03-29T12:37:43Z</time></trkpt><trkpt lat="42.995715354233624" lon="11.456578037486475"><ele>390.0</ele><time>2026-03-29T12:37:44Z</time></trkpt><trkpt lat="42.99572623911176" lon="11.456380451409625"><ele>388.66666666666663</ele><time>2026-03-29T12:37:45Z</time></trkpt><trkpt lat="42.995758830313974" lon="11.45618700673778"><ele>387.3333333333333</ele><time>2026-03-29T12:37:46Z</time></trkpt><trkpt lat="42.99579997063974" lon="11.455981975835467"><ele>386.0</ele><time>2026-03-29T12:37:47Z</time></trkpt><trkpt lat="42.99583989349079" lon="11.455758264929251"><ele>390.3333333333333</ele><time>2026-03-29T12:37:48Z</time></trkpt><trkpt lat="42.99587832683287" lon="11.455527047926372"><ele>394.66666666666663</ele><time>2026-03-29T12:37:49Z</time></trkpt><trkpt lat="42.99591228702771" lon="11.455308877522771"><ele>399.0</ele><time>2026-03-29T12:37:49.999Z</time></trkpt><trkpt lat="42.9959560729373" lon="11.455107074324516"><ele>399.0</ele><time>2026-03-29T12:37:50.999Z</time></trkpt><trkpt lat="42.99601932316737" lon="11.454915495988097"><ele>399.0</ele><time>2026-03-29T12:37:51.999Z</time></trkpt><trkpt lat="42.99610004782846" lon="11.454712652751828"><ele>399.0</ele><time>2026-03-29T12:37:52.999Z</time></trkpt><trkpt lat="42.996193158624195" lon="11.454504976383372"><ele>395.0</ele><time>2026-03-29T12:37:53.999Z</time></trkpt><trkpt lat="42.99627778155127" lon="11.454300353979981"><ele>391.0</ele><time>2026-03-29T12:37:54.999Z</time></trkpt><trkpt lat="42.99635733929834" lon="11.454103850300823"><ele>387.0</ele><time>2026-03-29T12:37:55.999Z</time></trkpt><trkpt lat="42.996440386631235" lon="11.453917114923598"><ele>385.0</ele><time>2026-03-29T12:37:56.999Z</time></trkpt><trkpt lat="42.99653974813509" lon="11.453730393085118"><ele>383.0</ele><time>2026-03-29T12:37:57.999Z</time></trkpt><trkpt lat="42.99665641917358" lon="11.453539649666038"><ele>381.0</ele><time>2026-03-29T12:37:58.999Z</time></trkpt><trkpt lat="42.99676994629122" lon="11.453355253859685"><ele>381.0</ele><time>2026-03-29T12:37:59.999Z</time></trkpt><trkpt lat="42.996879585692525" lon="11.453179379447574"><ele>381.0</ele><time>2026-03-29T12:38:00.999Z</time></trkpt><trkpt lat="42.996990705896415" lon="11.452997212467391"><ele>381.0</ele><time>2026-03-29T12:38:01.999Z</time></trkpt><trkpt lat="42.99706617751791" lon="11.45290785394783"><ele>381.0</ele><time>2026-03-29T12:38:02.999Z</time></trkpt><trkpt lat="42.99717960874684" lon="11.452832315774863"><ele>377.5</ele><time>2026-03-29T12:38:03.999Z</time></trkpt><trkpt lat="42.9972946666221" lon="11.45277887382556"><ele>374.0</ele><time>2026-03-29T12:38:04.999Z</time></trkpt><trkpt lat="42.9974273250472" lon="11.452759140008375"><ele>370.5</ele><time>2026-03-29T12:38:05.999Z</time></trkpt><trkpt lat="42.99756615912918" lon="11.452804753288957"><ele>367.0</ele><time>2026-03-29T12:38:06.999Z</time></trkpt><trkpt lat="42.997726569277084" lon="11.452829148741568"><ele>367.0</ele><time>2026-03-29T12:38:07.999Z</time></trkpt><trkpt lat="42.9978779235438" lon="11.452846358733593"><ele>367.0</ele><time>2026-03-29T12:38:08.999Z</time></trkpt><trkpt lat="42.998004504034455" lon="11.452829340709211"><ele>367.0</ele><time>2026-03-29T12:38:09.999Z</time></trkpt><trkpt lat="42.99812093288591" lon="11.452791412097051"><ele>367.0</ele><time>2026-03-29T12:38:10.999Z</time></trkpt><trkpt lat="42.99822550793972" lon="11.452720076370627"><ele>367.0</ele><time>2026-03-29T12:38:11.999Z</time></trkpt><trkpt lat="42.998316380809264" lon="11.452591281886235"><ele>367.0</ele><time>2026-03-29T12:38:12.999Z</time></trkpt><trkpt lat="42.99840670123953" lon="11.452411921966377"><ele>367.0</ele><time>2026-03-29T12:38:13.999Z</time></trkpt><trkpt lat="42.998498986566084" lon="11.452193627010342"><ele>365.66666666666663</ele><time>2026-03-29T12:38:14.999Z</time></trkpt><trkpt lat="42.998600883027954" lon="11.451988680676916"><ele>364.3333333333333</ele><time>2026-03-29T12:38:15.999Z</time></trkpt><trkpt lat="42.99868604930305" lon="11.451816744614982"><ele>363.0</ele><time>2026-03-29T12:38:16.999Z</time></trkpt><trkpt lat="42.99876845923565" lon="11.45165253160046"><ele>363.0</ele><time>2026-03-29T12:38:17.999Z</time></trkpt><trkpt lat="42.998850682370765" lon="11.451506423810766"><ele>363.0</ele><time>2026-03-29T12:38:18.999Z</time></trkpt><trkpt lat="42.998960272780565" lon="11.451379307202792"><ele>363.0</ele><time>2026-03-29T12:38:19.999Z</time></trkpt><trkpt lat="42.99909324026535" lon="11.45125912182826"><ele>363.0</ele><time>2026-03-29T12:38:20.999Z</time></trkpt><trkpt lat="42.99922275806812" lon="11.451157528371143"><ele>358.3333333333333</ele><time>2026-03-29T12:38:21.999Z</time></trkpt><trkpt lat="42.99935167199446" lon="11.451066707153169"><ele>353.66666666666663</ele><time>2026-03-29T12:38:22.999Z</time></trkpt><trkpt lat="42.999494706769376" lon="11.450974213675943"><ele>349.0</ele><time>2026-03-29T12:38:23.999Z</time></trkpt><trkpt lat="42.99965141745992" lon="11.450875920084906"><ele>349.0</ele><time>2026-03-29T12:38:24.999Z</time></trkpt><trkpt lat="42.999823508820754" lon="11.450869423499055"><ele>349.0</ele><time>2026-03-29T12:38:25.999Z</time></trkpt><trkpt lat="42.99998671467493" lon="11.450849936259003"><ele>349.0</ele><time>2026-03-29T12:38:26.999Z</time></trkpt><trkpt lat="43.00015351453072" lon="11.450822161710667"><ele>349.0</ele><time>2026-03-29T12:38:27.999Z</time></trkpt><trkpt lat="43.000303689503035" lon="11.450805283731693"><ele>349.0</ele><time>2026-03-29T12:38:28.999Z</time></trkpt><trkpt lat="43.00042765425545" lon="11.450788704077445"><ele>349.0</ele><time>2026-03-29T12:38:29.999Z</time></trkpt><trkpt lat="43.00052980469359" lon="11.450777277188735"><ele>349.0</ele><time>2026-03-29T12:38:30.999Z</time></trkpt><trkpt lat="43.000613362790034" lon="11.450738776366864"><ele>349.0</ele><time>2026-03-29T12:38:31.999Z</time></trkpt><trkpt lat="43.00066611838584" lon="11.450637034818174"><ele>349.0</ele><time>2026-03-29T12:38:32.999Z</time></trkpt><trkpt lat="43.00070223120124" lon="11.450515094559933"><ele>349.0</ele><time>2026-03-29T12:38:33.999Z</time></trkpt><trkpt lat="43.00064189619607" lon="11.450353610630037"><ele>349.0</ele><time>2026-03-29T12:38:34.999Z</time></trkpt><trkpt lat="43.00056692322005" lon="11.450258776487853"><ele>349.0</ele><time>2026-03-29T12:38:35.999Z</time></trkpt><trkpt lat="43.00047177947826" lon="11.450195875013044"><ele>345.0</ele><time>2026-03-29T12:38:36.999Z</time></trkpt><trkpt lat="43.00034097675781" lon="11.450205794691396"><ele>341.0</ele><time>2026-03-29T12:38:37.999Z</time></trkpt><trkpt lat="43.00019111394478" lon="11.450200214123225"><ele>337.0</ele><time>2026-03-29T12:38:38.999Z</time></trkpt><trkpt lat="43.00003430765356" lon="11.450182559641569"><ele>333.0</ele><time>2026-03-29T12:38:39.999Z</time></trkpt><trkpt lat="42.999852910220625" lon="11.450159829423836"><ele>333.0</ele><time>2026-03-29T12:38:40.999Z</time></trkpt><trkpt lat="42.99967042990374" lon="11.450138186102059"><ele>333.0</ele><time>2026-03-29T12:38:41.999Z</time></trkpt><trkpt lat="42.999480971818464" lon="11.45012032481458"><ele>333.0</ele><time>2026-03-29T12:38:43Z</time></trkpt><trkpt lat="42.9992870363367" lon="11.450095732858404"><ele>332.6666666666667</ele><time>2026-03-29T12:38:44Z</time></trkpt><trkpt lat="42.99910443955081" lon="11.450077117489794"><ele>332.33333333333337</ele><time>2026-03-29T12:38:45Z</time></trkpt><trkpt lat="42.998934790583256" lon="11.450059047193143"><ele>332.0</ele><time>2026-03-29T12:38:46Z</time></trkpt><trkpt lat="42.998766568224326" lon="11.450037542134968"><ele>332.0</ele><time>2026-03-29T12:38:47Z</time></trkpt><trkpt lat="42.998603688949935" lon="11.45001831664213"><ele>332.0</ele><time>2026-03-29T12:38:48Z</time></trkpt><trkpt lat="42.99844061830298" lon="11.450003971260811"><ele>332.0</ele><time>2026-03-29T12:38:49Z</time></trkpt><trkpt lat="42.99826342654362" lon="11.449996575342583"><ele>330.0</ele><time>2026-03-29T12:38:50Z</time></trkpt><trkpt lat="42.99808460711943" lon="11.450008102778808"><ele>328.0</ele><time>2026-03-29T12:38:51Z</time></trkpt><trkpt lat="42.997904649585344" lon="11.450034061172401"><ele>326.0</ele><time>2026-03-29T12:38:52Z</time></trkpt><trkpt lat="42.9977106038186" lon="11.450068081555056"><ele>326.0</ele><time>2026-03-29T12:38:53Z</time></trkpt><trkpt lat="42.99752308313851" lon="11.450101247792553"><ele>326.0</ele><time>2026-03-29T12:38:54Z</time></trkpt><trkpt lat="42.9973455460776" lon="11.450126508453184"><ele>326.0</ele><time>2026-03-29T12:38:55Z</time></trkpt><trkpt lat="42.99717855685364" lon="11.45015071464214"><ele>323.33333333333337</ele><time>2026-03-29T12:38:56Z</time></trkpt><trkpt lat="42.99702071506719" lon="11.450175973531074"><ele>320.6666666666667</ele><time>2026-03-29T12:38:57Z</time></trkpt><trkpt lat="42.996867607930454" lon="11.450151362699424"><ele>318.0</ele><time>2026-03-29T12:38:58Z</time></trkpt><trkpt lat="42.99672320941115" lon="11.450102702657224"><ele>316.0</ele><time>2026-03-29T12:38:59Z</time></trkpt><trkpt lat="42.99658801973984" lon="11.45001228133215"><ele>314.0</ele><time>2026-03-29T12:39:00Z</time></trkpt><trkpt lat="42.9964599912029" lon="11.4498778936707"><ele>312.0</ele><time>2026-03-29T12:39:01Z</time></trkpt><trkpt lat="42.99632501356462" lon="11.449724979659138"><ele>310.0</ele><time>2026-03-29T12:39:02Z</time></trkpt><trkpt lat="42.99618486401913" lon="11.449591576813381"><ele>308.0</ele><time>2026-03-29T12:39:03Z</time></trkpt><trkpt lat="42.996100945964955" lon="11.449441149003345"><ele>306.0</ele><time>2026-03-29T12:39:04Z</time></trkpt><trkpt lat="42.99604264490096" lon="11.449289950660903"><ele>304.0</ele><time>2026-03-29T12:39:05Z</time></trkpt><trkpt lat="42.99601014341246" lon="11.449130803756747"><ele>304.0</ele><time>2026-03-29T12:39:06Z</time></trkpt><trkpt lat="42.99597495511569" lon="11.448964500798457"><ele>304.0</ele><time>2026-03-29T12:39:07Z</time></trkpt><trkpt lat="42.99602561331314" lon="11.448791605110607"><ele>304.0</ele><time>2026-03-29T12:39:08Z</time></trkpt><trkpt lat="42.99607998427689" lon="11.448606954424852"><ele>304.0</ele><time>2026-03-29T12:39:09Z</time></trkpt><trkpt lat="42.996155121152526" lon="11.44840876479451"><ele>302.0</ele><time>2026-03-29T12:39:10Z</time></trkpt><trkpt lat="42.99622250256353" lon="11.448186753997355"><ele>300.0</ele><time>2026-03-29T12:39:11Z</time></trkpt><trkpt lat="42.996301262335514" lon="11.447985154550901"><ele>298.0</ele><time>2026-03-29T12:39:12Z</time></trkpt><trkpt lat="42.99637810013771" lon="11.447784652107403"><ele>294.66666666666663</ele><time>2026-03-29T12:39:13Z</time></trkpt><trkpt lat="42.99644858361095" lon="11.447576869586038"><ele>291.3333333333333</ele><time>2026-03-29T12:39:14Z</time></trkpt><trkpt lat="42.996495331517295" lon="11.447363047315172"><ele>288.0</ele><time>2026-03-29T12:39:15Z</time></trkpt><trkpt lat="42.99651305603831" lon="11.44714685935032"><ele>286.3333333333333</ele><time>2026-03-29T12:39:16Z</time></trkpt><trkpt lat="42.99650247174251" lon="11.446920001852027"><ele>284.66666666666663</ele><time>2026-03-29T12:39:17Z</time></trkpt><trkpt lat="42.99648118760977" lon="11.44667404250078"><ele>283.0</ele><time>2026-03-29T12:39:18Z</time></trkpt><trkpt lat="42.99646336165076" lon="11.446421401291891"><ele>281.66666666666663</ele><time>2026-03-29T12:39:19Z</time></trkpt><trkpt lat="42.99645283266144" lon="11.44617228635908"><ele>280.3333333333333</ele><time>2026-03-29T12:39:20Z</time></trkpt><trkpt lat="42.99644534114161" lon="11.445912238191184"><ele>279.0</ele><time>2026-03-29T12:39:21Z</time></trkpt><trkpt lat="42.99643330014223" lon="11.445651798355525"><ele>278.0</ele><time>2026-03-29T12:39:22Z</time></trkpt><trkpt lat="42.996420465032394" lon="11.445382824898276"><ele>277.0</ele><time>2026-03-29T12:39:23Z</time></trkpt><trkpt lat="42.996407280536914" lon="11.445106541303135"><ele>276.0</ele><time>2026-03-29T12:39:24Z</time></trkpt><trkpt lat="42.996396544238294" lon="11.444823766184214"><ele>274.3333333333333</ele><time>2026-03-29T12:39:25Z</time></trkpt><trkpt lat="42.99638375468939" lon="11.444549135336398"><ele>272.66666666666663</ele><time>2026-03-29T12:39:26Z</time></trkpt><trkpt lat="42.996372592542365" lon="11.444286855138827"><ele>271.0</ele><time>2026-03-29T12:39:27Z</time></trkpt><trkpt lat="42.99636213737915" lon="11.444036714538779"><ele>269.3333333333333</ele><time>2026-03-29T12:39:28Z</time></trkpt><trkpt lat="42.99635234567438" lon="11.443779279107956"><ele>267.6666666666667</ele><time>2026-03-29T12:39:29Z</time></trkpt><trkpt lat="42.99634150499263" lon="11.443519535135236"><ele>266.0</ele><time>2026-03-29T12:39:30Z</time></trkpt><trkpt lat="42.996330389011575" lon="11.443282634209577"><ele>266.0</ele><time>2026-03-29T12:39:31Z</time></trkpt><trkpt lat="42.99632103480671" lon="11.44308082331094"><ele>266.0</ele><time>2026-03-29T12:39:32Z</time></trkpt><trkpt lat="42.99630634850368" lon="11.442911049247144"><ele>266.0</ele><time>2026-03-29T12:39:33Z</time></trkpt><trkpt lat="42.996265673081716" lon="11.442752246117093"><ele>266.0</ele><time>2026-03-29T12:39:34Z</time></trkpt><trkpt lat="42.996195773014875" lon="11.442596679221195"><ele>265.33333333333337</ele><time>2026-03-29T12:39:35Z</time></trkpt><trkpt lat="42.996094942810004" lon="11.44245350413462"><ele>264.6666666666667</ele><time>2026-03-29T12:39:36Z</time></trkpt><trkpt lat="42.99596555522067" lon="11.442345521697066"><ele>264.0</ele><time>2026-03-29T12:39:37Z</time></trkpt><trkpt lat="42.99581728719859" lon="11.442279238624138"><ele>264.0</ele><time>2026-03-29T12:39:38Z</time></trkpt><trkpt lat="42.99566214850947" lon="11.44225731315035"><ele>264.0</ele><time>2026-03-29T12:39:39Z</time></trkpt><trkpt lat="42.995491080442456" lon="11.442269103901527"><ele>264.0</ele><time>2026-03-29T12:39:40Z</time></trkpt><trkpt lat="42.995299550361246" lon="11.442294750320512"><ele>264.0</ele><time>2026-03-29T12:39:41Z</time></trkpt><trkpt lat="42.995111590421416" lon="11.442315767751746"><ele>264.0</ele><time>2026-03-29T12:39:42Z</time></trkpt><trkpt lat="42.99491679627303" lon="11.442331278955477"><ele>264.0</ele><time>2026-03-29T12:39:43Z</time></trkpt><trkpt lat="42.99471322379205" lon="11.442348549059876"><ele>261.6666666666667</ele><time>2026-03-29T12:39:44Z</time></trkpt><trkpt lat="42.99450976056096" lon="11.442363646351787"><ele>259.33333333333337</ele><time>2026-03-29T12:39:45Z</time></trkpt><trkpt lat="42.994329655990704" lon="11.44237842455031"><ele>257.0</ele><time>2026-03-29T12:39:46Z</time></trkpt><trkpt lat="42.99415870220062" lon="11.442389701975184"><ele>256.0</ele><time>2026-03-29T12:39:47Z</time></trkpt><trkpt lat="42.99399385551322" lon="11.442363185224735"><ele>255.0</ele><time>2026-03-29T12:39:48Z</time></trkpt><trkpt lat="42.99384020474944" lon="11.44232570579671"><ele>254.0</ele><time>2026-03-29T12:39:49Z</time></trkpt><trkpt lat="42.99367348150401" lon="11.442248012483429"><ele>254.0</ele><time>2026-03-29T12:39:50Z</time></trkpt><trkpt lat="42.993494324625765" lon="11.442145700347659"><ele>254.0</ele><time>2026-03-29T12:39:51Z</time></trkpt><trkpt lat="42.993319896329695" lon="11.44204360142538"><ele>254.0</ele><time>2026-03-29T12:39:52Z</time></trkpt><trkpt lat="42.9931339247549" lon="11.441951081354789"><ele>253.0</ele><time>2026-03-29T12:39:53Z</time></trkpt><trkpt lat="42.992943547319435" lon="11.441840343003307"><ele>252.0</ele><time>2026-03-29T12:39:53.999Z</time></trkpt><trkpt lat="42.992745988882476" lon="11.441728642160507"><ele>251.0</ele><time>2026-03-29T12:39:54.999Z</time></trkpt><trkpt lat="42.99255669879433" lon="11.441617772839814"><ele>249.66666666666669</ele><time>2026-03-29T12:39:55.999Z</time></trkpt><trkpt lat="42.992371447088736" lon="11.441505382423527"><ele>248.33333333333331</ele><time>2026-03-29T12:39:56.999Z</time></trkpt><trkpt lat="42.992185644718944" lon="11.44137754402634"><ele>247.0</ele><time>2026-03-29T12:39:57.999Z</time></trkpt><trkpt lat="42.99198654681285" lon="11.441280737062042"><ele>247.0</ele><time>2026-03-29T12:39:58.999Z</time></trkpt><trkpt lat="42.99178865644295" lon="11.44116092064996"><ele>247.0</ele><time>2026-03-29T12:39:59.999Z</time></trkpt><trkpt lat="42.99159304539503" lon="11.44104378919352"><ele>247.0</ele><time>2026-03-29T12:40:00.999Z</time></trkpt><trkpt lat="42.99138561438434" lon="11.440921576489758"><ele>245.0</ele><time>2026-03-29T12:40:01.999Z</time></trkpt><trkpt lat="42.99117636228715" lon="11.440798251087424"><ele>243.0</ele><time>2026-03-29T12:40:02.999Z</time></trkpt><trkpt lat="42.9909832918331" lon="11.44065219723905"><ele>241.0</ele><time>2026-03-29T12:40:03.999Z</time></trkpt><trkpt lat="42.99079352691277" lon="11.440500900300362"><ele>239.5</ele><time>2026-03-29T12:40:04.999Z</time></trkpt><trkpt lat="42.990602734826815" lon="11.440333952670903"><ele>238.0</ele><time>2026-03-29T12:40:05.999Z</time></trkpt><trkpt lat="42.990403245914656" lon="11.440160137259694"><ele>238.0</ele><time>2026-03-29T12:40:06.999Z</time></trkpt><trkpt lat="42.99019589361501" lon="11.439996012343048"><ele>238.0</ele><time>2026-03-29T12:40:07.999Z</time></trkpt><trkpt lat="42.98998772691551" lon="11.439814812036909"><ele>236.0</ele><time>2026-03-29T12:40:08.999Z</time></trkpt><trkpt lat="42.9897854955269" lon="11.439640843821692"><ele>234.0</ele><time>2026-03-29T12:40:09.999Z</time></trkpt><trkpt lat="42.98959528776184" lon="11.439474770098958"><ele>234.0</ele><time>2026-03-29T12:40:10.999Z</time></trkpt><trkpt lat="42.989416719802826" lon="11.439316893200264"><ele>234.0</ele><time>2026-03-29T12:40:11.999Z</time></trkpt><trkpt lat="42.98924545261954" lon="11.439167060616297"><ele>234.0</ele><time>2026-03-29T12:40:12.999Z</time></trkpt><trkpt lat="42.98908967742579" lon="11.439047786621318"><ele>232.33333333333331</ele><time>2026-03-29T12:40:13.999Z</time></trkpt><trkpt lat="42.9889381509006" lon="11.438964838641013"><ele>230.66666666666666</ele><time>2026-03-29T12:40:14.999Z</time></trkpt><trkpt lat="42.98877987631226" lon="11.438934285417732"><ele>229.0</ele><time>2026-03-29T12:40:15.999Z</time></trkpt><trkpt lat="42.98860477052198" lon="11.438941422478896"><ele>229.0</ele><time>2026-03-29T12:40:16.999Z</time></trkpt><trkpt lat="42.98841036717199" lon="11.438969363555213"><ele>229.0</ele><time>2026-03-29T12:40:17.999Z</time></trkpt><trkpt lat="42.988207367689135" lon="11.439000257401212"><ele>229.0</ele><time>2026-03-29T12:40:18.999Z</time></trkpt><trkpt lat="42.98799642518023" lon="11.439027166826918"><ele>227.33333333333331</ele><time>2026-03-29T12:40:19.999Z</time></trkpt><trkpt lat="42.98778593484242" lon="11.439052194663965"><ele>225.66666666666669</ele><time>2026-03-29T12:40:20.999Z</time></trkpt><trkpt lat="42.98759585154391" lon="11.43907121570998"><ele>224.0</ele><time>2026-03-29T12:40:21.999Z</time></trkpt><trkpt lat="42.98741311252615" lon="11.43909014181355"><ele>223.33333333333334</ele><time>2026-03-29T12:40:22.999Z</time></trkpt><trkpt lat="42.98723892151374" lon="11.439109941572468"><ele>222.66666666666669</ele><time>2026-03-29T12:40:23.999Z</time></trkpt><trkpt lat="42.9870766083034" lon="11.439125406392812"><ele>222.0</ele><time>2026-03-29T12:40:24.999Z</time></trkpt><trkpt lat="42.98692200693946" lon="11.439114219973748"><ele>222.0</ele><time>2026-03-29T12:40:25.999Z</time></trkpt><trkpt lat="42.98678242798134" lon="11.439033703155353"><ele>222.0</ele><time>2026-03-29T12:40:26.999Z</time></trkpt><trkpt lat="42.98665774914654" lon="11.438934218528603"><ele>222.0</ele><time>2026-03-29T12:40:27.999Z</time></trkpt><trkpt lat="42.98655177790994" lon="11.43879747661198"><ele>222.0</ele><time>2026-03-29T12:40:28.999Z</time></trkpt><trkpt lat="42.98645993047615" lon="11.438621996059155"><ele>221.66666666666669</ele><time>2026-03-29T12:40:29.999Z</time></trkpt><trkpt lat="42.98639493749658" lon="11.438414916843955"><ele>221.33333333333334</ele><time>2026-03-29T12:40:30.999Z</time></trkpt><trkpt lat="42.98632513494076" lon="11.438179221325562"><ele>221.0</ele><time>2026-03-29T12:40:31.999Z</time></trkpt><trkpt lat="42.986240742111654" lon="11.43793346952339"><ele>221.0</ele><time>2026-03-29T12:40:32.999Z</time></trkpt><trkpt lat="42.98616819334456" lon="11.437687028781378"><ele>221.0</ele><time>2026-03-29T12:40:33.999Z</time></trkpt><trkpt lat="42.98609341153776" lon="11.437432759927507"><ele>221.0</ele><time>2026-03-29T12:40:34.999Z</time></trkpt><trkpt lat="42.986015824731886" lon="11.437164266455243"><ele>221.0</ele><time>2026-03-29T12:40:35.999Z</time></trkpt><trkpt lat="42.985934536574604" lon="11.436890316410413"><ele>221.0</ele><time>2026-03-29T12:40:36.999Z</time></trkpt><trkpt lat="42.98586745926843" lon="11.436607714256422"><ele>221.0</ele><time>2026-03-29T12:40:37.999Z</time></trkpt><trkpt lat="42.98577920120607" lon="11.436357199996923"><ele>215.66666666666669</ele><time>2026-03-29T12:40:38.999Z</time></trkpt><trkpt lat="42.985703563007505" lon="11.436097426232436"><ele>210.33333333333331</ele><time>2026-03-29T12:40:39.999Z</time></trkpt><trkpt lat="42.98562985097007" lon="11.435851833526387"><ele>205.0</ele><time>2026-03-29T12:40:40.999Z</time></trkpt><trkpt lat="42.98556080615428" lon="11.4356117274257"><ele>205.33333333333331</ele><time>2026-03-29T12:40:41.999Z</time></trkpt><trkpt lat="42.98549268717729" lon="11.435378851492679"><ele>205.66666666666669</ele><time>2026-03-29T12:40:42.999Z</time></trkpt><trkpt lat="42.985427510224845" lon="11.435152634215811"><ele>206.0</ele><time>2026-03-29T12:40:43.999Z</time></trkpt><trkpt lat="42.98536410944819" lon="11.434942862727542"><ele>206.0</ele><time>2026-03-29T12:40:44.999Z</time></trkpt><trkpt lat="42.98528911864651" lon="11.434754963475838"><ele>206.0</ele><time>2026-03-29T12:40:45.999Z</time></trkpt><trkpt lat="42.98520517347004" lon="11.434580701970171"><ele>206.0</ele><time>2026-03-29T12:40:46.999Z</time></trkpt><trkpt lat="42.98506453620802" lon="11.434448990126814"><ele>202.33333333333334</ele><time>2026-03-29T12:40:47.999Z</time></trkpt><trkpt lat="42.98492572739984" lon="11.434305275429647"><ele>198.66666666666669</ele><time>2026-03-29T12:40:49Z</time></trkpt><trkpt lat="42.98477631766442" lon="11.43417314445367"><ele>195.0</ele><time>2026-03-29T12:40:50Z</time></trkpt><trkpt lat="42.98465263447978" lon="11.43402824478967"><ele>195.0</ele><time>2026-03-29T12:40:51Z</time></trkpt><trkpt lat="42.984494863335044" lon="11.433886258357914"><ele>195.0</ele><time>2026-03-29T12:40:52Z</time></trkpt><trkpt lat="42.98433340174126" lon="11.433731495197327"><ele>195.0</ele><time>2026-03-29T12:40:53Z</time></trkpt><trkpt lat="42.98416701086869" lon="11.43357009988327"><ele>195.0</ele><time>2026-03-29T12:40:54Z</time></trkpt><trkpt lat="42.98400978231687" lon="11.433419128589406"><ele>195.0</ele><time>2026-03-29T12:40:55Z</time></trkpt><trkpt lat="42.9838540022151" lon="11.433300601787419"><ele>195.0</ele><time>2026-03-29T12:40:56Z</time></trkpt><trkpt lat="42.98367999077774" lon="11.433200905019099"><ele>195.0</ele><time>2026-03-29T12:40:57Z</time></trkpt><trkpt lat="42.98349301492154" lon="11.433118028403994"><ele>195.0</ele><time>2026-03-29T12:40:58Z</time></trkpt><trkpt lat="42.983294704483434" lon="11.433040518334947"><ele>195.0</ele><time>2026-03-29T12:40:59Z</time></trkpt><trkpt lat="42.98309214972384" lon="11.432960549599157"><ele>198.0</ele><time>2026-03-29T12:41:00Z</time></trkpt><trkpt lat="42.982882513588095" lon="11.432872431520872"><ele>201.0</ele><time>2026-03-29T12:41:01Z</time></trkpt><trkpt lat="42.98266324484542" lon="11.432769850370462"><ele>202.0</ele><time>2026-03-29T12:41:02Z</time></trkpt><trkpt lat="42.982437022323175" lon="11.4326698808481"><ele>203.0</ele><time>2026-03-29T12:41:03Z</time></trkpt><trkpt lat="42.98220382533327" lon="11.432562346988972"><ele>203.0</ele><time>2026-03-29T12:41:04Z</time></trkpt><trkpt lat="42.981967896524424" lon="11.432448218648254"><ele>203.0</ele><time>2026-03-29T12:41:05Z</time></trkpt><trkpt lat="42.981725249965734" lon="11.432337139990654"><ele>203.5</ele><time>2026-03-29T12:41:06Z</time></trkpt><trkpt lat="42.98148018419892" lon="11.432226812985364"><ele>204.0</ele><time>2026-03-29T12:41:07Z</time></trkpt><trkpt lat="42.981228341525764" lon="11.432115429410949"><ele>206.0</ele><time>2026-03-29T12:41:08Z</time></trkpt><trkpt lat="42.98096724662702" lon="11.431995649054933"><ele>208.0</ele><time>2026-03-29T12:41:09Z</time></trkpt><trkpt lat="42.98069604737305" lon="11.431872486389855"><ele>208.5</ele><time>2026-03-29T12:41:10Z</time></trkpt><trkpt lat="42.98041999085094" lon="11.431748355852259"><ele>209.0</ele><time>2026-03-29T12:41:11Z</time></trkpt><trkpt lat="42.98016679702127" lon="11.431632500522806"><ele>209.0</ele><time>2026-03-29T12:41:12Z</time></trkpt><trkpt lat="42.979930587075145" lon="11.431529757925846"><ele>209.0</ele><time>2026-03-29T12:41:13Z</time></trkpt><trkpt lat="42.97972265065265" lon="11.43143773878171"><ele>209.0</ele><time>2026-03-29T12:41:14Z</time></trkpt><trkpt lat="42.9795055781183" lon="11.43133523233847"><ele>209.0</ele><time>2026-03-29T12:41:15Z</time></trkpt><trkpt lat="42.97928538634105" lon="11.43123270907081"><ele>211.5</ele><time>2026-03-29T12:41:16Z</time></trkpt><trkpt lat="42.97906072067734" lon="11.43113081498634"><ele>214.0</ele><time>2026-03-29T12:41:17Z</time></trkpt><trkpt lat="42.978829895921486" lon="11.43102790059999"><ele>214.0</ele><time>2026-03-29T12:41:18Z</time></trkpt><trkpt lat="42.97860196205011" lon="11.430926746628609"><ele>214.0</ele><time>2026-03-29T12:41:19Z</time></trkpt><trkpt lat="42.97839075368723" lon="11.430831097008502"><ele>213.0</ele><time>2026-03-29T12:41:20Z</time></trkpt><trkpt lat="42.978193646793045" lon="11.430742150615938"><ele>212.0</ele><time>2026-03-29T12:41:21Z</time></trkpt><trkpt lat="42.97800482631049" lon="11.430656135613615"><ele>211.0</ele><time>2026-03-29T12:41:22Z</time></trkpt><trkpt lat="42.97782068285252" lon="11.430574592807027"><ele>211.0</ele><time>2026-03-29T12:41:23Z</time></trkpt><trkpt lat="42.977649421337446" lon="11.430498197554058"><ele>211.0</ele><time>2026-03-29T12:41:24Z</time></trkpt><trkpt lat="42.97748702627041" lon="11.430405936092882"><ele>211.0</ele><time>2026-03-29T12:41:25Z</time></trkpt><trkpt lat="42.97732320573596" lon="11.430332102943373"><ele>210.33333333333331</ele><time>2026-03-29T12:41:26Z</time></trkpt><trkpt lat="42.97715361036187" lon="11.430263167931228"><ele>209.66666666666669</ele><time>2026-03-29T12:41:27Z</time></trkpt><trkpt lat="42.97693561334869" lon="11.430421077643178"><ele>209.0</ele><time>2026-03-29T12:41:28Z</time></trkpt><trkpt lat="42.97676251847889" lon="11.430470189823119"><ele>206.66666666666669</ele><time>2026-03-29T12:41:29Z</time></trkpt><trkpt lat="42.97659691358133" lon="11.430553659521548"><ele>204.33333333333331</ele><time>2026-03-29T12:41:30Z</time></trkpt><trkpt lat="42.97642670315681" lon="11.430678092950323"><ele>202.0</ele><time>2026-03-29T12:41:31Z</time></trkpt><trkpt lat="42.976259367702276" lon="11.43083093403426"><ele>202.0</ele><time>2026-03-29T12:41:32Z</time></trkpt><trkpt lat="42.976086635377605" lon="11.431001510766457"><ele>202.0</ele><time>2026-03-29T12:41:33Z</time></trkpt><trkpt lat="42.97590670665599" lon="11.431168309994536"><ele>202.0</ele><time>2026-03-29T12:41:34Z</time></trkpt><trkpt lat="42.97573186008506" lon="11.431329255521426"><ele>200.66666666666666</ele><time>2026-03-29T12:41:35Z</time></trkpt><trkpt lat="42.97557103296218" lon="11.431474932088513"><ele>199.33333333333331</ele><time>2026-03-29T12:41:36Z</time></trkpt><trkpt lat="42.97542171829825" lon="11.431608674544503"><ele>198.0</ele><time>2026-03-29T12:41:37Z</time></trkpt><trkpt lat="42.97528609188803" lon="11.431728668904093"><ele>198.0</ele><time>2026-03-29T12:41:38Z</time></trkpt><trkpt lat="42.97518415864307" lon="11.431854765410481"><ele>198.0</ele><time>2026-03-29T12:41:39Z</time></trkpt><trkpt lat="42.97510929063733" lon="11.432016670110228"><ele>198.0</ele><time>2026-03-29T12:41:40Z</time></trkpt><trkpt lat="42.97504576703635" lon="11.432224974520176"><ele>198.0</ele><time>2026-03-29T12:41:41Z</time></trkpt><trkpt lat="42.97499452287541" lon="11.432467026471144"><ele>197.75</ele><time>2026-03-29T12:41:42Z</time></trkpt><trkpt lat="42.974946527036956" lon="11.432689520551463"><ele>197.5</ele><time>2026-03-29T12:41:43Z</time></trkpt><trkpt lat="42.97488724426171" lon="11.432855884437705"><ele>197.25</ele><time>2026-03-29T12:41:44Z</time></trkpt><trkpt lat="42.97480203408594" lon="11.432977710595177"><ele>197.0</ele><time>2026-03-29T12:41:45Z</time></trkpt><trkpt lat="42.97468193879077" lon="11.433079871456446"><ele>193.66666666666669</ele><time>2026-03-29T12:41:46Z</time></trkpt><trkpt lat="42.97453430923753" lon="11.43315540294851"><ele>190.33333333333334</ele><time>2026-03-29T12:41:47Z</time></trkpt><trkpt lat="42.97437547672807" lon="11.433233483125145"><ele>187.0</ele><time>2026-03-29T12:41:48Z</time></trkpt><trkpt lat="42.97421054266538" lon="11.433320554966333"><ele>189.0</ele><time>2026-03-29T12:41:49Z</time></trkpt><trkpt lat="42.97404479896745" lon="11.43343205984961"><ele>191.0</ele><time>2026-03-29T12:41:50Z</time></trkpt><trkpt lat="42.97387077028449" lon="11.433559998265745"><ele>193.0</ele><time>2026-03-29T12:41:51Z</time></trkpt><trkpt lat="42.973689694567994" lon="11.433702664014362"><ele>190.33333333333331</ele><time>2026-03-29T12:41:52Z</time></trkpt><trkpt lat="42.97349137914815" lon="11.433859253262352"><ele>187.66666666666666</ele><time>2026-03-29T12:41:53Z</time></trkpt><trkpt lat="42.9733147035734" lon="11.434000614335448"><ele>185.0</ele><time>2026-03-29T12:41:54Z</time></trkpt><trkpt lat="42.973147569546995" lon="11.434131833516787"><ele>185.0</ele><time>2026-03-29T12:41:55Z</time></trkpt><trkpt lat="42.97298712191605" lon="11.434257110880843"><ele>185.0</ele><time>2026-03-29T12:41:55.999Z</time></trkpt><trkpt lat="42.972833767083365" lon="11.434375774094859"><ele>185.0</ele><time>2026-03-29T12:41:56.999Z</time></trkpt><trkpt lat="42.97269107666616" lon="11.434489928799959"><ele>185.0</ele><time>2026-03-29T12:41:57.999Z</time></trkpt><trkpt lat="42.97255771238962" lon="11.434595296407718"><ele>185.0</ele><time>2026-03-29T12:41:58.999Z</time></trkpt><trkpt lat="42.97242658624242" lon="11.43467806931862"><ele>185.0</ele><time>2026-03-29T12:41:59.999Z</time></trkpt><trkpt lat="42.97228055855187" lon="11.434727782410125"><ele>185.0</ele><time>2026-03-29T12:42:00.999Z</time></trkpt><trkpt lat="42.97212214310172" lon="11.434732213443608"><ele>182.33333333333331</ele><time>2026-03-29T12:42:01.999Z</time></trkpt><trkpt lat="42.97195012082335" lon="11.434712866615852"><ele>179.66666666666666</ele><time>2026-03-29T12:42:02.999Z</time></trkpt><trkpt lat="42.97175865747743" lon="11.434687329998791"><ele>177.0</ele><time>2026-03-29T12:42:03.999Z</time></trkpt><trkpt lat="42.971562095076436" lon="11.43467320624956"><ele>176.0</ele><time>2026-03-29T12:42:04.999Z</time></trkpt><trkpt lat="42.971373046118885" lon="11.434647325094579"><ele>175.0</ele><time>2026-03-29T12:42:05.999Z</time></trkpt><trkpt lat="42.97120154479794" lon="11.434595028145509"><ele>174.0</ele><time>2026-03-29T12:42:06.999Z</time></trkpt><trkpt lat="42.97103869043974" lon="11.434518818664131"><ele>177.33333333333334</ele><time>2026-03-29T12:42:07.999Z</time></trkpt><trkpt lat="42.97089258336207" lon="11.434437218070112"><ele>180.66666666666669</ele><time>2026-03-29T12:42:08.999Z</time></trkpt><trkpt lat="42.97073972749339" lon="11.434383818068492"><ele>184.0</ele><time>2026-03-29T12:42:09.999Z</time></trkpt><trkpt lat="42.97056608530308" lon="11.434369308822829"><ele>184.0</ele><time>2026-03-29T12:42:10.999Z</time></trkpt><trkpt lat="42.97038085607822" lon="11.434386204369911"><ele>184.0</ele><time>2026-03-29T12:42:11.999Z</time></trkpt><trkpt lat="42.97021861629703" lon="11.434410168413216"><ele>184.0</ele><time>2026-03-29T12:42:12.999Z</time></trkpt><trkpt lat="42.970078706357505" lon="11.434415138196934"><ele>181.0</ele><time>2026-03-29T12:42:13.999Z</time></trkpt><trkpt lat="42.969954964265774" lon="11.43440742306803"><ele>178.0</ele><time>2026-03-29T12:42:14.999Z</time></trkpt><trkpt lat="42.96984356000678" lon="11.43434125917268"><ele>175.0</ele><time>2026-03-29T12:42:15.999Z</time></trkpt><trkpt lat="42.96975168897465" lon="11.434229315943318"><ele>172.0</ele><time>2026-03-29T12:42:16.999Z</time></trkpt><trkpt lat="42.96967682531862" lon="11.434072138721216"><ele>172.0</ele><time>2026-03-29T12:42:17.999Z</time></trkpt><trkpt lat="42.969602901718666" lon="11.433874199139336"><ele>172.0</ele><time>2026-03-29T12:42:18.999Z</time></trkpt><trkpt lat="42.969529603177214" lon="11.433660694729392"><ele>172.0</ele><time>2026-03-29T12:42:19.999Z</time></trkpt><trkpt lat="42.96944950107509" lon="11.433477229990576"><ele>173.33333333333334</ele><time>2026-03-29T12:42:20.999Z</time></trkpt><trkpt lat="42.969359075530434" lon="11.433324298340487"><ele>174.66666666666666</ele><time>2026-03-29T12:42:21.999Z</time></trkpt><trkpt lat="42.96925528229765" lon="11.433184269931813"><ele>176.0</ele><time>2026-03-29T12:42:22.999Z</time></trkpt><trkpt lat="42.96912989467676" lon="11.43304694055806"><ele>169.66666666666666</ele><time>2026-03-29T12:42:23.999Z</time></trkpt><trkpt lat="42.968998824857145" lon="11.432910752478458"><ele>163.33333333333334</ele><time>2026-03-29T12:42:24.999Z</time></trkpt><trkpt lat="42.96887697693514" lon="11.432786454682436"><ele>157.0</ele><time>2026-03-29T12:42:25.999Z</time></trkpt><trkpt lat="42.96875910206016" lon="11.432657724168374"><ele>157.0</ele><time>2026-03-29T12:42:26.999Z</time></trkpt><trkpt lat="42.96864128918248" lon="11.432522594320142"><ele>157.0</ele><time>2026-03-29T12:42:27.999Z</time></trkpt><trkpt lat="42.96854263432586" lon="11.432382957842176"><ele>157.0</ele><time>2026-03-29T12:42:28.999Z</time></trkpt><trkpt lat="42.96847565643441" lon="11.432224515866029"><ele>157.0</ele><time>2026-03-29T12:42:29.999Z</time></trkpt><trkpt lat="42.968442143364804" lon="11.432045940089942"><ele>157.0</ele><time>2026-03-29T12:42:30.999Z</time></trkpt><trkpt lat="42.96845415989044" lon="11.431849988713042"><ele>157.0</ele><time>2026-03-29T12:42:31.999Z</time></trkpt><trkpt lat="42.96845693848752" lon="11.431635798804239"><ele>157.0</ele><time>2026-03-29T12:42:32.999Z</time></trkpt><trkpt lat="42.968476501741335" lon="11.431401372047445"><ele>156.33333333333334</ele><time>2026-03-29T12:42:33.999Z</time></trkpt><trkpt lat="42.96848772249465" lon="11.43116074860835"><ele>155.66666666666666</ele><time>2026-03-29T12:42:34.999Z</time></trkpt><trkpt lat="42.968512337294214" lon="11.430941594109015"><ele>155.0</ele><time>2026-03-29T12:42:35.999Z</time></trkpt><trkpt lat="42.96853377016049" lon="11.430733256981569"><ele>155.0</ele><time>2026-03-29T12:42:36.999Z</time></trkpt><trkpt lat="42.96855232563193" lon="11.43053760627072"><ele>155.0</ele><time>2026-03-29T12:42:37.999Z</time></trkpt><trkpt lat="42.96856666389432" lon="11.430353459070416"><ele>155.0</ele><time>2026-03-29T12:42:38.999Z</time></trkpt><trkpt lat="42.968577408047494" lon="11.430190083288238"><ele>155.0</ele><time>2026-03-29T12:42:39.999Z</time></trkpt><trkpt lat="42.96857956269221" lon="11.430048921046273"><ele>156.0</ele><time>2026-03-29T12:42:40.999Z</time></trkpt><trkpt lat="42.96856890201883" lon="11.429907346085198"><ele>157.0</ele><time>2026-03-29T12:42:41.999Z</time></trkpt><trkpt lat="42.968533351662344" lon="11.429761394257692"><ele>158.0</ele><time>2026-03-29T12:42:42.999Z</time></trkpt><trkpt lat="42.96846348123511" lon="11.429634167240877"><ele>159.0</ele><time>2026-03-29T12:42:43.999Z</time></trkpt><trkpt lat="42.96838895056888" lon="11.429557246842373"><ele>160.0</ele><time>2026-03-29T12:42:44.999Z</time></trkpt><trkpt lat="42.96832223392765" lon="11.429516538261394"><ele>156.83333333333334</ele><time>2026-03-29T12:42:45.999Z</time></trkpt><trkpt lat="42.96826103343468" lon="11.429438375284247"><ele>153.66666666666669</ele><time>2026-03-29T12:42:46.999Z</time></trkpt><trkpt lat="42.96818980252427" lon="11.429375526053004"><ele>150.5</ele><time>2026-03-29T12:42:47.999Z</time></trkpt><trkpt lat="42.968133931877716" lon="11.429326229658086"><ele>147.33333333333334</ele><time>2026-03-29T12:42:48.999Z</time></trkpt><trkpt lat="42.968056818792356" lon="11.42925819040465"><ele>144.16666666666666</ele><time>2026-03-29T12:42:50.999Z</time></trkpt><trkpt lat="42.96797693488264" lon="11.429196142327996"><ele>141.0</ele><time>2026-03-29T12:44:26.999Z</time></trkpt><trkpt lat="42.96792195533105" lon="11.429119055292714"><ele>141.0</ele><time>2026-03-29T12:44:27.999Z</time></trkpt><trkpt lat="42.96786343113719" lon="11.429006065827352"><ele>141.0</ele><time>2026-03-29T12:44:28.999Z</time></trkpt><trkpt lat="42.9678116239051" lon="11.428868436173058"><ele>141.0</ele><time>2026-03-29T12:44:29.999Z</time></trkpt><trkpt lat="42.96777240375023" lon="11.428714925538939"><ele>141.0</ele><time>2026-03-29T12:44:30.999Z</time></trkpt><trkpt lat="42.96774399709922" lon="11.428531795262854"><ele>140.75</ele><time>2026-03-29T12:44:31.999Z</time></trkpt><trkpt lat="42.967718845576414" lon="11.428329322305903"><ele>140.5</ele><time>2026-03-29T12:44:32.999Z</time></trkpt><trkpt lat="42.96769546979258" lon="11.428136367475926"><ele>140.25</ele><time>2026-03-29T12:44:33.999Z</time></trkpt><trkpt lat="42.967672083494435" lon="11.427952594529758"><ele>140.0</ele><time>2026-03-29T12:44:34.999Z</time></trkpt><trkpt lat="42.96764874136794" lon="11.427775958291337"><ele>140.0</ele><time>2026-03-29T12:44:35.999Z</time></trkpt><trkpt lat="42.96762231065812" lon="11.427609599724892"><ele>140.0</ele><time>2026-03-29T12:44:36.999Z</time></trkpt><trkpt lat="42.967595217851844" lon="11.427444487780088"><ele>140.0</ele><time>2026-03-29T12:44:37.999Z</time></trkpt><trkpt lat="42.967562355082364" lon="11.427287609151012"><ele>140.0</ele><time>2026-03-29T12:44:38.999Z</time></trkpt><trkpt lat="42.967521256237305" lon="11.427132305683951"><ele>134.75</ele><time>2026-03-29T12:44:39.999Z</time></trkpt><trkpt lat="42.96746807439865" lon="11.426983399110037"><ele>129.5</ele><time>2026-03-29T12:44:40.999Z</time></trkpt><trkpt lat="42.96740394107439" lon="11.426850859697455"><ele>124.25</ele><time>2026-03-29T12:44:41.999Z</time></trkpt><trkpt lat="42.967323381480455" lon="11.426726711219148"><ele>119.0</ele><time>2026-03-29T12:44:42.999Z</time></trkpt><trkpt lat="42.96723241890616" lon="11.426616445622258"><ele>119.0</ele><time>2026-03-29T12:44:43.999Z</time></trkpt><trkpt lat="42.96713473206229" lon="11.426513571917987"><ele>119.0</ele><time>2026-03-29T12:44:44.999Z</time></trkpt><trkpt lat="42.967024344910364" lon="11.426429512888996"><ele>119.0</ele><time>2026-03-29T12:44:45.999Z</time></trkpt><trkpt lat="42.96690510006491" lon="11.426364805160386"><ele>119.0</ele><time>2026-03-29T12:44:46.999Z</time></trkpt><trkpt lat="42.96678358392479" lon="11.426313832497115"><ele>117.5</ele><time>2026-03-29T12:44:47.999Z</time></trkpt><trkpt lat="42.96665360455229" lon="11.426270402235499"><ele>116.0</ele><time>2026-03-29T12:44:48.999Z</time></trkpt><trkpt lat="42.966516646015414" lon="11.42623117124765"><ele>114.5</ele><time>2026-03-29T12:44:49.999Z</time></trkpt><trkpt lat="42.96636782172175" lon="11.42619771893522"><ele>113.0</ele><time>2026-03-29T12:44:50.999Z</time></trkpt><trkpt lat="42.96622564712529" lon="11.426163529470822"><ele>113.0</ele><time>2026-03-29T12:44:51.999Z</time></trkpt><trkpt lat="42.966085504148474" lon="11.426135974565575"><ele>113.0</ele><time>2026-03-29T12:44:52.999Z</time></trkpt><trkpt lat="42.965949558750125" lon="11.426107832882982"><ele>113.0</ele><time>2026-03-29T12:44:53.999Z</time></trkpt><trkpt lat="42.96580537528515" lon="11.426074289825948"><ele>113.0</ele><time>2026-03-29T12:44:54.999Z</time></trkpt><trkpt lat="42.965655728321494" lon="11.4260420244248"><ele>111.66666666666666</ele><time>2026-03-29T12:44:55.999Z</time></trkpt><trkpt lat="42.965503432006294" lon="11.426011087324035"><ele>110.33333333333334</ele><time>2026-03-29T12:44:56.999Z</time></trkpt><trkpt lat="42.96534782331695" lon="11.425980664384278"><ele>109.0</ele><time>2026-03-29T12:44:57.999Z</time></trkpt><trkpt lat="42.96520544505237" lon="11.425949190265577"><ele>109.0</ele><time>2026-03-29T12:44:58.999Z</time></trkpt><trkpt lat="42.965060004063986" lon="11.42591581455473"><ele>109.0</ele><time>2026-03-29T12:44:59.999Z</time></trkpt><trkpt lat="42.964917966667734" lon="11.425880072597181"><ele>109.0</ele><time>2026-03-29T12:45:01Z</time></trkpt><trkpt lat="42.96477598376503" lon="11.425842667809235"><ele>109.0</ele><time>2026-03-29T12:45:02Z</time></trkpt><trkpt lat="42.96463510488278" lon="11.425805333192583"><ele>107.75</ele><time>2026-03-29T12:45:03Z</time></trkpt><trkpt lat="42.96449726978658" lon="11.425774239171194"><ele>106.5</ele><time>2026-03-29T12:45:04Z</time></trkpt><trkpt lat="42.96435511501089" lon="11.425747058361202"><ele>105.25</ele><time>2026-03-29T12:45:05Z</time></trkpt><trkpt lat="42.96420925735395" lon="11.42572559865617"><ele>104.0</ele><time>2026-03-29T12:45:06Z</time></trkpt><trkpt lat="42.964059212520276" lon="11.42571948736951"><ele>103.66666666666666</ele><time>2026-03-29T12:45:07Z</time></trkpt><trkpt lat="42.96390350247082" lon="11.425715867328096"><ele>103.33333333333334</ele><time>2026-03-29T12:45:08Z</time></trkpt><trkpt lat="42.96374777745778" lon="11.425707130408282"><ele>103.0</ele><time>2026-03-29T12:45:09Z</time></trkpt><trkpt lat="42.96360069531499" lon="11.425695918296272"><ele>103.0</ele><time>2026-03-29T12:45:10Z</time></trkpt><trkpt lat="42.96345214011673" lon="11.42568570160317"><ele>103.0</ele><time>2026-03-29T12:45:11Z</time></trkpt><trkpt lat="42.96330429070286" lon="11.425670455959024"><ele>103.0</ele><time>2026-03-29T12:45:12Z</time></trkpt><trkpt lat="42.963155518084484" lon="11.42565633377045"><ele>103.0</ele><time>2026-03-29T12:45:13Z</time></trkpt><trkpt lat="42.96300379671049" lon="11.425620197122788"><ele>102.66666666666667</ele><time>2026-03-29T12:45:14Z</time></trkpt><trkpt lat="42.96285233168744" lon="11.425580591409675"><ele>102.33333333333334</ele><time>2026-03-29T12:45:15Z</time></trkpt><trkpt lat="42.96269407680709" lon="11.425670133487497"><ele>102.0</ele><time>2026-03-29T12:45:16Z</time></trkpt><trkpt lat="42.96253855281705" lon="11.425662853637268"><ele>101.33333333333334</ele><time>2026-03-29T12:45:17Z</time></trkpt><trkpt lat="42.96237992012764" lon="11.425652869038068"><ele>100.66666666666667</ele><time>2026-03-29T12:45:18Z</time></trkpt><trkpt lat="42.96222160402109" lon="11.425644195778833"><ele>100.0</ele><time>2026-03-29T12:45:19Z</time></trkpt><trkpt lat="42.96207036274059" lon="11.425639546512175"><ele>100.0</ele><time>2026-03-29T12:45:20Z</time></trkpt><trkpt lat="42.9619119001881" lon="11.42563367107156"><ele>100.0</ele><time>2026-03-29T12:45:21Z</time></trkpt><trkpt lat="42.9617484845288" lon="11.425626636622987"><ele>100.0</ele><time>2026-03-29T12:45:22Z</time></trkpt><trkpt lat="42.961576588457554" lon="11.425622146197409"><ele>100.33333333333334</ele><time>2026-03-29T12:45:23Z</time></trkpt><trkpt lat="42.961395839177676" lon="11.425616279139602"><ele>100.66666666666666</ele><time>2026-03-29T12:45:24Z</time></trkpt><trkpt lat="42.9612044510655" lon="11.425610301536878"><ele>101.0</ele><time>2026-03-29T12:45:25Z</time></trkpt><trkpt lat="42.96100573245707" lon="11.42560192215511"><ele>101.0</ele><time>2026-03-29T12:45:26Z</time></trkpt><trkpt lat="42.96079980470186" lon="11.42559603657184"><ele>101.0</ele><time>2026-03-29T12:45:27Z</time></trkpt><trkpt lat="42.9605909749611" lon="11.425591501679776"><ele>101.0</ele><time>2026-03-29T12:45:28Z</time></trkpt><trkpt lat="42.96037147128014" lon="11.425583575430911"><ele>101.0</ele><time>2026-03-29T12:45:29Z</time></trkpt><trkpt lat="42.960148552692296" lon="11.425577095802245"><ele>101.0</ele><time>2026-03-29T12:45:30Z</time></trkpt><trkpt lat="42.95992539764047" lon="11.425568912917921"><ele>101.0</ele><time>2026-03-29T12:45:31Z</time></trkpt><trkpt lat="42.95969870877691" lon="11.425565446054943"><ele>101.33333333333333</ele><time>2026-03-29T12:45:32Z</time></trkpt><trkpt lat="42.95946391119111" lon="11.425555039047884"><ele>101.66666666666666</ele><time>2026-03-29T12:45:33Z</time></trkpt><trkpt lat="42.959250330339195" lon="11.425547094929136"><ele>102.0</ele><time>2026-03-29T12:45:34Z</time></trkpt><trkpt lat="42.95905416785791" lon="11.4255393004837"><ele>102.0</ele><time>2026-03-29T12:45:35Z</time></trkpt><trkpt lat="42.95885281087956" lon="11.425528709424446"><ele>102.0</ele><time>2026-03-29T12:45:36Z</time></trkpt><trkpt lat="42.95865156631066" lon="11.425519700795702"><ele>102.0</ele><time>2026-03-29T12:45:37Z</time></trkpt><trkpt lat="42.95844660754114" lon="11.42551441939191"><ele>103.66666666666666</ele><time>2026-03-29T12:45:38Z</time></trkpt><trkpt lat="42.95823234447831" lon="11.425508788135689"><ele>105.33333333333333</ele><time>2026-03-29T12:45:39Z</time></trkpt><trkpt lat="42.95804092303759" lon="11.425502466684243"><ele>107.0</ele><time>2026-03-29T12:45:40Z</time></trkpt><trkpt lat="42.9578672984016" lon="11.425502313007964"><ele>107.0</ele><time>2026-03-29T12:45:41Z</time></trkpt><trkpt lat="42.957672995873196" lon="11.425497981347132"><ele>107.0</ele><time>2026-03-29T12:45:42Z</time></trkpt><trkpt lat="42.9574684085488" lon="11.425483714695886"><ele>107.0</ele><time>2026-03-29T12:45:43Z</time></trkpt><trkpt lat="42.957257533265306" lon="11.425463514972861"><ele>109.66666666666666</ele><time>2026-03-29T12:45:44Z</time></trkpt><trkpt lat="42.95713051633531" lon="11.42549891391988"><ele>112.33333333333334</ele><time>2026-03-29T12:45:45Z</time></trkpt><trkpt lat="42.956955177177136" lon="11.425535151424494"><ele>115.0</ele><time>2026-03-29T12:45:46Z</time></trkpt><trkpt lat="42.95677467093236" lon="11.425591771581885"><ele>117.0</ele><time>2026-03-29T12:45:47Z</time></trkpt><trkpt lat="42.95659624796762" lon="11.425674920623532"><ele>119.0</ele><time>2026-03-29T12:45:48Z</time></trkpt><trkpt lat="42.95640752986609" lon="11.425769118879655"><ele>121.0</ele><time>2026-03-29T12:45:49Z</time></trkpt><trkpt lat="42.95621289680876" lon="11.425873282939477"><ele>121.0</ele><time>2026-03-29T12:45:50Z</time></trkpt><trkpt lat="42.95602842491292" lon="11.425958358446774"><ele>121.0</ele><time>2026-03-29T12:45:51Z</time></trkpt><trkpt lat="42.95586317207057" lon="11.426011543178703"><ele>121.0</ele><time>2026-03-29T12:45:52Z</time></trkpt><trkpt lat="42.955693405242094" lon="11.426037676461084"><ele>123.33333333333334</ele><time>2026-03-29T12:45:53Z</time></trkpt><trkpt lat="42.95550924143153" lon="11.426044866634008"><ele>125.66666666666666</ele><time>2026-03-29T12:45:54Z</time></trkpt><trkpt lat="42.955333757769736" lon="11.426041097373883"><ele>128.0</ele><time>2026-03-29T12:45:55Z</time></trkpt><trkpt lat="42.955191085841705" lon="11.425978045143722"><ele>128.0</ele><time>2026-03-29T12:45:56Z</time></trkpt><trkpt lat="42.95506611111092" lon="11.425917854519625"><ele>128.0</ele><time>2026-03-29T12:45:57Z</time></trkpt><trkpt lat="42.95494820361522" lon="11.42584006868555"><ele>128.0</ele><time>2026-03-29T12:45:58Z</time></trkpt><trkpt lat="42.95483296595032" lon="11.425718076107664"><ele>128.0</ele><time>2026-03-29T12:45:59Z</time></trkpt><trkpt lat="42.95469800645233" lon="11.425593041738887"><ele>129.33333333333331</ele><time>2026-03-29T12:46:00Z</time></trkpt><trkpt lat="42.95454286292622" lon="11.425473417352983"><ele>130.66666666666666</ele><time>2026-03-29T12:46:01Z</time></trkpt><trkpt lat="42.954387057537645" lon="11.425333425406421"><ele>132.0</ele><time>2026-03-29T12:46:02Z</time></trkpt><trkpt lat="42.9542448871405" lon="11.42522492140817"><ele>133.66666666666666</ele><time>2026-03-29T12:46:03Z</time></trkpt><trkpt lat="42.954101537107725" lon="11.425145595346255"><ele>135.33333333333331</ele><time>2026-03-29T12:46:04Z</time></trkpt><trkpt lat="42.95394264638586" lon="11.425101214611507"><ele>137.0</ele><time>2026-03-29T12:46:05Z</time></trkpt><trkpt lat="42.953776483356776" lon="11.425087606549582"><ele>137.0</ele><time>2026-03-29T12:46:06Z</time></trkpt><trkpt lat="42.9536032346655" lon="11.42511403468378"><ele>137.0</ele><time>2026-03-29T12:46:06.999Z</time></trkpt><trkpt lat="42.953455444504876" lon="11.425108283681935"><ele>137.0</ele><time>2026-03-29T12:46:07.999Z</time></trkpt><trkpt lat="42.95333891706704" lon="11.425073221112823"><ele>137.0</ele><time>2026-03-29T12:46:08.999Z</time></trkpt><trkpt lat="42.953251929614375" lon="11.425005739894813"><ele>138.25</ele><time>2026-03-29T12:46:09.999Z</time></trkpt><trkpt lat="42.953177733235066" lon="11.42490450467447"><ele>139.5</ele><time>2026-03-29T12:46:10.999Z</time></trkpt><trkpt lat="42.95308476366691" lon="11.424904614296068"><ele>140.75</ele><time>2026-03-29T12:46:11.999Z</time></trkpt><trkpt lat="42.95307551469981" lon="11.424617798908423"><ele>142.0</ele><time>2026-03-29T12:46:12.999Z</time></trkpt><trkpt lat="42.95305800142327" lon="11.424450096157846"><ele>142.0</ele><time>2026-03-29T12:46:13.999Z</time></trkpt><trkpt lat="42.95305937331872" lon="11.424265929352323"><ele>142.0</ele><time>2026-03-29T12:46:14.999Z</time></trkpt><trkpt lat="42.95308756426834" lon="11.424078917739024"><ele>142.0</ele><time>2026-03-29T12:46:15.999Z</time></trkpt><trkpt lat="42.95315316417804" lon="11.42389997617991"><ele>142.0</ele><time>2026-03-29T12:46:16.999Z</time></trkpt><trkpt lat="42.95320200055547" lon="11.423687925050414"><ele>142.33333333333334</ele><time>2026-03-29T12:46:17.999Z</time></trkpt><trkpt lat="42.95325749750776" lon="11.423470625506196"><ele>142.66666666666666</ele><time>2026-03-29T12:46:18.999Z</time></trkpt><trkpt lat="42.95330615360488" lon="11.423238512862001"><ele>143.0</ele><time>2026-03-29T12:46:19.999Z</time></trkpt><trkpt lat="42.95335288255802" lon="11.422989796200733"><ele>141.66666666666666</ele><time>2026-03-29T12:46:20.999Z</time></trkpt><trkpt lat="42.953401446514526" lon="11.422743343725635"><ele>140.33333333333334</ele><time>2026-03-29T12:46:21.999Z</time></trkpt><trkpt lat="42.95345225014154" lon="11.422496925724388"><ele>139.0</ele><time>2026-03-29T12:46:22.999Z</time></trkpt><trkpt lat="42.95350566347451" lon="11.422243529232668"><ele>138.66666666666669</ele><time>2026-03-29T12:46:23.999Z</time></trkpt><trkpt lat="42.953562363851375" lon="11.421981346472856"><ele>138.33333333333334</ele><time>2026-03-29T12:46:24.999Z</time></trkpt><trkpt lat="42.95361689156389" lon="11.421719389234882"><ele>138.0</ele><time>2026-03-29T12:46:25.999Z</time></trkpt><trkpt lat="42.953665592302706" lon="11.421473178029046"><ele>137.33333333333334</ele><time>2026-03-29T12:46:26.999Z</time></trkpt><trkpt lat="42.95371349640748" lon="11.421224957368644"><ele>136.66666666666669</ele><time>2026-03-29T12:46:27.999Z</time></trkpt><trkpt lat="42.95376491634671" lon="11.42096173060393"><ele>136.0</ele><time>2026-03-29T12:46:28.999Z</time></trkpt><trkpt lat="42.95381840982835" lon="11.420691312740924"><ele>134.66666666666669</ele><time>2026-03-29T12:46:29.999Z</time></trkpt><trkpt lat="42.95387158991989" lon="11.420413923221716"><ele>133.33333333333334</ele><time>2026-03-29T12:46:30.999Z</time></trkpt><trkpt lat="42.95392892665942" lon="11.420135268423499"><ele>132.0</ele><time>2026-03-29T12:46:31.999Z</time></trkpt><trkpt lat="42.95398417837709" lon="11.41986837096624"><ele>131.0</ele><time>2026-03-29T12:46:32.999Z</time></trkpt><trkpt lat="42.95403897234011" lon="11.41959543482694"><ele>130.0</ele><time>2026-03-29T12:46:33.999Z</time></trkpt><trkpt lat="42.95409035208821" lon="11.419318691683014"><ele>129.0</ele><time>2026-03-29T12:46:34.999Z</time></trkpt><trkpt lat="42.95414368019366" lon="11.41904097747958"><ele>128.33333333333334</ele><time>2026-03-29T12:46:35.999Z</time></trkpt><trkpt lat="42.9541940652028" lon="11.41879325526183"><ele>127.66666666666667</ele><time>2026-03-29T12:46:36.999Z</time></trkpt><trkpt lat="42.954239165551925" lon="11.418569445315095"><ele>127.0</ele><time>2026-03-29T12:46:37.999Z</time></trkpt><trkpt lat="42.95428264465969" lon="11.418352179351608"><ele>126.66666666666667</ele><time>2026-03-29T12:46:38.999Z</time></trkpt><trkpt lat="42.95432507293383" lon="11.4181380896913"><ele>126.33333333333334</ele><time>2026-03-29T12:46:39.999Z</time></trkpt><trkpt lat="42.954366919481934" lon="11.417934158954276"><ele>126.0</ele><time>2026-03-29T12:46:40.999Z</time></trkpt><trkpt lat="42.954422740403096" lon="11.417735036479458"><ele>125.66666666666666</ele><time>2026-03-29T12:46:41.999Z</time></trkpt><trkpt lat="42.95446588097881" lon="11.41752228520909"><ele>125.33333333333333</ele><time>2026-03-29T12:46:42.999Z</time></trkpt><trkpt lat="42.95451066679109" lon="11.417301420482863"><ele>125.0</ele><time>2026-03-29T12:46:43.999Z</time></trkpt><trkpt lat="42.95455659658585" lon="11.417074914146806"><ele>124.33333333333333</ele><time>2026-03-29T12:46:44.999Z</time></trkpt><trkpt lat="42.954602453533155" lon="11.416848766440237"><ele>123.66666666666666</ele><time>2026-03-29T12:46:45.999Z</time></trkpt><trkpt lat="42.95464768073997" lon="11.416624108709625"><ele>123.0</ele><time>2026-03-29T12:46:46.999Z</time></trkpt><trkpt lat="42.95469403928563" lon="11.416393852327062"><ele>122.33333333333334</ele><time>2026-03-29T12:46:47.999Z</time></trkpt><trkpt lat="42.95472527409413" lon="11.416154307072617"><ele>121.66666666666667</ele><time>2026-03-29T12:46:48.999Z</time></trkpt><trkpt lat="42.95477229774438" lon="11.415921730170215"><ele>121.0</ele><time>2026-03-29T12:46:49.999Z</time></trkpt><trkpt lat="42.954830628264105" lon="11.415715932816731"><ele>121.0</ele><time>2026-03-29T12:46:50.999Z</time></trkpt><trkpt lat="42.954859804955795" lon="11.41548771407875"><ele>121.0</ele><time>2026-03-29T12:46:51.999Z</time></trkpt><trkpt lat="42.95490708179674" lon="11.41526527639878"><ele>121.0</ele><time>2026-03-29T12:46:52.999Z</time></trkpt><trkpt lat="42.95495584962068" lon="11.415038584594523"><ele>121.0</ele><time>2026-03-29T12:46:53.999Z</time></trkpt><trkpt lat="42.95500163469571" lon="11.414809083738444"><ele>121.0</ele><time>2026-03-29T12:46:54.999Z</time></trkpt><trkpt lat="42.955047074834646" lon="11.414576938230619"><ele>121.0</ele><time>2026-03-29T12:46:55.999Z</time></trkpt><trkpt lat="42.955093051191966" lon="11.414344296045904"><ele>119.0</ele><time>2026-03-29T12:46:56.999Z</time></trkpt><trkpt lat="42.95514041130295" lon="11.414107725649945"><ele>117.0</ele><time>2026-03-29T12:46:57.999Z</time></trkpt><trkpt lat="42.955188462729815" lon="11.413865864080519"><ele>115.0</ele><time>2026-03-29T12:46:58.999Z</time></trkpt><trkpt lat="42.955236870122214" lon="11.413625711521345"><ele>114.66666666666667</ele><time>2026-03-29T12:46:59.999Z</time></trkpt><trkpt lat="42.955284846384" lon="11.413379562993567"><ele>114.33333333333334</ele><time>2026-03-29T12:47:00.999Z</time></trkpt><trkpt lat="42.95534863275919" lon="11.413143470331072"><ele>114.0</ele><time>2026-03-29T12:47:01.999Z</time></trkpt><trkpt lat="42.95538368067856" lon="11.412887511874292"><ele>113.66666666666666</ele><time>2026-03-29T12:47:02.999Z</time></trkpt><trkpt lat="42.95544983934175" lon="11.412642235175555"><ele>113.33333333333333</ele><time>2026-03-29T12:47:03.999Z</time></trkpt><trkpt lat="42.95549888727604" lon="11.412398741655077"><ele>113.0</ele><time>2026-03-29T12:47:04.999Z</time></trkpt><trkpt lat="42.95554451378158" lon="11.412172233573454"><ele>114.0</ele><time>2026-03-29T12:47:05.999Z</time></trkpt><trkpt lat="42.95557422872284" lon="11.411941233404056"><ele>115.0</ele><time>2026-03-29T12:47:07Z</time></trkpt><trkpt lat="42.955622080042616" lon="11.411707468884474"><ele>116.0</ele><time>2026-03-29T12:47:08Z</time></trkpt><trkpt lat="42.955671127160755" lon="11.411476426284457"><ele>116.33333333333333</ele><time>2026-03-29T12:47:09Z</time></trkpt><trkpt lat="42.95571784262645" lon="11.411244407194207"><ele>116.66666666666666</ele><time>2026-03-29T12:47:10Z</time></trkpt><trkpt lat="42.955760475166855" lon="11.411033420322937"><ele>117.0</ele><time>2026-03-29T12:47:11Z</time></trkpt><trkpt lat="42.95580547484194" lon="11.410809293722496"><ele>117.0</ele><time>2026-03-29T12:47:12Z</time></trkpt><trkpt lat="42.9558474198447" lon="11.410596556090884"><ele>117.0</ele><time>2026-03-29T12:47:13Z</time></trkpt><trkpt lat="42.95589198172479" lon="11.410374809070612"><ele>117.0</ele><time>2026-03-29T12:47:14Z</time></trkpt><trkpt lat="42.95593510569223" lon="11.4101530663241"><ele>115.0</ele><time>2026-03-29T12:47:15Z</time></trkpt><trkpt lat="42.955979362377505" lon="11.409927116537235"><ele>113.0</ele><time>2026-03-29T12:47:16Z</time></trkpt><trkpt lat="42.956024385807794" lon="11.409700544319938"><ele>111.0</ele><time>2026-03-29T12:47:17Z</time></trkpt><trkpt lat="42.95606934371469" lon="11.409474849946498"><ele>111.0</ele><time>2026-03-29T12:47:18Z</time></trkpt><trkpt lat="42.95612985096982" lon="11.409255552186064"><ele>111.0</ele><time>2026-03-29T12:47:19Z</time></trkpt><trkpt lat="42.956163287928625" lon="11.409007961186797"><ele>111.0</ele><time>2026-03-29T12:47:20Z</time></trkpt><trkpt lat="42.956213678269705" lon="11.40877478414076"><ele>112.0</ele><time>2026-03-29T12:47:21Z</time></trkpt><trkpt lat="42.95626046035734" lon="11.408545615351622"><ele>113.0</ele><time>2026-03-29T12:47:22Z</time></trkpt><trkpt lat="42.95630331586749" lon="11.408325884989516"><ele>114.0</ele><time>2026-03-29T12:47:23Z</time></trkpt><trkpt lat="42.95634486085265" lon="11.408105320835952"><ele>113.66666666666666</ele><time>2026-03-29T12:47:24Z</time></trkpt><trkpt lat="42.95639426321149" lon="11.407882664365973"><ele>113.33333333333333</ele><time>2026-03-29T12:47:25Z</time></trkpt><trkpt lat="42.956440585097546" lon="11.407654940980395"><ele>113.0</ele><time>2026-03-29T12:47:26Z</time></trkpt><trkpt lat="42.95648438489816" lon="11.407426919945536"><ele>113.0</ele><time>2026-03-29T12:47:27Z</time></trkpt><trkpt lat="42.956529683538896" lon="11.407196574398299"><ele>113.0</ele><time>2026-03-29T12:47:28Z</time></trkpt><trkpt lat="42.9565730512647" lon="11.406959608347538"><ele>113.0</ele><time>2026-03-29T12:47:29Z</time></trkpt><trkpt lat="42.95662306577757" lon="11.406721399631767"><ele>112.33333333333333</ele><time>2026-03-29T12:47:30Z</time></trkpt><trkpt lat="42.956671834848436" lon="11.406494352469794"><ele>111.66666666666666</ele><time>2026-03-29T12:47:31Z</time></trkpt><trkpt lat="42.956722835526286" lon="11.406269013227941"><ele>111.0</ele><time>2026-03-29T12:47:32Z</time></trkpt><trkpt lat="42.95678162317775" lon="11.40604287948553"><ele>110.0</ele><time>2026-03-29T12:47:33Z</time></trkpt><trkpt lat="42.95684896335478" lon="11.405811098420932"><ele>109.0</ele><time>2026-03-29T12:47:34Z</time></trkpt><trkpt lat="42.956913153433106" lon="11.405578599520291"><ele>108.0</ele><time>2026-03-29T12:47:35Z</time></trkpt><trkpt lat="42.95697423051882" lon="11.405341408080327"><ele>107.66666666666666</ele><time>2026-03-29T12:47:36Z</time></trkpt><trkpt lat="42.957030996883816" lon="11.405118886995913"><ele>107.33333333333333</ele><time>2026-03-29T12:47:37Z</time></trkpt><trkpt lat="42.95709177153641" lon="11.404900680481122"><ele>107.0</ele><time>2026-03-29T12:47:38Z</time></trkpt><trkpt lat="42.957151948773046" lon="11.404683639806178"><ele>105.0</ele><time>2026-03-29T12:47:39Z</time></trkpt><trkpt lat="42.95722732279977" lon="11.404458438210296"><ele>103.0</ele><time>2026-03-29T12:47:40Z</time></trkpt><trkpt lat="42.95727039857367" lon="11.404218793579206"><ele>101.0</ele><time>2026-03-29T12:47:41Z</time></trkpt><trkpt lat="42.95731644478239" lon="11.403995243256958"><ele>99.33333333333333</ele><time>2026-03-29T12:47:42Z</time></trkpt><trkpt lat="42.957347022180734" lon="11.403771035676845"><ele>97.66666666666666</ele><time>2026-03-29T12:47:43Z</time></trkpt><trkpt lat="42.957353163717265" lon="11.403537606261027"><ele>96.0</ele><time>2026-03-29T12:47:44Z</time></trkpt><trkpt lat="42.95735711421133" lon="11.403294362578187"><ele>96.0</ele><time>2026-03-29T12:47:45Z</time></trkpt><trkpt lat="42.95736003960514" lon="11.403045202005423"><ele>96.0</ele><time>2026-03-29T12:47:46Z</time></trkpt><trkpt lat="42.957378205852905" lon="11.402799167403396"><ele>96.0</ele><time>2026-03-29T12:47:47Z</time></trkpt><trkpt lat="42.9573804992972" lon="11.402570371606839"><ele>95.66666666666667</ele><time>2026-03-29T12:47:48Z</time></trkpt><trkpt lat="42.9573828196867" lon="11.40235763113696"><ele>95.33333333333334</ele><time>2026-03-29T12:47:49Z</time></trkpt><trkpt lat="42.95737138758022" lon="11.402142666855989"><ele>95.0</ele><time>2026-03-29T12:47:50Z</time></trkpt><trkpt lat="42.9573771522099" lon="11.401913858615051"><ele>94.33333333333334</ele><time>2026-03-29T12:47:51Z</time></trkpt><trkpt lat="42.95738042188142" lon="11.401679044698623"><ele>93.66666666666667</ele><time>2026-03-29T12:47:52Z</time></trkpt><trkpt lat="42.95737903954268" lon="11.401441833172859"><ele>93.0</ele><time>2026-03-29T12:47:53Z</time></trkpt><trkpt lat="42.95738024933752" lon="11.4012032318409"><ele>93.0</ele><time>2026-03-29T12:47:54Z</time></trkpt><trkpt lat="42.957383230702554" lon="11.400960897888824"><ele>93.0</ele><time>2026-03-29T12:47:55Z</time></trkpt><trkpt lat="42.957386582258046" lon="11.400712277715979"><ele>93.0</ele><time>2026-03-29T12:47:56Z</time></trkpt><trkpt lat="42.95738930686446" lon="11.400466252497793"><ele>94.33333333333334</ele><time>2026-03-29T12:47:57Z</time></trkpt><trkpt lat="42.95739051292947" lon="11.400238010838516"><ele>95.66666666666667</ele><time>2026-03-29T12:47:58Z</time></trkpt><trkpt lat="42.95739149543126" lon="11.40001382419078"><ele>97.0</ele><time>2026-03-29T12:47:59Z</time></trkpt><trkpt lat="42.95738957478121" lon="11.399783189232918"><ele>98.33333333333334</ele><time>2026-03-29T12:48:00Z</time></trkpt><trkpt lat="42.95738343911292" lon="11.399545136455467"><ele>99.66666666666666</ele><time>2026-03-29T12:48:01Z</time></trkpt><trkpt lat="42.957373571692436" lon="11.399301215413226"><ele>101.0</ele><time>2026-03-29T12:48:02Z</time></trkpt><trkpt lat="42.95735912432507" lon="11.399047406838065"><ele>101.0</ele><time>2026-03-29T12:48:03Z</time></trkpt><trkpt lat="42.95734722554248" lon="11.398783310232211"><ele>101.0</ele><time>2026-03-29T12:48:04Z</time></trkpt><trkpt lat="42.957333899524876" lon="11.398517936196207"><ele>101.0</ele><time>2026-03-29T12:48:05Z</time></trkpt><trkpt lat="42.95732159374948" lon="11.398259916499375"><ele>101.0</ele><time>2026-03-29T12:48:06Z</time></trkpt><trkpt lat="42.95730988599496" lon="11.398009950623887"><ele>101.0</ele><time>2026-03-29T12:48:07Z</time></trkpt><trkpt lat="42.95729883202575" lon="11.397760543066033"><ele>101.0</ele><time>2026-03-29T12:48:08Z</time></trkpt><trkpt lat="42.95729154278654" lon="11.397512165233003"><ele>101.66666666666666</ele><time>2026-03-29T12:48:09Z</time></trkpt><trkpt lat="42.957289162916695" lon="11.397261282017453"><ele>102.33333333333334</ele><time>2026-03-29T12:48:09.999Z</time></trkpt><trkpt lat="42.95729965224469" lon="11.397008910794032"><ele>103.0</ele><time>2026-03-29T12:48:10.999Z</time></trkpt><trkpt lat="42.957317708665634" lon="11.396755737759337"><ele>104.0</ele><time>2026-03-29T12:48:11.999Z</time></trkpt><trkpt lat="42.9573420846158" lon="11.396498569419268"><ele>105.0</ele><time>2026-03-29T12:48:12.999Z</time></trkpt><trkpt lat="42.957367816258" lon="11.396235685056203"><ele>106.0</ele><time>2026-03-29T12:48:13.999Z</time></trkpt><trkpt lat="42.95739063400421" lon="11.395970737915583"><ele>106.66666666666667</ele><time>2026-03-29T12:48:14.999Z</time></trkpt><trkpt lat="42.957412519819705" lon="11.395712643541135"><ele>107.33333333333334</ele><time>2026-03-29T12:48:15.999Z</time></trkpt><trkpt lat="42.957431741307175" lon="11.395463471219625"><ele>108.0</ele><time>2026-03-29T12:48:16.999Z</time></trkpt><trkpt lat="42.95745051420366" lon="11.395222673593562"><ele>108.33333333333334</ele><time>2026-03-29T12:48:17.999Z</time></trkpt><trkpt lat="42.95746964470871" lon="11.394985370574936"><ele>108.66666666666667</ele><time>2026-03-29T12:48:18.999Z</time></trkpt><trkpt lat="42.957489689439" lon="11.394738050089229"><ele>109.0</ele><time>2026-03-29T12:48:19.999Z</time></trkpt><trkpt lat="42.957513073564925" lon="11.394501778235703"><ele>109.0</ele><time>2026-03-29T12:48:20.999Z</time></trkpt><trkpt lat="42.9575338641463" lon="11.394265225061869"><ele>109.0</ele><time>2026-03-29T12:48:21.999Z</time></trkpt><trkpt lat="42.95755412935565" lon="11.394029778354723"><ele>109.0</ele><time>2026-03-29T12:48:22.999Z</time></trkpt><trkpt lat="42.95757504179446" lon="11.393792171524684"><ele>107.66666666666667</ele><time>2026-03-29T12:48:23.999Z</time></trkpt><trkpt lat="42.95759786351967" lon="11.393549616248665"><ele>106.33333333333334</ele><time>2026-03-29T12:48:24.999Z</time></trkpt><trkpt lat="42.957617926336745" lon="11.393307056735564"><ele>105.0</ele><time>2026-03-29T12:48:25.999Z</time></trkpt><trkpt lat="42.95763746519297" lon="11.393066008932301"><ele>105.33333333333334</ele><time>2026-03-29T12:48:26.999Z</time></trkpt><trkpt lat="42.95765760822218" lon="11.392829637205653"><ele>105.66666666666667</ele><time>2026-03-29T12:48:27.999Z</time></trkpt><trkpt lat="42.95767849910348" lon="11.392592586335345"><ele>106.0</ele><time>2026-03-29T12:48:28.999Z</time></trkpt><trkpt lat="42.95770052158802" lon="11.392351446475232"><ele>106.33333333333334</ele><time>2026-03-29T12:48:29.999Z</time></trkpt><trkpt lat="42.95771903902644" lon="11.392109220294245"><ele>106.66666666666666</ele><time>2026-03-29T12:48:30.999Z</time></trkpt><trkpt lat="42.9577370576392" lon="11.391865894922196"><ele>107.0</ele><time>2026-03-29T12:48:31.999Z</time></trkpt><trkpt lat="42.95775585137677" lon="11.3916231946048"><ele>107.0</ele><time>2026-03-29T12:48:32.999Z</time></trkpt><trkpt lat="42.957774053729665" lon="11.39137874959507"><ele>107.0</ele><time>2026-03-29T12:48:33.999Z</time></trkpt><trkpt lat="42.957795397411275" lon="11.391138451782473"><ele>107.0</ele><time>2026-03-29T12:48:34.999Z</time></trkpt><trkpt lat="42.95781878119643" lon="11.390897329641493"><ele>106.66666666666666</ele><time>2026-03-29T12:48:35.999Z</time></trkpt><trkpt lat="42.95784151829307" lon="11.39065823926922"><ele>106.33333333333334</ele><time>2026-03-29T12:48:36.999Z</time></trkpt><trkpt lat="42.95786245588008" lon="11.390415802626883"><ele>106.0</ele><time>2026-03-29T12:48:37.999Z</time></trkpt><trkpt lat="42.9578815447079" lon="11.390171082048745"><ele>106.0</ele><time>2026-03-29T12:48:38.999Z</time></trkpt><trkpt lat="42.95789653039073" lon="11.389928947660856"><ele>106.0</ele><time>2026-03-29T12:48:39.999Z</time></trkpt><trkpt lat="42.95790870734707" lon="11.389695386388555"><ele>106.0</ele><time>2026-03-29T12:48:40.999Z</time></trkpt><trkpt lat="42.95790199260467" lon="11.389461076416548"><ele>105.66666666666667</ele><time>2026-03-29T12:48:41.999Z</time></trkpt><trkpt lat="42.95788219628858" lon="11.389228981368763"><ele>105.33333333333334</ele><time>2026-03-29T12:48:42.999Z</time></trkpt><trkpt lat="42.95785318804551" lon="11.388975181424476"><ele>105.0</ele><time>2026-03-29T12:48:43.999Z</time></trkpt><trkpt lat="42.95782308477032" lon="11.388725110960529"><ele>103.66666666666666</ele><time>2026-03-29T12:48:44.999Z</time></trkpt><trkpt lat="42.95779392240788" lon="11.388470563514392"><ele>102.33333333333333</ele><time>2026-03-29T12:48:45.999Z</time></trkpt><trkpt lat="42.95776885527551" lon="11.388233994011696"><ele>101.0</ele><time>2026-03-29T12:48:46.999Z</time></trkpt><trkpt lat="42.95774591138729" lon="11.388010997114513"><ele>100.0</ele><time>2026-03-29T12:48:47.999Z</time></trkpt><trkpt lat="42.957720650259205" lon="11.387800006669503"><ele>99.0</ele><time>2026-03-29T12:48:48.999Z</time></trkpt><trkpt lat="42.95769718571893" lon="11.387596264030869"><ele>98.0</ele><time>2026-03-29T12:48:49.999Z</time></trkpt><trkpt lat="42.95767722748084" lon="11.38739203757865"><ele>98.0</ele><time>2026-03-29T12:48:50.999Z</time></trkpt><trkpt lat="42.957656229715276" lon="11.387177534526767"><ele>98.0</ele><time>2026-03-29T12:48:51.999Z</time></trkpt><trkpt lat="42.957630932463935" lon="11.386960657949725"><ele>98.0</ele><time>2026-03-29T12:48:52.999Z</time></trkpt><trkpt lat="42.95760813445973" lon="11.386733897207355"><ele>98.5</ele><time>2026-03-29T12:48:53.999Z</time></trkpt><trkpt lat="42.95758368027865" lon="11.386521920222044"><ele>99.0</ele><time>2026-03-29T12:48:54.999Z</time></trkpt><trkpt lat="42.957559790468466" lon="11.386331185853908"><ele>99.5</ele><time>2026-03-29T12:48:55.999Z</time></trkpt><trkpt lat="42.95755301391207" lon="11.38614664790607"><ele>100.0</ele><time>2026-03-29T12:48:56.999Z</time></trkpt><trkpt lat="42.95752180836943" lon="11.385960091630979"><ele>101.5</ele><time>2026-03-29T12:48:57.999Z</time></trkpt><trkpt lat="42.957504092210215" lon="11.385787692231169"><ele>103.0</ele><time>2026-03-29T12:48:58.999Z</time></trkpt><trkpt lat="42.95748709936462" lon="11.385624999953206"><ele>104.5</ele><time>2026-03-29T12:48:59.999Z</time></trkpt><trkpt lat="42.95748984201446" lon="11.385458610207213"><ele>106.0</ele><time>2026-03-29T12:49:00.999Z</time></trkpt><trkpt lat="42.957506407435716" lon="11.385321002129237"><ele>106.0</ele><time>2026-03-29T12:49:01.999Z</time></trkpt><trkpt lat="42.95756602526781" lon="11.38521165035235"><ele>106.0</ele><time>2026-03-29T12:49:02.999Z</time></trkpt><trkpt lat="42.95759589630582" lon="11.385099218556544"><ele>106.0</ele><time>2026-03-29T12:49:03.999Z</time></trkpt><trkpt lat="42.95760776787605" lon="11.38498751498233"><ele>106.0</ele><time>2026-03-29T12:49:04.999Z</time></trkpt><trkpt lat="42.957520762300796" lon="11.384854616608939"><ele>106.0</ele><time>2026-03-29T12:49:05.999Z</time></trkpt><trkpt lat="42.957455544390854" lon="11.384741027167887"><ele>105.75</ele><time>2026-03-29T12:49:06.999Z</time></trkpt><trkpt lat="42.957401421188194" lon="11.384607952466691"><ele>105.5</ele><time>2026-03-29T12:49:07.999Z</time></trkpt><trkpt lat="42.95736732322629" lon="11.38445323462501"><ele>105.25</ele><time>2026-03-29T12:49:08.999Z</time></trkpt><trkpt lat="42.95736623065247" lon="11.384269432002839"><ele>105.0</ele><time>2026-03-29T12:49:09.999Z</time></trkpt><trkpt lat="42.95734900721184" lon="11.384093807477706"><ele>105.0</ele><time>2026-03-29T12:49:10.999Z</time></trkpt><trkpt lat="42.95732700559426" lon="11.383908599740003"><ele>105.0</ele><time>2026-03-29T12:49:11.999Z</time></trkpt><trkpt lat="42.95728722546449" lon="11.383719064441195"><ele>105.0</ele><time>2026-03-29T12:49:13Z</time></trkpt><trkpt lat="42.957277401070534" lon="11.383515341730979"><ele>105.0</ele><time>2026-03-29T12:49:14Z</time></trkpt><trkpt lat="42.95724286881664" lon="11.383307475021983"><ele>105.0</ele><time>2026-03-29T12:49:15Z</time></trkpt><trkpt lat="42.95721689971675" lon="11.383092220617103"><ele>105.0</ele><time>2026-03-29T12:49:16Z</time></trkpt><trkpt lat="42.957193557611085" lon="11.382883899145007"><ele>105.0</ele><time>2026-03-29T12:49:17Z</time></trkpt><trkpt lat="42.95716952852138" lon="11.382678253484132"><ele>104.66666666666666</ele><time>2026-03-29T12:49:18Z</time></trkpt><trkpt lat="42.9571476322993" lon="11.382459561665426"><ele>104.33333333333333</ele><time>2026-03-29T12:49:19Z</time></trkpt><trkpt lat="42.95712845648557" lon="11.382238320727085"><ele>104.0</ele><time>2026-03-29T12:49:20Z</time></trkpt><trkpt lat="42.957110214149324" lon="11.382007181192028"><ele>103.33333333333333</ele><time>2026-03-29T12:49:21Z</time></trkpt><trkpt lat="42.95708943468316" lon="11.38179507788203"><ele>102.66666666666666</ele><time>2026-03-29T12:49:22Z</time></trkpt><trkpt lat="42.95707751903704" lon="11.381576615865535"><ele>102.0</ele><time>2026-03-29T12:49:23Z</time></trkpt><trkpt lat="42.95707401928734" lon="11.38135757555194"><ele>101.66666666666666</ele><time>2026-03-29T12:49:24Z</time></trkpt><trkpt lat="42.957066037374425" lon="11.381138253057212"><ele>101.33333333333333</ele><time>2026-03-29T12:49:25Z</time></trkpt><trkpt lat="42.957055672727364" lon="11.380908801619514"><ele>101.0</ele><time>2026-03-29T12:49:26Z</time></trkpt><trkpt lat="42.957028107776786" lon="11.380684343039075"><ele>101.0</ele><time>2026-03-29T12:49:27Z</time></trkpt><trkpt lat="42.956939260403594" lon="11.380494302323903"><ele>101.0</ele><time>2026-03-29T12:49:28Z</time></trkpt><trkpt lat="42.95690979836791" lon="11.380269171680375"><ele>101.0</ele><time>2026-03-29T12:49:29Z</time></trkpt><trkpt lat="42.95688564685681" lon="11.380047257910034"><ele>101.0</ele><time>2026-03-29T12:49:30Z</time></trkpt><trkpt lat="42.95686404932298" lon="11.37982204937766"><ele>101.0</ele><time>2026-03-29T12:49:31Z</time></trkpt><trkpt lat="42.9568380585169" lon="11.379596629978"><ele>101.0</ele><time>2026-03-29T12:49:32Z</time></trkpt><trkpt lat="42.956813811067924" lon="11.379388655844501"><ele>101.0</ele><time>2026-03-29T12:49:33Z</time></trkpt><trkpt lat="42.95680736101386" lon="11.379184306057306"><ele>101.0</ele><time>2026-03-29T12:49:34Z</time></trkpt><trkpt lat="42.9567698066023" lon="11.37897976968419"><ele>101.0</ele><time>2026-03-29T12:49:35Z</time></trkpt><trkpt lat="42.95674530901818" lon="11.37876973315858"><ele>100.66666666666666</ele><time>2026-03-29T12:49:36Z</time></trkpt><trkpt lat="42.95672275882373" lon="11.378554221187647"><ele>100.33333333333334</ele><time>2026-03-29T12:49:37Z</time></trkpt><trkpt lat="42.95669813439511" lon="11.378340220224093"><ele>100.0</ele><time>2026-03-29T12:49:38Z</time></trkpt><trkpt lat="42.956672985943484" lon="11.378124916716276"><ele>99.66666666666667</ele><time>2026-03-29T12:49:39Z</time></trkpt><trkpt lat="42.956646713099026" lon="11.377905896447404"><ele>99.33333333333334</ele><time>2026-03-29T12:49:40Z</time></trkpt><trkpt lat="42.95662154441534" lon="11.377684806265329"><ele>99.0</ele><time>2026-03-29T12:49:41Z</time></trkpt><trkpt lat="42.95659949082301" lon="11.377465672659728"><ele>99.0</ele><time>2026-03-29T12:49:42Z</time></trkpt><trkpt lat="42.95657962570844" lon="11.377257712154716"><ele>99.0</ele><time>2026-03-29T12:49:43Z</time></trkpt><trkpt lat="42.95655643062552" lon="11.377050706516671"><ele>99.0</ele><time>2026-03-29T12:49:44Z</time></trkpt><trkpt lat="42.956534503338446" lon="11.376848646656496"><ele>99.0</ele><time>2026-03-29T12:49:45Z</time></trkpt><trkpt lat="42.95651286094263" lon="11.376649317505336"><ele>99.0</ele><time>2026-03-29T12:49:46Z</time></trkpt><trkpt lat="42.95648868015234" lon="11.376443373200589"><ele>99.0</ele><time>2026-03-29T12:49:47Z</time></trkpt><trkpt lat="42.95646396016734" lon="11.37622930259185"><ele>100.33333333333334</ele><time>2026-03-29T12:49:48Z</time></trkpt><trkpt lat="42.95644091240582" lon="11.376012613070209"><ele>101.66666666666667</ele><time>2026-03-29T12:49:49Z</time></trkpt><trkpt lat="42.95641961561687" lon="11.375793557463481"><ele>103.0</ele><time>2026-03-29T12:49:50Z</time></trkpt><trkpt lat="42.95639882692826" lon="11.375567819561315"><ele>103.0</ele><time>2026-03-29T12:49:51Z</time></trkpt><trkpt lat="42.95637433731664" lon="11.375341817303662"><ele>103.0</ele><time>2026-03-29T12:49:52Z</time></trkpt><trkpt lat="42.95635011978806" lon="11.375117138144441"><ele>103.0</ele><time>2026-03-29T12:49:53Z</time></trkpt><trkpt lat="42.95634723965405" lon="11.37488664597389"><ele>102.0</ele><time>2026-03-29T12:49:54Z</time></trkpt><trkpt lat="42.95633029071862" lon="11.374651588980925"><ele>101.0</ele><time>2026-03-29T12:49:55Z</time></trkpt><trkpt lat="42.95630649182323" lon="11.374431592809042"><ele>100.0</ele><time>2026-03-29T12:49:56Z</time></trkpt><trkpt lat="42.95630404821612" lon="11.37421390852197"><ele>100.0</ele><time>2026-03-29T12:49:57Z</time></trkpt><trkpt lat="42.9562930714865" lon="11.373981639507662"><ele>100.0</ele><time>2026-03-29T12:49:58Z</time></trkpt><trkpt lat="42.956283011984716" lon="11.37375768898463"><ele>100.0</ele><time>2026-03-29T12:49:59Z</time></trkpt><trkpt lat="42.95627870793551" lon="11.373534595712337"><ele>99.66666666666667</ele><time>2026-03-29T12:50:00Z</time></trkpt><trkpt lat="42.956276383448014" lon="11.373304869997751"><ele>99.33333333333334</ele><time>2026-03-29T12:50:01Z</time></trkpt><trkpt lat="42.95627226171019" lon="11.373070989880196"><ele>99.0</ele><time>2026-03-29T12:50:02Z</time></trkpt><trkpt lat="42.95626825278012" lon="11.372838091780313"><ele>99.0</ele><time>2026-03-29T12:50:03Z</time></trkpt><trkpt lat="42.956266953400466" lon="11.372601944360554"><ele>99.0</ele><time>2026-03-29T12:50:04Z</time></trkpt><trkpt lat="42.95626039615635" lon="11.372362325454702"><ele>99.0</ele><time>2026-03-29T12:50:05Z</time></trkpt><trkpt lat="42.956253654306664" lon="11.372123133771654"><ele>98.66666666666666</ele><time>2026-03-29T12:50:06Z</time></trkpt><trkpt lat="42.95625014759937" lon="11.371881380222177"><ele>98.33333333333333</ele><time>2026-03-29T12:50:07Z</time></trkpt><trkpt lat="42.95624714037377" lon="11.371636505037964"><ele>98.0</ele><time>2026-03-29T12:50:08Z</time></trkpt><trkpt lat="42.95624179053085" lon="11.371389882437189"><ele>98.0</ele><time>2026-03-29T12:50:09Z</time></trkpt><trkpt lat="42.95623802946419" lon="11.37114208984262"><ele>98.0</ele><time>2026-03-29T12:50:10Z</time></trkpt><trkpt lat="42.95622791607506" lon="11.370898321843315"><ele>98.0</ele><time>2026-03-29T12:50:11Z</time></trkpt><trkpt lat="42.95622912641583" lon="11.370678376641619"><ele>97.66666666666666</ele><time>2026-03-29T12:50:12Z</time></trkpt><trkpt lat="42.95622488995459" lon="11.370441061606975"><ele>97.33333333333334</ele><time>2026-03-29T12:50:13Z</time></trkpt><trkpt lat="42.956213988927075" lon="11.370208445506702"><ele>97.0</ele><time>2026-03-29T12:50:14Z</time></trkpt><trkpt lat="42.95620763359029" lon="11.369967851545482"><ele>97.0</ele><time>2026-03-29T12:50:15Z</time></trkpt><trkpt lat="42.95620125857498" lon="11.369731097770153"><ele>97.0</ele><time>2026-03-29T12:50:16Z</time></trkpt><trkpt lat="42.95619512775342" lon="11.369487491598306"><ele>97.0</ele><time>2026-03-29T12:50:17Z</time></trkpt><trkpt lat="42.956189219193256" lon="11.369244675463678"><ele>97.33333333333334</ele><time>2026-03-29T12:50:18Z</time></trkpt><trkpt lat="42.95618284794912" lon="11.369009180244724"><ele>97.66666666666666</ele><time>2026-03-29T12:50:18.999Z</time></trkpt><trkpt lat="42.95618051914047" lon="11.36877917537591"><ele>98.0</ele><time>2026-03-29T12:50:19.999Z</time></trkpt><trkpt lat="42.95617527827464" lon="11.368547501572909"><ele>98.0</ele><time>2026-03-29T12:50:20.999Z</time></trkpt><trkpt lat="42.956168816743094" lon="11.368314343242918"><ele>98.0</ele><time>2026-03-29T12:50:21.999Z</time></trkpt><trkpt lat="42.95616263657078" lon="11.368086308019748"><ele>98.0</ele><time>2026-03-29T12:50:22.999Z</time></trkpt><trkpt lat="42.95615902488116" lon="11.36785224821164"><ele>97.33333333333333</ele><time>2026-03-29T12:50:23.999Z</time></trkpt><trkpt lat="42.956154556012045" lon="11.367616410451653"><ele>96.66666666666666</ele><time>2026-03-29T12:50:24.999Z</time></trkpt><trkpt lat="42.95614843805332" lon="11.367384126241362"><ele>96.0</ele><time>2026-03-29T12:50:25.999Z</time></trkpt><trkpt lat="42.95614613098818" lon="11.367147503026859"><ele>95.66666666666667</ele><time>2026-03-29T12:50:26.999Z</time></trkpt><trkpt lat="42.956140594210794" lon="11.366911319264496"><ele>95.33333333333334</ele><time>2026-03-29T12:50:27.999Z</time></trkpt><trkpt lat="42.95613597047154" lon="11.366668577460059"><ele>95.0</ele><time>2026-03-29T12:50:28.999Z</time></trkpt><trkpt lat="42.95612669712771" lon="11.366436833522652"><ele>94.66666666666667</ele><time>2026-03-29T12:50:29.999Z</time></trkpt><trkpt lat="42.95612334924655" lon="11.366189855230273"><ele>94.33333333333333</ele><time>2026-03-29T12:50:30.999Z</time></trkpt><trkpt lat="42.95611949076044" lon="11.365954047798027"><ele>94.0</ele><time>2026-03-29T12:50:31.999Z</time></trkpt><trkpt lat="42.95611525249328" lon="11.36571486011245"><ele>93.66666666666666</ele><time>2026-03-29T12:50:32.999Z</time></trkpt><trkpt lat="42.95610761839366" lon="11.365465227612965"><ele>93.33333333333333</ele><time>2026-03-29T12:50:33.999Z</time></trkpt><trkpt lat="42.95610046925019" lon="11.365220163290536"><ele>93.0</ele><time>2026-03-29T12:50:34.999Z</time></trkpt><trkpt lat="42.956097041485165" lon="11.364979232450624"><ele>93.0</ele><time>2026-03-29T12:50:35.999Z</time></trkpt><trkpt lat="42.956090588902896" lon="11.364727539382606"><ele>93.0</ele><time>2026-03-29T12:50:36.999Z</time></trkpt><trkpt lat="42.95608754875688" lon="11.364483647530374"><ele>93.0</ele><time>2026-03-29T12:50:37.999Z</time></trkpt><trkpt lat="42.95607979860616" lon="11.364237773405009"><ele>93.33333333333333</ele><time>2026-03-29T12:50:38.999Z</time></trkpt><trkpt lat="42.956073395132286" lon="11.363985845277002"><ele>93.66666666666666</ele><time>2026-03-29T12:50:39.999Z</time></trkpt><trkpt lat="42.95607185903421" lon="11.363742201942928"><ele>94.0</ele><time>2026-03-29T12:50:40.999Z</time></trkpt><trkpt lat="42.956066482177555" lon="11.36349236501433"><ele>94.0</ele><time>2026-03-29T12:50:41.999Z</time></trkpt><trkpt lat="42.956063943030756" lon="11.363252168250812"><ele>94.0</ele><time>2026-03-29T12:50:42.999Z</time></trkpt><trkpt lat="42.956055359282736" lon="11.363002025809264"><ele>94.0</ele><time>2026-03-29T12:50:43.999Z</time></trkpt><trkpt lat="42.956050590392415" lon="11.362755084970571"><ele>93.66666666666666</ele><time>2026-03-29T12:50:44.999Z</time></trkpt><trkpt lat="42.95604718963953" lon="11.362510242722768"><ele>93.33333333333333</ele><time>2026-03-29T12:50:45.999Z</time></trkpt><trkpt lat="42.956041106454485" lon="11.362261786134184"><ele>93.0</ele><time>2026-03-29T12:50:46.999Z</time></trkpt><trkpt lat="42.95603698745253" lon="11.362017321884581"><ele>93.0</ele><time>2026-03-29T12:50:47.999Z</time></trkpt><trkpt lat="42.956031193347094" lon="11.361772944846958"><ele>93.0</ele><time>2026-03-29T12:50:48.999Z</time></trkpt><trkpt lat="42.9560225427104" lon="11.36154436285207"><ele>93.0</ele><time>2026-03-29T12:50:49.999Z</time></trkpt><trkpt lat="42.95603043698913" lon="11.361310416304631"><ele>92.66666666666667</ele><time>2026-03-29T12:50:50.999Z</time></trkpt><trkpt lat="42.956010605080564" lon="11.361078665925094"><ele>92.33333333333334</ele><time>2026-03-29T12:50:51.999Z</time></trkpt><trkpt lat="42.956006898341144" lon="11.360845133431416"><ele>92.0</ele><time>2026-03-29T12:50:52.999Z</time></trkpt><trkpt lat="42.95600576893588" lon="11.360607411989124"><ele>91.33333333333334</ele><time>2026-03-29T12:50:53.999Z</time></trkpt><trkpt lat="42.95600310466522" lon="11.360361784212332"><ele>90.66666666666667</ele><time>2026-03-29T12:50:54.999Z</time></trkpt><trkpt lat="42.955998545697106" lon="11.360108267375937"><ele>90.0</ele><time>2026-03-29T12:50:55.999Z</time></trkpt><trkpt lat="42.955992851537715" lon="11.359849868852338"><ele>90.33333333333333</ele><time>2026-03-29T12:50:56.999Z</time></trkpt><trkpt lat="42.95598800242518" lon="11.359611213220349"><ele>90.66666666666666</ele><time>2026-03-29T12:50:57.999Z</time></trkpt><trkpt lat="42.95598267225658" lon="11.359375335993093"><ele>91.0</ele><time>2026-03-29T12:50:58.999Z</time></trkpt><trkpt lat="42.95596457690501" lon="11.359131015812487"><ele>91.0</ele><time>2026-03-29T12:50:59.999Z</time></trkpt><trkpt lat="42.955921899682565" lon="11.358896836629693"><ele>91.0</ele><time>2026-03-29T12:51:00.999Z</time></trkpt><trkpt lat="42.955852968738014" lon="11.358655598588438"><ele>91.0</ele><time>2026-03-29T12:51:01.999Z</time></trkpt><trkpt lat="42.955765275390306" lon="11.358411007429838"><ele>89.66666666666666</ele><time>2026-03-29T12:51:02.999Z</time></trkpt><trkpt lat="42.95566548621723" lon="11.358157924801098"><ele>88.33333333333333</ele><time>2026-03-29T12:51:03.999Z</time></trkpt><trkpt lat="42.95558500048578" lon="11.357903435908685"><ele>87.0</ele><time>2026-03-29T12:51:04.999Z</time></trkpt><trkpt lat="42.95550123020196" lon="11.357667612429061"><ele>87.0</ele><time>2026-03-29T12:51:05.999Z</time></trkpt><trkpt lat="42.95541105602951" lon="11.357450499733794"><ele>87.0</ele><time>2026-03-29T12:51:06.999Z</time></trkpt><trkpt lat="42.955330858548976" lon="11.357230898880262"><ele>87.0</ele><time>2026-03-29T12:51:07.999Z</time></trkpt><trkpt lat="42.95525033091592" lon="11.357001174629733"><ele>87.33333333333333</ele><time>2026-03-29T12:51:08.999Z</time></trkpt><trkpt lat="42.955165113371606" lon="11.356756772049266"><ele>87.66666666666666</ele><time>2026-03-29T12:51:09.999Z</time></trkpt><trkpt lat="42.95507857283155" lon="11.356517687804136"><ele>88.0</ele><time>2026-03-29T12:51:10.999Z</time></trkpt><trkpt lat="42.95499564839457" lon="11.356295553760624"><ele>85.33333333333333</ele><time>2026-03-29T12:51:11.999Z</time></trkpt><trkpt lat="42.95491946561128" lon="11.356078420840351"><ele>82.66666666666667</ele><time>2026-03-29T12:51:12.999Z</time></trkpt><trkpt lat="42.954841907332614" lon="11.355852153833656"><ele>80.0</ele><time>2026-03-29T12:51:13.999Z</time></trkpt><trkpt lat="42.954759831030884" lon="11.355615717272252"><ele>80.0</ele><time>2026-03-29T12:51:14.999Z</time></trkpt><trkpt lat="42.95467240672282" lon="11.355371826002397"><ele>80.0</ele><time>2026-03-29T12:51:15.999Z</time></trkpt><trkpt lat="42.95458496810525" lon="11.35512326329196"><ele>80.0</ele><time>2026-03-29T12:51:16.999Z</time></trkpt><trkpt lat="42.95449890510745" lon="11.35488234637211"><ele>81.0</ele><time>2026-03-29T12:51:17.999Z</time></trkpt><trkpt lat="42.95441687706262" lon="11.35465713555203"><ele>82.0</ele><time>2026-03-29T12:51:19Z</time></trkpt><trkpt lat="42.95433532420233" lon="11.35442993006185"><ele>83.0</ele><time>2026-03-29T12:51:20Z</time></trkpt><trkpt lat="42.954253561171605" lon="11.354199479095575"><ele>80.33333333333334</ele><time>2026-03-29T12:51:21Z</time></trkpt><trkpt lat="42.95417612029452" lon="11.353978508985653"><ele>77.66666666666667</ele><time>2026-03-29T12:51:22Z</time></trkpt><trkpt lat="42.95410614724042" lon="11.353774569594602"><ele>75.0</ele><time>2026-03-29T12:51:23Z</time></trkpt><trkpt lat="42.954045538963314" lon="11.353575025596834"><ele>75.0</ele><time>2026-03-29T12:51:24Z</time></trkpt><trkpt lat="42.953997884284334" lon="11.353365062997325"><ele>75.0</ele><time>2026-03-29T12:51:25Z</time></trkpt><trkpt lat="42.95396474927027" lon="11.353148412115912"><ele>75.0</ele><time>2026-03-29T12:51:26Z</time></trkpt><trkpt lat="42.953937135302965" lon="11.352919756532799"><ele>73.66666666666667</ele><time>2026-03-29T12:51:27Z</time></trkpt><trkpt lat="42.9539173717838" lon="11.352697541151084"><ele>72.33333333333334</ele><time>2026-03-29T12:51:28Z</time></trkpt><trkpt lat="42.95390642033986" lon="11.352483744905387"><ele>71.0</ele><time>2026-03-29T12:51:29Z</time></trkpt><trkpt lat="42.95389390507677" lon="11.352266885374066"><ele>70.0</ele><time>2026-03-29T12:51:30Z</time></trkpt><trkpt lat="42.953879482926496" lon="11.352051797951445"><ele>69.0</ele><time>2026-03-29T12:51:31Z</time></trkpt><trkpt lat="42.95386092208512" lon="11.351824988368302"><ele>68.0</ele><time>2026-03-29T12:51:32Z</time></trkpt><trkpt lat="42.95384891132713" lon="11.351599158070183"><ele>67.33333333333334</ele><time>2026-03-29T12:51:33Z</time></trkpt><trkpt lat="42.9538330133637" lon="11.351371443114322"><ele>66.66666666666667</ele><time>2026-03-29T12:51:34Z</time></trkpt><trkpt lat="42.953815371466646" lon="11.351136711242889"><ele>66.0</ele><time>2026-03-29T12:51:35Z</time></trkpt><trkpt lat="42.95379842081017" lon="11.350909024536975"><ele>66.0</ele><time>2026-03-29T12:51:36Z</time></trkpt><trkpt lat="42.95378516223178" lon="11.350692129994087"><ele>66.0</ele><time>2026-03-29T12:51:37Z</time></trkpt><trkpt lat="42.95377335562197" lon="11.350481683290349"><ele>66.0</ele><time>2026-03-29T12:51:38Z</time></trkpt><trkpt lat="42.95375938114793" lon="11.350267705271587"><ele>65.66666666666667</ele><time>2026-03-29T12:51:39Z</time></trkpt><trkpt lat="42.953745812513915" lon="11.350050659718978"><ele>65.33333333333334</ele><time>2026-03-29T12:51:40Z</time></trkpt><trkpt lat="42.9537323034318" lon="11.349832017304688"><ele>65.0</ele><time>2026-03-29T12:51:41Z</time></trkpt><trkpt lat="42.953733013856244" lon="11.349610463133853"><ele>65.0</ele><time>2026-03-29T12:51:42Z</time></trkpt><trkpt lat="42.953718488897934" lon="11.349381039091144"><ele>65.0</ele><time>2026-03-29T12:51:43Z</time></trkpt><trkpt lat="42.9536882742672" lon="11.349162161003694"><ele>65.0</ele><time>2026-03-29T12:51:44Z</time></trkpt><trkpt lat="42.95367676812616" lon="11.348946813790135"><ele>65.66666666666667</ele><time>2026-03-29T12:51:45Z</time></trkpt><trkpt lat="42.953660804804805" lon="11.348738378309818"><ele>66.33333333333333</ele><time>2026-03-29T12:51:46Z</time></trkpt><trkpt lat="42.95364807380668" lon="11.348525181155642"><ele>67.0</ele><time>2026-03-29T12:51:47Z</time></trkpt><trkpt lat="42.95363483311726" lon="11.348305184706163"><ele>67.0</ele><time>2026-03-29T12:51:48Z</time></trkpt><trkpt lat="42.95362016077155" lon="11.34809016075798"><ele>67.0</ele><time>2026-03-29T12:51:49Z</time></trkpt><trkpt lat="42.95361994574063" lon="11.347865499045588"><ele>67.0</ele><time>2026-03-29T12:51:50Z</time></trkpt><trkpt lat="42.95360560271162" lon="11.347644919288525"><ele>67.33333333333333</ele><time>2026-03-29T12:51:51Z</time></trkpt><trkpt lat="42.95357695238742" lon="11.34743755011016"><ele>67.66666666666667</ele><time>2026-03-29T12:51:52Z</time></trkpt><trkpt lat="42.95356463122233" lon="11.347226121491257"><ele>68.0</ele><time>2026-03-29T12:51:53Z</time></trkpt><trkpt lat="42.953551120558615" lon="11.347015059357082"><ele>67.33333333333334</ele><time>2026-03-29T12:51:54Z</time></trkpt><trkpt lat="42.95353696974628" lon="11.346800811670688"><ele>66.66666666666667</ele><time>2026-03-29T12:51:55Z</time></trkpt><trkpt lat="42.953524324886516" lon="11.346584524161614"><ele>66.0</ele><time>2026-03-29T12:51:56Z</time></trkpt><trkpt lat="42.95351140475661" lon="11.346368201520718"><ele>66.0</ele><time>2026-03-29T12:51:57Z</time></trkpt><trkpt lat="42.953501183836785" lon="11.346155088153099"><ele>66.0</ele><time>2026-03-29T12:51:58Z</time></trkpt><trkpt lat="42.953487942808565" lon="11.34594994921403"><ele>66.0</ele><time>2026-03-29T12:51:59Z</time></trkpt><trkpt lat="42.95347202426543" lon="11.345737356650039"><ele>66.66666666666667</ele><time>2026-03-29T12:52:00Z</time></trkpt><trkpt lat="42.95345828938582" lon="11.34551247181408"><ele>67.33333333333334</ele><time>2026-03-29T12:52:01Z</time></trkpt><trkpt lat="42.95344899353687" lon="11.345288087962926"><ele>68.0</ele><time>2026-03-29T12:52:02Z</time></trkpt><trkpt lat="42.95343286940222" lon="11.345076285184193"><ele>68.0</ele><time>2026-03-29T12:52:03Z</time></trkpt><trkpt lat="42.95341576265246" lon="11.34486080083919"><ele>68.0</ele><time>2026-03-29T12:52:04Z</time></trkpt><trkpt lat="42.95340128858134" lon="11.344645766966348"><ele>68.0</ele><time>2026-03-29T12:52:05Z</time></trkpt><trkpt lat="42.95338735761084" lon="11.344430528975801"><ele>67.66666666666667</ele><time>2026-03-29T12:52:06Z</time></trkpt><trkpt lat="42.953374638901806" lon="11.344215278261416"><ele>67.33333333333333</ele><time>2026-03-29T12:52:07Z</time></trkpt><trkpt lat="42.9533608397004" lon="11.343996357756525"><ele>67.0</ele><time>2026-03-29T12:52:08Z</time></trkpt><trkpt lat="42.95334674992772" lon="11.343782891879647"><ele>66.66666666666666</ele><time>2026-03-29T12:52:09Z</time></trkpt><trkpt lat="42.95333048832053" lon="11.343565690099727"><ele>66.33333333333333</ele><time>2026-03-29T12:52:10Z</time></trkpt><trkpt lat="42.95333189829275" lon="11.343346469393305"><ele>66.0</ele><time>2026-03-29T12:52:11Z</time></trkpt><trkpt lat="42.95331735064016" lon="11.34312792297402"><ele>65.66666666666667</ele><time>2026-03-29T12:52:12Z</time></trkpt><trkpt lat="42.95330313097879" lon="11.342914303924745"><ele>65.33333333333334</ele><time>2026-03-29T12:52:13Z</time></trkpt><trkpt lat="42.953273921650634" lon="11.342700682126944"><ele>65.0</ele><time>2026-03-29T12:52:14Z</time></trkpt><trkpt lat="42.9532756130549" lon="11.342483982271006"><ele>65.0</ele><time>2026-03-29T12:52:15Z</time></trkpt><trkpt lat="42.95324551102439" lon="11.342267281140959"><ele>65.0</ele><time>2026-03-29T12:52:16Z</time></trkpt><trkpt lat="42.95324790696253" lon="11.342038947726486"><ele>65.0</ele><time>2026-03-29T12:52:17Z</time></trkpt><trkpt lat="42.953233373710965" lon="11.341805504539495"><ele>65.33333333333334</ele><time>2026-03-29T12:52:18Z</time></trkpt><trkpt lat="42.9532174467123" lon="11.341559385001696"><ele>65.66666666666667</ele><time>2026-03-29T12:52:19Z</time></trkpt><trkpt lat="42.95320103832714" lon="11.34131079367714"><ele>66.0</ele><time>2026-03-29T12:52:20Z</time></trkpt><trkpt lat="42.95318393961046" lon="11.341051743659893"><ele>66.33333333333333</ele><time>2026-03-29T12:52:21Z</time></trkpt><trkpt lat="42.95316662002411" lon="11.340786695060483"><ele>66.66666666666666</ele><time>2026-03-29T12:52:22Z</time></trkpt><trkpt lat="42.95314976186948" lon="11.340518760971442"><ele>67.0</ele><time>2026-03-29T12:52:23Z</time></trkpt><trkpt lat="42.95313233721169" lon="11.340241823149842"><ele>66.33333333333333</ele><time>2026-03-29T12:52:23.999Z</time></trkpt><trkpt lat="42.95309967088175" lon="11.339982612013326"><ele>65.66666666666667</ele><time>2026-03-29T12:52:24.999Z</time></trkpt><trkpt lat="42.95309934616703" lon="11.339717482018598"><ele>65.0</ele><time>2026-03-29T12:52:25.999Z</time></trkpt><trkpt lat="42.95308239250114" lon="11.339449342671003"><ele>65.0</ele><time>2026-03-29T12:52:26.999Z</time></trkpt><trkpt lat="42.9530647761744" lon="11.33917900579281"><ele>65.0</ele><time>2026-03-29T12:52:27.999Z</time></trkpt><trkpt lat="42.95304660542405" lon="11.338900160511132"><ele>65.0</ele><time>2026-03-29T12:52:28.999Z</time></trkpt><trkpt lat="42.95302793499969" lon="11.338613647553421"><ele>65.33333333333334</ele><time>2026-03-29T12:52:29.999Z</time></trkpt><trkpt lat="42.953010512247765" lon="11.338346281070748"><ele>65.66666666666667</ele><time>2026-03-29T12:52:30.999Z</time></trkpt><trkpt lat="42.952993505337425" lon="11.338085296084019"><ele>66.0</ele><time>2026-03-29T12:52:31.999Z</time></trkpt><trkpt lat="42.95296161840843" lon="11.33782602261913"><ele>66.0</ele><time>2026-03-29T12:52:32.999Z</time></trkpt><trkpt lat="42.95296132994629" lon="11.337576739471526"><ele>66.0</ele><time>2026-03-29T12:52:33.999Z</time></trkpt><trkpt lat="42.95294543275282" lon="11.337320632699557"><ele>66.0</ele><time>2026-03-29T12:52:34.999Z</time></trkpt><trkpt lat="42.95291323940576" lon="11.337067173617154"><ele>65.66666666666667</ele><time>2026-03-29T12:52:35.999Z</time></trkpt><trkpt lat="42.952897277860096" lon="11.336807244996818"><ele>65.33333333333334</ele><time>2026-03-29T12:52:36.999Z</time></trkpt><trkpt lat="42.95287818427955" lon="11.336531291959847"><ele>65.0</ele><time>2026-03-29T12:52:37.999Z</time></trkpt><trkpt lat="42.952875578852954" lon="11.336254713067781"><ele>65.0</ele><time>2026-03-29T12:52:38.999Z</time></trkpt><trkpt lat="42.95284319645775" lon="11.335974224462"><ele>65.0</ele><time>2026-03-29T12:52:39.999Z</time></trkpt><trkpt lat="42.952822685372766" lon="11.335688887391893"><ele>65.0</ele><time>2026-03-29T12:52:40.999Z</time></trkpt><trkpt lat="42.95281976698754" lon="11.335395545868245"><ele>65.0</ele><time>2026-03-29T12:52:41.999Z</time></trkpt><trkpt lat="42.95280095385244" lon="11.33510593669319"><ele>65.0</ele><time>2026-03-29T12:52:42.999Z</time></trkpt><trkpt lat="42.95276869247647" lon="11.33482835306035"><ele>65.0</ele><time>2026-03-29T12:52:43.999Z</time></trkpt><trkpt lat="42.95274970140384" lon="11.334545320612946"><ele>65.33333333333334</ele><time>2026-03-29T12:52:44.999Z</time></trkpt><trkpt lat="42.952731860659405" lon="11.334259553338374"><ele>65.66666666666667</ele><time>2026-03-29T12:52:45.999Z</time></trkpt><trkpt lat="42.9527135847507" lon="11.333973965336957"><ele>66.0</ele><time>2026-03-29T12:52:46.999Z</time></trkpt><trkpt lat="42.952712512695804" lon="11.333685004961355"><ele>66.0</ele><time>2026-03-29T12:52:47.999Z</time></trkpt><trkpt lat="42.95269516083557" lon="11.333402651462373"><ele>66.0</ele><time>2026-03-29T12:52:48.999Z</time></trkpt><trkpt lat="42.95267694982796" lon="11.333119698272728"><ele>66.0</ele><time>2026-03-29T12:52:49.999Z</time></trkpt><trkpt lat="42.952642572939524" lon="11.33284167943531"><ele>66.0</ele><time>2026-03-29T12:52:50.999Z</time></trkpt><trkpt lat="42.952625336040505" lon="11.332557935066774"><ele>66.0</ele><time>2026-03-29T12:52:51.999Z</time></trkpt><trkpt lat="42.95260845511742" lon="11.332276634167874"><ele>66.0</ele><time>2026-03-29T12:52:52.999Z</time></trkpt><trkpt lat="42.95260510292094" lon="11.33199307106491"><ele>66.33333333333333</ele><time>2026-03-29T12:52:53.999Z</time></trkpt><trkpt lat="42.95258780541391" lon="11.331715480071228"><ele>66.66666666666666</ele><time>2026-03-29T12:52:54.999Z</time></trkpt><trkpt lat="42.95257034866874" lon="11.331435333701751"><ele>67.0</ele><time>2026-03-29T12:52:55.999Z</time></trkpt><trkpt lat="42.95255270505337" lon="11.331154959830215"><ele>68.0</ele><time>2026-03-29T12:52:56.999Z</time></trkpt><trkpt lat="42.95253454846412" lon="11.330876533571884"><ele>69.0</ele><time>2026-03-29T12:52:57.999Z</time></trkpt><trkpt lat="42.95251636409562" lon="11.330597681757572"><ele>70.0</ele><time>2026-03-29T12:52:58.999Z</time></trkpt><trkpt lat="42.95249818241792" lon="11.330318871011047"><ele>70.33333333333333</ele><time>2026-03-29T12:52:59.999Z</time></trkpt><trkpt lat="42.952480191683385" lon="11.33003944022977"><ele>70.66666666666667</ele><time>2026-03-29T12:53:00.999Z</time></trkpt><trkpt lat="42.95246322767433" lon="11.329763461057405"><ele>71.0</ele><time>2026-03-29T12:53:01.999Z</time></trkpt><trkpt lat="42.95244580861207" lon="11.329484738844156"><ele>71.66666666666667</ele><time>2026-03-29T12:53:02.999Z</time></trkpt><trkpt lat="42.95242711293251" lon="11.329208772726517"><ele>72.33333333333333</ele><time>2026-03-29T12:53:03.999Z</time></trkpt><trkpt lat="42.95240940891171" lon="11.328927953198209"><ele>73.0</ele><time>2026-03-29T12:53:04.999Z</time></trkpt><trkpt lat="42.95239135431389" lon="11.32864444046835"><ele>73.66666666666666</ele><time>2026-03-29T12:53:05.999Z</time></trkpt><trkpt lat="42.95237265416884" lon="11.328357273590374"><ele>74.33333333333333</ele><time>2026-03-29T12:53:06.999Z</time></trkpt><trkpt lat="42.95233966485035" lon="11.328070347093457"><ele>75.0</ele><time>2026-03-29T12:53:07.999Z</time></trkpt><trkpt lat="42.952323459162315" lon="11.327777773658436"><ele>75.66666666666667</ele><time>2026-03-29T12:53:08.999Z</time></trkpt><trkpt lat="42.95230438324704" lon="11.327486564898418"><ele>76.33333333333334</ele><time>2026-03-29T12:53:09.999Z</time></trkpt><trkpt lat="42.95228353647059" lon="11.327190686712498"><ele>77.0</ele><time>2026-03-29T12:53:10.999Z</time></trkpt><trkpt lat="42.952274885728094" lon="11.326889820546514"><ele>77.66666666666667</ele><time>2026-03-29T12:53:11.999Z</time></trkpt><trkpt lat="42.95225400671347" lon="11.326601220066152"><ele>78.33333333333333</ele><time>2026-03-29T12:53:12.999Z</time></trkpt><trkpt lat="42.95223300508758" lon="11.326310924785421"><ele>79.0</ele><time>2026-03-29T12:53:13.999Z</time></trkpt><trkpt lat="42.95220778257384" lon="11.326026873157652"><ele>79.0</ele><time>2026-03-29T12:53:14.999Z</time></trkpt><trkpt lat="42.9520460890204" lon="11.32577966723519"><ele>79.0</ele><time>2026-03-29T12:53:15.999Z</time></trkpt><trkpt lat="42.95196163546357" lon="11.325520427956123"><ele>79.0</ele><time>2026-03-29T12:53:16.999Z</time></trkpt><trkpt lat="42.95187120816392" lon="11.325258791008192"><ele>79.0</ele><time>2026-03-29T12:53:17.999Z</time></trkpt><trkpt lat="42.95177799654886" lon="11.324995459425136"><ele>79.0</ele><time>2026-03-29T12:53:18.999Z</time></trkpt><trkpt lat="42.951685410179564" lon="11.324729989362828"><ele>79.0</ele><time>2026-03-29T12:53:19.999Z</time></trkpt><trkpt lat="42.95159370557424" lon="11.32446232569923"><ele>79.0</ele><time>2026-03-29T12:53:20.999Z</time></trkpt><trkpt lat="42.95150140457144" lon="11.324182220119383"><ele>79.0</ele><time>2026-03-29T12:53:21.999Z</time></trkpt><trkpt lat="42.95140944918817" lon="11.323904025714873"><ele>80.0</ele><time>2026-03-29T12:53:22.999Z</time></trkpt><trkpt lat="42.95131639694734" lon="11.323621673482558"><ele>81.0</ele><time>2026-03-29T12:53:23.999Z</time></trkpt><trkpt lat="42.95122100726927" lon="11.32333677882278"><ele>81.5</ele><time>2026-03-29T12:53:25Z</time></trkpt><trkpt lat="42.95112675144857" lon="11.32304956569708"><ele>82.0</ele><time>2026-03-29T12:53:26Z</time></trkpt><trkpt lat="42.951035890007205" lon="11.32277499203427"><ele>82.0</ele><time>2026-03-29T12:53:27Z</time></trkpt><trkpt lat="42.95094669221579" lon="11.322511345599496"><ele>82.0</ele><time>2026-03-29T12:53:28Z</time></trkpt><trkpt lat="42.95085661720457" lon="11.322243110624825"><ele>82.0</ele><time>2026-03-29T12:53:29Z</time></trkpt><trkpt lat="42.950768816017785" lon="11.3219819737841"><ele>81.66666666666666</ele><time>2026-03-29T12:53:30Z</time></trkpt><trkpt lat="42.950681728396994" lon="11.321720770790325"><ele>81.33333333333333</ele><time>2026-03-29T12:53:31Z</time></trkpt><trkpt lat="42.95059237892718" lon="11.321458189824348"><ele>81.0</ele><time>2026-03-29T12:53:32Z</time></trkpt><trkpt lat="42.95050742047332" lon="11.321196947599761"><ele>81.0</ele><time>2026-03-29T12:53:33Z</time></trkpt><trkpt lat="42.95041253781625" lon="11.320926611944989"><ele>81.0</ele><time>2026-03-29T12:53:34Z</time></trkpt><trkpt lat="42.95032206380749" lon="11.320655153229774"><ele>81.0</ele><time>2026-03-29T12:53:35Z</time></trkpt><trkpt lat="42.95022391971172" lon="11.320381309377611"><ele>81.66666666666667</ele><time>2026-03-29T12:53:36Z</time></trkpt><trkpt lat="42.950136935809425" lon="11.320108463166495"><ele>82.33333333333334</ele><time>2026-03-29T12:53:37Z</time></trkpt><trkpt lat="42.95004733196331" lon="11.319835446831148"><ele>83.0</ele><time>2026-03-29T12:53:38Z</time></trkpt><trkpt lat="42.94995796746359" lon="11.319560229583214"><ele>83.0</ele><time>2026-03-29T12:53:39Z</time></trkpt><trkpt lat="42.94986799529953" lon="11.319287729654704"><ele>83.0</ele><time>2026-03-29T12:53:40Z</time></trkpt><trkpt lat="42.94977456577706" lon="11.319012986023038"><ele>83.0</ele><time>2026-03-29T12:53:41Z</time></trkpt><trkpt lat="42.94968302731958" lon="11.318743964297967"><ele>84.0</ele><time>2026-03-29T12:53:42Z</time></trkpt><trkpt lat="42.94959862533368" lon="11.31850717574615"><ele>85.0</ele><time>2026-03-29T12:53:43Z</time></trkpt><trkpt lat="42.94950651910251" lon="11.318287451790088"><ele>86.0</ele><time>2026-03-29T12:53:44Z</time></trkpt><trkpt lat="42.949401105332306" lon="11.318068204219166"><ele>85.0</ele><time>2026-03-29T12:53:45Z</time></trkpt><trkpt lat="42.94927724025456" lon="11.317857494347997"><ele>84.0</ele><time>2026-03-29T12:53:46Z</time></trkpt><trkpt lat="42.94913992545192" lon="11.317647243419762"><ele>83.0</ele><time>2026-03-29T12:53:47Z</time></trkpt><trkpt lat="42.94899298994386" lon="11.317453455873677"><ele>83.0</ele><time>2026-03-29T12:53:48Z</time></trkpt><trkpt lat="42.948841712500105" lon="11.31725906682897"><ele>83.0</ele><time>2026-03-29T12:53:49Z</time></trkpt><trkpt lat="42.94868680617032" lon="11.317059916688999"><ele>83.0</ele><time>2026-03-29T12:53:50Z</time></trkpt><trkpt lat="42.94853068518763" lon="11.316858235100824"><ele>83.33333333333334</ele><time>2026-03-29T12:53:51Z</time></trkpt><trkpt lat="42.94837795533578" lon="11.316649498533016"><ele>83.66666666666667</ele><time>2026-03-29T12:53:52Z</time></trkpt><trkpt lat="42.94822780415283" lon="11.316435094838058"><ele>84.0</ele><time>2026-03-29T12:53:53Z</time></trkpt><trkpt lat="42.94808311412378" lon="11.31622467431576"><ele>86.0</ele><time>2026-03-29T12:53:54Z</time></trkpt><trkpt lat="42.947955470370864" lon="11.31602221434291"><ele>88.0</ele><time>2026-03-29T12:53:55Z</time></trkpt><trkpt lat="42.94784419989166" lon="11.315819403925437"><ele>90.0</ele><time>2026-03-29T12:53:56Z</time></trkpt><trkpt lat="42.94774440896848" lon="11.315597872434855"><ele>90.0</ele><time>2026-03-29T12:53:57Z</time></trkpt><trkpt lat="42.947660287802286" lon="11.315359709717944"><ele>90.0</ele><time>2026-03-29T12:53:58Z</time></trkpt><trkpt lat="42.94758831749578" lon="11.315115098800668"><ele>90.0</ele><time>2026-03-29T12:53:59Z</time></trkpt><trkpt lat="42.947523942268866" lon="11.31486458231056"><ele>90.0</ele><time>2026-03-29T12:54:00Z</time></trkpt><trkpt lat="42.94746738238185" lon="11.31461010500058"><ele>90.0</ele><time>2026-03-29T12:54:01Z</time></trkpt><trkpt lat="42.94742300884598" lon="11.314347977064767"><ele>90.0</ele><time>2026-03-29T12:54:02Z</time></trkpt><trkpt lat="42.94738834718182" lon="11.314075104400112"><ele>90.0</ele><time>2026-03-29T12:54:03Z</time></trkpt><trkpt lat="42.94735399840076" lon="11.313795478857692"><ele>90.0</ele><time>2026-03-29T12:54:04Z</time></trkpt><trkpt lat="42.94731720350285" lon="11.313509622481888"><ele>90.0</ele><time>2026-03-29T12:54:05Z</time></trkpt><trkpt lat="42.947280098067885" lon="11.313222772650873"><ele>89.33333333333333</ele><time>2026-03-29T12:54:06Z</time></trkpt><trkpt lat="42.947241456598924" lon="11.31292545143379"><ele>88.66666666666666</ele><time>2026-03-29T12:54:07Z</time></trkpt><trkpt lat="42.947202076775945" lon="11.312642927140375"><ele>88.0</ele><time>2026-03-29T12:54:08Z</time></trkpt><trkpt lat="42.94716024284304" lon="11.312395934440321"><ele>88.0</ele><time>2026-03-29T12:54:09Z</time></trkpt><trkpt lat="42.94710392480317" lon="11.312160763205757"><ele>88.0</ele><time>2026-03-29T12:54:10Z</time></trkpt><trkpt lat="42.947026848565805" lon="11.311924809976631"><ele>88.0</ele><time>2026-03-29T12:54:11Z</time></trkpt><trkpt lat="42.94692811858304" lon="11.311684938630373"><ele>88.0</ele><time>2026-03-29T12:54:12Z</time></trkpt><trkpt lat="42.94681151590234" lon="11.311453407078847"><ele>88.0</ele><time>2026-03-29T12:54:13Z</time></trkpt><trkpt lat="42.94668082016545" lon="11.311227583113686"><ele>88.0</ele><time>2026-03-29T12:54:14Z</time></trkpt><trkpt lat="42.94653624956591" lon="11.311010536909789"><ele>91.33333333333333</ele><time>2026-03-29T12:54:15Z</time></trkpt><trkpt lat="42.94638598099688" lon="11.310800511873627"><ele>94.66666666666666</ele><time>2026-03-29T12:54:16Z</time></trkpt><trkpt lat="42.94623047467078" lon="11.310589156152302"><ele>98.0</ele><time>2026-03-29T12:54:17Z</time></trkpt><trkpt lat="42.946072105289616" lon="11.310367215645327"><ele>98.5</ele><time>2026-03-29T12:54:18Z</time></trkpt><trkpt lat="42.945914471523814" lon="11.31014287414893"><ele>99.0</ele><time>2026-03-29T12:54:19Z</time></trkpt><trkpt lat="42.945760593602195" lon="11.309911521029644"><ele>99.33333333333334</ele><time>2026-03-29T12:54:20Z</time></trkpt><trkpt lat="42.94562197488665" lon="11.309676035010185"><ele>99.66666666666667</ele><time>2026-03-29T12:54:21Z</time></trkpt><trkpt lat="42.94550623580311" lon="11.309449370171183"><ele>100.0</ele><time>2026-03-29T12:54:22Z</time></trkpt><trkpt lat="42.945412873288284" lon="11.309197819136042"><ele>100.0</ele><time>2026-03-29T12:54:23Z</time></trkpt><trkpt lat="42.94530535220334" lon="11.308949505944094"><ele>100.0</ele><time>2026-03-29T12:54:24Z</time></trkpt><trkpt lat="42.94522194520452" lon="11.308676109837108"><ele>100.0</ele><time>2026-03-29T12:54:25Z</time></trkpt><trkpt lat="42.94514953744403" lon="11.30839961701107"><ele>99.33333333333334</ele><time>2026-03-29T12:54:26Z</time></trkpt><trkpt lat="42.94508530837271" lon="11.308104743570036"><ele>98.66666666666666</ele><time>2026-03-29T12:54:27Z</time></trkpt><trkpt lat="42.94503677411896" lon="11.307825287679226"><ele>98.0</ele><time>2026-03-29T12:54:27.999Z</time></trkpt><trkpt lat="42.94502008435856" lon="11.307550759441783"><ele>97.0</ele><time>2026-03-29T12:54:28.999Z</time></trkpt><trkpt lat="42.94499745912719" lon="11.30728078239908"><ele>96.0</ele><time>2026-03-29T12:54:29.999Z</time></trkpt><trkpt lat="42.94497551489902" lon="11.306996646821274"><ele>95.0</ele><time>2026-03-29T12:54:30.999Z</time></trkpt><trkpt lat="42.94494005803827" lon="11.306707042446158"><ele>94.0</ele><time>2026-03-29T12:54:31.999Z</time></trkpt><trkpt lat="42.9449190677906" lon="11.306408204492255"><ele>93.0</ele><time>2026-03-29T12:54:32.999Z</time></trkpt><trkpt lat="42.94489567815843" lon="11.306104796459588"><ele>92.0</ele><time>2026-03-29T12:54:33.999Z</time></trkpt><trkpt lat="42.94487250740439" lon="11.305809375363431"><ele>91.66666666666667</ele><time>2026-03-29T12:54:34.999Z</time></trkpt><trkpt lat="42.94485258998146" lon="11.305527670895867"><ele>91.33333333333333</ele><time>2026-03-29T12:54:35.999Z</time></trkpt><trkpt lat="42.94484041787822" lon="11.305250062529062"><ele>91.0</ele><time>2026-03-29T12:54:36.999Z</time></trkpt><trkpt lat="42.94481333481559" lon="11.304959899352674"><ele>90.0</ele><time>2026-03-29T12:54:37.999Z</time></trkpt><trkpt lat="42.94479139738378" lon="11.304669156325332"><ele>89.0</ele><time>2026-03-29T12:54:38.999Z</time></trkpt><trkpt lat="42.944768943916465" lon="11.304376911797702"><ele>88.0</ele><time>2026-03-29T12:54:39.999Z</time></trkpt><trkpt lat="42.944743730484895" lon="11.30408288588991"><ele>87.66666666666666</ele><time>2026-03-29T12:54:40.999Z</time></trkpt><trkpt lat="42.94471805854226" lon="11.30379124124953"><ele>87.33333333333333</ele><time>2026-03-29T12:54:41.999Z</time></trkpt><trkpt lat="42.94469112342488" lon="11.303500408305217"><ele>87.0</ele><time>2026-03-29T12:54:42.999Z</time></trkpt><trkpt lat="42.94466194933729" lon="11.303201352914028"><ele>86.33333333333333</ele><time>2026-03-29T12:54:43.999Z</time></trkpt><trkpt lat="42.944632673156576" lon="11.302910403435023"><ele>85.66666666666666</ele><time>2026-03-29T12:54:44.999Z</time></trkpt><trkpt lat="42.94459186587433" lon="11.302615416175966"><ele>85.0</ele><time>2026-03-29T12:54:45.999Z</time></trkpt><trkpt lat="42.94457262414892" lon="11.302313019850619"><ele>84.33333333333333</ele><time>2026-03-29T12:54:46.999Z</time></trkpt><trkpt lat="42.944537361122435" lon="11.302014967164121"><ele>83.66666666666667</ele><time>2026-03-29T12:54:47.999Z</time></trkpt><trkpt lat="42.944503699008905" lon="11.301737266453511"><ele>83.0</ele><time>2026-03-29T12:54:48.999Z</time></trkpt><trkpt lat="42.94445895606786" lon="11.30147088275006"><ele>82.66666666666667</ele><time>2026-03-29T12:54:49.999Z</time></trkpt><trkpt lat="42.94442711008698" lon="11.301195291542767"><ele>82.33333333333333</ele><time>2026-03-29T12:54:50.999Z</time></trkpt><trkpt lat="42.94439748476818" lon="11.300908763014615"><ele>82.0</ele><time>2026-03-29T12:54:51.999Z</time></trkpt><trkpt lat="42.94436927023178" lon="11.300632473714082"><ele>81.0</ele><time>2026-03-29T12:54:52.999Z</time></trkpt><trkpt lat="42.944345183960145" lon="11.300369370072302"><ele>80.0</ele><time>2026-03-29T12:54:53.999Z</time></trkpt><trkpt lat="42.9443264978122" lon="11.300111832152425"><ele>79.0</ele><time>2026-03-29T12:54:54.999Z</time></trkpt><trkpt lat="42.944304947922994" lon="11.299857854734457"><ele>78.33333333333333</ele><time>2026-03-29T12:54:55.999Z</time></trkpt><trkpt lat="42.94427323580991" lon="11.299606124064477"><ele>77.66666666666667</ele><time>2026-03-29T12:54:56.999Z</time></trkpt><trkpt lat="42.94423964868883" lon="11.29935714598542"><ele>77.0</ele><time>2026-03-29T12:54:57.999Z</time></trkpt><trkpt lat="42.94419138882782" lon="11.29911816659923"><ele>76.33333333333334</ele><time>2026-03-29T12:54:58.999Z</time></trkpt><trkpt lat="42.94412017894354" lon="11.298887237890948"><ele>75.66666666666667</ele><time>2026-03-29T12:54:59.999Z</time></trkpt><trkpt lat="42.944036229078726" lon="11.298670110129448"><ele>75.0</ele><time>2026-03-29T12:55:00.999Z</time></trkpt><trkpt lat="42.94394323745287" lon="11.298476080119652"><ele>75.0</ele><time>2026-03-29T12:55:01.999Z</time></trkpt><trkpt lat="42.94384313512372" lon="11.298305290937064"><ele>75.0</ele><time>2026-03-29T12:55:02.999Z</time></trkpt><trkpt lat="42.94372807543205" lon="11.29815122099692"><ele>75.0</ele><time>2026-03-29T12:55:03.999Z</time></trkpt><trkpt lat="42.943601369188826" lon="11.297995646701441"><ele>74.66666666666667</ele><time>2026-03-29T12:55:04.999Z</time></trkpt><trkpt lat="42.943471933165235" lon="11.297838285153203"><ele>74.33333333333334</ele><time>2026-03-29T12:55:05.999Z</time></trkpt><trkpt lat="42.94333738275312" lon="11.297669903451498"><ele>74.0</ele><time>2026-03-29T12:55:06.999Z</time></trkpt><trkpt lat="42.943206253918525" lon="11.297502160739938"><ele>73.0</ele><time>2026-03-29T12:55:07.999Z</time></trkpt><trkpt lat="42.943084716610336" lon="11.29734877976867"><ele>72.0</ele><time>2026-03-29T12:55:08.999Z</time></trkpt><trkpt lat="42.942970386026104" lon="11.297194484126578"><ele>71.0</ele><time>2026-03-29T12:55:09.999Z</time></trkpt><trkpt lat="42.94286911304614" lon="11.29702383178248"><ele>71.0</ele><time>2026-03-29T12:55:10.999Z</time></trkpt><trkpt lat="42.94278730810007" lon="11.29684108788932"><ele>71.0</ele><time>2026-03-29T12:55:11.999Z</time></trkpt><trkpt lat="42.94272757225522" lon="11.296662178368447"><ele>71.0</ele><time>2026-03-29T12:55:12.999Z</time></trkpt><trkpt lat="42.94269181801338" lon="11.296479790243442"><ele>71.0</ele><time>2026-03-29T12:55:13.999Z</time></trkpt><trkpt lat="42.94266275330987" lon="11.296288684850076"><ele>71.5</ele><time>2026-03-29T12:55:14.999Z</time></trkpt><trkpt lat="42.94264017941236" lon="11.296092876337358"><ele>72.0</ele><time>2026-03-29T12:55:15.999Z</time></trkpt><trkpt lat="42.942618606082355" lon="11.295890669975883"><ele>72.5</ele><time>2026-03-29T12:55:16.999Z</time></trkpt><trkpt lat="42.9425968712445" lon="11.295681468656204"><ele>73.0</ele><time>2026-03-29T12:55:17.999Z</time></trkpt><trkpt lat="42.942581846364355" lon="11.295490454643403"><ele>73.5</ele><time>2026-03-29T12:55:18.999Z</time></trkpt><trkpt lat="42.942572855713124" lon="11.295312932822629"><ele>74.0</ele><time>2026-03-29T12:55:19.999Z</time></trkpt><trkpt lat="42.94255959613057" lon="11.2951481272843"><ele>74.5</ele><time>2026-03-29T12:55:20.999Z</time></trkpt><trkpt lat="42.942536605402424" lon="11.295000742765687"><ele>75.0</ele><time>2026-03-29T12:55:21.999Z</time></trkpt><trkpt lat="42.942487642780314" lon="11.294856152834571"><ele>76.25</ele><time>2026-03-29T12:55:22.999Z</time></trkpt><trkpt lat="42.94241465210544" lon="11.294716833170664"><ele>77.5</ele><time>2026-03-29T12:55:23.999Z</time></trkpt><trkpt lat="42.942320408519066" lon="11.29458223700803"><ele>78.75</ele><time>2026-03-29T12:55:24.999Z</time></trkpt><trkpt lat="42.94222386882692" lon="11.294442255118478"><ele>80.0</ele><time>2026-03-29T12:55:25.999Z</time></trkpt><trkpt lat="42.942131197777336" lon="11.294308560770613"><ele>80.0</ele><time>2026-03-29T12:55:26.999Z</time></trkpt><trkpt lat="42.9420455164262" lon="11.294171362428356"><ele>80.0</ele><time>2026-03-29T12:55:27.999Z</time></trkpt><trkpt lat="42.94195940310759" lon="11.294038390285994"><ele>80.0</ele><time>2026-03-29T12:55:28.999Z</time></trkpt><trkpt lat="42.94186759683487" lon="11.293904042870489"><ele>80.0</ele><time>2026-03-29T12:55:29.999Z</time></trkpt><trkpt lat="42.94176899952192" lon="11.29373698852117"><ele>79.66666666666667</ele><time>2026-03-29T12:55:31Z</time></trkpt><trkpt lat="42.941646944947934" lon="11.293550154016462"><ele>79.33333333333333</ele><time>2026-03-29T12:55:32Z</time></trkpt><trkpt lat="42.94151121681912" lon="11.293339577731054"><ele>79.0</ele><time>2026-03-29T12:55:33Z</time></trkpt><trkpt lat="42.94136656985818" lon="11.293147029094692"><ele>79.66666666666666</ele><time>2026-03-29T12:55:34Z</time></trkpt><trkpt lat="42.941264012437564" lon="11.292955181371903"><ele>80.33333333333333</ele><time>2026-03-29T12:55:35Z</time></trkpt><trkpt lat="42.941167654363454" lon="11.292777725806088"><ele>81.0</ele><time>2026-03-29T12:55:36Z</time></trkpt><trkpt lat="42.941084687227814" lon="11.292607767353095"><ele>81.0</ele><time>2026-03-29T12:55:37Z</time></trkpt><trkpt lat="42.94101624809171" lon="11.292420956331926"><ele>81.0</ele><time>2026-03-29T12:55:38Z</time></trkpt><trkpt lat="42.94096062219886" lon="11.292211518596229"><ele>81.0</ele><time>2026-03-29T12:55:39Z</time></trkpt><trkpt lat="42.940921280536706" lon="11.291985081969521"><ele>80.33333333333333</ele><time>2026-03-29T12:55:40Z</time></trkpt><trkpt lat="42.940896924942216" lon="11.291762707568248"><ele>79.66666666666666</ele><time>2026-03-29T12:55:41Z</time></trkpt><trkpt lat="42.94087943016679" lon="11.291529282893887"><ele>79.0</ele><time>2026-03-29T12:55:42Z</time></trkpt><trkpt lat="42.94086036245574" lon="11.291291258754022"><ele>78.0</ele><time>2026-03-29T12:55:43Z</time></trkpt><trkpt lat="42.94084241652127" lon="11.291045471171493"><ele>77.0</ele><time>2026-03-29T12:55:44Z</time></trkpt><trkpt lat="42.940827347334384" lon="11.29079597547259"><ele>76.0</ele><time>2026-03-29T12:55:45Z</time></trkpt><trkpt lat="42.94081340381118" lon="11.290547402186396"><ele>76.0</ele><time>2026-03-29T12:55:46Z</time></trkpt><trkpt lat="42.940799159969394" lon="11.290291951372426"><ele>76.0</ele><time>2026-03-29T12:55:47Z</time></trkpt><trkpt lat="42.9407839067267" lon="11.290052893296563"><ele>76.0</ele><time>2026-03-29T12:55:48Z</time></trkpt><trkpt lat="42.94077101058558" lon="11.289816398333688"><ele>75.33333333333333</ele><time>2026-03-29T12:55:49Z</time></trkpt><trkpt lat="42.94075771610544" lon="11.28959032943903"><ele>74.66666666666667</ele><time>2026-03-29T12:55:50Z</time></trkpt><trkpt lat="42.9407404725632" lon="11.28937935461529"><ele>74.0</ele><time>2026-03-29T12:55:51Z</time></trkpt><trkpt lat="42.94071715310168" lon="11.289174561174084"><ele>74.0</ele><time>2026-03-29T12:55:52Z</time></trkpt><trkpt lat="42.940686039824286" lon="11.288964138830734"><ele>74.0</ele><time>2026-03-29T12:55:53Z</time></trkpt><trkpt lat="42.94063897468046" lon="11.288746243605829"><ele>74.0</ele><time>2026-03-29T12:55:54Z</time></trkpt><trkpt lat="42.94060359869397" lon="11.288531394693107"><ele>74.0</ele><time>2026-03-29T12:55:55Z</time></trkpt><trkpt lat="42.94054859512086" lon="11.288335283007696"><ele>74.0</ele><time>2026-03-29T12:55:56Z</time></trkpt><trkpt lat="42.9404738360505" lon="11.288152986409857"><ele>74.0</ele><time>2026-03-29T12:55:57Z</time></trkpt><trkpt lat="42.94041165141294" lon="11.287953738583616"><ele>74.0</ele><time>2026-03-29T12:55:58Z</time></trkpt><trkpt lat="42.940339781781454" lon="11.287756152580235"><ele>74.0</ele><time>2026-03-29T12:55:59Z</time></trkpt><trkpt lat="42.94026318894229" lon="11.287560443008276"><ele>74.0</ele><time>2026-03-29T12:56:00Z</time></trkpt><trkpt lat="42.94018902143307" lon="11.287360196053513"><ele>73.66666666666667</ele><time>2026-03-29T12:56:01Z</time></trkpt><trkpt lat="42.940111263802386" lon="11.287159883228206"><ele>73.33333333333333</ele><time>2026-03-29T12:56:02Z</time></trkpt><trkpt lat="42.94003073251341" lon="11.286958392597898"><ele>73.0</ele><time>2026-03-29T12:56:03Z</time></trkpt><trkpt lat="42.93995034658851" lon="11.286757644678126"><ele>72.33333333333333</ele><time>2026-03-29T12:56:04Z</time></trkpt><trkpt lat="42.939877053917854" lon="11.286569492993047"><ele>71.66666666666667</ele><time>2026-03-29T12:56:05Z</time></trkpt><trkpt lat="42.93980098074916" lon="11.286384763936416"><ele>71.0</ele><time>2026-03-29T12:56:06Z</time></trkpt><trkpt lat="42.93972541613609" lon="11.28619821186242"><ele>70.66666666666667</ele><time>2026-03-29T12:56:07Z</time></trkpt><trkpt lat="42.939659609160685" lon="11.286000326335657"><ele>70.33333333333333</ele><time>2026-03-29T12:56:08Z</time></trkpt><trkpt lat="42.939589144530046" lon="11.285797931812935"><ele>70.0</ele><time>2026-03-29T12:56:09Z</time></trkpt><trkpt lat="42.93952037195046" lon="11.285589194759599"><ele>70.0</ele><time>2026-03-29T12:56:10Z</time></trkpt><trkpt lat="42.93945094513427" lon="11.28537416512269"><ele>70.0</ele><time>2026-03-29T12:56:11Z</time></trkpt><trkpt lat="42.939384520972716" lon="11.285161734650513"><ele>70.0</ele><time>2026-03-29T12:56:12Z</time></trkpt><trkpt lat="42.93932714004982" lon="11.284962742722344"><ele>70.0</ele><time>2026-03-29T12:56:13Z</time></trkpt><trkpt lat="42.93929045923695" lon="11.284765387927091"><ele>70.0</ele><time>2026-03-29T12:56:14Z</time></trkpt><trkpt lat="42.939264905077245" lon="11.284562868916453"><ele>70.0</ele><time>2026-03-29T12:56:15Z</time></trkpt><trkpt lat="42.93923333221707" lon="11.284353577139878"><ele>69.75</ele><time>2026-03-29T12:56:16Z</time></trkpt><trkpt lat="42.93918165933575" lon="11.284159928308737"><ele>69.5</ele><time>2026-03-29T12:56:17Z</time></trkpt><trkpt lat="42.939115278700456" lon="11.283994369944647"><ele>69.25</ele><time>2026-03-29T12:56:18Z</time></trkpt><trkpt lat="42.93902942064156" lon="11.28383914012094"><ele>69.0</ele><time>2026-03-29T12:56:19Z</time></trkpt><trkpt lat="42.93893976382717" lon="11.283683905423628"><ele>70.33333333333333</ele><time>2026-03-29T12:56:20Z</time></trkpt><trkpt lat="42.93884689884855" lon="11.283527629430822"><ele>71.66666666666666</ele><time>2026-03-29T12:56:21Z</time></trkpt><trkpt lat="42.93875097650359" lon="11.28336563195036"><ele>73.0</ele><time>2026-03-29T12:56:22Z</time></trkpt><trkpt lat="42.93865091573268" lon="11.28320660053031"><ele>73.25</ele><time>2026-03-29T12:56:23Z</time></trkpt><trkpt lat="42.93856230633112" lon="11.283063422830338"><ele>73.5</ele><time>2026-03-29T12:56:24Z</time></trkpt><trkpt lat="42.93847854338565" lon="11.282928237816593"><ele>73.75</ele><time>2026-03-29T12:56:25Z</time></trkpt><trkpt lat="42.93840079665397" lon="11.282803669195449"><ele>74.0</ele><time>2026-03-29T12:56:26Z</time></trkpt><trkpt lat="42.93831101493413" lon="11.282676568304897"><ele>74.0</ele><time>2026-03-29T12:56:27Z</time></trkpt><trkpt lat="42.93821353649579" lon="11.2825483057768"><ele>74.0</ele><time>2026-03-29T12:56:28Z</time></trkpt><trkpt lat="42.93810822402638" lon="11.282421386776011"><ele>74.0</ele><time>2026-03-29T12:56:29Z</time></trkpt><trkpt lat="42.93799972337619" lon="11.282287615283046"><ele>74.0</ele><time>2026-03-29T12:56:30Z</time></trkpt><trkpt lat="42.93788995221794" lon="11.282142291800504"><ele>73.66666666666667</ele><time>2026-03-29T12:56:31Z</time></trkpt><trkpt lat="42.937775244487426" lon="11.28199414329146"><ele>73.33333333333333</ele><time>2026-03-29T12:56:32Z</time></trkpt><trkpt lat="42.93765361473807" lon="11.281840359134415"><ele>73.0</ele><time>2026-03-29T12:56:33Z</time></trkpt><trkpt lat="42.937536301182384" lon="11.28168920294282"><ele>72.33333333333333</ele><time>2026-03-29T12:56:34Z</time></trkpt><trkpt lat="42.9374271673157" lon="11.281537597874102"><ele>71.66666666666667</ele><time>2026-03-29T12:56:34.999Z</time></trkpt><trkpt lat="42.93731129229968" lon="11.281388487692576"><ele>71.0</ele><time>2026-03-29T12:56:35.999Z</time></trkpt><trkpt lat="42.93719063198316" lon="11.281230471370485"><ele>70.0</ele><time>2026-03-29T12:56:36.999Z</time></trkpt><trkpt lat="42.937061795369836" lon="11.281077319225714"><ele>69.0</ele><time>2026-03-29T12:56:37.999Z</time></trkpt><trkpt lat="42.93694386490908" lon="11.280911986314075"><ele>68.0</ele><time>2026-03-29T12:56:38.999Z</time></trkpt><trkpt lat="42.93683170683973" lon="11.28074519106953"><ele>68.0</ele><time>2026-03-29T12:56:39.999Z</time></trkpt><trkpt lat="42.93673035919219" lon="11.280593121501683"><ele>68.0</ele><time>2026-03-29T12:56:40.999Z</time></trkpt><trkpt lat="42.9366663042985" lon="11.280426023490072"><ele>68.0</ele><time>2026-03-29T12:56:41.999Z</time></trkpt><trkpt lat="42.93660606905979" lon="11.280268051249811"><ele>68.0</ele><time>2026-03-29T12:56:42.999Z</time></trkpt><trkpt lat="42.936536912438484" lon="11.280079892361082"><ele>68.25</ele><time>2026-03-29T12:56:43.999Z</time></trkpt><trkpt lat="42.93650293228088" lon="11.279898218194267"><ele>68.5</ele><time>2026-03-29T12:56:44.999Z</time></trkpt><trkpt lat="42.93647820206701" lon="11.27970851706811"><ele>68.75</ele><time>2026-03-29T12:56:45.999Z</time></trkpt><trkpt lat="42.93644916269565" lon="11.279513821902666"><ele>69.0</ele><time>2026-03-29T12:56:46.999Z</time></trkpt><trkpt lat="42.93644349427911" lon="11.279309795767558"><ele>66.66666666666667</ele><time>2026-03-29T12:56:47.999Z</time></trkpt><trkpt lat="42.93640142931549" lon="11.27910757714976"><ele>64.33333333333334</ele><time>2026-03-29T12:56:48.999Z</time></trkpt><trkpt lat="42.93637634879434" lon="11.278899209655243"><ele>62.0</ele><time>2026-03-29T12:56:49.999Z</time></trkpt><trkpt lat="42.93633907717717" lon="11.278685309328583"><ele>60.66666666666667</ele><time>2026-03-29T12:56:50.999Z</time></trkpt><trkpt lat="42.9363036251898" lon="11.278463834501476"><ele>59.33333333333333</ele><time>2026-03-29T12:56:51.999Z</time></trkpt><trkpt lat="42.93627524769357" lon="11.278238805982276"><ele>58.0</ele><time>2026-03-29T12:56:52.999Z</time></trkpt><trkpt lat="42.93624344571033" lon="11.278016622625183"><ele>58.0</ele><time>2026-03-29T12:56:53.999Z</time></trkpt><trkpt lat="42.936211704882346" lon="11.277794090740176"><ele>58.0</ele><time>2026-03-29T12:56:54.999Z</time></trkpt><trkpt lat="42.93617467113593" lon="11.277570428508364"><ele>58.0</ele><time>2026-03-29T12:56:55.999Z</time></trkpt><trkpt lat="42.93613745099951" lon="11.277336356451466"><ele>57.75</ele><time>2026-03-29T12:56:56.999Z</time></trkpt><trkpt lat="42.936109660545796" lon="11.277119417413907"><ele>57.5</ele><time>2026-03-29T12:56:57.999Z</time></trkpt><trkpt lat="42.93608212057085" lon="11.276924177508457"><ele>57.25</ele><time>2026-03-29T12:56:58.999Z</time></trkpt><trkpt lat="42.93605645488104" lon="11.276741084049311"><ele>57.0</ele><time>2026-03-29T12:56:59.999Z</time></trkpt><trkpt lat="42.93603378910144" lon="11.276575461522176"><ele>56.6</ele><time>2026-03-29T12:57:00.999Z</time></trkpt><trkpt lat="42.93600948890292" lon="11.276421227556956"><ele>56.2</ele><time>2026-03-29T12:57:01.999Z</time></trkpt><trkpt lat="42.93599078416518" lon="11.27628730575351"><ele>55.8</ele><time>2026-03-29T12:57:02.999Z</time></trkpt><trkpt lat="42.93599064942289" lon="11.27616552821713"><ele>55.4</ele><time>2026-03-29T12:57:03.999Z</time></trkpt><trkpt lat="42.93600840736143" lon="11.276071543293712"><ele>55.0</ele><time>2026-03-29T12:57:04.999Z</time></trkpt><trkpt lat="42.93607259637091" lon="11.276007307541475"><ele>55.0</ele><time>2026-03-29T12:57:05.999Z</time></trkpt><trkpt lat="42.93610222615103" lon="11.275893856949653"><ele>55.0</ele><time>2026-03-29T12:57:06.999Z</time></trkpt><trkpt lat="42.93612142906799" lon="11.27575399504468"><ele>55.0</ele><time>2026-03-29T12:57:07.999Z</time></trkpt><trkpt lat="42.936130806633564" lon="11.2756207476352"><ele>55.0</ele><time>2026-03-29T12:57:08.999Z</time></trkpt><trkpt lat="42.936156709337375" lon="11.275487149745171"><ele>55.0</ele><time>2026-03-29T12:57:09.999Z</time></trkpt><trkpt lat="42.93618613008858" lon="11.27534849690405"><ele>56.25</ele><time>2026-03-29T12:57:10.999Z</time></trkpt><trkpt lat="42.93629482216383" lon="11.275232313646487"><ele>57.5</ele><time>2026-03-29T12:57:11.999Z</time></trkpt><trkpt lat="42.936378606459655" lon="11.275119612194617"><ele>58.75</ele><time>2026-03-29T12:57:12.999Z</time></trkpt><trkpt lat="42.93647693839075" lon="11.275015684282533"><ele>60.0</ele><time>2026-03-29T12:57:13.999Z</time></trkpt><trkpt lat="42.93658449382977" lon="11.274910502278813"><ele>60.0</ele><time>2026-03-29T12:57:14.999Z</time></trkpt><trkpt lat="42.93671134381395" lon="11.274820879571982"><ele>60.0</ele><time>2026-03-29T12:57:15.999Z</time></trkpt><trkpt lat="42.93684983169544" lon="11.274739724409473"><ele>60.0</ele><time>2026-03-29T12:57:16.999Z</time></trkpt><trkpt lat="42.93699674126576" lon="11.274656883260024"><ele>59.75</ele><time>2026-03-29T12:57:17.999Z</time></trkpt><trkpt lat="42.93712709312512" lon="11.274574519998952"><ele>59.5</ele><time>2026-03-29T12:57:18.999Z</time></trkpt><trkpt lat="42.937253061889585" lon="11.274494942930817"><ele>59.25</ele><time>2026-03-29T12:57:19.999Z</time></trkpt><trkpt lat="42.937388519085744" lon="11.274406788128022"><ele>59.0</ele><time>2026-03-29T12:57:20.999Z</time></trkpt><trkpt lat="42.93753218870902" lon="11.274314859043148"><ele>59.0</ele><time>2026-03-29T12:57:21.999Z</time></trkpt><trkpt lat="42.9376693031811" lon="11.274225097816823"><ele>59.0</ele><time>2026-03-29T12:57:22.999Z</time></trkpt><trkpt lat="42.937802784484" lon="11.274136094959648"><ele>59.0</ele><time>2026-03-29T12:57:23.999Z</time></trkpt><trkpt lat="42.93793166333456" lon="11.274029573395383"><ele>59.66666666666667</ele><time>2026-03-29T12:57:24.999Z</time></trkpt><trkpt lat="42.938055587706465" lon="11.273908160793148"><ele>60.33333333333333</ele><time>2026-03-29T12:57:25.999Z</time></trkpt><trkpt lat="42.93816420165797" lon="11.27375801924141"><ele>61.0</ele><time>2026-03-29T12:57:26.999Z</time></trkpt><trkpt lat="42.93825231979813" lon="11.273585778628734"><ele>61.0</ele><time>2026-03-29T12:57:27.999Z</time></trkpt><trkpt lat="42.938338208267" lon="11.273397662989781"><ele>61.0</ele><time>2026-03-29T12:57:28.999Z</time></trkpt><trkpt lat="42.93841016107722" lon="11.273199240682535"><ele>61.0</ele><time>2026-03-29T12:57:29.999Z</time></trkpt><trkpt lat="42.938474336838404" lon="11.273013967382763"><ele>61.199999999999996</ele><time>2026-03-29T12:57:30.999Z</time></trkpt><trkpt lat="42.938532860642425" lon="11.272871524365083"><ele>61.39999999999999</ele><time>2026-03-29T12:57:31.999Z</time></trkpt><trkpt lat="42.93862021856955" lon="11.27278845441628"><ele>61.6</ele><time>2026-03-29T12:57:32.999Z</time></trkpt><trkpt lat="42.93869677982275" lon="11.272699572643342"><ele>61.8</ele><time>2026-03-29T12:57:33.999Z</time></trkpt><trkpt lat="42.938804881314894" lon="11.272633885553626"><ele>62.0</ele><time>2026-03-29T12:57:34.999Z</time></trkpt><trkpt lat="42.938926758982284" lon="11.272580500071527"><ele>62.0</ele><time>2026-03-29T12:57:35.999Z</time></trkpt><trkpt lat="42.939062433263636" lon="11.27256024238205"><ele>62.0</ele><time>2026-03-29T12:57:37Z</time></trkpt><trkpt lat="42.93919251806238" lon="11.272600157366357"><ele>62.0</ele><time>2026-03-29T12:57:38Z</time></trkpt><trkpt lat="42.93930979894527" lon="11.272623781296296"><ele>62.0</ele><time>2026-03-29T12:57:39Z</time></trkpt><trkpt lat="42.93942148800371" lon="11.272698973371346"><ele>62.0</ele><time>2026-03-29T12:57:40Z</time></trkpt><trkpt lat="42.939530330689216" lon="11.272795819096682"><ele>62.0</ele><time>2026-03-29T12:57:41Z</time></trkpt><trkpt lat="42.93964919646108" lon="11.27290251517745"><ele>62.0</ele><time>2026-03-29T12:57:42Z</time></trkpt><trkpt lat="42.93977846375666" lon="11.273015152554343"><ele>62.0</ele><time>2026-03-29T12:57:43Z</time></trkpt><trkpt lat="42.93991752582911" lon="11.273134716950754"><ele>62.66666666666667</ele><time>2026-03-29T12:57:44Z</time></trkpt><trkpt lat="42.94005022212683" lon="11.273245532618375"><ele>63.33333333333333</ele><time>2026-03-29T12:57:45Z</time></trkpt><trkpt lat="42.94018073766662" lon="11.27335303907336"><ele>64.0</ele><time>2026-03-29T12:57:46Z</time></trkpt><trkpt lat="42.940315706777135" lon="11.273468763274769"><ele>64.0</ele><time>2026-03-29T12:57:47Z</time></trkpt><trkpt lat="42.94044977056813" lon="11.273584229574578"><ele>64.0</ele><time>2026-03-29T12:57:48Z</time></trkpt><trkpt lat="42.94058539465125" lon="11.273699106589666"><ele>64.0</ele><time>2026-03-29T12:57:49Z</time></trkpt><trkpt lat="42.940725765427686" lon="11.27381921760712"><ele>64.0</ele><time>2026-03-29T12:57:50Z</time></trkpt><trkpt lat="42.94086119414285" lon="11.2739373914008"><ele>64.0</ele><time>2026-03-29T12:57:51Z</time></trkpt><trkpt lat="42.9410009953062" lon="11.27405544309122"><ele>64.0</ele><time>2026-03-29T12:57:52Z</time></trkpt><trkpt lat="42.941139235486396" lon="11.274171144482995"><ele>66.5</ele><time>2026-03-29T12:57:53Z</time></trkpt><trkpt lat="42.941265076876796" lon="11.274278198161122"><ele>69.0</ele><time>2026-03-29T12:57:54Z</time></trkpt><trkpt lat="42.94137723971858" lon="11.274373612496445"><ele>71.5</ele><time>2026-03-29T12:57:55Z</time></trkpt><trkpt lat="42.941492720649414" lon="11.27447131057573"><ele>74.0</ele><time>2026-03-29T12:57:56Z</time></trkpt><trkpt lat="42.94159856755493" lon="11.274558728221185"><ele>74.0</ele><time>2026-03-29T12:57:57Z</time></trkpt><trkpt lat="42.94169065835024" lon="11.274640640670302"><ele>74.0</ele><time>2026-03-29T12:57:58Z</time></trkpt><trkpt lat="42.94177326483393" lon="11.274744452703462"><ele>74.0</ele><time>2026-03-29T12:57:59Z</time></trkpt><trkpt lat="42.941841691315425" lon="11.27487199787666"><ele>74.0</ele><time>2026-03-29T12:58:00Z</time></trkpt><trkpt lat="42.941892603970125" lon="11.275019430006541"><ele>76.25</ele><time>2026-03-29T12:58:01Z</time></trkpt><trkpt lat="42.9419198454625" lon="11.27518648725679"><ele>78.5</ele><time>2026-03-29T12:58:02Z</time></trkpt><trkpt lat="42.9419244113575" lon="11.275370313690008"><ele>80.75</ele><time>2026-03-29T12:58:03Z</time></trkpt><trkpt lat="42.94191823542109" lon="11.275556162383117"><ele>83.0</ele><time>2026-03-29T12:58:04Z</time></trkpt><trkpt lat="42.941912969057" lon="11.275720515600346"><ele>83.2</ele><time>2026-03-29T12:58:05Z</time></trkpt><trkpt lat="42.941930184296275" lon="11.275860547083989"><ele>83.4</ele><time>2026-03-29T12:58:06Z</time></trkpt><trkpt lat="42.94197606808819" lon="11.27598959675294"><ele>83.60000000000001</ele><time>2026-03-29T12:58:07Z</time></trkpt><trkpt lat="42.942054108594334" lon="11.27609464265978"><ele>83.80000000000001</ele><time>2026-03-29T12:58:08Z</time></trkpt><trkpt lat="42.9421519913723" lon="11.276166854848757"><ele>84.0</ele><time>2026-03-29T12:58:09Z</time></trkpt><trkpt lat="42.942259727227174" lon="11.276180569875484"><ele>84.0</ele><time>2026-03-29T12:58:10Z</time></trkpt><trkpt lat="42.9423687184908" lon="11.276147168268013"><ele>84.0</ele><time>2026-03-29T12:58:11Z</time></trkpt><trkpt lat="42.94246771883294" lon="11.27607452966393"><ele>84.0</ele><time>2026-03-29T12:58:12Z</time></trkpt><trkpt lat="42.94254441570075" lon="11.27597055388686"><ele>84.0</ele><time>2026-03-29T12:58:13Z</time></trkpt><trkpt lat="42.94260173413303" lon="11.27584242709777"><ele>84.0</ele><time>2026-03-29T12:58:14Z</time></trkpt><trkpt lat="42.94265831007124" lon="11.27569089897528"><ele>86.0</ele><time>2026-03-29T12:58:15Z</time></trkpt><trkpt lat="42.942742838012634" lon="11.275529584508114"><ele>88.0</ele><time>2026-03-29T12:58:16Z</time></trkpt><trkpt lat="42.94282118682838" lon="11.275360351013797"><ele>90.0</ele><time>2026-03-29T12:58:17Z</time></trkpt><trkpt lat="42.942888231614106" lon="11.27521243127341"><ele>92.0</ele><time>2026-03-29T12:58:18Z</time></trkpt><trkpt lat="42.94293901763396" lon="11.275099776526938"><ele>92.0</ele><time>2026-03-29T12:58:19Z</time></trkpt><trkpt lat="42.94295982095764" lon="11.275011418685665"><ele>92.0</ele><time>2026-03-29T12:58:20Z</time></trkpt><trkpt lat="42.94300034820837" lon="11.274944777579297"><ele>92.0</ele><time>2026-03-29T12:58:23Z</time></trkpt><trkpt lat="42.94289814312601" lon="11.274851784189627"><ele>92.0</ele><time>2026-03-29T12:58:24Z</time></trkpt><trkpt lat="42.94283667013017" lon="11.274828472023492"><ele>92.0</ele><time>2026-03-29T12:58:25Z</time></trkpt><trkpt lat="42.942761041657256" lon="11.274804765058612"><ele>92.0</ele><time>2026-03-29T12:58:26Z</time></trkpt><trkpt lat="42.94267123000355" lon="11.274766609698274"><ele>91.5</ele><time>2026-03-29T12:58:27Z</time></trkpt><trkpt lat="42.94257147002764" lon="11.27471928048918"><ele>91.0</ele><time>2026-03-29T12:58:28Z</time></trkpt><trkpt lat="42.94245852353614" lon="11.274663164335523"><ele>90.5</ele><time>2026-03-29T12:58:29Z</time></trkpt><trkpt lat="42.942331067978934" lon="11.274600780567425"><ele>90.0</ele><time>2026-03-29T12:58:30Z</time></trkpt><trkpt lat="42.94219399448362" lon="11.274531854172197"><ele>88.5</ele><time>2026-03-29T12:58:31Z</time></trkpt><trkpt lat="42.9420786077094" lon="11.274455957919244"><ele>87.0</ele><time>2026-03-29T12:58:32Z</time></trkpt><trkpt lat="42.941973757708645" lon="11.274385319502299"><ele>85.5</ele><time>2026-03-29T12:58:33Z</time></trkpt><trkpt lat="42.94186917214824" lon="11.274310601227196"><ele>84.0</ele><time>2026-03-29T12:58:34Z</time></trkpt><trkpt lat="42.94175696087641" lon="11.274224549938292"><ele>81.5</ele><time>2026-03-29T12:58:35Z</time></trkpt><trkpt lat="42.94163912393631" lon="11.274124887100335"><ele>79.0</ele><time>2026-03-29T12:58:36Z</time></trkpt><trkpt lat="42.94151446942046" lon="11.274012974654168"><ele>76.5</ele><time>2026-03-29T12:58:36.999Z</time></trkpt><trkpt lat="42.941379090987134" lon="11.273903941141104"><ele>74.0</ele><time>2026-03-29T12:58:37.999Z</time></trkpt><trkpt lat="42.94124463378332" lon="11.273797236844507"><ele>72.0</ele><time>2026-03-29T12:58:38.999Z</time></trkpt><trkpt lat="42.94109915167443" lon="11.273686993524466"><ele>70.0</ele><time>2026-03-29T12:58:39.999Z</time></trkpt><trkpt lat="42.94093916023998" lon="11.27356298669095"><ele>68.0</ele><time>2026-03-29T12:58:40.999Z</time></trkpt><trkpt lat="42.940780022110864" lon="11.273438816195501"><ele>66.66666666666667</ele><time>2026-03-29T12:58:41.999Z</time></trkpt><trkpt lat="42.94062346932241" lon="11.27331841676441"><ele>65.33333333333333</ele><time>2026-03-29T12:58:42.999Z</time></trkpt><trkpt lat="42.94045825679277" lon="11.273184855640883"><ele>64.0</ele><time>2026-03-29T12:58:43.999Z</time></trkpt><trkpt lat="42.940287252462866" lon="11.273041166200729"><ele>63.33333333333333</ele><time>2026-03-29T12:58:44.999Z</time></trkpt><trkpt lat="42.94010790674245" lon="11.272892044565774"><ele>62.66666666666667</ele><time>2026-03-29T12:58:45.999Z</time></trkpt><trkpt lat="42.939922915869346" lon="11.272739193190437"><ele>62.0</ele><time>2026-03-29T12:58:46.999Z</time></trkpt><trkpt lat="42.93974262503121" lon="11.272589328901445"><ele>62.0</ele><time>2026-03-29T12:58:47.999Z</time></trkpt><trkpt lat="42.93956389316322" lon="11.272436225430601"><ele>62.0</ele><time>2026-03-29T12:58:48.999Z</time></trkpt><trkpt lat="42.93938879610134" lon="11.272289186580597"><ele>62.0</ele><time>2026-03-29T12:58:49.999Z</time></trkpt><trkpt lat="42.939205489585476" lon="11.27213792410453"><ele>62.0</ele><time>2026-03-29T12:58:50.999Z</time></trkpt><trkpt lat="42.93901845616992" lon="11.271983311968084"><ele>62.0</ele><time>2026-03-29T12:58:51.999Z</time></trkpt><trkpt lat="42.93882461175107" lon="11.271820911916898"><ele>62.0</ele><time>2026-03-29T12:58:52.999Z</time></trkpt><trkpt lat="42.93862905454788" lon="11.2716558085807"><ele>62.0</ele><time>2026-03-29T12:58:53.999Z</time></trkpt><trkpt lat="42.93842649721404" lon="11.27148729980834"><ele>62.0</ele><time>2026-03-29T12:58:54.999Z</time></trkpt><trkpt lat="42.938221140760675" lon="11.27131397081352"><ele>62.0</ele><time>2026-03-29T12:58:55.999Z</time></trkpt><trkpt lat="42.93801063821559" lon="11.27113558596878"><ele>62.0</ele><time>2026-03-29T12:58:56.999Z</time></trkpt><trkpt lat="42.9377970850107" lon="11.27095536980724"><ele>62.0</ele><time>2026-03-29T12:58:57.999Z</time></trkpt><trkpt lat="42.937578168168415" lon="11.270773113805372"><ele>62.0</ele><time>2026-03-29T12:58:58.999Z</time></trkpt><trkpt lat="42.93735488543858" lon="11.27058974949733"><ele>63.5</ele><time>2026-03-29T12:58:59.999Z</time></trkpt><trkpt lat="42.937137268202086" lon="11.270405656286954"><ele>65.0</ele><time>2026-03-29T12:59:00.999Z</time></trkpt><trkpt lat="42.93692703462062" lon="11.270230350800864"><ele>64.5</ele><time>2026-03-29T12:59:01.999Z</time></trkpt><trkpt lat="42.93671775077103" lon="11.270053148815506"><ele>64.0</ele><time>2026-03-29T12:59:02.999Z</time></trkpt><trkpt lat="42.93650957320135" lon="11.269874377193812"><ele>65.0</ele><time>2026-03-29T12:59:03.999Z</time></trkpt><trkpt lat="42.93629009073331" lon="11.269688987955876"><ele>66.0</ele><time>2026-03-29T12:59:04.999Z</time></trkpt><trkpt lat="42.93607169941893" lon="11.269505331414349"><ele>65.5</ele><time>2026-03-29T12:59:05.999Z</time></trkpt><trkpt lat="42.935849368581415" lon="11.269318283270156"><ele>65.0</ele><time>2026-03-29T12:59:06.999Z</time></trkpt><trkpt lat="42.93562520886684" lon="11.26913021910743"><ele>66.0</ele><time>2026-03-29T12:59:07.999Z</time></trkpt><trkpt lat="42.93539952799387" lon="11.26894077410683"><ele>67.0</ele><time>2026-03-29T12:59:08.999Z</time></trkpt><trkpt lat="42.93517522946813" lon="11.268749784193469"><ele>66.0</ele><time>2026-03-29T12:59:09.999Z</time></trkpt><trkpt lat="42.93494794786876" lon="11.268557710697431"><ele>65.0</ele><time>2026-03-29T12:59:10.999Z</time></trkpt><trkpt lat="42.93471705143343" lon="11.268365665716841"><ele>65.0</ele><time>2026-03-29T12:59:11.999Z</time></trkpt><trkpt lat="42.93449204762816" lon="11.268180613494229"><ele>65.0</ele><time>2026-03-29T12:59:12.999Z</time></trkpt><trkpt lat="42.93428130041734" lon="11.268004372340002"><ele>64.0</ele><time>2026-03-29T12:59:13.999Z</time></trkpt><trkpt lat="42.93406377007383" lon="11.26781846828097"><ele>63.0</ele><time>2026-03-29T12:59:14.999Z</time></trkpt><trkpt lat="42.933869133059694" lon="11.267633688749148"><ele>63.0</ele><time>2026-03-29T12:59:15.999Z</time></trkpt><trkpt lat="42.93363082995933" lon="11.267441144516193"><ele>63.0</ele><time>2026-03-29T12:59:16.999Z</time></trkpt><trkpt lat="42.93341912728297" lon="11.267275173297662"><ele>61.5</ele><time>2026-03-29T12:59:17.999Z</time></trkpt><trkpt lat="42.93320999192056" lon="11.267095118883677"><ele>60.0</ele><time>2026-03-29T12:59:18.999Z</time></trkpt><trkpt lat="42.9329967224021" lon="11.266921383774394"><ele>60.0</ele><time>2026-03-29T12:59:19.999Z</time></trkpt><trkpt lat="42.932784719496816" lon="11.266753000500836"><ele>60.0</ele><time>2026-03-29T12:59:20.999Z</time></trkpt><trkpt lat="42.9325792064818" lon="11.266606605370244"><ele>60.0</ele><time>2026-03-29T12:59:21.999Z</time></trkpt><trkpt lat="42.932377312796" lon="11.266480736851179"><ele>60.0</ele><time>2026-03-29T12:59:22.999Z</time></trkpt><trkpt lat="42.9321854224216" lon="11.266369270153191"><ele>60.0</ele><time>2026-03-29T12:59:23.999Z</time></trkpt><trkpt lat="42.93198335387953" lon="11.266267924937225"><ele>60.33333333333333</ele><time>2026-03-29T12:59:24.999Z</time></trkpt><trkpt lat="42.931771317105515" lon="11.266180513868553"><ele>60.666666666666664</ele><time>2026-03-29T12:59:25.999Z</time></trkpt><trkpt lat="42.93155460178754" lon="11.266107673577496"><ele>61.0</ele><time>2026-03-29T12:59:26.999Z</time></trkpt><trkpt lat="42.931338741593564" lon="11.266038469788679"><ele>61.0</ele><time>2026-03-29T12:59:27.999Z</time></trkpt><trkpt lat="42.931120243042876" lon="11.26597862442127"><ele>61.0</ele><time>2026-03-29T12:59:28.999Z</time></trkpt><trkpt lat="42.93089813207081" lon="11.2659241417316"><ele>61.0</ele><time>2026-03-29T12:59:29.999Z</time></trkpt><trkpt lat="42.93067673608685" lon="11.265869800657514"><ele>60.5</ele><time>2026-03-29T12:59:30.999Z</time></trkpt><trkpt lat="42.93045044749979" lon="11.265815934474473"><ele>60.0</ele><time>2026-03-29T12:59:31.999Z</time></trkpt><trkpt lat="42.930220662230425" lon="11.265763031734743"><ele>59.0</ele><time>2026-03-29T12:59:32.999Z</time></trkpt><trkpt lat="42.92998823544109" lon="11.265708471610683"><ele>58.0</ele><time>2026-03-29T12:59:33.999Z</time></trkpt><trkpt lat="42.929752619957966" lon="11.265651305954055"><ele>60.5</ele><time>2026-03-29T12:59:34.999Z</time></trkpt><trkpt lat="42.929517404846344" lon="11.26559669562321"><ele>63.0</ele><time>2026-03-29T12:59:35.999Z</time></trkpt><trkpt lat="42.92927817541307" lon="11.265542783317283"><ele>63.5</ele><time>2026-03-29T12:59:36.999Z</time></trkpt><trkpt lat="42.929049823676166" lon="11.265492434911218"><ele>64.0</ele><time>2026-03-29T12:59:37.999Z</time></trkpt><trkpt lat="42.92882841651304" lon="11.265437289202112"><ele>64.0</ele><time>2026-03-29T12:59:38.999Z</time></trkpt><trkpt lat="42.92860261904135" lon="11.2653855874848"><ele>64.0</ele><time>2026-03-29T12:59:39.999Z</time></trkpt><trkpt lat="42.92838124157421" lon="11.265330852808546"><ele>63.0</ele><time>2026-03-29T12:59:40.999Z</time></trkpt><trkpt lat="42.92816125917501" lon="11.26527988026793"><ele>62.0</ele><time>2026-03-29T12:59:41.999Z</time></trkpt><trkpt lat="42.92793228138521" lon="11.265225699274238"><ele>62.0</ele><time>2026-03-29T12:59:43Z</time></trkpt><trkpt lat="42.92771119206558" lon="11.265173216743538"><ele>62.0</ele><time>2026-03-29T12:59:44Z</time></trkpt><trkpt lat="42.927487931852085" lon="11.265121593790811"><ele>60.0</ele><time>2026-03-29T12:59:45Z</time></trkpt><trkpt lat="42.927264027479275" lon="11.265071801624089"><ele>58.0</ele><time>2026-03-29T12:59:46Z</time></trkpt><trkpt lat="42.9270352687175" lon="11.26501859032816"><ele>58.0</ele><time>2026-03-29T12:59:47Z</time></trkpt><trkpt lat="42.92681029883656" lon="11.264962730820292"><ele>58.0</ele><time>2026-03-29T12:59:48Z</time></trkpt><trkpt lat="42.92658246772131" lon="11.264904455944068"><ele>57.5</ele><time>2026-03-29T12:59:49Z</time></trkpt><trkpt lat="42.926346981964485" lon="11.26484440880013"><ele>57.0</ele><time>2026-03-29T12:59:50Z</time></trkpt><trkpt lat="42.92611324600743" lon="11.264790263934966"><ele>60.0</ele><time>2026-03-29T12:59:51Z</time></trkpt><trkpt lat="42.9258757603565" lon="11.264735478854895"><ele>63.0</ele><time>2026-03-29T12:59:52Z</time></trkpt><trkpt lat="42.92563970605482" lon="11.264672352807112"><ele>63.0</ele><time>2026-03-29T12:59:53Z</time></trkpt><trkpt lat="42.92540335876003" lon="11.264600225471602"><ele>63.0</ele><time>2026-03-29T12:59:54Z</time></trkpt><trkpt lat="42.925171894133925" lon="11.264517644866642"><ele>62.5</ele><time>2026-03-29T12:59:55Z</time></trkpt><trkpt lat="42.92493838879463" lon="11.264425187879626"><ele>62.0</ele><time>2026-03-29T12:59:56Z</time></trkpt><trkpt lat="42.92470699362333" lon="11.26431696270968"><ele>62.0</ele><time>2026-03-29T12:59:57Z</time></trkpt><trkpt lat="42.92448032707669" lon="11.264187211413748"><ele>62.0</ele><time>2026-03-29T12:59:58Z</time></trkpt><trkpt lat="42.92425946467247" lon="11.264040222745264"><ele>61.0</ele><time>2026-03-29T12:59:59Z</time></trkpt><trkpt lat="42.924058193027236" lon="11.263887980181654"><ele>60.0</ele><time>2026-03-29T13:00:00Z</time></trkpt><trkpt lat="42.92385968788331" lon="11.263717242364288"><ele>60.0</ele><time>2026-03-29T13:00:01Z</time></trkpt><trkpt lat="42.92366254639559" lon="11.263534630813622"><ele>60.0</ele><time>2026-03-29T13:00:02Z</time></trkpt><trkpt lat="42.92346604824088" lon="11.263340507876206"><ele>58.0</ele><time>2026-03-29T13:00:03Z</time></trkpt><trkpt lat="42.923269716726686" lon="11.263140520173048"><ele>56.0</ele><time>2026-03-29T13:00:04Z</time></trkpt><trkpt lat="42.923072334301175" lon="11.262935719063295"><ele>56.0</ele><time>2026-03-29T13:00:05Z</time></trkpt><trkpt lat="42.92287268621433" lon="11.262726950919939"><ele>56.0</ele><time>2026-03-29T13:00:06Z</time></trkpt><trkpt lat="42.9226695139093" lon="11.26251377735266"><ele>56.0</ele><time>2026-03-29T13:00:07Z</time></trkpt><trkpt lat="42.92246437743617" lon="11.26229858556918"><ele>56.0</ele><time>2026-03-29T13:00:08Z</time></trkpt><trkpt lat="42.92225845548683" lon="11.262083023840695"><ele>56.0</ele><time>2026-03-29T13:00:09Z</time></trkpt><trkpt lat="42.92205099133881" lon="11.261865145725713"><ele>56.0</ele><time>2026-03-29T13:00:10Z</time></trkpt><trkpt lat="42.92184554073823" lon="11.261650492707517"><ele>56.0</ele><time>2026-03-29T13:00:11Z</time></trkpt><trkpt lat="42.921645890775984" lon="11.26144219724217"><ele>56.0</ele><time>2026-03-29T13:00:12Z</time></trkpt><trkpt lat="42.921449028686695" lon="11.261236657496678"><ele>56.0</ele><time>2026-03-29T13:00:13Z</time></trkpt><trkpt lat="42.92125353113326" lon="11.26103089271124"><ele>56.0</ele><time>2026-03-29T13:00:14Z</time></trkpt><trkpt lat="42.92105991342734" lon="11.260828151477643"><ele>56.5</ele><time>2026-03-29T13:00:15Z</time></trkpt><trkpt lat="42.92086465736729" lon="11.260624753664612"><ele>57.0</ele><time>2026-03-29T13:00:16Z</time></trkpt><trkpt lat="42.920671024185076" lon="11.26041929107483"><ele>57.0</ele><time>2026-03-29T13:00:17Z</time></trkpt><trkpt lat="42.92047393270925" lon="11.260210552482082"><ele>57.0</ele><time>2026-03-29T13:00:18Z</time></trkpt><trkpt lat="42.92027411908056" lon="11.260002924312921"><ele>57.0</ele><time>2026-03-29T13:00:19Z</time></trkpt><trkpt lat="42.920071482547975" lon="11.259792279861575"><ele>57.0</ele><time>2026-03-29T13:00:20Z</time></trkpt><trkpt lat="42.9198688493203" lon="11.259577952573384"><ele>57.5</ele><time>2026-03-29T13:00:21Z</time></trkpt><trkpt lat="42.91966481032312" lon="11.259363721064217"><ele>58.0</ele><time>2026-03-29T13:00:22Z</time></trkpt><trkpt lat="42.91945794763109" lon="11.259148680623545"><ele>58.5</ele><time>2026-03-29T13:00:23Z</time></trkpt><trkpt lat="42.91924902310542" lon="11.258934505186783"><ele>59.0</ele><time>2026-03-29T13:00:24Z</time></trkpt><trkpt lat="42.91903886644433" lon="11.258720312408219"><ele>59.0</ele><time>2026-03-29T13:00:25Z</time></trkpt><trkpt lat="42.91883059242675" lon="11.258502461398372"><ele>59.0</ele><time>2026-03-29T13:00:26Z</time></trkpt><trkpt lat="42.918621725692674" lon="11.258281470827544"><ele>59.0</ele><time>2026-03-29T13:00:27Z</time></trkpt><trkpt lat="42.91841053408911" lon="11.258058102143513"><ele>59.0</ele><time>2026-03-29T13:00:28Z</time></trkpt><trkpt lat="42.918198649605934" lon="11.257835208750567"><ele>59.5</ele><time>2026-03-29T13:00:29Z</time></trkpt><trkpt lat="42.9179878985628" lon="11.25761233663344"><ele>60.0</ele><time>2026-03-29T13:00:30Z</time></trkpt><trkpt lat="42.91777745997108" lon="11.257390306087641"><ele>61.0</ele><time>2026-03-29T13:00:31Z</time></trkpt><trkpt lat="42.91757474735483" lon="11.25717818068065"><ele>62.0</ele><time>2026-03-29T13:00:32Z</time></trkpt><trkpt lat="42.91737926399831" lon="11.256975264658815"><ele>64.0</ele><time>2026-03-29T13:00:33Z</time></trkpt><trkpt lat="42.917184196663136" lon="11.256771512746155"><ele>66.0</ele><time>2026-03-29T13:00:34Z</time></trkpt><trkpt lat="42.916991371144796" lon="11.256568455954563"><ele>68.0</ele><time>2026-03-29T13:00:35Z</time></trkpt><trkpt lat="42.91679724416813" lon="11.256364601378984"><ele>70.0</ele><time>2026-03-29T13:00:36Z</time></trkpt><trkpt lat="42.91660159104139" lon="11.256164551564073"><ele>70.0</ele><time>2026-03-29T13:00:37Z</time></trkpt><trkpt lat="42.91640350617203" lon="11.255969498086154"><ele>70.0</ele><time>2026-03-29T13:00:38Z</time></trkpt><trkpt lat="42.916201951208414" lon="11.255782475860467"><ele>70.0</ele><time>2026-03-29T13:00:39Z</time></trkpt><trkpt lat="42.915994163767486" lon="11.25560607671832"><ele>70.0</ele><time>2026-03-29T13:00:40Z</time></trkpt><trkpt lat="42.91578788689452" lon="11.255444768056515"><ele>70.0</ele><time>2026-03-29T13:00:41Z</time></trkpt><trkpt lat="42.91557548530688" lon="11.25528896556103"><ele>70.0</ele><time>2026-03-29T13:00:42Z</time></trkpt><trkpt lat="42.91535113307029" lon="11.255145425362144"><ele>70.0</ele><time>2026-03-29T13:00:43Z</time></trkpt><trkpt lat="42.915120830455315" lon="11.255012548107642"><ele>70.0</ele><time>2026-03-29T13:00:44Z</time></trkpt><trkpt lat="42.91488635943867" lon="11.254876187566783"><ele>69.0</ele><time>2026-03-29T13:00:44.999Z</time></trkpt><trkpt lat="42.914650158766115" lon="11.254744698799925"><ele>68.0</ele><time>2026-03-29T13:00:45.999Z</time></trkpt><trkpt lat="42.914411872359885" lon="11.25461227142136"><ele>69.0</ele><time>2026-03-29T13:00:46.999Z</time></trkpt><trkpt lat="42.91417649773432" lon="11.25447529519804"><ele>70.0</ele><time>2026-03-29T13:00:47.999Z</time></trkpt><trkpt lat="42.91393853067985" lon="11.254334434306188"><ele>70.0</ele><time>2026-03-29T13:00:48.999Z</time></trkpt><trkpt lat="42.913702843631704" lon="11.254193371720502"><ele>70.0</ele><time>2026-03-29T13:00:49.999Z</time></trkpt><trkpt lat="42.9134639406573" lon="11.254045542709212"><ele>71.5</ele><time>2026-03-29T13:00:50.999Z</time></trkpt><trkpt lat="42.91323082910288" lon="11.253889575338597"><ele>73.0</ele><time>2026-03-29T13:00:51.999Z</time></trkpt><trkpt lat="42.91299884790454" lon="11.253715884918769"><ele>73.0</ele><time>2026-03-29T13:00:52.999Z</time></trkpt><trkpt lat="42.912773981245195" lon="11.253526269837792"><ele>73.0</ele><time>2026-03-29T13:00:53.999Z</time></trkpt><trkpt lat="42.912561949217285" lon="11.253314018682289"><ele>70.5</ele><time>2026-03-29T13:00:54.999Z</time></trkpt><trkpt lat="42.912356510268864" lon="11.253082279488904"><ele>68.0</ele><time>2026-03-29T13:00:55.999Z</time></trkpt><trkpt lat="42.912168423759546" lon="11.252848125356389"><ele>68.0</ele><time>2026-03-29T13:00:56.999Z</time></trkpt><trkpt lat="42.91198916203251" lon="11.25261207262928"><ele>68.0</ele><time>2026-03-29T13:00:57.999Z</time></trkpt><trkpt lat="42.91180978827519" lon="11.2523750238027"><ele>65.5</ele><time>2026-03-29T13:00:58.999Z</time></trkpt><trkpt lat="42.91162562007538" lon="11.252141138245898"><ele>63.0</ele><time>2026-03-29T13:00:59.999Z</time></trkpt><trkpt lat="42.911438740898554" lon="11.251905912685395"><ele>63.0</ele><time>2026-03-29T13:01:00.999Z</time></trkpt><trkpt lat="42.91125448897561" lon="11.251674148294944"><ele>63.0</ele><time>2026-03-29T13:01:01.999Z</time></trkpt><trkpt lat="42.9110707014238" lon="11.251441314795638"><ele>64.0</ele><time>2026-03-29T13:01:02.999Z</time></trkpt><trkpt lat="42.91088485639063" lon="11.251208055877676"><ele>65.0</ele><time>2026-03-29T13:01:03.999Z</time></trkpt><trkpt lat="42.91069925265569" lon="11.250974065369293"><ele>65.0</ele><time>2026-03-29T13:01:04.999Z</time></trkpt><trkpt lat="42.91051135972844" lon="11.250734694383231"><ele>65.0</ele><time>2026-03-29T13:01:05.999Z</time></trkpt><trkpt lat="42.91032193816498" lon="11.250492677823713"><ele>66.5</ele><time>2026-03-29T13:01:06.999Z</time></trkpt><trkpt lat="42.91013339423736" lon="11.25025223482365"><ele>68.0</ele><time>2026-03-29T13:01:07.999Z</time></trkpt><trkpt lat="42.90994209571509" lon="11.250009362872305"><ele>72.0</ele><time>2026-03-29T13:01:08.999Z</time></trkpt><trkpt lat="42.90975555585557" lon="11.249764154163502"><ele>76.0</ele><time>2026-03-29T13:01:09.999Z</time></trkpt><trkpt lat="42.909564514973006" lon="11.249527099386194"><ele>76.0</ele><time>2026-03-29T13:01:10.999Z</time></trkpt><trkpt lat="42.90937526636643" lon="11.24928559503675"><ele>76.0</ele><time>2026-03-29T13:01:11.999Z</time></trkpt><trkpt lat="42.909184163883126" lon="11.249047347449258"><ele>73.0</ele><time>2026-03-29T13:01:12.999Z</time></trkpt><trkpt lat="42.90899371812675" lon="11.248806591564419"><ele>70.0</ele><time>2026-03-29T13:01:13.999Z</time></trkpt><trkpt lat="42.90880818608387" lon="11.248563701845288"><ele>70.0</ele><time>2026-03-29T13:01:14.999Z</time></trkpt><trkpt lat="42.90861924430024" lon="11.2483226679988"><ele>70.0</ele><time>2026-03-29T13:01:15.999Z</time></trkpt><trkpt lat="42.90842976138802" lon="11.248081189417105"><ele>70.0</ele><time>2026-03-29T13:01:16.999Z</time></trkpt><trkpt lat="42.90823979567479" lon="11.24784322636091"><ele>70.0</ele><time>2026-03-29T13:01:17.999Z</time></trkpt><trkpt lat="42.90804935759579" lon="11.247604088349245"><ele>70.0</ele><time>2026-03-29T13:01:18.999Z</time></trkpt><trkpt lat="42.9078596167025" lon="11.247362730630467"><ele>70.0</ele><time>2026-03-29T13:01:19.999Z</time></trkpt><trkpt lat="42.90766999167197" lon="11.247122429950938"><ele>70.0</ele><time>2026-03-29T13:01:20.999Z</time></trkpt><trkpt lat="42.90747909549055" lon="11.246882478159781"><ele>70.0</ele><time>2026-03-29T13:01:21.999Z</time></trkpt><trkpt lat="42.9072903045921" lon="11.246641822399244"><ele>72.0</ele><time>2026-03-29T13:01:22.999Z</time></trkpt><trkpt lat="42.90710252167532" lon="11.24640119824371"><ele>74.0</ele><time>2026-03-29T13:01:23.999Z</time></trkpt><trkpt lat="42.90691199555931" lon="11.246161653101096"><ele>72.5</ele><time>2026-03-29T13:01:24.999Z</time></trkpt><trkpt lat="42.90672122674506" lon="11.245918697324145"><ele>71.0</ele><time>2026-03-29T13:01:25.999Z</time></trkpt><trkpt lat="42.906531256600715" lon="11.24567595936488"><ele>72.0</ele><time>2026-03-29T13:01:26.999Z</time></trkpt><trkpt lat="42.906340804058786" lon="11.245433833718822"><ele>73.0</ele><time>2026-03-29T13:01:27.999Z</time></trkpt><trkpt lat="42.90615017825307" lon="11.245191402128292"><ele>73.0</ele><time>2026-03-29T13:01:28.999Z</time></trkpt><trkpt lat="42.90595745840747" lon="11.244949735458873"><ele>73.0</ele><time>2026-03-29T13:01:29.999Z</time></trkpt><trkpt lat="42.90576576961649" lon="11.244706027473354"><ele>73.0</ele><time>2026-03-29T13:01:30.999Z</time></trkpt><trkpt lat="42.905576466086394" lon="11.244462553183801"><ele>73.0</ele><time>2026-03-29T13:01:31.999Z</time></trkpt><trkpt lat="42.90538664784604" lon="11.244219590887429"><ele>73.0</ele><time>2026-03-29T13:01:32.999Z</time></trkpt><trkpt lat="42.905199495919206" lon="11.243974220588267"><ele>73.0</ele><time>2026-03-29T13:01:33.999Z</time></trkpt><trkpt lat="42.905010594493206" lon="11.243733747712474"><ele>76.5</ele><time>2026-03-29T13:01:34.999Z</time></trkpt><trkpt lat="42.90482157183777" lon="11.243492821341643"><ele>80.0</ele><time>2026-03-29T13:01:35.999Z</time></trkpt><trkpt lat="42.90463037199751" lon="11.243251075408184"><ele>79.5</ele><time>2026-03-29T13:01:36.999Z</time></trkpt><trkpt lat="42.90443868635685" lon="11.243011245650905"><ele>79.0</ele><time>2026-03-29T13:01:37.999Z</time></trkpt><trkpt lat="42.90424081705155" lon="11.242774813486097"><ele>79.0</ele><time>2026-03-29T13:01:38.999Z</time></trkpt><trkpt lat="42.9040451280972" lon="11.242551993888364"><ele>79.0</ele><time>2026-03-29T13:01:39.999Z</time></trkpt><trkpt lat="42.90385339954979" lon="11.242349462621684"><ele>81.0</ele><time>2026-03-29T13:01:40.999Z</time></trkpt><trkpt lat="42.903660572055635" lon="11.242155683388377"><ele>83.0</ele><time>2026-03-29T13:01:41.999Z</time></trkpt><trkpt lat="42.9034581401946" lon="11.241977902803292"><ele>82.0</ele><time>2026-03-29T13:01:42.999Z</time></trkpt><trkpt lat="42.9032495437759" lon="11.24180803919205"><ele>81.0</ele><time>2026-03-29T13:01:43.999Z</time></trkpt><trkpt lat="42.90303057062785" lon="11.241649762009926"><ele>81.0</ele><time>2026-03-29T13:01:44.999Z</time></trkpt><trkpt lat="42.90280272537684" lon="11.241505183714501"><ele>81.0</ele><time>2026-03-29T13:01:45.999Z</time></trkpt><trkpt lat="42.90257318683059" lon="11.24137475734583"><ele>80.5</ele><time>2026-03-29T13:01:46.999Z</time></trkpt><trkpt lat="42.90233590534972" lon="11.241253413709162"><ele>80.0</ele><time>2026-03-29T13:01:47.999Z</time></trkpt><trkpt lat="42.90209084806049" lon="11.241140161053043"><ele>80.0</ele><time>2026-03-29T13:01:49Z</time></trkpt><trkpt lat="42.901843653976535" lon="11.24103687262238"><ele>80.0</ele><time>2026-03-29T13:01:50Z</time></trkpt><trkpt lat="42.901596850663765" lon="11.240938863164017"><ele>80.0</ele><time>2026-03-29T13:01:51Z</time></trkpt><trkpt lat="42.90135074440642" lon="11.240845606889478"><ele>80.0</ele><time>2026-03-29T13:01:52Z</time></trkpt><trkpt lat="42.90110284615919" lon="11.240748500168719"><ele>80.0</ele><time>2026-03-29T13:01:53Z</time></trkpt><trkpt lat="42.90086688260851" lon="11.240658099039427"><ele>80.0</ele><time>2026-03-29T13:01:54Z</time></trkpt><trkpt lat="42.900635219831734" lon="11.240568667243918"><ele>83.0</ele><time>2026-03-29T13:01:55Z</time></trkpt><trkpt lat="42.90040243882074" lon="11.24048150541307"><ele>86.0</ele><time>2026-03-29T13:01:56Z</time></trkpt><trkpt lat="42.900166908558084" lon="11.240388587778218"><ele>86.0</ele><time>2026-03-29T13:01:57Z</time></trkpt><trkpt lat="42.89993277732433" lon="11.240293818255955"><ele>86.0</ele><time>2026-03-29T13:01:58Z</time></trkpt><trkpt lat="42.89969548852923" lon="11.240200120164609"><ele>86.0</ele><time>2026-03-29T13:01:59Z</time></trkpt><trkpt lat="42.89945569496613" lon="11.240109413473531"><ele>86.0</ele><time>2026-03-29T13:02:00Z</time></trkpt><trkpt lat="42.89921716214967" lon="11.240017395750428"><ele>86.5</ele><time>2026-03-29T13:02:01Z</time></trkpt><trkpt lat="42.89897691279794" lon="11.23992566766321"><ele>87.0</ele><time>2026-03-29T13:02:02Z</time></trkpt><trkpt lat="42.898730452183784" lon="11.239834578304482"><ele>89.5</ele><time>2026-03-29T13:02:03Z</time></trkpt><trkpt lat="42.898483983278396" lon="11.239745029777419"><ele>92.0</ele><time>2026-03-29T13:02:04Z</time></trkpt><trkpt lat="42.89823674199167" lon="11.239653052065844"><ele>92.5</ele><time>2026-03-29T13:02:05Z</time></trkpt><trkpt lat="42.89798702456906" lon="11.239556697754965"><ele>93.0</ele><time>2026-03-29T13:02:06Z</time></trkpt><trkpt lat="42.89773916254475" lon="11.239457113030129"><ele>90.0</ele><time>2026-03-29T13:02:07Z</time></trkpt><trkpt lat="42.897490388882034" lon="11.23935660925874"><ele>87.0</ele><time>2026-03-29T13:02:08Z</time></trkpt><trkpt lat="42.89724148218616" lon="11.23926072612068"><ele>87.0</ele><time>2026-03-29T13:02:09Z</time></trkpt><trkpt lat="42.896990377058174" lon="11.239168565253308"><ele>87.0</ele><time>2026-03-29T13:02:10Z</time></trkpt><trkpt lat="42.89674021273655" lon="11.239078974447526"><ele>87.5</ele><time>2026-03-29T13:02:11Z</time></trkpt><trkpt lat="42.896481544263" lon="11.238983781571974"><ele>88.0</ele><time>2026-03-29T13:02:12Z</time></trkpt><trkpt lat="42.89622869961503" lon="11.238889594986126"><ele>88.5</ele><time>2026-03-29T13:02:13Z</time></trkpt><trkpt lat="42.89597687929554" lon="11.238784589920648"><ele>89.0</ele><time>2026-03-29T13:02:14Z</time></trkpt><trkpt lat="42.89572505628453" lon="11.23868310230133"><ele>89.5</ele><time>2026-03-29T13:02:15Z</time></trkpt><trkpt lat="42.89547289876681" lon="11.238583796663127"><ele>90.0</ele><time>2026-03-29T13:02:16Z</time></trkpt><trkpt lat="42.895220353077804" lon="11.238485113454406"><ele>91.0</ele><time>2026-03-29T13:02:17Z</time></trkpt><trkpt lat="42.89496522733053" lon="11.238388492561926"><ele>92.0</ele><time>2026-03-29T13:02:18Z</time></trkpt><trkpt lat="42.89471286561819" lon="11.23829088636242"><ele>92.0</ele><time>2026-03-29T13:02:19Z</time></trkpt><trkpt lat="42.89446074941971" lon="11.238193007363124"><ele>92.0</ele><time>2026-03-29T13:02:20Z</time></trkpt><trkpt lat="42.894209452107816" lon="11.238094946722079"><ele>92.5</ele><time>2026-03-29T13:02:21Z</time></trkpt><trkpt lat="42.89395332036481" lon="11.237997892899033"><ele>93.0</ele><time>2026-03-29T13:02:22Z</time></trkpt><trkpt lat="42.89369819992838" lon="11.237903523733664"><ele>93.0</ele><time>2026-03-29T13:02:23Z</time></trkpt><trkpt lat="42.89344099905913" lon="11.23780923643464"><ele>93.0</ele><time>2026-03-29T13:02:24Z</time></trkpt><trkpt lat="42.89318369663109" lon="11.237713473615566"><ele>92.5</ele><time>2026-03-29T13:02:25Z</time></trkpt><trkpt lat="42.89292731096724" lon="11.237617262089593"><ele>92.0</ele><time>2026-03-29T13:02:26Z</time></trkpt><trkpt lat="42.892671284737006" lon="11.237519444570648"><ele>94.0</ele><time>2026-03-29T13:02:27Z</time></trkpt><trkpt lat="42.892421594469674" lon="11.237429125603242"><ele>96.0</ele><time>2026-03-29T13:02:28Z</time></trkpt><trkpt lat="42.892192152087766" lon="11.2373345556463"><ele>95.0</ele><time>2026-03-29T13:02:29Z</time></trkpt><trkpt lat="42.89196108280561" lon="11.237239278414313"><ele>94.0</ele><time>2026-03-29T13:02:30Z</time></trkpt><trkpt lat="42.89173148277005" lon="11.237132724880617"><ele>94.0</ele><time>2026-03-29T13:02:31Z</time></trkpt><trkpt lat="42.89150505390305" lon="11.237006778659987"><ele>94.0</ele><time>2026-03-29T13:02:32Z</time></trkpt><trkpt lat="42.89127872714523" lon="11.23686387023848"><ele>94.0</ele><time>2026-03-29T13:02:33Z</time></trkpt><trkpt lat="42.891057071197885" lon="11.236702038936066"><ele>94.0</ele><time>2026-03-29T13:02:34Z</time></trkpt><trkpt lat="42.89083952941451" lon="11.236525474179277"><ele>94.0</ele><time>2026-03-29T13:02:35Z</time></trkpt><trkpt lat="42.89062668875843" lon="11.236341211656635"><ele>94.0</ele><time>2026-03-29T13:02:36Z</time></trkpt><trkpt lat="42.89041157191966" lon="11.236149849335938"><ele>94.0</ele><time>2026-03-29T13:02:37Z</time></trkpt><trkpt lat="42.89020737118684" lon="11.235966190932075"><ele>94.0</ele><time>2026-03-29T13:02:38Z</time></trkpt><trkpt lat="42.89002090618331" lon="11.235792519218956"><ele>94.33333333333333</ele><time>2026-03-29T13:02:39Z</time></trkpt><trkpt lat="42.88983364142884" lon="11.235630625932659"><ele>94.66666666666667</ele><time>2026-03-29T13:02:40Z</time></trkpt><trkpt lat="42.88964751231404" lon="11.23546268501569"><ele>95.0</ele><time>2026-03-29T13:02:41Z</time></trkpt><trkpt lat="42.88946427077143" lon="11.235300255114412"><ele>95.0</ele><time>2026-03-29T13:02:42Z</time></trkpt><trkpt lat="42.88928252433631" lon="11.235135460182486"><ele>95.0</ele><time>2026-03-29T13:02:43Z</time></trkpt><trkpt lat="42.889099730519746" lon="11.234972461978572"><ele>95.0</ele><time>2026-03-29T13:02:44Z</time></trkpt><trkpt lat="42.88893418719222" lon="11.234815166680479"><ele>96.0</ele><time>2026-03-29T13:02:45Z</time></trkpt><trkpt lat="42.88876404490426" lon="11.234651442582773"><ele>97.0</ele><time>2026-03-29T13:02:46Z</time></trkpt><trkpt lat="42.888597266009775" lon="11.234473603854253"><ele>98.0</ele><time>2026-03-29T13:02:47Z</time></trkpt><trkpt lat="42.88843348577468" lon="11.234280517274279"><ele>98.33333333333333</ele><time>2026-03-29T13:02:48Z</time></trkpt><trkpt lat="42.888273013199694" lon="11.23407167199589"><ele>98.66666666666666</ele><time>2026-03-29T13:02:49Z</time></trkpt><trkpt lat="42.88812173534671" lon="11.233857214492728"><ele>99.0</ele><time>2026-03-29T13:02:50Z</time></trkpt><trkpt lat="42.887971756213446" lon="11.23363317770418"><ele>99.0</ele><time>2026-03-29T13:02:50.999Z</time></trkpt><trkpt lat="42.887843934297386" lon="11.23341475844625"><ele>99.0</ele><time>2026-03-29T13:02:51.999Z</time></trkpt><trkpt lat="42.88772170910353" lon="11.233186784827854"><ele>99.0</ele><time>2026-03-29T13:02:52.999Z</time></trkpt><trkpt lat="42.887608610239816" lon="11.232947462025056"><ele>99.33333333333334</ele><time>2026-03-29T13:02:53.999Z</time></trkpt><trkpt lat="42.88750067265616" lon="11.232693473206414"><ele>99.66666666666667</ele><time>2026-03-29T13:02:54.999Z</time></trkpt><trkpt lat="42.88740234791898" lon="11.23243448716999"><ele>100.0</ele><time>2026-03-29T13:02:55.999Z</time></trkpt><trkpt lat="42.88731040230526" lon="11.232168597323323"><ele>100.66666666666667</ele><time>2026-03-29T13:02:56.999Z</time></trkpt><trkpt lat="42.88722626653126" lon="11.231884841526906"><ele>101.33333333333334</ele><time>2026-03-29T13:02:57.999Z</time></trkpt><trkpt lat="42.887156953567874" lon="11.231598296950782"><ele>102.0</ele><time>2026-03-29T13:02:58.999Z</time></trkpt><trkpt lat="42.887095113471666" lon="11.231309891055401"><ele>102.0</ele><time>2026-03-29T13:02:59.999Z</time></trkpt><trkpt lat="42.88704142577119" lon="11.231015929359126"><ele>102.0</ele><time>2026-03-29T13:03:00.999Z</time></trkpt><trkpt lat="42.88699923370186" lon="11.230715329321388"><ele>102.0</ele><time>2026-03-29T13:03:01.999Z</time></trkpt><trkpt lat="42.88696636847116" lon="11.230412722334876"><ele>101.66666666666666</ele><time>2026-03-29T13:03:02.999Z</time></trkpt><trkpt lat="42.88694442090948" lon="11.230112707454667"><ele>101.33333333333333</ele><time>2026-03-29T13:03:03.999Z</time></trkpt><trkpt lat="42.88693198366784" lon="11.229811256968379"><ele>101.0</ele><time>2026-03-29T13:03:04.999Z</time></trkpt><trkpt lat="42.886915320992465" lon="11.229506144458842"><ele>100.66666666666666</ele><time>2026-03-29T13:03:05.999Z</time></trkpt><trkpt lat="42.88690078748124" lon="11.229204061006905"><ele>100.33333333333334</ele><time>2026-03-29T13:03:06.999Z</time></trkpt><trkpt lat="42.88688836722368" lon="11.228899072962639"><ele>100.0</ele><time>2026-03-29T13:03:07.999Z</time></trkpt><trkpt lat="42.88687532972175" lon="11.22859303916185"><ele>100.0</ele><time>2026-03-29T13:03:08.999Z</time></trkpt><trkpt lat="42.886861872241845" lon="11.228291207632337"><ele>100.0</ele><time>2026-03-29T13:03:09.999Z</time></trkpt><trkpt lat="42.88684877434195" lon="11.227986748027778"><ele>100.0</ele><time>2026-03-29T13:03:10.999Z</time></trkpt><trkpt lat="42.88683749871749" lon="11.227680851579356"><ele>99.0</ele><time>2026-03-29T13:03:11.999Z</time></trkpt><trkpt lat="42.88682405555755" lon="11.227375127315044"><ele>98.0</ele><time>2026-03-29T13:03:12.999Z</time></trkpt><trkpt lat="42.886813644629775" lon="11.227067547591725"><ele>98.0</ele><time>2026-03-29T13:03:13.999Z</time></trkpt><trkpt lat="42.886806327677526" lon="11.226757854046072"><ele>98.0</ele><time>2026-03-29T13:03:14.999Z</time></trkpt><trkpt lat="42.88680475652282" lon="11.22644711459861"><ele>98.5</ele><time>2026-03-29T13:03:15.999Z</time></trkpt><trkpt lat="42.886791174055254" lon="11.22613590109975"><ele>99.0</ele><time>2026-03-29T13:03:16.999Z</time></trkpt><trkpt lat="42.886774577808595" lon="11.225821749386308"><ele>102.5</ele><time>2026-03-29T13:03:17.999Z</time></trkpt><trkpt lat="42.886744399112544" lon="11.225507572210448"><ele>106.0</ele><time>2026-03-29T13:03:18.999Z</time></trkpt><trkpt lat="42.886707740066214" lon="11.22519341080709"><ele>106.0</ele><time>2026-03-29T13:03:19.999Z</time></trkpt><trkpt lat="42.88665949913488" lon="11.224883094056583"><ele>106.0</ele><time>2026-03-29T13:03:20.999Z</time></trkpt><trkpt lat="42.886597732236986" lon="11.224574375827268"><ele>107.0</ele><time>2026-03-29T13:03:21.999Z</time></trkpt><trkpt lat="42.88652391088813" lon="11.224273216782661"><ele>108.0</ele><time>2026-03-29T13:03:22.999Z</time></trkpt><trkpt lat="42.88643966479081" lon="11.223972971762999"><ele>109.0</ele><time>2026-03-29T13:03:23.999Z</time></trkpt><trkpt lat="42.88634535567976" lon="11.223677611542895"><ele>110.0</ele><time>2026-03-29T13:03:24.999Z</time></trkpt><trkpt lat="42.88623733869822" lon="11.223388825001772"><ele>112.0</ele><time>2026-03-29T13:03:25.999Z</time></trkpt><trkpt lat="42.88611829039163" lon="11.223105230660662"><ele>114.0</ele><time>2026-03-29T13:03:26.999Z</time></trkpt><trkpt lat="42.885988023902975" lon="11.222828200733783"><ele>113.0</ele><time>2026-03-29T13:03:27.999Z</time></trkpt><trkpt lat="42.88585044467901" lon="11.222561179744517"><ele>112.0</ele><time>2026-03-29T13:03:28.999Z</time></trkpt><trkpt lat="42.88569304670543" lon="11.222302176054775"><ele>115.5</ele><time>2026-03-29T13:03:29.999Z</time></trkpt><trkpt lat="42.885530500421396" lon="11.222050275994059"><ele>119.0</ele><time>2026-03-29T13:03:30.999Z</time></trkpt><trkpt lat="42.88536113961074" lon="11.221817407977658"><ele>119.0</ele><time>2026-03-29T13:03:31.999Z</time></trkpt><trkpt lat="42.88519115697037" lon="11.221604215439674"><ele>119.0</ele><time>2026-03-29T13:03:32.999Z</time></trkpt><trkpt lat="42.88501343757719" lon="11.221406053329313"><ele>120.0</ele><time>2026-03-29T13:03:33.999Z</time></trkpt><trkpt lat="42.884825930706604" lon="11.221218588931563"><ele>121.0</ele><time>2026-03-29T13:03:34.999Z</time></trkpt><trkpt lat="42.88463009718148" lon="11.221040027285547"><ele>121.0</ele><time>2026-03-29T13:03:35.999Z</time></trkpt><trkpt lat="42.884427493198324" lon="11.220866584096862"><ele>121.0</ele><time>2026-03-29T13:03:36.999Z</time></trkpt><trkpt lat="42.88422825991609" lon="11.22069216121627"><ele>125.0</ele><time>2026-03-29T13:03:37.999Z</time></trkpt><trkpt lat="42.88402729330643" lon="11.220514475948477"><ele>129.0</ele><time>2026-03-29T13:03:38.999Z</time></trkpt><trkpt lat="42.88382493499732" lon="11.22033699545108"><ele>129.0</ele><time>2026-03-29T13:03:39.999Z</time></trkpt><trkpt lat="42.8836203875324" lon="11.220159359420856"><ele>129.0</ele><time>2026-03-29T13:03:40.999Z</time></trkpt><trkpt lat="42.883413743028235" lon="11.219979004987675"><ele>127.5</ele><time>2026-03-29T13:03:41.999Z</time></trkpt><trkpt lat="42.88320868282022" lon="11.219799572459204"><ele>126.0</ele><time>2026-03-29T13:03:42.999Z</time></trkpt><trkpt lat="42.883001473977274" lon="11.219619592704762"><ele>126.0</ele><time>2026-03-29T13:03:43.999Z</time></trkpt><trkpt lat="42.88279237253233" lon="11.21943662036743"><ele>126.0</ele><time>2026-03-29T13:03:44.999Z</time></trkpt><trkpt lat="42.8825834431024" lon="11.219252464878817"><ele>124.0</ele><time>2026-03-29T13:03:45.999Z</time></trkpt><trkpt lat="42.88237388817538" lon="11.219067919308424"><ele>122.0</ele><time>2026-03-29T13:03:46.999Z</time></trkpt><trkpt lat="42.882160117235145" lon="11.218881321453928"><ele>124.5</ele><time>2026-03-29T13:03:47.999Z</time></trkpt><trkpt lat="42.881946759838236" lon="11.218696918586847"><ele>127.0</ele><time>2026-03-29T13:03:48.999Z</time></trkpt><trkpt lat="42.88173676608736" lon="11.21850949667786"><ele>127.0</ele><time>2026-03-29T13:03:49.999Z</time></trkpt><trkpt lat="42.88159979504252" lon="11.21817482311425"><ele>127.0</ele><time>2026-03-29T13:03:50.999Z</time></trkpt><trkpt lat="42.881391658697815" lon="11.21797272116775"><ele>131.0</ele><time>2026-03-29T13:03:51.999Z</time></trkpt><trkpt lat="42.88118463608148" lon="11.217771700493705"><ele>135.0</ele><time>2026-03-29T13:03:52.999Z</time></trkpt><trkpt lat="42.88097442797451" lon="11.217575861497336"><ele>133.0</ele><time>2026-03-29T13:03:53.999Z</time></trkpt><trkpt lat="42.88072448614588" lon="11.217455833675382"><ele>131.0</ele><time>2026-03-29T13:03:55Z</time></trkpt><trkpt lat="42.880530278027344" lon="11.217226885273732"><ele>131.0</ele><time>2026-03-29T13:03:56Z</time></trkpt><trkpt lat="42.88034657038959" lon="11.217005404235982"><ele>131.0</ele><time>2026-03-29T13:03:57Z</time></trkpt><trkpt lat="42.880172513771065" lon="11.216782862676222"><ele>130.5</ele><time>2026-03-29T13:03:58Z</time></trkpt><trkpt lat="42.87999692670627" lon="11.21655430819759"><ele>130.0</ele><time>2026-03-29T13:03:59Z</time></trkpt><trkpt lat="42.87982325813904" lon="11.216318803480304"><ele>130.0</ele><time>2026-03-29T13:04:00Z</time></trkpt><trkpt lat="42.87964937876924" lon="11.216078871185733"><ele>130.0</ele><time>2026-03-29T13:04:01Z</time></trkpt><trkpt lat="42.87947730572809" lon="11.215839117136861"><ele>130.5</ele><time>2026-03-29T13:04:02Z</time></trkpt><trkpt lat="42.879302768875476" lon="11.215596568372382"><ele>131.0</ele><time>2026-03-29T13:04:03Z</time></trkpt><trkpt lat="42.87912829389166" lon="11.215353092384333"><ele>131.0</ele><time>2026-03-29T13:04:04Z</time></trkpt><trkpt lat="42.87895586921016" lon="11.215111865170941"><ele>131.0</ele><time>2026-03-29T13:04:05Z</time></trkpt><trkpt lat="42.87878431133431" lon="11.2148700959501"><ele>133.0</ele><time>2026-03-29T13:04:06Z</time></trkpt><trkpt lat="42.87861156082067" lon="11.214628239316252"><ele>135.0</ele><time>2026-03-29T13:04:07Z</time></trkpt><trkpt lat="42.87843809409827" lon="11.214386319969849"><ele>134.0</ele><time>2026-03-29T13:04:08Z</time></trkpt><trkpt lat="42.87826296998371" lon="11.214144961529364"><ele>133.0</ele><time>2026-03-29T13:04:09Z</time></trkpt><trkpt lat="42.878090074483154" lon="11.213902475253644"><ele>133.0</ele><time>2026-03-29T13:04:10Z</time></trkpt><trkpt lat="42.87791617142599" lon="11.213658782650576"><ele>133.0</ele><time>2026-03-29T13:04:11Z</time></trkpt><trkpt lat="42.87774274016911" lon="11.213411635572147"><ele>133.0</ele><time>2026-03-29T13:04:12Z</time></trkpt><trkpt lat="42.87756754040447" lon="11.213163717183246"><ele>133.0</ele><time>2026-03-29T13:04:13Z</time></trkpt><trkpt lat="42.877390380980756" lon="11.212920291158484"><ele>133.0</ele><time>2026-03-29T13:04:14Z</time></trkpt><trkpt lat="42.87721109223619" lon="11.212672943284296"><ele>133.0</ele><time>2026-03-29T13:04:15Z</time></trkpt><trkpt lat="42.877031062056275" lon="11.21242487974947"><ele>133.0</ele><time>2026-03-29T13:04:16Z</time></trkpt><trkpt lat="42.87685021212278" lon="11.212171462522832"><ele>133.0</ele><time>2026-03-29T13:04:17Z</time></trkpt><trkpt lat="42.87666684565756" lon="11.211913708826561"><ele>133.0</ele><time>2026-03-29T13:04:18Z</time></trkpt><trkpt lat="42.876483792787134" lon="11.211658700034999"><ele>133.0</ele><time>2026-03-29T13:04:19Z</time></trkpt><trkpt lat="42.876299762250916" lon="11.211401826792624"><ele>133.5</ele><time>2026-03-29T13:04:20Z</time></trkpt><trkpt lat="42.876115449873254" lon="11.211144206446136"><ele>134.0</ele><time>2026-03-29T13:04:21Z</time></trkpt><trkpt lat="42.87593012773263" lon="11.210885650183952"><ele>133.5</ele><time>2026-03-29T13:04:22Z</time></trkpt><trkpt lat="42.87574652683682" lon="11.210629255983395"><ele>133.0</ele><time>2026-03-29T13:04:23Z</time></trkpt><trkpt lat="42.87556122359667" lon="11.210371579424478"><ele>133.0</ele><time>2026-03-29T13:04:24Z</time></trkpt><trkpt lat="42.875378983682666" lon="11.210117293581146"><ele>133.0</ele><time>2026-03-29T13:04:25Z</time></trkpt><trkpt lat="42.875194822443184" lon="11.209860093860716"><ele>135.5</ele><time>2026-03-29T13:04:26Z</time></trkpt><trkpt lat="42.87501123290613" lon="11.209603922557836"><ele>138.0</ele><time>2026-03-29T13:04:27Z</time></trkpt><trkpt lat="42.87482481901783" lon="11.209348339847224"><ele>138.0</ele><time>2026-03-29T13:04:28Z</time></trkpt><trkpt lat="42.874637981067096" lon="11.209092931912242"><ele>138.0</ele><time>2026-03-29T13:04:29Z</time></trkpt><trkpt lat="42.87445198132314" lon="11.208834855196955"><ele>140.5</ele><time>2026-03-29T13:04:30Z</time></trkpt><trkpt lat="42.87426520393602" lon="11.20858019321547"><ele>143.0</ele><time>2026-03-29T13:04:31Z</time></trkpt><trkpt lat="42.87408077984562" lon="11.208335572848616"><ele>141.0</ele><time>2026-03-29T13:04:32Z</time></trkpt><trkpt lat="42.8739099557973" lon="11.208112718331952"><ele>139.0</ele><time>2026-03-29T13:04:33Z</time></trkpt><trkpt lat="42.87373868569307" lon="11.207892456965139"><ele>139.0</ele><time>2026-03-29T13:04:34Z</time></trkpt><trkpt lat="42.8735575409361" lon="11.207666725601324"><ele>139.0</ele><time>2026-03-29T13:04:35Z</time></trkpt><trkpt lat="42.87336988995762" lon="11.207438472731713"><ele>139.0</ele><time>2026-03-29T13:04:36Z</time></trkpt><trkpt lat="42.873179365088866" lon="11.207211712012255"><ele>139.0</ele><time>2026-03-29T13:04:37Z</time></trkpt><trkpt lat="42.87298505045986" lon="11.206992880415706"><ele>139.0</ele><time>2026-03-29T13:04:38Z</time></trkpt><trkpt lat="42.872789053855605" lon="11.206769824555531"><ele>139.0</ele><time>2026-03-29T13:04:39Z</time></trkpt><trkpt lat="42.872591512580065" lon="11.206559683033325"><ele>136.5</ele><time>2026-03-29T13:04:40Z</time></trkpt><trkpt lat="42.87240732893516" lon="11.206367268352"><ele>134.0</ele><time>2026-03-29T13:04:41Z</time></trkpt><trkpt lat="42.8722270517519" lon="11.206182470273179"><ele>134.0</ele><time>2026-03-29T13:04:42Z</time></trkpt><trkpt lat="42.87204299450484" lon="11.205991747029604"><ele>134.0</ele><time>2026-03-29T13:04:43Z</time></trkpt><trkpt lat="42.87185151735237" lon="11.205797909294542"><ele>133.0</ele><time>2026-03-29T13:04:44Z</time></trkpt><trkpt lat="42.871660520897805" lon="11.205604444689016"><ele>132.0</ele><time>2026-03-29T13:04:45Z</time></trkpt><trkpt lat="42.87146840548802" lon="11.205414250107735"><ele>132.0</ele><time>2026-03-29T13:04:46Z</time></trkpt><trkpt lat="42.87127271445482" lon="11.2052229761531"><ele>132.0</ele><time>2026-03-29T13:04:47Z</time></trkpt><trkpt lat="42.87107983856163" lon="11.205030777929121"><ele>132.0</ele><time>2026-03-29T13:04:48Z</time></trkpt><trkpt lat="42.870884731040164" lon="11.204837799806489"><ele>132.0</ele><time>2026-03-29T13:04:49Z</time></trkpt><trkpt lat="42.870688232176946" lon="11.204647124247108"><ele>131.0</ele><time>2026-03-29T13:04:50Z</time></trkpt><trkpt lat="42.87049110735499" lon="11.20445385216917"><ele>130.0</ele><time>2026-03-29T13:04:51Z</time></trkpt><trkpt lat="42.87029354752612" lon="11.20426150225583"><ele>130.0</ele><time>2026-03-29T13:04:52Z</time></trkpt><trkpt lat="42.870093089475326" lon="11.20406946842971"><ele>130.0</ele><time>2026-03-29T13:04:53Z</time></trkpt><trkpt lat="42.86989189446218" lon="11.203876164027935"><ele>129.5</ele><time>2026-03-29T13:04:54Z</time></trkpt><trkpt lat="42.86969118813679" lon="11.203679256573631"><ele>129.0</ele><time>2026-03-29T13:04:55Z</time></trkpt><trkpt lat="42.869490683537684" lon="11.203480207170221"><ele>129.0</ele><time>2026-03-29T13:04:56Z</time></trkpt><trkpt lat="42.86929132821993" lon="11.203278842709315"><ele>129.0</ele><time>2026-03-29T13:04:57Z</time></trkpt><trkpt lat="42.86908825817778" lon="11.20307911139494"><ele>132.0</ele><time>2026-03-29T13:04:58Z</time></trkpt><trkpt lat="42.868888773798695" lon="11.202882464701046"><ele>135.0</ele><time>2026-03-29T13:04:59Z</time></trkpt><trkpt lat="42.868686169502524" lon="11.202687187787337"><ele>135.0</ele><time>2026-03-29T13:05:00Z</time></trkpt><trkpt lat="42.868487330853455" lon="11.202495597014758"><ele>135.0</ele><time>2026-03-29T13:05:00.999Z</time></trkpt><trkpt lat="42.86828918639284" lon="11.202302423046412"><ele>136.5</ele><time>2026-03-29T13:05:01.999Z</time></trkpt><trkpt lat="42.86809502155751" lon="11.202111823979662"><ele>138.0</ele><time>2026-03-29T13:05:02.999Z</time></trkpt><trkpt lat="42.8679007600105" lon="11.201918337042787"><ele>138.0</ele><time>2026-03-29T13:05:03.999Z</time></trkpt><trkpt lat="42.867706128120645" lon="11.201724441881764"><ele>138.0</ele><time>2026-03-29T13:05:04.999Z</time></trkpt><trkpt lat="42.86751016439603" lon="11.201531802175076"><ele>138.5</ele><time>2026-03-29T13:05:05.999Z</time></trkpt><trkpt lat="42.867316542055285" lon="11.201343921751366"><ele>139.0</ele><time>2026-03-29T13:05:06.999Z</time></trkpt><trkpt lat="42.867126537396395" lon="11.201155728508873"><ele>139.0</ele><time>2026-03-29T13:05:07.999Z</time></trkpt><trkpt lat="42.86693428725296" lon="11.200973160306782"><ele>139.0</ele><time>2026-03-29T13:05:08.999Z</time></trkpt><trkpt lat="42.866742805882986" lon="11.200787923524844"><ele>139.0</ele><time>2026-03-29T13:05:09.999Z</time></trkpt><trkpt lat="42.86655839743866" lon="11.200601582771933"><ele>139.0</ele><time>2026-03-29T13:05:10.999Z</time></trkpt><trkpt lat="42.86637318149671" lon="11.200413803221036"><ele>139.0</ele><time>2026-03-29T13:05:11.999Z</time></trkpt><trkpt lat="42.86618752813541" lon="11.200230333751616"><ele>139.0</ele><time>2026-03-29T13:05:12.999Z</time></trkpt><trkpt lat="42.86600346894796" lon="11.200050443945791"><ele>140.33333333333334</ele><time>2026-03-29T13:05:13.999Z</time></trkpt><trkpt lat="42.865822136376245" lon="11.199871056536972"><ele>141.66666666666666</ele><time>2026-03-29T13:05:14.999Z</time></trkpt><trkpt lat="42.8656394236318" lon="11.199691107819476"><ele>143.0</ele><time>2026-03-29T13:05:15.999Z</time></trkpt><trkpt lat="42.86545802538744" lon="11.19950652472748"><ele>143.0</ele><time>2026-03-29T13:05:16.999Z</time></trkpt><trkpt lat="42.86527814170335" lon="11.199315894350764"><ele>143.0</ele><time>2026-03-29T13:05:17.999Z</time></trkpt><trkpt lat="42.865102613101854" lon="11.199121257070724"><ele>145.5</ele><time>2026-03-29T13:05:18.999Z</time></trkpt><trkpt lat="42.86493039391171" lon="11.198914731451934"><ele>148.0</ele><time>2026-03-29T13:05:19.999Z</time></trkpt><trkpt lat="42.86476636752948" lon="11.198697933194124"><ele>148.0</ele><time>2026-03-29T13:05:20.999Z</time></trkpt><trkpt lat="42.864606860406056" lon="11.198471266376474"><ele>148.0</ele><time>2026-03-29T13:05:21.999Z</time></trkpt><trkpt lat="42.864455677456014" lon="11.198232965819116"><ele>153.0</ele><time>2026-03-29T13:05:22.999Z</time></trkpt><trkpt lat="42.86431142755565" lon="11.197988498272807"><ele>158.0</ele><time>2026-03-29T13:05:23.999Z</time></trkpt><trkpt lat="42.864171542134564" lon="11.197727243610068"><ele>158.0</ele><time>2026-03-29T13:05:24.999Z</time></trkpt><trkpt lat="42.86403347724691" lon="11.197451601860147"><ele>158.0</ele><time>2026-03-29T13:05:25.999Z</time></trkpt><trkpt lat="42.86390308381262" lon="11.197158267141583"><ele>163.5</ele><time>2026-03-29T13:05:26.999Z</time></trkpt><trkpt lat="42.86378572993371" lon="11.19686109001414"><ele>169.0</ele><time>2026-03-29T13:05:27.999Z</time></trkpt><trkpt lat="42.863681687001296" lon="11.19657702776818"><ele>172.5</ele><time>2026-03-29T13:05:28.999Z</time></trkpt><trkpt lat="42.863590219579095" lon="11.196282786413978"><ele>176.0</ele><time>2026-03-29T13:05:29.999Z</time></trkpt><trkpt lat="42.863505952682225" lon="11.195975525182199"><ele>168.5</ele><time>2026-03-29T13:05:30.999Z</time></trkpt><trkpt lat="42.86343262421795" lon="11.195661544875351"><ele>161.0</ele><time>2026-03-29T13:05:31.999Z</time></trkpt><trkpt lat="42.863365501555236" lon="11.195344231989562"><ele>161.0</ele><time>2026-03-29T13:05:32.999Z</time></trkpt><trkpt lat="42.86330644405606" lon="11.195020316459741"><ele>161.0</ele><time>2026-03-29T13:05:33.999Z</time></trkpt><trkpt lat="42.86325056871812" lon="11.194692875069308"><ele>164.0</ele><time>2026-03-29T13:05:34.999Z</time></trkpt><trkpt lat="42.86319576785756" lon="11.194365150620001"><ele>167.0</ele><time>2026-03-29T13:05:35.999Z</time></trkpt><trkpt lat="42.863141334834594" lon="11.19403436148982"><ele>169.0</ele><time>2026-03-29T13:05:36.999Z</time></trkpt><trkpt lat="42.863089721413154" lon="11.193714852693377"><ele>171.0</ele><time>2026-03-29T13:05:37.999Z</time></trkpt><trkpt lat="42.8630393750461" lon="11.193411961406365"><ele>172.5</ele><time>2026-03-29T13:05:38.999Z</time></trkpt><trkpt lat="42.86298869571211" lon="11.19311868485729"><ele>174.0</ele><time>2026-03-29T13:05:39.999Z</time></trkpt><trkpt lat="42.86292668494949" lon="11.192812124074305"><ele>174.0</ele><time>2026-03-29T13:05:40.999Z</time></trkpt><trkpt lat="42.862860174782526" lon="11.19250658883895"><ele>174.0</ele><time>2026-03-29T13:05:41.999Z</time></trkpt><trkpt lat="42.86279368316359" lon="11.192196399419066"><ele>176.5</ele><time>2026-03-29T13:05:42.999Z</time></trkpt><trkpt lat="42.862719023222105" lon="11.191886247433287"><ele>179.0</ele><time>2026-03-29T13:05:43.999Z</time></trkpt><trkpt lat="42.86263602312129" lon="11.191580277251667"><ele>170.0</ele><time>2026-03-29T13:05:44.999Z</time></trkpt><trkpt lat="42.86254125366344" lon="11.191272530380493"><ele>161.0</ele><time>2026-03-29T13:05:45.999Z</time></trkpt><trkpt lat="42.8624416096707" lon="11.190972547458497"><ele>161.0</ele><time>2026-03-29T13:05:46.999Z</time></trkpt><trkpt lat="42.862333999466514" lon="11.19068886632407"><ele>161.0</ele><time>2026-03-29T13:05:47.999Z</time></trkpt><trkpt lat="42.86222358637664" lon="11.190423191042793"><ele>165.0</ele><time>2026-03-29T13:05:48.999Z</time></trkpt><trkpt lat="42.86210450611827" lon="11.190153567668839"><ele>169.0</ele><time>2026-03-29T13:05:49.999Z</time></trkpt><trkpt lat="42.86197638117958" lon="11.18988543160562"><ele>172.5</ele><time>2026-03-29T13:05:50.999Z</time></trkpt><trkpt lat="42.86183847540589" lon="11.189617770497598"><ele>176.0</ele><time>2026-03-29T13:05:51.999Z</time></trkpt><trkpt lat="42.861691574873255" lon="11.189350279306945"><ele>165.5</ele><time>2026-03-29T13:05:52.999Z</time></trkpt><trkpt lat="42.861536521504014" lon="11.189091839039731"><ele>155.0</ele><time>2026-03-29T13:05:53.999Z</time></trkpt><trkpt lat="42.861374665848324" lon="11.188836898284213"><ele>154.5</ele><time>2026-03-29T13:05:54.999Z</time></trkpt><trkpt lat="42.86119549178967" lon="11.188593568558671"><ele>154.0</ele><time>2026-03-29T13:05:55.999Z</time></trkpt><trkpt lat="42.86101941646784" lon="11.188355063718772"><ele>149.0</ele><time>2026-03-29T13:05:56.999Z</time></trkpt><trkpt lat="42.86083344427686" lon="11.1881183039643"><ele>144.0</ele><time>2026-03-29T13:05:57.999Z</time></trkpt><trkpt lat="42.8606456542933" lon="11.187885693200933"><ele>144.0</ele><time>2026-03-29T13:05:58.999Z</time></trkpt><trkpt lat="42.8604567065899" lon="11.187651975704862"><ele>144.0</ele><time>2026-03-29T13:05:59.999Z</time></trkpt><trkpt lat="42.860269256337034" lon="11.187417411213294"><ele>144.0</ele><time>2026-03-29T13:06:01Z</time></trkpt><trkpt lat="42.860086218693525" lon="11.187187124546318"><ele>144.0</ele><time>2026-03-29T13:06:02Z</time></trkpt><trkpt lat="42.85991054027712" lon="11.186964228907142"><ele>144.0</ele><time>2026-03-29T13:06:03Z</time></trkpt><trkpt lat="42.85974390283471" lon="11.18674921350787"><ele>144.0</ele><time>2026-03-29T13:06:04Z</time></trkpt><trkpt lat="42.859574819586854" lon="11.18652285829969"><ele>141.5</ele><time>2026-03-29T13:06:05Z</time></trkpt><trkpt lat="42.85939878411586" lon="11.18628205105807"><ele>139.0</ele><time>2026-03-29T13:06:06Z</time></trkpt><trkpt lat="42.859223010729956" lon="11.186033770220508"><ele>139.0</ele><time>2026-03-29T13:06:07Z</time></trkpt><trkpt lat="42.85904659455176" lon="11.18577689159239"><ele>139.0</ele><time>2026-03-29T13:06:08Z</time></trkpt><trkpt lat="42.858870662222664" lon="11.185505754442122"><ele>148.5</ele><time>2026-03-29T13:06:09Z</time></trkpt><trkpt lat="42.858709875688774" lon="11.185242304347334"><ele>158.0</ele><time>2026-03-29T13:06:10Z</time></trkpt><trkpt lat="42.85856233294349" lon="11.184985397118032"><ele>145.0</ele><time>2026-03-29T13:06:11Z</time></trkpt><trkpt lat="42.85842606589092" lon="11.184723270048444"><ele>132.0</ele><time>2026-03-29T13:06:12Z</time></trkpt><trkpt lat="42.85828477505389" lon="11.184443386745556"><ele>132.0</ele><time>2026-03-29T13:06:13Z</time></trkpt><trkpt lat="42.858146357178605" lon="11.184154638233302"><ele>132.0</ele><time>2026-03-29T13:06:14Z</time></trkpt><trkpt lat="42.85801165558607" lon="11.183851784994431"><ele>130.5</ele><time>2026-03-29T13:06:15Z</time></trkpt><trkpt lat="42.85788367002408" lon="11.183538148087774"><ele>129.0</ele><time>2026-03-29T13:06:16Z</time></trkpt><trkpt lat="42.85775896092144" lon="11.183232006276253"><ele>126.0</ele><time>2026-03-29T13:06:17Z</time></trkpt><trkpt lat="42.85764745226497" lon="11.182934297951912"><ele>123.0</ele><time>2026-03-29T13:06:18Z</time></trkpt><trkpt lat="42.85753228633243" lon="11.182634330905776"><ele>120.0</ele><time>2026-03-29T13:06:19Z</time></trkpt><trkpt lat="42.85741838559969" lon="11.182332383290493"><ele>117.0</ele><time>2026-03-29T13:06:20Z</time></trkpt><trkpt lat="42.85730819381944" lon="11.182035896183011"><ele>117.0</ele><time>2026-03-29T13:06:21Z</time></trkpt><trkpt lat="42.85719732189056" lon="11.181730565215663"><ele>117.0</ele><time>2026-03-29T13:06:22Z</time></trkpt><trkpt lat="42.85708643366292" lon="11.181426961839268"><ele>112.5</ele><time>2026-03-29T13:06:23Z</time></trkpt><trkpt lat="42.856973535528525" lon="11.18112341179922"><ele>108.0</ele><time>2026-03-29T13:06:24Z</time></trkpt><trkpt lat="42.8568611018868" lon="11.180818778361264"><ele>107.0</ele><time>2026-03-29T13:06:25Z</time></trkpt><trkpt lat="42.85674975378214" lon="11.180518860037965"><ele>106.0</ele><time>2026-03-29T13:06:26Z</time></trkpt><trkpt lat="42.85663922386825" lon="11.180214964872256"><ele>106.0</ele><time>2026-03-29T13:06:27Z</time></trkpt><trkpt lat="42.85652814072404" lon="11.17990955347241"><ele>106.0</ele><time>2026-03-29T13:06:28Z</time></trkpt><trkpt lat="42.856414788430705" lon="11.179606609843756"><ele>104.5</ele><time>2026-03-29T13:06:29Z</time></trkpt><trkpt lat="42.85630201876253" lon="11.179303923517502"><ele>103.0</ele><time>2026-03-29T13:06:30Z</time></trkpt><trkpt lat="42.85618892969042" lon="11.178999698926912"><ele>100.5</ele><time>2026-03-29T13:06:31Z</time></trkpt><trkpt lat="42.85607540376768" lon="11.178692701770698"><ele>98.0</ele><time>2026-03-29T13:06:32Z</time></trkpt><trkpt lat="42.85595904137141" lon="11.17838452759294"><ele>97.0</ele><time>2026-03-29T13:06:33Z</time></trkpt><trkpt lat="42.85584291205902" lon="11.178070327068266"><ele>96.0</ele><time>2026-03-29T13:06:34Z</time></trkpt><trkpt lat="42.8557291521497" lon="11.177753584640524"><ele>96.0</ele><time>2026-03-29T13:06:35Z</time></trkpt><trkpt lat="42.85561165600463" lon="11.177436837381576"><ele>96.0</ele><time>2026-03-29T13:06:36Z</time></trkpt><trkpt lat="42.855492357488934" lon="11.177117267424373"><ele>94.0</ele><time>2026-03-29T13:06:37Z</time></trkpt><trkpt lat="42.85537468107293" lon="11.176796558218589"><ele>92.0</ele><time>2026-03-29T13:06:38Z</time></trkpt><trkpt lat="42.85525520189647" lon="11.176486136129656"><ele>90.5</ele><time>2026-03-29T13:06:39Z</time></trkpt><trkpt lat="42.85514293695334" lon="11.176174324400868"><ele>89.0</ele><time>2026-03-29T13:06:40Z</time></trkpt><trkpt lat="42.855033149934236" lon="11.17586191944208"><ele>87.5</ele><time>2026-03-29T13:06:41Z</time></trkpt><trkpt lat="42.85492374882385" lon="11.17554821090681"><ele>86.0</ele><time>2026-03-29T13:06:42Z</time></trkpt><trkpt lat="42.8548115381219" lon="11.175234182992378"><ele>86.0</ele><time>2026-03-29T13:06:43Z</time></trkpt><trkpt lat="42.854699575069354" lon="11.17492266789451"><ele>86.0</ele><time>2026-03-29T13:06:44Z</time></trkpt><trkpt lat="42.85458941006951" lon="11.17461193951251"><ele>82.0</ele><time>2026-03-29T13:06:45Z</time></trkpt><trkpt lat="42.85448251856621" lon="11.17429540950953"><ele>78.0</ele><time>2026-03-29T13:06:46Z</time></trkpt><trkpt lat="42.85438279266344" lon="11.173981636043685"><ele>76.0</ele><time>2026-03-29T13:06:47Z</time></trkpt><trkpt lat="42.85428797409008" lon="11.17366231805108"><ele>74.0</ele><time>2026-03-29T13:06:48Z</time></trkpt><trkpt lat="42.854203509681426" lon="11.17333710152793"><ele>73.0</ele><time>2026-03-29T13:06:49Z</time></trkpt><trkpt lat="42.85413007036627" lon="11.173010640649219"><ele>72.0</ele><time>2026-03-29T13:06:50Z</time></trkpt><trkpt lat="42.854066005713484" lon="11.172685159694552"><ele>72.0</ele><time>2026-03-29T13:06:51Z</time></trkpt><trkpt lat="42.854002235114265" lon="11.172358134782437"><ele>72.0</ele><time>2026-03-29T13:06:52Z</time></trkpt><trkpt lat="42.85394654620607" lon="11.172031948151831"><ele>71.5</ele><time>2026-03-29T13:06:53Z</time></trkpt><trkpt lat="42.853896632064846" lon="11.171703448876084"><ele>71.0</ele><time>2026-03-29T13:06:54Z</time></trkpt><trkpt lat="42.85385286394546" lon="11.171375185285168"><ele>71.0</ele><time>2026-03-29T13:06:55Z</time></trkpt><trkpt lat="42.85381399479118" lon="11.171046419990569"><ele>71.0</ele><time>2026-03-29T13:06:56Z</time></trkpt><trkpt lat="42.85378189064945" lon="11.170711768953728"><ele>70.5</ele><time>2026-03-29T13:06:57Z</time></trkpt><trkpt lat="42.853751900444756" lon="11.170381366863962"><ele>70.0</ele><time>2026-03-29T13:06:58Z</time></trkpt><trkpt lat="42.853721064888596" lon="11.170046553290245"><ele>69.5</ele><time>2026-03-29T13:06:59Z</time></trkpt><trkpt lat="42.85368947583363" lon="11.16971154222491"><ele>69.0</ele><time>2026-03-29T13:07:00Z</time></trkpt><trkpt lat="42.853658206756776" lon="11.169373788175289"><ele>69.0</ele><time>2026-03-29T13:07:01Z</time></trkpt><trkpt lat="42.85362880971445" lon="11.169037682341553"><ele>69.0</ele><time>2026-03-29T13:07:02Z</time></trkpt><trkpt lat="42.85359734839371" lon="11.168702429681941"><ele>68.5</ele><time>2026-03-29T13:07:03Z</time></trkpt><trkpt lat="42.853565331365765" lon="11.168362651186825"><ele>68.0</ele><time>2026-03-29T13:07:04Z</time></trkpt><trkpt lat="42.853529127792946" lon="11.168027763060325"><ele>69.0</ele><time>2026-03-29T13:07:05Z</time></trkpt><trkpt lat="42.853494755755165" lon="11.167690586112945"><ele>70.0</ele><time>2026-03-29T13:07:05.999Z</time></trkpt><trkpt lat="42.85345820938289" lon="11.16735743889822"><ele>70.0</ele><time>2026-03-29T13:07:06.999Z</time></trkpt><trkpt lat="42.85342049253556" lon="11.167021139166238"><ele>70.0</ele><time>2026-03-29T13:07:07.999Z</time></trkpt><trkpt lat="42.85337681223218" lon="11.16668689065606"><ele>71.5</ele><time>2026-03-29T13:07:08.999Z</time></trkpt><trkpt lat="42.85332992133371" lon="11.166349694229456"><ele>73.0</ele><time>2026-03-29T13:07:09.999Z</time></trkpt><trkpt lat="42.85327944227245" lon="11.166018615092568"><ele>73.5</ele><time>2026-03-29T13:07:10.999Z</time></trkpt><trkpt lat="42.85322546547746" lon="11.165682317446553"><ele>74.0</ele><time>2026-03-29T13:07:11.999Z</time></trkpt><trkpt lat="42.853166173083174" lon="11.165349966592359"><ele>74.0</ele><time>2026-03-29T13:07:12.999Z</time></trkpt><trkpt lat="42.85310051197857" lon="11.165014663717729"><ele>74.0</ele><time>2026-03-29T13:07:13.999Z</time></trkpt><trkpt lat="42.853025487486626" lon="11.164684924040676"><ele>74.5</ele><time>2026-03-29T13:07:14.999Z</time></trkpt><trkpt lat="42.85294163303839" lon="11.164359725912908"><ele>75.0</ele><time>2026-03-29T13:07:15.999Z</time></trkpt><trkpt lat="42.85285211976874" lon="11.164028655514125"><ele>75.0</ele><time>2026-03-29T13:07:16.999Z</time></trkpt><trkpt lat="42.852756807998254" lon="11.163709705219233"><ele>75.0</ele><time>2026-03-29T13:07:17.999Z</time></trkpt><trkpt lat="42.852655453929486" lon="11.163387956035843"><ele>74.5</ele><time>2026-03-29T13:07:18.999Z</time></trkpt><trkpt lat="42.85254140642375" lon="11.163068329477145"><ele>74.0</ele><time>2026-03-29T13:07:19.999Z</time></trkpt><trkpt lat="42.85242025964861" lon="11.162755357157051"><ele>74.0</ele><time>2026-03-29T13:07:20.999Z</time></trkpt><trkpt lat="42.852293100172524" lon="11.162444793580324"><ele>74.0</ele><time>2026-03-29T13:07:21.999Z</time></trkpt><trkpt lat="42.85216187138426" lon="11.162137083083149"><ele>73.5</ele><time>2026-03-29T13:07:22.999Z</time></trkpt><trkpt lat="42.8520231410948" lon="11.16183718929374"><ele>73.0</ele><time>2026-03-29T13:07:23.999Z</time></trkpt><trkpt lat="42.851878186073506" lon="11.161541808829945"><ele>71.5</ele><time>2026-03-29T13:07:24.999Z</time></trkpt><trkpt lat="42.851724385149794" lon="11.161253094430517"><ele>70.0</ele><time>2026-03-29T13:07:25.999Z</time></trkpt><trkpt lat="42.85156120592803" lon="11.16097177576643"><ele>70.5</ele><time>2026-03-29T13:07:26.999Z</time></trkpt><trkpt lat="42.85139130669925" lon="11.160693973147959"><ele>71.0</ele><time>2026-03-29T13:07:27.999Z</time></trkpt><trkpt lat="42.851216215962765" lon="11.160424557166754"><ele>71.0</ele><time>2026-03-29T13:07:28.999Z</time></trkpt><trkpt lat="42.85103195863883" lon="11.160159576485563"><ele>71.0</ele><time>2026-03-29T13:07:29.999Z</time></trkpt><trkpt lat="42.8508430491981" lon="11.159901905532367"><ele>70.5</ele><time>2026-03-29T13:07:30.999Z</time></trkpt><trkpt lat="42.85065200522416" lon="11.159663023980684"><ele>70.0</ele><time>2026-03-29T13:07:31.999Z</time></trkpt><trkpt lat="42.85046894564413" lon="11.159438621565295"><ele>70.0</ele><time>2026-03-29T13:07:32.999Z</time></trkpt><trkpt lat="42.85028911442141" lon="11.159234427337662"><ele>70.0</ele><time>2026-03-29T13:07:33.999Z</time></trkpt><trkpt lat="42.850112712895935" lon="11.159045967304964"><ele>69.33333333333333</ele><time>2026-03-29T13:07:34.999Z</time></trkpt><trkpt lat="42.84993916034875" lon="11.158872572989143"><ele>68.66666666666667</ele><time>2026-03-29T13:07:35.999Z</time></trkpt><trkpt lat="42.849760107947546" lon="11.158701004089904"><ele>68.0</ele><time>2026-03-29T13:07:36.999Z</time></trkpt><trkpt lat="42.84957797436169" lon="11.158536116814826"><ele>68.0</ele><time>2026-03-29T13:07:37.999Z</time></trkpt><trkpt lat="42.849380108772436" lon="11.158356070158435"><ele>68.0</ele><time>2026-03-29T13:07:38.999Z</time></trkpt><trkpt lat="42.84917860939084" lon="11.158182998367112"><ele>66.0</ele><time>2026-03-29T13:07:39.999Z</time></trkpt><trkpt lat="42.848970188115636" lon="11.158014008890547"><ele>64.0</ele><time>2026-03-29T13:07:40.999Z</time></trkpt><trkpt lat="42.848754889496696" lon="11.15784815605762"><ele>64.0</ele><time>2026-03-29T13:07:41.999Z</time></trkpt><trkpt lat="42.848537685111694" lon="11.157685241999843"><ele>64.0</ele><time>2026-03-29T13:07:42.999Z</time></trkpt><trkpt lat="42.84832540016514" lon="11.157533755963842"><ele>63.0</ele><time>2026-03-29T13:07:43.999Z</time></trkpt><trkpt lat="42.84810578879449" lon="11.157383811116864"><ele>62.0</ele><time>2026-03-29T13:07:44.999Z</time></trkpt><trkpt lat="42.84788306245328" lon="11.15723706408678"><ele>62.0</ele><time>2026-03-29T13:07:45.999Z</time></trkpt><trkpt lat="42.847657289817874" lon="11.15708890683966"><ele>62.0</ele><time>2026-03-29T13:07:46.999Z</time></trkpt><trkpt lat="42.84742974763474" lon="11.156939821850727"><ele>60.5</ele><time>2026-03-29T13:07:47.999Z</time></trkpt><trkpt lat="42.84719916052656" lon="11.1567902927301"><ele>59.0</ele><time>2026-03-29T13:07:48.999Z</time></trkpt><trkpt lat="42.846965693978376" lon="11.156641095632779"><ele>58.0</ele><time>2026-03-29T13:07:49.999Z</time></trkpt><trkpt lat="42.846729485806684" lon="11.15648823773746"><ele>57.0</ele><time>2026-03-29T13:07:50.999Z</time></trkpt><trkpt lat="42.846497748532585" lon="11.15633874810732"><ele>57.0</ele><time>2026-03-29T13:07:51.999Z</time></trkpt><trkpt lat="42.84627641640203" lon="11.156198087042329"><ele>57.0</ele><time>2026-03-29T13:07:52.999Z</time></trkpt><trkpt lat="42.84605297048336" lon="11.15605370914083"><ele>56.5</ele><time>2026-03-29T13:07:53.999Z</time></trkpt><trkpt lat="42.845828416477865" lon="11.155908786381918"><ele>56.0</ele><time>2026-03-29T13:07:54.999Z</time></trkpt><trkpt lat="42.84560534888488" lon="11.155763358259957"><ele>56.0</ele><time>2026-03-29T13:07:55.999Z</time></trkpt><trkpt lat="42.8453796075995" lon="11.155621890822307"><ele>56.0</ele><time>2026-03-29T13:07:56.999Z</time></trkpt><trkpt lat="42.84515490832075" lon="11.15548437260316"><ele>56.0</ele><time>2026-03-29T13:07:57.999Z</time></trkpt><trkpt lat="42.84493048831288" lon="11.155347389759648"><ele>56.0</ele><time>2026-03-29T13:07:58.999Z</time></trkpt><trkpt lat="42.84470285059872" lon="11.155208449778957"><ele>56.0</ele><time>2026-03-29T13:07:59.999Z</time></trkpt><trkpt lat="42.84447531861576" lon="11.155068402780659"><ele>56.0</ele><time>2026-03-29T13:08:00.999Z</time></trkpt><trkpt lat="42.84424680147535" lon="11.154921834849029"><ele>56.0</ele><time>2026-03-29T13:08:01.999Z</time></trkpt><trkpt lat="42.8440196192568" lon="11.154780598621862"><ele>56.0</ele><time>2026-03-29T13:08:02.999Z</time></trkpt><trkpt lat="42.84379049287146" lon="11.154636747199444"><ele>56.0</ele><time>2026-03-29T13:08:03.999Z</time></trkpt><trkpt lat="42.84355796305344" lon="11.154483328683519"><ele>56.0</ele><time>2026-03-29T13:08:04.999Z</time></trkpt><trkpt lat="42.84332840555764" lon="11.154325004949234"><ele>55.5</ele><time>2026-03-29T13:08:05.999Z</time></trkpt><trkpt lat="42.84309728255009" lon="11.154169348648988"><ele>55.0</ele><time>2026-03-29T13:08:07Z</time></trkpt><trkpt lat="42.842860281595506" lon="11.1540119912427"><ele>54.0</ele><time>2026-03-29T13:08:08Z</time></trkpt><trkpt lat="42.84262679794489" lon="11.153858155661183"><ele>53.0</ele><time>2026-03-29T13:08:09Z</time></trkpt><trkpt lat="42.8424006146908" lon="11.153714808796536"><ele>53.0</ele><time>2026-03-29T13:08:10Z</time></trkpt><trkpt lat="42.84217727170266" lon="11.153569520691518"><ele>53.0</ele><time>2026-03-29T13:08:11Z</time></trkpt><trkpt lat="42.8419541000262" lon="11.153421402536463"><ele>54.0</ele><time>2026-03-29T13:08:12Z</time></trkpt><trkpt lat="42.84172702477361" lon="11.153271990920775"><ele>55.0</ele><time>2026-03-29T13:08:13Z</time></trkpt><trkpt lat="42.84150252897105" lon="11.153122877790247"><ele>55.0</ele><time>2026-03-29T13:08:14Z</time></trkpt><trkpt lat="42.841280148814334" lon="11.152967272615317"><ele>55.0</ele><time>2026-03-29T13:08:15Z</time></trkpt><trkpt lat="42.84106032396191" lon="11.152811777492305"><ele>53.5</ele><time>2026-03-29T13:08:16Z</time></trkpt><trkpt lat="42.840838910252515" lon="11.152652066636833"><ele>52.0</ele><time>2026-03-29T13:08:17Z</time></trkpt><trkpt lat="42.84061635648656" lon="11.152490218639912"><ele>53.5</ele><time>2026-03-29T13:08:18Z</time></trkpt><trkpt lat="42.84039953367462" lon="11.152325132075672"><ele>55.0</ele><time>2026-03-29T13:08:19Z</time></trkpt><trkpt lat="42.84018392672423" lon="11.152151588488397"><ele>54.5</ele><time>2026-03-29T13:08:20Z</time></trkpt><trkpt lat="42.83996805664345" lon="11.151975499379134"><ele>54.0</ele><time>2026-03-29T13:08:21Z</time></trkpt><trkpt lat="42.839759221013715" lon="11.151798006269136"><ele>54.0</ele><time>2026-03-29T13:08:22Z</time></trkpt><trkpt lat="42.839552385146014" lon="11.15161633807094"><ele>54.0</ele><time>2026-03-29T13:08:23Z</time></trkpt><trkpt lat="42.83934946184702" lon="11.151433636327296"><ele>55.5</ele><time>2026-03-29T13:08:24Z</time></trkpt><trkpt lat="42.83914729662914" lon="11.151247579551988"><ele>57.0</ele><time>2026-03-29T13:08:25Z</time></trkpt><trkpt lat="42.83894788846846" lon="11.151059204051325"><ele>57.0</ele><time>2026-03-29T13:08:26Z</time></trkpt><trkpt lat="42.838748755129934" lon="11.15086873337185"><ele>57.0</ele><time>2026-03-29T13:08:27Z</time></trkpt><trkpt lat="42.83855084368032" lon="11.150672960181494"><ele>54.5</ele><time>2026-03-29T13:08:28Z</time></trkpt><trkpt lat="42.838357912654466" lon="11.150476223441894"><ele>52.0</ele><time>2026-03-29T13:08:29Z</time></trkpt><trkpt lat="42.838168080667224" lon="11.150275029697797"><ele>52.0</ele><time>2026-03-29T13:08:30Z</time></trkpt><trkpt lat="42.83797804063831" lon="11.150068961157217"><ele>52.0</ele><time>2026-03-29T13:08:31Z</time></trkpt><trkpt lat="42.83779235966065" lon="11.149859804071479"><ele>50.0</ele><time>2026-03-29T13:08:32Z</time></trkpt><trkpt lat="42.83760623140509" lon="11.149650445450291"><ele>48.0</ele><time>2026-03-29T13:08:33Z</time></trkpt><trkpt lat="42.8374223641549" lon="11.149436374063296"><ele>48.0</ele><time>2026-03-29T13:08:34Z</time></trkpt><trkpt lat="42.837240375559176" lon="11.149219441941781"><ele>48.0</ele><time>2026-03-29T13:08:35Z</time></trkpt><trkpt lat="42.83705960531494" lon="11.149001973686662"><ele>47.0</ele><time>2026-03-29T13:08:36Z</time></trkpt><trkpt lat="42.83688007713219" lon="11.148786046563188"><ele>46.0</ele><time>2026-03-29T13:08:37Z</time></trkpt><trkpt lat="42.83670473580246" lon="11.148573960687308"><ele>45.5</ele><time>2026-03-29T13:08:38Z</time></trkpt><trkpt lat="42.836524611641124" lon="11.148352463632419"><ele>45.0</ele><time>2026-03-29T13:08:39Z</time></trkpt><trkpt lat="42.83634562903541" lon="11.14813641371834"><ele>47.0</ele><time>2026-03-29T13:08:40Z</time></trkpt><trkpt lat="42.83616153002293" lon="11.147913087334357"><ele>49.0</ele><time>2026-03-29T13:08:41Z</time></trkpt><trkpt lat="42.83597754041607" lon="11.147689634244774"><ele>48.0</ele><time>2026-03-29T13:08:42Z</time></trkpt><trkpt lat="42.83579398420148" lon="11.147469160434817"><ele>47.0</ele><time>2026-03-29T13:08:43Z</time></trkpt><trkpt lat="42.83561077765818" lon="11.147247593910805"><ele>49.5</ele><time>2026-03-29T13:08:44Z</time></trkpt><trkpt lat="42.83542632396493" lon="11.147029530268087"><ele>52.0</ele><time>2026-03-29T13:08:45Z</time></trkpt><trkpt lat="42.83524149714486" lon="11.14681102305149"><ele>52.0</ele><time>2026-03-29T13:08:46Z</time></trkpt><trkpt lat="42.835056833923424" lon="11.146589245719793"><ele>52.0</ele><time>2026-03-29T13:08:47Z</time></trkpt><trkpt lat="42.83487034240223" lon="11.14636361086905"><ele>52.0</ele><time>2026-03-29T13:08:48Z</time></trkpt><trkpt lat="42.83468563241376" lon="11.146139887907903"><ele>52.0</ele><time>2026-03-29T13:08:49Z</time></trkpt><trkpt lat="42.834500353228144" lon="11.145913838060187"><ele>54.0</ele><time>2026-03-29T13:08:50Z</time></trkpt><trkpt lat="42.834314145481606" lon="11.145689798049213"><ele>56.0</ele><time>2026-03-29T13:08:51Z</time></trkpt><trkpt lat="42.83412681616629" lon="11.145465721676127"><ele>51.5</ele><time>2026-03-29T13:08:52Z</time></trkpt><trkpt lat="42.83393800000698" lon="11.145236792884885"><ele>47.0</ele><time>2026-03-29T13:08:53Z</time></trkpt><trkpt lat="42.83375259542205" lon="11.145009547374395"><ele>47.5</ele><time>2026-03-29T13:08:54Z</time></trkpt><trkpt lat="42.83356382224814" lon="11.144785819532007"><ele>48.0</ele><time>2026-03-29T13:08:55Z</time></trkpt><trkpt lat="42.833373449018964" lon="11.144557947155898"><ele>48.0</ele><time>2026-03-29T13:08:56Z</time></trkpt><trkpt lat="42.833184851462164" lon="11.144332284419642"><ele>48.0</ele><time>2026-03-29T13:08:57Z</time></trkpt><trkpt lat="42.83299478789479" lon="11.144103348017275"><ele>46.0</ele><time>2026-03-29T13:08:58Z</time></trkpt><trkpt lat="42.83280108776287" lon="11.143869884708781"><ele>44.0</ele><time>2026-03-29T13:08:59Z</time></trkpt><trkpt lat="42.83261096080711" lon="11.14363773139852"><ele>44.0</ele><time>2026-03-29T13:09:00Z</time></trkpt><trkpt lat="42.832417868637336" lon="11.143406149606015"><ele>44.0</ele><time>2026-03-29T13:09:01Z</time></trkpt><trkpt lat="42.832233901567825" lon="11.143187137666052"><ele>46.5</ele><time>2026-03-29T13:09:02Z</time></trkpt><trkpt lat="42.83205072327525" lon="11.14297187740954"><ele>49.0</ele><time>2026-03-29T13:09:03Z</time></trkpt><trkpt lat="42.831869168820354" lon="11.142755630137385"><ele>45.0</ele><time>2026-03-29T13:09:04Z</time></trkpt><trkpt lat="42.831681477131305" lon="11.14253583315593"><ele>41.0</ele><time>2026-03-29T13:09:05Z</time></trkpt><trkpt lat="42.83149498538344" lon="11.142320269744985"><ele>41.0</ele><time>2026-03-29T13:09:06Z</time></trkpt><trkpt lat="42.83130265291175" lon="11.142104849271009"><ele>41.0</ele><time>2026-03-29T13:09:07Z</time></trkpt><trkpt lat="42.83111031172878" lon="11.141887221540559"><ele>40.0</ele><time>2026-03-29T13:09:08Z</time></trkpt><trkpt lat="42.830920850982395" lon="11.141683950157711"><ele>39.0</ele><time>2026-03-29T13:09:09Z</time></trkpt><trkpt lat="42.83074096094054" lon="11.14149405551723"><ele>39.0</ele><time>2026-03-29T13:09:09.999Z</time></trkpt><trkpt lat="42.830554901474805" lon="11.141304261323135"><ele>39.0</ele><time>2026-03-29T13:09:10.999Z</time></trkpt><trkpt lat="42.8303661896143" lon="11.141116814173275"><ele>39.0</ele><time>2026-03-29T13:09:11.999Z</time></trkpt><trkpt lat="42.830174528043315" lon="11.140930094125826"><ele>39.0</ele><time>2026-03-29T13:09:12.999Z</time></trkpt><trkpt lat="42.829976819855204" lon="11.140740060359073"><ele>37.5</ele><time>2026-03-29T13:09:13.999Z</time></trkpt><trkpt lat="42.82977853871048" lon="11.140555624645541"><ele>36.0</ele><time>2026-03-29T13:09:14.999Z</time></trkpt><trkpt lat="42.82957911909739" lon="11.140371849143161"><ele>36.0</ele><time>2026-03-29T13:09:15.999Z</time></trkpt><trkpt lat="42.829379484874835" lon="11.140187286276364"><ele>36.0</ele><time>2026-03-29T13:09:16.999Z</time></trkpt><trkpt lat="42.8291853940192" lon="11.14001686529195"><ele>36.0</ele><time>2026-03-29T13:09:17.999Z</time></trkpt><trkpt lat="42.82899999729543" lon="11.13985369070047"><ele>36.0</ele><time>2026-03-29T13:09:18.999Z</time></trkpt><trkpt lat="42.82881313932356" lon="11.139681887413598"><ele>36.0</ele><time>2026-03-29T13:09:19.999Z</time></trkpt><trkpt lat="42.82862163227171" lon="11.139506048272645"><ele>36.0</ele><time>2026-03-29T13:09:20.999Z</time></trkpt><trkpt lat="42.828423135729444" lon="11.139327231129945"><ele>36.0</ele><time>2026-03-29T13:09:21.999Z</time></trkpt><trkpt lat="42.82822590628174" lon="11.139149689879751"><ele>35.0</ele><time>2026-03-29T13:09:22.999Z</time></trkpt><trkpt lat="42.82802685026593" lon="11.138974889750928"><ele>34.0</ele><time>2026-03-29T13:09:23.999Z</time></trkpt><trkpt lat="42.827824665468846" lon="11.138799593933369"><ele>35.0</ele><time>2026-03-29T13:09:24.999Z</time></trkpt><trkpt lat="42.82762213524143" lon="11.138623151348725"><ele>36.0</ele><time>2026-03-29T13:09:25.999Z</time></trkpt><trkpt lat="42.82741984900649" lon="11.138442504257085"><ele>36.0</ele><time>2026-03-29T13:09:26.999Z</time></trkpt><trkpt lat="42.82721416478917" lon="11.13825966583649"><ele>36.0</ele><time>2026-03-29T13:09:27.999Z</time></trkpt><trkpt lat="42.82700629866482" lon="11.138078575384162"><ele>36.0</ele><time>2026-03-29T13:09:28.999Z</time></trkpt><trkpt lat="42.826796385661694" lon="11.137895205611505"><ele>36.0</ele><time>2026-03-29T13:09:29.999Z</time></trkpt><trkpt lat="42.8265886131193" lon="11.137711809199798"><ele>36.0</ele><time>2026-03-29T13:09:30.999Z</time></trkpt><trkpt lat="42.82637859550463" lon="11.137527456559686"><ele>36.0</ele><time>2026-03-29T13:09:31.999Z</time></trkpt><trkpt lat="42.82616710242806" lon="11.137338383351342"><ele>35.5</ele><time>2026-03-29T13:09:32.999Z</time></trkpt><trkpt lat="42.82595542301004" lon="11.137147191815705"><ele>35.0</ele><time>2026-03-29T13:09:33.999Z</time></trkpt><trkpt lat="42.82574267628988" lon="11.136953302305708"><ele>35.0</ele><time>2026-03-29T13:09:34.999Z</time></trkpt><trkpt lat="42.825529359820585" lon="11.136763641987178"><ele>35.0</ele><time>2026-03-29T13:09:35.999Z</time></trkpt><trkpt lat="42.82531245704226" lon="11.13657045515404"><ele>36.0</ele><time>2026-03-29T13:09:36.999Z</time></trkpt><trkpt lat="42.82509413382839" lon="11.136377641772748"><ele>37.0</ele><time>2026-03-29T13:09:37.999Z</time></trkpt><trkpt lat="42.82487846572415" lon="11.13618588169606"><ele>37.0</ele><time>2026-03-29T13:09:38.999Z</time></trkpt><trkpt lat="42.824662253235076" lon="11.135997144685657"><ele>37.0</ele><time>2026-03-29T13:09:39.999Z</time></trkpt><trkpt lat="42.82444573227396" lon="11.135806207187628"><ele>35.5</ele><time>2026-03-29T13:09:40.999Z</time></trkpt><trkpt lat="42.82422785434292" lon="11.135615265403713"><ele>34.0</ele><time>2026-03-29T13:09:41.999Z</time></trkpt><trkpt lat="42.824009151088674" lon="11.135421136760842"><ele>34.0</ele><time>2026-03-29T13:09:42.999Z</time></trkpt><trkpt lat="42.82379578957849" lon="11.13522881765782"><ele>34.0</ele><time>2026-03-29T13:09:43.999Z</time></trkpt><trkpt lat="42.82357785429033" lon="11.1350333360475"><ele>32.5</ele><time>2026-03-29T13:09:44.999Z</time></trkpt><trkpt lat="42.82336382154603" lon="11.134838583282704"><ele>31.0</ele><time>2026-03-29T13:09:45.999Z</time></trkpt><trkpt lat="42.82315044705948" lon="11.13464818896791"><ele>31.0</ele><time>2026-03-29T13:09:46.999Z</time></trkpt><trkpt lat="42.82293572721075" lon="11.134461231662332"><ele>31.0</ele><time>2026-03-29T13:09:47.999Z</time></trkpt><trkpt lat="42.82272099602675" lon="11.134266871443517"><ele>30.5</ele><time>2026-03-29T13:09:48.999Z</time></trkpt><trkpt lat="42.82250569199339" lon="11.134079031096404"><ele>30.0</ele><time>2026-03-29T13:09:49.999Z</time></trkpt><trkpt lat="42.8222930890082" lon="11.133887991291333"><ele>29.5</ele><time>2026-03-29T13:09:50.999Z</time></trkpt><trkpt lat="42.8220783597736" lon="11.13369580280777"><ele>29.0</ele><time>2026-03-29T13:09:51.999Z</time></trkpt><trkpt lat="42.82186530242414" lon="11.133504755309207"><ele>29.5</ele><time>2026-03-29T13:09:52.999Z</time></trkpt><trkpt lat="42.8216495590256" lon="11.133314906115906"><ele>30.0</ele><time>2026-03-29T13:09:53.999Z</time></trkpt><trkpt lat="42.82143513148005" lon="11.133128925894558"><ele>28.5</ele><time>2026-03-29T13:09:54.999Z</time></trkpt><trkpt lat="42.82122052844583" lon="11.132941436235361"><ele>27.0</ele><time>2026-03-29T13:09:55.999Z</time></trkpt><trkpt lat="42.82100865966936" lon="11.132753866403265"><ele>27.5</ele><time>2026-03-29T13:09:56.999Z</time></trkpt><trkpt lat="42.82079688693115" lon="11.132571402683359"><ele>28.0</ele><time>2026-03-29T13:09:57.999Z</time></trkpt><trkpt lat="42.82058639477756" lon="11.132385869230225"><ele>26.0</ele><time>2026-03-29T13:09:58.999Z</time></trkpt><trkpt lat="42.82037458295346" lon="11.132204472442316"><ele>24.0</ele><time>2026-03-29T13:09:59.999Z</time></trkpt><trkpt lat="42.82015702236183" lon="11.132040268976922"><ele>25.0</ele><time>2026-03-29T13:10:00.999Z</time></trkpt><trkpt lat="42.81993511949996" lon="11.131890679874157"><ele>26.0</ele><time>2026-03-29T13:10:01.999Z</time></trkpt><trkpt lat="42.81971247301431" lon="11.131755321179469"><ele>26.0</ele><time>2026-03-29T13:10:02.999Z</time></trkpt><trkpt lat="42.81948232053336" lon="11.131632335990796"><ele>26.0</ele><time>2026-03-29T13:10:03.999Z</time></trkpt><trkpt lat="42.819251367216374" lon="11.131522692665861"><ele>24.5</ele><time>2026-03-29T13:10:04.999Z</time></trkpt><trkpt lat="42.81901760780842" lon="11.131428582944817"><ele>23.0</ele><time>2026-03-29T13:10:05.999Z</time></trkpt><trkpt lat="42.81878547178309" lon="11.131346441288132"><ele>23.0</ele><time>2026-03-29T13:10:06.999Z</time></trkpt><trkpt lat="42.8185507203809" lon="11.131281544734165"><ele>23.0</ele><time>2026-03-29T13:10:07.999Z</time></trkpt><trkpt lat="42.81831663157285" lon="11.131225923428897"><ele>22.5</ele><time>2026-03-29T13:10:08.999Z</time></trkpt><trkpt lat="42.818079511013735" lon="11.131188552909801"><ele>22.0</ele><time>2026-03-29T13:10:09.999Z</time></trkpt><trkpt lat="42.81784549087825" lon="11.13116963049842"><ele>22.0</ele><time>2026-03-29T13:10:10.999Z</time></trkpt><trkpt lat="42.81760915095182" lon="11.131163928402952"><ele>22.0</ele><time>2026-03-29T13:10:11.999Z</time></trkpt><trkpt lat="42.81737216605784" lon="11.131176066380705"><ele>22.0</ele><time>2026-03-29T13:10:13Z</time></trkpt><trkpt lat="42.817136487568774" lon="11.13119712297135"><ele>22.0</ele><time>2026-03-29T13:10:14Z</time></trkpt><trkpt lat="42.81690072909074" lon="11.131231762859692"><ele>22.0</ele><time>2026-03-29T13:10:15Z</time></trkpt><trkpt lat="42.81666431708566" lon="11.131277751823445"><ele>22.0</ele><time>2026-03-29T13:10:16Z</time></trkpt><trkpt lat="42.81642956507744" lon="11.131333693867715"><ele>22.0</ele><time>2026-03-29T13:10:17Z</time></trkpt><trkpt lat="42.81619629567662" lon="11.131395079923008"><ele>22.0</ele><time>2026-03-29T13:10:18Z</time></trkpt><trkpt lat="42.81596206087037" lon="11.131457852796744"><ele>22.5</ele><time>2026-03-29T13:10:19Z</time></trkpt><trkpt lat="42.81572401572141" lon="11.13151791902793"><ele>23.0</ele><time>2026-03-29T13:10:20Z</time></trkpt><trkpt lat="42.81549026836288" lon="11.131571450992823"><ele>23.0</ele><time>2026-03-29T13:10:21Z</time></trkpt><trkpt lat="42.815256002942014" lon="11.131626842050668"><ele>23.0</ele><time>2026-03-29T13:10:22Z</time></trkpt><trkpt lat="42.81502084704232" lon="11.131686547586213"><ele>23.0</ele><time>2026-03-29T13:10:23Z</time></trkpt><trkpt lat="42.814785093582266" lon="11.131743838146626"><ele>23.0</ele><time>2026-03-29T13:10:24Z</time></trkpt><trkpt lat="42.814550807832426" lon="11.131799529712122"><ele>22.0</ele><time>2026-03-29T13:10:25Z</time></trkpt><trkpt lat="42.81431584378825" lon="11.131859251186908"><ele>21.0</ele><time>2026-03-29T13:10:26Z</time></trkpt><trkpt lat="42.814082747155744" lon="11.131917397111678"><ele>21.0</ele><time>2026-03-29T13:10:27Z</time></trkpt><trkpt lat="42.81385017383384" lon="11.131972289371516"><ele>21.0</ele><time>2026-03-29T13:10:28Z</time></trkpt><trkpt lat="42.81361692693119" lon="11.132029471058548"><ele>21.0</ele><time>2026-03-29T13:10:29Z</time></trkpt><trkpt lat="42.81338465413399" lon="11.132084383124075"><ele>21.0</ele><time>2026-03-29T13:10:30Z</time></trkpt><trkpt lat="42.81315626379361" lon="11.132139101663697"><ele>21.0</ele><time>2026-03-29T13:10:31Z</time></trkpt><trkpt lat="42.81292749976745" lon="11.132197946255943"><ele>21.0</ele><time>2026-03-29T13:10:32Z</time></trkpt><trkpt lat="42.81269920187318" lon="11.132257506781817"><ele>21.5</ele><time>2026-03-29T13:10:33Z</time></trkpt><trkpt lat="42.812474967175184" lon="11.132311868610914"><ele>22.0</ele><time>2026-03-29T13:10:34Z</time></trkpt><trkpt lat="42.812247704419796" lon="11.132367455931778"><ele>22.5</ele><time>2026-03-29T13:10:35Z</time></trkpt><trkpt lat="42.8120244524812" lon="11.132419807299078"><ele>23.0</ele><time>2026-03-29T13:10:36Z</time></trkpt><trkpt lat="42.81180090251494" lon="11.132472964106132"><ele>23.0</ele><time>2026-03-29T13:10:37Z</time></trkpt><trkpt lat="42.81157920313896" lon="11.1325286189275"><ele>23.0</ele><time>2026-03-29T13:10:38Z</time></trkpt><trkpt lat="42.81135611934964" lon="11.132588352577477"><ele>23.0</ele><time>2026-03-29T13:10:39Z</time></trkpt><trkpt lat="42.811132580355036" lon="11.132647304405277"><ele>23.0</ele><time>2026-03-29T13:10:40Z</time></trkpt><trkpt lat="42.81090670910924" lon="11.132701551162011"><ele>22.5</ele><time>2026-03-29T13:10:41Z</time></trkpt><trkpt lat="42.81068051965268" lon="11.132754838302938"><ele>22.0</ele><time>2026-03-29T13:10:42Z</time></trkpt><trkpt lat="42.81045405024584" lon="11.132807115136059"><ele>22.0</ele><time>2026-03-29T13:10:43Z</time></trkpt><trkpt lat="42.810225216896214" lon="11.132861206957053"><ele>22.0</ele><time>2026-03-29T13:10:44Z</time></trkpt><trkpt lat="42.809997588702565" lon="11.132917637028646"><ele>22.0</ele><time>2026-03-29T13:10:45Z</time></trkpt><trkpt lat="42.80976825630993" lon="11.132973834823309"><ele>22.0</ele><time>2026-03-29T13:10:46Z</time></trkpt><trkpt lat="42.809535310044666" lon="11.133031659082004"><ele>21.5</ele><time>2026-03-29T13:10:47Z</time></trkpt><trkpt lat="42.80930357838426" lon="11.133088965923543"><ele>21.0</ele><time>2026-03-29T13:10:48Z</time></trkpt><trkpt lat="42.80906805845553" lon="11.133149287530003"><ele>21.0</ele><time>2026-03-29T13:10:49Z</time></trkpt><trkpt lat="42.80883048956211" lon="11.133211557050183"><ele>21.0</ele><time>2026-03-29T13:10:50Z</time></trkpt><trkpt lat="42.8085926063824" lon="11.133272718847321"><ele>20.5</ele><time>2026-03-29T13:10:51Z</time></trkpt><trkpt lat="42.808347184849545" lon="11.133342469569106"><ele>20.0</ele><time>2026-03-29T13:10:52Z</time></trkpt><trkpt lat="42.808108074163236" lon="11.133397515573375"><ele>20.0</ele><time>2026-03-29T13:10:53Z</time></trkpt><trkpt lat="42.80786793110923" lon="11.133454748664152"><ele>20.0</ele><time>2026-03-29T13:10:54Z</time></trkpt><trkpt lat="42.80762679007864" lon="11.133509036181254"><ele>19.5</ele><time>2026-03-29T13:10:55Z</time></trkpt><trkpt lat="42.80738326187161" lon="11.133567485058943"><ele>19.0</ele><time>2026-03-29T13:10:56Z</time></trkpt><trkpt lat="42.807139287637035" lon="11.133631150146414"><ele>19.0</ele><time>2026-03-29T13:10:57Z</time></trkpt><trkpt lat="42.806894521425114" lon="11.133691976109448"><ele>19.0</ele><time>2026-03-29T13:10:58Z</time></trkpt><trkpt lat="42.80665141261785" lon="11.133749385898604"><ele>17.5</ele><time>2026-03-29T13:10:59Z</time></trkpt><trkpt lat="42.80640746002493" lon="11.133807984370561"><ele>16.0</ele><time>2026-03-29T13:11:00Z</time></trkpt><trkpt lat="42.80616324263573" lon="11.133868467809162"><ele>17.0</ele><time>2026-03-29T13:11:01Z</time></trkpt><trkpt lat="42.8059155633513" lon="11.133930685384232"><ele>18.0</ele><time>2026-03-29T13:11:02Z</time></trkpt><trkpt lat="42.80566771637103" lon="11.133994218277591"><ele>18.0</ele><time>2026-03-29T13:11:03Z</time></trkpt><trkpt lat="42.80541902803406" lon="11.13405187340117"><ele>18.0</ele><time>2026-03-29T13:11:04Z</time></trkpt><trkpt lat="42.805182212387464" lon="11.134101939031519"><ele>18.333333333333332</ele><time>2026-03-29T13:11:05Z</time></trkpt><trkpt lat="42.80496127601457" lon="11.134147269929263"><ele>18.666666666666664</ele><time>2026-03-29T13:11:06Z</time></trkpt><trkpt lat="42.80475208851361" lon="11.134185208617492"><ele>19.0</ele><time>2026-03-29T13:11:07Z</time></trkpt><trkpt lat="42.804548697076" lon="11.134220726790542"><ele>19.0</ele><time>2026-03-29T13:11:08Z</time></trkpt><trkpt lat="42.804354196867884" lon="11.134250316071691"><ele>19.0</ele><time>2026-03-29T13:11:09Z</time></trkpt><trkpt lat="42.80416843943092" lon="11.134273374132023"><ele>19.0</ele><time>2026-03-29T13:11:10Z</time></trkpt><trkpt lat="42.8039740200483" lon="11.134283122988693"><ele>18.666666666666664</ele><time>2026-03-29T13:11:11Z</time></trkpt><trkpt lat="42.80378012384548" lon="11.134293393138426"><ele>18.333333333333332</ele><time>2026-03-29T13:11:12Z</time></trkpt><trkpt lat="42.80361014967055" lon="11.134290104473509"><ele>18.0</ele><time>2026-03-29T13:11:13Z</time></trkpt><trkpt lat="42.803449710686806" lon="11.134289533891597"><ele>17.75</ele><time>2026-03-29T13:11:14Z</time></trkpt><trkpt lat="42.803304071798614" lon="11.134279989217495"><ele>17.5</ele><time>2026-03-29T13:11:15Z</time></trkpt><trkpt lat="42.803170997575926" lon="11.1342557933276"><ele>17.25</ele><time>2026-03-29T13:11:16Z</time></trkpt><trkpt lat="42.803043983855936" lon="11.134231301869606"><ele>17.0</ele><time>2026-03-29T13:11:16.999Z</time></trkpt><trkpt lat="42.8029198792337" lon="11.134205000883604"><ele>17.0</ele><time>2026-03-29T13:11:17.999Z</time></trkpt><trkpt lat="42.80278499662952" lon="11.134173908163433"><ele>17.0</ele><time>2026-03-29T13:11:18.999Z</time></trkpt><trkpt lat="42.80263653698273" lon="11.134125093557861"><ele>17.0</ele><time>2026-03-29T13:11:19.999Z</time></trkpt><trkpt lat="42.80247495879836" lon="11.134062656813326"><ele>16.666666666666668</ele><time>2026-03-29T13:11:20.999Z</time></trkpt><trkpt lat="42.802300039413595" lon="11.133983264529297"><ele>16.333333333333332</ele><time>2026-03-29T13:11:21.999Z</time></trkpt><trkpt lat="42.80211614633729" lon="11.133892558678347"><ele>16.0</ele><time>2026-03-29T13:11:22.999Z</time></trkpt><trkpt lat="42.80193715464102" lon="11.133791953024533"><ele>16.333333333333332</ele><time>2026-03-29T13:11:23.999Z</time></trkpt><trkpt lat="42.8017665002189" lon="11.133686194888286"><ele>16.666666666666668</ele><time>2026-03-29T13:11:24.999Z</time></trkpt><trkpt lat="42.80159138721985" lon="11.1335777308873"><ele>17.0</ele><time>2026-03-29T13:11:25.999Z</time></trkpt><trkpt lat="42.80141543676208" lon="11.133445053507764"><ele>17.0</ele><time>2026-03-29T13:11:26.999Z</time></trkpt><trkpt lat="42.8012503841058" lon="11.133297528290049"><ele>17.0</ele><time>2026-03-29T13:11:27.999Z</time></trkpt><trkpt lat="42.80109290985612" lon="11.133149490078173"><ele>17.0</ele><time>2026-03-29T13:11:28.999Z</time></trkpt><trkpt lat="42.800930301836644" lon="11.13299416266527"><ele>16.333333333333336</ele><time>2026-03-29T13:11:29.999Z</time></trkpt><trkpt lat="42.800766553747074" lon="11.132828209325979"><ele>15.666666666666668</ele><time>2026-03-29T13:11:30.999Z</time></trkpt><trkpt lat="42.800604857671544" lon="11.132654345751293"><ele>15.0</ele><time>2026-03-29T13:11:31.999Z</time></trkpt><trkpt lat="42.80044450514028" lon="11.1324829046172"><ele>14.666666666666668</ele><time>2026-03-29T13:11:32.999Z</time></trkpt><trkpt lat="42.80028428168467" lon="11.132306452407697"><ele>14.333333333333334</ele><time>2026-03-29T13:11:33.999Z</time></trkpt><trkpt lat="42.800133625873535" lon="11.132138481316082"><ele>14.0</ele><time>2026-03-29T13:11:34.999Z</time></trkpt><trkpt lat="42.79998205392556" lon="11.131979055930692"><ele>13.666666666666668</ele><time>2026-03-29T13:11:35.999Z</time></trkpt><trkpt lat="42.79982851909124" lon="11.131814606638777"><ele>13.333333333333332</ele><time>2026-03-29T13:11:36.999Z</time></trkpt><trkpt lat="42.799673076126425" lon="11.131648203564769"><ele>13.0</ele><time>2026-03-29T13:11:37.999Z</time></trkpt><trkpt lat="42.799515485299274" lon="11.131480336062085"><ele>13.0</ele><time>2026-03-29T13:11:38.999Z</time></trkpt><trkpt lat="42.79935436845013" lon="11.131310815826561"><ele>13.0</ele><time>2026-03-29T13:11:39.999Z</time></trkpt><trkpt lat="42.79919237970919" lon="11.131134375642947"><ele>13.0</ele><time>2026-03-29T13:11:40.999Z</time></trkpt><trkpt lat="42.79902957614496" lon="11.13096026744135"><ele>13.666666666666666</ele><time>2026-03-29T13:11:41.999Z</time></trkpt><trkpt lat="42.798874823283896" lon="11.130790709437353"><ele>14.333333333333332</ele><time>2026-03-29T13:11:42.999Z</time></trkpt><trkpt lat="42.79872300681004" lon="11.130634747452044"><ele>15.0</ele><time>2026-03-29T13:11:43.999Z</time></trkpt><trkpt lat="42.79857341155621" lon="11.130492165742291"><ele>14.666666666666668</ele><time>2026-03-29T13:11:44.999Z</time></trkpt><trkpt lat="42.798422465115976" lon="11.130356856600244"><ele>14.333333333333334</ele><time>2026-03-29T13:11:45.999Z</time></trkpt><trkpt lat="42.798278212530974" lon="11.130230634495263"><ele>14.0</ele><time>2026-03-29T13:11:46.999Z</time></trkpt><trkpt lat="42.79814317857386" lon="11.130115526033634"><ele>14.0</ele><time>2026-03-29T13:11:47.999Z</time></trkpt><trkpt lat="42.79801283898367" lon="11.130000935284938"><ele>14.0</ele><time>2026-03-29T13:11:48.999Z</time></trkpt><trkpt lat="42.79789675879696" lon="11.12987893297839"><ele>14.0</ele><time>2026-03-29T13:11:49.999Z</time></trkpt><trkpt lat="42.79779750543211" lon="11.12974994829926"><ele>14.0</ele><time>2026-03-29T13:11:50.999Z</time></trkpt><trkpt lat="42.797704189675244" lon="11.129604391416818"><ele>13.75</ele><time>2026-03-29T13:11:51.999Z</time></trkpt><trkpt lat="42.79761921962119" lon="11.12944701005432"><ele>13.5</ele><time>2026-03-29T13:11:52.999Z</time></trkpt><trkpt lat="42.79754431258555" lon="11.129285222829877"><ele>13.25</ele><time>2026-03-29T13:11:53.999Z</time></trkpt><trkpt lat="42.79748320770081" lon="11.129131346114848"><ele>13.0</ele><time>2026-03-29T13:11:54.999Z</time></trkpt><trkpt lat="42.797430750284704" lon="11.128975013391567"><ele>13.0</ele><time>2026-03-29T13:11:55.999Z</time></trkpt><trkpt lat="42.79738706434883" lon="11.128799158269162"><ele>13.0</ele><time>2026-03-29T13:11:56.999Z</time></trkpt><trkpt lat="42.797351095909804" lon="11.128610140803072"><ele>13.0</ele><time>2026-03-29T13:11:57.999Z</time></trkpt><trkpt lat="42.79732563678948" lon="11.128408280082073"><ele>13.0</ele><time>2026-03-29T13:11:58.999Z</time></trkpt><trkpt lat="42.79730514804962" lon="11.128192574307016"><ele>13.0</ele><time>2026-03-29T13:11:59.999Z</time></trkpt><trkpt lat="42.79728328895234" lon="11.127968116691404"><ele>13.0</ele><time>2026-03-29T13:12:00.999Z</time></trkpt><trkpt lat="42.79725643193032" lon="11.127732648692604"><ele>13.0</ele><time>2026-03-29T13:12:01.999Z</time></trkpt><trkpt lat="42.79723206653357" lon="11.127490865340944"><ele>13.0</ele><time>2026-03-29T13:12:02.999Z</time></trkpt><trkpt lat="42.79720702159251" lon="11.12723832929672"><ele>13.0</ele><time>2026-03-29T13:12:03.999Z</time></trkpt><trkpt lat="42.79717857960441" lon="11.126973475034637"><ele>13.0</ele><time>2026-03-29T13:12:04.999Z</time></trkpt><trkpt lat="42.79715121973762" lon="11.126695105763286"><ele>13.0</ele><time>2026-03-29T13:12:05.999Z</time></trkpt><trkpt lat="42.79713178408525" lon="11.126432028393056"><ele>13.0</ele><time>2026-03-29T13:12:06.999Z</time></trkpt><trkpt lat="42.79711802200605" lon="11.126179618267228"><ele>13.0</ele><time>2026-03-29T13:12:07.999Z</time></trkpt><trkpt lat="42.79710339289456" lon="11.125932636015303"><ele>13.0</ele><time>2026-03-29T13:12:08.999Z</time></trkpt><trkpt lat="42.797096541634595" lon="11.125679516100302"><ele>13.0</ele><time>2026-03-29T13:12:09.999Z</time></trkpt><trkpt lat="42.79708978340146" lon="11.125418996940509"><ele>13.0</ele><time>2026-03-29T13:12:10.999Z</time></trkpt><trkpt lat="42.79709028016684" lon="11.125150983270455"><ele>12.666666666666666</ele><time>2026-03-29T13:12:11.999Z</time></trkpt><trkpt lat="42.797092279149055" lon="11.124877050351765"><ele>12.333333333333332</ele><time>2026-03-29T13:12:12.999Z</time></trkpt><trkpt lat="42.79709300691264" lon="11.124609233687229"><ele>12.0</ele><time>2026-03-29T13:12:13.999Z</time></trkpt><trkpt lat="42.79709044003326" lon="11.124345715597205"><ele>11.666666666666666</ele><time>2026-03-29T13:12:14.999Z</time></trkpt><trkpt lat="42.797088551312804" lon="11.124061850108241"><ele>11.333333333333332</ele><time>2026-03-29T13:12:15.999Z</time></trkpt><trkpt lat="42.797085839505" lon="11.123782756036693"><ele>11.0</ele><time>2026-03-29T13:12:16.999Z</time></trkpt><trkpt lat="42.797083293471545" lon="11.123484681837326"><ele>11.0</ele><time>2026-03-29T13:12:17.999Z</time></trkpt><trkpt lat="42.79707459239037" lon="11.123191263449236"><ele>11.0</ele><time>2026-03-29T13:12:19Z</time></trkpt><trkpt lat="42.79706287178137" lon="11.122888793745512"><ele>11.0</ele><time>2026-03-29T13:12:20Z</time></trkpt><trkpt lat="42.79704847112165" lon="11.122592816829926"><ele>11.0</ele><time>2026-03-29T13:12:21Z</time></trkpt><trkpt lat="42.797034826388" lon="11.122312820688812"><ele>11.0</ele><time>2026-03-29T13:12:22Z</time></trkpt><trkpt lat="42.797018509503886" lon="11.122056238492991"><ele>11.0</ele><time>2026-03-29T13:12:23Z</time></trkpt><trkpt lat="42.797004196298644" lon="11.121815725599248"><ele>11.0</ele><time>2026-03-29T13:12:24Z</time></trkpt><trkpt lat="42.796995387266186" lon="11.121589006226914"><ele>11.0</ele><time>2026-03-29T13:12:25Z</time></trkpt><trkpt lat="42.79699426533338" lon="11.121374869437682"><ele>11.0</ele><time>2026-03-29T13:12:26Z</time></trkpt><trkpt lat="42.7969984439504" lon="11.121174798389017"><ele>11.25</ele><time>2026-03-29T13:12:27Z</time></trkpt><trkpt lat="42.7970032200186" lon="11.120983474653706"><ele>11.5</ele><time>2026-03-29T13:12:28Z</time></trkpt><trkpt lat="42.79700211058543" lon="11.12080951324706"><ele>11.75</ele><time>2026-03-29T13:12:29Z</time></trkpt><trkpt lat="42.79699963495733" lon="11.120653049849368"><ele>12.0</ele><time>2026-03-29T13:12:30Z</time></trkpt><trkpt lat="42.79699144159789" lon="11.120511821755505"><ele>12.0</ele><time>2026-03-29T13:12:31Z</time></trkpt><trkpt lat="42.79697871531931" lon="11.120383395888197"><ele>12.0</ele><time>2026-03-29T13:12:32Z</time></trkpt><trkpt lat="42.79696703165181" lon="11.120263915026323"><ele>12.0</ele><time>2026-03-29T13:12:33Z</time></trkpt><trkpt lat="42.796954865290125" lon="11.120159222823794"><ele>12.0</ele><time>2026-03-29T13:12:34Z</time></trkpt><trkpt lat="42.796941040939316" lon="11.120060439015628"><ele>12.0</ele><time>2026-03-29T13:12:35Z</time></trkpt><trkpt lat="42.796907598785864" lon="11.119926487997073"><ele>12.0</ele><time>2026-03-29T13:12:37Z</time></trkpt><trkpt lat="42.79692110790377" lon="11.119829281433042"><ele>11.6</ele><time>2026-03-29T13:16:53Z</time></trkpt><trkpt lat="42.79692539742362" lon="11.119647525755749"><ele>11.2</ele><time>2026-03-29T13:16:55Z</time></trkpt><trkpt lat="42.79691240220917" lon="11.119517111025843"><ele>10.8</ele><time>2026-03-29T13:16:56Z</time></trkpt><trkpt lat="42.796891872649375" lon="11.119386613824568"><ele>10.4</ele><time>2026-03-29T13:16:57Z</time></trkpt><trkpt lat="42.796867444009145" lon="11.11926330324713"><ele>10.0</ele><time>2026-03-29T13:16:58Z</time></trkpt><trkpt lat="42.7968437168122" lon="11.119128283746585"><ele>10.5</ele><time>2026-03-29T13:16:59Z</time></trkpt><trkpt lat="42.79681836486356" lon="11.118985298049664"><ele>11.0</ele><time>2026-03-29T13:17:00Z</time></trkpt><trkpt lat="42.79679014903803" lon="11.118835420325919"><ele>11.5</ele><time>2026-03-29T13:17:01Z</time></trkpt><trkpt lat="42.7967653979766" lon="11.118685613607372"><ele>12.0</ele><time>2026-03-29T13:17:02Z</time></trkpt><trkpt lat="42.79673759229776" lon="11.118513222741733"><ele>12.0</ele><time>2026-03-29T13:17:03Z</time></trkpt><trkpt lat="42.79670747515759" lon="11.118311701368922"><ele>12.0</ele><time>2026-03-29T13:17:04Z</time></trkpt><trkpt lat="42.796676761513304" lon="11.118101183870753"><ele>12.0</ele><time>2026-03-29T13:17:05Z</time></trkpt><trkpt lat="42.79664882318125" lon="11.11789131501471"><ele>11.666666666666666</ele><time>2026-03-29T13:17:06Z</time></trkpt><trkpt lat="42.79661711185453" lon="11.11765000980802"><ele>11.333333333333332</ele><time>2026-03-29T13:17:07Z</time></trkpt><trkpt lat="42.79658514627958" lon="11.117415549217087"><ele>11.0</ele><time>2026-03-29T13:17:08Z</time></trkpt><trkpt lat="42.79655768338731" lon="11.117178510527602"><ele>10.666666666666666</ele><time>2026-03-29T13:17:09Z</time></trkpt><trkpt lat="42.796528008516695" lon="11.116934138181497"><ele>10.333333333333334</ele><time>2026-03-29T13:17:10Z</time></trkpt><trkpt lat="42.7964990769248" lon="11.116680856192717"><ele>10.0</ele><time>2026-03-29T13:17:11Z</time></trkpt><trkpt lat="42.79647189902252" lon="11.116418570663486"><ele>10.333333333333334</ele><time>2026-03-29T13:17:12Z</time></trkpt><trkpt lat="42.796444896276064" lon="11.11613865238363"><ele>10.666666666666666</ele><time>2026-03-29T13:17:13Z</time></trkpt><trkpt lat="42.79641444161608" lon="11.115844000418981"><ele>11.0</ele><time>2026-03-29T13:17:14Z</time></trkpt><trkpt lat="42.79638986287934" lon="11.115582786211556"><ele>11.0</ele><time>2026-03-29T13:17:15Z</time></trkpt><trkpt lat="42.79635992356741" lon="11.115300006607567"><ele>11.0</ele><time>2026-03-29T13:17:16Z</time></trkpt><trkpt lat="42.79632856648709" lon="11.115012537585953"><ele>11.0</ele><time>2026-03-29T13:17:17Z</time></trkpt><trkpt lat="42.79629820850604" lon="11.114719225484968"><ele>10.666666666666666</ele><time>2026-03-29T13:17:18Z</time></trkpt><trkpt lat="42.796265807161085" lon="11.114424888407"><ele>10.333333333333334</ele><time>2026-03-29T13:17:19Z</time></trkpt><trkpt lat="42.796233992907744" lon="11.114123690992654"><ele>10.0</ele><time>2026-03-29T13:17:20Z</time></trkpt><trkpt lat="42.79619671983056" lon="11.113820075000291"><ele>9.5</ele><time>2026-03-29T13:17:21Z</time></trkpt><trkpt lat="42.79616157683803" lon="11.11350785513118"><ele>9.0</ele><time>2026-03-29T13:17:22Z</time></trkpt><trkpt lat="42.79612874167662" lon="11.113189634651837"><ele>10.0</ele><time>2026-03-29T13:17:23Z</time></trkpt><trkpt lat="42.796100581599184" lon="11.112868064118416"><ele>11.0</ele><time>2026-03-29T13:17:24Z</time></trkpt><trkpt lat="42.79606839825557" lon="11.112537643032644"><ele>11.0</ele><time>2026-03-29T13:17:25Z</time></trkpt><trkpt lat="42.796037047568596" lon="11.112197852549244"><ele>11.0</ele><time>2026-03-29T13:17:26Z</time></trkpt><trkpt lat="42.79600625614508" lon="11.111853354979559"><ele>10.5</ele><time>2026-03-29T13:17:27Z</time></trkpt><trkpt lat="42.7959698493569" lon="11.111504228408766"><ele>10.0</ele><time>2026-03-29T13:17:28Z</time></trkpt><trkpt lat="42.79593860737829" lon="11.111144005343402"><ele>10.0</ele><time>2026-03-29T13:17:29Z</time></trkpt><trkpt lat="42.795903785883176" lon="11.110807955617505"><ele>10.0</ele><time>2026-03-29T13:17:30Z</time></trkpt><trkpt lat="42.795868184369056" lon="11.110490034652216"><ele>10.5</ele><time>2026-03-29T13:17:31Z</time></trkpt><trkpt lat="42.79584284552095" lon="11.110163198859114"><ele>11.0</ele><time>2026-03-29T13:17:32Z</time></trkpt><trkpt lat="42.795814891092945" lon="11.109840671765316"><ele>10.0</ele><time>2026-03-29T13:17:33Z</time></trkpt><trkpt lat="42.79578403316356" lon="11.10951908786696"><ele>9.0</ele><time>2026-03-29T13:17:34Z</time></trkpt><trkpt lat="42.79575704904784" lon="11.109197931411712"><ele>9.5</ele><time>2026-03-29T13:17:35Z</time></trkpt><trkpt lat="42.79573134634065" lon="11.108875065921737"><ele>10.0</ele><time>2026-03-29T13:17:35.999Z</time></trkpt><trkpt lat="42.79571590639105" lon="11.10855538524739"><ele>10.5</ele><time>2026-03-29T13:17:36.999Z</time></trkpt><trkpt lat="42.795720789041496" lon="11.108237202508976"><ele>11.0</ele><time>2026-03-29T13:17:37.999Z</time></trkpt><trkpt lat="42.79572544888852" lon="11.107920101206693"><ele>11.0</ele><time>2026-03-29T13:17:38.999Z</time></trkpt><trkpt lat="42.795743001279135" lon="11.107625806255037"><ele>11.0</ele><time>2026-03-29T13:17:39.999Z</time></trkpt><trkpt lat="42.795767012733506" lon="11.107348767033884"><ele>11.0</ele><time>2026-03-29T13:17:40.999Z</time></trkpt><trkpt lat="42.795799635383375" lon="11.107089600267809"><ele>10.333333333333332</ele><time>2026-03-29T13:17:41.999Z</time></trkpt><trkpt lat="42.79583720927525" lon="11.106835559900627"><ele>9.666666666666666</ele><time>2026-03-29T13:17:42.999Z</time></trkpt><trkpt lat="42.79587943932549" lon="11.106572915324133"><ele>9.0</ele><time>2026-03-29T13:17:43.999Z</time></trkpt><trkpt lat="42.79592442493348" lon="11.106307976152035"><ele>9.0</ele><time>2026-03-29T13:17:44.999Z</time></trkpt><trkpt lat="42.79597423894846" lon="11.10605626454895"><ele>9.0</ele><time>2026-03-29T13:17:45.999Z</time></trkpt><trkpt lat="42.79602678658966" lon="11.105824827274697"><ele>9.0</ele><time>2026-03-29T13:17:46.999Z</time></trkpt><trkpt lat="42.79608335744858" lon="11.105617720522401"><ele>9.5</ele><time>2026-03-29T13:17:47.999Z</time></trkpt><trkpt lat="42.79614613442931" lon="11.105445519132656"><ele>10.0</ele><time>2026-03-29T13:17:48.999Z</time></trkpt><trkpt lat="42.79621318671948" lon="11.105292387489815"><ele>10.5</ele><time>2026-03-29T13:17:49.999Z</time></trkpt><trkpt lat="42.79628680484768" lon="11.105161607769974"><ele>11.0</ele><time>2026-03-29T13:17:50.999Z</time></trkpt><trkpt lat="42.79637155658782" lon="11.105050471881691"><ele>11.0</ele><time>2026-03-29T13:17:51.999Z</time></trkpt><trkpt lat="42.79647369649531" lon="11.10494904706399"><ele>11.0</ele><time>2026-03-29T13:17:52.999Z</time></trkpt><trkpt lat="42.79659239631917" lon="11.104859467830263"><ele>11.0</ele><time>2026-03-29T13:17:53.999Z</time></trkpt><trkpt lat="42.79670734281681" lon="11.104793563123978"><ele>11.0</ele><time>2026-03-29T13:17:54.999Z</time></trkpt><trkpt lat="42.79683723813533" lon="11.10475057527484"><ele>10.75</ele><time>2026-03-29T13:17:55.999Z</time></trkpt><trkpt lat="42.796970154355904" lon="11.104721662307737"><ele>10.5</ele><time>2026-03-29T13:17:56.999Z</time></trkpt><trkpt lat="42.797115773290294" lon="11.104714202735323"><ele>10.25</ele><time>2026-03-29T13:17:57.999Z</time></trkpt><trkpt lat="42.79724603435255" lon="11.10471254520432"><ele>10.0</ele><time>2026-03-29T13:17:58.999Z</time></trkpt><trkpt lat="42.7973591695588" lon="11.104705036253344"><ele>10.0</ele><time>2026-03-29T13:17:59.999Z</time></trkpt><trkpt lat="42.79746668602442" lon="11.104688723193076"><ele>10.0</ele><time>2026-03-29T13:18:00.999Z</time></trkpt><trkpt lat="42.797576538935665" lon="11.104657773775008"><ele>10.0</ele><time>2026-03-29T13:18:01.999Z</time></trkpt><trkpt lat="42.79768031496845" lon="11.104595916595958"><ele>10.0</ele><time>2026-03-29T13:18:02.999Z</time></trkpt><trkpt lat="42.797781438805046" lon="11.104500602639998"><ele>10.0</ele><time>2026-03-29T13:18:03.999Z</time></trkpt><trkpt lat="42.797861316116155" lon="11.10439623337117"><ele>10.0</ele><time>2026-03-29T13:18:04.999Z</time></trkpt><trkpt lat="42.79792612295888" lon="11.104287599277427"><ele>10.0</ele><time>2026-03-29T13:18:05.999Z</time></trkpt><trkpt lat="42.79797965418134" lon="11.104162393346611"><ele>10.0</ele><time>2026-03-29T13:18:06.999Z</time></trkpt><trkpt lat="42.79801988262689" lon="11.10402431994328"><ele>10.0</ele><time>2026-03-29T13:18:07.999Z</time></trkpt><trkpt lat="42.798043694627665" lon="11.103874991112832"><ele>9.8</ele><time>2026-03-29T13:18:08.999Z</time></trkpt><trkpt lat="42.79804532750061" lon="11.103726368664686"><ele>9.6</ele><time>2026-03-29T13:18:09.999Z</time></trkpt><trkpt lat="42.79803002428032" lon="11.103584537923691"><ele>9.4</ele><time>2026-03-29T13:18:10.999Z</time></trkpt><trkpt lat="42.79798444617538" lon="11.103448571346657"><ele>9.2</ele><time>2026-03-29T13:18:11.999Z</time></trkpt><trkpt lat="42.797926189743194" lon="11.103312696946807"><ele>9.0</ele><time>2026-03-29T13:18:12.999Z</time></trkpt><trkpt lat="42.79785425366211" lon="11.103180620552669"><ele>8.75</ele><time>2026-03-29T13:18:13.999Z</time></trkpt><trkpt lat="42.79778016436937" lon="11.103044022850405"><ele>8.5</ele><time>2026-03-29T13:18:14.999Z</time></trkpt><trkpt lat="42.79769408054401" lon="11.10292032099127"><ele>8.25</ele><time>2026-03-29T13:18:15.999Z</time></trkpt><trkpt lat="42.797599682454795" lon="11.102824729578382"><ele>8.0</ele><time>2026-03-29T13:18:16.999Z</time></trkpt><trkpt lat="42.79749636895917" lon="11.102725363195793"><ele>8.666666666666666</ele><time>2026-03-29T13:18:17.999Z</time></trkpt><trkpt lat="42.797386339413684" lon="11.102606170440799"><ele>9.333333333333334</ele><time>2026-03-29T13:18:18.999Z</time></trkpt><trkpt lat="42.79727179977654" lon="11.102475027235656"><ele>10.0</ele><time>2026-03-29T13:18:19.999Z</time></trkpt><trkpt lat="42.7971493313406" lon="11.102330845557841"><ele>10.0</ele><time>2026-03-29T13:18:20.999Z</time></trkpt><trkpt lat="42.79701539366332" lon="11.102175728958306"><ele>10.0</ele><time>2026-03-29T13:18:21.999Z</time></trkpt><trkpt lat="42.79688439939642" lon="11.102026135637397"><ele>10.0</ele><time>2026-03-29T13:18:22.999Z</time></trkpt><trkpt lat="42.796770163907865" lon="11.101892257673448"><ele>10.0</ele><time>2026-03-29T13:18:23.999Z</time></trkpt><trkpt lat="42.796669707386435" lon="11.10175804984283"><ele>10.0</ele><time>2026-03-29T13:18:24.999Z</time></trkpt><trkpt lat="42.79658201185009" lon="11.101602888204864"><ele>10.0</ele><time>2026-03-29T13:18:25.999Z</time></trkpt><trkpt lat="42.79650176052254" lon="11.1014295432253"><ele>10.0</ele><time>2026-03-29T13:18:26.999Z</time></trkpt><trkpt lat="42.796428621797084" lon="11.10124202562936"><ele>10.0</ele><time>2026-03-29T13:18:27.999Z</time></trkpt><trkpt lat="42.7963804503755" lon="11.101032239170635"><ele>10.0</ele><time>2026-03-29T13:18:28.999Z</time></trkpt><trkpt lat="42.79633032338559" lon="11.100831289023256"><ele>10.0</ele><time>2026-03-29T13:18:29.999Z</time></trkpt><trkpt lat="42.79628537276736" lon="11.100617944599994"><ele>9.666666666666668</ele><time>2026-03-29T13:18:30.999Z</time></trkpt><trkpt lat="42.79624128214701" lon="11.100389558322384"><ele>9.333333333333334</ele><time>2026-03-29T13:18:31.999Z</time></trkpt><trkpt lat="42.796183371930795" lon="11.10014716989889"><ele>9.0</ele><time>2026-03-29T13:18:32.999Z</time></trkpt><trkpt lat="42.796135580486194" lon="11.099890685329324"><ele>9.0</ele><time>2026-03-29T13:18:33.999Z</time></trkpt><trkpt lat="42.79608466050444" lon="11.099631973449387"><ele>9.0</ele><time>2026-03-29T13:18:34.999Z</time></trkpt><trkpt lat="42.79603663323382" lon="11.099367242090683"><ele>9.0</ele><time>2026-03-29T13:18:35.999Z</time></trkpt><trkpt lat="42.795989918062475" lon="11.099115512055304"><ele>8.666666666666666</ele><time>2026-03-29T13:18:37Z</time></trkpt><trkpt lat="42.79594133966231" lon="11.09886784552956"><ele>8.333333333333332</ele><time>2026-03-29T13:18:38Z</time></trkpt><trkpt lat="42.79589424178613" lon="11.098628685718328"><ele>8.0</ele><time>2026-03-29T13:18:39Z</time></trkpt><trkpt lat="42.79585203723311" lon="11.098407413477608"><ele>8.0</ele><time>2026-03-29T13:18:40Z</time></trkpt><trkpt lat="42.795807143365984" lon="11.098181637310065"><ele>8.0</ele><time>2026-03-29T13:18:41Z</time></trkpt><trkpt lat="42.795761489792" lon="11.097952356035853"><ele>8.0</ele><time>2026-03-29T13:18:42Z</time></trkpt><trkpt lat="42.795713999680665" lon="11.097718017787736"><ele>8.0</ele><time>2026-03-29T13:18:43Z</time></trkpt><trkpt lat="42.79566771137279" lon="11.097480382973083"><ele>8.0</ele><time>2026-03-29T13:18:44Z</time></trkpt><trkpt lat="42.79562296413514" lon="11.09723891324503"><ele>8.0</ele><time>2026-03-29T13:18:45Z</time></trkpt><trkpt lat="42.795577483316194" lon="11.097000288817135"><ele>8.0</ele><time>2026-03-29T13:18:46Z</time></trkpt><trkpt lat="42.79553209625044" lon="11.09676238745156"><ele>8.0</ele><time>2026-03-29T13:18:47Z</time></trkpt><trkpt lat="42.79548500716189" lon="11.09651898020714"><ele>8.0</ele><time>2026-03-29T13:18:48Z</time></trkpt><trkpt lat="42.79543821538668" lon="11.0962745955697"><ele>7.666666666666666</ele><time>2026-03-29T13:18:49Z</time></trkpt><trkpt lat="42.79539035930546" lon="11.096020960594792"><ele>7.333333333333334</ele><time>2026-03-29T13:18:50Z</time></trkpt><trkpt lat="42.795340987818804" lon="11.095768355133181"><ele>7.0</ele><time>2026-03-29T13:18:51Z</time></trkpt><trkpt lat="42.795294619356106" lon="11.095541511421853"><ele>7.0</ele><time>2026-03-29T13:18:52Z</time></trkpt><trkpt lat="42.79524596741969" lon="11.095313023068776"><ele>7.0</ele><time>2026-03-29T13:18:53Z</time></trkpt><trkpt lat="42.79518876115226" lon="11.095083233612149"><ele>7.0</ele><time>2026-03-29T13:18:54Z</time></trkpt><trkpt lat="42.795122135333024" lon="11.094863700493674"><ele>7.0</ele><time>2026-03-29T13:18:55Z</time></trkpt><trkpt lat="42.795052295081554" lon="11.094657467337806"><ele>7.0</ele><time>2026-03-29T13:18:56Z</time></trkpt><trkpt lat="42.794976499242146" lon="11.09445926167737"><ele>7.0</ele><time>2026-03-29T13:18:57Z</time></trkpt><trkpt lat="42.7948913399091" lon="11.094255812645347"><ele>7.0</ele><time>2026-03-29T13:18:58Z</time></trkpt><trkpt lat="42.79479364948776" lon="11.094052864070441"><ele>7.0</ele><time>2026-03-29T13:18:59Z</time></trkpt><trkpt lat="42.79468589142676" lon="11.093855169347275"><ele>7.0</ele><time>2026-03-29T13:19:00Z</time></trkpt><trkpt lat="42.7945734936002" lon="11.093661692462652"><ele>7.0</ele><time>2026-03-29T13:19:01Z</time></trkpt><trkpt lat="42.79445350841044" lon="11.093466854145268"><ele>7.0</ele><time>2026-03-29T13:19:02Z</time></trkpt><trkpt lat="42.79432817959888" lon="11.093270565179166"><ele>7.0</ele><time>2026-03-29T13:19:03Z</time></trkpt><trkpt lat="42.79420646566875" lon="11.093080557779047"><ele>6.666666666666667</ele><time>2026-03-29T13:19:04Z</time></trkpt><trkpt lat="42.79408010721854" lon="11.092882701542308"><ele>6.333333333333334</ele><time>2026-03-29T13:19:05Z</time></trkpt><trkpt lat="42.79395334018732" lon="11.092686984599595"><ele>6.0</ele><time>2026-03-29T13:19:06Z</time></trkpt><trkpt lat="42.79382443228761" lon="11.09249408490963"><ele>6.0</ele><time>2026-03-29T13:19:07Z</time></trkpt><trkpt lat="42.79369357447856" lon="11.092294960746372"><ele>6.0</ele><time>2026-03-29T13:19:08Z</time></trkpt><trkpt lat="42.793565468625125" lon="11.092092065073123"><ele>6.0</ele><time>2026-03-29T13:19:09Z</time></trkpt><trkpt lat="42.79342918600178" lon="11.091880322937822"><ele>6.0</ele><time>2026-03-29T13:19:10Z</time></trkpt><trkpt lat="42.79329290445109" lon="11.09167229531187"><ele>6.0</ele><time>2026-03-29T13:19:11Z</time></trkpt><trkpt lat="42.793155364151936" lon="11.0914625048748"><ele>6.0</ele><time>2026-03-29T13:19:12Z</time></trkpt><trkpt lat="42.79301618241681" lon="11.091249695757849"><ele>6.333333333333334</ele><time>2026-03-29T13:19:13Z</time></trkpt><trkpt lat="42.79288587260312" lon="11.091050961931398"><ele>6.666666666666667</ele><time>2026-03-29T13:19:14Z</time></trkpt><trkpt lat="42.79276155098221" lon="11.090860519031216"><ele>7.0</ele><time>2026-03-29T13:19:15Z</time></trkpt><trkpt lat="42.7926354353009" lon="11.090662342535436"><ele>7.0</ele><time>2026-03-29T13:19:16Z</time></trkpt><trkpt lat="42.79250824819793" lon="11.090462299194412"><ele>7.0</ele><time>2026-03-29T13:19:17Z</time></trkpt><trkpt lat="42.79239131478366" lon="11.090278439895963"><ele>7.0</ele><time>2026-03-29T13:19:18Z</time></trkpt><trkpt lat="42.79228008532007" lon="11.090103841434132"><ele>7.0</ele><time>2026-03-29T13:19:19Z</time></trkpt><trkpt lat="42.79217701570846" lon="11.0899411435958"><ele>7.0</ele><time>2026-03-29T13:19:20Z</time></trkpt><trkpt lat="42.79208766987577" lon="11.089799022177408"><ele>7.0</ele><time>2026-03-29T13:19:21Z</time></trkpt><trkpt lat="42.79201554491816" lon="11.089666386513098"><ele>7.0</ele><time>2026-03-29T13:19:22Z</time></trkpt><trkpt lat="42.79196583504822" lon="11.089538836405577"><ele>7.199999999999999</ele><time>2026-03-29T13:19:23Z</time></trkpt><trkpt lat="42.79194110337772" lon="11.089424936797514"><ele>7.3999999999999995</ele><time>2026-03-29T13:19:24Z</time></trkpt><trkpt lat="42.7919328328872" lon="11.089314174321695"><ele>7.6000000000000005</ele><time>2026-03-29T13:19:25Z</time></trkpt><trkpt lat="42.791921026104106" lon="11.089214642448868"><ele>7.800000000000001</ele><time>2026-03-29T13:19:26Z</time></trkpt><trkpt lat="42.79183096648199" lon="11.08914313011961"><ele>8.0</ele><time>2026-03-29T13:19:28Z</time></trkpt><trkpt lat="42.79173804269733" lon="11.089213788726006"><ele>8.0</ele><time>2026-03-29T13:19:30Z</time></trkpt><trkpt lat="42.79169805825501" lon="11.089340791000986"><ele>8.0</ele><time>2026-03-29T13:19:32Z</time></trkpt><trkpt lat="42.79176394902872" lon="11.08943622948676"><ele>8.0</ele><time>2026-03-29T13:19:33Z</time></trkpt><trkpt lat="42.79182494468923" lon="11.089506876434934"><ele>8.0</ele><time>2026-03-29T13:19:34Z</time></trkpt><trkpt lat="42.79190499150976" lon="11.089597821982064"><ele>8.0</ele><time>2026-03-29T13:19:35Z</time></trkpt><trkpt lat="42.79199096479435" lon="11.089716209835052"><ele>8.0</ele><time>2026-03-29T13:19:36Z</time></trkpt><trkpt lat="42.7920704844886" lon="11.089842028826983"><ele>8.0</ele><time>2026-03-29T13:19:37Z</time></trkpt><trkpt lat="42.792159243652755" lon="11.089987520758111"><ele>8.0</ele><time>2026-03-29T13:19:38Z</time></trkpt><trkpt lat="42.79225909935388" lon="11.090142578967555"><ele>8.0</ele><time>2026-03-29T13:19:39Z</time></trkpt><trkpt lat="42.792369568205665" lon="11.090309861282801"><ele>7.666666666666666</ele><time>2026-03-29T13:19:40Z</time></trkpt><trkpt lat="42.79247423621521" lon="11.09047576208689"><ele>7.333333333333334</ele><time>2026-03-29T13:19:40.999Z</time></trkpt><trkpt lat="42.79258450725123" lon="11.09064310464542"><ele>7.0</ele><time>2026-03-29T13:19:41.999Z</time></trkpt><trkpt lat="42.79270128824599" lon="11.090824793241394"><ele>7.0</ele><time>2026-03-29T13:19:42.999Z</time></trkpt><trkpt lat="42.792823936677436" lon="11.091007774540655"><ele>7.0</ele><time>2026-03-29T13:19:43.999Z</time></trkpt><trkpt lat="42.792937567978306" lon="11.0911825492774"><ele>7.0</ele><time>2026-03-29T13:19:44.999Z</time></trkpt><trkpt lat="42.79305342421615" lon="11.091364683906297"><ele>7.0</ele><time>2026-03-29T13:19:45.999Z</time></trkpt><trkpt lat="42.79316889839804" lon="11.091544518904751"><ele>7.0</ele><time>2026-03-29T13:19:46.999Z</time></trkpt><trkpt lat="42.79327617895596" lon="11.091715142402606"><ele>7.0</ele><time>2026-03-29T13:19:47.999Z</time></trkpt><trkpt lat="42.79338526510343" lon="11.09188027102803"><ele>7.0</ele><time>2026-03-29T13:19:48.999Z</time></trkpt><trkpt lat="42.79349577229881" lon="11.092058529389126"><ele>7.0</ele><time>2026-03-29T13:19:49.999Z</time></trkpt><trkpt lat="42.7936075587114" lon="11.092228739954582"><ele>7.0</ele><time>2026-03-29T13:19:50.999Z</time></trkpt><trkpt lat="42.7937234798137" lon="11.092405117761547"><ele>6.666666666666667</ele><time>2026-03-29T13:19:51.999Z</time></trkpt><trkpt lat="42.79383967802861" lon="11.09258021151741"><ele>6.333333333333334</ele><time>2026-03-29T13:19:52.999Z</time></trkpt><trkpt lat="42.79395624660568" lon="11.092756896808098"><ele>6.0</ele><time>2026-03-29T13:19:53.999Z</time></trkpt><trkpt lat="42.794072710694756" lon="11.092935303875485"><ele>6.0</ele><time>2026-03-29T13:19:54.999Z</time></trkpt><trkpt lat="42.79418876613875" lon="11.093115325559575"><ele>6.0</ele><time>2026-03-29T13:19:55.999Z</time></trkpt><trkpt lat="42.79430459957636" lon="11.09329604436825"><ele>6.0</ele><time>2026-03-29T13:19:56.999Z</time></trkpt><trkpt lat="42.79442003390256" lon="11.093483000665117"><ele>6.333333333333334</ele><time>2026-03-29T13:19:57.999Z</time></trkpt><trkpt lat="42.79453487525924" lon="11.093671809619883"><ele>6.666666666666667</ele><time>2026-03-29T13:19:58.999Z</time></trkpt><trkpt lat="42.794643505768306" lon="11.09386082323779"><ele>7.0</ele><time>2026-03-29T13:19:59.999Z</time></trkpt><trkpt lat="42.79474553895292" lon="11.094053129489188"><ele>7.0</ele><time>2026-03-29T13:20:00.999Z</time></trkpt><trkpt lat="42.794838133582985" lon="11.094248980727421"><ele>7.0</ele><time>2026-03-29T13:20:01.999Z</time></trkpt><trkpt lat="42.79492539809039" lon="11.094455020105826"><ele>7.0</ele><time>2026-03-29T13:20:02.999Z</time></trkpt><trkpt lat="42.79500431292825" lon="11.094666051444557"><ele>7.0</ele><time>2026-03-29T13:20:03.999Z</time></trkpt><trkpt lat="42.79507682928489" lon="11.094883400824555"><ele>7.0</ele><time>2026-03-29T13:20:04.999Z</time></trkpt><trkpt lat="42.79514556202599" lon="11.095107089281099"><ele>7.0</ele><time>2026-03-29T13:20:05.999Z</time></trkpt><trkpt lat="42.79520664327262" lon="11.09533278807799"><ele>7.0</ele><time>2026-03-29T13:20:06.999Z</time></trkpt><trkpt lat="42.795262012811754" lon="11.09556091784086"><ele>7.0</ele><time>2026-03-29T13:20:07.999Z</time></trkpt><trkpt lat="42.79531186452974" lon="11.095791558550633"><ele>7.0</ele><time>2026-03-29T13:20:08.999Z</time></trkpt><trkpt lat="42.79535849025999" lon="11.096028120016165"><ele>7.0</ele><time>2026-03-29T13:20:09.999Z</time></trkpt><trkpt lat="42.79540205489985" lon="11.096265201817454"><ele>7.0</ele><time>2026-03-29T13:20:10.999Z</time></trkpt><trkpt lat="42.79544663635923" lon="11.096498808428153"><ele>7.0</ele><time>2026-03-29T13:20:11.999Z</time></trkpt><trkpt lat="42.79549237499734" lon="11.096733510955403"><ele>7.333333333333334</ele><time>2026-03-29T13:20:12.999Z</time></trkpt><trkpt lat="42.79553876120874" lon="11.09696952602192"><ele>7.666666666666666</ele><time>2026-03-29T13:20:13.999Z</time></trkpt><trkpt lat="42.79558755736091" lon="11.097215261777166"><ele>8.0</ele><time>2026-03-29T13:20:14.999Z</time></trkpt><trkpt lat="42.79563923604609" lon="11.097465028729237"><ele>8.0</ele><time>2026-03-29T13:20:15.999Z</time></trkpt><trkpt lat="42.795691004317916" lon="11.097717147271517"><ele>8.0</ele><time>2026-03-29T13:20:16.999Z</time></trkpt><trkpt lat="42.79574287726131" lon="11.097985009988289"><ele>8.0</ele><time>2026-03-29T13:20:17.999Z</time></trkpt><trkpt lat="42.79579681353789" lon="11.098259001254526"><ele>8.0</ele><time>2026-03-29T13:20:18.999Z</time></trkpt><trkpt lat="42.795852393643784" lon="11.098539245188308"><ele>8.0</ele><time>2026-03-29T13:20:19.999Z</time></trkpt><trkpt lat="42.79589246420501" lon="11.09878195221158"><ele>8.0</ele><time>2026-03-29T13:20:20.999Z</time></trkpt><trkpt lat="42.795936465704344" lon="11.099021118519094"><ele>8.333333333333332</ele><time>2026-03-29T13:20:21.999Z</time></trkpt><trkpt lat="42.795977491424566" lon="11.099249265143051"><ele>8.666666666666666</ele><time>2026-03-29T13:20:22.999Z</time></trkpt><trkpt lat="42.796019558768705" lon="11.099480332262189"><ele>9.0</ele><time>2026-03-29T13:20:23.999Z</time></trkpt><trkpt lat="42.79606397221292" lon="11.099705969599622"><ele>8.666666666666666</ele><time>2026-03-29T13:20:24.999Z</time></trkpt><trkpt lat="42.79610766229685" lon="11.099945070754412"><ele>8.333333333333332</ele><time>2026-03-29T13:20:25.999Z</time></trkpt><trkpt lat="42.796156048795794" lon="11.10015198924396"><ele>8.0</ele><time>2026-03-29T13:20:26.999Z</time></trkpt><trkpt lat="42.79619957010029" lon="11.100374381145372"><ele>8.0</ele><time>2026-03-29T13:20:27.999Z</time></trkpt><trkpt lat="42.79624445460382" lon="11.100597518724229"><ele>8.0</ele><time>2026-03-29T13:20:28.999Z</time></trkpt><trkpt lat="42.79628840241646" lon="11.100821350650937"><ele>8.0</ele><time>2026-03-29T13:20:29.999Z</time></trkpt><trkpt lat="42.79634040939253" lon="11.101043403983631"><ele>8.666666666666666</ele><time>2026-03-29T13:20:30.999Z</time></trkpt><trkpt lat="42.79640064682186" lon="11.101255996644724"><ele>9.333333333333334</ele><time>2026-03-29T13:20:31.999Z</time></trkpt><trkpt lat="42.79647510363869" lon="11.101457386304011"><ele>10.0</ele><time>2026-03-29T13:20:32.999Z</time></trkpt><trkpt lat="42.79656311635337" lon="11.101654204373654"><ele>10.0</ele><time>2026-03-29T13:20:33.999Z</time></trkpt><trkpt lat="42.79666641360526" lon="11.101839426834887"><ele>10.0</ele><time>2026-03-29T13:20:34.999Z</time></trkpt><trkpt lat="42.796781923996065" lon="11.102005919926995"><ele>10.0</ele><time>2026-03-29T13:20:35.999Z</time></trkpt><trkpt lat="42.79690647715787" lon="11.102157349539075"><ele>10.0</ele><time>2026-03-29T13:20:36.999Z</time></trkpt><trkpt lat="42.79703763320303" lon="11.102298129724803"><ele>10.0</ele><time>2026-03-29T13:20:37.999Z</time></trkpt><trkpt lat="42.797171865024836" lon="11.10243601985181"><ele>10.0</ele><time>2026-03-29T13:20:38.999Z</time></trkpt><trkpt lat="42.79730047625652" lon="11.102570888075318"><ele>10.5</ele><time>2026-03-29T13:20:39.999Z</time></trkpt><trkpt lat="42.79740864930558" lon="11.102698814626219"><ele>11.0</ele><time>2026-03-29T13:20:40.999Z</time></trkpt><trkpt lat="42.79752209581279" lon="11.102817400814626"><ele>11.5</ele><time>2026-03-29T13:20:41.999Z</time></trkpt><trkpt lat="42.797630186896875" lon="11.102940806938971"><ele>12.0</ele><time>2026-03-29T13:20:43Z</time></trkpt><trkpt lat="42.79772307786375" lon="11.103043768413448"><ele>11.25</ele><time>2026-03-29T13:20:44Z</time></trkpt><trkpt lat="42.79781083779803" lon="11.103144666746164"><ele>10.5</ele><time>2026-03-29T13:20:45Z</time></trkpt><trkpt lat="42.79787542028542" lon="11.103276540090603"><ele>9.75</ele><time>2026-03-29T13:20:46Z</time></trkpt><trkpt lat="42.79792975469011" lon="11.103418012039775"><ele>9.0</ele><time>2026-03-29T13:20:47Z</time></trkpt><trkpt lat="42.79797892563352" lon="11.10357090201781"><ele>9.0</ele><time>2026-03-29T13:20:48Z</time></trkpt><trkpt lat="42.79800902855542" lon="11.103720949805641"><ele>9.0</ele><time>2026-03-29T13:20:49Z</time></trkpt><trkpt lat="42.79801414916155" lon="11.103863505273118"><ele>9.0</ele><time>2026-03-29T13:20:50Z</time></trkpt><trkpt lat="42.79799809758238" lon="11.104002244672007"><ele>9.0</ele><time>2026-03-29T13:20:51Z</time></trkpt><trkpt lat="42.7979538320786" lon="11.104149833107734"><ele>9.0</ele><time>2026-03-29T13:20:52Z</time></trkpt><trkpt lat="42.79788956176195" lon="11.104289978711428"><ele>9.2</ele><time>2026-03-29T13:20:53Z</time></trkpt><trkpt lat="42.7978156813311" lon="11.104400943282656"><ele>9.4</ele><time>2026-03-29T13:20:54Z</time></trkpt><trkpt lat="42.79773194698782" lon="11.104487524204721"><ele>9.6</ele><time>2026-03-29T13:20:55Z</time></trkpt><trkpt lat="42.79763336525446" lon="11.104547308189652"><ele>9.8</ele><time>2026-03-29T13:20:56Z</time></trkpt><trkpt lat="42.797523319962366" lon="11.104584654643956"><ele>10.0</ele><time>2026-03-29T13:20:57Z</time></trkpt><trkpt lat="42.79741499571728" lon="11.10459951811396"><ele>10.0</ele><time>2026-03-29T13:20:58Z</time></trkpt><trkpt lat="42.79731291272525" lon="11.104581219187141"><ele>10.0</ele><time>2026-03-29T13:20:59Z</time></trkpt><trkpt lat="42.797219585741566" lon="11.104537109361525"><ele>10.0</ele><time>2026-03-29T13:21:00Z</time></trkpt><trkpt lat="42.7971272659868" lon="11.104465870758752"><ele>10.0</ele><time>2026-03-29T13:21:01Z</time></trkpt><trkpt lat="42.797041559481116" lon="11.10436871516372"><ele>10.0</ele><time>2026-03-29T13:21:02Z</time></trkpt><trkpt lat="42.79696585015871" lon="11.104247659388772"><ele>10.0</ele><time>2026-03-29T13:21:03Z</time></trkpt><trkpt lat="42.79690733451796" lon="11.104103172039645"><ele>10.0</ele><time>2026-03-29T13:21:04Z</time></trkpt><trkpt lat="42.79687856540668" lon="11.103950989969457"><ele>10.0</ele><time>2026-03-29T13:21:05Z</time></trkpt><trkpt lat="42.796872625709625" lon="11.103801938715891"><ele>10.0</ele><time>2026-03-29T13:21:06Z</time></trkpt><trkpt lat="42.7968880780354" lon="11.103646431609542"><ele>10.0</ele><time>2026-03-29T13:21:07Z</time></trkpt><trkpt lat="42.79692445088396" lon="11.103488734238766"><ele>10.0</ele><time>2026-03-29T13:21:08Z</time></trkpt><trkpt lat="42.79696611002218" lon="11.103340360550419"><ele>10.0</ele><time>2026-03-29T13:21:09Z</time></trkpt><trkpt lat="42.79701427896059" lon="11.103207057063068"><ele>10.0</ele><time>2026-03-29T13:21:10Z</time></trkpt><trkpt lat="42.79708291148393" lon="11.103067023662673"><ele>10.666666666666668</ele><time>2026-03-29T13:21:11Z</time></trkpt><trkpt lat="42.79717167208548" lon="11.10290416430321"><ele>11.333333333333334</ele><time>2026-03-29T13:21:12Z</time></trkpt><trkpt lat="42.79726374280914" lon="11.102738520135022"><ele>12.0</ele><time>2026-03-29T13:21:13Z</time></trkpt><trkpt lat="42.79736035778272" lon="11.102562546158776"><ele>11.333333333333334</ele><time>2026-03-29T13:21:14Z</time></trkpt><trkpt lat="42.79747007501779" lon="11.10236533426412"><ele>10.666666666666668</ele><time>2026-03-29T13:21:15Z</time></trkpt><trkpt lat="42.797591065459336" lon="11.102135352704915"><ele>10.0</ele><time>2026-03-29T13:21:16Z</time></trkpt><trkpt lat="42.79771315899587" lon="11.101940272007823"><ele>10.0</ele><time>2026-03-29T13:21:17Z</time></trkpt><trkpt lat="42.79783746015809" lon="11.101737435208381"><ele>10.0</ele><time>2026-03-29T13:21:18Z</time></trkpt><trkpt lat="42.79796394175928" lon="11.101529727325612"><ele>10.0</ele><time>2026-03-29T13:21:19Z</time></trkpt><trkpt lat="42.79809938293032" lon="11.101314927866033"><ele>10.0</ele><time>2026-03-29T13:21:20Z</time></trkpt><trkpt lat="42.798229337638375" lon="11.101105422007029"><ele>10.0</ele><time>2026-03-29T13:21:21Z</time></trkpt><trkpt lat="42.79835985429959" lon="11.100895280895676"><ele>10.0</ele><time>2026-03-29T13:21:22Z</time></trkpt><trkpt lat="42.79849086984044" lon="11.10068337010561"><ele>9.0</ele><time>2026-03-29T13:21:23Z</time></trkpt><trkpt lat="42.79863413693866" lon="11.100467123472288"><ele>8.0</ele><time>2026-03-29T13:21:24Z</time></trkpt><trkpt lat="42.798766216962555" lon="11.100244622650765"><ele>7.0</ele><time>2026-03-29T13:21:25Z</time></trkpt><trkpt lat="42.79890219544325" lon="11.100019322167311"><ele>7.0</ele><time>2026-03-29T13:21:26Z</time></trkpt><trkpt lat="42.79903820287961" lon="11.099794524534872"><ele>7.0</ele><time>2026-03-29T13:21:27Z</time></trkpt><trkpt lat="42.79917612310681" lon="11.09957311753987"><ele>7.0</ele><time>2026-03-29T13:21:28Z</time></trkpt><trkpt lat="42.79931434321231" lon="11.099352744927621"><ele>7.0</ele><time>2026-03-29T13:21:29Z</time></trkpt><trkpt lat="42.79946055296689" lon="11.09911723303568"><ele>7.0</ele><time>2026-03-29T13:21:30Z</time></trkpt><trkpt lat="42.79960510802694" lon="11.098882814099243"><ele>6.666666666666667</ele><time>2026-03-29T13:21:31Z</time></trkpt><trkpt lat="42.79974749460539" lon="11.098651857315442"><ele>6.333333333333334</ele><time>2026-03-29T13:21:32Z</time></trkpt><trkpt lat="42.79989263482001" lon="11.098416306723424"><ele>6.0</ele><time>2026-03-29T13:21:33Z</time></trkpt><trkpt lat="42.80003734596277" lon="11.098185930370102"><ele>6.333333333333334</ele><time>2026-03-29T13:21:34Z</time></trkpt><trkpt lat="42.800185455784344" lon="11.097952310527678"><ele>6.666666666666667</ele><time>2026-03-29T13:21:35Z</time></trkpt><trkpt lat="42.80032820506126" lon="11.097725585965598"><ele>7.0</ele><time>2026-03-29T13:21:36Z</time></trkpt><trkpt lat="42.80045981840057" lon="11.097512575113258"><ele>7.333333333333334</ele><time>2026-03-29T13:21:37Z</time></trkpt><trkpt lat="42.80059629266229" lon="11.097294323706466"><ele>7.666666666666666</ele><time>2026-03-29T13:21:38Z</time></trkpt><trkpt lat="42.80073584661077" lon="11.097079722168608"><ele>8.0</ele><time>2026-03-29T13:21:39Z</time></trkpt><trkpt lat="42.800879906575105" lon="11.096864122414376"><ele>8.0</ele><time>2026-03-29T13:21:40Z</time></trkpt><trkpt lat="42.801027222377094" lon="11.096653508314544"><ele>8.0</ele><time>2026-03-29T13:21:41Z</time></trkpt><trkpt lat="42.80118260350233" lon="11.09644496365079"><ele>8.0</ele><time>2026-03-29T13:21:42Z</time></trkpt><trkpt lat="42.80133675692473" lon="11.09624606110063"><ele>8.0</ele><time>2026-03-29T13:21:43Z</time></trkpt><trkpt lat="42.80149925352569" lon="11.0960511972442"><ele>8.0</ele><time>2026-03-29T13:21:44Z</time></trkpt><trkpt lat="42.801666145405136" lon="11.095861375434128"><ele>8.0</ele><time>2026-03-29T13:21:45Z</time></trkpt><trkpt lat="42.801840433697265" lon="11.095675594748796"><ele>7.333333333333333</ele><time>2026-03-29T13:21:46Z</time></trkpt><trkpt lat="42.802018807372804" lon="11.09549947615028"><ele>6.666666666666666</ele><time>2026-03-29T13:21:46.999Z</time></trkpt><trkpt lat="42.802200882373604" lon="11.095336929314357"><ele>6.0</ele><time>2026-03-29T13:21:47.999Z</time></trkpt><trkpt lat="42.802389806954544" lon="11.09517577138529"><ele>6.0</ele><time>2026-03-29T13:21:48.999Z</time></trkpt><trkpt lat="42.80258112470101" lon="11.095027279579053"><ele>6.0</ele><time>2026-03-29T13:21:49.999Z</time></trkpt><trkpt lat="42.8027805805607" lon="11.09488810691352"><ele>6.0</ele><time>2026-03-29T13:21:50.999Z</time></trkpt><trkpt lat="42.80298318142289" lon="11.09475599007741"><ele>6.0</ele><time>2026-03-29T13:21:51.999Z</time></trkpt><trkpt lat="42.803185556048945" lon="11.094634039628147"><ele>6.0</ele><time>2026-03-29T13:21:52.999Z</time></trkpt><trkpt lat="42.8033915802594" lon="11.094520625168185"><ele>6.0</ele><time>2026-03-29T13:21:53.999Z</time></trkpt><trkpt lat="42.80359887102206" lon="11.094418859622346"><ele>6.0</ele><time>2026-03-29T13:21:54.999Z</time></trkpt><trkpt lat="42.8038092500901" lon="11.094328449265463"><ele>6.0</ele><time>2026-03-29T13:21:55.999Z</time></trkpt><trkpt lat="42.80402124062711" lon="11.094247947798035"><ele>6.0</ele><time>2026-03-29T13:21:56.999Z</time></trkpt><trkpt lat="42.80423392944809" lon="11.094167618887631"><ele>6.0</ele><time>2026-03-29T13:21:57.999Z</time></trkpt><trkpt lat="42.804450106538184" lon="11.094091795191268"><ele>6.0</ele><time>2026-03-29T13:21:58.999Z</time></trkpt><trkpt lat="42.80466039140249" lon="11.094014357943449"><ele>6.0</ele><time>2026-03-29T13:21:59.999Z</time></trkpt><trkpt lat="42.80487650736658" lon="11.09393439553845"><ele>6.0</ele><time>2026-03-29T13:22:00.999Z</time></trkpt><trkpt lat="42.80508894301905" lon="11.093854790931085"><ele>6.0</ele><time>2026-03-29T13:22:01.999Z</time></trkpt><trkpt lat="42.805302269411975" lon="11.09377756219556"><ele>6.0</ele><time>2026-03-29T13:22:02.999Z</time></trkpt><trkpt lat="42.805515656555166" lon="11.093699897803884"><ele>6.0</ele><time>2026-03-29T13:22:03.999Z</time></trkpt><trkpt lat="42.80572847668101" lon="11.093620264025418"><ele>6.0</ele><time>2026-03-29T13:22:04.999Z</time></trkpt><trkpt lat="42.80594354453381" lon="11.093539718097354"><ele>6.0</ele><time>2026-03-29T13:22:05.999Z</time></trkpt><trkpt lat="42.80615499655815" lon="11.093459637767424"><ele>6.0</ele><time>2026-03-29T13:22:06.999Z</time></trkpt><trkpt lat="42.80636609228539" lon="11.093379755214706"><ele>6.0</ele><time>2026-03-29T13:22:07.999Z</time></trkpt><trkpt lat="42.80657805620069" lon="11.093301845775544"><ele>6.0</ele><time>2026-03-29T13:22:08.999Z</time></trkpt><trkpt lat="42.80678799049974" lon="11.093226723978043"><ele>6.0</ele><time>2026-03-29T13:22:09.999Z</time></trkpt><trkpt lat="42.80699874475098" lon="11.093151084167202"><ele>6.0</ele><time>2026-03-29T13:22:10.999Z</time></trkpt><trkpt lat="42.80721035861" lon="11.09307497404283"><ele>6.0</ele><time>2026-03-29T13:22:11.999Z</time></trkpt><trkpt lat="42.80742131124083" lon="11.092996239075072"><ele>6.0</ele><time>2026-03-29T13:22:12.999Z</time></trkpt><trkpt lat="42.80763258186558" lon="11.092918285633885"><ele>6.0</ele><time>2026-03-29T13:22:13.999Z</time></trkpt><trkpt lat="42.80784072644625" lon="11.092839145954967"><ele>6.0</ele><time>2026-03-29T13:22:14.999Z</time></trkpt><trkpt lat="42.808052932515864" lon="11.092758611540711"><ele>6.666666666666666</ele><time>2026-03-29T13:22:15.999Z</time></trkpt><trkpt lat="42.808267344155404" lon="11.092678509633986"><ele>7.333333333333333</ele><time>2026-03-29T13:22:16.999Z</time></trkpt><trkpt lat="42.80847761003198" lon="11.092599979644774"><ele>8.0</ele><time>2026-03-29T13:22:17.999Z</time></trkpt><trkpt lat="42.80869256257586" lon="11.092523471064808"><ele>8.0</ele><time>2026-03-29T13:22:18.999Z</time></trkpt><trkpt lat="42.80889778148167" lon="11.092451848169576"><ele>8.0</ele><time>2026-03-29T13:22:19.999Z</time></trkpt><trkpt lat="42.80911804911779" lon="11.092361367786435"><ele>8.0</ele><time>2026-03-29T13:22:20.999Z</time></trkpt><trkpt lat="42.8093391633616" lon="11.09228678329605"><ele>7.5</ele><time>2026-03-29T13:22:21.999Z</time></trkpt><trkpt lat="42.80955586921327" lon="11.09220706428097"><ele>7.0</ele><time>2026-03-29T13:22:22.999Z</time></trkpt><trkpt lat="42.809773679285165" lon="11.092127703328332"><ele>7.0</ele><time>2026-03-29T13:22:23.999Z</time></trkpt><trkpt lat="42.8099946393751" lon="11.092046023407017"><ele>7.0</ele><time>2026-03-29T13:22:24.999Z</time></trkpt><trkpt lat="42.810213351721174" lon="11.091964533686681"><ele>7.0</ele><time>2026-03-29T13:22:25.999Z</time></trkpt><trkpt lat="42.81043083936463" lon="11.091884453603791"><ele>7.0</ele><time>2026-03-29T13:22:26.999Z</time></trkpt><trkpt lat="42.810649655903205" lon="11.091805190321915"><ele>7.0</ele><time>2026-03-29T13:22:27.999Z</time></trkpt><trkpt lat="42.81086843010716" lon="11.091720659675719"><ele>7.0</ele><time>2026-03-29T13:22:28.999Z</time></trkpt><trkpt lat="42.81108612243054" lon="11.091638394285823"><ele>6.5</ele><time>2026-03-29T13:22:29.999Z</time></trkpt><trkpt lat="42.81130621038888" lon="11.091559051590558"><ele>6.0</ele><time>2026-03-29T13:22:30.999Z</time></trkpt><trkpt lat="42.81152916819962" lon="11.09147796889071"><ele>6.0</ele><time>2026-03-29T13:22:31.999Z</time></trkpt><trkpt lat="42.811751623585906" lon="11.091395375828709"><ele>6.0</ele><time>2026-03-29T13:22:32.999Z</time></trkpt><trkpt lat="42.81196963948005" lon="11.091315150185808"><ele>5.5</ele><time>2026-03-29T13:22:33.999Z</time></trkpt><trkpt lat="42.812192213797786" lon="11.091234213911095"><ele>5.0</ele><time>2026-03-29T13:22:34.999Z</time></trkpt><trkpt lat="42.81241891747231" lon="11.091151659018125"><ele>5.0</ele><time>2026-03-29T13:22:35.999Z</time></trkpt><trkpt lat="42.812642105127615" lon="11.091068787088178"><ele>5.0</ele><time>2026-03-29T13:22:36.999Z</time></trkpt><trkpt lat="42.81286570588134" lon="11.09098396349554"><ele>6.0</ele><time>2026-03-29T13:22:37.999Z</time></trkpt><trkpt lat="42.81309217413066" lon="11.090899774697286"><ele>7.0</ele><time>2026-03-29T13:22:38.999Z</time></trkpt><trkpt lat="42.81331632875348" lon="11.090817811256207"><ele>7.0</ele><time>2026-03-29T13:22:39.999Z</time></trkpt><trkpt lat="42.81354371050453" lon="11.090733798366157"><ele>7.0</ele><time>2026-03-29T13:22:40.999Z</time></trkpt><trkpt lat="42.813768374836734" lon="11.090650491330411"><ele>7.0</ele><time>2026-03-29T13:22:41.999Z</time></trkpt><trkpt lat="42.813998939196644" lon="11.090566349331581"><ele>7.0</ele><time>2026-03-29T13:22:42.999Z</time></trkpt><trkpt lat="42.814226163623985" lon="11.090484748201396"><ele>7.0</ele><time>2026-03-29T13:22:43.999Z</time></trkpt><trkpt lat="42.81445664032463" lon="11.090403805855404"><ele>7.0</ele><time>2026-03-29T13:22:44.999Z</time></trkpt><trkpt lat="42.814682762767994" lon="11.090321055705383"><ele>7.0</ele><time>2026-03-29T13:22:45.999Z</time></trkpt><trkpt lat="42.81491368170309" lon="11.090237876758223"><ele>7.0</ele><time>2026-03-29T13:22:46.999Z</time></trkpt><trkpt lat="42.815144454182516" lon="11.09015459234579"><ele>7.5</ele><time>2026-03-29T13:22:47.999Z</time></trkpt><trkpt lat="42.81537522650248" lon="11.090067957370215"><ele>8.0</ele><time>2026-03-29T13:22:49Z</time></trkpt><trkpt lat="42.815603895380846" lon="11.089982469096645"><ele>7.5</ele><time>2026-03-29T13:22:50Z</time></trkpt><trkpt lat="42.815834598067454" lon="11.089901183407555"><ele>7.0</ele><time>2026-03-29T13:22:51Z</time></trkpt><trkpt lat="42.81606526417313" lon="11.089818084659147"><ele>7.0</ele><time>2026-03-29T13:22:52Z</time></trkpt><trkpt lat="42.81629840636417" lon="11.089736361819462"><ele>7.0</ele><time>2026-03-29T13:22:53Z</time></trkpt><trkpt lat="42.81653361294087" lon="11.08965042956444"><ele>7.0</ele><time>2026-03-29T13:22:54Z</time></trkpt><trkpt lat="42.81676254664302" lon="11.089556971959615"><ele>7.0</ele><time>2026-03-29T13:22:55Z</time></trkpt><trkpt lat="42.81699420682739" lon="11.08946915937228"><ele>7.0</ele><time>2026-03-29T13:22:56Z</time></trkpt><trkpt lat="42.81722678690861" lon="11.089383917918639"><ele>7.0</ele><time>2026-03-29T13:22:57Z</time></trkpt><trkpt lat="42.817458750832856" lon="11.089299485202178"><ele>7.0</ele><time>2026-03-29T13:22:58Z</time></trkpt><trkpt lat="42.81768859703011" lon="11.089215995824471"><ele>7.0</ele><time>2026-03-29T13:22:59Z</time></trkpt><trkpt lat="42.8179209515528" lon="11.0891303499588"><ele>7.0</ele><time>2026-03-29T13:23:00Z</time></trkpt><trkpt lat="42.818152840169" lon="11.089048192388494"><ele>7.0</ele><time>2026-03-29T13:23:01Z</time></trkpt><trkpt lat="42.81838389339878" lon="11.088961095793154"><ele>6.5</ele><time>2026-03-29T13:23:02Z</time></trkpt><trkpt lat="42.81861465287399" lon="11.088872850832221"><ele>6.0</ele><time>2026-03-29T13:23:03Z</time></trkpt><trkpt lat="42.818847320393886" lon="11.08878726025768"><ele>6.0</ele><time>2026-03-29T13:23:04Z</time></trkpt><trkpt lat="42.81908176401976" lon="11.08870118646967"><ele>6.0</ele><time>2026-03-29T13:23:05Z</time></trkpt><trkpt lat="42.8193132878517" lon="11.088613742361272"><ele>6.5</ele><time>2026-03-29T13:23:06Z</time></trkpt><trkpt lat="42.81954538191186" lon="11.088527146582775"><ele>7.0</ele><time>2026-03-29T13:23:07Z</time></trkpt><trkpt lat="42.81977825871915" lon="11.088444034820103"><ele>7.0</ele><time>2026-03-29T13:23:08Z</time></trkpt><trkpt lat="42.82001352669646" lon="11.088362530898818"><ele>7.0</ele><time>2026-03-29T13:23:09Z</time></trkpt><trkpt lat="42.82024932173883" lon="11.088280485560471"><ele>7.5</ele><time>2026-03-29T13:23:10Z</time></trkpt><trkpt lat="42.82048634526997" lon="11.088195833192863"><ele>8.0</ele><time>2026-03-29T13:23:11Z</time></trkpt><trkpt lat="42.820723490422864" lon="11.088108466175745"><ele>8.0</ele><time>2026-03-29T13:23:12Z</time></trkpt><trkpt lat="42.820956218157164" lon="11.088023548945941"><ele>8.0</ele><time>2026-03-29T13:23:13Z</time></trkpt><trkpt lat="42.8211787479151" lon="11.087946841466135"><ele>7.5</ele><time>2026-03-29T13:23:14Z</time></trkpt><trkpt lat="42.82140656977645" lon="11.087869880536404"><ele>7.0</ele><time>2026-03-29T13:23:15Z</time></trkpt><trkpt lat="42.82163514563864" lon="11.08778942623506"><ele>6.5</ele><time>2026-03-29T13:23:16Z</time></trkpt><trkpt lat="42.821866952779494" lon="11.087714702738054"><ele>6.0</ele><time>2026-03-29T13:23:17Z</time></trkpt><trkpt lat="42.82210004646608" lon="11.087640461528878"><ele>6.0</ele><time>2026-03-29T13:23:18Z</time></trkpt><trkpt lat="42.822335413976596" lon="11.087564172130724"><ele>6.0</ele><time>2026-03-29T13:23:19Z</time></trkpt><trkpt lat="42.82256889643746" lon="11.087490158262886"><ele>5.5</ele><time>2026-03-29T13:23:20Z</time></trkpt><trkpt lat="42.82280310193834" lon="11.087417075184632"><ele>5.0</ele><time>2026-03-29T13:23:21Z</time></trkpt><trkpt lat="42.823036234549704" lon="11.087342555263108"><ele>5.0</ele><time>2026-03-29T13:23:22Z</time></trkpt><trkpt lat="42.82326956226888" lon="11.08726905160826"><ele>5.0</ele><time>2026-03-29T13:23:23Z</time></trkpt><trkpt lat="42.82350264854922" lon="11.087196245846267"><ele>5.0</ele><time>2026-03-29T13:23:24Z</time></trkpt><trkpt lat="42.8237361968892" lon="11.087121479293996"><ele>5.0</ele><time>2026-03-29T13:23:25Z</time></trkpt><trkpt lat="42.8239644520722" lon="11.087045476915817"><ele>5.0</ele><time>2026-03-29T13:23:26Z</time></trkpt><trkpt lat="42.82419513980972" lon="11.086971975092313"><ele>5.0</ele><time>2026-03-29T13:23:27Z</time></trkpt><trkpt lat="42.824424507069224" lon="11.086900469224572"><ele>4.5</ele><time>2026-03-29T13:23:28Z</time></trkpt><trkpt lat="42.824654819797466" lon="11.08682991344537"><ele>4.0</ele><time>2026-03-29T13:23:29Z</time></trkpt><trkpt lat="42.82488578644734" lon="11.08675783765453"><ele>4.0</ele><time>2026-03-29T13:23:30Z</time></trkpt><trkpt lat="42.82511716240184" lon="11.086682648649244"><ele>4.0</ele><time>2026-03-29T13:23:31Z</time></trkpt><trkpt lat="42.825348211921415" lon="11.08660583689261"><ele>4.0</ele><time>2026-03-29T13:23:32Z</time></trkpt><trkpt lat="42.825578013222284" lon="11.086533336327385"><ele>4.0</ele><time>2026-03-29T13:23:33Z</time></trkpt><trkpt lat="42.82580738173735" lon="11.086460599893563"><ele>4.0</ele><time>2026-03-29T13:23:34Z</time></trkpt><trkpt lat="42.826034732248935" lon="11.086390830726351"><ele>4.0</ele><time>2026-03-29T13:23:35Z</time></trkpt><trkpt lat="42.826262536332756" lon="11.086317948644213"><ele>4.0</ele><time>2026-03-29T13:23:36Z</time></trkpt><trkpt lat="42.8264876804013" lon="11.086244282086936"><ele>4.0</ele><time>2026-03-29T13:23:37Z</time></trkpt><trkpt lat="42.82671329463668" lon="11.086168053136944"><ele>4.0</ele><time>2026-03-29T13:23:38Z</time></trkpt><trkpt lat="42.826940238896206" lon="11.086089778183586"><ele>4.0</ele><time>2026-03-29T13:23:39Z</time></trkpt><trkpt lat="42.827166141057695" lon="11.086010588830542"><ele>4.0</ele><time>2026-03-29T13:23:40Z</time></trkpt><trkpt lat="42.8273929335225" lon="11.085933020516325"><ele>4.0</ele><time>2026-03-29T13:23:41Z</time></trkpt><trkpt lat="42.827621222755546" lon="11.085853500719608"><ele>4.5</ele><time>2026-03-29T13:23:42Z</time></trkpt><trkpt lat="42.827850813272654" lon="11.08577419830041"><ele>5.0</ele><time>2026-03-29T13:23:43Z</time></trkpt><trkpt lat="42.828080610521944" lon="11.085691915871402"><ele>5.0</ele><time>2026-03-29T13:23:44Z</time></trkpt><trkpt lat="42.82831119523252" lon="11.085607778047303"><ele>5.0</ele><time>2026-03-29T13:23:45Z</time></trkpt><trkpt lat="42.828539088437886" lon="11.085524431910077"><ele>5.0</ele><time>2026-03-29T13:23:46Z</time></trkpt><trkpt lat="42.828767751271364" lon="11.085441786563772"><ele>5.0</ele><time>2026-03-29T13:23:47Z</time></trkpt><trkpt lat="42.82899632239469" lon="11.085358934835087"><ele>5.0</ele><time>2026-03-29T13:23:48Z</time></trkpt><trkpt lat="42.829227074148484" lon="11.085276286523488"><ele>5.0</ele><time>2026-03-29T13:23:49Z</time></trkpt><trkpt lat="42.82945770109559" lon="11.085195265564874"><ele>5.0</ele><time>2026-03-29T13:23:50Z</time></trkpt><trkpt lat="42.82969051911285" lon="11.085112269128427"><ele>5.0</ele><time>2026-03-29T13:23:50.999Z</time></trkpt><trkpt lat="42.82992369483933" lon="11.085027665041448"><ele>4.5</ele><time>2026-03-29T13:23:51.999Z</time></trkpt><trkpt lat="42.83015946914892" lon="11.084940948481462"><ele>4.0</ele><time>2026-03-29T13:23:52.999Z</time></trkpt><trkpt lat="42.83039598092366" lon="11.084854778794996"><ele>4.0</ele><time>2026-03-29T13:23:53.999Z</time></trkpt><trkpt lat="42.830632388587034" lon="11.084770369330633"><ele>4.0</ele><time>2026-03-29T13:23:54.999Z</time></trkpt><trkpt lat="42.830869848441736" lon="11.084683405101428"><ele>4.5</ele><time>2026-03-29T13:23:55.999Z</time></trkpt><trkpt lat="42.831105578187035" lon="11.084596248820173"><ele>5.0</ele><time>2026-03-29T13:23:56.999Z</time></trkpt><trkpt lat="42.831340821772386" lon="11.084506695911388"><ele>5.0</ele><time>2026-03-29T13:23:57.999Z</time></trkpt><trkpt lat="42.831575547748756" lon="11.084420022467565"><ele>5.0</ele><time>2026-03-29T13:23:58.999Z</time></trkpt><trkpt lat="42.831811294539314" lon="11.08433563567967"><ele>7.0</ele><time>2026-03-29T13:23:59.999Z</time></trkpt><trkpt lat="42.832046967812744" lon="11.084252734261971"><ele>9.0</ele><time>2026-03-29T13:24:00.999Z</time></trkpt><trkpt lat="42.83228274074104" lon="11.08417032652229"><ele>9.5</ele><time>2026-03-29T13:24:01.999Z</time></trkpt><trkpt lat="42.832518914361586" lon="11.08408556589349"><ele>10.0</ele><time>2026-03-29T13:24:02.999Z</time></trkpt><trkpt lat="42.832756609268124" lon="11.084000137267417"><ele>9.0</ele><time>2026-03-29T13:24:03.999Z</time></trkpt><trkpt lat="42.83299434571179" lon="11.083911920456545"><ele>8.0</ele><time>2026-03-29T13:24:04.999Z</time></trkpt><trkpt lat="42.833234490798525" lon="11.083818284570988"><ele>8.0</ele><time>2026-03-29T13:24:05.999Z</time></trkpt><trkpt lat="42.8334731561116" lon="11.08372592049794"><ele>8.0</ele><time>2026-03-29T13:24:06.999Z</time></trkpt><trkpt lat="42.833713850672325" lon="11.083639417910476"><ele>8.0</ele><time>2026-03-29T13:24:07.999Z</time></trkpt><trkpt lat="42.83395294322326" lon="11.0835509912508"><ele>8.0</ele><time>2026-03-29T13:24:08.999Z</time></trkpt><trkpt lat="42.83419398780294" lon="11.083465871974012"><ele>7.0</ele><time>2026-03-29T13:24:09.999Z</time></trkpt><trkpt lat="42.834433922031614" lon="11.083378325016625"><ele>6.0</ele><time>2026-03-29T13:24:10.999Z</time></trkpt><trkpt lat="42.834673781578786" lon="11.083290708286036"><ele>6.0</ele><time>2026-03-29T13:24:11.999Z</time></trkpt><trkpt lat="42.834915162419655" lon="11.083204978876648"><ele>6.0</ele><time>2026-03-29T13:24:12.999Z</time></trkpt><trkpt lat="42.83515744834074" lon="11.083117882546604"><ele>5.0</ele><time>2026-03-29T13:24:13.999Z</time></trkpt><trkpt lat="42.83539972954332" lon="11.083027805882143"><ele>4.0</ele><time>2026-03-29T13:24:14.999Z</time></trkpt><trkpt lat="42.83564149346529" lon="11.082939554871274"><ele>4.0</ele><time>2026-03-29T13:24:15.999Z</time></trkpt><trkpt lat="42.83588359142306" lon="11.0828524838108"><ele>4.0</ele><time>2026-03-29T13:24:16.999Z</time></trkpt><trkpt lat="42.836127298916445" lon="11.08276450421129"><ele>5.0</ele><time>2026-03-29T13:24:17.999Z</time></trkpt><trkpt lat="42.83637320227837" lon="11.082677809551019"><ele>6.0</ele><time>2026-03-29T13:24:18.999Z</time></trkpt><trkpt lat="42.836618490044586" lon="11.082589296096016"><ele>6.5</ele><time>2026-03-29T13:24:19.999Z</time></trkpt><trkpt lat="42.83686484858699" lon="11.08250071250024"><ele>7.0</ele><time>2026-03-29T13:24:20.999Z</time></trkpt><trkpt lat="42.8371082094803" lon="11.082410784862857"><ele>7.0</ele><time>2026-03-29T13:24:21.999Z</time></trkpt><trkpt lat="42.837349113849534" lon="11.082318010074898"><ele>7.0</ele><time>2026-03-29T13:24:22.999Z</time></trkpt><trkpt lat="42.83758937744185" lon="11.082227737654062"><ele>7.5</ele><time>2026-03-29T13:24:23.999Z</time></trkpt><trkpt lat="42.837829926609594" lon="11.082135261319806"><ele>8.0</ele><time>2026-03-29T13:24:24.999Z</time></trkpt><trkpt lat="42.83806966846805" lon="11.082039928033549"><ele>8.0</ele><time>2026-03-29T13:24:25.999Z</time></trkpt><trkpt lat="42.83829319588647" lon="11.08194342700821"><ele>8.0</ele><time>2026-03-29T13:24:26.999Z</time></trkpt><trkpt lat="42.83851429196656" lon="11.081859045201417"><ele>9.0</ele><time>2026-03-29T13:24:27.999Z</time></trkpt><trkpt lat="42.838735900748375" lon="11.081774547029264"><ele>10.0</ele><time>2026-03-29T13:24:28.999Z</time></trkpt><trkpt lat="42.83895523977042" lon="11.081687350830505"><ele>10.0</ele><time>2026-03-29T13:24:29.999Z</time></trkpt><trkpt lat="42.83917282888567" lon="11.081599574159448"><ele>10.0</ele><time>2026-03-29T13:24:30.999Z</time></trkpt><trkpt lat="42.83939183836927" lon="11.081515819858211"><ele>8.0</ele><time>2026-03-29T13:24:31.999Z</time></trkpt><trkpt lat="42.83961067626984" lon="11.08143192642756"><ele>6.0</ele><time>2026-03-29T13:24:32.999Z</time></trkpt><trkpt lat="42.839830252774185" lon="11.081347477108137"><ele>6.0</ele><time>2026-03-29T13:24:33.999Z</time></trkpt><trkpt lat="42.840049306346664" lon="11.08126277402807"><ele>6.0</ele><time>2026-03-29T13:24:34.999Z</time></trkpt><trkpt lat="42.84026809866105" lon="11.081179300414629"><ele>7.0</ele><time>2026-03-29T13:24:35.999Z</time></trkpt><trkpt lat="42.84048673515771" lon="11.08109354945329"><ele>8.0</ele><time>2026-03-29T13:24:36.999Z</time></trkpt><trkpt lat="42.8407090991638" lon="11.081005982024372"><ele>8.0</ele><time>2026-03-29T13:24:37.999Z</time></trkpt><trkpt lat="42.84093168732487" lon="11.080918397434017"><ele>8.0</ele><time>2026-03-29T13:24:38.999Z</time></trkpt><trkpt lat="42.84116137730745" lon="11.080829434908846"><ele>6.0</ele><time>2026-03-29T13:24:39.999Z</time></trkpt><trkpt lat="42.84139764329369" lon="11.080737289249978"><ele>4.0</ele><time>2026-03-29T13:24:40.999Z</time></trkpt><trkpt lat="42.84163890969221" lon="11.080643847366426"><ele>3.5</ele><time>2026-03-29T13:24:41.999Z</time></trkpt><trkpt lat="42.84188385159778" lon="11.080550078541284"><ele>3.0</ele><time>2026-03-29T13:24:42.999Z</time></trkpt><trkpt lat="42.842131953272585" lon="11.080452644347337"><ele>3.0</ele><time>2026-03-29T13:24:43.999Z</time></trkpt><trkpt lat="42.84236883511977" lon="11.0803542236015"><ele>3.0</ele><time>2026-03-29T13:24:44.999Z</time></trkpt><trkpt lat="42.84260442750307" lon="11.080260895180999"><ele>4.0</ele><time>2026-03-29T13:24:45.999Z</time></trkpt><trkpt lat="42.84283989238552" lon="11.080169437766019"><ele>5.0</ele><time>2026-03-29T13:24:46.999Z</time></trkpt><trkpt lat="42.843072342259354" lon="11.080077546482785"><ele>5.0</ele><time>2026-03-29T13:24:47.999Z</time></trkpt><trkpt lat="42.84330355482477" lon="11.07998990718625"><ele>5.0</ele><time>2026-03-29T13:24:48.999Z</time></trkpt><trkpt lat="42.84353181847153" lon="11.079904166336815"><ele>4.5</ele><time>2026-03-29T13:24:49.999Z</time></trkpt><trkpt lat="42.84375528559242" lon="11.079819136493516"><ele>4.0</ele><time>2026-03-29T13:24:50.999Z</time></trkpt><trkpt lat="42.843979169405884" lon="11.079732996109"><ele>4.0</ele><time>2026-03-29T13:24:51.999Z</time></trkpt><trkpt lat="42.84420267017763" lon="11.079644115974338"><ele>4.0</ele><time>2026-03-29T13:24:52.999Z</time></trkpt><trkpt lat="42.84442700529918" lon="11.079558510735788"><ele>3.5</ele><time>2026-03-29T13:24:53.999Z</time></trkpt><trkpt lat="42.84465258794202" lon="11.079475936809411"><ele>3.0</ele><time>2026-03-29T13:24:55Z</time></trkpt><trkpt lat="42.844879694263696" lon="11.079396228623658"><ele>3.0</ele><time>2026-03-29T13:24:56Z</time></trkpt><trkpt lat="42.845110590291846" lon="11.079314434269554"><ele>3.0</ele><time>2026-03-29T13:24:57Z</time></trkpt><trkpt lat="42.84534403445714" lon="11.079230796430016"><ele>3.0</ele><time>2026-03-29T13:24:58Z</time></trkpt><trkpt lat="42.84557978688394" lon="11.079148481845488"><ele>3.0</ele><time>2026-03-29T13:24:59Z</time></trkpt><trkpt lat="42.845816086701475" lon="11.079064458063021"><ele>2.5</ele><time>2026-03-29T13:25:00Z</time></trkpt><trkpt lat="42.84605093851574" lon="11.078979561858544"><ele>2.0</ele><time>2026-03-29T13:25:01Z</time></trkpt><trkpt lat="42.8462867053236" lon="11.078893859471776"><ele>2.0</ele><time>2026-03-29T13:25:02Z</time></trkpt><trkpt lat="42.846523548289085" lon="11.078804416782726"><ele>2.0</ele><time>2026-03-29T13:25:03Z</time></trkpt><trkpt lat="42.84676058664686" lon="11.078717517306012"><ele>2.5</ele><time>2026-03-29T13:25:04Z</time></trkpt><trkpt lat="42.84698647682609" lon="11.078635161626622"><ele>3.0</ele><time>2026-03-29T13:25:05Z</time></trkpt><trkpt lat="42.84720833937055" lon="11.078555421603768"><ele>3.0</ele><time>2026-03-29T13:25:06Z</time></trkpt><trkpt lat="42.847429298683174" lon="11.078476461001767"><ele>3.0</ele><time>2026-03-29T13:25:07Z</time></trkpt><trkpt lat="42.847649227192164" lon="11.078400468886322"><ele>3.0</ele><time>2026-03-29T13:25:08Z</time></trkpt><trkpt lat="42.8478651723927" lon="11.078325897902344"><ele>3.0</ele><time>2026-03-29T13:25:09Z</time></trkpt><trkpt lat="42.8480783828641" lon="11.07825209936366"><ele>3.0</ele><time>2026-03-29T13:25:10Z</time></trkpt><trkpt lat="42.84828689240954" lon="11.078176367787222"><ele>2.3333333333333335</ele><time>2026-03-29T13:25:11Z</time></trkpt><trkpt lat="42.84849486013299" lon="11.078103849618406"><ele>1.6666666666666665</ele><time>2026-03-29T13:25:12Z</time></trkpt><trkpt lat="42.84870813594769" lon="11.078030841315996"><ele>1.0</ele><time>2026-03-29T13:25:13Z</time></trkpt><trkpt lat="42.84891618098144" lon="11.077959718719407"><ele>1.0</ele><time>2026-03-29T13:25:14Z</time></trkpt><trkpt lat="42.84911897205574" lon="11.077888229837585"><ele>1.0</ele><time>2026-03-29T13:25:15Z</time></trkpt><trkpt lat="42.84932586937011" lon="11.077808938042779"><ele>1.0</ele><time>2026-03-29T13:25:16Z</time></trkpt><trkpt lat="42.849541141193114" lon="11.077728869465188"><ele>1.0</ele><time>2026-03-29T13:25:17Z</time></trkpt><trkpt lat="42.8497545697753" lon="11.077648651141795"><ele>1.0</ele><time>2026-03-29T13:25:18Z</time></trkpt><trkpt lat="42.849970941336984" lon="11.077569840528126"><ele>1.0</ele><time>2026-03-29T13:25:19Z</time></trkpt><trkpt lat="42.850191352058" lon="11.077493338655053"><ele>1.0</ele><time>2026-03-29T13:25:20Z</time></trkpt><trkpt lat="42.850414393015605" lon="11.077412484667079"><ele>1.0</ele><time>2026-03-29T13:25:21Z</time></trkpt><trkpt lat="42.8506306481363" lon="11.07733361081856"><ele>1.0</ele><time>2026-03-29T13:25:22Z</time></trkpt><trkpt lat="42.85084204859241" lon="11.077262095787598"><ele>1.0</ele><time>2026-03-29T13:25:23Z</time></trkpt><trkpt lat="42.85105860734234" lon="11.077187580216968"><ele>1.0</ele><time>2026-03-29T13:25:24Z</time></trkpt><trkpt lat="42.85127318149509" lon="11.077114772115463"><ele>1.3333333333333333</ele><time>2026-03-29T13:25:25Z</time></trkpt><trkpt lat="42.851486937635805" lon="11.077040337787516"><ele>1.6666666666666665</ele><time>2026-03-29T13:25:26Z</time></trkpt><trkpt lat="42.85169991983372" lon="11.076964421202284"><ele>2.0</ele><time>2026-03-29T13:25:27Z</time></trkpt><trkpt lat="42.85191137957106" lon="11.076889397070513"><ele>2.6666666666666665</ele><time>2026-03-29T13:25:28Z</time></trkpt><trkpt lat="42.852122371122825" lon="11.076813967697408"><ele>3.333333333333333</ele><time>2026-03-29T13:25:29Z</time></trkpt><trkpt lat="42.8523348307212" lon="11.076736885000132"><ele>4.0</ele><time>2026-03-29T13:25:30Z</time></trkpt><trkpt lat="42.85254793601504" lon="11.076659252078214"><ele>3.333333333333333</ele><time>2026-03-29T13:25:31Z</time></trkpt><trkpt lat="42.85276010455128" lon="11.076581551228974"><ele>2.6666666666666665</ele><time>2026-03-29T13:25:32Z</time></trkpt><trkpt lat="42.85297179369158" lon="11.076504611629236"><ele>2.0</ele><time>2026-03-29T13:25:33Z</time></trkpt><trkpt lat="42.8531834656334" lon="11.076427823175553"><ele>2.0</ele><time>2026-03-29T13:25:34Z</time></trkpt><trkpt lat="42.853396163176754" lon="11.076353268180409"><ele>2.0</ele><time>2026-03-29T13:25:35Z</time></trkpt><trkpt lat="42.85360936996081" lon="11.076278460123577"><ele>2.0</ele><time>2026-03-29T13:25:36Z</time></trkpt><trkpt lat="42.853825422921574" lon="11.076206460652797"><ele>2.333333333333333</ele><time>2026-03-29T13:25:37Z</time></trkpt><trkpt lat="42.85404250629986" lon="11.076132797233972"><ele>2.6666666666666665</ele><time>2026-03-29T13:25:38Z</time></trkpt><trkpt lat="42.85426013470856" lon="11.076058622403982"><ele>3.0</ele><time>2026-03-29T13:25:39Z</time></trkpt><trkpt lat="42.85447897794098" lon="11.075984399941262"><ele>3.5</ele><time>2026-03-29T13:25:40Z</time></trkpt><trkpt lat="42.85469825627964" lon="11.075913110042611"><ele>4.0</ele><time>2026-03-29T13:25:41Z</time></trkpt><trkpt lat="42.85492134367172" lon="11.075847873960871"><ele>4.5</ele><time>2026-03-29T13:25:42Z</time></trkpt><trkpt lat="42.85514425542288" lon="11.075784279432712"><ele>5.0</ele><time>2026-03-29T13:25:43Z</time></trkpt><trkpt lat="42.85537017809301" lon="11.075722634770932"><ele>5.0</ele><time>2026-03-29T13:25:44Z</time></trkpt><trkpt lat="42.85559478728311" lon="11.075665125263757"><ele>5.0</ele><time>2026-03-29T13:25:45Z</time></trkpt><trkpt lat="42.85581788125587" lon="11.075611648356668"><ele>6.0</ele><time>2026-03-29T13:25:46Z</time></trkpt><trkpt lat="42.856042114417384" lon="11.075562338755484"><ele>7.0</ele><time>2026-03-29T13:25:47Z</time></trkpt><trkpt lat="42.85626894378922" lon="11.075517755520595"><ele>7.0</ele><time>2026-03-29T13:25:48Z</time></trkpt><trkpt lat="42.85649688995094" lon="11.075479488610629"><ele>7.0</ele><time>2026-03-29T13:25:49Z</time></trkpt><trkpt lat="42.85672726381515" lon="11.075444140094683"><ele>8.0</ele><time>2026-03-29T13:25:50Z</time></trkpt><trkpt lat="42.85695490409162" lon="11.075408266079512"><ele>9.0</ele><time>2026-03-29T13:25:51Z</time></trkpt><trkpt lat="42.8571831959163" lon="11.07537513338094"><ele>9.0</ele><time>2026-03-29T13:25:52Z</time></trkpt><trkpt lat="42.857413306765004" lon="11.075347539619138"><ele>9.0</ele><time>2026-03-29T13:25:53Z</time></trkpt><trkpt lat="42.857642505834065" lon="11.075325920243596"><ele>9.5</ele><time>2026-03-29T13:25:54Z</time></trkpt><trkpt lat="42.857871989892985" lon="11.07530835389456"><ele>10.0</ele><time>2026-03-29T13:25:55Z</time></trkpt><trkpt lat="42.85810220086511" lon="11.075293460448147"><ele>10.0</ele><time>2026-03-29T13:25:56Z</time></trkpt><trkpt lat="42.85833070578138" lon="11.075282828796961"><ele>10.0</ele><time>2026-03-29T13:25:57Z</time></trkpt><trkpt lat="42.85855830599337" lon="11.075271726855767"><ele>11.5</ele><time>2026-03-29T13:25:58Z</time></trkpt><trkpt lat="42.85878345976138" lon="11.075264227204816"><ele>13.0</ele><time>2026-03-29T13:25:59Z</time></trkpt><trkpt lat="42.85901139868792" lon="11.075264414714749"><ele>13.0</ele><time>2026-03-29T13:26:00Z</time></trkpt><trkpt lat="42.859239177338765" lon="11.075269815249023"><ele>13.0</ele><time>2026-03-29T13:26:01Z</time></trkpt><trkpt lat="42.85946567317372" lon="11.075277720563287"><ele>13.5</ele><time>2026-03-29T13:26:02Z</time></trkpt><trkpt lat="42.85969323539997" lon="11.075287419599869"><ele>14.0</ele><time>2026-03-29T13:26:03Z</time></trkpt><trkpt lat="42.85992105557072" lon="11.07529933352159"><ele>14.5</ele><time>2026-03-29T13:26:03.999Z</time></trkpt><trkpt lat="42.86015109869439" lon="11.0753098198567"><ele>15.0</ele><time>2026-03-29T13:26:04.999Z</time></trkpt><trkpt lat="42.86038247776589" lon="11.075320982162069"><ele>15.0</ele><time>2026-03-29T13:26:05.999Z</time></trkpt><trkpt lat="42.86061639711734" lon="11.075334018618944"><ele>15.0</ele><time>2026-03-29T13:26:06.999Z</time></trkpt><trkpt lat="42.860852991785094" lon="11.075350579454469"><ele>16.0</ele><time>2026-03-29T13:26:07.999Z</time></trkpt><trkpt lat="42.86108964858531" lon="11.075370666241177"><ele>17.0</ele><time>2026-03-29T13:26:08.999Z</time></trkpt><trkpt lat="42.86133031792283" lon="11.075393339761987"><ele>17.0</ele><time>2026-03-29T13:26:09.999Z</time></trkpt><trkpt lat="42.86156948370345" lon="11.075416585040193"><ele>17.0</ele><time>2026-03-29T13:26:10.999Z</time></trkpt><trkpt lat="42.86181259586837" lon="11.075437416113342"><ele>17.5</ele><time>2026-03-29T13:26:11.999Z</time></trkpt><trkpt lat="42.86205815971451" lon="11.075454593551608"><ele>18.0</ele><time>2026-03-29T13:26:12.999Z</time></trkpt><trkpt lat="42.86230240924669" lon="11.075469949641446"><ele>18.0</ele><time>2026-03-29T13:26:13.999Z</time></trkpt><trkpt lat="42.86253383780065" lon="11.075486756296426"><ele>18.0</ele><time>2026-03-29T13:26:14.999Z</time></trkpt><trkpt lat="42.86276827470154" lon="11.075506886759003"><ele>17.0</ele><time>2026-03-29T13:26:15.999Z</time></trkpt><trkpt lat="42.86300066065335" lon="11.075526216883432"><ele>16.0</ele><time>2026-03-29T13:26:16.999Z</time></trkpt><trkpt lat="42.86323676638425" lon="11.075548632662084"><ele>16.5</ele><time>2026-03-29T13:26:17.999Z</time></trkpt><trkpt lat="42.86347817223855" lon="11.075575567991379"><ele>17.0</ele><time>2026-03-29T13:26:18.999Z</time></trkpt><trkpt lat="42.863720894122" lon="11.075605138840789"><ele>17.0</ele><time>2026-03-29T13:26:19.999Z</time></trkpt><trkpt lat="42.863963048853755" lon="11.075637893334259"><ele>17.0</ele><time>2026-03-29T13:26:20.999Z</time></trkpt><trkpt lat="42.864207597131696" lon="11.07567669264011"><ele>16.5</ele><time>2026-03-29T13:26:21.999Z</time></trkpt><trkpt lat="42.86445161039874" lon="11.07571833146498"><ele>16.0</ele><time>2026-03-29T13:26:22.999Z</time></trkpt><trkpt lat="42.86469457309157" lon="11.075765529067267"><ele>16.5</ele><time>2026-03-29T13:26:23.999Z</time></trkpt><trkpt lat="42.864937507856034" lon="11.075818614117642"><ele>17.0</ele><time>2026-03-29T13:26:24.999Z</time></trkpt><trkpt lat="42.865181750108775" lon="11.075873362976663"><ele>17.0</ele><time>2026-03-29T13:26:25.999Z</time></trkpt><trkpt lat="42.86542672192605" lon="11.075931752346909"><ele>17.0</ele><time>2026-03-29T13:26:26.999Z</time></trkpt><trkpt lat="42.865672107106036" lon="11.075992433810356"><ele>17.0</ele><time>2026-03-29T13:26:27.999Z</time></trkpt><trkpt lat="42.865917099332535" lon="11.076056132293749"><ele>17.0</ele><time>2026-03-29T13:26:28.999Z</time></trkpt><trkpt lat="42.866161285507836" lon="11.076120016364232"><ele>16.5</ele><time>2026-03-29T13:26:29.999Z</time></trkpt><trkpt lat="42.866403514349145" lon="11.076186221903162"><ele>16.0</ele><time>2026-03-29T13:26:30.999Z</time></trkpt><trkpt lat="42.86664639195655" lon="11.076250790882844"><ele>17.0</ele><time>2026-03-29T13:26:31.999Z</time></trkpt><trkpt lat="42.86688909999111" lon="11.076312313583381"><ele>18.0</ele><time>2026-03-29T13:26:32.999Z</time></trkpt><trkpt lat="42.86713202239685" lon="11.076370486841654"><ele>18.0</ele><time>2026-03-29T13:26:33.999Z</time></trkpt><trkpt lat="42.86737137422723" lon="11.07642311717199"><ele>18.0</ele><time>2026-03-29T13:26:34.999Z</time></trkpt><trkpt lat="42.86761111837887" lon="11.076473129701085"><ele>19.0</ele><time>2026-03-29T13:26:35.999Z</time></trkpt><trkpt lat="42.86784979071056" lon="11.076524878772332"><ele>20.0</ele><time>2026-03-29T13:26:36.999Z</time></trkpt><trkpt lat="42.86808585918171" lon="11.076574302534215"><ele>21.0</ele><time>2026-03-29T13:26:37.999Z</time></trkpt><trkpt lat="42.86832210354989" lon="11.076621838194555"><ele>22.0</ele><time>2026-03-29T13:26:38.999Z</time></trkpt><trkpt lat="42.868556613914976" lon="11.076667697466094"><ele>22.5</ele><time>2026-03-29T13:26:39.999Z</time></trkpt><trkpt lat="42.86879120232784" lon="11.076712753391455"><ele>23.0</ele><time>2026-03-29T13:26:40.999Z</time></trkpt><trkpt lat="42.8690276911679" lon="11.07675685498981"><ele>23.0</ele><time>2026-03-29T13:26:41.999Z</time></trkpt><trkpt lat="42.869263081814516" lon="11.076801207242957"><ele>23.0</ele><time>2026-03-29T13:26:42.999Z</time></trkpt><trkpt lat="42.869498962345915" lon="11.0768471711987"><ele>22.0</ele><time>2026-03-29T13:26:43.999Z</time></trkpt><trkpt lat="42.86973371345952" lon="11.076892032070438"><ele>21.0</ele><time>2026-03-29T13:26:44.999Z</time></trkpt><trkpt lat="42.86996869499946" lon="11.076937199929407"><ele>21.0</ele><time>2026-03-29T13:26:45.999Z</time></trkpt><trkpt lat="42.870205272862634" lon="11.076981204876493"><ele>21.0</ele><time>2026-03-29T13:26:46.999Z</time></trkpt><trkpt lat="42.870445200908165" lon="11.077026638311592"><ele>21.0</ele><time>2026-03-29T13:26:47.999Z</time></trkpt><trkpt lat="42.8706859846888" lon="11.077070486507235"><ele>21.0</ele><time>2026-03-29T13:26:48.999Z</time></trkpt><trkpt lat="42.87092865003343" lon="11.077113764700048"><ele>19.0</ele><time>2026-03-29T13:26:49.999Z</time></trkpt><trkpt lat="42.87117182893464" lon="11.077158443316089"><ele>17.0</ele><time>2026-03-29T13:26:50.999Z</time></trkpt><trkpt lat="42.87142087106872" lon="11.07720785902108"><ele>17.0</ele><time>2026-03-29T13:26:51.999Z</time></trkpt><trkpt lat="42.87166876238194" lon="11.077258331037825"><ele>17.0</ele><time>2026-03-29T13:26:52.999Z</time></trkpt><trkpt lat="42.87191741600359" lon="11.07730850284505"><ele>18.5</ele><time>2026-03-29T13:26:53.999Z</time></trkpt><trkpt lat="42.87216876925683" lon="11.07735535895266"><ele>20.0</ele><time>2026-03-29T13:26:54.999Z</time></trkpt><trkpt lat="42.87242035095952" lon="11.077403041444843"><ele>21.0</ele><time>2026-03-29T13:26:55.999Z</time></trkpt><trkpt lat="42.87267037525821" lon="11.07745112393061"><ele>22.0</ele><time>2026-03-29T13:26:56.999Z</time></trkpt><trkpt lat="42.87292328884779" lon="11.077497712940563"><ele>22.0</ele><time>2026-03-29T13:26:57.999Z</time></trkpt><trkpt lat="42.87317829244023" lon="11.077543083888454"><ele>22.0</ele><time>2026-03-29T13:26:58.999Z</time></trkpt><trkpt lat="42.87342771600656" lon="11.07759071065945"><ele>22.0</ele><time>2026-03-29T13:26:59.999Z</time></trkpt><trkpt lat="42.87367429814076" lon="11.077637284784343"><ele>22.0</ele><time>2026-03-29T13:27:01Z</time></trkpt><trkpt lat="42.8739191698055" lon="11.077683149900325"><ele>22.0</ele><time>2026-03-29T13:27:02Z</time></trkpt><trkpt lat="42.87416445740515" lon="11.07773322632205"><ele>22.0</ele><time>2026-03-29T13:27:03Z</time></trkpt><trkpt lat="42.874409067849" lon="11.07778384746135"><ele>22.5</ele><time>2026-03-29T13:27:04Z</time></trkpt><trkpt lat="42.87465476541693" lon="11.077829439933668"><ele>23.0</ele><time>2026-03-29T13:27:05Z</time></trkpt><trkpt lat="42.87490278147301" lon="11.077873478174292"><ele>24.5</ele><time>2026-03-29T13:27:06Z</time></trkpt><trkpt lat="42.875155280210315" lon="11.077917352320046"><ele>26.0</ele><time>2026-03-29T13:27:07Z</time></trkpt><trkpt lat="42.87540886849608" lon="11.077958650746572"><ele>26.0</ele><time>2026-03-29T13:27:08Z</time></trkpt><trkpt lat="42.875664372529634" lon="11.077996881656013"><ele>26.0</ele><time>2026-03-29T13:27:09Z</time></trkpt><trkpt lat="42.875920997566645" lon="11.07802715586741"><ele>25.5</ele><time>2026-03-29T13:27:10Z</time></trkpt><trkpt lat="42.87618110816192" lon="11.078047283958574"><ele>25.0</ele><time>2026-03-29T13:27:11Z</time></trkpt><trkpt lat="42.876442136116374" lon="11.078060741207208"><ele>25.0</ele><time>2026-03-29T13:27:12Z</time></trkpt><trkpt lat="42.87669312935043" lon="11.078065113739784"><ele>25.0</ele><time>2026-03-29T13:27:13Z</time></trkpt><trkpt lat="42.876940163910824" lon="11.078062934519354"><ele>25.0</ele><time>2026-03-29T13:27:14Z</time></trkpt><trkpt lat="42.87718339182034" lon="11.078056589196082"><ele>25.0</ele><time>2026-03-29T13:27:15Z</time></trkpt><trkpt lat="42.8774292451455" lon="11.078044516375254"><ele>24.5</ele><time>2026-03-29T13:27:16Z</time></trkpt><trkpt lat="42.87767113510652" lon="11.078020904555144"><ele>24.0</ele><time>2026-03-29T13:27:17Z</time></trkpt><trkpt lat="42.87790953646584" lon="11.077994525235926"><ele>24.0</ele><time>2026-03-29T13:27:18Z</time></trkpt><trkpt lat="42.878143506123145" lon="11.077964027238545"><ele>24.0</ele><time>2026-03-29T13:27:19Z</time></trkpt><trkpt lat="42.878373593821415" lon="11.07792635528616"><ele>24.5</ele><time>2026-03-29T13:27:20Z</time></trkpt><trkpt lat="42.8786064331378" lon="11.077882694964668"><ele>25.0</ele><time>2026-03-29T13:27:21Z</time></trkpt><trkpt lat="42.87883889933445" lon="11.077834050540643"><ele>25.0</ele><time>2026-03-29T13:27:22Z</time></trkpt><trkpt lat="42.879072236227856" lon="11.077776764584684"><ele>25.0</ele><time>2026-03-29T13:27:23Z</time></trkpt><trkpt lat="42.8793042765397" lon="11.077712843340713"><ele>24.5</ele><time>2026-03-29T13:27:24Z</time></trkpt><trkpt lat="42.87953700019247" lon="11.077639368678993"><ele>24.0</ele><time>2026-03-29T13:27:25Z</time></trkpt><trkpt lat="42.879770675477054" lon="11.077560704233875"><ele>24.0</ele><time>2026-03-29T13:27:26Z</time></trkpt><trkpt lat="42.88000307066986" lon="11.07747742754094"><ele>24.0</ele><time>2026-03-29T13:27:27Z</time></trkpt><trkpt lat="42.88023487023648" lon="11.077386621073911"><ele>23.0</ele><time>2026-03-29T13:27:28Z</time></trkpt><trkpt lat="42.88046485348537" lon="11.077287573528942"><ele>22.0</ele><time>2026-03-29T13:27:29Z</time></trkpt><trkpt lat="42.88069335508308" lon="11.077183600334454"><ele>22.0</ele><time>2026-03-29T13:27:30Z</time></trkpt><trkpt lat="42.8809205333827" lon="11.077073247221819"><ele>22.0</ele><time>2026-03-29T13:27:31Z</time></trkpt><trkpt lat="42.88114939456401" lon="11.076955125290965"><ele>22.5</ele><time>2026-03-29T13:27:32Z</time></trkpt><trkpt lat="42.881380162579134" lon="11.076830364991249"><ele>23.0</ele><time>2026-03-29T13:27:33Z</time></trkpt><trkpt lat="42.88161125994194" lon="11.07669522687053"><ele>22.5</ele><time>2026-03-29T13:27:34Z</time></trkpt><trkpt lat="42.88183946472923" lon="11.076553110909218"><ele>22.0</ele><time>2026-03-29T13:27:35Z</time></trkpt><trkpt lat="42.882064687101604" lon="11.076404155213849"><ele>22.0</ele><time>2026-03-29T13:27:36Z</time></trkpt><trkpt lat="42.88228667927568" lon="11.076249034837728"><ele>22.0</ele><time>2026-03-29T13:27:37Z</time></trkpt><trkpt lat="42.882507486104174" lon="11.076087286165185"><ele>21.5</ele><time>2026-03-29T13:27:38Z</time></trkpt><trkpt lat="42.88272385256095" lon="11.075919440910143"><ele>21.0</ele><time>2026-03-29T13:27:39Z</time></trkpt><trkpt lat="42.88294359322912" lon="11.075744034062826"><ele>21.0</ele><time>2026-03-29T13:27:40Z</time></trkpt><trkpt lat="42.883160386171056" lon="11.075561489180183"><ele>21.0</ele><time>2026-03-29T13:27:41Z</time></trkpt><trkpt lat="42.88337188792422" lon="11.075372579261995"><ele>20.0</ele><time>2026-03-29T13:27:42Z</time></trkpt><trkpt lat="42.88358302950372" lon="11.075176135331967"><ele>19.0</ele><time>2026-03-29T13:27:43Z</time></trkpt><trkpt lat="42.88379006504224" lon="11.074973723731405"><ele>19.0</ele><time>2026-03-29T13:27:44Z</time></trkpt><trkpt lat="42.88399269515936" lon="11.074766823484358"><ele>19.0</ele><time>2026-03-29T13:27:45Z</time></trkpt><trkpt lat="42.88419579091852" lon="11.07455541951313"><ele>18.5</ele><time>2026-03-29T13:27:46Z</time></trkpt><trkpt lat="42.88439893388546" lon="11.074338473770158"><ele>18.0</ele><time>2026-03-29T13:27:47Z</time></trkpt><trkpt lat="42.884602188693655" lon="11.074116691917927"><ele>17.5</ele><time>2026-03-29T13:27:48Z</time></trkpt><trkpt lat="42.88480383128382" lon="11.073894713638863"><ele>17.0</ele><time>2026-03-29T13:27:49Z</time></trkpt><trkpt lat="42.88500646076104" lon="11.07366971991414"><ele>17.0</ele><time>2026-03-29T13:27:50Z</time></trkpt><trkpt lat="42.88520430305487" lon="11.073447881497174"><ele>17.0</ele><time>2026-03-29T13:27:51Z</time></trkpt><trkpt lat="42.88540439863653" lon="11.073221438915807"><ele>17.5</ele><time>2026-03-29T13:27:52Z</time></trkpt><trkpt lat="42.885601424479745" lon="11.072995825646112"><ele>18.0</ele><time>2026-03-29T13:27:53Z</time></trkpt><trkpt lat="42.88579872084532" lon="11.072773612509419"><ele>18.0</ele><time>2026-03-29T13:27:54Z</time></trkpt><trkpt lat="42.885999393235636" lon="11.072555020875134"><ele>18.0</ele><time>2026-03-29T13:27:55Z</time></trkpt><trkpt lat="42.88619597662244" lon="11.072333902166923"><ele>18.0</ele><time>2026-03-29T13:27:56Z</time></trkpt><trkpt lat="42.88639143843629" lon="11.072113984485926"><ele>18.0</ele><time>2026-03-29T13:27:57Z</time></trkpt><trkpt lat="42.88658911245975" lon="11.071892932476747"><ele>17.0</ele><time>2026-03-29T13:27:58Z</time></trkpt><trkpt lat="42.886786427272895" lon="11.071671929671531"><ele>16.0</ele><time>2026-03-29T13:27:59Z</time></trkpt><trkpt lat="42.88698226243322" lon="11.071451180418364"><ele>16.0</ele><time>2026-03-29T13:28:00Z</time></trkpt><trkpt lat="42.88718006069478" lon="11.071230375275311"><ele>16.0</ele><time>2026-03-29T13:28:01Z</time></trkpt><trkpt lat="42.88737771513926" lon="11.071013654967322"><ele>16.0</ele><time>2026-03-29T13:28:02Z</time></trkpt><trkpt lat="42.887574911536" lon="11.0707945742349"><ele>16.0</ele><time>2026-03-29T13:28:03Z</time></trkpt><trkpt lat="42.88777244264204" lon="11.070576619340804"><ele>16.5</ele><time>2026-03-29T13:28:04Z</time></trkpt><trkpt lat="42.887969783568046" lon="11.070356504460957"><ele>17.0</ele><time>2026-03-29T13:28:05Z</time></trkpt><trkpt lat="42.88816571944605" lon="11.070135455388165"><ele>17.0</ele><time>2026-03-29T13:28:06Z</time></trkpt><trkpt lat="42.888362282274485" lon="11.069913406715902"><ele>17.0</ele><time>2026-03-29T13:28:07Z</time></trkpt><trkpt lat="42.888556038914984" lon="11.069691142914628"><ele>17.0</ele><time>2026-03-29T13:28:08Z</time></trkpt><trkpt lat="42.888749768853486" lon="11.069473044907806"><ele>17.0</ele><time>2026-03-29T13:28:09Z</time></trkpt><trkpt lat="42.88894615788427" lon="11.069256581561117"><ele>16.5</ele><time>2026-03-29T13:28:10Z</time></trkpt><trkpt lat="42.88914128887425" lon="11.069042088108231"><ele>16.0</ele><time>2026-03-29T13:28:11Z</time></trkpt><trkpt lat="42.889336673228335" lon="11.06882919812415"><ele>16.0</ele><time>2026-03-29T13:28:12Z</time></trkpt><trkpt lat="42.88953088903228" lon="11.068613431765176"><ele>16.0</ele><time>2026-03-29T13:28:13Z</time></trkpt><trkpt lat="42.88972304680204" lon="11.068397584458191"><ele>16.0</ele><time>2026-03-29T13:28:14Z</time></trkpt><trkpt lat="42.88991304519176" lon="11.068180929654687"><ele>16.0</ele><time>2026-03-29T13:28:14.999Z</time></trkpt><trkpt lat="42.89010597836626" lon="11.067961737766831"><ele>16.0</ele><time>2026-03-29T13:28:15.999Z</time></trkpt><trkpt lat="42.8902994079521" lon="11.067743359440653"><ele>16.0</ele><time>2026-03-29T13:28:16.999Z</time></trkpt><trkpt lat="42.89049010118501" lon="11.067526984536983"><ele>16.0</ele><time>2026-03-29T13:28:17.999Z</time></trkpt><trkpt lat="42.89068265030207" lon="11.06730466676436"><ele>16.0</ele><time>2026-03-29T13:28:18.999Z</time></trkpt><trkpt lat="42.89086815156046" lon="11.067077208938116"><ele>15.5</ele><time>2026-03-29T13:28:19.999Z</time></trkpt><trkpt lat="42.89105458952766" lon="11.066841451933588"><ele>15.0</ele><time>2026-03-29T13:28:20.999Z</time></trkpt><trkpt lat="42.89123274511341" lon="11.066599405700739"><ele>15.0</ele><time>2026-03-29T13:28:21.999Z</time></trkpt><trkpt lat="42.891406560431896" lon="11.066350887401228"><ele>15.0</ele><time>2026-03-29T13:28:22.999Z</time></trkpt><trkpt lat="42.891579292252025" lon="11.066096664416436"><ele>15.0</ele><time>2026-03-29T13:28:23.999Z</time></trkpt><trkpt lat="42.891748203513444" lon="11.065834631324066"><ele>15.0</ele><time>2026-03-29T13:28:24.999Z</time></trkpt><trkpt lat="42.89191067272255" lon="11.065566902642386"><ele>15.0</ele><time>2026-03-29T13:28:25.999Z</time></trkpt><trkpt lat="42.89206652518757" lon="11.065289812123718"><ele>15.0</ele><time>2026-03-29T13:28:26.999Z</time></trkpt><trkpt lat="42.89221617521868" lon="11.065014478489783"><ele>14.5</ele><time>2026-03-29T13:28:27.999Z</time></trkpt><trkpt lat="42.892360658357646" lon="11.064735229274536"><ele>14.0</ele><time>2026-03-29T13:28:28.999Z</time></trkpt><trkpt lat="42.89249673112608" lon="11.064449702244108"><ele>14.5</ele><time>2026-03-29T13:28:29.999Z</time></trkpt><trkpt lat="42.89263080685694" lon="11.064160681051153"><ele>15.0</ele><time>2026-03-29T13:28:30.999Z</time></trkpt><trkpt lat="42.892763272813234" lon="11.063865706449567"><ele>15.0</ele><time>2026-03-29T13:28:31.999Z</time></trkpt><trkpt lat="42.89288993224867" lon="11.06356977049391"><ele>15.0</ele><time>2026-03-29T13:28:32.999Z</time></trkpt><trkpt lat="42.8930120541918" lon="11.063266559984003"><ele>15.5</ele><time>2026-03-29T13:28:33.999Z</time></trkpt><trkpt lat="42.89313107712361" lon="11.06296606183983"><ele>16.0</ele><time>2026-03-29T13:28:34.999Z</time></trkpt><trkpt lat="42.89324868174598" lon="11.062665057613522"><ele>15.5</ele><time>2026-03-29T13:28:35.999Z</time></trkpt><trkpt lat="42.893364609528476" lon="11.062365652593572"><ele>15.0</ele><time>2026-03-29T13:28:36.999Z</time></trkpt><trkpt lat="42.89348087581003" lon="11.062067371564835"><ele>15.0</ele><time>2026-03-29T13:28:37.999Z</time></trkpt><trkpt lat="42.89359813204557" lon="11.061771389126934"><ele>15.0</ele><time>2026-03-29T13:28:38.999Z</time></trkpt><trkpt lat="42.89371210173266" lon="11.061476771529644"><ele>15.5</ele><time>2026-03-29T13:28:39.999Z</time></trkpt><trkpt lat="42.89382567102453" lon="11.06118448151629"><ele>16.0</ele><time>2026-03-29T13:28:40.999Z</time></trkpt><trkpt lat="42.89394343189009" lon="11.060885959497632"><ele>15.0</ele><time>2026-03-29T13:28:41.999Z</time></trkpt><trkpt lat="42.894067674295336" lon="11.060581712381584"><ele>14.0</ele><time>2026-03-29T13:28:42.999Z</time></trkpt><trkpt lat="42.89420286884529" lon="11.060256784526237"><ele>14.0</ele><time>2026-03-29T13:28:43.999Z</time></trkpt><trkpt lat="42.894341985641056" lon="11.059919339576942"><ele>14.0</ele><time>2026-03-29T13:28:44.999Z</time></trkpt><trkpt lat="42.8944694801026" lon="11.059595468735727"><ele>14.0</ele><time>2026-03-29T13:28:45.999Z</time></trkpt><trkpt lat="42.894598266808416" lon="11.059274818272483"><ele>14.0</ele><time>2026-03-29T13:28:46.999Z</time></trkpt><trkpt lat="42.894722907781045" lon="11.058957608466796"><ele>13.5</ele><time>2026-03-29T13:28:47.999Z</time></trkpt><trkpt lat="42.894846235125584" lon="11.058640590889048"><ele>13.0</ele><time>2026-03-29T13:28:48.999Z</time></trkpt><trkpt lat="42.89496873316149" lon="11.058325134527054"><ele>13.0</ele><time>2026-03-29T13:28:49.999Z</time></trkpt><trkpt lat="42.89509425962534" lon="11.058011146137048"><ele>13.0</ele><time>2026-03-29T13:28:50.999Z</time></trkpt><trkpt lat="42.89521861519472" lon="11.057702114459792"><ele>14.0</ele><time>2026-03-29T13:28:51.999Z</time></trkpt><trkpt lat="42.8953440446624" lon="11.057390915820447"><ele>15.0</ele><time>2026-03-29T13:28:52.999Z</time></trkpt><trkpt lat="42.895467366784715" lon="11.05708092186903"><ele>15.0</ele><time>2026-03-29T13:28:53.999Z</time></trkpt><trkpt lat="42.89558969130335" lon="11.056770004456546"><ele>15.0</ele><time>2026-03-29T13:28:54.999Z</time></trkpt><trkpt lat="42.895708304858694" lon="11.05646137664105"><ele>14.5</ele><time>2026-03-29T13:28:55.999Z</time></trkpt><trkpt lat="42.89583032947559" lon="11.05615304052015"><ele>14.0</ele><time>2026-03-29T13:28:56.999Z</time></trkpt><trkpt lat="42.89595349946442" lon="11.055848174609295"><ele>15.0</ele><time>2026-03-29T13:28:57.999Z</time></trkpt><trkpt lat="42.89607657098122" lon="11.055543651901036"><ele>16.0</ele><time>2026-03-29T13:28:58.999Z</time></trkpt><trkpt lat="42.89619445186188" lon="11.055238936466207"><ele>16.0</ele><time>2026-03-29T13:28:59.999Z</time></trkpt><trkpt lat="42.896314397864444" lon="11.054931222361594"><ele>16.0</ele><time>2026-03-29T13:29:00.999Z</time></trkpt><trkpt lat="42.89643316477415" lon="11.054628222615337"><ele>16.0</ele><time>2026-03-29T13:29:01.999Z</time></trkpt><trkpt lat="42.89655298468225" lon="11.054325498391398"><ele>16.0</ele><time>2026-03-29T13:29:02.999Z</time></trkpt><trkpt lat="42.89667313859968" lon="11.054022220463365"><ele>15.5</ele><time>2026-03-29T13:29:03.999Z</time></trkpt><trkpt lat="42.89679714686013" lon="11.053715170361187"><ele>15.0</ele><time>2026-03-29T13:29:04.999Z</time></trkpt><trkpt lat="42.89691543200602" lon="11.053408507626358"><ele>14.5</ele><time>2026-03-29T13:29:05.999Z</time></trkpt><trkpt lat="42.8970366932546" lon="11.053096205595354"><ele>14.0</ele><time>2026-03-29T13:29:07Z</time></trkpt><trkpt lat="42.897159634535576" lon="11.052787136321019"><ele>14.0</ele><time>2026-03-29T13:29:08Z</time></trkpt><trkpt lat="42.89728654359843" lon="11.052477286288273"><ele>14.0</ele><time>2026-03-29T13:29:09Z</time></trkpt><trkpt lat="42.89741310552203" lon="11.052168202016265"><ele>14.0</ele><time>2026-03-29T13:29:10Z</time></trkpt><trkpt lat="42.89753854778617" lon="11.051856330283352"><ele>14.0</ele><time>2026-03-29T13:29:11Z</time></trkpt><trkpt lat="42.897661346864766" lon="11.051538843202332"><ele>15.0</ele><time>2026-03-29T13:29:12Z</time></trkpt><trkpt lat="42.897781534181895" lon="11.051223636314583"><ele>16.0</ele><time>2026-03-29T13:29:13Z</time></trkpt><trkpt lat="42.897907380014246" lon="11.050906393635513"><ele>16.0</ele><time>2026-03-29T13:29:14Z</time></trkpt><trkpt lat="42.89803751100027" lon="11.050592929597107"><ele>16.0</ele><time>2026-03-29T13:29:15Z</time></trkpt><trkpt lat="42.89817362326846" lon="11.050275317032582"><ele>16.0</ele><time>2026-03-29T13:29:16Z</time></trkpt><trkpt lat="42.89830913073735" lon="11.049959412700598"><ele>16.0</ele><time>2026-03-29T13:29:17Z</time></trkpt><trkpt lat="42.89844996741564" lon="11.049645674543148"><ele>16.0</ele><time>2026-03-29T13:29:18Z</time></trkpt><trkpt lat="42.89859644877253" lon="11.049335550971925"><ele>16.0</ele><time>2026-03-29T13:29:19Z</time></trkpt><trkpt lat="42.898746522871626" lon="11.049028992630008"><ele>15.0</ele><time>2026-03-29T13:29:20Z</time></trkpt><trkpt lat="42.89890523650727" lon="11.048731327010463"><ele>14.0</ele><time>2026-03-29T13:29:21Z</time></trkpt><trkpt lat="42.8990736084478" lon="11.048441150800159"><ele>13.5</ele><time>2026-03-29T13:29:22Z</time></trkpt><trkpt lat="42.89924666254492" lon="11.048154677066742"><ele>13.0</ele><time>2026-03-29T13:29:23Z</time></trkpt><trkpt lat="42.899423715085625" lon="11.047872356528552"><ele>14.5</ele><time>2026-03-29T13:29:24Z</time></trkpt><trkpt lat="42.899603800536156" lon="11.047594369846767"><ele>16.0</ele><time>2026-03-29T13:29:25Z</time></trkpt><trkpt lat="42.89978371701244" lon="11.04732019914953"><ele>16.0</ele><time>2026-03-29T13:29:26Z</time></trkpt><trkpt lat="42.899967218283685" lon="11.047042189592224"><ele>16.0</ele><time>2026-03-29T13:29:27Z</time></trkpt><trkpt lat="42.9001495127269" lon="11.046774664390725"><ele>16.0</ele><time>2026-03-29T13:29:28Z</time></trkpt><trkpt lat="42.90034369252078" lon="11.046491958960853"><ele>16.0</ele><time>2026-03-29T13:29:29Z</time></trkpt><trkpt lat="42.90052837643372" lon="11.046225985988064"><ele>16.0</ele><time>2026-03-29T13:29:30Z</time></trkpt><trkpt lat="42.90071234785063" lon="11.045956140577145"><ele>16.0</ele><time>2026-03-29T13:29:31Z</time></trkpt><trkpt lat="42.90089764947177" lon="11.045682614783795"><ele>18.0</ele><time>2026-03-29T13:29:32Z</time></trkpt><trkpt lat="42.90108524150984" lon="11.045415153218226"><ele>20.0</ele><time>2026-03-29T13:29:33Z</time></trkpt><trkpt lat="42.901271535662865" lon="11.045147869566588"><ele>19.0</ele><time>2026-03-29T13:29:34Z</time></trkpt><trkpt lat="42.90145713660497" lon="11.04488011247893"><ele>18.0</ele><time>2026-03-29T13:29:35Z</time></trkpt><trkpt lat="42.901641754657334" lon="11.044609503261846"><ele>17.5</ele><time>2026-03-29T13:29:36Z</time></trkpt><trkpt lat="42.90182617259194" lon="11.04433642781289"><ele>17.0</ele><time>2026-03-29T13:29:37Z</time></trkpt><trkpt lat="42.902004910604404" lon="11.044061676431225"><ele>17.0</ele><time>2026-03-29T13:29:38Z</time></trkpt><trkpt lat="42.90217743899946" lon="11.043773527542282"><ele>17.0</ele><time>2026-03-29T13:29:39Z</time></trkpt><trkpt lat="42.90234006830275" lon="11.04347737253457"><ele>17.0</ele><time>2026-03-29T13:29:40Z</time></trkpt><trkpt lat="42.902499334500725" lon="11.043176120158455"><ele>17.0</ele><time>2026-03-29T13:29:41Z</time></trkpt><trkpt lat="42.90265625926556" lon="11.042876730159318"><ele>17.0</ele><time>2026-03-29T13:29:42Z</time></trkpt><trkpt lat="42.90280506036484" lon="11.042583537563175"><ele>17.0</ele><time>2026-03-29T13:29:43Z</time></trkpt><trkpt lat="42.902943915150004" lon="11.042297254324618"><ele>15.5</ele><time>2026-03-29T13:29:44Z</time></trkpt><trkpt lat="42.903080995991644" lon="11.042002542476073"><ele>14.0</ele><time>2026-03-29T13:29:45Z</time></trkpt><trkpt lat="42.903214176605566" lon="11.041703154449694"><ele>14.5</ele><time>2026-03-29T13:29:46Z</time></trkpt><trkpt lat="42.90334317232765" lon="11.041402025782784"><ele>15.0</ele><time>2026-03-29T13:29:47Z</time></trkpt><trkpt lat="42.903466565455346" lon="11.041091955600603"><ele>15.0</ele><time>2026-03-29T13:29:48Z</time></trkpt><trkpt lat="42.90358336362853" lon="11.04078088611213"><ele>15.0</ele><time>2026-03-29T13:29:49Z</time></trkpt><trkpt lat="42.90369376934774" lon="11.040463921021633"><ele>15.0</ele><time>2026-03-29T13:29:50Z</time></trkpt><trkpt lat="42.9038008303226" lon="11.040140539182344"><ele>15.0</ele><time>2026-03-29T13:29:51Z</time></trkpt><trkpt lat="42.90390075901834" lon="11.039818650478251"><ele>15.5</ele><time>2026-03-29T13:29:52Z</time></trkpt><trkpt lat="42.904000541556925" lon="11.039492894616547"><ele>16.0</ele><time>2026-03-29T13:29:53Z</time></trkpt><trkpt lat="42.904096005483396" lon="11.039168586292016"><ele>16.0</ele><time>2026-03-29T13:29:54Z</time></trkpt><trkpt lat="42.904188879152514" lon="11.038839385854198"><ele>16.0</ele><time>2026-03-29T13:29:55Z</time></trkpt><trkpt lat="42.9042813882719" lon="11.038512842767469"><ele>15.5</ele><time>2026-03-29T13:29:56Z</time></trkpt><trkpt lat="42.904376610841474" lon="11.038190210726018"><ele>15.0</ele><time>2026-03-29T13:29:57Z</time></trkpt><trkpt lat="42.90447419646844" lon="11.037863075858724"><ele>15.0</ele><time>2026-03-29T13:29:58Z</time></trkpt><trkpt lat="42.90456973517853" lon="11.03753489901333"><ele>15.0</ele><time>2026-03-29T13:29:59Z</time></trkpt><trkpt lat="42.904662166742995" lon="11.03720551898893"><ele>15.5</ele><time>2026-03-29T13:30:00Z</time></trkpt><trkpt lat="42.90475686075594" lon="11.036873139445277"><ele>16.0</ele><time>2026-03-29T13:30:01Z</time></trkpt><trkpt lat="42.90485409768083" lon="11.036540632530128"><ele>16.5</ele><time>2026-03-29T13:30:02Z</time></trkpt><trkpt lat="42.904954732286974" lon="11.036209943697482"><ele>17.0</ele><time>2026-03-29T13:30:03Z</time></trkpt><trkpt lat="42.905058604872835" lon="11.03587887311585"><ele>16.5</ele><time>2026-03-29T13:30:04Z</time></trkpt><trkpt lat="42.9051660908226" lon="11.03554292347225"><ele>16.0</ele><time>2026-03-29T13:30:05Z</time></trkpt><trkpt lat="42.90527051626499" lon="11.03520797917565"><ele>15.5</ele><time>2026-03-29T13:30:06Z</time></trkpt><trkpt lat="42.90537678185197" lon="11.034869813897638"><ele>15.0</ele><time>2026-03-29T13:30:07Z</time></trkpt><trkpt lat="42.905489390431974" lon="11.034528902609615"><ele>15.0</ele><time>2026-03-29T13:30:08Z</time></trkpt><trkpt lat="42.9056013424575" lon="11.03420596549859"><ele>15.0</ele><time>2026-03-29T13:30:09Z</time></trkpt><trkpt lat="42.90571553567067" lon="11.033884444255012"><ele>15.5</ele><time>2026-03-29T13:30:10Z</time></trkpt><trkpt lat="42.90583286352592" lon="11.033566055974468"><ele>16.0</ele><time>2026-03-29T13:30:11Z</time></trkpt><trkpt lat="42.90595076957472" lon="11.033247310570511"><ele>16.0</ele><time>2026-03-29T13:30:12Z</time></trkpt><trkpt lat="42.90606980271074" lon="11.032928395567446"><ele>16.0</ele><time>2026-03-29T13:30:13Z</time></trkpt><trkpt lat="42.90618581014954" lon="11.032616078142224"><ele>17.0</ele><time>2026-03-29T13:30:14Z</time></trkpt><trkpt lat="42.90630439622066" lon="11.032297771073182"><ele>18.0</ele><time>2026-03-29T13:30:15Z</time></trkpt><trkpt lat="42.906423923181876" lon="11.031982730750384"><ele>18.0</ele><time>2026-03-29T13:30:16Z</time></trkpt><trkpt lat="42.906542575198856" lon="11.031668749713079"><ele>18.0</ele><time>2026-03-29T13:30:17Z</time></trkpt><trkpt lat="42.90666338961145" lon="11.031359856400679"><ele>17.5</ele><time>2026-03-29T13:30:18Z</time></trkpt><trkpt lat="42.9067844709513" lon="11.031047145256396"><ele>17.0</ele><time>2026-03-29T13:30:19Z</time></trkpt><trkpt lat="42.90691096582916" lon="11.030731140201446"><ele>17.0</ele><time>2026-03-29T13:30:19.999Z</time></trkpt><trkpt lat="42.907028494626225" lon="11.03041541961285"><ele>17.0</ele><time>2026-03-29T13:30:20.999Z</time></trkpt><trkpt lat="42.90714277115589" lon="11.030097461399361"><ele>17.0</ele><time>2026-03-29T13:30:21.999Z</time></trkpt><trkpt lat="42.907258209681856" lon="11.029780016215657"><ele>17.0</ele><time>2026-03-29T13:30:22.999Z</time></trkpt><trkpt lat="42.90737429437322" lon="11.02946792341635"><ele>17.0</ele><time>2026-03-29T13:30:23.999Z</time></trkpt><trkpt lat="42.90748654354108" lon="11.02915509523284"><ele>17.0</ele><time>2026-03-29T13:30:24.999Z</time></trkpt><trkpt lat="42.90760203567376" lon="11.028849807820054"><ele>17.0</ele><time>2026-03-29T13:30:25.999Z</time></trkpt><trkpt lat="42.90771646374758" lon="11.028550422530842"><ele>17.0</ele><time>2026-03-29T13:30:26.999Z</time></trkpt><trkpt lat="42.90782977824264" lon="11.028251273923734"><ele>17.5</ele><time>2026-03-29T13:30:27.999Z</time></trkpt><trkpt lat="42.90794491024804" lon="11.027945092098205"><ele>18.0</ele><time>2026-03-29T13:30:28.999Z</time></trkpt><trkpt lat="42.90805348945284" lon="11.027641962056475"><ele>18.0</ele><time>2026-03-29T13:30:29.999Z</time></trkpt><trkpt lat="42.90816347123454" lon="11.02734395128991"><ele>18.0</ele><time>2026-03-29T13:30:30.999Z</time></trkpt><trkpt lat="42.90827523116098" lon="11.027048927943664"><ele>18.0</ele><time>2026-03-29T13:30:31.999Z</time></trkpt><trkpt lat="42.90839450036871" lon="11.026747907137299"><ele>18.0</ele><time>2026-03-29T13:30:32.999Z</time></trkpt><trkpt lat="42.908508197839204" lon="11.02645078957561"><ele>16.5</ele><time>2026-03-29T13:30:33.999Z</time></trkpt><trkpt lat="42.90862210713057" lon="11.026148396534369"><ele>15.0</ele><time>2026-03-29T13:30:34.999Z</time></trkpt><trkpt lat="42.90873653434197" lon="11.025844249741226"><ele>16.0</ele><time>2026-03-29T13:30:35.999Z</time></trkpt><trkpt lat="42.90885634347291" lon="11.025538111219726"><ele>17.0</ele><time>2026-03-29T13:30:36.999Z</time></trkpt><trkpt lat="42.90897496638119" lon="11.025234599830924"><ele>16.0</ele><time>2026-03-29T13:30:37.999Z</time></trkpt><trkpt lat="42.90909197734341" lon="11.024928075095932"><ele>15.0</ele><time>2026-03-29T13:30:38.999Z</time></trkpt><trkpt lat="42.90920762680083" lon="11.024617141468125"><ele>15.0</ele><time>2026-03-29T13:30:39.999Z</time></trkpt><trkpt lat="42.90932350107146" lon="11.024301191434539"><ele>15.0</ele><time>2026-03-29T13:30:40.999Z</time></trkpt><trkpt lat="42.90944109293772" lon="11.023985940217216"><ele>16.0</ele><time>2026-03-29T13:30:41.999Z</time></trkpt><trkpt lat="42.9095570918535" lon="11.023675299750144"><ele>17.0</ele><time>2026-03-29T13:30:42.999Z</time></trkpt><trkpt lat="42.909678032244365" lon="11.02336065052571"><ele>17.5</ele><time>2026-03-29T13:30:43.999Z</time></trkpt><trkpt lat="42.909793939341" lon="11.02304731228099"><ele>18.0</ele><time>2026-03-29T13:30:44.999Z</time></trkpt><trkpt lat="42.90991149868685" lon="11.022735679500196"><ele>18.0</ele><time>2026-03-29T13:30:45.999Z</time></trkpt><trkpt lat="42.91002794669351" lon="11.022418493022116"><ele>18.0</ele><time>2026-03-29T13:30:46.999Z</time></trkpt><trkpt lat="42.910147336837106" lon="11.022102466019364"><ele>18.5</ele><time>2026-03-29T13:30:47.999Z</time></trkpt><trkpt lat="42.91026767910356" lon="11.0217839497214"><ele>19.0</ele><time>2026-03-29T13:30:48.999Z</time></trkpt><trkpt lat="42.91038319646664" lon="11.02146918103037"><ele>19.0</ele><time>2026-03-29T13:30:49.999Z</time></trkpt><trkpt lat="42.91050574739437" lon="11.021154879592475"><ele>19.0</ele><time>2026-03-29T13:30:50.999Z</time></trkpt><trkpt lat="42.91062626057198" lon="11.020833848383653"><ele>19.5</ele><time>2026-03-29T13:30:51.999Z</time></trkpt><trkpt lat="42.910747418625576" lon="11.02051281034094"><ele>20.0</ele><time>2026-03-29T13:30:52.999Z</time></trkpt><trkpt lat="42.910865042463385" lon="11.020197691876152"><ele>19.0</ele><time>2026-03-29T13:30:53.999Z</time></trkpt><trkpt lat="42.91098369393024" lon="11.019879894483388"><ele>18.0</ele><time>2026-03-29T13:30:54.999Z</time></trkpt><trkpt lat="42.91110038055089" lon="11.019561075669742"><ele>18.0</ele><time>2026-03-29T13:30:55.999Z</time></trkpt><trkpt lat="42.911226452530215" lon="11.019250319182365"><ele>18.0</ele><time>2026-03-29T13:30:56.999Z</time></trkpt><trkpt lat="42.911353892016294" lon="11.01893369154603"><ele>18.0</ele><time>2026-03-29T13:30:57.999Z</time></trkpt><trkpt lat="42.911482905075815" lon="11.01862546905381"><ele>18.0</ele><time>2026-03-29T13:30:58.999Z</time></trkpt><trkpt lat="42.91161596216531" lon="11.018319681742584"><ele>19.5</ele><time>2026-03-29T13:30:59.999Z</time></trkpt><trkpt lat="42.91175231548662" lon="11.018013870271998"><ele>21.0</ele><time>2026-03-29T13:31:00.999Z</time></trkpt><trkpt lat="42.91189981823846" lon="11.017714863737128"><ele>21.5</ele><time>2026-03-29T13:31:01.999Z</time></trkpt><trkpt lat="42.912048749992856" lon="11.017420004833006"><ele>22.0</ele><time>2026-03-29T13:31:02.999Z</time></trkpt><trkpt lat="42.9122096162689" lon="11.01713449342868"><ele>22.0</ele><time>2026-03-29T13:31:03.999Z</time></trkpt><trkpt lat="42.91237544634435" lon="11.016856223756232"><ele>22.0</ele><time>2026-03-29T13:31:04.999Z</time></trkpt><trkpt lat="42.91254596287387" lon="11.016587231863491"><ele>24.0</ele><time>2026-03-29T13:31:05.999Z</time></trkpt><trkpt lat="42.9127217243331" lon="11.01632373982353"><ele>26.0</ele><time>2026-03-29T13:31:06.999Z</time></trkpt><trkpt lat="42.91290442226635" lon="11.016069203325348"><ele>26.0</ele><time>2026-03-29T13:31:07.999Z</time></trkpt><trkpt lat="42.91309479121535" lon="11.015822107527653"><ele>26.0</ele><time>2026-03-29T13:31:08.999Z</time></trkpt><trkpt lat="42.91328972491138" lon="11.01557687570913"><ele>23.5</ele><time>2026-03-29T13:31:09.999Z</time></trkpt><trkpt lat="42.91348655056397" lon="11.015337577297768"><ele>21.0</ele><time>2026-03-29T13:31:10.999Z</time></trkpt><trkpt lat="42.91369047582465" lon="11.015107710763441"><ele>19.5</ele><time>2026-03-29T13:31:11.999Z</time></trkpt><trkpt lat="42.913899810740496" lon="11.014886212951282"><ele>18.0</ele><time>2026-03-29T13:31:13Z</time></trkpt><trkpt lat="42.91410735823072" lon="11.014665525362032"><ele>18.5</ele><time>2026-03-29T13:31:14Z</time></trkpt><trkpt lat="42.914321924377774" lon="11.014451733285638"><ele>19.0</ele><time>2026-03-29T13:31:15Z</time></trkpt><trkpt lat="42.914534285310616" lon="11.01424109721333"><ele>18.5</ele><time>2026-03-29T13:31:16Z</time></trkpt><trkpt lat="42.914746699972575" lon="11.014028383716937"><ele>18.0</ele><time>2026-03-29T13:31:17Z</time></trkpt><trkpt lat="42.91495615272564" lon="11.013819456664473"><ele>19.5</ele><time>2026-03-29T13:31:18Z</time></trkpt><trkpt lat="42.91516133172949" lon="11.013603162942593"><ele>21.0</ele><time>2026-03-29T13:31:19Z</time></trkpt><trkpt lat="42.9153725465965" lon="11.01339230294627"><ele>20.5</ele><time>2026-03-29T13:31:20Z</time></trkpt><trkpt lat="42.915581495962954" lon="11.013177707612618"><ele>20.0</ele><time>2026-03-29T13:31:21Z</time></trkpt><trkpt lat="42.915787211553386" lon="11.012959545684266"><ele>20.5</ele><time>2026-03-29T13:31:22Z</time></trkpt><trkpt lat="42.91598889172045" lon="11.012735984960894"><ele>21.0</ele><time>2026-03-29T13:31:23Z</time></trkpt><trkpt lat="42.91618816486623" lon="11.012505786216424"><ele>20.5</ele><time>2026-03-29T13:31:24Z</time></trkpt><trkpt lat="42.91637992885307" lon="11.012270419982704"><ele>20.0</ele><time>2026-03-29T13:31:25Z</time></trkpt><trkpt lat="42.91656471973354" lon="11.012028613166892"><ele>20.0</ele><time>2026-03-29T13:31:26Z</time></trkpt><trkpt lat="42.916748355382865" lon="11.01178651764141"><ele>20.0</ele><time>2026-03-29T13:31:27Z</time></trkpt><trkpt lat="42.916922644524455" lon="11.011537459397594"><ele>20.0</ele><time>2026-03-29T13:31:28Z</time></trkpt><trkpt lat="42.91709312707932" lon="11.011276857078004"><ele>20.0</ele><time>2026-03-29T13:31:29Z</time></trkpt><trkpt lat="42.91725468640326" lon="11.011008707028154"><ele>19.0</ele><time>2026-03-29T13:31:30Z</time></trkpt><trkpt lat="42.91740889608502" lon="11.010735856150372"><ele>18.0</ele><time>2026-03-29T13:31:31Z</time></trkpt><trkpt lat="42.917559446114005" lon="11.010458594522385"><ele>18.0</ele><time>2026-03-29T13:31:32Z</time></trkpt><trkpt lat="42.91769880414176" lon="11.010175722913901"><ele>18.0</ele><time>2026-03-29T13:31:33Z</time></trkpt><trkpt lat="42.91783172685921" lon="11.009888402046643"><ele>18.0</ele><time>2026-03-29T13:31:34Z</time></trkpt><trkpt lat="42.917960177432526" lon="11.00959583680088"><ele>18.0</ele><time>2026-03-29T13:31:35Z</time></trkpt><trkpt lat="42.918083827936854" lon="11.009301111304516"><ele>18.5</ele><time>2026-03-29T13:31:36Z</time></trkpt><trkpt lat="42.91820913832661" lon="11.00899980036932"><ele>19.0</ele><time>2026-03-29T13:31:37Z</time></trkpt><trkpt lat="42.91832765920871" lon="11.008694979827798"><ele>18.5</ele><time>2026-03-29T13:31:38Z</time></trkpt><trkpt lat="42.91844871251851" lon="11.00838638366694"><ele>18.0</ele><time>2026-03-29T13:31:39Z</time></trkpt><trkpt lat="42.91856482843145" lon="11.008075068500235"><ele>18.0</ele><time>2026-03-29T13:31:40Z</time></trkpt><trkpt lat="42.918682073405044" lon="11.007761281454222"><ele>18.0</ele><time>2026-03-29T13:31:41Z</time></trkpt><trkpt lat="42.918801978059825" lon="11.007443505471336"><ele>17.5</ele><time>2026-03-29T13:31:42Z</time></trkpt><trkpt lat="42.91892247515809" lon="11.00712224326407"><ele>17.0</ele><time>2026-03-29T13:31:43Z</time></trkpt><trkpt lat="42.9190447343778" lon="11.00679721798441"><ele>19.0</ele><time>2026-03-29T13:31:44Z</time></trkpt><trkpt lat="42.91916833376574" lon="11.006471112783464"><ele>21.0</ele><time>2026-03-29T13:31:45Z</time></trkpt><trkpt lat="42.919294236386165" lon="11.006142339961553"><ele>25.0</ele><time>2026-03-29T13:31:46Z</time></trkpt><trkpt lat="42.919425022097364" lon="11.005809748910682"><ele>29.0</ele><time>2026-03-29T13:31:47Z</time></trkpt><trkpt lat="42.91955602307483" lon="11.005477002105286"><ele>29.0</ele><time>2026-03-29T13:31:48Z</time></trkpt><trkpt lat="42.91968752105316" lon="11.005143156257766"><ele>29.0</ele><time>2026-03-29T13:31:49Z</time></trkpt><trkpt lat="42.9198133985896" lon="11.004803443284858"><ele>27.0</ele><time>2026-03-29T13:31:50Z</time></trkpt><trkpt lat="42.919941651088976" lon="11.004469156466726"><ele>25.0</ele><time>2026-03-29T13:31:51Z</time></trkpt><trkpt lat="42.920065870409154" lon="11.004133377033288"><ele>24.5</ele><time>2026-03-29T13:31:52Z</time></trkpt><trkpt lat="42.92018587651891" lon="11.00381512191922"><ele>24.0</ele><time>2026-03-29T13:31:53Z</time></trkpt><trkpt lat="42.9203049074769" lon="11.003494320809402"><ele>23.0</ele><time>2026-03-29T13:31:54Z</time></trkpt><trkpt lat="42.920425379246836" lon="11.003178181928595"><ele>22.0</ele><time>2026-03-29T13:31:55Z</time></trkpt><trkpt lat="42.92054747897452" lon="11.002859918310683"><ele>22.0</ele><time>2026-03-29T13:31:56Z</time></trkpt><trkpt lat="42.92066621782879" lon="11.002543957409095"><ele>22.0</ele><time>2026-03-29T13:31:57Z</time></trkpt><trkpt lat="42.92078234662633" lon="11.002232012735284"><ele>23.0</ele><time>2026-03-29T13:31:58Z</time></trkpt><trkpt lat="42.92090114956397" lon="11.00191687103744"><ele>24.0</ele><time>2026-03-29T13:31:59Z</time></trkpt><trkpt lat="42.92102240220484" lon="11.001598299472706"><ele>24.5</ele><time>2026-03-29T13:32:00Z</time></trkpt><trkpt lat="42.92113761837449" lon="11.001284468274614"><ele>25.0</ele><time>2026-03-29T13:32:01Z</time></trkpt><trkpt lat="42.921251383574706" lon="11.000966341502355"><ele>25.0</ele><time>2026-03-29T13:32:02Z</time></trkpt><trkpt lat="42.92136834731548" lon="11.000652283200681"><ele>25.0</ele><time>2026-03-29T13:32:03Z</time></trkpt><trkpt lat="42.92148657634895" lon="11.00033084022964"><ele>25.0</ele><time>2026-03-29T13:32:04Z</time></trkpt><trkpt lat="42.921603968455535" lon="11.000013135224439"><ele>25.0</ele><time>2026-03-29T13:32:05Z</time></trkpt><trkpt lat="42.921716750019165" lon="10.999694575543476"><ele>25.5</ele><time>2026-03-29T13:32:06Z</time></trkpt><trkpt lat="42.92182881042789" lon="10.999372040724017"><ele>26.0</ele><time>2026-03-29T13:32:07Z</time></trkpt><trkpt lat="42.921937804137755" lon="10.999044738609513"><ele>25.0</ele><time>2026-03-29T13:32:08Z</time></trkpt><trkpt lat="42.92204486259002" lon="10.998714185041242"><ele>24.0</ele><time>2026-03-29T13:32:09Z</time></trkpt><trkpt lat="42.92214921959019" lon="10.99838098231225"><ele>24.5</ele><time>2026-03-29T13:32:10Z</time></trkpt><trkpt lat="42.92225033526999" lon="10.998042788875813"><ele>25.0</ele><time>2026-03-29T13:32:11Z</time></trkpt><trkpt lat="42.922348030058124" lon="10.997701721191806"><ele>25.5</ele><time>2026-03-29T13:32:12Z</time></trkpt><trkpt lat="42.922435985591385" lon="10.99734247642496"><ele>26.0</ele><time>2026-03-29T13:32:13Z</time></trkpt><trkpt lat="42.922520323478835" lon="10.996993066199424"><ele>25.0</ele><time>2026-03-29T13:32:14Z</time></trkpt><trkpt lat="42.922595773244716" lon="10.996632785788245"><ele>24.0</ele><time>2026-03-29T13:32:15Z</time></trkpt><trkpt lat="42.92266054696255" lon="10.996263763309905"><ele>24.0</ele><time>2026-03-29T13:32:16Z</time></trkpt><trkpt lat="42.92271648619507" lon="10.99589700595249"><ele>24.0</ele><time>2026-03-29T13:32:17Z</time></trkpt><trkpt lat="42.92276740961441" lon="10.995525808018183"><ele>24.0</ele><time>2026-03-29T13:32:18Z</time></trkpt><trkpt lat="42.922810462388185" lon="10.995159580887393"><ele>24.0</ele><time>2026-03-29T13:32:19Z</time></trkpt><trkpt lat="42.922842460006386" lon="10.99479153771304"><ele>24.0</ele><time>2026-03-29T13:32:20Z</time></trkpt><trkpt lat="42.92286908208665" lon="10.994419484080524"><ele>24.0</ele><time>2026-03-29T13:32:21Z</time></trkpt><trkpt lat="42.92289158225348" lon="10.99404772536413"><ele>24.0</ele><time>2026-03-29T13:32:22Z</time></trkpt><trkpt lat="42.92290479942596" lon="10.99367569343927"><ele>24.0</ele><time>2026-03-29T13:32:22.999Z</time></trkpt><trkpt lat="42.9229046331847" lon="10.993306342866557"><ele>23.5</ele><time>2026-03-29T13:32:23.999Z</time></trkpt><trkpt lat="42.92289691120555" lon="10.992937314578747"><ele>23.0</ele><time>2026-03-29T13:32:24.999Z</time></trkpt><trkpt lat="42.92287990540102" lon="10.99256530273248"><ele>23.0</ele><time>2026-03-29T13:32:25.999Z</time></trkpt><trkpt lat="42.922856855412064" lon="10.992194487557594"><ele>23.0</ele><time>2026-03-29T13:32:26.999Z</time></trkpt><trkpt lat="42.92282455156911" lon="10.99182509629499"><ele>24.0</ele><time>2026-03-29T13:32:27.999Z</time></trkpt><trkpt lat="42.92278855362975" lon="10.99145613856109"><ele>25.0</ele><time>2026-03-29T13:32:28.999Z</time></trkpt><trkpt lat="42.92274587745389" lon="10.991090678673354"><ele>26.0</ele><time>2026-03-29T13:32:29.999Z</time></trkpt><trkpt lat="42.92269954350143" lon="10.990729914667423"><ele>27.0</ele><time>2026-03-29T13:32:30.999Z</time></trkpt><trkpt lat="42.92265331792357" lon="10.990366415382908"><ele>26.5</ele><time>2026-03-29T13:32:31.999Z</time></trkpt><trkpt lat="42.92260622603556" lon="10.990001259430692"><ele>26.0</ele><time>2026-03-29T13:32:32.999Z</time></trkpt><trkpt lat="42.92255268142839" lon="10.989644311436459"><ele>26.0</ele><time>2026-03-29T13:32:33.999Z</time></trkpt><trkpt lat="42.92250169471039" lon="10.989281240915654"><ele>26.0</ele><time>2026-03-29T13:32:34.999Z</time></trkpt><trkpt lat="42.922445697623665" lon="10.988923732420298"><ele>26.0</ele><time>2026-03-29T13:32:35.999Z</time></trkpt><trkpt lat="42.922390899604245" lon="10.98855930218171"><ele>26.0</ele><time>2026-03-29T13:32:36.999Z</time></trkpt><trkpt lat="42.922334673216966" lon="10.988197399915917"><ele>26.0</ele><time>2026-03-29T13:32:37.999Z</time></trkpt><trkpt lat="42.92227993299802" lon="10.987839275665007"><ele>26.0</ele><time>2026-03-29T13:32:38.999Z</time></trkpt><trkpt lat="42.92222593826585" lon="10.98748034785959"><ele>26.5</ele><time>2026-03-29T13:32:39.999Z</time></trkpt><trkpt lat="42.92217544540858" lon="10.987122698268935"><ele>27.0</ele><time>2026-03-29T13:32:40.999Z</time></trkpt><trkpt lat="42.92212568155673" lon="10.986766044915337"><ele>27.5</ele><time>2026-03-29T13:32:41.999Z</time></trkpt><trkpt lat="42.92207606556923" lon="10.986405424313343"><ele>28.0</ele><time>2026-03-29T13:32:42.999Z</time></trkpt><trkpt lat="42.92202012882192" lon="10.986055280563335"><ele>28.0</ele><time>2026-03-29T13:32:43.999Z</time></trkpt><trkpt lat="42.92196384601076" lon="10.985696419237202"><ele>28.0</ele><time>2026-03-29T13:32:44.999Z</time></trkpt><trkpt lat="42.921907165704546" lon="10.985343759188826"><ele>29.0</ele><time>2026-03-29T13:32:45.999Z</time></trkpt><trkpt lat="42.92185197292059" lon="10.984985962954719"><ele>30.0</ele><time>2026-03-29T13:32:46.999Z</time></trkpt><trkpt lat="42.92179323530171" lon="10.984630668402708"><ele>30.0</ele><time>2026-03-29T13:32:47.999Z</time></trkpt><trkpt lat="42.92173956102965" lon="10.984275948540194"><ele>30.0</ele><time>2026-03-29T13:32:48.999Z</time></trkpt><trkpt lat="42.921684061872604" lon="10.983921789098577"><ele>29.0</ele><time>2026-03-29T13:32:49.999Z</time></trkpt><trkpt lat="42.92162896253046" lon="10.983568212057165"><ele>28.0</ele><time>2026-03-29T13:32:50.999Z</time></trkpt><trkpt lat="42.92157239397659" lon="10.983211108287595"><ele>28.0</ele><time>2026-03-29T13:32:51.999Z</time></trkpt><trkpt lat="42.92151833707541" lon="10.982850336433021"><ele>28.0</ele><time>2026-03-29T13:32:52.999Z</time></trkpt><trkpt lat="42.92146110150829" lon="10.982497284141349"><ele>28.5</ele><time>2026-03-29T13:32:53.999Z</time></trkpt><trkpt lat="42.92140436872318" lon="10.982143786041386"><ele>29.0</ele><time>2026-03-29T13:32:54.999Z</time></trkpt><trkpt lat="42.921347428263076" lon="10.981793298373603"><ele>29.5</ele><time>2026-03-29T13:32:55.999Z</time></trkpt><trkpt lat="42.9212953977232" lon="10.981435035451529"><ele>30.0</ele><time>2026-03-29T13:32:56.999Z</time></trkpt><trkpt lat="42.92124321285514" lon="10.981083745038443"><ele>30.5</ele><time>2026-03-29T13:32:57.999Z</time></trkpt><trkpt lat="42.92119143082267" lon="10.98073000677758"><ele>31.0</ele><time>2026-03-29T13:32:58.999Z</time></trkpt><trkpt lat="42.92113895981591" lon="10.980375669401628"><ele>31.0</ele><time>2026-03-29T13:32:59.999Z</time></trkpt><trkpt lat="42.921086489794575" lon="10.980024705163132"><ele>31.0</ele><time>2026-03-29T13:33:00.999Z</time></trkpt><trkpt lat="42.92103577184392" lon="10.979672408583435"><ele>32.0</ele><time>2026-03-29T13:33:01.999Z</time></trkpt><trkpt lat="42.92098899925092" lon="10.979314958949582"><ele>33.0</ele><time>2026-03-29T13:33:02.999Z</time></trkpt><trkpt lat="42.92094030885941" lon="10.978963143516905"><ele>33.0</ele><time>2026-03-29T13:33:03.999Z</time></trkpt><trkpt lat="42.92089090332772" lon="10.978609282875354"><ele>33.0</ele><time>2026-03-29T13:33:04.999Z</time></trkpt><trkpt lat="42.92084073819016" lon="10.978256992845921"><ele>33.0</ele><time>2026-03-29T13:33:05.999Z</time></trkpt><trkpt lat="42.92079204881763" lon="10.977902885510936"><ele>33.0</ele><time>2026-03-29T13:33:06.999Z</time></trkpt><trkpt lat="42.92074331366946" lon="10.977553172745631"><ele>34.0</ele><time>2026-03-29T13:33:07.999Z</time></trkpt><trkpt lat="42.92069929982124" lon="10.977198431433331"><ele>35.0</ele><time>2026-03-29T13:33:08.999Z</time></trkpt><trkpt lat="42.920660394349234" lon="10.976844311289085"><ele>35.5</ele><time>2026-03-29T13:33:09.999Z</time></trkpt><trkpt lat="42.920625696162624" lon="10.976490359646478"><ele>36.0</ele><time>2026-03-29T13:33:10.999Z</time></trkpt><trkpt lat="42.92059409417149" lon="10.976138713930098"><ele>36.5</ele><time>2026-03-29T13:33:11.999Z</time></trkpt><trkpt lat="42.92056374238273" lon="10.975788338258882"><ele>37.0</ele><time>2026-03-29T13:33:12.999Z</time></trkpt><trkpt lat="42.92053328639891" lon="10.975433662130683"><ele>37.0</ele><time>2026-03-29T13:33:13.999Z</time></trkpt><trkpt lat="42.920501070714735" lon="10.97508100638546"><ele>37.0</ele><time>2026-03-29T13:33:14.999Z</time></trkpt><trkpt lat="42.92046583648861" lon="10.974731787003238"><ele>37.5</ele><time>2026-03-29T13:33:15.999Z</time></trkpt><trkpt lat="42.92043217620304" lon="10.974383163837661"><ele>38.0</ele><time>2026-03-29T13:33:16.999Z</time></trkpt><trkpt lat="42.92040157275723" lon="10.974029302394886"><ele>38.5</ele><time>2026-03-29T13:33:17.999Z</time></trkpt><trkpt lat="42.9203703541483" lon="10.973676211583603"><ele>39.0</ele><time>2026-03-29T13:33:19Z</time></trkpt><trkpt lat="42.92033981373157" lon="10.97332624379273"><ele>39.5</ele><time>2026-03-29T13:33:20Z</time></trkpt><trkpt lat="42.920310272053214" lon="10.972979452094762"><ele>40.0</ele><time>2026-03-29T13:33:21Z</time></trkpt><trkpt lat="42.9202812614084" lon="10.97262643798276"><ele>40.5</ele><time>2026-03-29T13:33:22Z</time></trkpt><trkpt lat="42.92025205451787" lon="10.97227599343516"><ele>41.0</ele><time>2026-03-29T13:33:23Z</time></trkpt><trkpt lat="42.92022302592211" lon="10.971922580554383"><ele>41.0</ele><time>2026-03-29T13:33:24Z</time></trkpt><trkpt lat="42.920193495547466" lon="10.971569741039646"><ele>41.0</ele><time>2026-03-29T13:33:25Z</time></trkpt><trkpt lat="42.9201660737733" lon="10.971212820267656"><ele>41.0</ele><time>2026-03-29T13:33:26Z</time></trkpt><trkpt lat="42.92013810810972" lon="10.970864114884309"><ele>41.0</ele><time>2026-03-29T13:33:27Z</time></trkpt><trkpt lat="42.92010878407499" lon="10.970512520479048"><ele>40.5</ele><time>2026-03-29T13:33:28Z</time></trkpt><trkpt lat="42.920081002768086" lon="10.970159727053597"><ele>40.0</ele><time>2026-03-29T13:33:29Z</time></trkpt><trkpt lat="42.92005102310075" lon="10.969810173959752"><ele>37.5</ele><time>2026-03-29T13:33:30Z</time></trkpt><trkpt lat="42.92002173844253" lon="10.969455614406874"><ele>35.0</ele><time>2026-03-29T13:33:31Z</time></trkpt><trkpt lat="42.91999167759553" lon="10.969102911175309"><ele>35.0</ele><time>2026-03-29T13:33:32Z</time></trkpt><trkpt lat="42.919962583039556" lon="10.968750423352995"><ele>35.0</ele><time>2026-03-29T13:33:33Z</time></trkpt><trkpt lat="42.919936227493395" lon="10.968392898862746"><ele>35.0</ele><time>2026-03-29T13:33:34Z</time></trkpt><trkpt lat="42.91990904836535" lon="10.968037670825575"><ele>35.0</ele><time>2026-03-29T13:33:35Z</time></trkpt><trkpt lat="42.91988409746384" lon="10.967677820197476"><ele>35.0</ele><time>2026-03-29T13:33:36Z</time></trkpt><trkpt lat="42.919860956934635" lon="10.967318354025906"><ele>35.0</ele><time>2026-03-29T13:33:37Z</time></trkpt><trkpt lat="42.91984282495859" lon="10.96695361926128"><ele>35.0</ele><time>2026-03-29T13:33:38Z</time></trkpt><trkpt lat="42.91982738828249" lon="10.96658937834518"><ele>35.0</ele><time>2026-03-29T13:33:39Z</time></trkpt><trkpt lat="42.91981686388685" lon="10.966227848969181"><ele>35.0</ele><time>2026-03-29T13:33:40Z</time></trkpt><trkpt lat="42.919813091230296" lon="10.965862839237898"><ele>35.0</ele><time>2026-03-29T13:33:41Z</time></trkpt><trkpt lat="42.91981351570681" lon="10.965500264515551"><ele>35.0</ele><time>2026-03-29T13:33:42Z</time></trkpt><trkpt lat="42.91981972256744" lon="10.965137568541893"><ele>35.0</ele><time>2026-03-29T13:33:43Z</time></trkpt><trkpt lat="42.919832374806006" lon="10.9647703374276"><ele>35.0</ele><time>2026-03-29T13:33:44Z</time></trkpt><trkpt lat="42.919850144747734" lon="10.96440682395865"><ele>35.0</ele><time>2026-03-29T13:33:45Z</time></trkpt><trkpt lat="42.91987011275053" lon="10.964047795672906"><ele>35.5</ele><time>2026-03-29T13:33:46Z</time></trkpt><trkpt lat="42.91989877021862" lon="10.963688359688762"><ele>36.0</ele><time>2026-03-29T13:33:47Z</time></trkpt><trkpt lat="42.919936231619324" lon="10.96332822272549"><ele>36.5</ele><time>2026-03-29T13:33:48Z</time></trkpt><trkpt lat="42.9199837374791" lon="10.962972257476409"><ele>37.0</ele><time>2026-03-29T13:33:49Z</time></trkpt><trkpt lat="42.9200373170086" lon="10.96262002939015"><ele>36.5</ele><time>2026-03-29T13:33:50Z</time></trkpt><trkpt lat="42.92009617170279" lon="10.962269331509646"><ele>36.0</ele><time>2026-03-29T13:33:51Z</time></trkpt><trkpt lat="42.920155929672426" lon="10.96191880335368"><ele>36.0</ele><time>2026-03-29T13:33:52Z</time></trkpt><trkpt lat="42.920218561210916" lon="10.961568828384932"><ele>36.0</ele><time>2026-03-29T13:33:53Z</time></trkpt><trkpt lat="42.920285549089144" lon="10.961222229001857"><ele>36.0</ele><time>2026-03-29T13:33:54Z</time></trkpt><trkpt lat="42.92036301742092" lon="10.960884671627344"><ele>36.0</ele><time>2026-03-29T13:33:55Z</time></trkpt><trkpt lat="42.92045044343254" lon="10.960550104675542"><ele>36.5</ele><time>2026-03-29T13:33:56Z</time></trkpt><trkpt lat="42.920544092677744" lon="10.960218989970821"><ele>37.0</ele><time>2026-03-29T13:33:57Z</time></trkpt><trkpt lat="42.92064012548364" lon="10.959891521724986"><ele>37.5</ele><time>2026-03-29T13:33:58Z</time></trkpt><trkpt lat="42.92074098846205" lon="10.959571809171752"><ele>38.0</ele><time>2026-03-29T13:33:59Z</time></trkpt><trkpt lat="42.92084668243241" lon="10.959253561950336"><ele>38.5</ele><time>2026-03-29T13:34:00Z</time></trkpt><trkpt lat="42.920957380558555" lon="10.9589444859016"><ele>39.0</ele><time>2026-03-29T13:34:01Z</time></trkpt><trkpt lat="42.92107721334784" lon="10.958635422726378"><ele>40.0</ele><time>2026-03-29T13:34:02Z</time></trkpt><trkpt lat="42.921201123039225" lon="10.958328767603241"><ele>41.0</ele><time>2026-03-29T13:34:03Z</time></trkpt><trkpt lat="42.92132976336955" lon="10.958024338358436"><ele>41.0</ele><time>2026-03-29T13:34:04Z</time></trkpt><trkpt lat="42.92146416758696" lon="10.957723256179058"><ele>41.0</ele><time>2026-03-29T13:34:05Z</time></trkpt><trkpt lat="42.92160611375132" lon="10.957427876477436"><ele>43.5</ele><time>2026-03-29T13:34:05.999Z</time></trkpt><trkpt lat="42.92175276022471" lon="10.957135872875995"><ele>46.0</ele><time>2026-03-29T13:34:06.999Z</time></trkpt><trkpt lat="42.92190294765829" lon="10.956848230811111"><ele>46.5</ele><time>2026-03-29T13:34:07.999Z</time></trkpt><trkpt lat="42.92205778760436" lon="10.956565425240314"><ele>47.0</ele><time>2026-03-29T13:34:08.999Z</time></trkpt><trkpt lat="42.922221269261016" lon="10.956287219290031"><ele>47.0</ele><time>2026-03-29T13:34:09.999Z</time></trkpt><trkpt lat="42.922389182290054" lon="10.956010987350352"><ele>47.0</ele><time>2026-03-29T13:34:10.999Z</time></trkpt><trkpt lat="42.92256181879976" lon="10.955742420740668"><ele>54.0</ele><time>2026-03-29T13:34:11.999Z</time></trkpt><trkpt lat="42.92272565793865" lon="10.95550081048108"><ele>61.0</ele><time>2026-03-29T13:34:12.999Z</time></trkpt><trkpt lat="42.92289187461414" lon="10.955268939612765"><ele>61.0</ele><time>2026-03-29T13:34:13.999Z</time></trkpt><trkpt lat="42.92306551932388" lon="10.95503875294697"><ele>61.0</ele><time>2026-03-29T13:34:14.999Z</time></trkpt><trkpt lat="42.92324519401035" lon="10.954808383506624"><ele>61.0</ele><time>2026-03-29T13:34:15.999Z</time></trkpt><trkpt lat="42.92342223524876" lon="10.95458508409702"><ele>61.0</ele><time>2026-03-29T13:34:16.999Z</time></trkpt><trkpt lat="42.92358926468647" lon="10.954387342157835"><ele>57.33333333333333</ele><time>2026-03-29T13:34:17.999Z</time></trkpt><trkpt lat="42.92375542372993" lon="10.954194414090733"><ele>53.66666666666667</ele><time>2026-03-29T13:34:18.999Z</time></trkpt><trkpt lat="42.92392565166496" lon="10.95399502091671"><ele>50.0</ele><time>2026-03-29T13:34:19.999Z</time></trkpt><trkpt lat="42.92410272039992" lon="10.95379375574327"><ele>49.5</ele><time>2026-03-29T13:34:20.999Z</time></trkpt><trkpt lat="42.92428276220212" lon="10.953595389580173"><ele>49.0</ele><time>2026-03-29T13:34:21.999Z</time></trkpt><trkpt lat="42.92446633780114" lon="10.953397386084799"><ele>48.666666666666664</ele><time>2026-03-29T13:34:22.999Z</time></trkpt><trkpt lat="42.924645252829926" lon="10.95320776672773"><ele>48.33333333333333</ele><time>2026-03-29T13:34:23.999Z</time></trkpt><trkpt lat="42.92481843491538" lon="10.953033784840617"><ele>48.0</ele><time>2026-03-29T13:34:24.999Z</time></trkpt><trkpt lat="42.92499274700002" lon="10.952867410883277"><ele>51.0</ele><time>2026-03-29T13:34:25.999Z</time></trkpt><trkpt lat="42.925170747540214" lon="10.952692976557145"><ele>54.0</ele><time>2026-03-29T13:34:26.999Z</time></trkpt><trkpt lat="42.925349547015465" lon="10.952513613001504"><ele>57.0</ele><time>2026-03-29T13:34:27.999Z</time></trkpt><trkpt lat="42.9255313341067" lon="10.952331367342492"><ele>57.0</ele><time>2026-03-29T13:34:28.999Z</time></trkpt><trkpt lat="42.92571393588359" lon="10.952147065385766"><ele>57.0</ele><time>2026-03-29T13:34:29.999Z</time></trkpt><trkpt lat="42.92589576076013" lon="10.951964313751462"><ele>57.5</ele><time>2026-03-29T13:34:30.999Z</time></trkpt><trkpt lat="42.92608213200717" lon="10.951780387403666"><ele>58.0</ele><time>2026-03-29T13:34:31.999Z</time></trkpt><trkpt lat="42.92626991636468" lon="10.951594843627763"><ele>58.0</ele><time>2026-03-29T13:34:32.999Z</time></trkpt><trkpt lat="42.92645677210707" lon="10.95141053627875"><ele>58.0</ele><time>2026-03-29T13:34:33.999Z</time></trkpt><trkpt lat="42.926645743527416" lon="10.951219746127013"><ele>57.5</ele><time>2026-03-29T13:34:34.999Z</time></trkpt><trkpt lat="42.92683369808655" lon="10.951031778998912"><ele>57.0</ele><time>2026-03-29T13:34:35.999Z</time></trkpt><trkpt lat="42.92702168831236" lon="10.9508431232887"><ele>57.0</ele><time>2026-03-29T13:34:36.999Z</time></trkpt><trkpt lat="42.92721442294596" lon="10.950654687748948"><ele>57.0</ele><time>2026-03-29T13:34:37.999Z</time></trkpt><trkpt lat="42.92740547108902" lon="10.950461615880599"><ele>58.0</ele><time>2026-03-29T13:34:38.999Z</time></trkpt><trkpt lat="42.927598811514486" lon="10.950271928698925"><ele>59.0</ele><time>2026-03-29T13:34:39.999Z</time></trkpt><trkpt lat="42.927790855644744" lon="10.950077481814965"><ele>55.5</ele><time>2026-03-29T13:34:40.999Z</time></trkpt><trkpt lat="42.927982966628946" lon="10.949878790206958"><ele>52.0</ele><time>2026-03-29T13:34:41.999Z</time></trkpt><trkpt lat="42.928188850776074" lon="10.94968699188116"><ele>52.0</ele><time>2026-03-29T13:34:42.999Z</time></trkpt><trkpt lat="42.92840122557816" lon="10.949501743447096"><ele>52.0</ele><time>2026-03-29T13:34:43.999Z</time></trkpt><trkpt lat="42.92861909141653" lon="10.949320136530059"><ele>51.0</ele><time>2026-03-29T13:34:44.999Z</time></trkpt><trkpt lat="42.9288408656738" lon="10.94914208131615"><ele>50.0</ele><time>2026-03-29T13:34:45.999Z</time></trkpt><trkpt lat="42.929067583341386" lon="10.948969497689532"><ele>51.0</ele><time>2026-03-29T13:34:46.999Z</time></trkpt><trkpt lat="42.92929810580346" lon="10.948800045727525"><ele>52.0</ele><time>2026-03-29T13:34:47.999Z</time></trkpt><trkpt lat="42.92952198010103" lon="10.948640724984825"><ele>52.0</ele><time>2026-03-29T13:34:48.999Z</time></trkpt><trkpt lat="42.929743820614696" lon="10.948491790821095"><ele>52.0</ele><time>2026-03-29T13:34:49.999Z</time></trkpt><trkpt lat="42.92996565433388" lon="10.948348358062916"><ele>51.5</ele><time>2026-03-29T13:34:50.999Z</time></trkpt><trkpt lat="42.93019679992049" lon="10.94821293888642"><ele>51.0</ele><time>2026-03-29T13:34:51.999Z</time></trkpt><trkpt lat="42.9304288775133" lon="10.948087328134035"><ele>51.0</ele><time>2026-03-29T13:34:52.999Z</time></trkpt><trkpt lat="42.93066384501201" lon="10.947968427342278"><ele>51.0</ele><time>2026-03-29T13:34:53.999Z</time></trkpt><trkpt lat="42.9309041667497" lon="10.947848091198088"><ele>52.5</ele><time>2026-03-29T13:34:54.999Z</time></trkpt><trkpt lat="42.93114864479146" lon="10.947727619337272"><ele>54.0</ele><time>2026-03-29T13:34:55.999Z</time></trkpt><trkpt lat="42.931389621051714" lon="10.947615185213957"><ele>54.5</ele><time>2026-03-29T13:34:56.999Z</time></trkpt><trkpt lat="42.93163162283589" lon="10.94750302878405"><ele>55.0</ele><time>2026-03-29T13:34:57.999Z</time></trkpt><trkpt lat="42.93186975741896" lon="10.947391497405938"><ele>55.0</ele><time>2026-03-29T13:34:58.999Z</time></trkpt><trkpt lat="42.93210136258417" lon="10.947280888359167"><ele>55.0</ele><time>2026-03-29T13:34:59.999Z</time></trkpt><trkpt lat="42.932333901093344" lon="10.94717015305364"><ele>56.5</ele><time>2026-03-29T13:35:00.999Z</time></trkpt><trkpt lat="42.932565501942385" lon="10.947061709194593"><ele>58.0</ele><time>2026-03-29T13:35:01.999Z</time></trkpt><trkpt lat="42.9327932890327" lon="10.946957691005881"><ele>58.0</ele><time>2026-03-29T13:35:02.999Z</time></trkpt><trkpt lat="42.93301701016075" lon="10.946855370527686"><ele>58.0</ele><time>2026-03-29T13:35:03.999Z</time></trkpt><trkpt lat="42.933241229408964" lon="10.946753048473802"><ele>58.0</ele><time>2026-03-29T13:35:04.999Z</time></trkpt><trkpt lat="42.93346488096669" lon="10.946647944943935"><ele>58.0</ele><time>2026-03-29T13:35:05.999Z</time></trkpt><trkpt lat="42.93368850577936" lon="10.946540144871566"><ele>58.0</ele><time>2026-03-29T13:35:06.999Z</time></trkpt><trkpt lat="42.933915318678025" lon="10.946433092917022"><ele>58.0</ele><time>2026-03-29T13:35:07.999Z</time></trkpt><trkpt lat="42.934142715756195" lon="10.946325304112719"><ele>58.5</ele><time>2026-03-29T13:35:08.999Z</time></trkpt><trkpt lat="42.934370141384456" lon="10.94621651158082"><ele>59.0</ele><time>2026-03-29T13:35:09.999Z</time></trkpt><trkpt lat="42.93460021255223" lon="10.94610805919645"><ele>59.0</ele><time>2026-03-29T13:35:10.999Z</time></trkpt><trkpt lat="42.934833968590695" lon="10.945999960365773"><ele>59.0</ele><time>2026-03-29T13:35:11.999Z</time></trkpt><trkpt lat="42.935071375488874" lon="10.945895857957566"><ele>60.0</ele><time>2026-03-29T13:35:12.999Z</time></trkpt><trkpt lat="42.935310249066006" lon="10.945788057795511"><ele>61.0</ele><time>2026-03-29T13:35:13.999Z</time></trkpt><trkpt lat="42.93555183242939" lon="10.94567832611419"><ele>61.0</ele><time>2026-03-29T13:35:14.999Z</time></trkpt><trkpt lat="42.935793077438724" lon="10.94556634821508"><ele>61.0</ele><time>2026-03-29T13:35:15.999Z</time></trkpt><trkpt lat="42.93603571822036" lon="10.945449830361992"><ele>64.5</ele><time>2026-03-29T13:35:16.999Z</time></trkpt><trkpt lat="42.9362806126804" lon="10.94533221578811"><ele>68.0</ele><time>2026-03-29T13:35:17.999Z</time></trkpt><trkpt lat="42.93652052610352" lon="10.945217918174643"><ele>66.5</ele><time>2026-03-29T13:35:18.999Z</time></trkpt><trkpt lat="42.936762967169294" lon="10.945108919155786"><ele>65.0</ele><time>2026-03-29T13:35:19.999Z</time></trkpt><trkpt lat="42.93700893952042" lon="10.944999690701831"><ele>63.5</ele><time>2026-03-29T13:35:20.999Z</time></trkpt><trkpt lat="42.937255766785064" lon="10.944893250821886"><ele>62.0</ele><time>2026-03-29T13:35:21.999Z</time></trkpt><trkpt lat="42.937502823743735" lon="10.94478836237534"><ele>63.5</ele><time>2026-03-29T13:35:22.999Z</time></trkpt><trkpt lat="42.93775311105335" lon="10.944688431352102"><ele>65.0</ele><time>2026-03-29T13:35:23.999Z</time></trkpt><trkpt lat="42.93800189541985" lon="10.944593867406477"><ele>65.0</ele><time>2026-03-29T13:35:25Z</time></trkpt><trkpt lat="42.93824873200703" lon="10.944503080752282"><ele>65.0</ele><time>2026-03-29T13:35:26Z</time></trkpt><trkpt lat="42.93849374140855" lon="10.944414216363521"><ele>70.0</ele><time>2026-03-29T13:35:27Z</time></trkpt><trkpt lat="42.93873562706727" lon="10.94432494510435"><ele>75.0</ele><time>2026-03-29T13:35:28Z</time></trkpt><trkpt lat="42.938974765430615" lon="10.944233674697196"><ele>75.0</ele><time>2026-03-29T13:35:29Z</time></trkpt><trkpt lat="42.939211688787665" lon="10.94414520160335"><ele>75.0</ele><time>2026-03-29T13:35:30Z</time></trkpt><trkpt lat="42.93944922908302" lon="10.944058393943605"><ele>75.0</ele><time>2026-03-29T13:35:31Z</time></trkpt><trkpt lat="42.93968513914315" lon="10.943971664627679"><ele>75.0</ele><time>2026-03-29T13:35:32Z</time></trkpt><trkpt lat="42.939920606536894" lon="10.943885786528227"><ele>76.0</ele><time>2026-03-29T13:35:33Z</time></trkpt><trkpt lat="42.94015805382052" lon="10.943799661280284"><ele>77.0</ele><time>2026-03-29T13:35:34Z</time></trkpt><trkpt lat="42.94039421368082" lon="10.94371348913824"><ele>77.0</ele><time>2026-03-29T13:35:35Z</time></trkpt><trkpt lat="42.94062921652629" lon="10.943625596040686"><ele>77.0</ele><time>2026-03-29T13:35:36Z</time></trkpt><trkpt lat="42.940865094920895" lon="10.943539311293137"><ele>76.5</ele><time>2026-03-29T13:35:37Z</time></trkpt><trkpt lat="42.94110183386797" lon="10.943448886795915"><ele>76.0</ele><time>2026-03-29T13:35:38Z</time></trkpt><trkpt lat="42.94134090720867" lon="10.94335279728972"><ele>72.0</ele><time>2026-03-29T13:35:39Z</time></trkpt><trkpt lat="42.94158411179105" lon="10.943255565418179"><ele>68.0</ele><time>2026-03-29T13:35:40Z</time></trkpt><trkpt lat="42.94182682100177" lon="10.943156551937921"><ele>68.0</ele><time>2026-03-29T13:35:41Z</time></trkpt><trkpt lat="42.94206929109137" lon="10.943051722327814"><ele>68.0</ele><time>2026-03-29T13:35:42Z</time></trkpt><trkpt lat="42.94231099687526" lon="10.942940416421962"><ele>68.5</ele><time>2026-03-29T13:35:43Z</time></trkpt><trkpt lat="42.942549497074566" lon="10.942823519752475"><ele>69.0</ele><time>2026-03-29T13:35:44Z</time></trkpt><trkpt lat="42.942784455948285" lon="10.94269589381095"><ele>69.0</ele><time>2026-03-29T13:35:45Z</time></trkpt><trkpt lat="42.94301902714553" lon="10.942564024769183"><ele>69.0</ele><time>2026-03-29T13:35:46Z</time></trkpt><trkpt lat="42.94325453823166" lon="10.942425871846334"><ele>69.5</ele><time>2026-03-29T13:35:47Z</time></trkpt><trkpt lat="42.943485247156964" lon="10.942278671525518"><ele>70.0</ele><time>2026-03-29T13:35:48Z</time></trkpt><trkpt lat="42.943711150682596" lon="10.942121292368746"><ele>70.0</ele><time>2026-03-29T13:35:49Z</time></trkpt><trkpt lat="42.94393469296892" lon="10.941954964539002"><ele>70.0</ele><time>2026-03-29T13:35:50Z</time></trkpt><trkpt lat="42.94415383575767" lon="10.94178184974898"><ele>70.5</ele><time>2026-03-29T13:35:51Z</time></trkpt><trkpt lat="42.94436957981987" lon="10.941600314580434"><ele>71.0</ele><time>2026-03-29T13:35:52Z</time></trkpt><trkpt lat="42.944579323772665" lon="10.94141306010185"><ele>71.0</ele><time>2026-03-29T13:35:53Z</time></trkpt><trkpt lat="42.94478653795931" lon="10.94121829140888"><ele>71.0</ele><time>2026-03-29T13:35:54Z</time></trkpt><trkpt lat="42.944986506505224" lon="10.941014629333859"><ele>73.5</ele><time>2026-03-29T13:35:55Z</time></trkpt><trkpt lat="42.94518197155225" lon="10.940804503393565"><ele>76.0</ele><time>2026-03-29T13:35:56Z</time></trkpt><trkpt lat="42.94537698898017" lon="10.940586178044335"><ele>76.0</ele><time>2026-03-29T13:35:57Z</time></trkpt><trkpt lat="42.94556665229411" lon="10.940362654882604"><ele>76.0</ele><time>2026-03-29T13:35:58Z</time></trkpt><trkpt lat="42.945752857412835" lon="10.940129300969103"><ele>74.0</ele><time>2026-03-29T13:35:59Z</time></trkpt><trkpt lat="42.94593560974416" lon="10.939888813370759"><ele>72.0</ele><time>2026-03-29T13:36:00Z</time></trkpt><trkpt lat="42.94611187380173" lon="10.939640893629827"><ele>72.0</ele><time>2026-03-29T13:36:01Z</time></trkpt><trkpt lat="42.9462838891728" lon="10.939385963285236"><ele>72.0</ele><time>2026-03-29T13:36:02Z</time></trkpt><trkpt lat="42.94644809858539" lon="10.939126405629223"><ele>72.0</ele><time>2026-03-29T13:36:03Z</time></trkpt><trkpt lat="42.94660772187748" lon="10.9388595868268"><ele>72.0</ele><time>2026-03-29T13:36:04Z</time></trkpt><trkpt lat="42.946764801895334" lon="10.938583599865476"><ele>73.5</ele><time>2026-03-29T13:36:05Z</time></trkpt><trkpt lat="42.946914772100804" lon="10.938302713357169"><ele>75.0</ele><time>2026-03-29T13:36:06Z</time></trkpt><trkpt lat="42.94706124797742" lon="10.938015646435716"><ele>75.0</ele><time>2026-03-29T13:36:07Z</time></trkpt><trkpt lat="42.9472018236438" lon="10.937726452719017"><ele>75.0</ele><time>2026-03-29T13:36:08Z</time></trkpt><trkpt lat="42.94734019331681" lon="10.937434113535636"><ele>77.0</ele><time>2026-03-29T13:36:09Z</time></trkpt><trkpt lat="42.94747340956501" lon="10.937138254410979"><ele>79.0</ele><time>2026-03-29T13:36:10Z</time></trkpt><trkpt lat="42.94760474751347" lon="10.936839288363707"><ele>82.5</ele><time>2026-03-29T13:36:11Z</time></trkpt><trkpt lat="42.94773639470702" lon="10.93653593580282"><ele>86.0</ele><time>2026-03-29T13:36:12Z</time></trkpt><trkpt lat="42.9478667188609" lon="10.936231667373155"><ele>86.0</ele><time>2026-03-29T13:36:13Z</time></trkpt><trkpt lat="42.947996575340575" lon="10.935923220017704"><ele>86.0</ele><time>2026-03-29T13:36:14Z</time></trkpt><trkpt lat="42.94812354259651" lon="10.93561262510904"><ele>84.0</ele><time>2026-03-29T13:36:15Z</time></trkpt><trkpt lat="42.94825073844469" lon="10.935297962748015"><ele>82.0</ele><time>2026-03-29T13:36:16Z</time></trkpt><trkpt lat="42.94837734262614" lon="10.93498494482187"><ele>82.0</ele><time>2026-03-29T13:36:17Z</time></trkpt><trkpt lat="42.94850272387212" lon="10.934672457144286"><ele>82.0</ele><time>2026-03-29T13:36:18Z</time></trkpt><trkpt lat="42.94863007477243" lon="10.93435771097111"><ele>79.5</ele><time>2026-03-29T13:36:19Z</time></trkpt><trkpt lat="42.94875870473434" lon="10.93403982794124"><ele>77.0</ele><time>2026-03-29T13:36:20Z</time></trkpt><trkpt lat="42.94888886598503" lon="10.933718936068553"><ele>77.0</ele><time>2026-03-29T13:36:21Z</time></trkpt><trkpt lat="42.94901544746138" lon="10.933398014344384"><ele>77.0</ele><time>2026-03-29T13:36:22Z</time></trkpt><trkpt lat="42.949137469753296" lon="10.933075046270575"><ele>80.5</ele><time>2026-03-29T13:36:23Z</time></trkpt><trkpt lat="42.949253627548394" lon="10.932753209546753"><ele>84.0</ele><time>2026-03-29T13:36:24Z</time></trkpt><trkpt lat="42.9493659185371" lon="10.932429633775726"><ele>85.0</ele><time>2026-03-29T13:36:25Z</time></trkpt><trkpt lat="42.94946742077508" lon="10.932120547029484"><ele>86.0</ele><time>2026-03-29T13:36:26Z</time></trkpt><trkpt lat="42.94956231394623" lon="10.931825710221279"><ele>85.0</ele><time>2026-03-29T13:36:27Z</time></trkpt><trkpt lat="42.94965586152875" lon="10.931528409602407"><ele>84.0</ele><time>2026-03-29T13:36:28Z</time></trkpt><trkpt lat="42.949745465263234" lon="10.93122749023952"><ele>84.0</ele><time>2026-03-29T13:36:29Z</time></trkpt><trkpt lat="42.94982901755905" lon="10.930924046544327"><ele>84.0</ele><time>2026-03-29T13:36:30Z</time></trkpt><trkpt lat="42.94990640175172" lon="10.930614961281437"><ele>83.0</ele><time>2026-03-29T13:36:31Z</time></trkpt><trkpt lat="42.94997844314826" lon="10.930302240038232"><ele>82.0</ele><time>2026-03-29T13:36:32Z</time></trkpt><trkpt lat="42.95004491515177" lon="10.929986626395332"><ele>80.0</ele><time>2026-03-29T13:36:32.999Z</time></trkpt><trkpt lat="42.9501083776863" lon="10.929664065954832"><ele>78.0</ele><time>2026-03-29T13:36:33.999Z</time></trkpt><trkpt lat="42.95016576220806" lon="10.929337455098512"><ele>78.0</ele><time>2026-03-29T13:36:34.999Z</time></trkpt><trkpt lat="42.95021885500695" lon="10.929010034555619"><ele>78.0</ele><time>2026-03-29T13:36:35.999Z</time></trkpt><trkpt lat="42.950268533094565" lon="10.928673667994701"><ele>81.5</ele><time>2026-03-29T13:36:36.999Z</time></trkpt><trkpt lat="42.950315197364084" lon="10.928335062171358"><ele>85.0</ele><time>2026-03-29T13:36:37.999Z</time></trkpt><trkpt lat="42.95035397360231" lon="10.927992580564649"><ele>85.0</ele><time>2026-03-29T13:36:38.999Z</time></trkpt><trkpt lat="42.95038436713376" lon="10.927647186502254"><ele>85.0</ele><time>2026-03-29T13:36:39.999Z</time></trkpt><trkpt lat="42.950411729777564" lon="10.927301235396929"><ele>84.5</ele><time>2026-03-29T13:36:40.999Z</time></trkpt><trkpt lat="42.950437367812064" lon="10.92697764334473"><ele>84.0</ele><time>2026-03-29T13:36:41.999Z</time></trkpt><trkpt lat="42.95045966516946" lon="10.926671318986257"><ele>82.0</ele><time>2026-03-29T13:36:42.999Z</time></trkpt><trkpt lat="42.950479004968834" lon="10.926370086811614"><ele>80.0</ele><time>2026-03-29T13:36:43.999Z</time></trkpt><trkpt lat="42.9504989047095" lon="10.926056791151776"><ele>81.0</ele><time>2026-03-29T13:36:44.999Z</time></trkpt><trkpt lat="42.950518476477725" lon="10.925732688095463"><ele>82.0</ele><time>2026-03-29T13:36:45.999Z</time></trkpt><trkpt lat="42.950538816130496" lon="10.925404046617318"><ele>82.0</ele><time>2026-03-29T13:36:46.999Z</time></trkpt><trkpt lat="42.95055936750839" lon="10.925072814176037"><ele>82.0</ele><time>2026-03-29T13:36:47.999Z</time></trkpt><trkpt lat="42.95057934141419" lon="10.92473544338271"><ele>81.5</ele><time>2026-03-29T13:36:48.999Z</time></trkpt><trkpt lat="42.95059958943804" lon="10.924395667509826"><ele>81.0</ele><time>2026-03-29T13:36:49.999Z</time></trkpt><trkpt lat="42.95061745902943" lon="10.924051817163067"><ele>80.0</ele><time>2026-03-29T13:36:50.999Z</time></trkpt><trkpt lat="42.95063833494426" lon="10.923707043142356"><ele>79.0</ele><time>2026-03-29T13:36:51.999Z</time></trkpt><trkpt lat="42.9506609070147" lon="10.923357320311817"><ele>79.0</ele><time>2026-03-29T13:36:52.999Z</time></trkpt><trkpt lat="42.950684475344836" lon="10.923006546843391"><ele>79.0</ele><time>2026-03-29T13:36:53.999Z</time></trkpt><trkpt lat="42.9507050678015" lon="10.92265759730186"><ele>79.0</ele><time>2026-03-29T13:36:54.999Z</time></trkpt><trkpt lat="42.950726908519776" lon="10.92230011108581"><ele>79.0</ele><time>2026-03-29T13:36:55.999Z</time></trkpt><trkpt lat="42.95074730505951" lon="10.921944208315962"><ele>76.5</ele><time>2026-03-29T13:36:56.999Z</time></trkpt><trkpt lat="42.950768244742385" lon="10.921584445260729"><ele>74.0</ele><time>2026-03-29T13:36:57.999Z</time></trkpt><trkpt lat="42.950788166533584" lon="10.9212259063303"><ele>71.0</ele><time>2026-03-29T13:36:58.999Z</time></trkpt><trkpt lat="42.950809834049004" lon="10.920859701720898"><ele>68.0</ele><time>2026-03-29T13:36:59.999Z</time></trkpt><trkpt lat="42.95082975873646" lon="10.920497526369456"><ele>68.0</ele><time>2026-03-29T13:37:00.999Z</time></trkpt><trkpt lat="42.950849728153365" lon="10.920133426406363"><ele>68.0</ele><time>2026-03-29T13:37:01.999Z</time></trkpt><trkpt lat="42.95087097512217" lon="10.91976888479517"><ele>70.5</ele><time>2026-03-29T13:37:02.999Z</time></trkpt><trkpt lat="42.950891145959126" lon="10.919400329465342"><ele>73.0</ele><time>2026-03-29T13:37:03.999Z</time></trkpt><trkpt lat="42.95091291030808" lon="10.919036022190717"><ele>73.0</ele><time>2026-03-29T13:37:04.999Z</time></trkpt><trkpt lat="42.9509350566842" lon="10.918683778635986"><ele>73.0</ele><time>2026-03-29T13:37:05.999Z</time></trkpt><trkpt lat="42.95095529960368" lon="10.918347064286142"><ele>72.0</ele><time>2026-03-29T13:37:06.999Z</time></trkpt><trkpt lat="42.950974022004495" lon="10.918017193350554"><ele>71.0</ele><time>2026-03-29T13:37:07.999Z</time></trkpt><trkpt lat="42.950993260585825" lon="10.91767617367504"><ele>69.5</ele><time>2026-03-29T13:37:08.999Z</time></trkpt><trkpt lat="42.95101239368063" lon="10.917337218245093"><ele>68.0</ele><time>2026-03-29T13:37:09.999Z</time></trkpt><trkpt lat="42.95103267688417" lon="10.916996048390269"><ele>68.0</ele><time>2026-03-29T13:37:10.999Z</time></trkpt><trkpt lat="42.95105004760011" lon="10.916653987585992"><ele>68.0</ele><time>2026-03-29T13:37:11.999Z</time></trkpt><trkpt lat="42.95106692954781" lon="10.91631049075406"><ele>68.0</ele><time>2026-03-29T13:37:12.999Z</time></trkpt><trkpt lat="42.95108277970796" lon="10.915971569069022"><ele>68.0</ele><time>2026-03-29T13:37:13.999Z</time></trkpt><trkpt lat="42.95110229524578" lon="10.915636090936992"><ele>66.5</ele><time>2026-03-29T13:37:14.999Z</time></trkpt><trkpt lat="42.95111984404409" lon="10.915295290075763"><ele>65.0</ele><time>2026-03-29T13:37:15.999Z</time></trkpt><trkpt lat="42.95113281007091" lon="10.914951920079863"><ele>64.5</ele><time>2026-03-29T13:37:16.999Z</time></trkpt><trkpt lat="42.95114340958593" lon="10.914606551902995"><ele>64.0</ele><time>2026-03-29T13:37:17.999Z</time></trkpt><trkpt lat="42.951152990908824" lon="10.91425900810984"><ele>64.0</ele><time>2026-03-29T13:37:18.999Z</time></trkpt><trkpt lat="42.951163509448556" lon="10.913914479376428"><ele>64.0</ele><time>2026-03-29T13:37:19.999Z</time></trkpt><trkpt lat="42.95117296483056" lon="10.913568743782415"><ele>63.5</ele><time>2026-03-29T13:37:20.999Z</time></trkpt><trkpt lat="42.9511792750972" lon="10.913220738027121"><ele>63.0</ele><time>2026-03-29T13:37:21.999Z</time></trkpt><trkpt lat="42.95118748863267" lon="10.912858496385267"><ele>62.5</ele><time>2026-03-29T13:37:22.999Z</time></trkpt><trkpt lat="42.95118997416785" lon="10.91251021959889"><ele>62.0</ele><time>2026-03-29T13:37:23.999Z</time></trkpt><trkpt lat="42.95118854622193" lon="10.912149314822639"><ele>62.0</ele><time>2026-03-29T13:37:24.999Z</time></trkpt><trkpt lat="42.9511874583729" lon="10.911785884254252"><ele>62.0</ele><time>2026-03-29T13:37:25.999Z</time></trkpt><trkpt lat="42.95118675118176" lon="10.91141882080214"><ele>61.0</ele><time>2026-03-29T13:37:26.999Z</time></trkpt><trkpt lat="42.95118256245677" lon="10.91104567013369"><ele>60.0</ele><time>2026-03-29T13:37:27.999Z</time></trkpt><trkpt lat="42.95117494191092" lon="10.910674319902274"><ele>60.0</ele><time>2026-03-29T13:37:28.999Z</time></trkpt><trkpt lat="42.95116634602295" lon="10.91031761175635"><ele>60.0</ele><time>2026-03-29T13:37:29.999Z</time></trkpt><trkpt lat="42.951157903937435" lon="10.909964449458876"><ele>59.0</ele><time>2026-03-29T13:37:31Z</time></trkpt><trkpt lat="42.951142791727165" lon="10.909617259911558"><ele>58.0</ele><time>2026-03-29T13:37:32Z</time></trkpt><trkpt lat="42.951134810250124" lon="10.909266397419481"><ele>57.5</ele><time>2026-03-29T13:37:33Z</time></trkpt><trkpt lat="42.95112629180835" lon="10.908923062586513"><ele>57.0</ele><time>2026-03-29T13:37:34Z</time></trkpt><trkpt lat="42.951116765952015" lon="10.908577473264058"><ele>56.5</ele><time>2026-03-29T13:37:35Z</time></trkpt><trkpt lat="42.951105149936694" lon="10.908236776850034"><ele>56.0</ele><time>2026-03-29T13:37:36Z</time></trkpt><trkpt lat="42.95109258402831" lon="10.907896169628193"><ele>55.0</ele><time>2026-03-29T13:37:37Z</time></trkpt><trkpt lat="42.95108065329973" lon="10.907557639050752"><ele>54.0</ele><time>2026-03-29T13:37:38Z</time></trkpt><trkpt lat="42.95106771709723" lon="10.907224627573434"><ele>54.0</ele><time>2026-03-29T13:37:39Z</time></trkpt><trkpt lat="42.951055695213384" lon="10.90688624230458"><ele>54.0</ele><time>2026-03-29T13:37:40Z</time></trkpt><trkpt lat="42.9510442756543" lon="10.906551011514503"><ele>54.0</ele><time>2026-03-29T13:37:41Z</time></trkpt><trkpt lat="42.951031825804385" lon="10.906217962995093"><ele>54.0</ele><time>2026-03-29T13:37:42Z</time></trkpt><trkpt lat="42.951022695440415" lon="10.905881346222914"><ele>54.5</ele><time>2026-03-29T13:37:43Z</time></trkpt><trkpt lat="42.951011688760126" lon="10.905558785354343"><ele>55.0</ele><time>2026-03-29T13:37:44Z</time></trkpt><trkpt lat="42.95100293537335" lon="10.905235063437196"><ele>54.5</ele><time>2026-03-29T13:37:45Z</time></trkpt><trkpt lat="42.95099386423184" lon="10.904907237633088"><ele>54.0</ele><time>2026-03-29T13:37:46Z</time></trkpt><trkpt lat="42.95098292077275" lon="10.904585209011985"><ele>54.0</ele><time>2026-03-29T13:37:47Z</time></trkpt><trkpt lat="42.9509713111689" lon="10.904257461756627"><ele>54.0</ele><time>2026-03-29T13:37:48Z</time></trkpt><trkpt lat="42.95095972677937" lon="10.903928167104077"><ele>53.0</ele><time>2026-03-29T13:37:49Z</time></trkpt><trkpt lat="42.950947164584946" lon="10.90359727829313"><ele>52.0</ele><time>2026-03-29T13:37:50Z</time></trkpt><trkpt lat="42.95093637383478" lon="10.903261988218683"><ele>51.5</ele><time>2026-03-29T13:37:51Z</time></trkpt><trkpt lat="42.95092433755447" lon="10.90292451634581"><ele>51.0</ele><time>2026-03-29T13:37:52Z</time></trkpt><trkpt lat="42.95091282644894" lon="10.902585188947345"><ele>50.5</ele><time>2026-03-29T13:37:53Z</time></trkpt><trkpt lat="42.95089919650586" lon="10.90223637720716"><ele>50.0</ele><time>2026-03-29T13:37:54Z</time></trkpt><trkpt lat="42.95088631718561" lon="10.901882847516193"><ele>50.5</ele><time>2026-03-29T13:37:55Z</time></trkpt><trkpt lat="42.95087609947858" lon="10.90152844567989"><ele>51.0</ele><time>2026-03-29T13:37:56Z</time></trkpt><trkpt lat="42.950866253457" lon="10.901170628642868"><ele>49.5</ele><time>2026-03-29T13:37:57Z</time></trkpt><trkpt lat="42.95085671196808" lon="10.900808119553485"><ele>48.0</ele><time>2026-03-29T13:37:58Z</time></trkpt><trkpt lat="42.95084422661522" lon="10.900445914277599"><ele>48.0</ele><time>2026-03-29T13:37:59Z</time></trkpt><trkpt lat="42.95083184675051" lon="10.90007884759079"><ele>48.0</ele><time>2026-03-29T13:38:00Z</time></trkpt><trkpt lat="42.950818350649236" lon="10.899710144733026"><ele>48.0</ele><time>2026-03-29T13:38:01Z</time></trkpt><trkpt lat="42.9508047962773" lon="10.89934449556652"><ele>48.0</ele><time>2026-03-29T13:38:02Z</time></trkpt><trkpt lat="42.9507924083885" lon="10.898976514478848"><ele>46.5</ele><time>2026-03-29T13:38:03Z</time></trkpt><trkpt lat="42.95077994965834" lon="10.898609834900967"><ele>45.0</ele><time>2026-03-29T13:38:04Z</time></trkpt><trkpt lat="42.95076912580838" lon="10.898259225706258"><ele>45.0</ele><time>2026-03-29T13:38:05Z</time></trkpt><trkpt lat="42.950755536627554" lon="10.897910038341971"><ele>45.0</ele><time>2026-03-29T13:38:06Z</time></trkpt><trkpt lat="42.950743200029045" lon="10.89755565871137"><ele>45.0</ele><time>2026-03-29T13:38:07Z</time></trkpt><trkpt lat="42.95073277305406" lon="10.897199913798499"><ele>45.0</ele><time>2026-03-29T13:38:08Z</time></trkpt><trkpt lat="42.95072177886768" lon="10.896848233877941"><ele>44.5</ele><time>2026-03-29T13:38:09Z</time></trkpt><trkpt lat="42.95071600344189" lon="10.896504455451042"><ele>44.0</ele><time>2026-03-29T13:38:10Z</time></trkpt><trkpt lat="42.950698233146426" lon="10.896147633075303"><ele>43.5</ele><time>2026-03-29T13:38:11Z</time></trkpt><trkpt lat="42.950687158518384" lon="10.895803238187373"><ele>43.0</ele><time>2026-03-29T13:38:12Z</time></trkpt><trkpt lat="42.95067612238491" lon="10.895457013955864"><ele>43.0</ele><time>2026-03-29T13:38:13Z</time></trkpt><trkpt lat="42.95066562000868" lon="10.89511530941925"><ele>43.0</ele><time>2026-03-29T13:38:14Z</time></trkpt><trkpt lat="42.95065558325521" lon="10.894775965174771"><ele>43.0</ele><time>2026-03-29T13:38:15Z</time></trkpt><trkpt lat="42.95064207012373" lon="10.89444176244648"><ele>43.0</ele><time>2026-03-29T13:38:16Z</time></trkpt><trkpt lat="42.95063033089364" lon="10.894101906606704"><ele>41.5</ele><time>2026-03-29T13:38:17Z</time></trkpt><trkpt lat="42.950618823963445" lon="10.89376300331363"><ele>40.0</ele><time>2026-03-29T13:38:18Z</time></trkpt><trkpt lat="42.95060605685412" lon="10.893419572465849"><ele>39.0</ele><time>2026-03-29T13:38:19Z</time></trkpt><trkpt lat="42.9505947265194" lon="10.893072704151205"><ele>38.0</ele><time>2026-03-29T13:38:20Z</time></trkpt><trkpt lat="42.950582665952794" lon="10.892728755242409"><ele>38.5</ele><time>2026-03-29T13:38:21Z</time></trkpt><trkpt lat="42.95057196437223" lon="10.892380667114853"><ele>39.0</ele><time>2026-03-29T13:38:22Z</time></trkpt><trkpt lat="42.950559447594" lon="10.89203294192464"><ele>39.5</ele><time>2026-03-29T13:38:23Z</time></trkpt><trkpt lat="42.950546996979675" lon="10.891681682560023"><ele>40.0</ele><time>2026-03-29T13:38:24Z</time></trkpt><trkpt lat="42.95053459046994" lon="10.891328173109125"><ele>40.0</ele><time>2026-03-29T13:38:25Z</time></trkpt><trkpt lat="42.95052041828451" lon="10.890974991542555"><ele>40.0</ele><time>2026-03-29T13:38:26Z</time></trkpt><trkpt lat="42.95050695120837" lon="10.89062222991056"><ele>40.0</ele><time>2026-03-29T13:38:27Z</time></trkpt><trkpt lat="42.950494885164574" lon="10.890264513663134"><ele>40.0</ele><time>2026-03-29T13:38:28Z</time></trkpt><trkpt lat="42.95048448043123" lon="10.889904846242827"><ele>40.5</ele><time>2026-03-29T13:38:29Z</time></trkpt><trkpt lat="42.95047585738881" lon="10.889545720224923"><ele>41.0</ele><time>2026-03-29T13:38:30Z</time></trkpt><trkpt lat="42.950468895085436" lon="10.889179771593263"><ele>41.0</ele><time>2026-03-29T13:38:31Z</time></trkpt><trkpt lat="42.950456930588544" lon="10.888827809463912"><ele>41.0</ele><time>2026-03-29T13:38:32Z</time></trkpt><trkpt lat="42.950445725042634" lon="10.88847835374369"><ele>42.0</ele><time>2026-03-29T13:38:33Z</time></trkpt><trkpt lat="42.95043187779729" lon="10.88812334550493"><ele>43.0</ele><time>2026-03-29T13:38:34Z</time></trkpt><trkpt lat="42.95041769389151" lon="10.887768013314833"><ele>44.0</ele><time>2026-03-29T13:38:35Z</time></trkpt><trkpt lat="42.95040744420305" lon="10.887410499027729"><ele>45.0</ele><time>2026-03-29T13:38:35.999Z</time></trkpt><trkpt lat="42.95039752408955" lon="10.887052123878943"><ele>46.0</ele><time>2026-03-29T13:38:36.999Z</time></trkpt><trkpt lat="42.950384630195586" lon="10.886692598901202"><ele>47.0</ele><time>2026-03-29T13:38:37.999Z</time></trkpt><trkpt lat="42.950374130353026" lon="10.886337553112638"><ele>47.0</ele><time>2026-03-29T13:38:38.999Z</time></trkpt><trkpt lat="42.95036469067193" lon="10.885994320195968"><ele>47.0</ele><time>2026-03-29T13:38:39.999Z</time></trkpt><trkpt lat="42.950357843639" lon="10.885620397659531"><ele>45.0</ele><time>2026-03-29T13:38:40.999Z</time></trkpt><trkpt lat="42.95034543466535" lon="10.885266142793304"><ele>43.0</ele><time>2026-03-29T13:38:41.999Z</time></trkpt><trkpt lat="42.95034149699432" lon="10.884910600262101"><ele>41.5</ele><time>2026-03-29T13:38:42.999Z</time></trkpt><trkpt lat="42.95034563739349" lon="10.884555654059358"><ele>40.0</ele><time>2026-03-29T13:38:43.999Z</time></trkpt><trkpt lat="42.95035701105061" lon="10.884206414358715"><ele>39.5</ele><time>2026-03-29T13:38:44.999Z</time></trkpt><trkpt lat="42.95037473457739" lon="10.883856658851961"><ele>39.0</ele><time>2026-03-29T13:38:45.999Z</time></trkpt><trkpt lat="42.95040296462799" lon="10.883515650842261"><ele>39.0</ele><time>2026-03-29T13:38:46.999Z</time></trkpt><trkpt lat="42.95044388026359" lon="10.883177389314644"><ele>39.0</ele><time>2026-03-29T13:38:47.999Z</time></trkpt><trkpt lat="42.95049756959005" lon="10.882839716911473"><ele>40.0</ele><time>2026-03-29T13:38:48.999Z</time></trkpt><trkpt lat="42.95055678186401" lon="10.88250282926168"><ele>41.0</ele><time>2026-03-29T13:38:49.999Z</time></trkpt><trkpt lat="42.950622583573136" lon="10.882164745187152"><ele>41.0</ele><time>2026-03-29T13:38:50.999Z</time></trkpt><trkpt lat="42.95069110629164" lon="10.881838327858736"><ele>41.0</ele><time>2026-03-29T13:38:51.999Z</time></trkpt><trkpt lat="42.95077338049194" lon="10.881493372312146"><ele>41.5</ele><time>2026-03-29T13:38:52.999Z</time></trkpt><trkpt lat="42.95086292522498" lon="10.881159383909889"><ele>42.0</ele><time>2026-03-29T13:38:53.999Z</time></trkpt><trkpt lat="42.95095566523761" lon="10.880819780512832"><ele>43.5</ele><time>2026-03-29T13:38:54.999Z</time></trkpt><trkpt lat="42.95105037917419" lon="10.880486303814607"><ele>45.0</ele><time>2026-03-29T13:38:55.999Z</time></trkpt><trkpt lat="42.95114962682304" lon="10.88015399458555"><ele>43.5</ele><time>2026-03-29T13:38:56.999Z</time></trkpt><trkpt lat="42.951243690095744" lon="10.879827247265931"><ele>42.0</ele><time>2026-03-29T13:38:57.999Z</time></trkpt><trkpt lat="42.95134888821689" lon="10.879492087843659"><ele>40.0</ele><time>2026-03-29T13:38:58.999Z</time></trkpt><trkpt lat="42.95144875211407" lon="10.879157959987943"><ele>38.0</ele><time>2026-03-29T13:38:59.999Z</time></trkpt><trkpt lat="42.95154751989696" lon="10.87882505199763"><ele>38.0</ele><time>2026-03-29T13:39:00.999Z</time></trkpt><trkpt lat="42.951647824344725" lon="10.878490653640247"><ele>38.0</ele><time>2026-03-29T13:39:01.999Z</time></trkpt><trkpt lat="42.95174495718729" lon="10.87815949027477"><ele>38.5</ele><time>2026-03-29T13:39:02.999Z</time></trkpt><trkpt lat="42.95184046075851" lon="10.877826612907707"><ele>39.0</ele><time>2026-03-29T13:39:03.999Z</time></trkpt><trkpt lat="42.95193997804027" lon="10.877498737853417"><ele>37.5</ele><time>2026-03-29T13:39:04.999Z</time></trkpt><trkpt lat="42.95204179506074" lon="10.877164862946243"><ele>36.0</ele><time>2026-03-29T13:39:05.999Z</time></trkpt><trkpt lat="42.95213506124682" lon="10.87683480938726"><ele>35.0</ele><time>2026-03-29T13:39:06.999Z</time></trkpt><trkpt lat="42.95223563304551" lon="10.876506218124009"><ele>34.0</ele><time>2026-03-29T13:39:07.999Z</time></trkpt><trkpt lat="42.95233650959005" lon="10.876177500503854"><ele>34.0</ele><time>2026-03-29T13:39:08.999Z</time></trkpt><trkpt lat="42.95243404185685" lon="10.875846872607369"><ele>34.0</ele><time>2026-03-29T13:39:09.999Z</time></trkpt><trkpt lat="42.95253307249536" lon="10.875516965185913"><ele>37.0</ele><time>2026-03-29T13:39:10.999Z</time></trkpt><trkpt lat="42.95263017680127" lon="10.875185347676181"><ele>40.0</ele><time>2026-03-29T13:39:11.999Z</time></trkpt><trkpt lat="42.95272231437923" lon="10.874856534689581"><ele>40.5</ele><time>2026-03-29T13:39:12.999Z</time></trkpt><trkpt lat="42.952820618631485" lon="10.87452611363676"><ele>41.0</ele><time>2026-03-29T13:39:13.999Z</time></trkpt><trkpt lat="42.95291242830545" lon="10.874191848904845"><ele>42.5</ele><time>2026-03-29T13:39:14.999Z</time></trkpt><trkpt lat="42.95300636460893" lon="10.873860079006027"><ele>44.0</ele><time>2026-03-29T13:39:15.999Z</time></trkpt><trkpt lat="42.953102994910296" lon="10.873527103536691"><ele>44.5</ele><time>2026-03-29T13:39:16.999Z</time></trkpt><trkpt lat="42.953197509663134" lon="10.873194128820144"><ele>45.0</ele><time>2026-03-29T13:39:17.999Z</time></trkpt><trkpt lat="42.95329985464013" lon="10.872861849412244"><ele>45.0</ele><time>2026-03-29T13:39:18.999Z</time></trkpt><trkpt lat="42.95339783848238" lon="10.872523659082258"><ele>45.0</ele><time>2026-03-29T13:39:19.999Z</time></trkpt><trkpt lat="42.95349505727495" lon="10.872191976679435"><ele>45.0</ele><time>2026-03-29T13:39:20.999Z</time></trkpt><trkpt lat="42.9535978421087" lon="10.871865815541613"><ele>45.0</ele><time>2026-03-29T13:39:21.999Z</time></trkpt><trkpt lat="42.953702216955264" lon="10.871543163383075"><ele>42.0</ele><time>2026-03-29T13:39:22.999Z</time></trkpt><trkpt lat="42.953805433477804" lon="10.87121424418006"><ele>39.0</ele><time>2026-03-29T13:39:23.999Z</time></trkpt><trkpt lat="42.95390910174784" lon="10.87088984840713"><ele>38.5</ele><time>2026-03-29T13:39:24.999Z</time></trkpt><trkpt lat="42.954007983567884" lon="10.870561282451462"><ele>38.0</ele><time>2026-03-29T13:39:25.999Z</time></trkpt><trkpt lat="42.9540983235595" lon="10.870233390945529"><ele>40.0</ele><time>2026-03-29T13:39:26.999Z</time></trkpt><trkpt lat="42.954194061204326" lon="10.869908241879973"><ele>42.0</ele><time>2026-03-29T13:39:27.999Z</time></trkpt><trkpt lat="42.95429038272034" lon="10.869583535234154"><ele>46.0</ele><time>2026-03-29T13:39:28.999Z</time></trkpt><trkpt lat="42.954386816130935" lon="10.869259637885268"><ele>50.0</ele><time>2026-03-29T13:39:29.999Z</time></trkpt><trkpt lat="42.954486158931694" lon="10.868930971921273"><ele>50.0</ele><time>2026-03-29T13:39:30.999Z</time></trkpt><trkpt lat="42.9545839320799" lon="10.868609082955112"><ele>50.0</ele><time>2026-03-29T13:39:31.999Z</time></trkpt><trkpt lat="42.95468051564134" lon="10.868288820628441"><ele>52.0</ele><time>2026-03-29T13:39:32.999Z</time></trkpt><trkpt lat="42.9547788612858" lon="10.86796475537763"><ele>54.0</ele><time>2026-03-29T13:39:33.999Z</time></trkpt><trkpt lat="42.954872137451744" lon="10.867639250683883"><ele>54.5</ele><time>2026-03-29T13:39:34.999Z</time></trkpt><trkpt lat="42.95496752390134" lon="10.867313863243597"><ele>55.0</ele><time>2026-03-29T13:39:35.999Z</time></trkpt><trkpt lat="42.95506526905956" lon="10.866995589837522"><ele>51.5</ele><time>2026-03-29T13:39:37Z</time></trkpt><trkpt lat="42.95516014707275" lon="10.866671727021473"><ele>48.0</ele><time>2026-03-29T13:39:38Z</time></trkpt><trkpt lat="42.95525130624214" lon="10.866352826502888"><ele>48.0</ele><time>2026-03-29T13:39:39Z</time></trkpt><trkpt lat="42.95535056838543" lon="10.86604107770409"><ele>48.0</ele><time>2026-03-29T13:39:40Z</time></trkpt><trkpt lat="42.95545587722853" lon="10.86571910323892"><ele>46.0</ele><time>2026-03-29T13:39:41Z</time></trkpt><trkpt lat="42.95556564094908" lon="10.865397874230142"><ele>44.0</ele><time>2026-03-29T13:39:42Z</time></trkpt><trkpt lat="42.955679322141556" lon="10.86508010957604"><ele>42.5</ele><time>2026-03-29T13:39:43Z</time></trkpt><trkpt lat="42.95579365466194" lon="10.864767724434296"><ele>41.0</ele><time>2026-03-29T13:39:44Z</time></trkpt><trkpt lat="42.95591513632636" lon="10.864449334346675"><ele>39.0</ele><time>2026-03-29T13:39:45Z</time></trkpt><trkpt lat="42.95603821707814" lon="10.864139841586256"><ele>37.0</ele><time>2026-03-29T13:39:46Z</time></trkpt><trkpt lat="42.95616146940735" lon="10.863838772414201"><ele>37.0</ele><time>2026-03-29T13:39:47Z</time></trkpt><trkpt lat="42.956286547265755" lon="10.863541805359066"><ele>37.0</ele><time>2026-03-29T13:39:48Z</time></trkpt><trkpt lat="42.95641518986185" lon="10.863248370346614"><ele>36.0</ele><time>2026-03-29T13:39:49Z</time></trkpt><trkpt lat="42.95654677044418" lon="10.86296143556661"><ele>35.0</ele><time>2026-03-29T13:39:50Z</time></trkpt><trkpt lat="42.95668274916064" lon="10.862679759120104"><ele>35.5</ele><time>2026-03-29T13:39:51Z</time></trkpt><trkpt lat="42.95682191628569" lon="10.862403220538026"><ele>36.0</ele><time>2026-03-29T13:39:52Z</time></trkpt><trkpt lat="42.95695913261641" lon="10.862130346132705"><ele>36.0</ele><time>2026-03-29T13:39:53Z</time></trkpt><trkpt lat="42.9570968680449" lon="10.861863330480372"><ele>36.0</ele><time>2026-03-29T13:39:54Z</time></trkpt><trkpt lat="42.9572397468134" lon="10.86159907039622"><ele>36.0</ele><time>2026-03-29T13:39:55Z</time></trkpt><trkpt lat="42.957385282026074" lon="10.861339824930726"><ele>36.0</ele><time>2026-03-29T13:39:56Z</time></trkpt><trkpt lat="42.9575326434825" lon="10.861083318928722"><ele>36.5</ele><time>2026-03-29T13:39:57Z</time></trkpt><trkpt lat="42.957683142183114" lon="10.860831012108196"><ele>37.0</ele><time>2026-03-29T13:39:58Z</time></trkpt><trkpt lat="42.95783989468591" lon="10.86057710202371"><ele>37.0</ele><time>2026-03-29T13:39:59Z</time></trkpt><trkpt lat="42.957996228947934" lon="10.860324449352463"><ele>37.0</ele><time>2026-03-29T13:40:00Z</time></trkpt><trkpt lat="42.95815560210114" lon="10.860075113865664"><ele>37.0</ele><time>2026-03-29T13:40:01Z</time></trkpt><trkpt lat="42.95831814056352" lon="10.859831136726413"><ele>37.0</ele><time>2026-03-29T13:40:02Z</time></trkpt><trkpt lat="42.95848458568738" lon="10.859591097230926"><ele>38.0</ele><time>2026-03-29T13:40:03Z</time></trkpt><trkpt lat="42.958651373986825" lon="10.859357943443174"><ele>39.0</ele><time>2026-03-29T13:40:04Z</time></trkpt><trkpt lat="42.95882217573458" lon="10.85912576648401"><ele>39.0</ele><time>2026-03-29T13:40:05Z</time></trkpt><trkpt lat="42.95899341433017" lon="10.85889744004423"><ele>39.0</ele><time>2026-03-29T13:40:06Z</time></trkpt><trkpt lat="42.9591657294797" lon="10.85867415916637"><ele>40.5</ele><time>2026-03-29T13:40:07Z</time></trkpt><trkpt lat="42.959339725039676" lon="10.858456095356809"><ele>42.0</ele><time>2026-03-29T13:40:08Z</time></trkpt><trkpt lat="42.95951735876795" lon="10.858237787728575"><ele>42.0</ele><time>2026-03-29T13:40:09Z</time></trkpt><trkpt lat="42.95969599584249" lon="10.858016392243362"><ele>42.0</ele><time>2026-03-29T13:40:10Z</time></trkpt><trkpt lat="42.95986892014302" lon="10.857790260371711"><ele>40.0</ele><time>2026-03-29T13:40:11Z</time></trkpt><trkpt lat="42.96005096825877" lon="10.857564979770773"><ele>38.0</ele><time>2026-03-29T13:40:12Z</time></trkpt><trkpt lat="42.96022619176789" lon="10.85734241537427"><ele>38.0</ele><time>2026-03-29T13:40:13Z</time></trkpt><trkpt lat="42.96040128438117" lon="10.857118128569795"><ele>38.0</ele><time>2026-03-29T13:40:14Z</time></trkpt><trkpt lat="42.960577005126446" lon="10.856892817012351"><ele>38.0</ele><time>2026-03-29T13:40:15Z</time></trkpt><trkpt lat="42.96075653769729" lon="10.856671419971375"><ele>38.0</ele><time>2026-03-29T13:40:16Z</time></trkpt><trkpt lat="42.96093707717302" lon="10.85645159288089"><ele>39.0</ele><time>2026-03-29T13:40:17Z</time></trkpt><trkpt lat="42.96111705635526" lon="10.856228901154173"><ele>40.0</ele><time>2026-03-29T13:40:18Z</time></trkpt><trkpt lat="42.961294690602344" lon="10.856003681337876"><ele>39.0</ele><time>2026-03-29T13:40:19Z</time></trkpt><trkpt lat="42.96147232134174" lon="10.855777068056456"><ele>38.0</ele><time>2026-03-29T13:40:20Z</time></trkpt><trkpt lat="42.961650016514824" lon="10.855553274009056"><ele>39.0</ele><time>2026-03-29T13:40:21Z</time></trkpt><trkpt lat="42.96182827412331" lon="10.855327140979414"><ele>40.0</ele><time>2026-03-29T13:40:22Z</time></trkpt><trkpt lat="42.96200179612549" lon="10.855096116616897"><ele>40.0</ele><time>2026-03-29T13:40:23Z</time></trkpt><trkpt lat="42.962164458803116" lon="10.854854783327495"><ele>40.0</ele><time>2026-03-29T13:40:24Z</time></trkpt><trkpt lat="42.96232130772913" lon="10.854601825804378"><ele>40.0</ele><time>2026-03-29T13:40:25Z</time></trkpt><trkpt lat="42.96247511484738" lon="10.854342914923645"><ele>40.0</ele><time>2026-03-29T13:40:26Z</time></trkpt><trkpt lat="42.962621721455704" lon="10.854070859928502"><ele>39.5</ele><time>2026-03-29T13:40:27Z</time></trkpt><trkpt lat="42.96276187872927" lon="10.853796641959288"><ele>39.0</ele><time>2026-03-29T13:40:28Z</time></trkpt><trkpt lat="42.962894522414615" lon="10.853517886452936"><ele>41.0</ele><time>2026-03-29T13:40:29Z</time></trkpt><trkpt lat="42.963019155563344" lon="10.853234623644834"><ele>43.0</ele><time>2026-03-29T13:40:30Z</time></trkpt><trkpt lat="42.96313131827595" lon="10.852946162985772"><ele>43.0</ele><time>2026-03-29T13:40:31Z</time></trkpt><trkpt lat="42.96323150474529" lon="10.852657956627224"><ele>43.0</ele><time>2026-03-29T13:40:32Z</time></trkpt><trkpt lat="42.96332740032177" lon="10.852363427637599"><ele>45.0</ele><time>2026-03-29T13:40:33Z</time></trkpt><trkpt lat="42.9634155125667" lon="10.852064601379702"><ele>47.0</ele><time>2026-03-29T13:40:34Z</time></trkpt><trkpt lat="42.96349668083147" lon="10.851762604042188"><ele>47.0</ele><time>2026-03-29T13:40:35Z</time></trkpt><trkpt lat="42.963573604061196" lon="10.851459017994651"><ele>47.0</ele><time>2026-03-29T13:40:36Z</time></trkpt><trkpt lat="42.96363879239627" lon="10.851148601211733"><ele>47.5</ele><time>2026-03-29T13:40:37Z</time></trkpt><trkpt lat="42.96369481650502" lon="10.850831861297166"><ele>48.0</ele><time>2026-03-29T13:40:38Z</time></trkpt><trkpt lat="42.963744688856835" lon="10.850512291699413"><ele>48.0</ele><time>2026-03-29T13:40:39Z</time></trkpt><trkpt lat="42.963785636011615" lon="10.850189283475084"><ele>48.0</ele><time>2026-03-29T13:40:40Z</time></trkpt><trkpt lat="42.963814929564" lon="10.849867018085208"><ele>48.0</ele><time>2026-03-29T13:40:41Z</time></trkpt><trkpt lat="42.9638353047698" lon="10.84954464033332"><ele>48.0</ele><time>2026-03-29T13:40:41.999Z</time></trkpt><trkpt lat="42.9638491185575" lon="10.849215584433876"><ele>48.0</ele><time>2026-03-29T13:40:42.999Z</time></trkpt><trkpt lat="42.96384840436783" lon="10.84888838489417"><ele>48.0</ele><time>2026-03-29T13:40:43.999Z</time></trkpt><trkpt lat="42.96384556919751" lon="10.848554361112528"><ele>45.5</ele><time>2026-03-29T13:40:44.999Z</time></trkpt><trkpt lat="42.963826986969806" lon="10.848215923837538"><ele>43.0</ele><time>2026-03-29T13:40:45.999Z</time></trkpt><trkpt lat="42.963804337814956" lon="10.84787284758224"><ele>42.0</ele><time>2026-03-29T13:40:46.999Z</time></trkpt><trkpt lat="42.96376734787033" lon="10.847527239236442"><ele>41.0</ele><time>2026-03-29T13:40:47.999Z</time></trkpt><trkpt lat="42.963721437344496" lon="10.847186109383262"><ele>41.0</ele><time>2026-03-29T13:40:48.999Z</time></trkpt><trkpt lat="42.96367275824595" lon="10.846836698652087"><ele>41.0</ele><time>2026-03-29T13:40:49.999Z</time></trkpt><trkpt lat="42.96361993509226" lon="10.846486523659918"><ele>40.5</ele><time>2026-03-29T13:40:50.999Z</time></trkpt><trkpt lat="42.96356571265844" lon="10.846135112260454"><ele>40.0</ele><time>2026-03-29T13:40:51.999Z</time></trkpt><trkpt lat="42.9635133145496" lon="10.845782975720272"><ele>40.0</ele><time>2026-03-29T13:40:52.999Z</time></trkpt><trkpt lat="42.96346316663894" lon="10.845440359200143"><ele>40.0</ele><time>2026-03-29T13:40:53.999Z</time></trkpt><trkpt lat="42.963412335067446" lon="10.845100446006297"><ele>39.5</ele><time>2026-03-29T13:40:54.999Z</time></trkpt><trkpt lat="42.96336148598427" lon="10.844758574332477"><ele>39.0</ele><time>2026-03-29T13:40:55.999Z</time></trkpt><trkpt lat="42.96330901853227" lon="10.844418485309436"><ele>38.5</ele><time>2026-03-29T13:40:56.999Z</time></trkpt><trkpt lat="42.96325591807093" lon="10.844085584925502"><ele>38.0</ele><time>2026-03-29T13:40:57.999Z</time></trkpt><trkpt lat="42.96320511845334" lon="10.843749626990105"><ele>39.0</ele><time>2026-03-29T13:40:58.999Z</time></trkpt><trkpt lat="42.963154144518256" lon="10.843416369233758"><ele>40.0</ele><time>2026-03-29T13:40:59.999Z</time></trkpt><trkpt lat="42.963102612388774" lon="10.843084031392202"><ele>40.0</ele><time>2026-03-29T13:41:00.999Z</time></trkpt><trkpt lat="42.9630510699898" lon="10.842751994471099"><ele>40.0</ele><time>2026-03-29T13:41:01.999Z</time></trkpt><trkpt lat="42.96299763169125" lon="10.842422335100986"><ele>40.0</ele><time>2026-03-29T13:41:02.999Z</time></trkpt><trkpt lat="42.962944891137774" lon="10.842090521962415"><ele>40.0</ele><time>2026-03-29T13:41:03.999Z</time></trkpt><trkpt lat="42.962891910663245" lon="10.841755532321914"><ele>40.0</ele><time>2026-03-29T13:41:04.999Z</time></trkpt><trkpt lat="42.962837398241525" lon="10.841420459047706"><ele>40.0</ele><time>2026-03-29T13:41:05.999Z</time></trkpt><trkpt lat="42.96278185125053" lon="10.8410839317768"><ele>41.0</ele><time>2026-03-29T13:41:06.999Z</time></trkpt><trkpt lat="42.96272370864761" lon="10.84074777188358"><ele>42.0</ele><time>2026-03-29T13:41:07.999Z</time></trkpt><trkpt lat="42.96266460209679" lon="10.840408911972027"><ele>42.0</ele><time>2026-03-29T13:41:08.999Z</time></trkpt><trkpt lat="42.96260196166419" lon="10.84007196288788"><ele>42.0</ele><time>2026-03-29T13:41:09.999Z</time></trkpt><trkpt lat="42.96253390749439" lon="10.839734948229026"><ele>41.0</ele><time>2026-03-29T13:41:10.999Z</time></trkpt><trkpt lat="42.96246035521956" lon="10.83940036160886"><ele>40.0</ele><time>2026-03-29T13:41:11.999Z</time></trkpt><trkpt lat="42.96238319892797" lon="10.839061435552818"><ele>40.0</ele><time>2026-03-29T13:41:12.999Z</time></trkpt><trkpt lat="42.96230552356841" lon="10.838719275294324"><ele>40.0</ele><time>2026-03-29T13:41:13.999Z</time></trkpt><trkpt lat="42.9622273208715" lon="10.838377826147223"><ele>39.0</ele><time>2026-03-29T13:41:14.999Z</time></trkpt><trkpt lat="42.962147167470356" lon="10.838036057824118"><ele>38.0</ele><time>2026-03-29T13:41:15.999Z</time></trkpt><trkpt lat="42.962063982249695" lon="10.837693157341583"><ele>36.0</ele><time>2026-03-29T13:41:16.999Z</time></trkpt><trkpt lat="42.9619802853962" lon="10.837349719815316"><ele>34.0</ele><time>2026-03-29T13:41:17.999Z</time></trkpt><trkpt lat="42.96189821451042" lon="10.837001821730555"><ele>33.0</ele><time>2026-03-29T13:41:18.999Z</time></trkpt><trkpt lat="42.961815211747314" lon="10.836650879289813"><ele>32.0</ele><time>2026-03-29T13:41:19.999Z</time></trkpt><trkpt lat="42.9617349381261" lon="10.836296704068966"><ele>30.5</ele><time>2026-03-29T13:41:20.999Z</time></trkpt><trkpt lat="42.961653827900996" lon="10.835944390283302"><ele>29.0</ele><time>2026-03-29T13:41:21.999Z</time></trkpt><trkpt lat="42.96156981511191" lon="10.835591192990123"><ele>29.0</ele><time>2026-03-29T13:41:22.999Z</time></trkpt><trkpt lat="42.96148955668089" lon="10.835253329793892"><ele>29.0</ele><time>2026-03-29T13:41:23.999Z</time></trkpt><trkpt lat="42.96140769332977" lon="10.83492332845576"><ele>29.5</ele><time>2026-03-29T13:41:24.999Z</time></trkpt><trkpt lat="42.961325188601194" lon="10.834596093876586"><ele>30.0</ele><time>2026-03-29T13:41:25.999Z</time></trkpt><trkpt lat="42.96124673141228" lon="10.834268687313305"><ele>30.5</ele><time>2026-03-29T13:41:26.999Z</time></trkpt><trkpt lat="42.96116700213195" lon="10.833938308583804"><ele>31.0</ele><time>2026-03-29T13:41:27.999Z</time></trkpt><trkpt lat="42.961087486856094" lon="10.833614613359908"><ele>29.0</ele><time>2026-03-29T13:41:28.999Z</time></trkpt><trkpt lat="42.96100726014238" lon="10.833282968557478"><ele>27.0</ele><time>2026-03-29T13:41:29.999Z</time></trkpt><trkpt lat="42.960927979523134" lon="10.83295133791357"><ele>25.5</ele><time>2026-03-29T13:41:30.999Z</time></trkpt><trkpt lat="42.96084581022832" lon="10.832619891095094"><ele>24.0</ele><time>2026-03-29T13:41:31.999Z</time></trkpt><trkpt lat="42.960764853563404" lon="10.832284109958866"><ele>24.0</ele><time>2026-03-29T13:41:32.999Z</time></trkpt><trkpt lat="42.96068182500525" lon="10.831945868861318"><ele>24.0</ele><time>2026-03-29T13:41:33.999Z</time></trkpt><trkpt lat="42.960597345187324" lon="10.83160412235728"><ele>23.5</ele><time>2026-03-29T13:41:34.999Z</time></trkpt><trkpt lat="42.960519378223054" lon="10.831271113553395"><ele>23.0</ele><time>2026-03-29T13:41:35.999Z</time></trkpt><trkpt lat="42.96044067736191" lon="10.830930523165028"><ele>22.0</ele><time>2026-03-29T13:41:36.999Z</time></trkpt><trkpt lat="42.96036094805645" lon="10.830590336549061"><ele>21.0</ele><time>2026-03-29T13:41:37.999Z</time></trkpt><trkpt lat="42.96028054331993" lon="10.830253003272864"><ele>20.5</ele><time>2026-03-29T13:41:38.999Z</time></trkpt><trkpt lat="42.96019845812913" lon="10.829920562799897"><ele>20.0</ele><time>2026-03-29T13:41:39.999Z</time></trkpt><trkpt lat="42.96011637476488" lon="10.829587463288618"><ele>20.5</ele><time>2026-03-29T13:41:40.999Z</time></trkpt><trkpt lat="42.96003586891312" lon="10.829260337398212"><ele>21.0</ele><time>2026-03-29T13:41:41.999Z</time></trkpt><trkpt lat="42.95996039193921" lon="10.828938165689411"><ele>21.5</ele><time>2026-03-29T13:41:43Z</time></trkpt><trkpt lat="42.95988403775634" lon="10.828616353358623"><ele>22.0</ele><time>2026-03-29T13:41:44Z</time></trkpt><trkpt lat="42.959809175714334" lon="10.828295260062113"><ele>22.5</ele><time>2026-03-29T13:41:45Z</time></trkpt><trkpt lat="42.959734950175395" lon="10.827982947125616"><ele>23.0</ele><time>2026-03-29T13:41:46Z</time></trkpt><trkpt lat="42.95966291370656" lon="10.827667497890195"><ele>23.5</ele><time>2026-03-29T13:41:47Z</time></trkpt><trkpt lat="42.95959654880359" lon="10.827351380672155"><ele>24.0</ele><time>2026-03-29T13:41:48Z</time></trkpt><trkpt lat="42.959530920093556" lon="10.827036907599263"><ele>23.5</ele><time>2026-03-29T13:41:49Z</time></trkpt><trkpt lat="42.95947244370851" lon="10.826725417849227"><ele>23.0</ele><time>2026-03-29T13:41:50Z</time></trkpt><trkpt lat="42.95941752413625" lon="10.82640740338245"><ele>23.0</ele><time>2026-03-29T13:41:51Z</time></trkpt><trkpt lat="42.959364490599505" lon="10.826085971658534"><ele>23.0</ele><time>2026-03-29T13:41:52Z</time></trkpt><trkpt lat="42.95931200598733" lon="10.825767411637724"><ele>22.0</ele><time>2026-03-29T13:41:53Z</time></trkpt><trkpt lat="42.95926298697642" lon="10.825442447563207"><ele>21.0</ele><time>2026-03-29T13:41:54Z</time></trkpt><trkpt lat="42.95921576310291" lon="10.825116202691566"><ele>21.0</ele><time>2026-03-29T13:41:55Z</time></trkpt><trkpt lat="42.9591709209265" lon="10.82478743578835"><ele>21.0</ele><time>2026-03-29T13:41:56Z</time></trkpt><trkpt lat="42.95912816095817" lon="10.824459246743771"><ele>21.0</ele><time>2026-03-29T13:41:57Z</time></trkpt><trkpt lat="42.95908676107187" lon="10.824125970434872"><ele>21.0</ele><time>2026-03-29T13:41:58Z</time></trkpt><trkpt lat="42.95905227021545" lon="10.823792546004498"><ele>21.0</ele><time>2026-03-29T13:41:59Z</time></trkpt><trkpt lat="42.959023487536506" lon="10.823454307669351"><ele>21.0</ele><time>2026-03-29T13:42:00Z</time></trkpt><trkpt lat="42.959000340645375" lon="10.823114175877016"><ele>21.0</ele><time>2026-03-29T13:42:01Z</time></trkpt><trkpt lat="42.958986732897365" lon="10.822768882860036"><ele>21.0</ele><time>2026-03-29T13:42:02Z</time></trkpt><trkpt lat="42.95898010006818" lon="10.822419521362203"><ele>21.0</ele><time>2026-03-29T13:42:03Z</time></trkpt><trkpt lat="42.958970452279" lon="10.822075189466224"><ele>21.0</ele><time>2026-03-29T13:42:04Z</time></trkpt><trkpt lat="42.958959459153355" lon="10.821725649457088"><ele>21.5</ele><time>2026-03-29T13:42:05Z</time></trkpt><trkpt lat="42.95895254463694" lon="10.821374973602941"><ele>22.0</ele><time>2026-03-29T13:42:06Z</time></trkpt><trkpt lat="42.958944394610036" lon="10.821025020016698"><ele>22.0</ele><time>2026-03-29T13:42:07Z</time></trkpt><trkpt lat="42.958946295098954" lon="10.820670545284583"><ele>22.0</ele><time>2026-03-29T13:42:08Z</time></trkpt><trkpt lat="42.95895441313324" lon="10.82031531700558"><ele>21.0</ele><time>2026-03-29T13:42:09Z</time></trkpt><trkpt lat="42.95896451843076" lon="10.819962998910153"><ele>20.0</ele><time>2026-03-29T13:42:10Z</time></trkpt><trkpt lat="42.958978895930805" lon="10.819612619724383"><ele>20.0</ele><time>2026-03-29T13:42:11Z</time></trkpt><trkpt lat="42.958994332791995" lon="10.81926384549214"><ele>20.0</ele><time>2026-03-29T13:42:12Z</time></trkpt><trkpt lat="42.95901409266965" lon="10.81890957354539"><ele>20.0</ele><time>2026-03-29T13:42:13Z</time></trkpt><trkpt lat="42.95902924117073" lon="10.818558194032288"><ele>20.0</ele><time>2026-03-29T13:42:14Z</time></trkpt><trkpt lat="42.95904810770255" lon="10.818203668042747"><ele>20.0</ele><time>2026-03-29T13:42:15Z</time></trkpt><trkpt lat="42.9590658450229" lon="10.817850223475313"><ele>20.0</ele><time>2026-03-29T13:42:16Z</time></trkpt><trkpt lat="42.95908582072382" lon="10.817496727360021"><ele>20.0</ele><time>2026-03-29T13:42:17Z</time></trkpt><trkpt lat="42.9591024389235" lon="10.817143481925303"><ele>20.0</ele><time>2026-03-29T13:42:18Z</time></trkpt><trkpt lat="42.959119524441284" lon="10.816788232096911"><ele>19.5</ele><time>2026-03-29T13:42:19Z</time></trkpt><trkpt lat="42.95913286782286" lon="10.816438870025557"><ele>19.0</ele><time>2026-03-29T13:42:20Z</time></trkpt><trkpt lat="42.959144798083365" lon="10.816085131366444"><ele>19.0</ele><time>2026-03-29T13:42:21Z</time></trkpt><trkpt lat="42.95916316289317" lon="10.815737878693863"><ele>19.0</ele><time>2026-03-29T13:42:22Z</time></trkpt><trkpt lat="42.95918137802428" lon="10.815388391057494"><ele>20.0</ele><time>2026-03-29T13:42:23Z</time></trkpt><trkpt lat="42.95920495265746" lon="10.815037216344308"><ele>21.0</ele><time>2026-03-29T13:42:24Z</time></trkpt><trkpt lat="42.95923105476423" lon="10.814686212408905"><ele>21.0</ele><time>2026-03-29T13:42:25Z</time></trkpt><trkpt lat="42.95925815878224" lon="10.814335040394727"><ele>21.0</ele><time>2026-03-29T13:42:26Z</time></trkpt><trkpt lat="42.95928416936189" lon="10.813997592559614"><ele>21.0</ele><time>2026-03-29T13:42:27Z</time></trkpt><trkpt lat="42.959326522729974" lon="10.813632601161048"><ele>21.0</ele><time>2026-03-29T13:42:28Z</time></trkpt><trkpt lat="42.95936065142792" lon="10.813279276314278"><ele>21.0</ele><time>2026-03-29T13:42:29Z</time></trkpt><trkpt lat="42.95939852250627" lon="10.812925653335995"><ele>21.0</ele><time>2026-03-29T13:42:30Z</time></trkpt><trkpt lat="42.95944395344336" lon="10.812570400508713"><ele>21.0</ele><time>2026-03-29T13:42:31Z</time></trkpt><trkpt lat="42.959480422417535" lon="10.812215109285118"><ele>21.0</ele><time>2026-03-29T13:42:32Z</time></trkpt><trkpt lat="42.959514757462564" lon="10.811860136780298"><ele>21.0</ele><time>2026-03-29T13:42:33Z</time></trkpt><trkpt lat="42.95954755903856" lon="10.811503916984908"><ele>21.0</ele><time>2026-03-29T13:42:34Z</time></trkpt><trkpt lat="42.95957507670984" lon="10.811149166239602"><ele>21.5</ele><time>2026-03-29T13:42:35Z</time></trkpt><trkpt lat="42.95960359704129" lon="10.81079199610724"><ele>22.0</ele><time>2026-03-29T13:42:36Z</time></trkpt><trkpt lat="42.959630352347595" lon="10.810433811547245"><ele>21.5</ele><time>2026-03-29T13:42:37Z</time></trkpt><trkpt lat="42.95964929042075" lon="10.81007518317155"><ele>21.0</ele><time>2026-03-29T13:42:38Z</time></trkpt><trkpt lat="42.95966365040889" lon="10.809715226900863"><ele>21.0</ele><time>2026-03-29T13:42:39Z</time></trkpt><trkpt lat="42.95967161890494" lon="10.80935514518038"><ele>21.0</ele><time>2026-03-29T13:42:40Z</time></trkpt><trkpt lat="42.95967487456175" lon="10.808992262368372"><ele>20.5</ele><time>2026-03-29T13:42:41Z</time></trkpt><trkpt lat="42.95967421671765" lon="10.808625089268592"><ele>20.0</ele><time>2026-03-29T13:42:42Z</time></trkpt><trkpt lat="42.95966640433268" lon="10.80826537872455"><ele>20.0</ele><time>2026-03-29T13:42:43Z</time></trkpt><trkpt lat="42.959652543114956" lon="10.807902594684808"><ele>20.0</ele><time>2026-03-29T13:42:44Z</time></trkpt><trkpt lat="42.959627650631084" lon="10.80754637254488"><ele>20.0</ele><time>2026-03-29T13:42:45Z</time></trkpt><trkpt lat="42.959602477772364" lon="10.807185377147082"><ele>20.0</ele><time>2026-03-29T13:42:46Z</time></trkpt><trkpt lat="42.95956989777575" lon="10.806825835812782"><ele>19.0</ele><time>2026-03-29T13:42:47Z</time></trkpt><trkpt lat="42.95953514914799" lon="10.80646389204088"><ele>18.0</ele><time>2026-03-29T13:42:48Z</time></trkpt><trkpt lat="42.95948991691064" lon="10.806103862145223"><ele>17.5</ele><time>2026-03-29T13:42:48.999Z</time></trkpt><trkpt lat="42.959440719594774" lon="10.805742949120367"><ele>17.0</ele><time>2026-03-29T13:42:49.999Z</time></trkpt><trkpt lat="42.95938567600019" lon="10.805382055653835"><ele>18.0</ele><time>2026-03-29T13:42:50.999Z</time></trkpt><trkpt lat="42.95932752676668" lon="10.805020776375226"><ele>19.0</ele><time>2026-03-29T13:42:51.999Z</time></trkpt><trkpt lat="42.959262577609096" lon="10.804660605248554"><ele>19.0</ele><time>2026-03-29T13:42:52.999Z</time></trkpt><trkpt lat="42.959198531614206" lon="10.804299550815955"><ele>19.0</ele><time>2026-03-29T13:42:53.999Z</time></trkpt><trkpt lat="42.959141011294676" lon="10.803926295865555"><ele>19.0</ele><time>2026-03-29T13:42:54.999Z</time></trkpt><trkpt lat="42.95908293522008" lon="10.80355618539256"><ele>19.0</ele><time>2026-03-29T13:42:55.999Z</time></trkpt><trkpt lat="42.95902577662865" lon="10.80318931312176"><ele>19.0</ele><time>2026-03-29T13:42:56.999Z</time></trkpt><trkpt lat="42.958964777458256" lon="10.802824276384026"><ele>19.0</ele><time>2026-03-29T13:42:57.999Z</time></trkpt><trkpt lat="42.95890107551362" lon="10.802461033697837"><ele>19.0</ele><time>2026-03-29T13:42:58.999Z</time></trkpt><trkpt lat="42.9588371406532" lon="10.8021040767272"><ele>19.0</ele><time>2026-03-29T13:42:59.999Z</time></trkpt><trkpt lat="42.958776947556494" lon="10.801744264803109"><ele>19.0</ele><time>2026-03-29T13:43:00.999Z</time></trkpt><trkpt lat="42.958721673071025" lon="10.801412199064938"><ele>19.0</ele><time>2026-03-29T13:43:01.999Z</time></trkpt><trkpt lat="42.95867011922153" lon="10.801089789576915"><ele>19.0</ele><time>2026-03-29T13:43:02.999Z</time></trkpt><trkpt lat="42.958615713580336" lon="10.800763182902816"><ele>19.0</ele><time>2026-03-29T13:43:03.999Z</time></trkpt><trkpt lat="42.95856411124309" lon="10.80042736385764"><ele>19.5</ele><time>2026-03-29T13:43:04.999Z</time></trkpt><trkpt lat="42.95851051791613" lon="10.800087195922028"><ele>20.0</ele><time>2026-03-29T13:43:05.999Z</time></trkpt><trkpt lat="42.95845265855144" lon="10.799744952269837"><ele>20.0</ele><time>2026-03-29T13:43:06.999Z</time></trkpt><trkpt lat="42.95839735902824" lon="10.799398347734613"><ele>20.0</ele><time>2026-03-29T13:43:07.999Z</time></trkpt><trkpt lat="42.958336461312946" lon="10.79904688157165"><ele>20.0</ele><time>2026-03-29T13:43:08.999Z</time></trkpt><trkpt lat="42.95827425614269" lon="10.798689762063093"><ele>20.0</ele><time>2026-03-29T13:43:09.999Z</time></trkpt><trkpt lat="42.95821697933538" lon="10.798327023356249"><ele>21.0</ele><time>2026-03-29T13:43:10.999Z</time></trkpt><trkpt lat="42.95815809562394" lon="10.797961555107388"><ele>22.0</ele><time>2026-03-29T13:43:11.999Z</time></trkpt><trkpt lat="42.95809877764918" lon="10.797596535577162"><ele>23.5</ele><time>2026-03-29T13:43:12.999Z</time></trkpt><trkpt lat="42.958037043906465" lon="10.79722807873856"><ele>25.0</ele><time>2026-03-29T13:43:13.999Z</time></trkpt><trkpt lat="42.957975746302814" lon="10.796855001091426"><ele>26.0</ele><time>2026-03-29T13:43:14.999Z</time></trkpt><trkpt lat="42.95791427743975" lon="10.796483210672957"><ele>27.0</ele><time>2026-03-29T13:43:15.999Z</time></trkpt><trkpt lat="42.95785265034292" lon="10.796109887711491"><ele>28.5</ele><time>2026-03-29T13:43:16.999Z</time></trkpt><trkpt lat="42.957788980397154" lon="10.795735825181671"><ele>30.0</ele><time>2026-03-29T13:43:17.999Z</time></trkpt><trkpt lat="42.95772441696868" lon="10.79535972898338"><ele>31.0</ele><time>2026-03-29T13:43:18.999Z</time></trkpt><trkpt lat="42.9576648034718" lon="10.794982667981564"><ele>32.0</ele><time>2026-03-29T13:43:19.999Z</time></trkpt><trkpt lat="42.957605059132675" lon="10.794601005944992"><ele>32.0</ele><time>2026-03-29T13:43:20.999Z</time></trkpt><trkpt lat="42.95754806108169" lon="10.79422324200623"><ele>32.0</ele><time>2026-03-29T13:43:21.999Z</time></trkpt><trkpt lat="42.95748306529449" lon="10.793851790172477"><ele>32.5</ele><time>2026-03-29T13:43:22.999Z</time></trkpt><trkpt lat="42.95741989455269" lon="10.793473595708466"><ele>33.0</ele><time>2026-03-29T13:43:23.999Z</time></trkpt><trkpt lat="42.957357094853805" lon="10.793099351376519"><ele>33.0</ele><time>2026-03-29T13:43:24.999Z</time></trkpt><trkpt lat="42.95729628968336" lon="10.792728379501662"><ele>33.0</ele><time>2026-03-29T13:43:25.999Z</time></trkpt><trkpt lat="42.95723703162725" lon="10.792359779708605"><ele>33.5</ele><time>2026-03-29T13:43:26.999Z</time></trkpt><trkpt lat="42.95717603486782" lon="10.79199466008626"><ele>34.0</ele><time>2026-03-29T13:43:27.999Z</time></trkpt><trkpt lat="42.95711106582672" lon="10.791632828571693"><ele>34.5</ele><time>2026-03-29T13:43:28.999Z</time></trkpt><trkpt lat="42.957048930922454" lon="10.791268108127904"><ele>35.0</ele><time>2026-03-29T13:43:29.999Z</time></trkpt><trkpt lat="42.95697515159567" lon="10.790906165357388"><ele>35.5</ele><time>2026-03-29T13:43:30.999Z</time></trkpt><trkpt lat="42.95689979865877" lon="10.790552999332503"><ele>36.0</ele><time>2026-03-29T13:43:31.999Z</time></trkpt><trkpt lat="42.95681854169425" lon="10.790202344335906"><ele>37.0</ele><time>2026-03-29T13:43:32.999Z</time></trkpt><trkpt lat="42.95673478112691" lon="10.789852581146766"><ele>38.0</ele><time>2026-03-29T13:43:33.999Z</time></trkpt><trkpt lat="42.956642182703206" lon="10.789505005505848"><ele>39.5</ele><time>2026-03-29T13:43:34.999Z</time></trkpt><trkpt lat="42.95654093360358" lon="10.789163769837826"><ele>41.0</ele><time>2026-03-29T13:43:35.999Z</time></trkpt><trkpt lat="42.95643810100223" lon="10.788819693319605"><ele>40.0</ele><time>2026-03-29T13:43:36.999Z</time></trkpt><trkpt lat="42.956323074357606" lon="10.78848508893168"><ele>39.0</ele><time>2026-03-29T13:43:37.999Z</time></trkpt><trkpt lat="42.956206744494416" lon="10.788149688391018"><ele>39.0</ele><time>2026-03-29T13:43:38.999Z</time></trkpt><trkpt lat="42.95608199957772" lon="10.787823642925023"><ele>39.0</ele><time>2026-03-29T13:43:39.999Z</time></trkpt><trkpt lat="42.955955508567975" lon="10.787494795797151"><ele>35.5</ele><time>2026-03-29T13:43:40.999Z</time></trkpt><trkpt lat="42.955821320376764" lon="10.787168681596464"><ele>32.0</ele><time>2026-03-29T13:43:41.999Z</time></trkpt><trkpt lat="42.95568337969357" lon="10.78684574022154"><ele>34.5</ele><time>2026-03-29T13:43:42.999Z</time></trkpt><trkpt lat="42.95554402322898" lon="10.786525923471787"><ele>37.0</ele><time>2026-03-29T13:43:43.999Z</time></trkpt><trkpt lat="42.95540289429018" lon="10.78620771463695"><ele>37.5</ele><time>2026-03-29T13:43:44.999Z</time></trkpt><trkpt lat="42.95526499602379" lon="10.785891493651807"><ele>38.0</ele><time>2026-03-29T13:43:45.999Z</time></trkpt><trkpt lat="42.9551233701611" lon="10.785563144153931"><ele>37.0</ele><time>2026-03-29T13:43:46.999Z</time></trkpt><trkpt lat="42.95498179905026" lon="10.785249357707347"><ele>36.0</ele><time>2026-03-29T13:43:47.999Z</time></trkpt><trkpt lat="42.95484054314441" lon="10.784926843488574"><ele>35.5</ele><time>2026-03-29T13:43:49Z</time></trkpt><trkpt lat="42.954699582967095" lon="10.784610181434594"><ele>35.0</ele><time>2026-03-29T13:43:50Z</time></trkpt><trkpt lat="42.95456006701378" lon="10.784295056769727"><ele>36.5</ele><time>2026-03-29T13:43:51Z</time></trkpt><trkpt lat="42.9544178662706" lon="10.783980754385441"><ele>38.0</ele><time>2026-03-29T13:43:52Z</time></trkpt><trkpt lat="42.95427982422617" lon="10.783669876807025"><ele>38.0</ele><time>2026-03-29T13:43:53Z</time></trkpt><trkpt lat="42.95414400094414" lon="10.783355668770252"><ele>38.0</ele><time>2026-03-29T13:43:54Z</time></trkpt><trkpt lat="42.95400660870372" lon="10.78304673873321"><ele>38.0</ele><time>2026-03-29T13:43:55Z</time></trkpt><trkpt lat="42.95387073281959" lon="10.782736129761243"><ele>38.0</ele><time>2026-03-29T13:43:56Z</time></trkpt><trkpt lat="42.953734077435655" lon="10.782426584785393"><ele>39.0</ele><time>2026-03-29T13:43:57Z</time></trkpt><trkpt lat="42.95359571883223" lon="10.782121522014243"><ele>40.0</ele><time>2026-03-29T13:43:58Z</time></trkpt><trkpt lat="42.95345768028061" lon="10.781815989890113"><ele>39.0</ele><time>2026-03-29T13:43:59Z</time></trkpt><trkpt lat="42.95332133365843" lon="10.78150338933742"><ele>38.0</ele><time>2026-03-29T13:44:00Z</time></trkpt><trkpt lat="42.953182133136245" lon="10.781198359319404"><ele>38.5</ele><time>2026-03-29T13:44:01Z</time></trkpt><trkpt lat="42.95304676873411" lon="10.780890700791538"><ele>39.0</ele><time>2026-03-29T13:44:02Z</time></trkpt><trkpt lat="42.952907993407415" lon="10.780583055808654"><ele>39.0</ele><time>2026-03-29T13:44:03Z</time></trkpt><trkpt lat="42.95276709827527" lon="10.780277455782931"><ele>39.0</ele><time>2026-03-29T13:44:04Z</time></trkpt><trkpt lat="42.95263373572001" lon="10.779969578213949"><ele>39.5</ele><time>2026-03-29T13:44:05Z</time></trkpt><trkpt lat="42.952496469527006" lon="10.779665443119207"><ele>40.0</ele><time>2026-03-29T13:44:06Z</time></trkpt><trkpt lat="42.95235912416205" lon="10.779351854418765"><ele>40.5</ele><time>2026-03-29T13:44:07Z</time></trkpt><trkpt lat="42.95222434503854" lon="10.779046519131777"><ele>41.0</ele><time>2026-03-29T13:44:08Z</time></trkpt><trkpt lat="42.95209131304896" lon="10.778732879754875"><ele>42.5</ele><time>2026-03-29T13:44:09Z</time></trkpt><trkpt lat="42.95195504380999" lon="10.778425623326063"><ele>44.0</ele><time>2026-03-29T13:44:10Z</time></trkpt><trkpt lat="42.95181896577241" lon="10.778115754063496"><ele>44.5</ele><time>2026-03-29T13:44:11Z</time></trkpt><trkpt lat="42.95167926941085" lon="10.777816192181351"><ele>45.0</ele><time>2026-03-29T13:44:12Z</time></trkpt><trkpt lat="42.951541721689146" lon="10.777503600304039"><ele>46.5</ele><time>2026-03-29T13:44:13Z</time></trkpt><trkpt lat="42.95140767312282" lon="10.777188215247488"><ele>48.0</ele><time>2026-03-29T13:44:14Z</time></trkpt><trkpt lat="42.95127135459726" lon="10.776875930270881"><ele>48.5</ele><time>2026-03-29T13:44:15Z</time></trkpt><trkpt lat="42.95113765570942" lon="10.776564471225438"><ele>49.0</ele><time>2026-03-29T13:44:16Z</time></trkpt><trkpt lat="42.95100142699713" lon="10.776251853355774"><ele>49.0</ele><time>2026-03-29T13:44:17Z</time></trkpt><trkpt lat="42.9508664812619" lon="10.775936481632277"><ele>49.0</ele><time>2026-03-29T13:44:18Z</time></trkpt><trkpt lat="42.950731046992004" lon="10.775623033466887"><ele>49.0</ele><time>2026-03-29T13:44:19Z</time></trkpt><trkpt lat="42.950597000713024" lon="10.775305829815428"><ele>49.0</ele><time>2026-03-29T13:44:20Z</time></trkpt><trkpt lat="42.95046592039481" lon="10.774988322747516"><ele>53.0</ele><time>2026-03-29T13:44:21Z</time></trkpt><trkpt lat="42.9503347748631" lon="10.774669361860306"><ele>57.0</ele><time>2026-03-29T13:44:22Z</time></trkpt><trkpt lat="42.950206738331595" lon="10.774340663418544"><ele>55.5</ele><time>2026-03-29T13:44:23Z</time></trkpt><trkpt lat="42.95008215141743" lon="10.774008435281107"><ele>54.0</ele><time>2026-03-29T13:44:24Z</time></trkpt><trkpt lat="42.949959888053115" lon="10.773680547755655"><ele>54.5</ele><time>2026-03-29T13:44:25Z</time></trkpt><trkpt lat="42.94984261062633" lon="10.773345164495316"><ele>55.0</ele><time>2026-03-29T13:44:26Z</time></trkpt><trkpt lat="42.94973016125909" lon="10.773007726826924"><ele>56.5</ele><time>2026-03-29T13:44:27Z</time></trkpt><trkpt lat="42.94962156678352" lon="10.772669495066392"><ele>58.0</ele><time>2026-03-29T13:44:28Z</time></trkpt><trkpt lat="42.949520998784294" lon="10.77232368649041"><ele>58.0</ele><time>2026-03-29T13:44:29Z</time></trkpt><trkpt lat="42.94942403680247" lon="10.771977918254185"><ele>58.0</ele><time>2026-03-29T13:44:30Z</time></trkpt><trkpt lat="42.94932978516114" lon="10.771632719596523"><ele>57.5</ele><time>2026-03-29T13:44:31Z</time></trkpt><trkpt lat="42.94924155267539" lon="10.771284867814266"><ele>57.0</ele><time>2026-03-29T13:44:32Z</time></trkpt><trkpt lat="42.949162178771516" lon="10.770938287617273"><ele>57.0</ele><time>2026-03-29T13:44:33Z</time></trkpt><trkpt lat="42.94907970350643" lon="10.770589254743351"><ele>57.0</ele><time>2026-03-29T13:44:34Z</time></trkpt><trkpt lat="42.94900839850403" lon="10.770239244438208"><ele>58.5</ele><time>2026-03-29T13:44:35Z</time></trkpt><trkpt lat="42.94894258741741" lon="10.769891268885901"><ele>60.0</ele><time>2026-03-29T13:44:36Z</time></trkpt><trkpt lat="42.94888225585393" lon="10.769545478407238"><ele>62.0</ele><time>2026-03-29T13:44:37Z</time></trkpt><trkpt lat="42.94882553882905" lon="10.769193613337494"><ele>64.0</ele><time>2026-03-29T13:44:38Z</time></trkpt><trkpt lat="42.94877116738462" lon="10.768846424872974"><ele>67.0</ele><time>2026-03-29T13:44:39Z</time></trkpt><trkpt lat="42.948722695252044" lon="10.768497806277466"><ele>70.0</ele><time>2026-03-29T13:44:40Z</time></trkpt><trkpt lat="42.9486766436415" lon="10.768146979092549"><ele>70.0</ele><time>2026-03-29T13:44:41Z</time></trkpt><trkpt lat="42.94864061038432" lon="10.7677987418459"><ele>70.0</ele><time>2026-03-29T13:44:42Z</time></trkpt><trkpt lat="42.94860151984254" lon="10.767457360173298"><ele>73.5</ele><time>2026-03-29T13:44:43Z</time></trkpt><trkpt lat="42.9485720491947" lon="10.767103635399105"><ele>77.0</ele><time>2026-03-29T13:44:44Z</time></trkpt><trkpt lat="42.94854337604375" lon="10.766747813813838"><ele>80.0</ele><time>2026-03-29T13:44:45Z</time></trkpt><trkpt lat="42.948516404588574" lon="10.766399068334968"><ele>83.0</ele><time>2026-03-29T13:44:46Z</time></trkpt><trkpt lat="42.94848598239163" lon="10.766055912968055"><ele>84.0</ele><time>2026-03-29T13:44:47Z</time></trkpt><trkpt lat="42.948455943793604" lon="10.765709934099702"><ele>85.0</ele><time>2026-03-29T13:44:48Z</time></trkpt><trkpt lat="42.94842600133289" lon="10.765363429544932"><ele>82.0</ele><time>2026-03-29T13:44:49Z</time></trkpt><trkpt lat="42.9483950447796" lon="10.764993823552542"><ele>79.0</ele><time>2026-03-29T13:44:50Z</time></trkpt><trkpt lat="42.948365940012906" lon="10.76464148825472"><ele>72.5</ele><time>2026-03-29T13:44:51Z</time></trkpt><trkpt lat="42.948350168634555" lon="10.764249575863056"><ele>66.0</ele><time>2026-03-29T13:44:52Z</time></trkpt><trkpt lat="42.94832438845576" lon="10.763896076624695"><ele>66.0</ele><time>2026-03-29T13:44:52.999Z</time></trkpt><trkpt lat="42.94830504198894" lon="10.76354593360513"><ele>66.0</ele><time>2026-03-29T13:44:53.999Z</time></trkpt><trkpt lat="42.948278875306706" lon="10.763196314287702"><ele>65.0</ele><time>2026-03-29T13:44:54.999Z</time></trkpt><trkpt lat="42.948251242520826" lon="10.762853917374134"><ele>64.0</ele><time>2026-03-29T13:44:55.999Z</time></trkpt><trkpt lat="42.948222772027144" lon="10.762505293587916"><ele>67.5</ele><time>2026-03-29T13:44:56.999Z</time></trkpt><trkpt lat="42.94819663995518" lon="10.762160052146227"><ele>71.0</ele><time>2026-03-29T13:44:57.999Z</time></trkpt><trkpt lat="42.94817561021465" lon="10.76181473591236"><ele>74.0</ele><time>2026-03-29T13:44:58.999Z</time></trkpt><trkpt lat="42.948151256969226" lon="10.761469634689673"><ele>77.0</ele><time>2026-03-29T13:44:59.999Z</time></trkpt><trkpt lat="42.94812815991088" lon="10.761120690399927"><ele>76.0</ele><time>2026-03-29T13:45:00.999Z</time></trkpt><trkpt lat="42.9481034501264" lon="10.760774802177274"><ele>75.0</ele><time>2026-03-29T13:45:01.999Z</time></trkpt><trkpt lat="42.9480765075361" lon="10.76042557558488"><ele>70.0</ele><time>2026-03-29T13:45:02.999Z</time></trkpt><trkpt lat="42.94805149279743" lon="10.76007224790608"><ele>65.0</ele><time>2026-03-29T13:45:03.999Z</time></trkpt><trkpt lat="42.94802616308945" lon="10.759718729823296"><ele>65.0</ele><time>2026-03-29T13:45:04.999Z</time></trkpt><trkpt lat="42.947997901626195" lon="10.759370801897713"><ele>65.0</ele><time>2026-03-29T13:45:05.999Z</time></trkpt><trkpt lat="42.94796906029392" lon="10.759019053945895"><ele>63.0</ele><time>2026-03-29T13:45:06.999Z</time></trkpt><trkpt lat="42.947934410397366" lon="10.75866873982707"><ele>61.0</ele><time>2026-03-29T13:45:07.999Z</time></trkpt><trkpt lat="42.9478993316819" lon="10.758327480883796"><ele>61.0</ele><time>2026-03-29T13:45:08.999Z</time></trkpt><trkpt lat="42.94785986322698" lon="10.758015232978291"><ele>61.0</ele><time>2026-03-29T13:45:09.999Z</time></trkpt><trkpt lat="42.94781776386043" lon="10.757710654502365"><ele>64.0</ele><time>2026-03-29T13:45:10.999Z</time></trkpt><trkpt lat="42.94777141778636" lon="10.757404961159258"><ele>67.0</ele><time>2026-03-29T13:45:11.999Z</time></trkpt><trkpt lat="42.94772053202291" lon="10.757130910549122"><ele>70.0</ele><time>2026-03-29T13:45:12.999Z</time></trkpt><trkpt lat="42.9476667703905" lon="10.756864595786844"><ele>73.66666666666666</ele><time>2026-03-29T13:45:13.999Z</time></trkpt><trkpt lat="42.94761134010475" lon="10.75658842594891"><ele>77.33333333333333</ele><time>2026-03-29T13:45:14.999Z</time></trkpt><trkpt lat="42.94755640727572" lon="10.756311014125995"><ele>81.0</ele><time>2026-03-29T13:45:16.017Z</time></trkpt><trkpt lat="42.94750224425015" lon="10.756028153965167"><ele>89.33333333333334</ele><time>2026-03-29T13:45:17.016Z</time></trkpt><trkpt lat="42.94744467432478" lon="10.755748041060375"><ele>97.66666666666667</ele><time>2026-03-29T13:45:18.02Z</time></trkpt><trkpt lat="42.94739389047978" lon="10.755464842681269"><ele>106.0</ele><time>2026-03-29T13:45:19.015Z</time></trkpt><trkpt lat="42.947339154406194" lon="10.755178863596786"><ele>106.0</ele><time>2026-03-29T13:45:20.016Z</time></trkpt><trkpt lat="42.9473692" lon="10.7556152"><ele>106.0</ele><time>2026-03-29T13:45:23.189Z</time></trkpt><trkpt lat="42.945566363672675" lon="10.750573687265394"><ele>75.5</ele><time>2026-03-29T13:45:34.999Z</time></trkpt><trkpt lat="42.945442822688165" lon="10.750272543655072"><ele>45.0</ele><time>2026-03-29T13:45:35.999Z</time></trkpt><trkpt lat="42.94533268149776" lon="10.749958121855034"><ele>40.0</ele><time>2026-03-29T13:45:36.999Z</time></trkpt><trkpt lat="42.94521637151495" lon="10.749650748262857"><ele>35.0</ele><time>2026-03-29T13:45:37.999Z</time></trkpt><trkpt lat="42.945100103773036" lon="10.74935795324226"><ele>33.0</ele><time>2026-03-29T13:45:38.999Z</time></trkpt><trkpt lat="42.944984863234865" lon="10.749067002709442"><ele>31.0</ele><time>2026-03-29T13:45:39.999Z</time></trkpt><trkpt lat="42.9448761446899" lon="10.748785014789387"><ele>35.0</ele><time>2026-03-29T13:45:40.999Z</time></trkpt><trkpt lat="42.944762321590595" lon="10.748497124699062"><ele>39.0</ele><time>2026-03-29T13:45:41.999Z</time></trkpt><trkpt lat="42.94464995899782" lon="10.74821001720847"><ele>39.0</ele><time>2026-03-29T13:45:42.999Z</time></trkpt><trkpt lat="42.9445355015012" lon="10.747918038703151"><ele>39.0</ele><time>2026-03-29T13:45:43.999Z</time></trkpt><trkpt lat="42.94442011044185" lon="10.747618988959204"><ele>41.0</ele><time>2026-03-29T13:45:44.999Z</time></trkpt><trkpt lat="42.94429655995688" lon="10.747313716779416"><ele>43.0</ele><time>2026-03-29T13:45:45.999Z</time></trkpt><trkpt lat="42.944124299224256" lon="10.746988067835929"><ele>45.5</ele><time>2026-03-29T13:45:46.999Z</time></trkpt><trkpt lat="42.94399974737878" lon="10.74668976652588"><ele>48.0</ele><time>2026-03-29T13:45:47.999Z</time></trkpt><trkpt lat="42.943877119800476" lon="10.746383305601217"><ele>48.0</ele><time>2026-03-29T13:45:48.999Z</time></trkpt><trkpt lat="42.94375306122627" lon="10.7460786154125"><ele>48.0</ele><time>2026-03-29T13:45:49.999Z</time></trkpt><trkpt lat="42.94362816243698" lon="10.745772669443392"><ele>57.0</ele><time>2026-03-29T13:45:50.999Z</time></trkpt><trkpt lat="42.94350068427013" lon="10.745459232603883"><ele>66.0</ele><time>2026-03-29T13:45:52.019Z</time></trkpt><trkpt lat="42.943376458068066" lon="10.74515457655244"><ele>75.5</ele><time>2026-03-29T13:45:53.016Z</time></trkpt><trkpt lat="42.943250392831054" lon="10.744846817821399"><ele>85.0</ele><time>2026-03-29T13:45:54.016Z</time></trkpt><trkpt lat="42.943122717165295" lon="10.744538608345263"><ele>90.5</ele><time>2026-03-29T13:45:55.016Z</time></trkpt><trkpt lat="42.94299009270246" lon="10.744238733004261"><ele>96.0</ele><time>2026-03-29T13:45:56.019Z</time></trkpt><trkpt lat="42.942859978079234" lon="10.743946576851949"><ele>65.0</ele><time>2026-03-29T13:45:57.016Z</time></trkpt><trkpt lat="42.94241975531256" lon="10.740579273561705"><ele>65.0</ele><time>2026-03-29T13:46:06.999Z</time></trkpt><trkpt lat="42.942405555056474" lon="10.740293348195303"><ele>65.0</ele><time>2026-03-29T13:46:07.999Z</time></trkpt><trkpt lat="42.94241785235296" lon="10.739969703558883"><ele>65.0</ele><time>2026-03-29T13:46:08.999Z</time></trkpt><trkpt lat="42.9424092117682" lon="10.739670171549395"><ele>62.0</ele><time>2026-03-29T13:46:10Z</time></trkpt><trkpt lat="42.94241960197527" lon="10.739371059271809"><ele>59.0</ele><time>2026-03-29T13:46:11Z</time></trkpt><trkpt lat="42.94245496271243" lon="10.739057913863826"><ele>59.0</ele><time>2026-03-29T13:46:12Z</time></trkpt><trkpt lat="42.942484640799854" lon="10.738743484392206"><ele>59.0</ele><time>2026-03-29T13:46:13Z</time></trkpt><trkpt lat="42.94251963771696" lon="10.73843092666099"><ele>62.0</ele><time>2026-03-29T13:46:14Z</time></trkpt><trkpt lat="42.94257020553171" lon="10.738113631322475"><ele>65.0</ele><time>2026-03-29T13:46:15Z</time></trkpt><trkpt lat="42.94262373481862" lon="10.737793796259147"><ele>58.5</ele><time>2026-03-29T13:46:16Z</time></trkpt><trkpt lat="42.94268508503042" lon="10.737470562153788"><ele>52.0</ele><time>2026-03-29T13:46:17Z</time></trkpt><trkpt lat="42.94275504741866" lon="10.737156071453814"><ele>52.0</ele><time>2026-03-29T13:46:18Z</time></trkpt><trkpt lat="42.94283640040374" lon="10.736833346803854"><ele>52.0</ele><time>2026-03-29T13:46:19Z</time></trkpt><trkpt lat="42.94292281399891" lon="10.73654409248766"><ele>52.0</ele><time>2026-03-29T13:46:20Z</time></trkpt><trkpt lat="42.94301829331477" lon="10.736248150686828"><ele>52.0</ele><time>2026-03-29T13:46:21Z</time></trkpt><trkpt lat="42.94312558478861" lon="10.735945766066536"><ele>52.5</ele><time>2026-03-29T13:46:22Z</time></trkpt><trkpt lat="42.94323815356902" lon="10.73564385587707"><ele>53.0</ele><time>2026-03-29T13:46:23Z</time></trkpt><trkpt lat="42.943357838422806" lon="10.735344925514205"><ele>61.5</ele><time>2026-03-29T13:46:24Z</time></trkpt><trkpt lat="42.94348817421066" lon="10.735049074288549"><ele>70.0</ele><time>2026-03-29T13:46:25Z</time></trkpt><trkpt lat="42.94362005259796" lon="10.734775670044524"><ele>70.0</ele><time>2026-03-29T13:46:26Z</time></trkpt><trkpt lat="42.94375748799924" lon="10.734497084009716"><ele>70.0</ele><time>2026-03-29T13:46:27Z</time></trkpt><trkpt lat="42.94390158534618" lon="10.734219450671295"><ele>65.0</ele><time>2026-03-29T13:46:28Z</time></trkpt><trkpt lat="42.94405394179225" lon="10.733945830056244"><ele>60.0</ele><time>2026-03-29T13:46:29Z</time></trkpt><trkpt lat="42.94419815210668" lon="10.733667564111405"><ele>60.5</ele><time>2026-03-29T13:46:30Z</time></trkpt><trkpt lat="42.94435921311683" lon="10.733393324221753"><ele>61.0</ele><time>2026-03-29T13:46:31Z</time></trkpt><trkpt lat="42.94452458098187" lon="10.733125602892605"><ele>61.0</ele><time>2026-03-29T13:46:32Z</time></trkpt><trkpt lat="42.9446900305199" lon="10.732855092809906"><ele>61.0</ele><time>2026-03-29T13:46:33Z</time></trkpt><trkpt lat="42.94485757171597" lon="10.73258194452055"><ele>62.5</ele><time>2026-03-29T13:46:34Z</time></trkpt><trkpt lat="42.945023317284594" lon="10.732311170651212"><ele>64.0</ele><time>2026-03-29T13:46:35Z</time></trkpt><trkpt lat="42.94519219314431" lon="10.732037479355785"><ele>56.5</ele><time>2026-03-29T13:46:36Z</time></trkpt><trkpt lat="42.94536001799913" lon="10.731755494764394"><ele>49.0</ele><time>2026-03-29T13:46:37Z</time></trkpt><trkpt lat="42.9455288699629" lon="10.731473879308975"><ele>49.0</ele><time>2026-03-29T13:46:38Z</time></trkpt><trkpt lat="42.94569669253166" lon="10.731192318356488"><ele>49.0</ele><time>2026-03-29T13:46:39Z</time></trkpt><trkpt lat="42.94586163922492" lon="10.730911436812223"><ele>49.0</ele><time>2026-03-29T13:46:40Z</time></trkpt><trkpt lat="42.94601585444161" lon="10.730645571058062"><ele>49.0</ele><time>2026-03-29T13:46:41Z</time></trkpt><trkpt lat="42.94616446091933" lon="10.730377587365323"><ele>48.5</ele><time>2026-03-29T13:46:42Z</time></trkpt><trkpt lat="42.94631263483814" lon="10.730100193759437"><ele>48.0</ele><time>2026-03-29T13:46:43Z</time></trkpt><trkpt lat="42.946456837935244" lon="10.729819162050237"><ele>48.0</ele><time>2026-03-29T13:46:44Z</time></trkpt><trkpt lat="42.946598406139934" lon="10.729528642401087"><ele>48.0</ele><time>2026-03-29T13:46:45Z</time></trkpt><trkpt lat="42.946732964246976" lon="10.72923115627063"><ele>49.0</ele><time>2026-03-29T13:46:46Z</time></trkpt><trkpt lat="42.94686211923952" lon="10.728926054022285"><ele>50.0</ele><time>2026-03-29T13:46:47Z</time></trkpt><trkpt lat="42.94698655453026" lon="10.728612629395412"><ele>46.0</ele><time>2026-03-29T13:46:48Z</time></trkpt><trkpt lat="42.9471024502405" lon="10.728293045080397"><ele>42.0</ele><time>2026-03-29T13:46:49Z</time></trkpt><trkpt lat="42.947208102962584" lon="10.727962719291765"><ele>39.0</ele><time>2026-03-29T13:46:50Z</time></trkpt><trkpt lat="42.94730508755854" lon="10.727630225989456"><ele>36.0</ele><time>2026-03-29T13:46:51Z</time></trkpt><trkpt lat="42.94739599754798" lon="10.727293054631978"><ele>36.0</ele><time>2026-03-29T13:46:52Z</time></trkpt><trkpt lat="42.9474705715172" lon="10.72695122230567"><ele>36.0</ele><time>2026-03-29T13:46:53Z</time></trkpt><trkpt lat="42.947535970949986" lon="10.726609761886253"><ele>36.5</ele><time>2026-03-29T13:46:54Z</time></trkpt><trkpt lat="42.94759666973112" lon="10.726269995631533"><ele>37.0</ele><time>2026-03-29T13:46:55Z</time></trkpt><trkpt lat="42.9476489030917" lon="10.725940880292905"><ele>35.0</ele><time>2026-03-29T13:46:56Z</time></trkpt><trkpt lat="42.947694294453704" lon="10.72559825506232"><ele>33.0</ele><time>2026-03-29T13:46:57Z</time></trkpt><trkpt lat="42.947728562409054" lon="10.725252110762096"><ele>34.0</ele><time>2026-03-29T13:46:58Z</time></trkpt><trkpt lat="42.947753497564875" lon="10.724900506844774"><ele>35.0</ele><time>2026-03-29T13:46:59Z</time></trkpt><trkpt lat="42.94776605769622" lon="10.724548579657231"><ele>38.0</ele><time>2026-03-29T13:47:00Z</time></trkpt><trkpt lat="42.94776728031621" lon="10.724195694388989"><ele>41.0</ele><time>2026-03-29T13:47:01Z</time></trkpt><trkpt lat="42.9477640776237" lon="10.723839710886379"><ele>44.0</ele><time>2026-03-29T13:47:02Z</time></trkpt><trkpt lat="42.94775010478747" lon="10.723494139123758"><ele>47.0</ele><time>2026-03-29T13:47:03Z</time></trkpt><trkpt lat="42.94772629814888" lon="10.723154005794052"><ele>47.0</ele><time>2026-03-29T13:47:04Z</time></trkpt><trkpt lat="42.94769625473098" lon="10.722813588296638"><ele>47.0</ele><time>2026-03-29T13:47:05Z</time></trkpt><trkpt lat="42.94766744418533" lon="10.722467414718986"><ele>47.0</ele><time>2026-03-29T13:47:06Z</time></trkpt><trkpt lat="42.947640391088825" lon="10.722137581680629"><ele>47.0</ele><time>2026-03-29T13:47:07Z</time></trkpt><trkpt lat="42.94762673115584" lon="10.72178687783822"><ele>45.5</ele><time>2026-03-29T13:47:08Z</time></trkpt><trkpt lat="42.94759855026566" lon="10.721452716112164"><ele>44.0</ele><time>2026-03-29T13:47:09Z</time></trkpt><trkpt lat="42.9475646666445" lon="10.721112133018112"><ele>38.0</ele><time>2026-03-29T13:47:10Z</time></trkpt><trkpt lat="42.947529079527044" lon="10.720772782178162"><ele>32.0</ele><time>2026-03-29T13:47:11Z</time></trkpt><trkpt lat="42.94749366796526" lon="10.720424691032688"><ele>32.5</ele><time>2026-03-29T13:47:12Z</time></trkpt><trkpt lat="42.947453615317464" lon="10.720070708250903"><ele>33.0</ele><time>2026-03-29T13:47:13Z</time></trkpt><trkpt lat="42.94740868186062" lon="10.719706363912259"><ele>31.0</ele><time>2026-03-29T13:47:14Z</time></trkpt><trkpt lat="42.947364612061136" lon="10.719340073957515"><ele>29.0</ele><time>2026-03-29T13:47:14.999Z</time></trkpt><trkpt lat="42.94732317353742" lon="10.71898049231961"><ele>29.0</ele><time>2026-03-29T13:47:15.999Z</time></trkpt><trkpt lat="42.94728926023454" lon="10.718637958302125"><ele>29.0</ele><time>2026-03-29T13:47:16.999Z</time></trkpt><trkpt lat="42.94725863711808" lon="10.718290492177394"><ele>27.0</ele><time>2026-03-29T13:47:17.999Z</time></trkpt><trkpt lat="42.94722827807711" lon="10.717929488871292"><ele>25.0</ele><time>2026-03-29T13:47:18.999Z</time></trkpt><trkpt lat="42.94719826364757" lon="10.717563847989245"><ele>25.0</ele><time>2026-03-29T13:47:19.999Z</time></trkpt><trkpt lat="42.94716406355793" lon="10.717195245798962"><ele>25.0</ele><time>2026-03-29T13:47:20.999Z</time></trkpt><trkpt lat="42.947126740191166" lon="10.716820415298518"><ele>23.5</ele><time>2026-03-29T13:47:21.999Z</time></trkpt><trkpt lat="42.94708957322326" lon="10.716444149912073"><ele>22.0</ele><time>2026-03-29T13:47:22.999Z</time></trkpt><trkpt lat="42.94704933330531" lon="10.716065813511594"><ele>22.0</ele><time>2026-03-29T13:47:23.999Z</time></trkpt><trkpt lat="42.94701028238132" lon="10.715671331927506"><ele>22.0</ele><time>2026-03-29T13:47:24.999Z</time></trkpt><trkpt lat="42.94697517462517" lon="10.715281498768016"><ele>21.5</ele><time>2026-03-29T13:47:25.999Z</time></trkpt><trkpt lat="42.94693966047904" lon="10.71492284453947"><ele>21.0</ele><time>2026-03-29T13:47:26.999Z</time></trkpt><trkpt lat="42.946908566885156" lon="10.714575901288358"><ele>19.5</ele><time>2026-03-29T13:47:27.999Z</time></trkpt><trkpt lat="42.94687532879324" lon="10.714226267767655"><ele>18.0</ele><time>2026-03-29T13:47:28.999Z</time></trkpt><trkpt lat="42.94683792271791" lon="10.713867125754717"><ele>17.0</ele><time>2026-03-29T13:47:29.999Z</time></trkpt><trkpt lat="42.94679859271276" lon="10.713511254563192"><ele>16.0</ele><time>2026-03-29T13:47:30.999Z</time></trkpt><trkpt lat="42.94676265380325" lon="10.713146937440465"><ele>16.0</ele><time>2026-03-29T13:47:31.999Z</time></trkpt><trkpt lat="42.94672659904592" lon="10.712781891462022"><ele>16.0</ele><time>2026-03-29T13:47:32.999Z</time></trkpt><trkpt lat="42.94669453986495" lon="10.712411984153382"><ele>14.0</ele><time>2026-03-29T13:47:33.999Z</time></trkpt><trkpt lat="42.94666557913514" lon="10.712040122431734"><ele>12.0</ele><time>2026-03-29T13:47:34.999Z</time></trkpt><trkpt lat="42.94663544918061" lon="10.71167492343782"><ele>11.5</ele><time>2026-03-29T13:47:35.999Z</time></trkpt><trkpt lat="42.94661262480882" lon="10.7113095553379"><ele>11.0</ele><time>2026-03-29T13:47:36.999Z</time></trkpt><trkpt lat="42.946579834181854" lon="10.710940485151974"><ele>10.5</ele><time>2026-03-29T13:47:37.999Z</time></trkpt><trkpt lat="42.946540454205156" lon="10.710571228415178"><ele>10.0</ele><time>2026-03-29T13:47:38.999Z</time></trkpt><trkpt lat="42.94649722634223" lon="10.71020162007217"><ele>10.0</ele><time>2026-03-29T13:47:39.999Z</time></trkpt><trkpt lat="42.94646049001602" lon="10.709836248908498"><ele>10.0</ele><time>2026-03-29T13:47:40.999Z</time></trkpt><trkpt lat="42.946427278378046" lon="10.709467966719721"><ele>9.0</ele><time>2026-03-29T13:47:41.999Z</time></trkpt><trkpt lat="42.946390059356304" lon="10.709097532565929"><ele>8.0</ele><time>2026-03-29T13:47:42.999Z</time></trkpt><trkpt lat="42.94635054462667" lon="10.708735144850985"><ele>8.0</ele><time>2026-03-29T13:47:43.999Z</time></trkpt><trkpt lat="42.94632837007989" lon="10.708400171565993"><ele>8.0</ele><time>2026-03-29T13:47:44.999Z</time></trkpt><trkpt lat="42.94630687641019" lon="10.708054444907283"><ele>8.0</ele><time>2026-03-29T13:47:45.999Z</time></trkpt><trkpt lat="42.94629263773694" lon="10.7077089686847"><ele>8.0</ele><time>2026-03-29T13:47:46.999Z</time></trkpt><trkpt lat="42.94627877454758" lon="10.7073590679833"><ele>8.0</ele><time>2026-03-29T13:47:47.999Z</time></trkpt><trkpt lat="42.94627229929905" lon="10.707006248798423"><ele>8.0</ele><time>2026-03-29T13:47:48.999Z</time></trkpt><trkpt lat="42.94627247319306" lon="10.70665364063438"><ele>7.5</ele><time>2026-03-29T13:47:49.999Z</time></trkpt><trkpt lat="42.9462783582452" lon="10.706300942730241"><ele>7.0</ele><time>2026-03-29T13:47:50.999Z</time></trkpt><trkpt lat="42.946292532761476" lon="10.705943061469032"><ele>7.0</ele><time>2026-03-29T13:47:51.999Z</time></trkpt><trkpt lat="42.94631049842136" lon="10.705580805828056"><ele>7.0</ele><time>2026-03-29T13:47:52.999Z</time></trkpt><trkpt lat="42.94634029713041" lon="10.70522058803367"><ele>7.0</ele><time>2026-03-29T13:47:53.999Z</time></trkpt><trkpt lat="42.94638275703959" lon="10.704866795674208"><ele>7.0</ele><time>2026-03-29T13:47:54.999Z</time></trkpt><trkpt lat="42.946437345444146" lon="10.704510692561207"><ele>6.0</ele><time>2026-03-29T13:47:55.999Z</time></trkpt><trkpt lat="42.946507634728874" lon="10.704166766231547"><ele>5.0</ele><time>2026-03-29T13:47:56.999Z</time></trkpt><trkpt lat="42.946583785489786" lon="10.703829040566216"><ele>5.5</ele><time>2026-03-29T13:47:57.999Z</time></trkpt><trkpt lat="42.94666609857168" lon="10.703490589974635"><ele>6.0</ele><time>2026-03-29T13:47:58.999Z</time></trkpt><trkpt lat="42.94675795069947" lon="10.703153611951468"><ele>6.5</ele><time>2026-03-29T13:47:59.999Z</time></trkpt><trkpt lat="42.94685552812423" lon="10.70282760388645"><ele>7.0</ele><time>2026-03-29T13:48:00.999Z</time></trkpt><trkpt lat="42.94695959281317" lon="10.70250534936935"><ele>7.0</ele><time>2026-03-29T13:48:01.999Z</time></trkpt><trkpt lat="42.947073183851465" lon="10.702186601576246"><ele>7.0</ele><time>2026-03-29T13:48:02.999Z</time></trkpt><trkpt lat="42.947198823460006" lon="10.701873313291676"><ele>5.5</ele><time>2026-03-29T13:48:03.999Z</time></trkpt><trkpt lat="42.94732828551014" lon="10.701563376233175"><ele>4.0</ele><time>2026-03-29T13:48:04.999Z</time></trkpt><trkpt lat="42.94746951242997" lon="10.701262742269655"><ele>4.5</ele><time>2026-03-29T13:48:05.999Z</time></trkpt><trkpt lat="42.947617114663686" lon="10.70096445309543"><ele>5.0</ele><time>2026-03-29T13:48:06.999Z</time></trkpt><trkpt lat="42.947772364889154" lon="10.70067010950638"><ele>5.0</ele><time>2026-03-29T13:48:07.999Z</time></trkpt><trkpt lat="42.94793334008675" lon="10.700383224460765"><ele>5.0</ele><time>2026-03-29T13:48:08.999Z</time></trkpt><trkpt lat="42.94810038888249" lon="10.700097080114121"><ele>4.5</ele><time>2026-03-29T13:48:09.999Z</time></trkpt><trkpt lat="42.94826630849926" lon="10.699812720656617"><ele>4.0</ele><time>2026-03-29T13:48:10.999Z</time></trkpt><trkpt lat="42.948438239812134" lon="10.699533354364682"><ele>3.5</ele><time>2026-03-29T13:48:11.999Z</time></trkpt><trkpt lat="42.948611547447854" lon="10.699252482194053"><ele>3.0</ele><time>2026-03-29T13:48:12.999Z</time></trkpt><trkpt lat="42.948785608401934" lon="10.698972150392649"><ele>3.0</ele><time>2026-03-29T13:48:13.999Z</time></trkpt><trkpt lat="42.948959870286465" lon="10.698693725557023"><ele>3.0</ele><time>2026-03-29T13:48:14.999Z</time></trkpt><trkpt lat="42.949135756874036" lon="10.698409690127168"><ele>3.5</ele><time>2026-03-29T13:48:16Z</time></trkpt><trkpt lat="42.94931330090129" lon="10.698127448281923"><ele>4.0</ele><time>2026-03-29T13:48:17Z</time></trkpt><trkpt lat="42.949489081873395" lon="10.697846951102433"><ele>4.5</ele><time>2026-03-29T13:48:18Z</time></trkpt><trkpt lat="42.94966594688444" lon="10.697559673834524"><ele>5.0</ele><time>2026-03-29T13:48:19Z</time></trkpt><trkpt lat="42.94984231264113" lon="10.697273391789212"><ele>5.0</ele><time>2026-03-29T13:48:20Z</time></trkpt><trkpt lat="42.95003557504075" lon="10.697004753135571"><ele>5.0</ele><time>2026-03-29T13:48:21Z</time></trkpt><trkpt lat="42.95020643586737" lon="10.696706833579471"><ele>4.5</ele><time>2026-03-29T13:48:22Z</time></trkpt><trkpt lat="42.950383943468104" lon="10.696419495739425"><ele>4.0</ele><time>2026-03-29T13:48:23Z</time></trkpt><trkpt lat="42.95056160674072" lon="10.696131956657881"><ele>3.5</ele><time>2026-03-29T13:48:24Z</time></trkpt><trkpt lat="42.9507373424336" lon="10.695846849003585"><ele>3.0</ele><time>2026-03-29T13:48:25Z</time></trkpt><trkpt lat="42.95091553851361" lon="10.69555685125512"><ele>4.0</ele><time>2026-03-29T13:48:26Z</time></trkpt><trkpt lat="42.951091800863146" lon="10.69527254686167"><ele>5.0</ele><time>2026-03-29T13:48:27Z</time></trkpt><trkpt lat="42.951255808649954" lon="10.695010122630219"><ele>5.5</ele><time>2026-03-29T13:48:28Z</time></trkpt><trkpt lat="42.95141592713237" lon="10.694748583922125"><ele>6.0</ele><time>2026-03-29T13:48:29Z</time></trkpt><trkpt lat="42.95157905972501" lon="10.694478970715862"><ele>5.5</ele><time>2026-03-29T13:48:30Z</time></trkpt><trkpt lat="42.95174160962435" lon="10.694204409984286"><ele>5.0</ele><time>2026-03-29T13:48:31Z</time></trkpt><trkpt lat="42.95190644464071" lon="10.69392643443058"><ele>5.0</ele><time>2026-03-29T13:48:32Z</time></trkpt><trkpt lat="42.95207284502" lon="10.693653589673747"><ele>5.0</ele><time>2026-03-29T13:48:33Z</time></trkpt><trkpt lat="42.952241907987656" lon="10.693379177528563"><ele>5.5</ele><time>2026-03-29T13:48:34Z</time></trkpt><trkpt lat="42.952412312737515" lon="10.69310558052732"><ele>6.0</ele><time>2026-03-29T13:48:35Z</time></trkpt><trkpt lat="42.95258195868654" lon="10.692834109029318"><ele>6.5</ele><time>2026-03-29T13:48:36Z</time></trkpt><trkpt lat="42.95275126221094" lon="10.692563265542214"><ele>7.0</ele><time>2026-03-29T13:48:37Z</time></trkpt><trkpt lat="42.95292493542766" lon="10.69229926990458"><ele>7.0</ele><time>2026-03-29T13:48:38Z</time></trkpt><trkpt lat="42.95309865564136" lon="10.692037407895617"><ele>7.0</ele><time>2026-03-29T13:48:39Z</time></trkpt><trkpt lat="42.95326927850691" lon="10.691771451079441"><ele>7.0</ele><time>2026-03-29T13:48:40Z</time></trkpt><trkpt lat="42.95343996220046" lon="10.69150403938692"><ele>7.0</ele><time>2026-03-29T13:48:41Z</time></trkpt><trkpt lat="42.95360644972587" lon="10.691234688480119"><ele>7.5</ele><time>2026-03-29T13:48:42Z</time></trkpt><trkpt lat="42.953774847710804" lon="10.69096167767367"><ele>8.0</ele><time>2026-03-29T13:48:43Z</time></trkpt><trkpt lat="42.95394280591657" lon="10.690691230539377"><ele>8.0</ele><time>2026-03-29T13:48:44Z</time></trkpt><trkpt lat="42.95411067682888" lon="10.690420682235793"><ele>8.0</ele><time>2026-03-29T13:48:45Z</time></trkpt><trkpt lat="42.95427950187148" lon="10.690150361315172"><ele>9.0</ele><time>2026-03-29T13:48:46Z</time></trkpt><trkpt lat="42.95445042354384" lon="10.689879600402085"><ele>10.0</ele><time>2026-03-29T13:48:47Z</time></trkpt><trkpt lat="42.95461851512617" lon="10.689613020495853"><ele>9.0</ele><time>2026-03-29T13:48:48Z</time></trkpt><trkpt lat="42.95478702194991" lon="10.689343794933842"><ele>8.0</ele><time>2026-03-29T13:48:49Z</time></trkpt><trkpt lat="42.954955278839776" lon="10.689074125936918"><ele>8.5</ele><time>2026-03-29T13:48:50Z</time></trkpt><trkpt lat="42.95512250632493" lon="10.688805776302916"><ele>9.0</ele><time>2026-03-29T13:48:51Z</time></trkpt><trkpt lat="42.95528744629587" lon="10.688538381315546"><ele>9.0</ele><time>2026-03-29T13:48:52Z</time></trkpt><trkpt lat="42.95545401508769" lon="10.688272359636212"><ele>9.0</ele><time>2026-03-29T13:48:53Z</time></trkpt><trkpt lat="42.95562516715176" lon="10.688002469734636"><ele>9.0</ele><time>2026-03-29T13:48:54Z</time></trkpt><trkpt lat="42.95579199451133" lon="10.687736018041825"><ele>9.0</ele><time>2026-03-29T13:48:55Z</time></trkpt><trkpt lat="42.95596125455316" lon="10.68746417876268"><ele>9.5</ele><time>2026-03-29T13:48:56Z</time></trkpt><trkpt lat="42.95612429024527" lon="10.68719834369535"><ele>10.0</ele><time>2026-03-29T13:48:57Z</time></trkpt><trkpt lat="42.95629034718509" lon="10.68693442022467"><ele>10.5</ele><time>2026-03-29T13:48:58Z</time></trkpt><trkpt lat="42.956460830131086" lon="10.686667329136425"><ele>11.0</ele><time>2026-03-29T13:48:59Z</time></trkpt><trkpt lat="42.95663030648692" lon="10.686401885882837"><ele>11.5</ele><time>2026-03-29T13:49:00Z</time></trkpt><trkpt lat="42.95679776276807" lon="10.686136604561932"><ele>12.0</ele><time>2026-03-29T13:49:01Z</time></trkpt><trkpt lat="42.95696659006479" lon="10.685867196543004"><ele>11.0</ele><time>2026-03-29T13:49:02Z</time></trkpt><trkpt lat="42.95713452199063" lon="10.685600367484698"><ele>10.0</ele><time>2026-03-29T13:49:03Z</time></trkpt><trkpt lat="42.95730113116257" lon="10.685331528952977"><ele>10.0</ele><time>2026-03-29T13:49:04Z</time></trkpt><trkpt lat="42.957468754906756" lon="10.685062202040703"><ele>10.0</ele><time>2026-03-29T13:49:05Z</time></trkpt><trkpt lat="42.95763690092166" lon="10.684793450880926"><ele>10.0</ele><time>2026-03-29T13:49:06Z</time></trkpt><trkpt lat="42.957803994721836" lon="10.684523181476038"><ele>10.0</ele><time>2026-03-29T13:49:07Z</time></trkpt><trkpt lat="42.95797096002647" lon="10.684252584119577"><ele>10.0</ele><time>2026-03-29T13:49:08Z</time></trkpt><trkpt lat="42.958138436006685" lon="10.683984291314587"><ele>10.0</ele><time>2026-03-29T13:49:09Z</time></trkpt><trkpt lat="42.9583046894351" lon="10.68372002402889"><ele>9.5</ele><time>2026-03-29T13:49:10Z</time></trkpt><trkpt lat="42.95847287035387" lon="10.683451438007127"><ele>9.0</ele><time>2026-03-29T13:49:11Z</time></trkpt><trkpt lat="42.958640659224706" lon="10.683185220963932"><ele>9.0</ele><time>2026-03-29T13:49:12Z</time></trkpt><trkpt lat="42.95880671385575" lon="10.682918633496437"><ele>9.0</ele><time>2026-03-29T13:49:13Z</time></trkpt><trkpt lat="42.958974243129724" lon="10.682650727449586"><ele>9.0</ele><time>2026-03-29T13:49:14Z</time></trkpt><trkpt lat="42.95914198103213" lon="10.682384718476426"><ele>9.0</ele><time>2026-03-29T13:49:15Z</time></trkpt><trkpt lat="42.95930948990433" lon="10.682118060071284"><ele>8.5</ele><time>2026-03-29T13:49:16Z</time></trkpt><trkpt lat="42.95947351698861" lon="10.681849563663572"><ele>8.0</ele><time>2026-03-29T13:49:17Z</time></trkpt><trkpt lat="42.959637999613236" lon="10.681578772799663"><ele>8.0</ele><time>2026-03-29T13:49:18Z</time></trkpt><trkpt lat="42.959805767563644" lon="10.681307710706397"><ele>8.0</ele><time>2026-03-29T13:49:19Z</time></trkpt><trkpt lat="42.95997538831516" lon="10.681037582530774"><ele>7.5</ele><time>2026-03-29T13:49:19.999Z</time></trkpt><trkpt lat="42.96014278042755" lon="10.680771034060543"><ele>7.0</ele><time>2026-03-29T13:49:20.999Z</time></trkpt><trkpt lat="42.9603124418475" lon="10.680500761512564"><ele>7.0</ele><time>2026-03-29T13:49:21.999Z</time></trkpt><trkpt lat="42.96048138680374" lon="10.680230320637133"><ele>7.0</ele><time>2026-03-29T13:49:22.999Z</time></trkpt><trkpt lat="42.96065062961197" lon="10.679959865072973"><ele>7.0</ele><time>2026-03-29T13:49:23.999Z</time></trkpt><trkpt lat="42.96082232820394" lon="10.679684717996663"><ele>7.0</ele><time>2026-03-29T13:49:24.999Z</time></trkpt><trkpt lat="42.96099471301129" lon="10.679411417336066"><ele>6.0</ele><time>2026-03-29T13:49:25.999Z</time></trkpt><trkpt lat="42.96116586095463" lon="10.67913501314224"><ele>5.0</ele><time>2026-03-29T13:49:26.999Z</time></trkpt><trkpt lat="42.96133876214845" lon="10.678859628863993"><ele>5.0</ele><time>2026-03-29T13:49:27.999Z</time></trkpt><trkpt lat="42.961511443804135" lon="10.678583835176296"><ele>5.0</ele><time>2026-03-29T13:49:28.999Z</time></trkpt><trkpt lat="42.961685528832106" lon="10.678308701207493"><ele>5.0</ele><time>2026-03-29T13:49:29.999Z</time></trkpt><trkpt lat="42.96185644717466" lon="10.67803038675092"><ele>5.0</ele><time>2026-03-29T13:49:30.999Z</time></trkpt><trkpt lat="42.96202740737534" lon="10.67775431422109"><ele>5.0</ele><time>2026-03-29T13:49:31.999Z</time></trkpt><trkpt lat="42.96220171137545" lon="10.677476223972699"><ele>5.0</ele><time>2026-03-29T13:49:32.999Z</time></trkpt><trkpt lat="42.96237625228788" lon="10.67720136147883"><ele>5.5</ele><time>2026-03-29T13:49:33.999Z</time></trkpt><trkpt lat="42.962552484800305" lon="10.676923193545795"><ele>6.0</ele><time>2026-03-29T13:49:34.999Z</time></trkpt><trkpt lat="42.96272816988107" lon="10.676643916382435"><ele>6.0</ele><time>2026-03-29T13:49:35.999Z</time></trkpt><trkpt lat="42.96290411575339" lon="10.676365487096845"><ele>6.0</ele><time>2026-03-29T13:49:36.999Z</time></trkpt><trkpt lat="42.96307945153183" lon="10.676088076906016"><ele>5.5</ele><time>2026-03-29T13:49:37.999Z</time></trkpt><trkpt lat="42.963260821048664" lon="10.675812750108518"><ele>5.0</ele><time>2026-03-29T13:49:38.999Z</time></trkpt><trkpt lat="42.96344321232306" lon="10.675542149277666"><ele>5.0</ele><time>2026-03-29T13:49:39.999Z</time></trkpt><trkpt lat="42.963630219762464" lon="10.675277117746498"><ele>5.0</ele><time>2026-03-29T13:49:40.999Z</time></trkpt><trkpt lat="42.963818808604266" lon="10.675017162385243"><ele>4.5</ele><time>2026-03-29T13:49:41.999Z</time></trkpt><trkpt lat="42.96400989048533" lon="10.674760713376072"><ele>4.0</ele><time>2026-03-29T13:49:42.999Z</time></trkpt><trkpt lat="42.964202429810555" lon="10.674508082837404"><ele>4.0</ele><time>2026-03-29T13:49:43.999Z</time></trkpt><trkpt lat="42.964392789213484" lon="10.674261589845429"><ele>4.0</ele><time>2026-03-29T13:49:44.999Z</time></trkpt><trkpt lat="42.964585426005996" lon="10.674017466729042"><ele>4.0</ele><time>2026-03-29T13:49:45.999Z</time></trkpt><trkpt lat="42.96478078501928" lon="10.67378005041738"><ele>4.0</ele><time>2026-03-29T13:49:46.999Z</time></trkpt><trkpt lat="42.96497826068113" lon="10.67354677271233"><ele>4.5</ele><time>2026-03-29T13:49:47.999Z</time></trkpt><trkpt lat="42.965175125657204" lon="10.673321778624759"><ele>5.0</ele><time>2026-03-29T13:49:48.999Z</time></trkpt><trkpt lat="42.965373049805585" lon="10.673102690999059"><ele>5.0</ele><time>2026-03-29T13:49:49.999Z</time></trkpt><trkpt lat="42.96557409097383" lon="10.672885583067428"><ele>5.0</ele><time>2026-03-29T13:49:50.999Z</time></trkpt><trkpt lat="42.96577313695509" lon="10.672672117520339"><ele>5.5</ele><time>2026-03-29T13:49:51.999Z</time></trkpt><trkpt lat="42.965975613438374" lon="10.672458857279018"><ele>6.0</ele><time>2026-03-29T13:49:52.999Z</time></trkpt><trkpt lat="42.966173917803694" lon="10.672245485260095"><ele>6.0</ele><time>2026-03-29T13:49:53.999Z</time></trkpt><trkpt lat="42.966374871715495" lon="10.672035594237554"><ele>6.0</ele><time>2026-03-29T13:49:54.999Z</time></trkpt><trkpt lat="42.96657878799771" lon="10.671825425185904"><ele>6.5</ele><time>2026-03-29T13:49:55.999Z</time></trkpt><trkpt lat="42.96678738465596" lon="10.671614498666171"><ele>7.0</ele><time>2026-03-29T13:49:56.999Z</time></trkpt><trkpt lat="42.96699129529479" lon="10.671404003672485"><ele>7.0</ele><time>2026-03-29T13:49:57.999Z</time></trkpt><trkpt lat="42.96719290498518" lon="10.67119265170674"><ele>7.0</ele><time>2026-03-29T13:49:58.999Z</time></trkpt><trkpt lat="42.96739482943163" lon="10.67097914759503"><ele>6.0</ele><time>2026-03-29T13:49:59.999Z</time></trkpt><trkpt lat="42.9675975841344" lon="10.6707663554683"><ele>5.0</ele><time>2026-03-29T13:50:00.999Z</time></trkpt><trkpt lat="42.96780137718966" lon="10.670552488344992"><ele>5.0</ele><time>2026-03-29T13:50:01.999Z</time></trkpt><trkpt lat="42.96800439055711" lon="10.670336927653901"><ele>5.0</ele><time>2026-03-29T13:50:02.999Z</time></trkpt><trkpt lat="42.9682109281687" lon="10.670123557672383"><ele>7.0</ele><time>2026-03-29T13:50:03.999Z</time></trkpt><trkpt lat="42.96841549474903" lon="10.66990666459787"><ele>9.0</ele><time>2026-03-29T13:50:04.999Z</time></trkpt><trkpt lat="42.96862256528275" lon="10.669691893483751"><ele>9.0</ele><time>2026-03-29T13:50:05.999Z</time></trkpt><trkpt lat="42.96882929387474" lon="10.6694780416396"><ele>9.0</ele><time>2026-03-29T13:50:06.999Z</time></trkpt><trkpt lat="42.96903565072098" lon="10.66926444753546"><ele>9.0</ele><time>2026-03-29T13:50:07.999Z</time></trkpt><trkpt lat="42.969240319181644" lon="10.669046941507256"><ele>9.0</ele><time>2026-03-29T13:50:08.999Z</time></trkpt><trkpt lat="42.96944301511388" lon="10.668823940967108"><ele>9.5</ele><time>2026-03-29T13:50:09.999Z</time></trkpt><trkpt lat="42.96963986844808" lon="10.668593841134555"><ele>10.0</ele><time>2026-03-29T13:50:10.999Z</time></trkpt><trkpt lat="42.969834119981975" lon="10.668358649007427"><ele>10.0</ele><time>2026-03-29T13:50:11.999Z</time></trkpt><trkpt lat="42.97001624781477" lon="10.668129615023009"><ele>10.0</ele><time>2026-03-29T13:50:12.999Z</time></trkpt><trkpt lat="42.970188570525316" lon="10.667914738833998"><ele>10.0</ele><time>2026-03-29T13:50:13.999Z</time></trkpt><trkpt lat="42.97035593239008" lon="10.667698406092303"><ele>10.0</ele><time>2026-03-29T13:50:14.999Z</time></trkpt><trkpt lat="42.970524086162655" lon="10.66746837670783"><ele>10.0</ele><time>2026-03-29T13:50:15.999Z</time></trkpt><trkpt lat="42.97068873315942" lon="10.667235165140012"><ele>10.0</ele><time>2026-03-29T13:50:16.999Z</time></trkpt><trkpt lat="42.97084768496672" lon="10.666991389780703"><ele>10.0</ele><time>2026-03-29T13:50:17.999Z</time></trkpt><trkpt lat="42.97100282792262" lon="10.66674060571292"><ele>10.0</ele><time>2026-03-29T13:50:18.999Z</time></trkpt><trkpt lat="42.971152569644964" lon="10.666487406855051"><ele>10.0</ele><time>2026-03-29T13:50:19.999Z</time></trkpt><trkpt lat="42.97130123076954" lon="10.666230752967994"><ele>10.0</ele><time>2026-03-29T13:50:20.999Z</time></trkpt><trkpt lat="42.97144732060505" lon="10.665970265063704"><ele>9.5</ele><time>2026-03-29T13:50:22Z</time></trkpt><trkpt lat="42.97158998142231" lon="10.665703773924811"><ele>9.0</ele><time>2026-03-29T13:50:23Z</time></trkpt><trkpt lat="42.9717300088025" lon="10.665429266991925"><ele>8.5</ele><time>2026-03-29T13:50:24Z</time></trkpt><trkpt lat="42.9718633062348" lon="10.66515292780421"><ele>8.0</ele><time>2026-03-29T13:50:25Z</time></trkpt><trkpt lat="42.9719939387746" lon="10.66487018138067"><ele>8.0</ele><time>2026-03-29T13:50:26Z</time></trkpt><trkpt lat="42.97211806615888" lon="10.664578832990133"><ele>8.0</ele><time>2026-03-29T13:50:27Z</time></trkpt><trkpt lat="42.97223792239324" lon="10.66428123391524"><ele>8.5</ele><time>2026-03-29T13:50:28Z</time></trkpt><trkpt lat="42.97235685060939" lon="10.663979308241816"><ele>9.0</ele><time>2026-03-29T13:50:29Z</time></trkpt><trkpt lat="42.97247220386791" lon="10.663677872139978"><ele>8.0</ele><time>2026-03-29T13:50:30Z</time></trkpt><trkpt lat="42.97258603356898" lon="10.663368919951235"><ele>7.0</ele><time>2026-03-29T13:50:31Z</time></trkpt><trkpt lat="42.972695229673896" lon="10.663058647487542"><ele>7.5</ele><time>2026-03-29T13:50:32Z</time></trkpt><trkpt lat="42.97280728147726" lon="10.662744115626683"><ele>8.0</ele><time>2026-03-29T13:50:33Z</time></trkpt><trkpt lat="42.97291937489959" lon="10.662429990035548"><ele>8.0</ele><time>2026-03-29T13:50:34Z</time></trkpt><trkpt lat="42.97302929992394" lon="10.66211620071716"><ele>8.0</ele><time>2026-03-29T13:50:35Z</time></trkpt><trkpt lat="42.97313915908708" lon="10.661798238104685"><ele>7.5</ele><time>2026-03-29T13:50:36Z</time></trkpt><trkpt lat="42.97324762385204" lon="10.661483188253117"><ele>7.0</ele><time>2026-03-29T13:50:37Z</time></trkpt><trkpt lat="42.97335664476658" lon="10.661162430966701"><ele>7.0</ele><time>2026-03-29T13:50:38Z</time></trkpt><trkpt lat="42.973466770611864" lon="10.660849020006353"><ele>7.0</ele><time>2026-03-29T13:50:39Z</time></trkpt><trkpt lat="42.973576506010694" lon="10.660534415782092"><ele>7.0</ele><time>2026-03-29T13:50:40Z</time></trkpt><trkpt lat="42.9736858499893" lon="10.660221621715406"><ele>7.0</ele><time>2026-03-29T13:50:41Z</time></trkpt><trkpt lat="42.9737973461273" lon="10.659903095869687"><ele>7.0</ele><time>2026-03-29T13:50:42Z</time></trkpt><trkpt lat="42.97390823293641" lon="10.659588412728048"><ele>7.0</ele><time>2026-03-29T13:50:43Z</time></trkpt><trkpt lat="42.97402237311828" lon="10.659271381336765"><ele>6.5</ele><time>2026-03-29T13:50:44Z</time></trkpt><trkpt lat="42.97413502087374" lon="10.658956792625332"><ele>6.0</ele><time>2026-03-29T13:50:45Z</time></trkpt><trkpt lat="42.97424961202199" lon="10.658638922312978"><ele>5.0</ele><time>2026-03-29T13:50:46Z</time></trkpt><trkpt lat="42.97436718578524" lon="10.658323973646102"><ele>4.0</ele><time>2026-03-29T13:50:47Z</time></trkpt><trkpt lat="42.97449089141787" lon="10.658013801083664"><ele>4.0</ele><time>2026-03-29T13:50:48Z</time></trkpt><trkpt lat="42.97461628187673" lon="10.657703693713104"><ele>4.0</ele><time>2026-03-29T13:50:49Z</time></trkpt><trkpt lat="42.97474416763665" lon="10.65739522814126"><ele>4.0</ele><time>2026-03-29T13:50:50Z</time></trkpt><trkpt lat="42.97487571797557" lon="10.657094360869728"><ele>4.0</ele><time>2026-03-29T13:50:51Z</time></trkpt><trkpt lat="42.97500832751703" lon="10.656793243534807"><ele>5.0</ele><time>2026-03-29T13:50:52Z</time></trkpt><trkpt lat="42.975143303627725" lon="10.656496092914685"><ele>6.0</ele><time>2026-03-29T13:50:53Z</time></trkpt><trkpt lat="42.97528386033075" lon="10.656204755726709"><ele>6.5</ele><time>2026-03-29T13:50:54Z</time></trkpt><trkpt lat="42.97542488505802" lon="10.65591441495869"><ele>7.0</ele><time>2026-03-29T13:50:55Z</time></trkpt><trkpt lat="42.97557054982025" lon="10.65563002985861"><ele>7.0</ele><time>2026-03-29T13:50:56Z</time></trkpt><trkpt lat="42.97571879939439" lon="10.655348715495961"><ele>7.0</ele><time>2026-03-29T13:50:57Z</time></trkpt><trkpt lat="42.97587083810621" lon="10.6550680263831"><ele>6.5</ele><time>2026-03-29T13:50:58Z</time></trkpt><trkpt lat="42.97602714996818" lon="10.654794214931783"><ele>6.0</ele><time>2026-03-29T13:50:59Z</time></trkpt><trkpt lat="42.97618317415048" lon="10.654522372202917"><ele>6.5</ele><time>2026-03-29T13:51:00Z</time></trkpt><trkpt lat="42.97633928624955" lon="10.654247901524302"><ele>7.0</ele><time>2026-03-29T13:51:01Z</time></trkpt><trkpt lat="42.97649489157325" lon="10.653976501127481"><ele>7.0</ele><time>2026-03-29T13:51:02Z</time></trkpt><trkpt lat="42.976654348840434" lon="10.653707886951894"><ele>7.0</ele><time>2026-03-29T13:51:03Z</time></trkpt><trkpt lat="42.9768172989081" lon="10.653442292520909"><ele>6.5</ele><time>2026-03-29T13:51:04Z</time></trkpt><trkpt lat="42.97698334362246" lon="10.653179139906955"><ele>6.0</ele><time>2026-03-29T13:51:05Z</time></trkpt><trkpt lat="42.97714887790671" lon="10.652916905008805"><ele>5.5</ele><time>2026-03-29T13:51:06Z</time></trkpt><trkpt lat="42.977308907498475" lon="10.652654744227329"><ele>5.0</ele><time>2026-03-29T13:51:07Z</time></trkpt><trkpt lat="42.97746943886904" lon="10.652389343661314"><ele>5.5</ele><time>2026-03-29T13:51:08Z</time></trkpt><trkpt lat="42.97763256304455" lon="10.652124067889687"><ele>6.0</ele><time>2026-03-29T13:51:09Z</time></trkpt><trkpt lat="42.97779402778874" lon="10.651859819858359"><ele>6.0</ele><time>2026-03-29T13:51:10Z</time></trkpt><trkpt lat="42.97795607781003" lon="10.65159736430242"><ele>6.0</ele><time>2026-03-29T13:51:11Z</time></trkpt><trkpt lat="42.978121143413496" lon="10.651334992146895"><ele>6.0</ele><time>2026-03-29T13:51:12Z</time></trkpt><trkpt lat="42.9782855501017" lon="10.651074520226384"><ele>6.0</ele><time>2026-03-29T13:51:13Z</time></trkpt><trkpt lat="42.978449224228285" lon="10.650812107771152"><ele>5.5</ele><time>2026-03-29T13:51:14Z</time></trkpt><trkpt lat="42.978611991009615" lon="10.650551492408209"><ele>5.0</ele><time>2026-03-29T13:51:15Z</time></trkpt><trkpt lat="42.97877657806018" lon="10.650287058004904"><ele>5.0</ele><time>2026-03-29T13:51:16Z</time></trkpt><trkpt lat="42.97893897862187" lon="10.650027273216903"><ele>5.0</ele><time>2026-03-29T13:51:17Z</time></trkpt><trkpt lat="42.979102169861015" lon="10.649766563520991"><ele>5.5</ele><time>2026-03-29T13:51:18Z</time></trkpt><trkpt lat="42.97926515140358" lon="10.649503394741448"><ele>6.0</ele><time>2026-03-29T13:51:19Z</time></trkpt><trkpt lat="42.97942795795878" lon="10.649241660560177"><ele>6.0</ele><time>2026-03-29T13:51:20Z</time></trkpt><trkpt lat="42.97959036306315" lon="10.648975688275408"><ele>6.0</ele><time>2026-03-29T13:51:21Z</time></trkpt><trkpt lat="42.97975198274816" lon="10.64871479641618"><ele>6.0</ele><time>2026-03-29T13:51:22Z</time></trkpt><trkpt lat="42.97991669540159" lon="10.64845125011132"><ele>6.0</ele><time>2026-03-29T13:51:23Z</time></trkpt><trkpt lat="42.980079155719764" lon="10.648189528266277"><ele>6.0</ele><time>2026-03-29T13:51:23.999Z</time></trkpt><trkpt lat="42.98024130978374" lon="10.647930100647404"><ele>6.0</ele><time>2026-03-29T13:51:24.999Z</time></trkpt><trkpt lat="42.980403123306715" lon="10.647671906706142"><ele>6.0</ele><time>2026-03-29T13:51:25.999Z</time></trkpt><trkpt lat="42.98056603036156" lon="10.647409941542206"><ele>6.0</ele><time>2026-03-29T13:51:26.999Z</time></trkpt><trkpt lat="42.98073145349061" lon="10.647154211900082"><ele>6.0</ele><time>2026-03-29T13:51:27.999Z</time></trkpt><trkpt lat="42.980894113984014" lon="10.64689053148632"><ele>6.0</ele><time>2026-03-29T13:51:28.999Z</time></trkpt><trkpt lat="42.981057333772576" lon="10.646629246714875"><ele>6.0</ele><time>2026-03-29T13:51:29.999Z</time></trkpt><trkpt lat="42.98121989959552" lon="10.646368338581123"><ele>6.0</ele><time>2026-03-29T13:51:30.999Z</time></trkpt><trkpt lat="42.981388111941364" lon="10.646103924010685"><ele>5.5</ele><time>2026-03-29T13:51:31.999Z</time></trkpt><trkpt lat="42.98155580855031" lon="10.645836502227636"><ele>5.0</ele><time>2026-03-29T13:51:32.999Z</time></trkpt><trkpt lat="42.98172491862045" lon="10.645565030299768"><ele>5.0</ele><time>2026-03-29T13:51:33.999Z</time></trkpt><trkpt lat="42.981894776141885" lon="10.645288865608665"><ele>5.0</ele><time>2026-03-29T13:51:34.999Z</time></trkpt><trkpt lat="42.98206096567756" lon="10.645013849110152"><ele>5.0</ele><time>2026-03-29T13:51:35.999Z</time></trkpt><trkpt lat="42.98222582315309" lon="10.644735943716963"><ele>5.0</ele><time>2026-03-29T13:51:36.999Z</time></trkpt><trkpt lat="42.982396258864725" lon="10.644456186759387"><ele>5.0</ele><time>2026-03-29T13:51:37.999Z</time></trkpt><trkpt lat="42.98257098647253" lon="10.644179240507441"><ele>5.0</ele><time>2026-03-29T13:51:38.999Z</time></trkpt><trkpt lat="42.98274568898793" lon="10.643899888714078"><ele>5.5</ele><time>2026-03-29T13:51:39.999Z</time></trkpt><trkpt lat="42.98292024642782" lon="10.643621403797164"><ele>6.0</ele><time>2026-03-29T13:51:40.999Z</time></trkpt><trkpt lat="42.98309664247669" lon="10.643342836358265"><ele>6.0</ele><time>2026-03-29T13:51:41.999Z</time></trkpt><trkpt lat="42.983275207561725" lon="10.64306022090248"><ele>6.0</ele><time>2026-03-29T13:51:42.999Z</time></trkpt><trkpt lat="42.98345212460973" lon="10.64277773641511"><ele>5.5</ele><time>2026-03-29T13:51:43.999Z</time></trkpt><trkpt lat="42.983624841195166" lon="10.642494482490061"><ele>5.0</ele><time>2026-03-29T13:51:44.999Z</time></trkpt><trkpt lat="42.98379265502897" lon="10.642220039606059"><ele>5.5</ele><time>2026-03-29T13:51:45.999Z</time></trkpt><trkpt lat="42.9839578176263" lon="10.641961651075974"><ele>6.0</ele><time>2026-03-29T13:51:46.999Z</time></trkpt><trkpt lat="42.98412201100461" lon="10.641695561643004"><ele>5.5</ele><time>2026-03-29T13:51:47.999Z</time></trkpt><trkpt lat="42.984286711428076" lon="10.641438194174148"><ele>5.0</ele><time>2026-03-29T13:51:48.999Z</time></trkpt><trkpt lat="42.984451554757406" lon="10.64117601286802"><ele>5.0</ele><time>2026-03-29T13:51:49.999Z</time></trkpt><trkpt lat="42.98461347689553" lon="10.640921016518199"><ele>5.0</ele><time>2026-03-29T13:51:50.999Z</time></trkpt><trkpt lat="42.98477345441065" lon="10.640662192302687"><ele>5.0</ele><time>2026-03-29T13:51:51.999Z</time></trkpt><trkpt lat="42.98493348127022" lon="10.640408358725292"><ele>5.0</ele><time>2026-03-29T13:51:52.999Z</time></trkpt><trkpt lat="42.985091172227406" lon="10.640155966867184"><ele>5.0</ele><time>2026-03-29T13:51:53.999Z</time></trkpt><trkpt lat="42.98524857641594" lon="10.639902412790427"><ele>5.0</ele><time>2026-03-29T13:51:54.999Z</time></trkpt><trkpt lat="42.98540596204986" lon="10.63964809522856"><ele>5.5</ele><time>2026-03-29T13:51:55.999Z</time></trkpt><trkpt lat="42.98556315297159" lon="10.639387785146209"><ele>6.0</ele><time>2026-03-29T13:51:56.999Z</time></trkpt><trkpt lat="42.985722739581384" lon="10.63913445934258"><ele>6.0</ele><time>2026-03-29T13:51:57.999Z</time></trkpt><trkpt lat="42.9858831022458" lon="10.638876388985611"><ele>6.0</ele><time>2026-03-29T13:51:58.999Z</time></trkpt><trkpt lat="42.98604588569889" lon="10.63861628425098"><ele>6.0</ele><time>2026-03-29T13:51:59.999Z</time></trkpt><trkpt lat="42.98620734297494" lon="10.638359241349502"><ele>6.0</ele><time>2026-03-29T13:52:00.999Z</time></trkpt><trkpt lat="42.98637265038086" lon="10.638098421848293"><ele>6.0</ele><time>2026-03-29T13:52:01.999Z</time></trkpt><trkpt lat="42.98653607185377" lon="10.637835256854785"><ele>6.0</ele><time>2026-03-29T13:52:02.999Z</time></trkpt><trkpt lat="42.98670162326169" lon="10.637565059405917"><ele>5.5</ele><time>2026-03-29T13:52:03.999Z</time></trkpt><trkpt lat="42.98686782384494" lon="10.637297095310446"><ele>5.0</ele><time>2026-03-29T13:52:04.999Z</time></trkpt><trkpt lat="42.987037593668525" lon="10.637024600612314"><ele>5.5</ele><time>2026-03-29T13:52:05.999Z</time></trkpt><trkpt lat="42.98719956003797" lon="10.636757870061269"><ele>6.0</ele><time>2026-03-29T13:52:06.999Z</time></trkpt><trkpt lat="42.98736453688886" lon="10.636485548655061"><ele>5.5</ele><time>2026-03-29T13:52:07.999Z</time></trkpt><trkpt lat="42.98753143166244" lon="10.63621548543698"><ele>5.0</ele><time>2026-03-29T13:52:08.999Z</time></trkpt><trkpt lat="42.987696989518234" lon="10.635951074765556"><ele>6.0</ele><time>2026-03-29T13:52:09.999Z</time></trkpt><trkpt lat="42.98786355646431" lon="10.635680904594302"><ele>7.0</ele><time>2026-03-29T13:52:10.999Z</time></trkpt><trkpt lat="42.98803122438701" lon="10.63541272828828"><ele>7.0</ele><time>2026-03-29T13:52:11.999Z</time></trkpt><trkpt lat="42.98819855987197" lon="10.635147033875523"><ele>7.0</ele><time>2026-03-29T13:52:12.999Z</time></trkpt><trkpt lat="42.98836532474725" lon="10.634878772912087"><ele>6.5</ele><time>2026-03-29T13:52:13.999Z</time></trkpt><trkpt lat="42.98853003929691" lon="10.63460629288864"><ele>6.0</ele><time>2026-03-29T13:52:14.999Z</time></trkpt><trkpt lat="42.98869738187964" lon="10.634338148209869"><ele>6.0</ele><time>2026-03-29T13:52:15.999Z</time></trkpt><trkpt lat="42.988865050414034" lon="10.634072077829725"><ele>6.0</ele><time>2026-03-29T13:52:16.999Z</time></trkpt><trkpt lat="42.98903229910547" lon="10.633807115117731"><ele>5.5</ele><time>2026-03-29T13:52:17.999Z</time></trkpt><trkpt lat="42.98920157574358" lon="10.633536473401392"><ele>5.0</ele><time>2026-03-29T13:52:18.999Z</time></trkpt><trkpt lat="42.98937026638526" lon="10.63326569074527"><ele>5.0</ele><time>2026-03-29T13:52:19.999Z</time></trkpt><trkpt lat="42.989536518615104" lon="10.63299758195544"><ele>5.0</ele><time>2026-03-29T13:52:20.999Z</time></trkpt><trkpt lat="42.989703961500204" lon="10.632725442470875"><ele>5.0</ele><time>2026-03-29T13:52:21.999Z</time></trkpt><trkpt lat="42.989870081612025" lon="10.632457657531406"><ele>5.0</ele><time>2026-03-29T13:52:22.999Z</time></trkpt><trkpt lat="42.99003699642583" lon="10.632188433945489"><ele>5.0</ele><time>2026-03-29T13:52:23.999Z</time></trkpt><trkpt lat="42.990201969726854" lon="10.631918391647936"><ele>5.0</ele><time>2026-03-29T13:52:24.999Z</time></trkpt><trkpt lat="42.99037111549755" lon="10.63165714717071"><ele>5.0</ele><time>2026-03-29T13:52:25.999Z</time></trkpt><trkpt lat="42.990535937115595" lon="10.631386865734628"><ele>5.0</ele><time>2026-03-29T13:52:26.999Z</time></trkpt><trkpt lat="42.990703141278175" lon="10.63111755547018"><ele>5.5</ele><time>2026-03-29T13:52:28Z</time></trkpt><trkpt lat="42.99087016778591" lon="10.630852640670554"><ele>6.0</ele><time>2026-03-29T13:52:29Z</time></trkpt><trkpt lat="42.991038144814034" lon="10.630584671025526"><ele>6.0</ele><time>2026-03-29T13:52:30Z</time></trkpt><trkpt lat="42.99120527450827" lon="10.630315642719946"><ele>6.0</ele><time>2026-03-29T13:52:31Z</time></trkpt><trkpt lat="42.99137121958861" lon="10.630045477048224"><ele>6.0</ele><time>2026-03-29T13:52:32Z</time></trkpt><trkpt lat="42.991537998794676" lon="10.62977642271724"><ele>6.0</ele><time>2026-03-29T13:52:33Z</time></trkpt><trkpt lat="42.991705302612054" lon="10.629508628327413"><ele>6.0</ele><time>2026-03-29T13:52:34Z</time></trkpt><trkpt lat="42.99187030640215" lon="10.629243115329261"><ele>6.0</ele><time>2026-03-29T13:52:35Z</time></trkpt><trkpt lat="42.99204032537402" lon="10.628975728524782"><ele>6.0</ele><time>2026-03-29T13:52:36Z</time></trkpt><trkpt lat="42.992207511854375" lon="10.628708248636736"><ele>6.0</ele><time>2026-03-29T13:52:37Z</time></trkpt><trkpt lat="42.99237421981755" lon="10.628440354428541"><ele>6.0</ele><time>2026-03-29T13:52:38Z</time></trkpt><trkpt lat="42.99254152412072" lon="10.628169988947773"><ele>6.0</ele><time>2026-03-29T13:52:39Z</time></trkpt><trkpt lat="42.992708240311956" lon="10.62789784409305"><ele>6.0</ele><time>2026-03-29T13:52:40Z</time></trkpt><trkpt lat="42.992873599503426" lon="10.62763135280763"><ele>6.0</ele><time>2026-03-29T13:52:41Z</time></trkpt><trkpt lat="42.99302803628428" lon="10.627387868339614"><ele>6.0</ele><time>2026-03-29T13:52:42Z</time></trkpt><trkpt lat="42.993183389732565" lon="10.627143090017247"><ele>6.0</ele><time>2026-03-29T13:52:43Z</time></trkpt><trkpt lat="42.99333710198027" lon="10.62689647504"><ele>6.0</ele><time>2026-03-29T13:52:44Z</time></trkpt><trkpt lat="42.99349415531814" lon="10.626647229968174"><ele>6.0</ele><time>2026-03-29T13:52:45Z</time></trkpt><trkpt lat="42.99364789711804" lon="10.626398911436143"><ele>6.0</ele><time>2026-03-29T13:52:46Z</time></trkpt><trkpt lat="42.99380409254736" lon="10.62614983500959"><ele>6.0</ele><time>2026-03-29T13:52:47Z</time></trkpt><trkpt lat="42.993956587365055" lon="10.625900769330235"><ele>6.0</ele><time>2026-03-29T13:52:48Z</time></trkpt><trkpt lat="42.99411187960322" lon="10.62565073501042"><ele>6.0</ele><time>2026-03-29T13:52:49Z</time></trkpt><trkpt lat="42.99426747974441" lon="10.62540219390293"><ele>6.5</ele><time>2026-03-29T13:52:50Z</time></trkpt><trkpt lat="42.994421158536" lon="10.625153050154925"><ele>7.0</ele><time>2026-03-29T13:52:51Z</time></trkpt><trkpt lat="42.994577498434595" lon="10.624906559756388"><ele>7.0</ele><time>2026-03-29T13:52:52Z</time></trkpt><trkpt lat="42.99473410073007" lon="10.624661280014978"><ele>7.0</ele><time>2026-03-29T13:52:53Z</time></trkpt><trkpt lat="42.99489405249588" lon="10.624414615848648"><ele>7.0</ele><time>2026-03-29T13:52:54Z</time></trkpt><trkpt lat="42.99505621272091" lon="10.624167361508599"><ele>7.0</ele><time>2026-03-29T13:52:55Z</time></trkpt><trkpt lat="42.99521808027111" lon="10.623923007421983"><ele>7.0</ele><time>2026-03-29T13:52:56Z</time></trkpt><trkpt lat="42.99537930311729" lon="10.623676900842689"><ele>7.0</ele><time>2026-03-29T13:52:57Z</time></trkpt><trkpt lat="42.99553409533942" lon="10.623439905896845"><ele>7.0</ele><time>2026-03-29T13:52:58Z</time></trkpt><trkpt lat="42.99567256889692" lon="10.623225050417057"><ele>7.0</ele><time>2026-03-29T13:52:59Z</time></trkpt><trkpt lat="42.995811323582124" lon="10.623006934561456"><ele>7.0</ele><time>2026-03-29T13:53:00Z</time></trkpt><trkpt lat="42.99595443813045" lon="10.622780310032654"><ele>7.0</ele><time>2026-03-29T13:53:01Z</time></trkpt><trkpt lat="42.99610218319253" lon="10.622549060225733"><ele>7.0</ele><time>2026-03-29T13:53:02Z</time></trkpt><trkpt lat="42.9962529778604" lon="10.622318368850772"><ele>7.0</ele><time>2026-03-29T13:53:03Z</time></trkpt><trkpt lat="42.99640665851053" lon="10.622085900425708"><ele>7.0</ele><time>2026-03-29T13:53:04Z</time></trkpt><trkpt lat="42.99656174026525" lon="10.621847646773315"><ele>5.5</ele><time>2026-03-29T13:53:05Z</time></trkpt><trkpt lat="42.99671651540189" lon="10.621606060377529"><ele>4.0</ele><time>2026-03-29T13:53:06Z</time></trkpt><trkpt lat="42.99687391468468" lon="10.621362649993154"><ele>5.5</ele><time>2026-03-29T13:53:07Z</time></trkpt><trkpt lat="42.99703415743748" lon="10.621118065006092"><ele>7.0</ele><time>2026-03-29T13:53:08Z</time></trkpt><trkpt lat="42.99718115232041" lon="10.620887439408381"><ele>7.0</ele><time>2026-03-29T13:53:09Z</time></trkpt><trkpt lat="42.99732052151586" lon="10.620668041863546"><ele>7.0</ele><time>2026-03-29T13:53:10Z</time></trkpt><trkpt lat="42.99746472400551" lon="10.620437251691001"><ele>7.0</ele><time>2026-03-29T13:53:11Z</time></trkpt><trkpt lat="42.997608300275665" lon="10.620201705886542"><ele>6.5</ele><time>2026-03-29T13:53:12Z</time></trkpt><trkpt lat="42.99775313164329" lon="10.61996523463877"><ele>6.0</ele><time>2026-03-29T13:53:13Z</time></trkpt><trkpt lat="42.99790181405354" lon="10.619730446379378"><ele>6.0</ele><time>2026-03-29T13:53:14Z</time></trkpt><trkpt lat="42.998044480545076" lon="10.619500392282733"><ele>6.0</ele><time>2026-03-29T13:53:15Z</time></trkpt><trkpt lat="42.998174148770104" lon="10.619293274355021"><ele>6.0</ele><time>2026-03-29T13:53:16Z</time></trkpt><trkpt lat="42.998303962659115" lon="10.619087013058166"><ele>6.333333333333334</ele><time>2026-03-29T13:53:17Z</time></trkpt><trkpt lat="42.9984358129324" lon="10.61887797143115"><ele>6.666666666666667</ele><time>2026-03-29T13:53:18Z</time></trkpt><trkpt lat="42.99856849688509" lon="10.61866397158658"><ele>7.0</ele><time>2026-03-29T13:53:19Z</time></trkpt><trkpt lat="42.998701552034824" lon="10.618443564991905"><ele>7.666666666666667</ele><time>2026-03-29T13:53:20Z</time></trkpt><trkpt lat="42.99883611995357" lon="10.61821914362917"><ele>8.333333333333334</ele><time>2026-03-29T13:53:21Z</time></trkpt><trkpt lat="42.998968591986106" lon="10.617992040044811"><ele>9.0</ele><time>2026-03-29T13:53:22Z</time></trkpt><trkpt lat="42.99910280619643" lon="10.617763930133348"><ele>7.666666666666667</ele><time>2026-03-29T13:53:23Z</time></trkpt><trkpt lat="42.99923739700521" lon="10.617535463729961"><ele>6.333333333333334</ele><time>2026-03-29T13:53:24Z</time></trkpt><trkpt lat="42.99937473493981" lon="10.617299549048814"><ele>5.0</ele><time>2026-03-29T13:53:25Z</time></trkpt><trkpt lat="42.99951181698875" lon="10.617060072988405"><ele>5.333333333333334</ele><time>2026-03-29T13:53:26Z</time></trkpt><trkpt lat="42.999634643842754" lon="10.616838706547599"><ele>5.666666666666667</ele><time>2026-03-29T13:53:27Z</time></trkpt><trkpt lat="42.999759005854614" lon="10.616623597728093"><ele>6.0</ele><time>2026-03-29T13:53:28Z</time></trkpt><trkpt lat="42.99988880286023" lon="10.616397018151225"><ele>6.0</ele><time>2026-03-29T13:53:29Z</time></trkpt><trkpt lat="43.00001748742559" lon="10.616168789885428"><ele>6.0</ele><time>2026-03-29T13:53:30Z</time></trkpt><trkpt lat="43.00015049468693" lon="10.615935213014303"><ele>6.0</ele><time>2026-03-29T13:53:31Z</time></trkpt><trkpt lat="43.00028373818672" lon="10.615699778895312"><ele>6.333333333333334</ele><time>2026-03-29T13:53:31.999Z</time></trkpt><trkpt lat="43.00041665992699" lon="10.615462077593234"><ele>6.666666666666667</ele><time>2026-03-29T13:53:32.999Z</time></trkpt><trkpt lat="43.0005512926229" lon="10.615221625170156"><ele>7.0</ele><time>2026-03-29T13:53:33.999Z</time></trkpt><trkpt lat="43.000688294007404" lon="10.614976540422191"><ele>7.0</ele><time>2026-03-29T13:53:34.999Z</time></trkpt><trkpt lat="43.00082905903047" lon="10.61472907470843"><ele>7.0</ele><time>2026-03-29T13:53:35.999Z</time></trkpt><trkpt lat="43.00096021387711" lon="10.614488715676027"><ele>7.0</ele><time>2026-03-29T13:53:36.999Z</time></trkpt><trkpt lat="43.001082188384785" lon="10.61427646583632"><ele>6.666666666666667</ele><time>2026-03-29T13:53:37.999Z</time></trkpt><trkpt lat="43.00120302086085" lon="10.61406538702944"><ele>6.333333333333334</ele><time>2026-03-29T13:53:38.999Z</time></trkpt><trkpt lat="43.00132627894338" lon="10.613847911393401"><ele>6.0</ele><time>2026-03-29T13:53:39.999Z</time></trkpt><trkpt lat="43.00145210451232" lon="10.613628949053776"><ele>6.0</ele><time>2026-03-29T13:53:40.999Z</time></trkpt><trkpt lat="43.001574565406905" lon="10.613409097963352"><ele>6.0</ele><time>2026-03-29T13:53:41.999Z</time></trkpt><trkpt lat="43.00170051820604" lon="10.613183837861662"><ele>6.0</ele><time>2026-03-29T13:53:42.999Z</time></trkpt><trkpt lat="43.001825948201315" lon="10.61295732527126"><ele>6.0</ele><time>2026-03-29T13:53:43.999Z</time></trkpt><trkpt lat="43.00194068897681" lon="10.612754695935697"><ele>6.0</ele><time>2026-03-29T13:53:44.999Z</time></trkpt><trkpt lat="43.00204397988859" lon="10.612566786215798"><ele>6.0</ele><time>2026-03-29T13:53:45.999Z</time></trkpt><trkpt lat="43.00214711936967" lon="10.612387384386155"><ele>6.0</ele><time>2026-03-29T13:53:46.999Z</time></trkpt><trkpt lat="43.002248742903234" lon="10.612213198912725"><ele>6.0</ele><time>2026-03-29T13:53:47.999Z</time></trkpt><trkpt lat="43.00234195970935" lon="10.612051890244146"><ele>6.0</ele><time>2026-03-29T13:53:48.999Z</time></trkpt><trkpt lat="43.00243009681981" lon="10.611894891608362"><ele>6.0</ele><time>2026-03-29T13:53:49.999Z</time></trkpt><trkpt lat="43.002515941677345" lon="10.611751762227081"><ele>6.0</ele><time>2026-03-29T13:53:50.999Z</time></trkpt><trkpt lat="43.00260497823217" lon="10.611606570786433"><ele>6.0</ele><time>2026-03-29T13:53:51.999Z</time></trkpt><trkpt lat="43.00268989141986" lon="10.611477758482492"><ele>6.0</ele><time>2026-03-29T13:53:52.999Z</time></trkpt><trkpt lat="43.00277382150074" lon="10.611372947855482"><ele>6.0</ele><time>2026-03-29T13:53:53.999Z</time></trkpt><trkpt lat="43.00284784969509" lon="10.611277474695397"><ele>6.0</ele><time>2026-03-29T13:53:54.999Z</time></trkpt><trkpt lat="43.00291698088647" lon="10.611214797186953"><ele>6.0</ele><time>2026-03-29T13:53:55.999Z</time></trkpt><trkpt lat="43.002980095323586" lon="10.611197062290021"><ele>6.0</ele><time>2026-03-29T13:53:56.999Z</time></trkpt><trkpt lat="43.00310223334904" lon="10.611335177199585"><ele>6.0</ele><time>2026-03-29T13:53:59.999Z</time></trkpt><trkpt lat="43.003184436458525" lon="10.611412599664037"><ele>6.0</ele><time>2026-03-29T13:54:01.999Z</time></trkpt><trkpt lat="43.003245263682246" lon="10.611469888241713"><ele>6.0</ele><time>2026-03-29T13:54:03.999Z</time></trkpt><trkpt lat="43.00341428961774" lon="10.611396944310572"><ele>6.0</ele><time>2026-03-29T13:57:59.999Z</time></trkpt><trkpt lat="43.003468021600234" lon="10.611350228227078"><ele>6.0</ele><time>2026-03-29T13:58:19.999Z</time></trkpt><trkpt lat="43.0034750314317" lon="10.611250004401915"><ele>6.0</ele><time>2026-03-29T13:58:26.999Z</time></trkpt><trkpt lat="43.00343792881591" lon="10.61132406335858"><ele>5.5</ele><time>2026-03-29T13:59:10Z</time></trkpt><trkpt lat="43.00353766661113" lon="10.611375273400173"><ele>5.0</ele><time>2026-03-29T13:59:16Z</time></trkpt><trkpt lat="43.00386434712404" lon="10.611633565598902"><ele>5.0</ele><time>2026-03-29T13:59:43Z</time></trkpt><trkpt lat="43.003857967118044" lon="10.61179725372525"><ele>5.0</ele><time>2026-03-29T13:59:45Z</time></trkpt><trkpt lat="43.00374657892188" lon="10.611622407022114"><ele>5.0</ele><time>2026-03-29T13:59:48Z</time></trkpt><trkpt lat="43.003760270220184" lon="10.611867763962024"><ele>5.0</ele><time>2026-03-29T13:59:49Z</time></trkpt><trkpt lat="43.00354779807535" lon="10.611511540417743"><ele>5.0</ele><time>2026-03-29T13:59:50Z</time></trkpt><trkpt lat="43.00358031778661" lon="10.611284102593448"><ele>5.0</ele><time>2026-03-29T13:59:53.999Z</time></trkpt><trkpt lat="43.00348200196418" lon="10.611203460805479"><ele>5.0</ele><time>2026-03-29T13:59:55.999Z</time></trkpt><trkpt lat="43.00343491341665" lon="10.611268619541868"><ele>5.0</ele><time>2026-03-29T14:00:01.999Z</time></trkpt><trkpt lat="43.00339479166194" lon="10.611338484129279"><ele>5.0</ele><time>2026-03-29T14:00:05.999Z</time></trkpt><trkpt lat="43.003418829705126" lon="10.611423143038783"><ele>5.0</ele><time>2026-03-29T14:00:12.999Z</time></trkpt><trkpt lat="43.00334862486354" lon="10.611371213083332"><ele>5.0</ele><time>2026-03-29T14:04:20.999Z</time></trkpt><trkpt lat="43.00327061688354" lon="10.611318942275668"><ele>5.2</ele><time>2026-03-29T14:04:22.999Z</time></trkpt><trkpt lat="43.00321595687931" lon="10.611264533213184"><ele>5.4</ele><time>2026-03-29T14:04:25.999Z</time></trkpt><trkpt lat="43.00314941091362" lon="10.611212872909954"><ele>5.6</ele><time>2026-03-29T14:04:29.999Z</time></trkpt><trkpt lat="43.00324888440532" lon="10.611062244812391"><ele>5.8</ele><time>2026-03-29T14:12:17Z</time></trkpt><trkpt lat="43.00326052754601" lon="10.610912839318562"><ele>6.0</ele><time>2026-03-29T14:12:21Z</time></trkpt><trkpt lat="43.003255961389144" lon="10.610738961393643"><ele>6.0</ele><time>2026-03-29T14:12:23Z</time></trkpt><trkpt lat="43.00325654580497" lon="10.610648978993066"><ele>6.0</ele><time>2026-03-29T14:12:24Z</time></trkpt><trkpt lat="43.00327517078512" lon="10.610556295951742"><ele>6.0</ele><time>2026-03-29T14:12:25Z</time></trkpt><trkpt lat="43.00330403497544" lon="10.610461366343033"><ele>6.0</ele><time>2026-03-29T14:12:26Z</time></trkpt><trkpt lat="43.003351663162604" lon="10.610372931523735"><ele>6.0</ele><time>2026-03-29T14:12:27Z</time></trkpt><trkpt lat="43.00340896316299" lon="10.610262374489267"><ele>6.0</ele><time>2026-03-29T14:12:28Z</time></trkpt><trkpt lat="43.0034721206592" lon="10.610129749443264"><ele>5.5</ele><time>2026-03-29T14:12:29Z</time></trkpt><trkpt lat="43.00354069086805" lon="10.609996724600736"><ele>5.0</ele><time>2026-03-29T14:12:30Z</time></trkpt><trkpt lat="43.00361021032951" lon="10.60985631573136"><ele>4.5</ele><time>2026-03-29T14:12:31Z</time></trkpt><trkpt lat="43.00367761394552" lon="10.609715936623015"><ele>4.0</ele><time>2026-03-29T14:12:32Z</time></trkpt><trkpt lat="43.00374302854935" lon="10.609570356840258"><ele>4.75</ele><time>2026-03-29T14:12:33Z</time></trkpt><trkpt lat="43.00381191789331" lon="10.609418313054276"><ele>5.5</ele><time>2026-03-29T14:12:34Z</time></trkpt><trkpt lat="43.00390078213323" lon="10.609254579220108"><ele>6.25</ele><time>2026-03-29T14:12:35Z</time></trkpt><trkpt lat="43.00399892265092" lon="10.609079925460078"><ele>7.0</ele><time>2026-03-29T14:12:36Z</time></trkpt><trkpt lat="43.0041087142495" lon="10.60889417934842"><ele>7.333333333333334</ele><time>2026-03-29T14:12:37Z</time></trkpt><trkpt lat="43.004220156934466" lon="10.608704731922321"><ele>7.666666666666666</ele><time>2026-03-29T14:12:38Z</time></trkpt><trkpt lat="43.00432601525051" lon="10.60850735222946"><ele>8.0</ele><time>2026-03-29T14:12:38.999Z</time></trkpt><trkpt lat="43.00443807791288" lon="10.608304083765976"><ele>8.0</ele><time>2026-03-29T14:12:39.999Z</time></trkpt><trkpt lat="43.00455659447344" lon="10.6080945078892"><ele>8.0</ele><time>2026-03-29T14:12:41Z</time></trkpt><trkpt lat="43.00469020223254" lon="10.607878656428326"><ele>8.0</ele><time>2026-03-29T14:12:41.999Z</time></trkpt><trkpt lat="43.00481866900212" lon="10.607661801222514"><ele>8.0</ele><time>2026-03-29T14:12:42.999Z</time></trkpt><trkpt lat="43.0049459828898" lon="10.607450543379178"><ele>8.0</ele><time>2026-03-29T14:12:43.999Z</time></trkpt><trkpt lat="43.00506880284179" lon="10.607246114003043"><ele>8.0</ele><time>2026-03-29T14:12:44.999Z</time></trkpt><trkpt lat="43.00519465302682" lon="10.607041700476264"><ele>8.0</ele><time>2026-03-29T14:12:45.999Z</time></trkpt><trkpt lat="43.00532600816547" lon="10.606837177006005"><ele>8.0</ele><time>2026-03-29T14:12:46.999Z</time></trkpt><trkpt lat="43.00546446308312" lon="10.606621703194646"><ele>8.0</ele><time>2026-03-29T14:12:47.999Z</time></trkpt><trkpt lat="43.0056047866462" lon="10.60641159492565"><ele>8.0</ele><time>2026-03-29T14:12:48.999Z</time></trkpt><trkpt lat="43.00574537192338" lon="10.60620288679777"><ele>8.0</ele><time>2026-03-29T14:12:49.999Z</time></trkpt><trkpt lat="43.00588935598878" lon="10.60599425428054"><ele>8.0</ele><time>2026-03-29T14:12:50.999Z</time></trkpt><trkpt lat="43.00603716757366" lon="10.605786416713537"><ele>7.666666666666666</ele><time>2026-03-29T14:12:51.999Z</time></trkpt><trkpt lat="43.00619033194582" lon="10.605578781482965"><ele>7.333333333333334</ele><time>2026-03-29T14:12:52.999Z</time></trkpt><trkpt lat="43.006347384709095" lon="10.605370889889329"><ele>7.0</ele><time>2026-03-29T14:12:53.999Z</time></trkpt><trkpt lat="43.00650650670845" lon="10.605160736173653"><ele>7.0</ele><time>2026-03-29T14:12:54.999Z</time></trkpt><trkpt lat="43.006669033517156" lon="10.604959161097028"><ele>7.0</ele><time>2026-03-29T14:12:55.999Z</time></trkpt><trkpt lat="43.00683157745597" lon="10.604755424979277"><ele>7.0</ele><time>2026-03-29T14:12:56.999Z</time></trkpt><trkpt lat="43.00700025685172" lon="10.604555585055781"><ele>7.0</ele><time>2026-03-29T14:12:57.999Z</time></trkpt><trkpt lat="43.00717090834784" lon="10.604353809029824"><ele>7.0</ele><time>2026-03-29T14:12:58.999Z</time></trkpt><trkpt lat="43.007341136032395" lon="10.604154780605851"><ele>7.0</ele><time>2026-03-29T14:12:59.999Z</time></trkpt><trkpt lat="43.007501912387475" lon="10.60397406040337"><ele>7.0</ele><time>2026-03-29T14:13:00.999Z</time></trkpt><trkpt lat="43.00766306373765" lon="10.60380217094772"><ele>7.0</ele><time>2026-03-29T14:13:01.999Z</time></trkpt><trkpt lat="43.00783180154783" lon="10.603626872972788"><ele>7.0</ele><time>2026-03-29T14:13:02.999Z</time></trkpt><trkpt lat="43.0080045486736" lon="10.603447129200175"><ele>7.0</ele><time>2026-03-29T14:13:03.999Z</time></trkpt><trkpt lat="43.00817749246388" lon="10.603260408322882"><ele>7.0</ele><time>2026-03-29T14:13:04.999Z</time></trkpt><trkpt lat="43.00835064283708" lon="10.60307498844423"><ele>7.0</ele><time>2026-03-29T14:13:05.999Z</time></trkpt><trkpt lat="43.00852359022354" lon="10.602883730221789"><ele>7.0</ele><time>2026-03-29T14:13:06.999Z</time></trkpt><trkpt lat="43.00869751936829" lon="10.602694082330522"><ele>7.0</ele><time>2026-03-29T14:13:07.999Z</time></trkpt><trkpt lat="43.00887171040927" lon="10.602505890490345"><ele>7.0</ele><time>2026-03-29T14:13:08.999Z</time></trkpt><trkpt lat="43.00904840042502" lon="10.602314925640728"><ele>7.0</ele><time>2026-03-29T14:13:09.999Z</time></trkpt><trkpt lat="43.009226327577466" lon="10.602122533197083"><ele>6.5</ele><time>2026-03-29T14:13:10.999Z</time></trkpt><trkpt lat="43.009405966966895" lon="10.601925419075409"><ele>6.0</ele><time>2026-03-29T14:13:11.999Z</time></trkpt><trkpt lat="43.00958412168179" lon="10.601729362757862"><ele>6.0</ele><time>2026-03-29T14:13:12.999Z</time></trkpt><trkpt lat="43.00976436854802" lon="10.601533075776805"><ele>6.0</ele><time>2026-03-29T14:13:13.999Z</time></trkpt><trkpt lat="43.009944027126814" lon="10.601338274215344"><ele>8.0</ele><time>2026-03-29T14:13:14.999Z</time></trkpt><trkpt lat="43.0101263275244" lon="10.60114032449486"><ele>10.0</ele><time>2026-03-29T14:13:15.999Z</time></trkpt><trkpt lat="43.01030668521363" lon="10.600942388760158"><ele>10.0</ele><time>2026-03-29T14:13:16.999Z</time></trkpt><trkpt lat="43.01048864993129" lon="10.600747295418726"><ele>10.0</ele><time>2026-03-29T14:13:17.999Z</time></trkpt><trkpt lat="43.01067404977808" lon="10.600553595672853"><ele>10.0</ele><time>2026-03-29T14:13:18.999Z</time></trkpt><trkpt lat="43.01085982879283" lon="10.600353450216273"><ele>10.0</ele><time>2026-03-29T14:13:19.999Z</time></trkpt><trkpt lat="43.01104312815624" lon="10.600157444724003"><ele>10.333333333333334</ele><time>2026-03-29T14:13:20.999Z</time></trkpt><trkpt lat="43.01121586071684" lon="10.599972360232176"><ele>10.666666666666666</ele><time>2026-03-29T14:13:21.999Z</time></trkpt><trkpt lat="43.011370191997386" lon="10.599801398794737"><ele>11.0</ele><time>2026-03-29T14:13:22.999Z</time></trkpt><trkpt lat="43.01152245364895" lon="10.599635387162047"><ele>11.333333333333332</ele><time>2026-03-29T14:13:23.999Z</time></trkpt><trkpt lat="43.01167511618617" lon="10.599465438104081"><ele>11.666666666666666</ele><time>2026-03-29T14:13:24.999Z</time></trkpt><trkpt lat="43.01182949754805" lon="10.59929711873905"><ele>12.0</ele><time>2026-03-29T14:13:25.999Z</time></trkpt><trkpt lat="43.01198271199924" lon="10.599128183929967"><ele>12.0</ele><time>2026-03-29T14:13:26.999Z</time></trkpt><trkpt lat="43.01213345933616" lon="10.598958869219251"><ele>12.0</ele><time>2026-03-29T14:13:28Z</time></trkpt><trkpt lat="43.01228967658549" lon="10.598787737263843"><ele>12.0</ele><time>2026-03-29T14:13:29Z</time></trkpt><trkpt lat="43.01244212197977" lon="10.598609189300989"><ele>11.0</ele><time>2026-03-29T14:13:30Z</time></trkpt><trkpt lat="43.012600141552475" lon="10.598425848732465"><ele>10.0</ele><time>2026-03-29T14:13:31Z</time></trkpt><trkpt lat="43.01275594621828" lon="10.598241887207683"><ele>9.0</ele><time>2026-03-29T14:13:32Z</time></trkpt><trkpt lat="43.01291750545104" lon="10.598047295306618"><ele>9.0</ele><time>2026-03-29T14:13:33Z</time></trkpt><trkpt lat="43.01307902602393" lon="10.597852053444258"><ele>9.0</ele><time>2026-03-29T14:13:34Z</time></trkpt><trkpt lat="43.01323902535337" lon="10.597655718958885"><ele>9.0</ele><time>2026-03-29T14:13:35Z</time></trkpt><trkpt lat="43.01340132680319" lon="10.597453951918856"><ele>9.333333333333334</ele><time>2026-03-29T14:13:36Z</time></trkpt><trkpt lat="43.01356647985703" lon="10.597246386961375"><ele>9.666666666666668</ele><time>2026-03-29T14:13:37Z</time></trkpt><trkpt lat="43.01372799623141" lon="10.597040309731815"><ele>10.0</ele><time>2026-03-29T14:13:38Z</time></trkpt><trkpt lat="43.01388158047023" lon="10.596839793132995"><ele>10.0</ele><time>2026-03-29T14:13:39Z</time></trkpt><trkpt lat="43.014032483005664" lon="10.59664708732515"><ele>10.0</ele><time>2026-03-29T14:13:40Z</time></trkpt><trkpt lat="43.0141792046687" lon="10.596459617345209"><ele>10.0</ele><time>2026-03-29T14:13:41Z</time></trkpt><trkpt lat="43.014319296601485" lon="10.596233844067271"><ele>9.333333333333334</ele><time>2026-03-29T14:13:42Z</time></trkpt><trkpt lat="43.014464516250065" lon="10.596020946579628"><ele>8.666666666666666</ele><time>2026-03-29T14:13:43Z</time></trkpt><trkpt lat="43.014612639209886" lon="10.595800098208485"><ele>8.0</ele><time>2026-03-29T14:13:44Z</time></trkpt><trkpt lat="43.01475719670675" lon="10.595587083965592"><ele>8.0</ele><time>2026-03-29T14:13:45Z</time></trkpt><trkpt lat="43.01491150502828" lon="10.595359917412235"><ele>8.0</ele><time>2026-03-29T14:13:46Z</time></trkpt><trkpt lat="43.01506402810054" lon="10.595134734679661"><ele>8.333333333333332</ele><time>2026-03-29T14:13:47Z</time></trkpt><trkpt lat="43.015213448471144" lon="10.594910690583227"><ele>8.666666666666666</ele><time>2026-03-29T14:13:48Z</time></trkpt><trkpt lat="43.01536231810132" lon="10.59468872266795"><ele>9.0</ele><time>2026-03-29T14:13:49Z</time></trkpt><trkpt lat="43.01551455898448" lon="10.594470776827038"><ele>9.0</ele><time>2026-03-29T14:13:50Z</time></trkpt><trkpt lat="43.01567103828859" lon="10.594248996392121"><ele>9.0</ele><time>2026-03-29T14:13:51Z</time></trkpt><trkpt lat="43.01582959192094" lon="10.594025147559616"><ele>9.0</ele><time>2026-03-29T14:13:52Z</time></trkpt><trkpt lat="43.01598403250881" lon="10.593799006639498"><ele>9.0</ele><time>2026-03-29T14:13:53Z</time></trkpt><trkpt lat="43.016139156096195" lon="10.593576628806812"><ele>8.0</ele><time>2026-03-29T14:13:54Z</time></trkpt><trkpt lat="43.01629842966456" lon="10.59334827851728"><ele>7.0</ele><time>2026-03-29T14:13:55Z</time></trkpt><trkpt lat="43.01645457979494" lon="10.593122972455031"><ele>7.0</ele><time>2026-03-29T14:13:56Z</time></trkpt><trkpt lat="43.0166102662665" lon="10.592895705914216"><ele>7.0</ele><time>2026-03-29T14:13:57Z</time></trkpt><trkpt lat="43.01676867660045" lon="10.592666402172625"><ele>6.0</ele><time>2026-03-29T14:13:58Z</time></trkpt><trkpt lat="43.01692680134666" lon="10.592438541271072"><ele>5.0</ele><time>2026-03-29T14:13:59Z</time></trkpt><trkpt lat="43.017084252511296" lon="10.592206548659869"><ele>5.5</ele><time>2026-03-29T14:14:00Z</time></trkpt><trkpt lat="43.01724198248904" lon="10.591975068192507"><ele>6.0</ele><time>2026-03-29T14:14:01Z</time></trkpt><trkpt lat="43.01740021267047" lon="10.591744510453953"><ele>4.5</ele><time>2026-03-29T14:14:02Z</time></trkpt><trkpt lat="43.0175584596138" lon="10.591513213846586"><ele>3.0</ele><time>2026-03-29T14:14:03Z</time></trkpt><trkpt lat="43.01771793969912" lon="10.591279949073163"><ele>4.5</ele><time>2026-03-29T14:14:04Z</time></trkpt><trkpt lat="43.01787596700235" lon="10.591049735511255"><ele>6.0</ele><time>2026-03-29T14:14:05Z</time></trkpt><trkpt lat="43.018035228456526" lon="10.590820536471158"><ele>6.0</ele><time>2026-03-29T14:14:06Z</time></trkpt><trkpt lat="43.01820008898898" lon="10.590587064392762"><ele>6.0</ele><time>2026-03-29T14:14:07Z</time></trkpt><trkpt lat="43.01835856094737" lon="10.590351586444797"><ele>6.0</ele><time>2026-03-29T14:14:08Z</time></trkpt><trkpt lat="43.01851513632146" lon="10.590119276629311"><ele>6.0</ele><time>2026-03-29T14:14:09Z</time></trkpt><trkpt lat="43.018673457238954" lon="10.589886741319011"><ele>6.0</ele><time>2026-03-29T14:14:10Z</time></trkpt><trkpt lat="43.01883502148142" lon="10.589656583931957"><ele>6.0</ele><time>2026-03-29T14:14:11Z</time></trkpt><trkpt lat="43.01899241017579" lon="10.589420487025453"><ele>5.0</ele><time>2026-03-29T14:14:12Z</time></trkpt><trkpt lat="43.01914528686592" lon="10.58918042340122"><ele>4.0</ele><time>2026-03-29T14:14:13Z</time></trkpt><trkpt lat="43.0193005915304" lon="10.588940618076844"><ele>3.5</ele><time>2026-03-29T14:14:14Z</time></trkpt><trkpt lat="43.01945494422977" lon="10.588697510271208"><ele>3.0</ele><time>2026-03-29T14:14:15Z</time></trkpt><trkpt lat="43.01960545284716" lon="10.588448035308959"><ele>4.5</ele><time>2026-03-29T14:14:16Z</time></trkpt><trkpt lat="43.01975552725165" lon="10.58819663358429"><ele>6.0</ele><time>2026-03-29T14:14:17Z</time></trkpt><trkpt lat="43.01990564037439" lon="10.587947683531853"><ele>5.0</ele><time>2026-03-29T14:14:18Z</time></trkpt><trkpt lat="43.02005613719257" lon="10.5876967187092"><ele>4.0</ele><time>2026-03-29T14:14:19Z</time></trkpt><trkpt lat="43.020204559890146" lon="10.587443150429086"><ele>4.0</ele><time>2026-03-29T14:14:20Z</time></trkpt><trkpt lat="43.02034971919053" lon="10.587187505743879"><ele>4.0</ele><time>2026-03-29T14:14:21Z</time></trkpt><trkpt lat="43.0204932871519" lon="10.586927538827405"><ele>4.5</ele><time>2026-03-29T14:14:22Z</time></trkpt><trkpt lat="43.02063460650214" lon="10.586665831723352"><ele>5.0</ele><time>2026-03-29T14:14:23Z</time></trkpt><trkpt lat="43.02077490772178" lon="10.586403765303867"><ele>5.0</ele><time>2026-03-29T14:14:24Z</time></trkpt><trkpt lat="43.02091317119975" lon="10.586141637098043"><ele>5.0</ele><time>2026-03-29T14:14:25Z</time></trkpt><trkpt lat="43.02104875849982" lon="10.585877869212839"><ele>5.0</ele><time>2026-03-29T14:14:26Z</time></trkpt><trkpt lat="43.02118031860652" lon="10.58561357898518"><ele>5.0</ele><time>2026-03-29T14:14:27Z</time></trkpt><trkpt lat="43.02131301744402" lon="10.585352100500454"><ele>5.5</ele><time>2026-03-29T14:14:28Z</time></trkpt><trkpt lat="43.02144822374791" lon="10.585088717493768"><ele>6.0</ele><time>2026-03-29T14:14:28.999Z</time></trkpt><trkpt lat="43.021582710029975" lon="10.584821656189481"><ele>6.0</ele><time>2026-03-29T14:14:29.999Z</time></trkpt><trkpt lat="43.02171394498323" lon="10.58455233117924"><ele>6.0</ele><time>2026-03-29T14:14:30.999Z</time></trkpt><trkpt lat="43.02184521711144" lon="10.58428514108647"><ele>6.5</ele><time>2026-03-29T14:14:31.999Z</time></trkpt><trkpt lat="43.0219768217641" lon="10.584018459624842"><ele>7.0</ele><time>2026-03-29T14:14:32.999Z</time></trkpt><trkpt lat="43.022109976802156" lon="10.583747509682668"><ele>5.5</ele><time>2026-03-29T14:14:33.999Z</time></trkpt><trkpt lat="43.02224127206938" lon="10.583479277618643"><ele>4.0</ele><time>2026-03-29T14:14:34.999Z</time></trkpt><trkpt lat="43.02237213621821" lon="10.583211902632621"><ele>4.5</ele><time>2026-03-29T14:14:35.999Z</time></trkpt><trkpt lat="43.02250347089921" lon="10.58294315466191"><ele>5.0</ele><time>2026-03-29T14:14:36.999Z</time></trkpt><trkpt lat="43.022634025768106" lon="10.582675973519208"><ele>5.0</ele><time>2026-03-29T14:14:37.999Z</time></trkpt><trkpt lat="43.02276475538329" lon="10.582407398153856"><ele>5.0</ele><time>2026-03-29T14:14:38.999Z</time></trkpt><trkpt lat="43.02289696948809" lon="10.582138029242648"><ele>5.0</ele><time>2026-03-29T14:14:39.999Z</time></trkpt><trkpt lat="43.02302966824709" lon="10.58186874723745"><ele>5.0</ele><time>2026-03-29T14:14:40.999Z</time></trkpt><trkpt lat="43.02316293364309" lon="10.581598838712129"><ele>5.0</ele><time>2026-03-29T14:14:41.999Z</time></trkpt><trkpt lat="43.02329404403318" lon="10.581331098597024"><ele>5.0</ele><time>2026-03-29T14:14:42.999Z</time></trkpt><trkpt lat="43.02342468282766" lon="10.58106378388806"><ele>6.0</ele><time>2026-03-29T14:14:43.999Z</time></trkpt><trkpt lat="43.02355807887906" lon="10.58079606012351"><ele>7.0</ele><time>2026-03-29T14:14:44.999Z</time></trkpt><trkpt lat="43.02369134552237" lon="10.580522932232494"><ele>7.0</ele><time>2026-03-29T14:14:45.999Z</time></trkpt><trkpt lat="43.023829584816795" lon="10.580244728028127"><ele>7.0</ele><time>2026-03-29T14:14:46.999Z</time></trkpt><trkpt lat="43.02396880742212" lon="10.579961798975567"><ele>7.0</ele><time>2026-03-29T14:14:47.999Z</time></trkpt><trkpt lat="43.024105836855405" lon="10.579684717288119"><ele>7.0</ele><time>2026-03-29T14:14:48.999Z</time></trkpt><trkpt lat="43.024241806190055" lon="10.579409444473344"><ele>9.5</ele><time>2026-03-29T14:14:49.999Z</time></trkpt><trkpt lat="43.024375770949455" lon="10.57913552928258"><ele>12.0</ele><time>2026-03-29T14:14:50.999Z</time></trkpt><trkpt lat="43.02451191607107" lon="10.578860744421517"><ele>10.5</ele><time>2026-03-29T14:14:51.999Z</time></trkpt><trkpt lat="43.02464647774562" lon="10.578587256791145"><ele>9.0</ele><time>2026-03-29T14:14:52.999Z</time></trkpt><trkpt lat="43.02477981373869" lon="10.57831235437891"><ele>9.0</ele><time>2026-03-29T14:14:53.999Z</time></trkpt><trkpt lat="43.024914972220564" lon="10.578037524893567"><ele>9.0</ele><time>2026-03-29T14:14:54.999Z</time></trkpt><trkpt lat="43.02505153717163" lon="10.577766647249604"><ele>9.5</ele><time>2026-03-29T14:14:55.999Z</time></trkpt><trkpt lat="43.02518822263524" lon="10.577495214866229"><ele>10.0</ele><time>2026-03-29T14:14:56.999Z</time></trkpt><trkpt lat="43.02532459498627" lon="10.577220982098536"><ele>10.0</ele><time>2026-03-29T14:14:57.999Z</time></trkpt><trkpt lat="43.02546433897449" lon="10.576945662319048"><ele>10.0</ele><time>2026-03-29T14:14:58.999Z</time></trkpt><trkpt lat="43.02560771449807" lon="10.57667392319957"><ele>10.0</ele><time>2026-03-29T14:14:59.999Z</time></trkpt><trkpt lat="43.025753626382084" lon="10.576404740177404"><ele>10.0</ele><time>2026-03-29T14:15:00.999Z</time></trkpt><trkpt lat="43.025898808674505" lon="10.576128973800921"><ele>9.5</ele><time>2026-03-29T14:15:01.999Z</time></trkpt><trkpt lat="43.02605063261905" lon="10.575853331318193"><ele>9.0</ele><time>2026-03-29T14:15:02.999Z</time></trkpt><trkpt lat="43.02619865230618" lon="10.57557410106725"><ele>9.0</ele><time>2026-03-29T14:15:03.999Z</time></trkpt><trkpt lat="43.02635044878705" lon="10.575299284324363"><ele>9.0</ele><time>2026-03-29T14:15:04.999Z</time></trkpt><trkpt lat="43.02650387626846" lon="10.575029350812725"><ele>9.0</ele><time>2026-03-29T14:15:05.999Z</time></trkpt><trkpt lat="43.02666228610162" lon="10.574759436752863"><ele>9.0</ele><time>2026-03-29T14:15:06.999Z</time></trkpt><trkpt lat="43.026825114361955" lon="10.574489784518411"><ele>9.0</ele><time>2026-03-29T14:15:07.999Z</time></trkpt><trkpt lat="43.02699096256882" lon="10.574223710294556"><ele>9.0</ele><time>2026-03-29T14:15:08.999Z</time></trkpt><trkpt lat="43.02716233198391" lon="10.57396049866844"><ele>9.0</ele><time>2026-03-29T14:15:09.999Z</time></trkpt><trkpt lat="43.02733665274287" lon="10.573700585608778"><ele>9.0</ele><time>2026-03-29T14:15:10.999Z</time></trkpt><trkpt lat="43.02751422887905" lon="10.573443127315203"><ele>9.0</ele><time>2026-03-29T14:15:11.999Z</time></trkpt><trkpt lat="43.02769380947843" lon="10.573191737724347"><ele>9.0</ele><time>2026-03-29T14:15:12.999Z</time></trkpt><trkpt lat="43.02787734183912" lon="10.572944475668727"><ele>8.5</ele><time>2026-03-29T14:15:13.999Z</time></trkpt><trkpt lat="43.028065435282336" lon="10.572700692531516"><ele>8.0</ele><time>2026-03-29T14:15:14.999Z</time></trkpt><trkpt lat="43.02825478214423" lon="10.57246332369872"><ele>8.0</ele><time>2026-03-29T14:15:15.999Z</time></trkpt><trkpt lat="43.02844791876603" lon="10.572235967468016"><ele>8.0</ele><time>2026-03-29T14:15:16.999Z</time></trkpt><trkpt lat="43.02864526115866" lon="10.572010615282617"><ele>8.0</ele><time>2026-03-29T14:15:17.999Z</time></trkpt><trkpt lat="43.02884998094982" lon="10.571789593448278"><ele>8.0</ele><time>2026-03-29T14:15:18.999Z</time></trkpt><trkpt lat="43.029054895752" lon="10.5715742600794"><ele>7.5</ele><time>2026-03-29T14:15:19.999Z</time></trkpt><trkpt lat="43.02926092147884" lon="10.571366362602024"><ele>7.0</ele><time>2026-03-29T14:15:20.999Z</time></trkpt><trkpt lat="43.02946448622807" lon="10.571159392988509"><ele>7.0</ele><time>2026-03-29T14:15:21.999Z</time></trkpt><trkpt lat="43.02967250584921" lon="10.570959677319745"><ele>7.0</ele><time>2026-03-29T14:15:22.999Z</time></trkpt><trkpt lat="43.029886863069905" lon="10.570771809819892"><ele>8.5</ele><time>2026-03-29T14:15:23.999Z</time></trkpt><trkpt lat="43.030100151937006" lon="10.570594072776656"><ele>10.0</ele><time>2026-03-29T14:15:24.999Z</time></trkpt><trkpt lat="43.0303157232352" lon="10.570418354098592"><ele>9.0</ele><time>2026-03-29T14:15:25.999Z</time></trkpt><trkpt lat="43.03053081411531" lon="10.570243663025295"><ele>8.0</ele><time>2026-03-29T14:15:26.999Z</time></trkpt><trkpt lat="43.030750361847275" lon="10.570074954092602"><ele>8.5</ele><time>2026-03-29T14:15:27.999Z</time></trkpt><trkpt lat="43.030971967011375" lon="10.569912914801932"><ele>9.0</ele><time>2026-03-29T14:15:28.999Z</time></trkpt><trkpt lat="43.0311980025569" lon="10.569759384463023"><ele>9.0</ele><time>2026-03-29T14:15:29.999Z</time></trkpt><trkpt lat="43.031424253165504" lon="10.569609919201898"><ele>9.0</ele><time>2026-03-29T14:15:30.999Z</time></trkpt><trkpt lat="43.03165228622929" lon="10.569469393487962"><ele>9.0</ele><time>2026-03-29T14:15:31.999Z</time></trkpt><trkpt lat="43.031882981492515" lon="10.569331817978464"><ele>9.0</ele><time>2026-03-29T14:15:32.999Z</time></trkpt><trkpt lat="43.0321179264337" lon="10.569198841699762"><ele>9.0</ele><time>2026-03-29T14:15:34Z</time></trkpt><trkpt lat="43.032353517383875" lon="10.5690747736928"><ele>9.0</ele><time>2026-03-29T14:15:35Z</time></trkpt><trkpt lat="43.03259099641372" lon="10.568955548347297"><ele>9.0</ele><time>2026-03-29T14:15:36Z</time></trkpt><trkpt lat="43.03282883256673" lon="10.568838978984262"><ele>9.0</ele><time>2026-03-29T14:15:37Z</time></trkpt><trkpt lat="43.03307091935514" lon="10.568730055870386"><ele>9.0</ele><time>2026-03-29T14:15:38Z</time></trkpt><trkpt lat="43.0333135879506" lon="10.568628649870814"><ele>9.0</ele><time>2026-03-29T14:15:39Z</time></trkpt><trkpt lat="43.033558792325366" lon="10.568532301712484"><ele>9.0</ele><time>2026-03-29T14:15:40Z</time></trkpt><trkpt lat="43.033804429555985" lon="10.568446999298757"><ele>9.0</ele><time>2026-03-29T14:15:41Z</time></trkpt><trkpt lat="43.03405409336296" lon="10.56836263776172"><ele>9.0</ele><time>2026-03-29T14:15:42Z</time></trkpt><trkpt lat="43.03430738240932" lon="10.568282112518085"><ele>9.0</ele><time>2026-03-29T14:15:43Z</time></trkpt><trkpt lat="43.034555068330434" lon="10.56820728792897"><ele>9.0</ele><time>2026-03-29T14:15:44Z</time></trkpt><trkpt lat="43.03480423011922" lon="10.568141089961763"><ele>9.0</ele><time>2026-03-29T14:15:45Z</time></trkpt><trkpt lat="43.03505166067645" lon="10.568081860331496"><ele>10.0</ele><time>2026-03-29T14:15:46Z</time></trkpt><trkpt lat="43.035300959093796" lon="10.568019351244196"><ele>11.0</ele><time>2026-03-29T14:15:47Z</time></trkpt><trkpt lat="43.035556237134706" lon="10.567967283336845"><ele>10.5</ele><time>2026-03-29T14:15:48Z</time></trkpt><trkpt lat="43.03580933171392" lon="10.56792113897467"><ele>10.0</ele><time>2026-03-29T14:15:49Z</time></trkpt><trkpt lat="43.03606317216994" lon="10.567886601257994"><ele>9.5</ele><time>2026-03-29T14:15:50Z</time></trkpt><trkpt lat="43.03631375164799" lon="10.5678486466542"><ele>9.0</ele><time>2026-03-29T14:15:51Z</time></trkpt><trkpt lat="43.03656789844321" lon="10.567815657537475"><ele>9.0</ele><time>2026-03-29T14:15:52Z</time></trkpt><trkpt lat="43.036820050714354" lon="10.567785088012318"><ele>9.0</ele><time>2026-03-29T14:15:53Z</time></trkpt><trkpt lat="43.03706987424313" lon="10.567757213892385"><ele>9.0</ele><time>2026-03-29T14:15:54Z</time></trkpt><trkpt lat="43.03732267713511" lon="10.56773271899455"><ele>9.0</ele><time>2026-03-29T14:15:55Z</time></trkpt><trkpt lat="43.03758263501042" lon="10.567713693569369"><ele>9.5</ele><time>2026-03-29T14:15:56Z</time></trkpt><trkpt lat="43.03784866067265" lon="10.567691952922278"><ele>10.0</ele><time>2026-03-29T14:15:57Z</time></trkpt><trkpt lat="43.0381373316051" lon="10.56766844258374"><ele>11.0</ele><time>2026-03-29T14:15:58Z</time></trkpt><trkpt lat="43.03844063327613" lon="10.567636789134351"><ele>12.0</ele><time>2026-03-29T14:15:59Z</time></trkpt><trkpt lat="43.038754210521915" lon="10.567609577023413"><ele>12.0</ele><time>2026-03-29T14:16:00Z</time></trkpt><trkpt lat="43.039049040218806" lon="10.56758611954233"><ele>12.0</ele><time>2026-03-29T14:16:01Z</time></trkpt><trkpt lat="43.03932917015953" lon="10.567566186986006"><ele>12.5</ele><time>2026-03-29T14:16:02Z</time></trkpt><trkpt lat="43.039608438482276" lon="10.567556924145157"><ele>13.0</ele><time>2026-03-29T14:16:03Z</time></trkpt><trkpt lat="43.03988800743245" lon="10.567554582869489"><ele>13.0</ele><time>2026-03-29T14:16:04Z</time></trkpt><trkpt lat="43.040165745304776" lon="10.567551310858866"><ele>13.0</ele><time>2026-03-29T14:16:05Z</time></trkpt><trkpt lat="43.040443597119285" lon="10.567539484225188"><ele>13.0</ele><time>2026-03-29T14:16:06Z</time></trkpt><trkpt lat="43.04072028948641" lon="10.567523847621262"><ele>13.0</ele><time>2026-03-29T14:16:07Z</time></trkpt><trkpt lat="43.04098865666388" lon="10.567508922546436"><ele>12.5</ele><time>2026-03-29T14:16:08Z</time></trkpt><trkpt lat="43.04126252759019" lon="10.567496477355334"><ele>12.0</ele><time>2026-03-29T14:16:09Z</time></trkpt><trkpt lat="43.0415362834857" lon="10.567488499269848"><ele>12.0</ele><time>2026-03-29T14:16:10Z</time></trkpt><trkpt lat="43.04181789317179" lon="10.567479287847759"><ele>12.0</ele><time>2026-03-29T14:16:11Z</time></trkpt><trkpt lat="43.042084777929475" lon="10.567483488716677"><ele>12.0</ele><time>2026-03-29T14:16:12Z</time></trkpt><trkpt lat="43.042351348486854" lon="10.5674838026343"><ele>12.0</ele><time>2026-03-29T14:16:13Z</time></trkpt><trkpt lat="43.04260954545712" lon="10.567483500125354"><ele>11.5</ele><time>2026-03-29T14:16:14Z</time></trkpt><trkpt lat="43.04286412260381" lon="10.567487642627635"><ele>11.0</ele><time>2026-03-29T14:16:15Z</time></trkpt><trkpt lat="43.04312242556169" lon="10.5674933158783"><ele>11.5</ele><time>2026-03-29T14:16:16Z</time></trkpt><trkpt lat="43.043380032876485" lon="10.567502348283531"><ele>12.0</ele><time>2026-03-29T14:16:17Z</time></trkpt><trkpt lat="43.043638828661" lon="10.567512291502075"><ele>12.0</ele><time>2026-03-29T14:16:18Z</time></trkpt><trkpt lat="43.04389735478289" lon="10.567523704126494"><ele>12.0</ele><time>2026-03-29T14:16:19Z</time></trkpt><trkpt lat="43.04415661004478" lon="10.567539510771667"><ele>13.0</ele><time>2026-03-29T14:16:20Z</time></trkpt><trkpt lat="43.04441602885516" lon="10.567554398487296"><ele>14.0</ele><time>2026-03-29T14:16:21Z</time></trkpt><trkpt lat="43.044671859617225" lon="10.56757241811129"><ele>14.0</ele><time>2026-03-29T14:16:22Z</time></trkpt><trkpt lat="43.04492642261713" lon="10.56759282396888"><ele>14.0</ele><time>2026-03-29T14:16:23Z</time></trkpt><trkpt lat="43.04518303328592" lon="10.567616504070996"><ele>13.5</ele><time>2026-03-29T14:16:24Z</time></trkpt><trkpt lat="43.04544090788995" lon="10.567641231483808"><ele>13.0</ele><time>2026-03-29T14:16:25Z</time></trkpt><trkpt lat="43.04570016215037" lon="10.567665499460734"><ele>14.0</ele><time>2026-03-29T14:16:26Z</time></trkpt><trkpt lat="43.045952393662226" lon="10.567689932096254"><ele>15.0</ele><time>2026-03-29T14:16:27Z</time></trkpt><trkpt lat="43.04620473548332" lon="10.567716321670225"><ele>15.0</ele><time>2026-03-29T14:16:28Z</time></trkpt><trkpt lat="43.0464535761851" lon="10.567742537976777"><ele>15.0</ele><time>2026-03-29T14:16:29Z</time></trkpt><trkpt lat="43.04670081452458" lon="10.56777103723652"><ele>15.5</ele><time>2026-03-29T14:16:30Z</time></trkpt><trkpt lat="43.04695259757343" lon="10.567804432587325"><ele>16.0</ele><time>2026-03-29T14:16:31Z</time></trkpt><trkpt lat="43.04719761324201" lon="10.567839416161108"><ele>16.5</ele><time>2026-03-29T14:16:32Z</time></trkpt><trkpt lat="43.04744519075003" lon="10.567873426122052"><ele>17.0</ele><time>2026-03-29T14:16:33Z</time></trkpt><trkpt lat="43.04769063029677" lon="10.567903151385062"><ele>17.5</ele><time>2026-03-29T14:16:34Z</time></trkpt><trkpt lat="43.04794256236552" lon="10.567933004084788"><ele>18.0</ele><time>2026-03-29T14:16:35Z</time></trkpt><trkpt lat="43.0481947954235" lon="10.567963250038055"><ele>19.5</ele><time>2026-03-29T14:16:36Z</time></trkpt><trkpt lat="43.048445277695244" lon="10.567998774858147"><ele>21.0</ele><time>2026-03-29T14:16:37Z</time></trkpt><trkpt lat="43.04870359546202" lon="10.568033523089465"><ele>21.0</ele><time>2026-03-29T14:16:38Z</time></trkpt><trkpt lat="43.04896382802752" lon="10.568069607750953"><ele>21.0</ele><time>2026-03-29T14:16:38.999Z</time></trkpt><trkpt lat="43.049223867572955" lon="10.568102147319738"><ele>23.0</ele><time>2026-03-29T14:16:39.999Z</time></trkpt><trkpt lat="43.04948766192127" lon="10.56813304547959"><ele>25.0</ele><time>2026-03-29T14:16:40.999Z</time></trkpt><trkpt lat="43.049756331452365" lon="10.56816198754248"><ele>26.0</ele><time>2026-03-29T14:16:41.999Z</time></trkpt><trkpt lat="43.05001999963376" lon="10.56818175034338"><ele>27.0</ele><time>2026-03-29T14:16:42.999Z</time></trkpt><trkpt lat="43.05028270046643" lon="10.568198531382944"><ele>27.0</ele><time>2026-03-29T14:16:43.999Z</time></trkpt><trkpt lat="43.05054965052116" lon="10.56821664129321"><ele>27.0</ele><time>2026-03-29T14:16:44.999Z</time></trkpt><trkpt lat="43.05081270865129" lon="10.568223954556194"><ele>28.0</ele><time>2026-03-29T14:16:45.999Z</time></trkpt><trkpt lat="43.0510751235915" lon="10.568218069545496"><ele>29.0</ele><time>2026-03-29T14:16:46.999Z</time></trkpt><trkpt lat="43.051339582448605" lon="10.568201639029072"><ele>29.0</ele><time>2026-03-29T14:16:47.999Z</time></trkpt><trkpt lat="43.0516023256189" lon="10.568170521464744"><ele>29.0</ele><time>2026-03-29T14:16:48.999Z</time></trkpt><trkpt lat="43.05186754346473" lon="10.568130724726222"><ele>29.0</ele><time>2026-03-29T14:16:49.999Z</time></trkpt><trkpt lat="43.05213331389244" lon="10.568088851150746"><ele>29.0</ele><time>2026-03-29T14:16:50.999Z</time></trkpt><trkpt lat="43.05239749472417" lon="10.568033578962703"><ele>30.5</ele><time>2026-03-29T14:16:51.999Z</time></trkpt><trkpt lat="43.05265774276596" lon="10.5679623303969"><ele>32.0</ele><time>2026-03-29T14:16:52.999Z</time></trkpt><trkpt lat="43.05292089919562" lon="10.567886916942836"><ele>32.0</ele><time>2026-03-29T14:16:53.999Z</time></trkpt><trkpt lat="43.05318020276442" lon="10.567800660486414"><ele>32.0</ele><time>2026-03-29T14:16:54.999Z</time></trkpt><trkpt lat="43.05344075894981" lon="10.567699066920714"><ele>32.0</ele><time>2026-03-29T14:16:55.999Z</time></trkpt><trkpt lat="43.053699556205814" lon="10.567582489486997"><ele>32.0</ele><time>2026-03-29T14:16:56.999Z</time></trkpt><trkpt lat="43.053952573979444" lon="10.567453770965976"><ele>34.0</ele><time>2026-03-29T14:16:57.999Z</time></trkpt><trkpt lat="43.05420762256784" lon="10.567318637646448"><ele>36.0</ele><time>2026-03-29T14:16:58.999Z</time></trkpt><trkpt lat="43.05446185236752" lon="10.56717627201771"><ele>35.0</ele><time>2026-03-29T14:16:59.999Z</time></trkpt><trkpt lat="43.054711726458976" lon="10.567026994222994"><ele>34.0</ele><time>2026-03-29T14:17:00.999Z</time></trkpt><trkpt lat="43.05495880357518" lon="10.566863745343582"><ele>36.5</ele><time>2026-03-29T14:17:01.999Z</time></trkpt><trkpt lat="43.055206938730485" lon="10.566696759908547"><ele>39.0</ele><time>2026-03-29T14:17:02.999Z</time></trkpt><trkpt lat="43.05545223978795" lon="10.566518559645276"><ele>39.0</ele><time>2026-03-29T14:17:03.999Z</time></trkpt><trkpt lat="43.05569529020359" lon="10.56633692041342"><ele>39.0</ele><time>2026-03-29T14:17:04.999Z</time></trkpt><trkpt lat="43.05593803893894" lon="10.566155935627192"><ele>38.0</ele><time>2026-03-29T14:17:05.999Z</time></trkpt><trkpt lat="43.05618708541234" lon="10.56597252943165"><ele>37.0</ele><time>2026-03-29T14:17:06.999Z</time></trkpt><trkpt lat="43.056433044850785" lon="10.565790643136532"><ele>38.5</ele><time>2026-03-29T14:17:07.999Z</time></trkpt><trkpt lat="43.05668140102561" lon="10.565605157870083"><ele>40.0</ele><time>2026-03-29T14:17:08.999Z</time></trkpt><trkpt lat="43.05692885439117" lon="10.565420594816532"><ele>38.5</ele><time>2026-03-29T14:17:09.999Z</time></trkpt><trkpt lat="43.05717862254505" lon="10.565230614418903"><ele>37.0</ele><time>2026-03-29T14:17:10.999Z</time></trkpt><trkpt lat="43.05742832827794" lon="10.565043296935283"><ele>36.0</ele><time>2026-03-29T14:17:11.999Z</time></trkpt><trkpt lat="43.0576801982451" lon="10.56485509304625"><ele>35.0</ele><time>2026-03-29T14:17:12.999Z</time></trkpt><trkpt lat="43.05793161513981" lon="10.564665335229241"><ele>34.5</ele><time>2026-03-29T14:17:13.999Z</time></trkpt><trkpt lat="43.058183418478954" lon="10.564476687760363"><ele>34.0</ele><time>2026-03-29T14:17:14.999Z</time></trkpt><trkpt lat="43.05843627632094" lon="10.564286810676816"><ele>34.0</ele><time>2026-03-29T14:17:15.999Z</time></trkpt><trkpt lat="43.05869230954714" lon="10.564095886592442"><ele>34.0</ele><time>2026-03-29T14:17:16.999Z</time></trkpt><trkpt lat="43.058949373239386" lon="10.56390456633723"><ele>34.0</ele><time>2026-03-29T14:17:17.999Z</time></trkpt><trkpt lat="43.059206433588216" lon="10.563712864084938"><ele>34.0</ele><time>2026-03-29T14:17:18.999Z</time></trkpt><trkpt lat="43.05946316717221" lon="10.563519732005206"><ele>34.0</ele><time>2026-03-29T14:17:19.999Z</time></trkpt><trkpt lat="43.05972505568016" lon="10.563330434354292"><ele>34.0</ele><time>2026-03-29T14:17:20.999Z</time></trkpt><trkpt lat="43.05998618969233" lon="10.563148259965054"><ele>33.5</ele><time>2026-03-29T14:17:21.999Z</time></trkpt><trkpt lat="43.06024658445919" lon="10.562983120909498"><ele>33.0</ele><time>2026-03-29T14:17:22.999Z</time></trkpt><trkpt lat="43.060487419542625" lon="10.562841075137365"><ele>33.0</ele><time>2026-03-29T14:17:23.999Z</time></trkpt><trkpt lat="43.06071920971043" lon="10.562707453229137"><ele>33.0</ele><time>2026-03-29T14:17:24.999Z</time></trkpt><trkpt lat="43.06094829746071" lon="10.562570770414238"><ele>33.0</ele><time>2026-03-29T14:17:25.999Z</time></trkpt><trkpt lat="43.0611830963651" lon="10.562436978852682"><ele>33.0</ele><time>2026-03-29T14:17:26.999Z</time></trkpt><trkpt lat="43.061428519339486" lon="10.562318811586662"><ele>31.5</ele><time>2026-03-29T14:17:27.999Z</time></trkpt><trkpt lat="43.06166979936224" lon="10.562202536536399"><ele>30.0</ele><time>2026-03-29T14:17:28.999Z</time></trkpt><trkpt lat="43.0619149661656" lon="10.562096070345262"><ele>27.5</ele><time>2026-03-29T14:17:29.999Z</time></trkpt><trkpt lat="43.06216188619376" lon="10.561993991384545"><ele>25.0</ele><time>2026-03-29T14:17:30.999Z</time></trkpt><trkpt lat="43.06240637683775" lon="10.561899311590338"><ele>26.0</ele><time>2026-03-29T14:17:31.999Z</time></trkpt><trkpt lat="43.06265503106814" lon="10.561810300243916"><ele>27.0</ele><time>2026-03-29T14:17:32.999Z</time></trkpt><trkpt lat="43.06290159902048" lon="10.561727489583069"><ele>27.0</ele><time>2026-03-29T14:17:33.999Z</time></trkpt><trkpt lat="43.06314729608505" lon="10.561648266225745"><ele>27.0</ele><time>2026-03-29T14:17:34.999Z</time></trkpt><trkpt lat="43.06339778305783" lon="10.561575466412664"><ele>27.5</ele><time>2026-03-29T14:17:35.999Z</time></trkpt><trkpt lat="43.0636510819487" lon="10.56151107644056"><ele>28.0</ele><time>2026-03-29T14:17:36.999Z</time></trkpt><trkpt lat="43.06390500860405" lon="10.56145026234392"><ele>28.5</ele><time>2026-03-29T14:17:37.999Z</time></trkpt><trkpt lat="43.06415946850625" lon="10.561390185940995"><ele>29.0</ele><time>2026-03-29T14:17:38.999Z</time></trkpt><trkpt lat="43.06441601679693" lon="10.561327747409758"><ele>29.0</ele><time>2026-03-29T14:17:40Z</time></trkpt><trkpt lat="43.06467361965978" lon="10.561266551493661"><ele>29.0</ele><time>2026-03-29T14:17:41Z</time></trkpt><trkpt lat="43.06492871788091" lon="10.561222241735765"><ele>28.5</ele><time>2026-03-29T14:17:42Z</time></trkpt><trkpt lat="43.06518381949642" lon="10.561172001449146"><ele>28.0</ele><time>2026-03-29T14:17:43Z</time></trkpt><trkpt lat="43.065439613919786" lon="10.561118977454875"><ele>28.0</ele><time>2026-03-29T14:17:44Z</time></trkpt><trkpt lat="43.06569470088496" lon="10.561066942132578"><ele>28.0</ele><time>2026-03-29T14:17:45Z</time></trkpt><trkpt lat="43.06595202278552" lon="10.561013322690808"><ele>28.0</ele><time>2026-03-29T14:17:46Z</time></trkpt><trkpt lat="43.0662085742447" lon="10.56096140685877"><ele>28.0</ele><time>2026-03-29T14:17:47Z</time></trkpt><trkpt lat="43.06646726051205" lon="10.560911136483181"><ele>30.0</ele><time>2026-03-29T14:17:48Z</time></trkpt><trkpt lat="43.066722831565365" lon="10.560856195268782"><ele>32.0</ele><time>2026-03-29T14:17:49Z</time></trkpt><trkpt lat="43.066976812359584" lon="10.560801388857376"><ele>32.0</ele><time>2026-03-29T14:17:50Z</time></trkpt><trkpt lat="43.06722477089659" lon="10.560752406960939"><ele>32.0</ele><time>2026-03-29T14:17:51Z</time></trkpt><trkpt lat="43.067476146765465" lon="10.560705161150464"><ele>32.5</ele><time>2026-03-29T14:17:52Z</time></trkpt><trkpt lat="43.067731937969825" lon="10.560657570759101"><ele>33.0</ele><time>2026-03-29T14:17:53Z</time></trkpt><trkpt lat="43.06798188252122" lon="10.560603548358642"><ele>33.0</ele><time>2026-03-29T14:17:54Z</time></trkpt><trkpt lat="43.06823140280687" lon="10.56055439544971"><ele>33.0</ele><time>2026-03-29T14:17:55Z</time></trkpt><trkpt lat="43.0684797456096" lon="10.560503531594115"><ele>32.5</ele><time>2026-03-29T14:17:56Z</time></trkpt><trkpt lat="43.06872612157817" lon="10.560457330998073"><ele>32.0</ele><time>2026-03-29T14:17:57Z</time></trkpt><trkpt lat="43.06897316449053" lon="10.560409319685975"><ele>33.5</ele><time>2026-03-29T14:17:58Z</time></trkpt><trkpt lat="43.069217586904585" lon="10.56036240261652"><ele>35.0</ele><time>2026-03-29T14:17:59Z</time></trkpt><trkpt lat="43.06946360772109" lon="10.560314186094045"><ele>35.0</ele><time>2026-03-29T14:18:00Z</time></trkpt><trkpt lat="43.06970906668344" lon="10.5602607960621"><ele>35.0</ele><time>2026-03-29T14:18:01Z</time></trkpt><trkpt lat="43.069952366155974" lon="10.560208848134346"><ele>35.5</ele><time>2026-03-29T14:18:02Z</time></trkpt><trkpt lat="43.07019967692381" lon="10.56015741402294"><ele>36.0</ele><time>2026-03-29T14:18:03Z</time></trkpt><trkpt lat="43.07044697178629" lon="10.560106311089049"><ele>36.0</ele><time>2026-03-29T14:18:04Z</time></trkpt><trkpt lat="43.07069627981368" lon="10.560054419758432"><ele>36.0</ele><time>2026-03-29T14:18:05Z</time></trkpt><trkpt lat="43.07094534134036" lon="10.560005630594354"><ele>36.5</ele><time>2026-03-29T14:18:06Z</time></trkpt><trkpt lat="43.07119552452398" lon="10.559957125634707"><ele>37.0</ele><time>2026-03-29T14:18:07Z</time></trkpt><trkpt lat="43.07144452461695" lon="10.55990815362029"><ele>37.0</ele><time>2026-03-29T14:18:08Z</time></trkpt><trkpt lat="43.071690031937294" lon="10.559858834901211"><ele>37.0</ele><time>2026-03-29T14:18:09Z</time></trkpt><trkpt lat="43.0719359672388" lon="10.559806214581318"><ele>37.0</ele><time>2026-03-29T14:18:10Z</time></trkpt><trkpt lat="43.07218228535002" lon="10.559752056920383"><ele>37.0</ele><time>2026-03-29T14:18:11Z</time></trkpt><trkpt lat="43.07243044390232" lon="10.559700749362642"><ele>38.5</ele><time>2026-03-29T14:18:12Z</time></trkpt><trkpt lat="43.0726789377999" lon="10.55964970413196"><ele>40.0</ele><time>2026-03-29T14:18:13Z</time></trkpt><trkpt lat="43.07292980322848" lon="10.559600989781595"><ele>40.0</ele><time>2026-03-29T14:18:14Z</time></trkpt><trkpt lat="43.07317868126829" lon="10.559549499434095"><ele>40.0</ele><time>2026-03-29T14:18:15Z</time></trkpt><trkpt lat="43.07343458228838" lon="10.559496918759491"><ele>39.5</ele><time>2026-03-29T14:18:16Z</time></trkpt><trkpt lat="43.073685758830024" lon="10.559443185179704"><ele>39.0</ele><time>2026-03-29T14:18:17Z</time></trkpt><trkpt lat="43.07393811042837" lon="10.559389321636274"><ele>39.0</ele><time>2026-03-29T14:18:18Z</time></trkpt><trkpt lat="43.07419193422027" lon="10.559339139024413"><ele>39.0</ele><time>2026-03-29T14:18:19Z</time></trkpt><trkpt lat="43.07444577995958" lon="10.559286100325439"><ele>39.0</ele><time>2026-03-29T14:18:20Z</time></trkpt><trkpt lat="43.07470250555373" lon="10.559233660442858"><ele>39.0</ele><time>2026-03-29T14:18:21Z</time></trkpt><trkpt lat="43.0749585848997" lon="10.559180703181408"><ele>40.0</ele><time>2026-03-29T14:18:22Z</time></trkpt><trkpt lat="43.07521573772174" lon="10.559129114136246"><ele>41.0</ele><time>2026-03-29T14:18:23Z</time></trkpt><trkpt lat="43.07547038559546" lon="10.559076831736027"><ele>41.0</ele><time>2026-03-29T14:18:24Z</time></trkpt><trkpt lat="43.07572840901039" lon="10.559025027168246"><ele>41.0</ele><time>2026-03-29T14:18:25Z</time></trkpt><trkpt lat="43.07598652453169" lon="10.558972811753403"><ele>40.5</ele><time>2026-03-29T14:18:26Z</time></trkpt><trkpt lat="43.07624483070833" lon="10.558920689478729"><ele>40.0</ele><time>2026-03-29T14:18:27Z</time></trkpt><trkpt lat="43.07650240737905" lon="10.558869970746883"><ele>40.0</ele><time>2026-03-29T14:18:28Z</time></trkpt><trkpt lat="43.076762603967055" lon="10.558819318438909"><ele>40.0</ele><time>2026-03-29T14:18:29Z</time></trkpt><trkpt lat="43.07701738580319" lon="10.558766993713833"><ele>40.0</ele><time>2026-03-29T14:18:30Z</time></trkpt><trkpt lat="43.07725791398613" lon="10.5587184127028"><ele>40.0</ele><time>2026-03-29T14:18:31Z</time></trkpt><trkpt lat="43.077498858356755" lon="10.558669884930143"><ele>38.5</ele><time>2026-03-29T14:18:32Z</time></trkpt><trkpt lat="43.077741880031354" lon="10.55861761829071"><ele>37.0</ele><time>2026-03-29T14:18:33Z</time></trkpt><trkpt lat="43.07798481654174" lon="10.55856347401017"><ele>37.0</ele><time>2026-03-29T14:18:34Z</time></trkpt><trkpt lat="43.07822848112223" lon="10.558508395689826"><ele>37.0</ele><time>2026-03-29T14:18:35Z</time></trkpt><trkpt lat="43.078471614149386" lon="10.55845006252603"><ele>38.5</ele><time>2026-03-29T14:18:36Z</time></trkpt><trkpt lat="43.078711057325" lon="10.558385392121513"><ele>40.0</ele><time>2026-03-29T14:18:37Z</time></trkpt><trkpt lat="43.07895933134006" lon="10.558316673782526"><ele>38.5</ele><time>2026-03-29T14:18:38Z</time></trkpt><trkpt lat="43.07919979754598" lon="10.558242905045233"><ele>37.0</ele><time>2026-03-29T14:18:39Z</time></trkpt><trkpt lat="43.079440404805936" lon="10.558171741755494"><ele>37.0</ele><time>2026-03-29T14:18:40Z</time></trkpt><trkpt lat="43.07968283548197" lon="10.558096724034796"><ele>37.0</ele><time>2026-03-29T14:18:41Z</time></trkpt><trkpt lat="43.079923959392396" lon="10.55800989443283"><ele>37.5</ele><time>2026-03-29T14:18:42Z</time></trkpt><trkpt lat="43.080170278154306" lon="10.557924530884518"><ele>38.0</ele><time>2026-03-29T14:18:43Z</time></trkpt><trkpt lat="43.08040958461824" lon="10.557833964525027"><ele>37.5</ele><time>2026-03-29T14:18:44Z</time></trkpt><trkpt lat="43.0806573258292" lon="10.557745164712252"><ele>37.0</ele><time>2026-03-29T14:18:45Z</time></trkpt><trkpt lat="43.08090138297408" lon="10.557654386596186"><ele>37.0</ele><time>2026-03-29T14:18:46Z</time></trkpt><trkpt lat="43.08114104285192" lon="10.55755908765037"><ele>37.0</ele><time>2026-03-29T14:18:47Z</time></trkpt><trkpt lat="43.08137760683011" lon="10.557461366028704"><ele>36.5</ele><time>2026-03-29T14:18:48Z</time></trkpt><trkpt lat="43.081611698679225" lon="10.55735517293344"><ele>36.0</ele><time>2026-03-29T14:18:49Z</time></trkpt><trkpt lat="43.08184507259959" lon="10.557248739339562"><ele>36.0</ele><time>2026-03-29T14:18:49.999Z</time></trkpt><trkpt lat="43.082080578198735" lon="10.557144324492738"><ele>36.0</ele><time>2026-03-29T14:18:50.999Z</time></trkpt><trkpt lat="43.08231252841601" lon="10.557040225230788"><ele>35.5</ele><time>2026-03-29T14:18:51.999Z</time></trkpt><trkpt lat="43.08254527990547" lon="10.556931730420825"><ele>35.0</ele><time>2026-03-29T14:18:52.999Z</time></trkpt><trkpt lat="43.082774263853715" lon="10.556817139912484"><ele>35.0</ele><time>2026-03-29T14:18:53.999Z</time></trkpt><trkpt lat="43.083006206445646" lon="10.556699008174455"><ele>35.0</ele><time>2026-03-29T14:18:54.999Z</time></trkpt><trkpt lat="43.08323679199394" lon="10.55657522824547"><ele>34.5</ele><time>2026-03-29T14:18:55.999Z</time></trkpt><trkpt lat="43.083467170607484" lon="10.556449257929977"><ele>34.0</ele><time>2026-03-29T14:18:56.999Z</time></trkpt><trkpt lat="43.08369828994061" lon="10.556322128235474"><ele>33.5</ele><time>2026-03-29T14:18:57.999Z</time></trkpt><trkpt lat="43.08393025436386" lon="10.556193329694839"><ele>33.0</ele><time>2026-03-29T14:18:58.999Z</time></trkpt><trkpt lat="43.08416512325256" lon="10.556065578115778"><ele>33.0</ele><time>2026-03-29T14:18:59.999Z</time></trkpt><trkpt lat="43.084400382785205" lon="10.555940887392214"><ele>33.0</ele><time>2026-03-29T14:19:00.999Z</time></trkpt><trkpt lat="43.08463219119722" lon="10.555818036285162"><ele>33.0</ele><time>2026-03-29T14:19:01.999Z</time></trkpt><trkpt lat="43.08487118554504" lon="10.555692114655873"><ele>33.0</ele><time>2026-03-29T14:19:02.999Z</time></trkpt><trkpt lat="43.085111859688126" lon="10.555564192880675"><ele>33.0</ele><time>2026-03-29T14:19:03.999Z</time></trkpt><trkpt lat="43.0853489487171" lon="10.555432793835921"><ele>33.0</ele><time>2026-03-29T14:19:04.999Z</time></trkpt><trkpt lat="43.08558668567916" lon="10.555301297943567"><ele>31.5</ele><time>2026-03-29T14:19:05.999Z</time></trkpt><trkpt lat="43.085825010884506" lon="10.555169607145542"><ele>30.0</ele><time>2026-03-29T14:19:06.999Z</time></trkpt><trkpt lat="43.08605799670546" lon="10.555038464391002"><ele>30.0</ele><time>2026-03-29T14:19:07.999Z</time></trkpt><trkpt lat="43.08627785084617" lon="10.554919162274135"><ele>30.0</ele><time>2026-03-29T14:19:08.999Z</time></trkpt><trkpt lat="43.08649783528366" lon="10.554796682942301"><ele>29.5</ele><time>2026-03-29T14:19:09.999Z</time></trkpt><trkpt lat="43.08672037837071" lon="10.554672899448192"><ele>29.0</ele><time>2026-03-29T14:19:10.999Z</time></trkpt><trkpt lat="43.086950075442516" lon="10.554548980623798"><ele>27.5</ele><time>2026-03-29T14:19:11.999Z</time></trkpt><trkpt lat="43.08717922460264" lon="10.554422177472684"><ele>26.0</ele><time>2026-03-29T14:19:12.999Z</time></trkpt><trkpt lat="43.087413750366466" lon="10.554294989440276"><ele>27.0</ele><time>2026-03-29T14:19:13.999Z</time></trkpt><trkpt lat="43.08764993490354" lon="10.554166536792685"><ele>28.0</ele><time>2026-03-29T14:19:14.999Z</time></trkpt><trkpt lat="43.0878892518941" lon="10.554038792337218"><ele>28.0</ele><time>2026-03-29T14:19:15.999Z</time></trkpt><trkpt lat="43.08812965503033" lon="10.553909685711481"><ele>28.0</ele><time>2026-03-29T14:19:16.999Z</time></trkpt><trkpt lat="43.0883707474968" lon="10.553776768648937"><ele>27.0</ele><time>2026-03-29T14:19:17.999Z</time></trkpt><trkpt lat="43.088608617751206" lon="10.553645588904164"><ele>26.0</ele><time>2026-03-29T14:19:18.999Z</time></trkpt><trkpt lat="43.08883882640069" lon="10.553519019093507"><ele>26.0</ele><time>2026-03-29T14:19:19.999Z</time></trkpt><trkpt lat="43.08907169781685" lon="10.55339156792829"><ele>26.0</ele><time>2026-03-29T14:19:20.999Z</time></trkpt><trkpt lat="43.08930694913794" lon="10.553264105990435"><ele>25.5</ele><time>2026-03-29T14:19:21.999Z</time></trkpt><trkpt lat="43.089544316765966" lon="10.553135172419937"><ele>25.0</ele><time>2026-03-29T14:19:22.999Z</time></trkpt><trkpt lat="43.08978354361696" lon="10.5530067012423"><ele>25.0</ele><time>2026-03-29T14:19:23.999Z</time></trkpt><trkpt lat="43.09002486440249" lon="10.552877013082052"><ele>25.0</ele><time>2026-03-29T14:19:24.999Z</time></trkpt><trkpt lat="43.09026531094996" lon="10.552745598944592"><ele>24.5</ele><time>2026-03-29T14:19:25.999Z</time></trkpt><trkpt lat="43.090504271330964" lon="10.552613006963217"><ele>24.0</ele><time>2026-03-29T14:19:26.999Z</time></trkpt><trkpt lat="43.09074812486738" lon="10.552479856860575"><ele>25.0</ele><time>2026-03-29T14:19:27.999Z</time></trkpt><trkpt lat="43.09098813018997" lon="10.552348741652217"><ele>26.0</ele><time>2026-03-29T14:19:28.999Z</time></trkpt><trkpt lat="43.0912297671805" lon="10.55222173716691"><ele>26.0</ele><time>2026-03-29T14:19:29.999Z</time></trkpt><trkpt lat="43.09146847020526" lon="10.552091479128487"><ele>26.0</ele><time>2026-03-29T14:19:30.999Z</time></trkpt><trkpt lat="43.09170629798361" lon="10.551958398830093"><ele>25.0</ele><time>2026-03-29T14:19:31.999Z</time></trkpt><trkpt lat="43.09194400543795" lon="10.55182143904865"><ele>24.0</ele><time>2026-03-29T14:19:32.999Z</time></trkpt><trkpt lat="43.092185607931754" lon="10.551688110452968"><ele>23.0</ele><time>2026-03-29T14:19:33.999Z</time></trkpt><trkpt lat="43.09242714926635" lon="10.551557757350356"><ele>22.0</ele><time>2026-03-29T14:19:34.999Z</time></trkpt><trkpt lat="43.09266551474403" lon="10.551430050929755"><ele>22.0</ele><time>2026-03-29T14:19:35.999Z</time></trkpt><trkpt lat="43.092905901236" lon="10.551299723386451"><ele>22.0</ele><time>2026-03-29T14:19:36.999Z</time></trkpt><trkpt lat="43.09314959866273" lon="10.551170790972193"><ele>22.0</ele><time>2026-03-29T14:19:37.999Z</time></trkpt><trkpt lat="43.093384387979505" lon="10.551040506970486"><ele>22.0</ele><time>2026-03-29T14:19:38.999Z</time></trkpt><trkpt lat="43.09362195880226" lon="10.55091026958145"><ele>22.0</ele><time>2026-03-29T14:19:39.999Z</time></trkpt><trkpt lat="43.0938547376179" lon="10.55077993311242"><ele>22.0</ele><time>2026-03-29T14:19:40.999Z</time></trkpt><trkpt lat="43.09409156219434" lon="10.550649083982222"><ele>21.5</ele><time>2026-03-29T14:19:41.999Z</time></trkpt><trkpt lat="43.09432730774784" lon="10.550521188425948"><ele>21.0</ele><time>2026-03-29T14:19:42.999Z</time></trkpt><trkpt lat="43.09456412060284" lon="10.550395210336891"><ele>21.0</ele><time>2026-03-29T14:19:43.999Z</time></trkpt><trkpt lat="43.09480364623106" lon="10.55026944291561"><ele>21.0</ele><time>2026-03-29T14:19:44.999Z</time></trkpt><trkpt lat="43.095040806265644" lon="10.55014075058879"><ele>21.0</ele><time>2026-03-29T14:19:46Z</time></trkpt><trkpt lat="43.09527637649648" lon="10.550012957645402"><ele>21.0</ele><time>2026-03-29T14:19:47Z</time></trkpt><trkpt lat="43.095513075805286" lon="10.549887791690095"><ele>22.5</ele><time>2026-03-29T14:19:48Z</time></trkpt><trkpt lat="43.09575509981397" lon="10.549767152005652"><ele>24.0</ele><time>2026-03-29T14:19:49Z</time></trkpt><trkpt lat="43.09599975138638" lon="10.549651333747805"><ele>24.0</ele><time>2026-03-29T14:19:50Z</time></trkpt><trkpt lat="43.096243043650446" lon="10.549545815324215"><ele>24.0</ele><time>2026-03-29T14:19:51Z</time></trkpt><trkpt lat="43.09648890826518" lon="10.549443189508615"><ele>25.5</ele><time>2026-03-29T14:19:52Z</time></trkpt><trkpt lat="43.09673607727952" lon="10.549338359398957"><ele>27.0</ele><time>2026-03-29T14:19:53Z</time></trkpt><trkpt lat="43.096982754666804" lon="10.549234039733305"><ele>27.0</ele><time>2026-03-29T14:19:54Z</time></trkpt><trkpt lat="43.0972297092723" lon="10.549135664551427"><ele>27.0</ele><time>2026-03-29T14:19:55Z</time></trkpt><trkpt lat="43.09748168211216" lon="10.549038192112974"><ele>30.5</ele><time>2026-03-29T14:19:56Z</time></trkpt><trkpt lat="43.09772837052428" lon="10.54893807273686"><ele>34.0</ele><time>2026-03-29T14:19:57Z</time></trkpt><trkpt lat="43.09798134618079" lon="10.548840859375135"><ele>34.0</ele><time>2026-03-29T14:19:58Z</time></trkpt><trkpt lat="43.09824009668963" lon="10.548748142705065"><ele>34.0</ele><time>2026-03-29T14:19:59Z</time></trkpt><trkpt lat="43.09849305675332" lon="10.548663455039778"><ele>35.5</ele><time>2026-03-29T14:20:00Z</time></trkpt><trkpt lat="43.0987499852169" lon="10.548589539233774"><ele>37.0</ele><time>2026-03-29T14:20:01Z</time></trkpt><trkpt lat="43.099008130414006" lon="10.548519313665258"><ele>40.0</ele><time>2026-03-29T14:20:02Z</time></trkpt><trkpt lat="43.0992764021809" lon="10.548458334946996"><ele>43.0</ele><time>2026-03-29T14:20:03.015Z</time></trkpt><trkpt lat="43.09953740903032" lon="10.548392726046592"><ele>43.0</ele><time>2026-03-29T14:20:04.017Z</time></trkpt><trkpt lat="43.0997968427416" lon="10.548321891849428"><ele>43.0</ele><time>2026-03-29T14:20:05.02Z</time></trkpt><trkpt lat="43.100058623507316" lon="10.54825229555612"><ele>39.5</ele><time>2026-03-29T14:20:06.019Z</time></trkpt><trkpt lat="43.100324355498024" lon="10.548183064661904"><ele>36.0</ele><time>2026-03-29T14:20:07.016Z</time></trkpt><trkpt lat="43.10563175477377" lon="10.546667547906326"><ele>30.0</ele><time>2026-03-29T14:20:27Z</time></trkpt><trkpt lat="43.105898655087124" lon="10.546592765241826"><ele>24.0</ele><time>2026-03-29T14:20:28Z</time></trkpt><trkpt lat="43.106112300250956" lon="10.546511716564355"><ele>24.0</ele><time>2026-03-29T14:20:29Z</time></trkpt><trkpt lat="43.10637010790969" lon="10.546436748194235"><ele>24.0</ele><time>2026-03-29T14:20:30Z</time></trkpt><trkpt lat="43.10662139252839" lon="10.54636030650438"><ele>20.5</ele><time>2026-03-29T14:20:31Z</time></trkpt><trkpt lat="43.10687741534023" lon="10.54628452428335"><ele>17.0</ele><time>2026-03-29T14:20:32Z</time></trkpt><trkpt lat="43.10713027522321" lon="10.54620558377621"><ele>16.5</ele><time>2026-03-29T14:20:33Z</time></trkpt><trkpt lat="43.10738336943561" lon="10.546130377352437"><ele>16.0</ele><time>2026-03-29T14:20:34Z</time></trkpt><trkpt lat="43.107637075185416" lon="10.546052781417815"><ele>16.0</ele><time>2026-03-29T14:20:35Z</time></trkpt><trkpt lat="43.1078895831605" lon="10.545979562154548"><ele>16.0</ele><time>2026-03-29T14:20:36Z</time></trkpt><trkpt lat="43.10813999514349" lon="10.545908263564018"><ele>15.0</ele><time>2026-03-29T14:20:37Z</time></trkpt><trkpt lat="43.108388168567494" lon="10.545839472140441"><ele>14.0</ele><time>2026-03-29T14:20:38Z</time></trkpt><trkpt lat="43.10863756271349" lon="10.545778685242691"><ele>14.0</ele><time>2026-03-29T14:20:39Z</time></trkpt><trkpt lat="43.10887996100922" lon="10.545717597324884"><ele>14.0</ele><time>2026-03-29T14:20:40Z</time></trkpt><trkpt lat="43.10912331664295" lon="10.545663400488374"><ele>17.5</ele><time>2026-03-29T14:20:41Z</time></trkpt><trkpt lat="43.10936773517802" lon="10.545614797593784"><ele>21.0</ele><time>2026-03-29T14:20:42Z</time></trkpt><trkpt lat="43.109607745570294" lon="10.545568625226393"><ele>21.0</ele><time>2026-03-29T14:20:43Z</time></trkpt><trkpt lat="43.10984899866493" lon="10.545520782889907"><ele>21.0</ele><time>2026-03-29T14:20:44Z</time></trkpt><trkpt lat="43.11008972427528" lon="10.545477962132448"><ele>26.5</ele><time>2026-03-29T14:20:45Z</time></trkpt><trkpt lat="43.11032622363726" lon="10.545433147505122"><ele>32.0</ele><time>2026-03-29T14:20:46Z</time></trkpt><trkpt lat="43.11057510830224" lon="10.545394870761708"><ele>27.0</ele><time>2026-03-29T14:20:47Z</time></trkpt><trkpt lat="43.11081708016251" lon="10.545360808129129"><ele>22.0</ele><time>2026-03-29T14:20:48Z</time></trkpt><trkpt lat="43.1110673248508" lon="10.545322865318342"><ele>22.0</ele><time>2026-03-29T14:20:49Z</time></trkpt><trkpt lat="43.11131625172965" lon="10.545294045124649"><ele>22.0</ele><time>2026-03-29T14:20:50Z</time></trkpt><trkpt lat="43.11156716706245" lon="10.54526926745129"><ele>20.5</ele><time>2026-03-29T14:20:51Z</time></trkpt><trkpt lat="43.11181848678101" lon="10.545248714745691"><ele>19.0</ele><time>2026-03-29T14:20:52Z</time></trkpt><trkpt lat="43.11207088619095" lon="10.545227443184999"><ele>19.0</ele><time>2026-03-29T14:20:53Z</time></trkpt><trkpt lat="43.11232527662289" lon="10.545202282628297"><ele>19.0</ele><time>2026-03-29T14:20:54Z</time></trkpt><trkpt lat="43.112580606526095" lon="10.545171389554678"><ele>17.5</ele><time>2026-03-29T14:20:55Z</time></trkpt><trkpt lat="43.112837579365014" lon="10.545146967271284"><ele>16.0</ele><time>2026-03-29T14:20:56Z</time></trkpt><trkpt lat="43.11309820527608" lon="10.545119647769022"><ele>14.5</ele><time>2026-03-29T14:20:57Z</time></trkpt><trkpt lat="43.11335545982085" lon="10.545091587134024"><ele>13.0</ele><time>2026-03-29T14:20:58Z</time></trkpt><trkpt lat="43.113613340025154" lon="10.545061835297101"><ele>13.0</ele><time>2026-03-29T14:20:59Z</time></trkpt><trkpt lat="43.113874448911396" lon="10.545034252796588"><ele>13.0</ele><time>2026-03-29T14:21:00Z</time></trkpt><trkpt lat="43.11413669532479" lon="10.545004680098259"><ele>13.5</ele><time>2026-03-29T14:21:01Z</time></trkpt><trkpt lat="43.11439255480322" lon="10.54497436374028"><ele>14.0</ele><time>2026-03-29T14:21:02Z</time></trkpt><trkpt lat="43.11465062000801" lon="10.544944748413874"><ele>13.0</ele><time>2026-03-29T14:21:03Z</time></trkpt><trkpt lat="43.114908010579065" lon="10.544913807542867"><ele>12.0</ele><time>2026-03-29T14:21:04Z</time></trkpt><trkpt lat="43.11516903882066" lon="10.544881652422633"><ele>12.0</ele><time>2026-03-29T14:21:05Z</time></trkpt><trkpt lat="43.11542925512946" lon="10.544847414932665"><ele>12.0</ele><time>2026-03-29T14:21:06Z</time></trkpt><trkpt lat="43.115692079607896" lon="10.544820461448843"><ele>12.0</ele><time>2026-03-29T14:21:07Z</time></trkpt><trkpt lat="43.11595660606203" lon="10.54479666858022"><ele>12.0</ele><time>2026-03-29T14:21:08Z</time></trkpt><trkpt lat="43.116225617625275" lon="10.544782189973361"><ele>12.0</ele><time>2026-03-29T14:21:09Z</time></trkpt><trkpt lat="43.11649251346509" lon="10.544758660431906"><ele>12.0</ele><time>2026-03-29T14:21:09.999Z</time></trkpt><trkpt lat="43.11675790282725" lon="10.544729543048673"><ele>11.0</ele><time>2026-03-29T14:21:10.999Z</time></trkpt><trkpt lat="43.117019873236735" lon="10.544699333976261"><ele>10.0</ele><time>2026-03-29T14:21:11.999Z</time></trkpt><trkpt lat="43.11728651160387" lon="10.544671709432473"><ele>11.5</ele><time>2026-03-29T14:21:12.999Z</time></trkpt><trkpt lat="43.11755055590332" lon="10.544646740659443"><ele>13.0</ele><time>2026-03-29T14:21:13.999Z</time></trkpt><trkpt lat="43.11781515868738" lon="10.544622859901184"><ele>13.0</ele><time>2026-03-29T14:21:14.999Z</time></trkpt><trkpt lat="43.11807961065998" lon="10.544601260825905"><ele>13.0</ele><time>2026-03-29T14:21:15.999Z</time></trkpt><trkpt lat="43.11834224311121" lon="10.544584143312337"><ele>12.5</ele><time>2026-03-29T14:21:16.999Z</time></trkpt><trkpt lat="43.118604224443104" lon="10.54458463567425"><ele>12.0</ele><time>2026-03-29T14:21:17.999Z</time></trkpt><trkpt lat="43.118872564174545" lon="10.544582454112405"><ele>12.5</ele><time>2026-03-29T14:21:18.999Z</time></trkpt><trkpt lat="43.119136967157104" lon="10.544586782642199"><ele>13.0</ele><time>2026-03-29T14:21:19.999Z</time></trkpt><trkpt lat="43.119398136915706" lon="10.544597822988624"><ele>13.0</ele><time>2026-03-29T14:21:20.999Z</time></trkpt><trkpt lat="43.11965873826211" lon="10.544612203335017"><ele>13.0</ele><time>2026-03-29T14:21:21.999Z</time></trkpt><trkpt lat="43.11992026374428" lon="10.544630975342006"><ele>12.5</ele><time>2026-03-29T14:21:22.999Z</time></trkpt><trkpt lat="43.12018072395297" lon="10.544661151113269"><ele>12.0</ele><time>2026-03-29T14:21:23.999Z</time></trkpt><trkpt lat="43.12044516427844" lon="10.544695127861932"><ele>12.0</ele><time>2026-03-29T14:21:24.999Z</time></trkpt><trkpt lat="43.120707847276094" lon="10.544742917758512"><ele>12.0</ele><time>2026-03-29T14:21:25.999Z</time></trkpt><trkpt lat="43.12096479702716" lon="10.544794254124097"><ele>11.0</ele><time>2026-03-29T14:21:26.999Z</time></trkpt><trkpt lat="43.12122538738893" lon="10.544851052526994"><ele>10.0</ele><time>2026-03-29T14:21:27.999Z</time></trkpt><trkpt lat="43.12148310848116" lon="10.544916657257245"><ele>10.0</ele><time>2026-03-29T14:21:28.999Z</time></trkpt><trkpt lat="43.12174078714614" lon="10.544987299959896"><ele>10.0</ele><time>2026-03-29T14:21:29.999Z</time></trkpt><trkpt lat="43.12199566022726" lon="10.545060495639973"><ele>10.0</ele><time>2026-03-29T14:21:30.999Z</time></trkpt><trkpt lat="43.12225134108785" lon="10.545140124342936"><ele>10.0</ele><time>2026-03-29T14:21:31.999Z</time></trkpt><trkpt lat="43.12250449726447" lon="10.545231526973497"><ele>10.0</ele><time>2026-03-29T14:21:32.999Z</time></trkpt><trkpt lat="43.12275586554933" lon="10.545332986825793"><ele>10.0</ele><time>2026-03-29T14:21:33.999Z</time></trkpt><trkpt lat="43.12300855121355" lon="10.545441014057987"><ele>10.0</ele><time>2026-03-29T14:21:34.999Z</time></trkpt><trkpt lat="43.12326103667932" lon="10.54554792459903"><ele>10.0</ele><time>2026-03-29T14:21:35.999Z</time></trkpt><trkpt lat="43.12351458684377" lon="10.545650824858008"><ele>10.0</ele><time>2026-03-29T14:21:36.999Z</time></trkpt><trkpt lat="43.12376678311276" lon="10.545752616782247"><ele>10.0</ele><time>2026-03-29T14:21:37.999Z</time></trkpt><trkpt lat="43.12401813229345" lon="10.545862278217717"><ele>9.0</ele><time>2026-03-29T14:21:38.999Z</time></trkpt><trkpt lat="43.124267451870864" lon="10.545968073122808"><ele>8.0</ele><time>2026-03-29T14:21:39.999Z</time></trkpt><trkpt lat="43.12452010366396" lon="10.546069932782833"><ele>8.0</ele><time>2026-03-29T14:21:40.999Z</time></trkpt><trkpt lat="43.12477277675656" lon="10.546170772106889"><ele>8.0</ele><time>2026-03-29T14:21:41.999Z</time></trkpt><trkpt lat="43.12501970480392" lon="10.546274824896448"><ele>8.0</ele><time>2026-03-29T14:21:42.999Z</time></trkpt><trkpt lat="43.12526555994881" lon="10.546380907849938"><ele>8.0</ele><time>2026-03-29T14:21:43.999Z</time></trkpt><trkpt lat="43.12551381548165" lon="10.54648821972541"><ele>9.0</ele><time>2026-03-29T14:21:44.999Z</time></trkpt><trkpt lat="43.12575945708849" lon="10.546594742761972"><ele>10.0</ele><time>2026-03-29T14:21:45.999Z</time></trkpt><trkpt lat="43.12600544382709" lon="10.546701639415378"><ele>10.0</ele><time>2026-03-29T14:21:46.999Z</time></trkpt><trkpt lat="43.12625153013159" lon="10.546805869237836"><ele>10.0</ele><time>2026-03-29T14:21:47.999Z</time></trkpt><trkpt lat="43.12649953741805" lon="10.546908495833845"><ele>10.0</ele><time>2026-03-29T14:21:48.999Z</time></trkpt><trkpt lat="43.12674973397886" lon="10.547012869447494"><ele>10.0</ele><time>2026-03-29T14:21:49.999Z</time></trkpt><trkpt lat="43.1269990249762" lon="10.547115175809225"><ele>10.0</ele><time>2026-03-29T14:21:50.999Z</time></trkpt><trkpt lat="43.12724948115635" lon="10.54721795626734"><ele>10.0</ele><time>2026-03-29T14:21:52Z</time></trkpt><trkpt lat="43.12749445003266" lon="10.547319120225621"><ele>10.0</ele><time>2026-03-29T14:21:53Z</time></trkpt><trkpt lat="43.12773744164599" lon="10.54742367789025"><ele>10.0</ele><time>2026-03-29T14:21:54Z</time></trkpt><trkpt lat="43.12798186336375" lon="10.547528318902406"><ele>10.0</ele><time>2026-03-29T14:21:55Z</time></trkpt><trkpt lat="43.12822634221971" lon="10.547633164336968"><ele>10.0</ele><time>2026-03-29T14:21:56Z</time></trkpt><trkpt lat="43.128467680314785" lon="10.547737763266685"><ele>10.0</ele><time>2026-03-29T14:21:57Z</time></trkpt><trkpt lat="43.12871176368462" lon="10.547843977937216"><ele>10.0</ele><time>2026-03-29T14:21:58Z</time></trkpt><trkpt lat="43.128953559988815" lon="10.547945630565524"><ele>11.0</ele><time>2026-03-29T14:21:59Z</time></trkpt><trkpt lat="43.129198973832516" lon="10.548045421592661"><ele>12.0</ele><time>2026-03-29T14:22:00Z</time></trkpt><trkpt lat="43.129441699712416" lon="10.548142765933312"><ele>12.0</ele><time>2026-03-29T14:22:01Z</time></trkpt><trkpt lat="43.129685992032876" lon="10.548237895088386"><ele>12.0</ele><time>2026-03-29T14:22:02Z</time></trkpt><trkpt lat="43.12992905013106" lon="10.548330817003079"><ele>12.0</ele><time>2026-03-29T14:22:03Z</time></trkpt><trkpt lat="43.13017683810739" lon="10.54842218175688"><ele>12.0</ele><time>2026-03-29T14:22:04Z</time></trkpt><trkpt lat="43.1304201816533" lon="10.548510936579579"><ele>12.0</ele><time>2026-03-29T14:22:05Z</time></trkpt><trkpt lat="43.1306650356926" lon="10.5485961756585"><ele>12.0</ele><time>2026-03-29T14:22:06Z</time></trkpt><trkpt lat="43.13091101647496" lon="10.548679530595932"><ele>12.0</ele><time>2026-03-29T14:22:07Z</time></trkpt><trkpt lat="43.13115529511549" lon="10.548758316847165"><ele>12.0</ele><time>2026-03-29T14:22:08Z</time></trkpt><trkpt lat="43.13140019426563" lon="10.548834880148242"><ele>12.0</ele><time>2026-03-29T14:22:09Z</time></trkpt><trkpt lat="43.13164663383306" lon="10.548910636520086"><ele>12.0</ele><time>2026-03-29T14:22:10Z</time></trkpt><trkpt lat="43.13189379678883" lon="10.548983812790196"><ele>12.0</ele><time>2026-03-29T14:22:11Z</time></trkpt><trkpt lat="43.13213759492464" lon="10.549060938481242"><ele>12.0</ele><time>2026-03-29T14:22:12Z</time></trkpt><trkpt lat="43.132383473440086" lon="10.549137535204533"><ele>11.5</ele><time>2026-03-29T14:22:13Z</time></trkpt><trkpt lat="43.13262977292956" lon="10.549210822529737"><ele>11.0</ele><time>2026-03-29T14:22:14Z</time></trkpt><trkpt lat="43.13287360496462" lon="10.54928274896187"><ele>11.0</ele><time>2026-03-29T14:22:15Z</time></trkpt><trkpt lat="43.133116965410395" lon="10.549349842727203"><ele>11.0</ele><time>2026-03-29T14:22:16Z</time></trkpt><trkpt lat="43.13335689261049" lon="10.549418957280768"><ele>10.5</ele><time>2026-03-29T14:22:17Z</time></trkpt><trkpt lat="43.13360181920622" lon="10.549488965891491"><ele>10.0</ele><time>2026-03-29T14:22:18Z</time></trkpt><trkpt lat="43.13384579388972" lon="10.549560670409196"><ele>11.0</ele><time>2026-03-29T14:22:19Z</time></trkpt><trkpt lat="43.13408842914893" lon="10.54963404524638"><ele>12.0</ele><time>2026-03-29T14:22:20Z</time></trkpt><trkpt lat="43.1343307879779" lon="10.549706024307179"><ele>12.0</ele><time>2026-03-29T14:22:21Z</time></trkpt><trkpt lat="43.1345714471419" lon="10.54977868169311"><ele>12.0</ele><time>2026-03-29T14:22:22Z</time></trkpt><trkpt lat="43.134814865801076" lon="10.549855517734583"><ele>11.5</ele><time>2026-03-29T14:22:23Z</time></trkpt><trkpt lat="43.1350561582994" lon="10.549931751126971"><ele>11.0</ele><time>2026-03-29T14:22:24Z</time></trkpt><trkpt lat="43.13529787643312" lon="10.550006365440504"><ele>11.0</ele><time>2026-03-29T14:22:25Z</time></trkpt><trkpt lat="43.13554198928354" lon="10.550071845621817"><ele>11.0</ele><time>2026-03-29T14:22:26Z</time></trkpt><trkpt lat="43.13578541056888" lon="10.550142772576258"><ele>11.0</ele><time>2026-03-29T14:22:27Z</time></trkpt><trkpt lat="43.13602698314099" lon="10.550215787763188"><ele>11.0</ele><time>2026-03-29T14:22:28Z</time></trkpt><trkpt lat="43.13627190658199" lon="10.55028788545671"><ele>11.0</ele><time>2026-03-29T14:22:29Z</time></trkpt><trkpt lat="43.13651495763411" lon="10.550359819355524"><ele>11.0</ele><time>2026-03-29T14:22:30Z</time></trkpt><trkpt lat="43.13675718905394" lon="10.550430757550432"><ele>11.5</ele><time>2026-03-29T14:22:31Z</time></trkpt><trkpt lat="43.13700124279864" lon="10.550504879591553"><ele>12.0</ele><time>2026-03-29T14:22:32Z</time></trkpt><trkpt lat="43.137239941663736" lon="10.55057786828463"><ele>12.0</ele><time>2026-03-29T14:22:33Z</time></trkpt><trkpt lat="43.13747244942876" lon="10.55065030062928"><ele>12.0</ele><time>2026-03-29T14:22:34Z</time></trkpt><trkpt lat="43.137718795332944" lon="10.550719642388506"><ele>12.0</ele><time>2026-03-29T14:22:35Z</time></trkpt><trkpt lat="43.137958800590376" lon="10.55078734020846"><ele>12.0</ele><time>2026-03-29T14:22:36Z</time></trkpt><trkpt lat="43.13820327945026" lon="10.550860858994417"><ele>13.0</ele><time>2026-03-29T14:22:37Z</time></trkpt><trkpt lat="43.138443295037334" lon="10.550932632362077"><ele>14.0</ele><time>2026-03-29T14:22:38Z</time></trkpt><trkpt lat="43.13868115538416" lon="10.55100973464655"><ele>14.0</ele><time>2026-03-29T14:22:39Z</time></trkpt><trkpt lat="43.13892230240145" lon="10.55108644393811"><ele>14.0</ele><time>2026-03-29T14:22:40Z</time></trkpt><trkpt lat="43.1391652196526" lon="10.551161076866126"><ele>14.5</ele><time>2026-03-29T14:22:41Z</time></trkpt><trkpt lat="43.13940652090933" lon="10.551236589665612"><ele>15.0</ele><time>2026-03-29T14:22:42Z</time></trkpt><trkpt lat="43.1396466305162" lon="10.551310781938634"><ele>14.0</ele><time>2026-03-29T14:22:43Z</time></trkpt><trkpt lat="43.139885301993814" lon="10.551392227301275"><ele>13.0</ele><time>2026-03-29T14:22:44Z</time></trkpt><trkpt lat="43.14012658414498" lon="10.551479938148184"><ele>13.0</ele><time>2026-03-29T14:22:45Z</time></trkpt><trkpt lat="43.14036477413082" lon="10.551571056638585"><ele>13.0</ele><time>2026-03-29T14:22:46Z</time></trkpt><trkpt lat="43.14060732710998" lon="10.551661979070705"><ele>13.0</ele><time>2026-03-29T14:22:47Z</time></trkpt><trkpt lat="43.14085045797983" lon="10.551753037211306"><ele>13.0</ele><time>2026-03-29T14:22:48Z</time></trkpt><trkpt lat="43.14109348997357" lon="10.551842308724042"><ele>13.0</ele><time>2026-03-29T14:22:49Z</time></trkpt><trkpt lat="43.14133385840018" lon="10.551943557438477"><ele>13.0</ele><time>2026-03-29T14:22:50Z</time></trkpt><trkpt lat="43.14157715266241" lon="10.552046967722221"><ele>13.5</ele><time>2026-03-29T14:22:51Z</time></trkpt><trkpt lat="43.14181460181139" lon="10.552149842933789"><ele>14.0</ele><time>2026-03-29T14:22:52Z</time></trkpt><trkpt lat="43.14205455244944" lon="10.552251132074927"><ele>14.0</ele><time>2026-03-29T14:22:53Z</time></trkpt><trkpt lat="43.142293201755386" lon="10.552354984768787"><ele>14.0</ele><time>2026-03-29T14:22:54Z</time></trkpt><trkpt lat="43.14253121372859" lon="10.552461913077716"><ele>14.0</ele><time>2026-03-29T14:22:55Z</time></trkpt><trkpt lat="43.14276549207831" lon="10.55257058501884"><ele>14.0</ele><time>2026-03-29T14:22:56Z</time></trkpt><trkpt lat="43.1430016935035" lon="10.552680588103005"><ele>13.5</ele><time>2026-03-29T14:22:57Z</time></trkpt><trkpt lat="43.14323658153716" lon="10.552790455611106"><ele>13.0</ele><time>2026-03-29T14:22:58Z</time></trkpt><trkpt lat="43.14347015404577" lon="10.552896274403787"><ele>13.0</ele><time>2026-03-29T14:22:59Z</time></trkpt><trkpt lat="43.14370074847821" lon="10.553005497236287"><ele>13.0</ele><time>2026-03-29T14:23:00Z</time></trkpt><trkpt lat="43.143929025986175" lon="10.553114182327187"><ele>12.0</ele><time>2026-03-29T14:23:01Z</time></trkpt><trkpt lat="43.14416051997556" lon="10.553221601263534"><ele>11.0</ele><time>2026-03-29T14:23:02Z</time></trkpt><trkpt lat="43.14439156514817" lon="10.553328639454236"><ele>11.0</ele><time>2026-03-29T14:23:03Z</time></trkpt><trkpt lat="43.14462081985542" lon="10.553439743825297"><ele>11.0</ele><time>2026-03-29T14:23:04Z</time></trkpt><trkpt lat="43.144854752064084" lon="10.553548269476186"><ele>11.0</ele><time>2026-03-29T14:23:05Z</time></trkpt><trkpt lat="43.14508336478498" lon="10.553655569280826"><ele>11.0</ele><time>2026-03-29T14:23:06Z</time></trkpt><trkpt lat="43.14531466852137" lon="10.55376895205555"><ele>12.0</ele><time>2026-03-29T14:23:07Z</time></trkpt><trkpt lat="43.14554711798016" lon="10.553878942855267"><ele>13.0</ele><time>2026-03-29T14:23:08Z</time></trkpt><trkpt lat="43.145778205937546" lon="10.553985089544334"><ele>13.5</ele><time>2026-03-29T14:23:09Z</time></trkpt><trkpt lat="43.146010169400846" lon="10.554085597634716"><ele>14.0</ele><time>2026-03-29T14:23:10Z</time></trkpt><trkpt lat="43.14624642195226" lon="10.554195120071439"><ele>14.0</ele><time>2026-03-29T14:23:11Z</time></trkpt><trkpt lat="43.146480553261505" lon="10.554301564776328"><ele>14.0</ele><time>2026-03-29T14:23:12Z</time></trkpt><trkpt lat="43.146709071453486" lon="10.554405222992782"><ele>13.5</ele><time>2026-03-29T14:23:13Z</time></trkpt><trkpt lat="43.146943167399385" lon="10.55450199283164"><ele>13.0</ele><time>2026-03-29T14:23:14Z</time></trkpt><trkpt lat="43.14717502769573" lon="10.554589313995853"><ele>13.5</ele><time>2026-03-29T14:23:15Z</time></trkpt><trkpt lat="43.14740770691193" lon="10.554681659854698"><ele>14.0</ele><time>2026-03-29T14:23:16Z</time></trkpt><trkpt lat="43.14763704368228" lon="10.554775837548233"><ele>14.0</ele><time>2026-03-29T14:23:17Z</time></trkpt><trkpt lat="43.14788264492415" lon="10.554866375493555"><ele>14.0</ele><time>2026-03-29T14:23:18Z</time></trkpt><trkpt lat="43.148117946283215" lon="10.55496026131378"><ele>13.0</ele><time>2026-03-29T14:23:18.999Z</time></trkpt><trkpt lat="43.14835400195799" lon="10.555050241557348"><ele>12.0</ele><time>2026-03-29T14:23:19.999Z</time></trkpt><trkpt lat="43.14858964836948" lon="10.555135702457251"><ele>12.0</ele><time>2026-03-29T14:23:20.999Z</time></trkpt><trkpt lat="43.148831223144306" lon="10.555214909045645"><ele>12.0</ele><time>2026-03-29T14:23:21.999Z</time></trkpt><trkpt lat="43.1490691494039" lon="10.555293581864426"><ele>12.5</ele><time>2026-03-29T14:23:22.999Z</time></trkpt><trkpt lat="43.14930793098147" lon="10.555370603463599"><ele>13.0</ele><time>2026-03-29T14:23:23.999Z</time></trkpt><trkpt lat="43.149543903214465" lon="10.555449373445072"><ele>13.0</ele><time>2026-03-29T14:23:24.999Z</time></trkpt><trkpt lat="43.14978424559255" lon="10.555525778912674"><ele>13.0</ele><time>2026-03-29T14:23:25.999Z</time></trkpt><trkpt lat="43.15002344298798" lon="10.5555993986157"><ele>13.5</ele><time>2026-03-29T14:23:26.999Z</time></trkpt><trkpt lat="43.150263944382395" lon="10.555677636072804"><ele>14.0</ele><time>2026-03-29T14:23:27.999Z</time></trkpt><trkpt lat="43.150508192719855" lon="10.555757852807066"><ele>14.0</ele><time>2026-03-29T14:23:28.999Z</time></trkpt><trkpt lat="43.150750071715095" lon="10.555837953105632"><ele>14.0</ele><time>2026-03-29T14:23:29.999Z</time></trkpt><trkpt lat="43.15099653371491" lon="10.55591470254065"><ele>14.0</ele><time>2026-03-29T14:23:30.999Z</time></trkpt><trkpt lat="43.15123955199119" lon="10.555998982587028"><ele>14.0</ele><time>2026-03-29T14:23:31.999Z</time></trkpt><trkpt lat="43.15148368351502" lon="10.556079550581915"><ele>15.0</ele><time>2026-03-29T14:23:32.999Z</time></trkpt><trkpt lat="43.15172805554544" lon="10.556158130642872"><ele>16.0</ele><time>2026-03-29T14:23:33.999Z</time></trkpt><trkpt lat="43.15196166093073" lon="10.556234647463173"><ele>16.0</ele><time>2026-03-29T14:23:34.999Z</time></trkpt><trkpt lat="43.15218018673335" lon="10.556310811723364"><ele>16.0</ele><time>2026-03-29T14:23:35.999Z</time></trkpt><trkpt lat="43.15240387589407" lon="10.556377215431038"><ele>15.5</ele><time>2026-03-29T14:23:36.999Z</time></trkpt><trkpt lat="43.1526269894346" lon="10.556450201801198"><ele>15.0</ele><time>2026-03-29T14:23:37.999Z</time></trkpt><trkpt lat="43.15285599778379" lon="10.556523843120429"><ele>15.0</ele><time>2026-03-29T14:23:38.999Z</time></trkpt><trkpt lat="43.15308367827663" lon="10.55659832105149"><ele>15.0</ele><time>2026-03-29T14:23:39.999Z</time></trkpt><trkpt lat="43.153315884495136" lon="10.556674357559071"><ele>14.0</ele><time>2026-03-29T14:23:40.999Z</time></trkpt><trkpt lat="43.153544969607296" lon="10.556751441576196"><ele>13.0</ele><time>2026-03-29T14:23:41.999Z</time></trkpt><trkpt lat="43.15377321826233" lon="10.55682920327072"><ele>13.0</ele><time>2026-03-29T14:23:42.999Z</time></trkpt><trkpt lat="43.15401107864057" lon="10.556907982556465"><ele>13.0</ele><time>2026-03-29T14:23:43.999Z</time></trkpt><trkpt lat="43.15424823423518" lon="10.556983751290176"><ele>14.0</ele><time>2026-03-29T14:23:44.999Z</time></trkpt><trkpt lat="43.15449105808855" lon="10.557063063676946"><ele>15.0</ele><time>2026-03-29T14:23:45.999Z</time></trkpt><trkpt lat="43.15473520150873" lon="10.557138088751575"><ele>15.0</ele><time>2026-03-29T14:23:46.999Z</time></trkpt><trkpt lat="43.154980719901026" lon="10.557226848393272"><ele>15.0</ele><time>2026-03-29T14:23:47.999Z</time></trkpt><trkpt lat="43.15522820516279" lon="10.55731693726021"><ele>15.0</ele><time>2026-03-29T14:23:48.999Z</time></trkpt><trkpt lat="43.15548072698419" lon="10.5573964817496"><ele>15.0</ele><time>2026-03-29T14:23:49.999Z</time></trkpt><trkpt lat="43.15572139527997" lon="10.557477203210041"><ele>14.0</ele><time>2026-03-29T14:23:50.999Z</time></trkpt><trkpt lat="43.15597976052331" lon="10.557567793876203"><ele>13.0</ele><time>2026-03-29T14:23:51.999Z</time></trkpt><trkpt lat="43.15623227447921" lon="10.557649460492929"><ele>13.0</ele><time>2026-03-29T14:23:52.999Z</time></trkpt><trkpt lat="43.15647786620863" lon="10.557738183621554"><ele>13.0</ele><time>2026-03-29T14:23:53.999Z</time></trkpt><trkpt lat="43.15672667449092" lon="10.557832721681349"><ele>13.5</ele><time>2026-03-29T14:23:54.999Z</time></trkpt><trkpt lat="43.15696955689277" lon="10.557927978934918"><ele>14.0</ele><time>2026-03-29T14:23:55.999Z</time></trkpt><trkpt lat="43.15721966478119" lon="10.55803237445734"><ele>14.0</ele><time>2026-03-29T14:23:56.999Z</time></trkpt><trkpt lat="43.15746996499994" lon="10.558135645101823"><ele>14.0</ele><time>2026-03-29T14:23:58Z</time></trkpt><trkpt lat="43.15771885345072" lon="10.558246258410016"><ele>14.0</ele><time>2026-03-29T14:23:59Z</time></trkpt><trkpt lat="43.157963003838944" lon="10.558354731418316"><ele>14.0</ele><time>2026-03-29T14:24:00Z</time></trkpt><trkpt lat="43.158207314187" lon="10.558462648454238"><ele>14.0</ele><time>2026-03-29T14:24:01Z</time></trkpt><trkpt lat="43.15844762756637" lon="10.558579890342196"><ele>14.0</ele><time>2026-03-29T14:24:02Z</time></trkpt><trkpt lat="43.15868779262446" lon="10.558696568231447"><ele>14.0</ele><time>2026-03-29T14:24:03Z</time></trkpt><trkpt lat="43.15892686968571" lon="10.558818883896265"><ele>14.0</ele><time>2026-03-29T14:24:04Z</time></trkpt><trkpt lat="43.15916397283453" lon="10.558943075055804"><ele>14.0</ele><time>2026-03-29T14:24:05Z</time></trkpt><trkpt lat="43.159399224591745" lon="10.559069543178499"><ele>14.0</ele><time>2026-03-29T14:24:06Z</time></trkpt><trkpt lat="43.159632236593666" lon="10.559195997993458"><ele>14.0</ele><time>2026-03-29T14:24:07Z</time></trkpt><trkpt lat="43.15986514319123" lon="10.559323911065604"><ele>14.0</ele><time>2026-03-29T14:24:08Z</time></trkpt><trkpt lat="43.16009229285316" lon="10.55944409211325"><ele>14.5</ele><time>2026-03-29T14:24:09Z</time></trkpt><trkpt lat="43.16032206377874" lon="10.559570964643791"><ele>15.0</ele><time>2026-03-29T14:24:10Z</time></trkpt><trkpt lat="43.16055440077916" lon="10.559703886919587"><ele>15.5</ele><time>2026-03-29T14:24:11Z</time></trkpt><trkpt lat="43.160789260941684" lon="10.55983717400094"><ele>16.0</ele><time>2026-03-29T14:24:12Z</time></trkpt><trkpt lat="43.16101931757985" lon="10.559968380394372"><ele>16.0</ele><time>2026-03-29T14:24:13Z</time></trkpt><trkpt lat="43.161251022180345" lon="10.560098032509996"><ele>16.0</ele><time>2026-03-29T14:24:14Z</time></trkpt><trkpt lat="43.16148112651735" lon="10.56022752264707"><ele>16.0</ele><time>2026-03-29T14:24:15Z</time></trkpt><trkpt lat="43.16171148403769" lon="10.560357095598455"><ele>16.0</ele><time>2026-03-29T14:24:16Z</time></trkpt><trkpt lat="43.161942435713634" lon="10.560489121683"><ele>16.0</ele><time>2026-03-29T14:24:17Z</time></trkpt><trkpt lat="43.16217283299056" lon="10.56061875872368"><ele>16.0</ele><time>2026-03-29T14:24:18Z</time></trkpt><trkpt lat="43.16240376766673" lon="10.560751379922374"><ele>16.5</ele><time>2026-03-29T14:24:19Z</time></trkpt><trkpt lat="43.16263392278799" lon="10.560881023980924"><ele>17.0</ele><time>2026-03-29T14:24:20Z</time></trkpt><trkpt lat="43.16286677509197" lon="10.561011043033295"><ele>17.0</ele><time>2026-03-29T14:24:21Z</time></trkpt><trkpt lat="43.163102127182206" lon="10.561141682333814"><ele>17.0</ele><time>2026-03-29T14:24:22Z</time></trkpt><trkpt lat="43.163340689834726" lon="10.561267798948805"><ele>17.5</ele><time>2026-03-29T14:24:23Z</time></trkpt><trkpt lat="43.163578369574125" lon="10.56139405651494"><ele>18.0</ele><time>2026-03-29T14:24:24Z</time></trkpt><trkpt lat="43.163820331703285" lon="10.561516132767473"><ele>17.5</ele><time>2026-03-29T14:24:25Z</time></trkpt><trkpt lat="43.1640630342279" lon="10.561627555343328"><ele>17.0</ele><time>2026-03-29T14:24:26Z</time></trkpt><trkpt lat="43.16430400866879" lon="10.561738259046072"><ele>17.0</ele><time>2026-03-29T14:24:27Z</time></trkpt><trkpt lat="43.164545831732916" lon="10.561848472432782"><ele>17.0</ele><time>2026-03-29T14:24:28Z</time></trkpt><trkpt lat="43.16478833687414" lon="10.561953870344652"><ele>18.0</ele><time>2026-03-29T14:24:29Z</time></trkpt><trkpt lat="43.16503488541689" lon="10.562059807391071"><ele>19.0</ele><time>2026-03-29T14:24:30Z</time></trkpt><trkpt lat="43.165284691943974" lon="10.562147146455542"><ele>19.0</ele><time>2026-03-29T14:24:31Z</time></trkpt><trkpt lat="43.16553445161642" lon="10.562230853662594"><ele>19.0</ele><time>2026-03-29T14:24:32Z</time></trkpt><trkpt lat="43.165779683448385" lon="10.562313351647315"><ele>18.5</ele><time>2026-03-29T14:24:33Z</time></trkpt><trkpt lat="43.16603337256473" lon="10.562397395081637"><ele>18.0</ele><time>2026-03-29T14:24:34Z</time></trkpt><trkpt lat="43.16628661946789" lon="10.562475093636342"><ele>18.5</ele><time>2026-03-29T14:24:35Z</time></trkpt><trkpt lat="43.166540457469345" lon="10.562549150841349"><ele>19.0</ele><time>2026-03-29T14:24:36Z</time></trkpt><trkpt lat="43.16679131140862" lon="10.562615762057218"><ele>19.0</ele><time>2026-03-29T14:24:37Z</time></trkpt><trkpt lat="43.167048058774185" lon="10.562673456489856"><ele>19.0</ele><time>2026-03-29T14:24:38Z</time></trkpt><trkpt lat="43.167285071015236" lon="10.562726214243538"><ele>18.5</ele><time>2026-03-29T14:24:39Z</time></trkpt><trkpt lat="43.16752030840379" lon="10.562773778616124"><ele>18.0</ele><time>2026-03-29T14:24:40Z</time></trkpt><trkpt lat="43.16775624780968" lon="10.562818143261802"><ele>18.0</ele><time>2026-03-29T14:24:41Z</time></trkpt><trkpt lat="43.16799442129665" lon="10.562862507796783"><ele>18.0</ele><time>2026-03-29T14:24:42Z</time></trkpt><trkpt lat="43.16822878877477" lon="10.562900993078607"><ele>17.5</ele><time>2026-03-29T14:24:43Z</time></trkpt><trkpt lat="43.16847509855709" lon="10.562933983546234"><ele>17.0</ele><time>2026-03-29T14:24:44Z</time></trkpt><trkpt lat="43.168710359798084" lon="10.56296612719069"><ele>17.0</ele><time>2026-03-29T14:24:45Z</time></trkpt><trkpt lat="43.16896767749222" lon="10.563003840688328"><ele>17.0</ele><time>2026-03-29T14:24:46Z</time></trkpt><trkpt lat="43.16919833403295" lon="10.563020757279125"><ele>18.0</ele><time>2026-03-29T14:24:47Z</time></trkpt><trkpt lat="43.16943651360882" lon="10.563039182650844"><ele>19.0</ele><time>2026-03-29T14:24:48Z</time></trkpt><trkpt lat="43.16967596877453" lon="10.563059542664714"><ele>18.0</ele><time>2026-03-29T14:24:49Z</time></trkpt><trkpt lat="43.169922080251965" lon="10.563082605924507"><ele>17.0</ele><time>2026-03-29T14:24:50Z</time></trkpt><trkpt lat="43.17016614339634" lon="10.563105651794631"><ele>17.0</ele><time>2026-03-29T14:24:51Z</time></trkpt><trkpt lat="43.17041393442671" lon="10.563125533787007"><ele>17.0</ele><time>2026-03-29T14:24:52Z</time></trkpt><trkpt lat="43.170667704311256" lon="10.56314853655877"><ele>17.0</ele><time>2026-03-29T14:24:53Z</time></trkpt><trkpt lat="43.170917274625474" lon="10.563173527169578"><ele>17.0</ele><time>2026-03-29T14:24:54Z</time></trkpt><trkpt lat="43.171177077516994" lon="10.563200846858896"><ele>17.0</ele><time>2026-03-29T14:24:55Z</time></trkpt><trkpt lat="43.171431089047914" lon="10.563224963750425"><ele>17.0</ele><time>2026-03-29T14:24:56Z</time></trkpt><trkpt lat="43.17168847804026" lon="10.563245767188981"><ele>16.5</ele><time>2026-03-29T14:24:57Z</time></trkpt><trkpt lat="43.1719441206489" lon="10.563269952033163"><ele>16.0</ele><time>2026-03-29T14:24:58Z</time></trkpt><trkpt lat="43.172188458485444" lon="10.563292283164756"><ele>16.5</ele><time>2026-03-29T14:24:59Z</time></trkpt><trkpt lat="43.17243023054483" lon="10.563315131133262"><ele>17.0</ele><time>2026-03-29T14:25:00Z</time></trkpt><trkpt lat="43.1726732922151" lon="10.563335734679237"><ele>17.0</ele><time>2026-03-29T14:25:01Z</time></trkpt><trkpt lat="43.17291962883425" lon="10.56336121322681"><ele>17.0</ele><time>2026-03-29T14:25:02Z</time></trkpt><trkpt lat="43.17316022720609" lon="10.56339025688535"><ele>16.5</ele><time>2026-03-29T14:25:03Z</time></trkpt><trkpt lat="43.173405080703304" lon="10.563424232813153"><ele>16.0</ele><time>2026-03-29T14:25:04Z</time></trkpt><trkpt lat="43.17365286706187" lon="10.563460500947464"><ele>16.0</ele><time>2026-03-29T14:25:05Z</time></trkpt><trkpt lat="43.1738940052783" lon="10.563498359439155"><ele>16.0</ele><time>2026-03-29T14:25:06Z</time></trkpt><trkpt lat="43.17413682339321" lon="10.563542258234897"><ele>15.5</ele><time>2026-03-29T14:25:07Z</time></trkpt><trkpt lat="43.17437926067379" lon="10.563591898374716"><ele>15.0</ele><time>2026-03-29T14:25:08Z</time></trkpt><trkpt lat="43.17461837379887" lon="10.563643946240132"><ele>15.0</ele><time>2026-03-29T14:25:09Z</time></trkpt><trkpt lat="43.17485937375252" lon="10.563694459450689"><ele>15.0</ele><time>2026-03-29T14:25:10Z</time></trkpt><trkpt lat="43.175100223165394" lon="10.563748594752703"><ele>16.0</ele><time>2026-03-29T14:25:11Z</time></trkpt><trkpt lat="43.175337488149395" lon="10.563802475484568"><ele>17.0</ele><time>2026-03-29T14:25:12Z</time></trkpt><trkpt lat="43.17557522539506" lon="10.563860926098037"><ele>16.5</ele><time>2026-03-29T14:25:13Z</time></trkpt><trkpt lat="43.175812851227164" lon="10.56392109159267"><ele>16.0</ele><time>2026-03-29T14:25:14Z</time></trkpt><trkpt lat="43.17605406597691" lon="10.563962522946351"><ele>16.0</ele><time>2026-03-29T14:25:15Z</time></trkpt><trkpt lat="43.17629636748432" lon="10.564038943362489"><ele>16.0</ele><time>2026-03-29T14:25:16Z</time></trkpt><trkpt lat="43.176537581650166" lon="10.564100101554175"><ele>14.5</ele><time>2026-03-29T14:25:17Z</time></trkpt><trkpt lat="43.176781719602815" lon="10.564156846169244"><ele>13.0</ele><time>2026-03-29T14:25:18Z</time></trkpt><trkpt lat="43.17702580965217" lon="10.564213198709348"><ele>13.0</ele><time>2026-03-29T14:25:19Z</time></trkpt><trkpt lat="43.17727179500358" lon="10.564276391150411"><ele>13.0</ele><time>2026-03-29T14:25:20Z</time></trkpt><trkpt lat="43.17751755371691" lon="10.564339072843518"><ele>14.5</ele><time>2026-03-29T14:25:21Z</time></trkpt><trkpt lat="43.177765100894106" lon="10.564400671046833"><ele>16.0</ele><time>2026-03-29T14:25:22Z</time></trkpt><trkpt lat="43.17801241286506" lon="10.564464617684887"><ele>15.5</ele><time>2026-03-29T14:25:23Z</time></trkpt><trkpt lat="43.17825680772567" lon="10.564520915278573"><ele>15.0</ele><time>2026-03-29T14:25:24Z</time></trkpt><trkpt lat="43.178510562916244" lon="10.564582348596241"><ele>15.0</ele><time>2026-03-29T14:25:24.999Z</time></trkpt><trkpt lat="43.17876281259797" lon="10.564644588072253"><ele>15.0</ele><time>2026-03-29T14:25:25.999Z</time></trkpt><trkpt lat="43.17900833158981" lon="10.564704837885497"><ele>13.5</ele><time>2026-03-29T14:25:26.999Z</time></trkpt><trkpt lat="43.17925246543428" lon="10.564768644726533"><ele>12.0</ele><time>2026-03-29T14:25:27.999Z</time></trkpt><trkpt lat="43.179492097624134" lon="10.56483475260145"><ele>12.0</ele><time>2026-03-29T14:25:28.999Z</time></trkpt><trkpt lat="43.1797376468987" lon="10.56489896052026"><ele>12.0</ele><time>2026-03-29T14:25:29.999Z</time></trkpt><trkpt lat="43.17997813439959" lon="10.564960820871368"><ele>13.0</ele><time>2026-03-29T14:25:30.999Z</time></trkpt><trkpt lat="43.18021912515049" lon="10.565025113011528"><ele>14.0</ele><time>2026-03-29T14:25:31.999Z</time></trkpt><trkpt lat="43.18045526305779" lon="10.565085770280012"><ele>13.0</ele><time>2026-03-29T14:25:32.999Z</time></trkpt><trkpt lat="43.180690693142125" lon="10.56514273001868"><ele>12.0</ele><time>2026-03-29T14:25:33.999Z</time></trkpt><trkpt lat="43.180928665169176" lon="10.565199110581807"><ele>12.0</ele><time>2026-03-29T14:25:34.999Z</time></trkpt><trkpt lat="43.18116157115635" lon="10.565252443414042"><ele>12.0</ele><time>2026-03-29T14:25:35.999Z</time></trkpt><trkpt lat="43.18139456950032" lon="10.565305422080549"><ele>11.5</ele><time>2026-03-29T14:25:36.999Z</time></trkpt><trkpt lat="43.18162805091768" lon="10.56536124921211"><ele>11.0</ele><time>2026-03-29T14:25:37.999Z</time></trkpt><trkpt lat="43.18186074472367" lon="10.56542243731009"><ele>10.5</ele><time>2026-03-29T14:25:38.999Z</time></trkpt><trkpt lat="43.182095468856815" lon="10.565483248012923"><ele>10.0</ele><time>2026-03-29T14:25:39.999Z</time></trkpt><trkpt lat="43.18232927122711" lon="10.565542523218397"><ele>10.0</ele><time>2026-03-29T14:25:40.999Z</time></trkpt><trkpt lat="43.18256637410529" lon="10.565598396390824"><ele>10.0</ele><time>2026-03-29T14:25:41.999Z</time></trkpt><trkpt lat="43.18280460616517" lon="10.565654854766201"><ele>10.0</ele><time>2026-03-29T14:25:42.999Z</time></trkpt><trkpt lat="43.183045459210014" lon="10.56570819769765"><ele>10.0</ele><time>2026-03-29T14:25:43.999Z</time></trkpt><trkpt lat="43.18328979307991" lon="10.565763914480154"><ele>9.5</ele><time>2026-03-29T14:25:44.999Z</time></trkpt><trkpt lat="43.183533539514656" lon="10.56579892886214"><ele>9.0</ele><time>2026-03-29T14:25:45.999Z</time></trkpt><trkpt lat="43.183780054390226" lon="10.565829635834515"><ele>9.0</ele><time>2026-03-29T14:25:46.999Z</time></trkpt><trkpt lat="43.18402551480958" lon="10.56585890525013"><ele>9.0</ele><time>2026-03-29T14:25:47.999Z</time></trkpt><trkpt lat="43.184280069032134" lon="10.565879252692108"><ele>9.0</ele><time>2026-03-29T14:25:48.999Z</time></trkpt><trkpt lat="43.184520734203026" lon="10.565895978324523"><ele>9.0</ele><time>2026-03-29T14:25:49.999Z</time></trkpt><trkpt lat="43.184749412077466" lon="10.565907860329608"><ele>9.0</ele><time>2026-03-29T14:25:50.999Z</time></trkpt><trkpt lat="43.184993032396186" lon="10.565918199166829"><ele>9.0</ele><time>2026-03-29T14:25:51.999Z</time></trkpt><trkpt lat="43.18524109022063" lon="10.56591850865037"><ele>9.0</ele><time>2026-03-29T14:25:52.999Z</time></trkpt><trkpt lat="43.185479117750546" lon="10.56590495969011"><ele>9.0</ele><time>2026-03-29T14:25:53.999Z</time></trkpt><trkpt lat="43.18573320996012" lon="10.565890358995375"><ele>8.0</ele><time>2026-03-29T14:25:54.999Z</time></trkpt><trkpt lat="43.185983459726465" lon="10.565868485899925"><ele>7.0</ele><time>2026-03-29T14:25:55.999Z</time></trkpt><trkpt lat="43.18623866100898" lon="10.565838149870139"><ele>7.0</ele><time>2026-03-29T14:25:56.999Z</time></trkpt><trkpt lat="43.186487214487165" lon="10.565812472655791"><ele>7.0</ele><time>2026-03-29T14:25:57.999Z</time></trkpt><trkpt lat="43.18674152228777" lon="10.56578012910202"><ele>7.0</ele><time>2026-03-29T14:25:58.999Z</time></trkpt><trkpt lat="43.18699615986972" lon="10.56573562608042"><ele>7.0</ele><time>2026-03-29T14:25:59.999Z</time></trkpt><trkpt lat="43.18724769683851" lon="10.565691540468311"><ele>6.5</ele><time>2026-03-29T14:26:00.999Z</time></trkpt><trkpt lat="43.18749746388391" lon="10.565638838764205"><ele>6.0</ele><time>2026-03-29T14:26:01.999Z</time></trkpt><trkpt lat="43.18774300033505" lon="10.56558715137598"><ele>6.0</ele><time>2026-03-29T14:26:02.999Z</time></trkpt><trkpt lat="43.18799166842966" lon="10.56553490588948"><ele>6.0</ele><time>2026-03-29T14:26:04Z</time></trkpt><trkpt lat="43.188235834829264" lon="10.565486963652015"><ele>6.0</ele><time>2026-03-29T14:26:05Z</time></trkpt><trkpt lat="43.18848180808614" lon="10.565438322560631"><ele>6.0</ele><time>2026-03-29T14:26:06Z</time></trkpt><trkpt lat="43.188723275070174" lon="10.565388202522191"><ele>6.0</ele><time>2026-03-29T14:26:07Z</time></trkpt><trkpt lat="43.18897006098457" lon="10.565332136434835"><ele>6.0</ele><time>2026-03-29T14:26:08Z</time></trkpt><trkpt lat="43.18921310162474" lon="10.565283238135857"><ele>5.0</ele><time>2026-03-29T14:26:09Z</time></trkpt><trkpt lat="43.189454363433036" lon="10.565228764778189"><ele>4.0</ele><time>2026-03-29T14:26:10Z</time></trkpt><trkpt lat="43.189694766839985" lon="10.56517824726897"><ele>4.0</ele><time>2026-03-29T14:26:11Z</time></trkpt><trkpt lat="43.18994162569758" lon="10.565130090734266"><ele>4.0</ele><time>2026-03-29T14:26:12Z</time></trkpt><trkpt lat="43.190188505017645" lon="10.565075598899012"><ele>4.0</ele><time>2026-03-29T14:26:13Z</time></trkpt><trkpt lat="43.19043008342608" lon="10.565033577949988"><ele>4.0</ele><time>2026-03-29T14:26:14Z</time></trkpt><trkpt lat="43.19067584188423" lon="10.564991001155075"><ele>5.0</ele><time>2026-03-29T14:26:15Z</time></trkpt><trkpt lat="43.190911639613105" lon="10.564957917499028"><ele>6.0</ele><time>2026-03-29T14:26:16Z</time></trkpt><trkpt lat="43.19115546269097" lon="10.564916674589593"><ele>6.0</ele><time>2026-03-29T14:26:17Z</time></trkpt><trkpt lat="43.19139742672982" lon="10.564882232695528"><ele>6.0</ele><time>2026-03-29T14:26:18Z</time></trkpt><trkpt lat="43.19163692707522" lon="10.564850093270325"><ele>5.0</ele><time>2026-03-29T14:26:19Z</time></trkpt><trkpt lat="43.19187996366074" lon="10.564820163130728"><ele>4.0</ele><time>2026-03-29T14:26:20Z</time></trkpt><trkpt lat="43.19212159987974" lon="10.564793896518774"><ele>4.5</ele><time>2026-03-29T14:26:21Z</time></trkpt><trkpt lat="43.19235956254697" lon="10.564766168636153"><ele>5.0</ele><time>2026-03-29T14:26:22Z</time></trkpt><trkpt lat="43.19259852060585" lon="10.564741067344917"><ele>5.0</ele><time>2026-03-29T14:26:23Z</time></trkpt><trkpt lat="43.19284015133865" lon="10.564717925967072"><ele>5.0</ele><time>2026-03-29T14:26:24Z</time></trkpt><trkpt lat="43.193078053136176" lon="10.56469448884793"><ele>5.5</ele><time>2026-03-29T14:26:25Z</time></trkpt><trkpt lat="43.193318895457715" lon="10.564670887764832"><ele>6.0</ele><time>2026-03-29T14:26:26Z</time></trkpt><trkpt lat="43.193554983391465" lon="10.564650707782718"><ele>6.0</ele><time>2026-03-29T14:26:27Z</time></trkpt><trkpt lat="43.193789237785474" lon="10.564627079667895"><ele>6.0</ele><time>2026-03-29T14:26:28Z</time></trkpt><trkpt lat="43.19403264185419" lon="10.564598838725185"><ele>6.5</ele><time>2026-03-29T14:26:29Z</time></trkpt><trkpt lat="43.19427220764069" lon="10.56457549101138"><ele>7.0</ele><time>2026-03-29T14:26:30Z</time></trkpt><trkpt lat="43.19451719377211" lon="10.564547194728227"><ele>6.5</ele><time>2026-03-29T14:26:31Z</time></trkpt><trkpt lat="43.194757312137625" lon="10.56452360794409"><ele>6.0</ele><time>2026-03-29T14:26:32Z</time></trkpt><trkpt lat="43.19500020183522" lon="10.56449882674163"><ele>5.5</ele><time>2026-03-29T14:26:33Z</time></trkpt><trkpt lat="43.19524394050108" lon="10.564473918344794"><ele>5.0</ele><time>2026-03-29T14:26:34Z</time></trkpt><trkpt lat="43.19548324382126" lon="10.564446592068055"><ele>5.5</ele><time>2026-03-29T14:26:35Z</time></trkpt><trkpt lat="43.195730675607514" lon="10.564426043769924"><ele>6.0</ele><time>2026-03-29T14:26:36Z</time></trkpt><trkpt lat="43.195979640247195" lon="10.564400341176123"><ele>6.0</ele><time>2026-03-29T14:26:37Z</time></trkpt><trkpt lat="43.196225148900254" lon="10.564379425052017"><ele>6.0</ele><time>2026-03-29T14:26:38Z</time></trkpt><trkpt lat="43.19647286427727" lon="10.56434917344719"><ele>6.0</ele><time>2026-03-29T14:26:39Z</time></trkpt><trkpt lat="43.19672074400321" lon="10.564327068610694"><ele>6.0</ele><time>2026-03-29T14:26:40Z</time></trkpt><trkpt lat="43.19697649588472" lon="10.564300780552445"><ele>6.0</ele><time>2026-03-29T14:26:41Z</time></trkpt><trkpt lat="43.19722642293583" lon="10.564275403918357"><ele>6.0</ele><time>2026-03-29T14:26:42Z</time></trkpt><trkpt lat="43.197477728121456" lon="10.56424691135636"><ele>6.0</ele><time>2026-03-29T14:26:43Z</time></trkpt><trkpt lat="43.19773089281632" lon="10.564212700761106"><ele>6.0</ele><time>2026-03-29T14:26:44Z</time></trkpt><trkpt lat="43.19798637744772" lon="10.564191451035153"><ele>5.5</ele><time>2026-03-29T14:26:45Z</time></trkpt><trkpt lat="43.19823891498435" lon="10.564168604760138"><ele>5.0</ele><time>2026-03-29T14:26:46Z</time></trkpt><trkpt lat="43.19849350902329" lon="10.564140056959754"><ele>5.0</ele><time>2026-03-29T14:26:47Z</time></trkpt><trkpt lat="43.19874903163549" lon="10.564118754766348"><ele>5.0</ele><time>2026-03-29T14:26:48Z</time></trkpt><trkpt lat="43.19901340830349" lon="10.564093804698743"><ele>4.5</ele><time>2026-03-29T14:26:49Z</time></trkpt><trkpt lat="43.19926618341096" lon="10.564071282143477"><ele>4.0</ele><time>2026-03-29T14:26:50Z</time></trkpt><trkpt lat="43.199520717590154" lon="10.564040692986197"><ele>4.0</ele><time>2026-03-29T14:26:51Z</time></trkpt><trkpt lat="43.199774512669514" lon="10.564009116648826"><ele>4.0</ele><time>2026-03-29T14:26:52Z</time></trkpt><trkpt lat="43.20003013573888" lon="10.56397744156216"><ele>4.5</ele><time>2026-03-29T14:26:53Z</time></trkpt><trkpt lat="43.20028660177248" lon="10.563945783958443"><ele>5.0</ele><time>2026-03-29T14:26:54Z</time></trkpt><trkpt lat="43.200539677709145" lon="10.563925012888678"><ele>5.0</ele><time>2026-03-29T14:26:55Z</time></trkpt><trkpt lat="43.20080282787934" lon="10.563895137225728"><ele>5.0</ele><time>2026-03-29T14:26:56Z</time></trkpt><trkpt lat="43.20105592113809" lon="10.563877996830236"><ele>5.0</ele><time>2026-03-29T14:26:57Z</time></trkpt><trkpt lat="43.20131800714652" lon="10.563844092912724"><ele>5.0</ele><time>2026-03-29T14:26:58Z</time></trkpt><trkpt lat="43.2016030205439" lon="10.563819036358458"><ele>5.0</ele><time>2026-03-29T14:26:59Z</time></trkpt><trkpt lat="43.20190433923306" lon="10.563790563943506"><ele>5.0</ele><time>2026-03-29T14:27:00Z</time></trkpt><trkpt lat="43.20222144698785" lon="10.563757648810784"><ele>5.0</ele><time>2026-03-29T14:27:01Z</time></trkpt><trkpt lat="43.202543080409534" lon="10.563725907267397"><ele>5.0</ele><time>2026-03-29T14:27:02Z</time></trkpt><trkpt lat="43.202844482743075" lon="10.563693512755501"><ele>5.0</ele><time>2026-03-29T14:27:03Z</time></trkpt><trkpt lat="43.20313883303349" lon="10.56366120032272"><ele>5.0</ele><time>2026-03-29T14:27:04Z</time></trkpt><trkpt lat="43.2034262112723" lon="10.563630576483222"><ele>6.0</ele><time>2026-03-29T14:27:05Z</time></trkpt><trkpt lat="43.203707186587856" lon="10.563596949020134"><ele>7.0</ele><time>2026-03-29T14:27:06Z</time></trkpt><trkpt lat="43.2039910575184" lon="10.56356549831616"><ele>7.0</ele><time>2026-03-29T14:27:07Z</time></trkpt><trkpt lat="43.2042732242248" lon="10.563537466487068"><ele>7.0</ele><time>2026-03-29T14:27:08Z</time></trkpt><trkpt lat="43.20456031236527" lon="10.56352324062698"><ele>6.5</ele><time>2026-03-29T14:27:09Z</time></trkpt><trkpt lat="43.204841681990544" lon="10.563506294756298"><ele>6.0</ele><time>2026-03-29T14:27:10Z</time></trkpt><trkpt lat="43.205120177623186" lon="10.563481496904728"><ele>6.0</ele><time>2026-03-29T14:27:11Z</time></trkpt><trkpt lat="43.20539471076812" lon="10.563447597461147"><ele>6.0</ele><time>2026-03-29T14:27:12Z</time></trkpt><trkpt lat="43.20566976111728" lon="10.563420749776492"><ele>7.0</ele><time>2026-03-29T14:27:13Z</time></trkpt><trkpt lat="43.20594074490754" lon="10.563392511127562"><ele>8.0</ele><time>2026-03-29T14:27:14Z</time></trkpt><trkpt lat="43.206210379507645" lon="10.563369586155357"><ele>8.0</ele><time>2026-03-29T14:27:15Z</time></trkpt><trkpt lat="43.206483073184934" lon="10.563345793852124"><ele>8.0</ele><time>2026-03-29T14:27:16Z</time></trkpt><trkpt lat="43.206748350320105" lon="10.563314390179876"><ele>8.0</ele><time>2026-03-29T14:27:17Z</time></trkpt><trkpt lat="43.207016478684615" lon="10.563288268613316"><ele>8.0</ele><time>2026-03-29T14:27:18Z</time></trkpt><trkpt lat="43.207283775349104" lon="10.563264620525102"><ele>9.0</ele><time>2026-03-29T14:27:19Z</time></trkpt><trkpt lat="43.20754734176204" lon="10.563235415222012"><ele>10.0</ele><time>2026-03-29T14:27:20Z</time></trkpt><trkpt lat="43.20781188015714" lon="10.56320857302148"><ele>10.0</ele><time>2026-03-29T14:27:21Z</time></trkpt><trkpt lat="43.20807570846888" lon="10.563178439490871"><ele>10.0</ele><time>2026-03-29T14:27:22Z</time></trkpt><trkpt lat="43.2083433817417" lon="10.563149066521877"><ele>9.0</ele><time>2026-03-29T14:27:23Z</time></trkpt><trkpt lat="43.20860985434145" lon="10.563113114088607"><ele>8.0</ele><time>2026-03-29T14:27:24Z</time></trkpt><trkpt lat="43.20887333391273" lon="10.563071353781233"><ele>8.5</ele><time>2026-03-29T14:27:25Z</time></trkpt><trkpt lat="43.20913784709048" lon="10.563026247716625"><ele>9.0</ele><time>2026-03-29T14:27:26Z</time></trkpt><trkpt lat="43.20940961172295" lon="10.562994145532777"><ele>9.0</ele><time>2026-03-29T14:27:26.999Z</time></trkpt><trkpt lat="43.20967471231216" lon="10.562960093468119"><ele>9.0</ele><time>2026-03-29T14:27:27.999Z</time></trkpt><trkpt lat="43.20994462070064" lon="10.562911820134714"><ele>10.0</ele><time>2026-03-29T14:27:28.999Z</time></trkpt><trkpt lat="43.21021343225975" lon="10.562864756236893"><ele>11.0</ele><time>2026-03-29T14:27:29.999Z</time></trkpt><trkpt lat="43.21048069961932" lon="10.562813675667874"><ele>8.0</ele><time>2026-03-29T14:27:30.999Z</time></trkpt><trkpt lat="43.21075145287346" lon="10.56276280186495"><ele>5.0</ele><time>2026-03-29T14:27:31.999Z</time></trkpt><trkpt lat="43.21101635957362" lon="10.562715975492626"><ele>5.0</ele><time>2026-03-29T14:27:32.999Z</time></trkpt><trkpt lat="43.21128287279966" lon="10.562668711351193"><ele>5.0</ele><time>2026-03-29T14:27:33.999Z</time></trkpt><trkpt lat="43.21155040640558" lon="10.562619936415551"><ele>6.5</ele><time>2026-03-29T14:27:34.999Z</time></trkpt><trkpt lat="43.21182031892391" lon="10.562571989460272"><ele>8.0</ele><time>2026-03-29T14:27:35.999Z</time></trkpt><trkpt lat="43.21208963223724" lon="10.562519441747709"><ele>7.5</ele><time>2026-03-29T14:27:36.999Z</time></trkpt><trkpt lat="43.212357470692794" lon="10.562466762106121"><ele>7.0</ele><time>2026-03-29T14:27:37.999Z</time></trkpt><trkpt lat="43.21262351128623" lon="10.562414589763558"><ele>7.0</ele><time>2026-03-29T14:27:38.999Z</time></trkpt><trkpt lat="43.212893628019316" lon="10.562362161034944"><ele>7.0</ele><time>2026-03-29T14:27:39.999Z</time></trkpt><trkpt lat="43.21316284959881" lon="10.56231028342716"><ele>7.0</ele><time>2026-03-29T14:27:40.999Z</time></trkpt><trkpt lat="43.21343112800384" lon="10.56225713004103"><ele>7.0</ele><time>2026-03-29T14:27:41.999Z</time></trkpt><trkpt lat="43.21370646445265" lon="10.562211068577788"><ele>7.0</ele><time>2026-03-29T14:27:42.999Z</time></trkpt><trkpt lat="43.21398644459741" lon="10.562161515470068"><ele>7.0</ele><time>2026-03-29T14:27:43.999Z</time></trkpt><trkpt lat="43.214258033508926" lon="10.562110417903936"><ele>7.0</ele><time>2026-03-29T14:27:44.999Z</time></trkpt><trkpt lat="43.214540076477114" lon="10.56205427628419"><ele>7.0</ele><time>2026-03-29T14:27:45.999Z</time></trkpt><trkpt lat="43.2148166961776" lon="10.562000115015694"><ele>6.0</ele><time>2026-03-29T14:27:46.999Z</time></trkpt><trkpt lat="43.21509528333768" lon="10.561943904682135"><ele>5.0</ele><time>2026-03-29T14:27:47.999Z</time></trkpt><trkpt lat="43.215361854935715" lon="10.561893424357015"><ele>5.0</ele><time>2026-03-29T14:27:48.999Z</time></trkpt><trkpt lat="43.215619758950666" lon="10.561842521701584"><ele>5.0</ele><time>2026-03-29T14:27:49.999Z</time></trkpt><trkpt lat="43.21587967548345" lon="10.56179975285551"><ele>6.0</ele><time>2026-03-29T14:27:50.999Z</time></trkpt><trkpt lat="43.2161364291349" lon="10.561749343067326"><ele>7.0</ele><time>2026-03-29T14:27:51.999Z</time></trkpt><trkpt lat="43.21639748302015" lon="10.561704184201602"><ele>7.5</ele><time>2026-03-29T14:27:52.999Z</time></trkpt><trkpt lat="43.21665264598341" lon="10.561657701848429"><ele>8.0</ele><time>2026-03-29T14:27:53.999Z</time></trkpt><trkpt lat="43.2169044440059" lon="10.561613473832775"><ele>8.0</ele><time>2026-03-29T14:27:54.999Z</time></trkpt><trkpt lat="43.21715161307112" lon="10.561571047437623"><ele>8.0</ele><time>2026-03-29T14:27:55.999Z</time></trkpt><trkpt lat="43.21740135897678" lon="10.561534723505115"><ele>7.5</ele><time>2026-03-29T14:27:56.999Z</time></trkpt><trkpt lat="43.217655008327625" lon="10.56150095876199"><ele>7.0</ele><time>2026-03-29T14:27:57.999Z</time></trkpt><trkpt lat="43.217908970265825" lon="10.56146283529652"><ele>7.0</ele><time>2026-03-29T14:27:58.999Z</time></trkpt><trkpt lat="43.21817065627662" lon="10.56141197356524"><ele>7.0</ele><time>2026-03-29T14:27:59.999Z</time></trkpt><trkpt lat="43.218432879305226" lon="10.561378024165496"><ele>7.0</ele><time>2026-03-29T14:28:00.999Z</time></trkpt><trkpt lat="43.218691304268404" lon="10.561322353038452"><ele>7.0</ele><time>2026-03-29T14:28:01.999Z</time></trkpt><trkpt lat="43.218953998646555" lon="10.56127490933766"><ele>7.5</ele><time>2026-03-29T14:28:02.999Z</time></trkpt><trkpt lat="43.21921881326197" lon="10.561230417758958"><ele>8.0</ele><time>2026-03-29T14:28:03.999Z</time></trkpt><trkpt lat="43.21948585695954" lon="10.561188083169144"><ele>7.0</ele><time>2026-03-29T14:28:04.999Z</time></trkpt><trkpt lat="43.219751747105654" lon="10.56114377667574"><ele>6.0</ele><time>2026-03-29T14:28:05.999Z</time></trkpt><trkpt lat="43.220016055317735" lon="10.561094493348955"><ele>6.0</ele><time>2026-03-29T14:28:06.999Z</time></trkpt><trkpt lat="43.22028204095561" lon="10.5610489181138"><ele>6.0</ele><time>2026-03-29T14:28:07.999Z</time></trkpt><trkpt lat="43.22054345657348" lon="10.561005434374497"><ele>6.0</ele><time>2026-03-29T14:28:08.999Z</time></trkpt><trkpt lat="43.22081056829956" lon="10.560964249940255"><ele>6.0</ele><time>2026-03-29T14:28:10Z</time></trkpt><trkpt lat="43.22107425890619" lon="10.560918515689721"><ele>6.0</ele><time>2026-03-29T14:28:11Z</time></trkpt><trkpt lat="43.22133528646279" lon="10.560872451211486"><ele>6.0</ele><time>2026-03-29T14:28:12Z</time></trkpt><trkpt lat="43.221595951520044" lon="10.560823163102576"><ele>6.0</ele><time>2026-03-29T14:28:13Z</time></trkpt><trkpt lat="43.2218561706677" lon="10.560768147810453"><ele>6.0</ele><time>2026-03-29T14:28:14Z</time></trkpt><trkpt lat="43.22211506202931" lon="10.560699634331385"><ele>7.0</ele><time>2026-03-29T14:28:15Z</time></trkpt><trkpt lat="43.22237222202501" lon="10.560625231740733"><ele>8.0</ele><time>2026-03-29T14:28:16Z</time></trkpt><trkpt lat="43.222627889750136" lon="10.560545749620067"><ele>8.0</ele><time>2026-03-29T14:28:17Z</time></trkpt><trkpt lat="43.22288344660584" lon="10.56046440174668"><ele>8.0</ele><time>2026-03-29T14:28:18Z</time></trkpt><trkpt lat="43.223139900626" lon="10.56038088764733"><ele>7.0</ele><time>2026-03-29T14:28:19Z</time></trkpt><trkpt lat="43.22339542438548" lon="10.560293148000143"><ele>6.0</ele><time>2026-03-29T14:28:20Z</time></trkpt><trkpt lat="43.223651231760236" lon="10.560199389384175"><ele>6.0</ele><time>2026-03-29T14:28:21Z</time></trkpt><trkpt lat="43.22390412455598" lon="10.560097823460215"><ele>6.0</ele><time>2026-03-29T14:28:22Z</time></trkpt><trkpt lat="43.22415857868405" lon="10.559993937593365"><ele>7.0</ele><time>2026-03-29T14:28:23Z</time></trkpt><trkpt lat="43.224411295858175" lon="10.55988830600636"><ele>8.0</ele><time>2026-03-29T14:28:24Z</time></trkpt><trkpt lat="43.22466373367603" lon="10.559782383464388"><ele>7.0</ele><time>2026-03-29T14:28:25Z</time></trkpt><trkpt lat="43.224916375659774" lon="10.559674556152512"><ele>6.0</ele><time>2026-03-29T14:28:26Z</time></trkpt><trkpt lat="43.225169079973504" lon="10.559568863004314"><ele>6.5</ele><time>2026-03-29T14:28:27Z</time></trkpt><trkpt lat="43.22542549952551" lon="10.55946271680865"><ele>7.0</ele><time>2026-03-29T14:28:28Z</time></trkpt><trkpt lat="43.22567664517771" lon="10.559358204385664"><ele>7.0</ele><time>2026-03-29T14:28:29Z</time></trkpt><trkpt lat="43.22592888242246" lon="10.559251367385935"><ele>7.0</ele><time>2026-03-29T14:28:30Z</time></trkpt><trkpt lat="43.226177282415044" lon="10.559142149627302"><ele>7.0</ele><time>2026-03-29T14:28:31Z</time></trkpt><trkpt lat="43.226432428294125" lon="10.559035099710128"><ele>7.0</ele><time>2026-03-29T14:28:32Z</time></trkpt><trkpt lat="43.22668463344976" lon="10.558927057522869"><ele>7.5</ele><time>2026-03-29T14:28:33Z</time></trkpt><trkpt lat="43.22693461732826" lon="10.558820010216692"><ele>8.0</ele><time>2026-03-29T14:28:34Z</time></trkpt><trkpt lat="43.22718654697042" lon="10.558710363670935"><ele>7.0</ele><time>2026-03-29T14:28:35Z</time></trkpt><trkpt lat="43.22743804730323" lon="10.558603742470579"><ele>6.0</ele><time>2026-03-29T14:28:36Z</time></trkpt><trkpt lat="43.227688982153566" lon="10.558498686440599"><ele>6.0</ele><time>2026-03-29T14:28:37Z</time></trkpt><trkpt lat="43.22793936345631" lon="10.558394996185125"><ele>6.0</ele><time>2026-03-29T14:28:38Z</time></trkpt><trkpt lat="43.22818896639652" lon="10.558292766319433"><ele>6.0</ele><time>2026-03-29T14:28:39Z</time></trkpt><trkpt lat="43.22843677208868" lon="10.55818644833255"><ele>6.0</ele><time>2026-03-29T14:28:40Z</time></trkpt><trkpt lat="43.228684739208404" lon="10.558080385800883"><ele>6.0</ele><time>2026-03-29T14:28:41Z</time></trkpt><trkpt lat="43.22892694746036" lon="10.557973043193673"><ele>6.0</ele><time>2026-03-29T14:28:42Z</time></trkpt><trkpt lat="43.22917222282201" lon="10.557867282641475"><ele>6.5</ele><time>2026-03-29T14:28:43Z</time></trkpt><trkpt lat="43.22941783314718" lon="10.557763292787131"><ele>7.0</ele><time>2026-03-29T14:28:44Z</time></trkpt><trkpt lat="43.22966276919509" lon="10.5576603513283"><ele>7.0</ele><time>2026-03-29T14:28:45Z</time></trkpt><trkpt lat="43.22990353949834" lon="10.557557242130162"><ele>7.0</ele><time>2026-03-29T14:28:46Z</time></trkpt><trkpt lat="43.230145975019354" lon="10.5574567116365"><ele>7.0</ele><time>2026-03-29T14:28:47Z</time></trkpt><trkpt lat="43.230386781065825" lon="10.557354187871647"><ele>7.0</ele><time>2026-03-29T14:28:48Z</time></trkpt><trkpt lat="43.23062765451161" lon="10.55725061100536"><ele>7.5</ele><time>2026-03-29T14:28:49Z</time></trkpt><trkpt lat="43.23087096528209" lon="10.557147448159588"><ele>8.0</ele><time>2026-03-29T14:28:50Z</time></trkpt><trkpt lat="43.231108161172024" lon="10.557040717940197"><ele>8.0</ele><time>2026-03-29T14:28:51Z</time></trkpt><trkpt lat="43.23134928808184" lon="10.556944015280331"><ele>8.0</ele><time>2026-03-29T14:28:52Z</time></trkpt><trkpt lat="43.231588775611336" lon="10.556845787833415"><ele>8.5</ele><time>2026-03-29T14:28:53Z</time></trkpt><trkpt lat="43.231828278060874" lon="10.556744351804397"><ele>9.0</ele><time>2026-03-29T14:28:54Z</time></trkpt><trkpt lat="43.23206615266553" lon="10.556645468487423"><ele>9.0</ele><time>2026-03-29T14:28:55Z</time></trkpt><trkpt lat="43.23230197586378" lon="10.556548950978511"><ele>9.0</ele><time>2026-03-29T14:28:56Z</time></trkpt><trkpt lat="43.23253941919917" lon="10.556455373116156"><ele>8.5</ele><time>2026-03-29T14:28:57Z</time></trkpt><trkpt lat="43.23277903388417" lon="10.55636967787464"><ele>8.0</ele><time>2026-03-29T14:28:58Z</time></trkpt><trkpt lat="43.233020948408" lon="10.556293750009463"><ele>7.5</ele><time>2026-03-29T14:28:59Z</time></trkpt><trkpt lat="43.23325965354714" lon="10.55622660195968"><ele>7.0</ele><time>2026-03-29T14:29:00Z</time></trkpt><trkpt lat="43.23350011281882" lon="10.556170295017669"><ele>7.5</ele><time>2026-03-29T14:29:01Z</time></trkpt><trkpt lat="43.233738689095155" lon="10.55612704487804"><ele>8.0</ele><time>2026-03-29T14:29:02Z</time></trkpt><trkpt lat="43.233982438402485" lon="10.556089762772379"><ele>8.0</ele><time>2026-03-29T14:29:03Z</time></trkpt><trkpt lat="43.23422480039867" lon="10.556053851044718"><ele>8.0</ele><time>2026-03-29T14:29:04Z</time></trkpt><trkpt lat="43.23446911919096" lon="10.556037056621905"><ele>8.0</ele><time>2026-03-29T14:29:05Z</time></trkpt><trkpt lat="43.2347149364716" lon="10.556021953769992"><ele>8.0</ele><time>2026-03-29T14:29:06Z</time></trkpt><trkpt lat="43.234961165278364" lon="10.556012467272263"><ele>7.0</ele><time>2026-03-29T14:29:07Z</time></trkpt><trkpt lat="43.23520677469551" lon="10.556013088827632"><ele>6.0</ele><time>2026-03-29T14:29:08Z</time></trkpt><trkpt lat="43.23545479064956" lon="10.556023678932773"><ele>7.5</ele><time>2026-03-29T14:29:09Z</time></trkpt><trkpt lat="43.235702033861074" lon="10.556033414273422"><ele>9.0</ele><time>2026-03-29T14:29:10Z</time></trkpt><trkpt lat="43.23594767231302" lon="10.556044619676188"><ele>9.0</ele><time>2026-03-29T14:29:11Z</time></trkpt><trkpt lat="43.23618935078323" lon="10.556056651498464"><ele>9.0</ele><time>2026-03-29T14:29:12Z</time></trkpt><trkpt lat="43.23643029285832" lon="10.556059280897566"><ele>8.0</ele><time>2026-03-29T14:29:13Z</time></trkpt><trkpt lat="43.23667214533036" lon="10.556066244170305"><ele>7.0</ele><time>2026-03-29T14:29:14Z</time></trkpt><trkpt lat="43.23691533548169" lon="10.556074861797821"><ele>7.0</ele><time>2026-03-29T14:29:15Z</time></trkpt><trkpt lat="43.23715574209675" lon="10.556083567351019"><ele>7.0</ele><time>2026-03-29T14:29:16Z</time></trkpt><trkpt lat="43.23739727523789" lon="10.556093122471282"><ele>7.0</ele><time>2026-03-29T14:29:17Z</time></trkpt><trkpt lat="43.23763794208211" lon="10.556104849326365"><ele>7.0</ele><time>2026-03-29T14:29:18Z</time></trkpt><trkpt lat="43.23787943184548" lon="10.5561157350368"><ele>7.0</ele><time>2026-03-29T14:29:19Z</time></trkpt><trkpt lat="43.238119803419174" lon="10.556125542870417"><ele>7.0</ele><time>2026-03-29T14:29:20Z</time></trkpt><trkpt lat="43.238358775560634" lon="10.556133368873747"><ele>8.0</ele><time>2026-03-29T14:29:21Z</time></trkpt><trkpt lat="43.23859679264775" lon="10.556138366983216"><ele>9.0</ele><time>2026-03-29T14:29:22Z</time></trkpt><trkpt lat="43.23883576180863" lon="10.556146673730833"><ele>7.5</ele><time>2026-03-29T14:29:23Z</time></trkpt><trkpt lat="43.23907734395715" lon="10.556158285345623"><ele>6.0</ele><time>2026-03-29T14:29:23.999Z</time></trkpt><trkpt lat="43.23931428891758" lon="10.55616073974052"><ele>6.0</ele><time>2026-03-29T14:29:24.999Z</time></trkpt><trkpt lat="43.23954459907795" lon="10.556157096233797"><ele>6.0</ele><time>2026-03-29T14:29:25.999Z</time></trkpt><trkpt lat="43.239782130244066" lon="10.556155252623913"><ele>6.5</ele><time>2026-03-29T14:29:26.999Z</time></trkpt><trkpt lat="43.24001485500924" lon="10.556137933067294"><ele>7.0</ele><time>2026-03-29T14:29:27.999Z</time></trkpt><trkpt lat="43.2402464303092" lon="10.5561191626323"><ele>7.0</ele><time>2026-03-29T14:29:28.999Z</time></trkpt><trkpt lat="43.24048302652669" lon="10.556093359025358"><ele>7.0</ele><time>2026-03-29T14:29:29.999Z</time></trkpt><trkpt lat="43.24071390674948" lon="10.556062491036641"><ele>7.5</ele><time>2026-03-29T14:29:30.999Z</time></trkpt><trkpt lat="43.24094581324035" lon="10.556022128724328"><ele>8.0</ele><time>2026-03-29T14:29:31.999Z</time></trkpt><trkpt lat="43.24117692093363" lon="10.555970940947175"><ele>8.0</ele><time>2026-03-29T14:29:32.999Z</time></trkpt><trkpt lat="43.24140217203285" lon="10.555905624675905"><ele>8.0</ele><time>2026-03-29T14:29:33.999Z</time></trkpt><trkpt lat="43.241633483018866" lon="10.55583586751579"><ele>9.5</ele><time>2026-03-29T14:29:34.999Z</time></trkpt><trkpt lat="43.24185894894528" lon="10.555757824005951"><ele>11.0</ele><time>2026-03-29T14:29:35.999Z</time></trkpt><trkpt lat="43.24208888503757" lon="10.555676148202561"><ele>10.0</ele><time>2026-03-29T14:29:36.999Z</time></trkpt><trkpt lat="43.242313176993164" lon="10.55557964865873"><ele>9.0</ele><time>2026-03-29T14:29:37.999Z</time></trkpt><trkpt lat="43.24254165709949" lon="10.555480851939478"><ele>9.0</ele><time>2026-03-29T14:29:38.999Z</time></trkpt><trkpt lat="43.24276923729118" lon="10.55537479721366"><ele>9.0</ele><time>2026-03-29T14:29:39.999Z</time></trkpt><trkpt lat="43.24299525421369" lon="10.555251741737303"><ele>8.5</ele><time>2026-03-29T14:29:40.999Z</time></trkpt><trkpt lat="43.2432187233524" lon="10.5551208932549"><ele>8.0</ele><time>2026-03-29T14:29:41.999Z</time></trkpt><trkpt lat="43.24344285353857" lon="10.554985344306946"><ele>8.0</ele><time>2026-03-29T14:29:42.999Z</time></trkpt><trkpt lat="43.243670882039716" lon="10.554836539853955"><ele>8.0</ele><time>2026-03-29T14:29:43.999Z</time></trkpt><trkpt lat="43.243881391285726" lon="10.554673632838716"><ele>9.0</ele><time>2026-03-29T14:29:44.999Z</time></trkpt><trkpt lat="43.24410704100341" lon="10.554517579208143"><ele>10.0</ele><time>2026-03-29T14:29:45.999Z</time></trkpt><trkpt lat="43.24432711636615" lon="10.55434947327871"><ele>10.0</ele><time>2026-03-29T14:29:46.999Z</time></trkpt><trkpt lat="43.244541668269086" lon="10.554181724079266"><ele>10.0</ele><time>2026-03-29T14:29:47.999Z</time></trkpt><trkpt lat="43.24476118626359" lon="10.55400521582706"><ele>9.0</ele><time>2026-03-29T14:29:48.999Z</time></trkpt><trkpt lat="43.244981282567096" lon="10.553825830026781"><ele>8.0</ele><time>2026-03-29T14:29:49.999Z</time></trkpt><trkpt lat="43.24519942997713" lon="10.553651038321473"><ele>8.0</ele><time>2026-03-29T14:29:50.999Z</time></trkpt><trkpt lat="43.24540503188807" lon="10.553482462129095"><ele>8.0</ele><time>2026-03-29T14:29:51.999Z</time></trkpt><trkpt lat="43.24561382262317" lon="10.553310317117937"><ele>7.0</ele><time>2026-03-29T14:29:52.999Z</time></trkpt><trkpt lat="43.2458218371696" lon="10.553138578910294"><ele>6.0</ele><time>2026-03-29T14:29:53.999Z</time></trkpt><trkpt lat="43.24603398267158" lon="10.552963191803402"><ele>6.5</ele><time>2026-03-29T14:29:54.999Z</time></trkpt><trkpt lat="43.24624446998756" lon="10.552784438277019"><ele>7.0</ele><time>2026-03-29T14:29:55.999Z</time></trkpt><trkpt lat="43.24644716603793" lon="10.552597081258757"><ele>7.5</ele><time>2026-03-29T14:29:56.999Z</time></trkpt><trkpt lat="43.24664944139566" lon="10.55239481993974"><ele>8.0</ele><time>2026-03-29T14:29:57.999Z</time></trkpt><trkpt lat="43.246845961167" lon="10.552179727509372"><ele>8.5</ele><time>2026-03-29T14:29:58.999Z</time></trkpt><trkpt lat="43.24703210789272" lon="10.551950256529784"><ele>9.0</ele><time>2026-03-29T14:29:59.999Z</time></trkpt><trkpt lat="43.24721686526273" lon="10.551717479148762"><ele>9.5</ele><time>2026-03-29T14:30:00.999Z</time></trkpt><trkpt lat="43.247396697132224" lon="10.551473577436465"><ele>10.0</ele><time>2026-03-29T14:30:01.999Z</time></trkpt><trkpt lat="43.2475676573337" lon="10.551228588676956"><ele>10.0</ele><time>2026-03-29T14:30:02.999Z</time></trkpt><trkpt lat="43.24773288618595" lon="10.550985537352625"><ele>10.0</ele><time>2026-03-29T14:30:03.999Z</time></trkpt><trkpt lat="43.247900689636765" lon="10.550741956696418"><ele>10.0</ele><time>2026-03-29T14:30:04.999Z</time></trkpt><trkpt lat="43.24807621590548" lon="10.550466014031228"><ele>10.0</ele><time>2026-03-29T14:30:05.999Z</time></trkpt><trkpt lat="43.248264214364724" lon="10.550194924227668"><ele>8.0</ele><time>2026-03-29T14:30:06.999Z</time></trkpt><trkpt lat="43.24845436504571" lon="10.549956208374207"><ele>6.0</ele><time>2026-03-29T14:30:07.999Z</time></trkpt><trkpt lat="43.24864915483354" lon="10.549735561417904"><ele>5.5</ele><time>2026-03-29T14:30:08.999Z</time></trkpt><trkpt lat="43.24885631473343" lon="10.54952978503278"><ele>5.0</ele><time>2026-03-29T14:30:09.999Z</time></trkpt><trkpt lat="43.249068360898164" lon="10.54933835979278"><ele>6.5</ele><time>2026-03-29T14:30:10.999Z</time></trkpt><trkpt lat="43.24928523256278" lon="10.54916629896734"><ele>8.0</ele><time>2026-03-29T14:30:11.999Z</time></trkpt><trkpt lat="43.24952031608652" lon="10.549010517958443"><ele>8.0</ele><time>2026-03-29T14:30:12.999Z</time></trkpt><trkpt lat="43.24974971292926" lon="10.548863889862956"><ele>8.0</ele><time>2026-03-29T14:30:13.999Z</time></trkpt><trkpt lat="43.249984388839835" lon="10.548728634913504"><ele>7.0</ele><time>2026-03-29T14:30:14.999Z</time></trkpt><trkpt lat="43.25023327239222" lon="10.548618025550722"><ele>6.0</ele><time>2026-03-29T14:30:16Z</time></trkpt><trkpt lat="43.250474980539956" lon="10.548511624553889"><ele>6.5</ele><time>2026-03-29T14:30:17Z</time></trkpt><trkpt lat="43.250719305529586" lon="10.54841013694475"><ele>7.0</ele><time>2026-03-29T14:30:18Z</time></trkpt><trkpt lat="43.250966043770376" lon="10.548308530881922"><ele>7.0</ele><time>2026-03-29T14:30:19Z</time></trkpt><trkpt lat="43.25121492282959" lon="10.548199115797276"><ele>7.0</ele><time>2026-03-29T14:30:20Z</time></trkpt><trkpt lat="43.2514589202252" lon="10.548093629014978"><ele>6.0</ele><time>2026-03-29T14:30:21Z</time></trkpt><trkpt lat="43.25170504985222" lon="10.547985111891975"><ele>5.0</ele><time>2026-03-29T14:30:22Z</time></trkpt><trkpt lat="43.2519532049355" lon="10.547876420877772"><ele>5.0</ele><time>2026-03-29T14:30:23Z</time></trkpt><trkpt lat="43.25219804871762" lon="10.547769307000747"><ele>5.0</ele><time>2026-03-29T14:30:24Z</time></trkpt><trkpt lat="43.25244771513895" lon="10.54766405973341"><ele>4.5</ele><time>2026-03-29T14:30:25Z</time></trkpt><trkpt lat="43.25269622694572" lon="10.547560792811364"><ele>4.0</ele><time>2026-03-29T14:30:26Z</time></trkpt><trkpt lat="43.25294558976397" lon="10.547458298047568"><ele>4.0</ele><time>2026-03-29T14:30:27Z</time></trkpt><trkpt lat="43.25319437206771" lon="10.54735153772881"><ele>4.0</ele><time>2026-03-29T14:30:28Z</time></trkpt><trkpt lat="43.25344276067795" lon="10.547245138706893"><ele>4.0</ele><time>2026-03-29T14:30:29Z</time></trkpt><trkpt lat="43.253685557625055" lon="10.547135233263226"><ele>4.0</ele><time>2026-03-29T14:30:30Z</time></trkpt><trkpt lat="43.25392915397252" lon="10.54703451660682"><ele>4.5</ele><time>2026-03-29T14:30:31Z</time></trkpt><trkpt lat="43.25417505767549" lon="10.546927984346478"><ele>5.0</ele><time>2026-03-29T14:30:32Z</time></trkpt><trkpt lat="43.25441893618703" lon="10.546820561355158"><ele>5.0</ele><time>2026-03-29T14:30:33Z</time></trkpt><trkpt lat="43.25466704475993" lon="10.546720577217215"><ele>5.0</ele><time>2026-03-29T14:30:34Z</time></trkpt><trkpt lat="43.254910496414766" lon="10.54661660058382"><ele>5.0</ele><time>2026-03-29T14:30:35Z</time></trkpt><trkpt lat="43.255153473017415" lon="10.546511167014376"><ele>5.0</ele><time>2026-03-29T14:30:36Z</time></trkpt><trkpt lat="43.2553979312904" lon="10.546406461302537"><ele>5.0</ele><time>2026-03-29T14:30:37Z</time></trkpt><trkpt lat="43.25564366033619" lon="10.546304917874183"><ele>5.0</ele><time>2026-03-29T14:30:38Z</time></trkpt><trkpt lat="43.255886546843016" lon="10.546199323339897"><ele>4.5</ele><time>2026-03-29T14:30:39Z</time></trkpt><trkpt lat="43.256133223899155" lon="10.54608231476747"><ele>4.0</ele><time>2026-03-29T14:30:40Z</time></trkpt><trkpt lat="43.25637987382197" lon="10.545975098131235"><ele>5.0</ele><time>2026-03-29T14:30:41Z</time></trkpt><trkpt lat="43.2566243417953" lon="10.545874024551681"><ele>6.0</ele><time>2026-03-29T14:30:42Z</time></trkpt><trkpt lat="43.25687450245847" lon="10.54576380534801"><ele>6.0</ele><time>2026-03-29T14:30:43Z</time></trkpt><trkpt lat="43.25712755978945" lon="10.545664339666082"><ele>6.0</ele><time>2026-03-29T14:30:44Z</time></trkpt><trkpt lat="43.25737790966163" lon="10.545556969458184"><ele>6.5</ele><time>2026-03-29T14:30:45Z</time></trkpt><trkpt lat="43.25763111249165" lon="10.545451638630537"><ele>7.0</ele><time>2026-03-29T14:30:46Z</time></trkpt><trkpt lat="43.257883090055586" lon="10.54534480004539"><ele>7.5</ele><time>2026-03-29T14:30:47Z</time></trkpt><trkpt lat="43.25813446256472" lon="10.54523543440845"><ele>8.0</ele><time>2026-03-29T14:30:48Z</time></trkpt><trkpt lat="43.25838810224246" lon="10.545126321688262"><ele>8.0</ele><time>2026-03-29T14:30:49Z</time></trkpt><trkpt lat="43.25864316666504" lon="10.545016594475607"><ele>8.0</ele><time>2026-03-29T14:30:50Z</time></trkpt><trkpt lat="43.258888804574205" lon="10.544909566127858"><ele>7.0</ele><time>2026-03-29T14:30:51Z</time></trkpt><trkpt lat="43.25912710147418" lon="10.544807258099269"><ele>6.0</ele><time>2026-03-29T14:30:52Z</time></trkpt><trkpt lat="43.25936361330889" lon="10.544709561418953"><ele>6.0</ele><time>2026-03-29T14:30:53Z</time></trkpt><trkpt lat="43.259603239960455" lon="10.544606975987369"><ele>6.0</ele><time>2026-03-29T14:30:54Z</time></trkpt><trkpt lat="43.25983845343897" lon="10.544503347727673"><ele>6.5</ele><time>2026-03-29T14:30:55Z</time></trkpt><trkpt lat="43.26007657675041" lon="10.544401978118087"><ele>7.0</ele><time>2026-03-29T14:30:56Z</time></trkpt><trkpt lat="43.26031213034832" lon="10.544302174732223"><ele>7.0</ele><time>2026-03-29T14:30:57Z</time></trkpt><trkpt lat="43.260547982367434" lon="10.544201296348856"><ele>7.0</ele><time>2026-03-29T14:30:58Z</time></trkpt><trkpt lat="43.26078591868793" lon="10.544100447310928"><ele>6.5</ele><time>2026-03-29T14:30:59Z</time></trkpt><trkpt lat="43.26101905483832" lon="10.544001944571914"><ele>6.0</ele><time>2026-03-29T14:31:00Z</time></trkpt><trkpt lat="43.26125575895769" lon="10.543897572796327"><ele>6.0</ele><time>2026-03-29T14:31:01Z</time></trkpt><trkpt lat="43.26149155310736" lon="10.543795326893676"><ele>6.0</ele><time>2026-03-29T14:31:02Z</time></trkpt><trkpt lat="43.26172787448373" lon="10.543697200030048"><ele>6.0</ele><time>2026-03-29T14:31:03Z</time></trkpt><trkpt lat="43.26195893411716" lon="10.543595335265376"><ele>6.0</ele><time>2026-03-29T14:31:04Z</time></trkpt><trkpt lat="43.26219692439134" lon="10.543493946623375"><ele>6.0</ele><time>2026-03-29T14:31:05Z</time></trkpt><trkpt lat="43.26244061244715" lon="10.543400794734449"><ele>6.0</ele><time>2026-03-29T14:31:06Z</time></trkpt><trkpt lat="43.26267567240227" lon="10.543298553570807"><ele>6.0</ele><time>2026-03-29T14:31:07Z</time></trkpt><trkpt lat="43.262913471760946" lon="10.543196834659163"><ele>6.0</ele><time>2026-03-29T14:31:08Z</time></trkpt><trkpt lat="43.26315387523211" lon="10.543100091554267"><ele>5.5</ele><time>2026-03-29T14:31:09Z</time></trkpt><trkpt lat="43.26339406077893" lon="10.543007163722296"><ele>5.0</ele><time>2026-03-29T14:31:10Z</time></trkpt><trkpt lat="43.26363755897606" lon="10.542911181115894"><ele>5.5</ele><time>2026-03-29T14:31:11Z</time></trkpt><trkpt lat="43.26387906998554" lon="10.54282019287309"><ele>6.0</ele><time>2026-03-29T14:31:12Z</time></trkpt><trkpt lat="43.2641212463529" lon="10.542727176412779"><ele>6.5</ele><time>2026-03-29T14:31:13Z</time></trkpt><trkpt lat="43.26436298518017" lon="10.542635742085446"><ele>7.0</ele><time>2026-03-29T14:31:14Z</time></trkpt><trkpt lat="43.26460691194241" lon="10.54255022838712"><ele>7.5</ele><time>2026-03-29T14:31:15Z</time></trkpt><trkpt lat="43.264852717358195" lon="10.542465692140818"><ele>8.0</ele><time>2026-03-29T14:31:16Z</time></trkpt><trkpt lat="43.265098374776166" lon="10.542375413383795"><ele>8.0</ele><time>2026-03-29T14:31:17Z</time></trkpt><trkpt lat="43.26534386337342" lon="10.542283976897439"><ele>8.0</ele><time>2026-03-29T14:31:18Z</time></trkpt><trkpt lat="43.26559088184831" lon="10.542192130813465"><ele>8.5</ele><time>2026-03-29T14:31:19Z</time></trkpt><trkpt lat="43.26583575365197" lon="10.54210636737257"><ele>9.0</ele><time>2026-03-29T14:31:20Z</time></trkpt><trkpt lat="43.26608593178262" lon="10.542016944336469"><ele>9.0</ele><time>2026-03-29T14:31:21Z</time></trkpt><trkpt lat="43.266333011033254" lon="10.541927718689065"><ele>9.0</ele><time>2026-03-29T14:31:22Z</time></trkpt><trkpt lat="43.266579058863314" lon="10.541846574654087"><ele>9.0</ele><time>2026-03-29T14:31:22.999Z</time></trkpt><trkpt lat="43.26682950842348" lon="10.541754999325349"><ele>9.0</ele><time>2026-03-29T14:31:23.999Z</time></trkpt><trkpt lat="43.267080768936886" lon="10.541666648545755"><ele>9.5</ele><time>2026-03-29T14:31:24.999Z</time></trkpt><trkpt lat="43.26733204551826" lon="10.541577086165479"><ele>10.0</ele><time>2026-03-29T14:31:25.999Z</time></trkpt><trkpt lat="43.26758220871128" lon="10.541481771209819"><ele>10.0</ele><time>2026-03-29T14:31:26.999Z</time></trkpt><trkpt lat="43.26783210474919" lon="10.541394142108738"><ele>10.0</ele><time>2026-03-29T14:31:27.999Z</time></trkpt><trkpt lat="43.268087342513496" lon="10.541293959551046"><ele>9.0</ele><time>2026-03-29T14:31:28.999Z</time></trkpt><trkpt lat="43.2683403807115" lon="10.541204786516602"><ele>8.0</ele><time>2026-03-29T14:31:29.999Z</time></trkpt><trkpt lat="43.268591556466795" lon="10.541120662029993"><ele>8.0</ele><time>2026-03-29T14:31:30.999Z</time></trkpt><trkpt lat="43.268836495085196" lon="10.541030829740675"><ele>8.0</ele><time>2026-03-29T14:31:31.999Z</time></trkpt><trkpt lat="43.26906923292051" lon="10.540939978006728"><ele>8.5</ele><time>2026-03-29T14:31:32.999Z</time></trkpt><trkpt lat="43.26930133848083" lon="10.540858250862055"><ele>9.0</ele><time>2026-03-29T14:31:33.999Z</time></trkpt><trkpt lat="43.269538981387726" lon="10.540770879039284"><ele>8.5</ele><time>2026-03-29T14:31:34.999Z</time></trkpt><trkpt lat="43.269777484314666" lon="10.540685579717996"><ele>8.0</ele><time>2026-03-29T14:31:35.999Z</time></trkpt><trkpt lat="43.27001901894908" lon="10.540601260991314"><ele>8.0</ele><time>2026-03-29T14:31:36.999Z</time></trkpt><trkpt lat="43.27025891137171" lon="10.54051482110206"><ele>8.0</ele><time>2026-03-29T14:31:37.999Z</time></trkpt><trkpt lat="43.270496094122336" lon="10.540429047773955"><ele>7.5</ele><time>2026-03-29T14:31:38.999Z</time></trkpt><trkpt lat="43.27073922246858" lon="10.540339840636715"><ele>7.0</ele><time>2026-03-29T14:31:39.999Z</time></trkpt><trkpt lat="43.27098048507541" lon="10.540249841259742"><ele>7.0</ele><time>2026-03-29T14:31:40.999Z</time></trkpt><trkpt lat="43.271221418269285" lon="10.540164484056525"><ele>7.0</ele><time>2026-03-29T14:31:41.999Z</time></trkpt><trkpt lat="43.27146526923558" lon="10.540077296606718"><ele>7.5</ele><time>2026-03-29T14:31:42.999Z</time></trkpt><trkpt lat="43.27170340521298" lon="10.539988198019438"><ele>8.0</ele><time>2026-03-29T14:31:43.999Z</time></trkpt><trkpt lat="43.27194737567091" lon="10.539903785556042"><ele>8.0</ele><time>2026-03-29T14:31:44.999Z</time></trkpt><trkpt lat="43.27218344291809" lon="10.539822258345064"><ele>8.0</ele><time>2026-03-29T14:31:45.999Z</time></trkpt><trkpt lat="43.272424076083034" lon="10.539734018198226"><ele>7.0</ele><time>2026-03-29T14:31:46.999Z</time></trkpt><trkpt lat="43.2726695668345" lon="10.53964701880162"><ele>6.0</ele><time>2026-03-29T14:31:47.999Z</time></trkpt><trkpt lat="43.27291769275688" lon="10.539563417572504"><ele>6.0</ele><time>2026-03-29T14:31:48.999Z</time></trkpt><trkpt lat="43.27316245209445" lon="10.539481602779912"><ele>6.0</ele><time>2026-03-29T14:31:49.999Z</time></trkpt><trkpt lat="43.273404582682225" lon="10.539398385062114"><ele>6.0</ele><time>2026-03-29T14:31:50.999Z</time></trkpt><trkpt lat="43.2736466168517" lon="10.539317917906043"><ele>6.0</ele><time>2026-03-29T14:31:51.999Z</time></trkpt><trkpt lat="43.27389090743333" lon="10.539249617827235"><ele>6.0</ele><time>2026-03-29T14:31:52.999Z</time></trkpt><trkpt lat="43.27413627887856" lon="10.53919291842411"><ele>6.0</ele><time>2026-03-29T14:31:53.999Z</time></trkpt><trkpt lat="43.274386091759546" lon="10.53915903464975"><ele>6.0</ele><time>2026-03-29T14:31:54.999Z</time></trkpt><trkpt lat="43.27463403400474" lon="10.539134792108177"><ele>6.0</ele><time>2026-03-29T14:31:55.999Z</time></trkpt><trkpt lat="43.27488316064464" lon="10.53911861290183"><ele>6.5</ele><time>2026-03-29T14:31:56.999Z</time></trkpt><trkpt lat="43.27513099311956" lon="10.53911176314359"><ele>7.0</ele><time>2026-03-29T14:31:57.999Z</time></trkpt><trkpt lat="43.27537831541875" lon="10.539116366774229"><ele>7.0</ele><time>2026-03-29T14:31:58.999Z</time></trkpt><trkpt lat="43.27562553107847" lon="10.539136271144727"><ele>7.0</ele><time>2026-03-29T14:31:59.999Z</time></trkpt><trkpt lat="43.27587051526494" lon="10.539166178100373"><ele>7.0</ele><time>2026-03-29T14:32:00.999Z</time></trkpt><trkpt lat="43.27611839334343" lon="10.539207673261794"><ele>7.0</ele><time>2026-03-29T14:32:01.999Z</time></trkpt><trkpt lat="43.27636252287733" lon="10.539261490000937"><ele>7.0</ele><time>2026-03-29T14:32:02.999Z</time></trkpt><trkpt lat="43.27661033988212" lon="10.539326497031128"><ele>7.0</ele><time>2026-03-29T14:32:03.999Z</time></trkpt><trkpt lat="43.27685456546452" lon="10.539400949907723"><ele>7.0</ele><time>2026-03-29T14:32:04.999Z</time></trkpt><trkpt lat="43.27709885271055" lon="10.539491215001883"><ele>7.0</ele><time>2026-03-29T14:32:05.999Z</time></trkpt><trkpt lat="43.27733934137313" lon="10.539587002484813"><ele>6.5</ele><time>2026-03-29T14:32:06.999Z</time></trkpt><trkpt lat="43.2775808662671" lon="10.539691317721681"><ele>6.0</ele><time>2026-03-29T14:32:07.999Z</time></trkpt><trkpt lat="43.277820248032505" lon="10.539793219794843"><ele>6.0</ele><time>2026-03-29T14:32:08.999Z</time></trkpt><trkpt lat="43.278061437000105" lon="10.539894789585992"><ele>6.0</ele><time>2026-03-29T14:32:09.999Z</time></trkpt><trkpt lat="43.27830304936689" lon="10.53999390374606"><ele>6.5</ele><time>2026-03-29T14:32:10.999Z</time></trkpt><trkpt lat="43.27854423700514" lon="10.540085805656366"><ele>7.0</ele><time>2026-03-29T14:32:11.999Z</time></trkpt><trkpt lat="43.278785821778335" lon="10.540187871891515"><ele>8.5</ele><time>2026-03-29T14:32:12.999Z</time></trkpt><trkpt lat="43.279024473581806" lon="10.540286708996259"><ele>10.0</ele><time>2026-03-29T14:32:13.999Z</time></trkpt><trkpt lat="43.279267552124736" lon="10.5403861087094"><ele>10.5</ele><time>2026-03-29T14:32:14.999Z</time></trkpt><trkpt lat="43.27950339543404" lon="10.540483992114227"><ele>11.0</ele><time>2026-03-29T14:32:15.999Z</time></trkpt><trkpt lat="43.27974177714866" lon="10.540581981185419"><ele>9.5</ele><time>2026-03-29T14:32:16.999Z</time></trkpt><trkpt lat="43.27998095115423" lon="10.54067977572501"><ele>8.0</ele><time>2026-03-29T14:32:17.999Z</time></trkpt><trkpt lat="43.280220785221005" lon="10.540775622849505"><ele>8.0</ele><time>2026-03-29T14:32:18.999Z</time></trkpt><trkpt lat="43.28045800595444" lon="10.540874890447133"><ele>8.0</ele><time>2026-03-29T14:32:19.999Z</time></trkpt><trkpt lat="43.28069588630965" lon="10.540970461435885"><ele>8.5</ele><time>2026-03-29T14:32:20.999Z</time></trkpt><trkpt lat="43.28093381592148" lon="10.541065937854766"><ele>9.0</ele><time>2026-03-29T14:32:22Z</time></trkpt><trkpt lat="43.2811691665172" lon="10.541162782517992"><ele>9.0</ele><time>2026-03-29T14:32:23Z</time></trkpt><trkpt lat="43.28140824102573" lon="10.541262898283168"><ele>9.0</ele><time>2026-03-29T14:32:24Z</time></trkpt><trkpt lat="43.28164415623303" lon="10.541359653927413"><ele>9.0</ele><time>2026-03-29T14:32:25Z</time></trkpt><trkpt lat="43.281879783989645" lon="10.54145049117057"><ele>9.0</ele><time>2026-03-29T14:32:26Z</time></trkpt><trkpt lat="43.28211311525058" lon="10.5415532545092"><ele>10.0</ele><time>2026-03-29T14:32:27Z</time></trkpt><trkpt lat="43.28234498339087" lon="10.541646153740375"><ele>11.0</ele><time>2026-03-29T14:32:28Z</time></trkpt><trkpt lat="43.282577743149645" lon="10.541739985785018"><ele>11.0</ele><time>2026-03-29T14:32:29Z</time></trkpt><trkpt lat="43.28281118515887" lon="10.541834261046173"><ele>11.0</ele><time>2026-03-29T14:32:30Z</time></trkpt><trkpt lat="43.28304105293984" lon="10.54192766407688"><ele>12.0</ele><time>2026-03-29T14:32:31Z</time></trkpt><trkpt lat="43.28328147943245" lon="10.54201915475263"><ele>13.0</ele><time>2026-03-29T14:32:32Z</time></trkpt><trkpt lat="43.283511085298464" lon="10.542117083230181"><ele>13.0</ele><time>2026-03-29T14:32:33Z</time></trkpt><trkpt lat="43.28374401127858" lon="10.542212650966547"><ele>13.0</ele><time>2026-03-29T14:32:34Z</time></trkpt><trkpt lat="43.28397545671411" lon="10.54230556510136"><ele>13.0</ele><time>2026-03-29T14:32:35Z</time></trkpt><trkpt lat="43.2842068806837" lon="10.542401799707344"><ele>13.0</ele><time>2026-03-29T14:32:36Z</time></trkpt><trkpt lat="43.2844370801692" lon="10.542488211134696"><ele>13.0</ele><time>2026-03-29T14:32:37Z</time></trkpt><trkpt lat="43.28466838216179" lon="10.542570929123112"><ele>13.0</ele><time>2026-03-29T14:32:38Z</time></trkpt><trkpt lat="43.28490001185766" lon="10.542651105981955"><ele>12.0</ele><time>2026-03-29T14:32:39Z</time></trkpt><trkpt lat="43.28513616281767" lon="10.542728254436833"><ele>11.0</ele><time>2026-03-29T14:32:40Z</time></trkpt><trkpt lat="43.285374189576096" lon="10.542810372345675"><ele>11.0</ele><time>2026-03-29T14:32:41Z</time></trkpt><trkpt lat="43.28561376762912" lon="10.542880903346157"><ele>11.0</ele><time>2026-03-29T14:32:42Z</time></trkpt><trkpt lat="43.285855711260936" lon="10.542946042970069"><ele>11.0</ele><time>2026-03-29T14:32:43Z</time></trkpt><trkpt lat="43.28609511620445" lon="10.543005425119677"><ele>11.0</ele><time>2026-03-29T14:32:44Z</time></trkpt><trkpt lat="43.286341007087586" lon="10.543064902294761"><ele>11.5</ele><time>2026-03-29T14:32:45Z</time></trkpt><trkpt lat="43.28658815481825" lon="10.543117664839718"><ele>12.0</ele><time>2026-03-29T14:32:46Z</time></trkpt><trkpt lat="43.2868350642837" lon="10.54316280580451"><ele>12.0</ele><time>2026-03-29T14:32:47Z</time></trkpt><trkpt lat="43.2870814713212" lon="10.54320549593354"><ele>12.0</ele><time>2026-03-29T14:32:48Z</time></trkpt><trkpt lat="43.2873297258881" lon="10.543246320333992"><ele>12.0</ele><time>2026-03-29T14:32:49Z</time></trkpt><trkpt lat="43.28757914443618" lon="10.543287554673428"><ele>12.0</ele><time>2026-03-29T14:32:50Z</time></trkpt><trkpt lat="43.28782561460755" lon="10.543326978507782"><ele>12.0</ele><time>2026-03-29T14:32:51Z</time></trkpt><trkpt lat="43.28807596504017" lon="10.543373658626166"><ele>12.0</ele><time>2026-03-29T14:32:52Z</time></trkpt><trkpt lat="43.288322595543754" lon="10.54341603946691"><ele>12.0</ele><time>2026-03-29T14:32:53Z</time></trkpt><trkpt lat="43.28857047814686" lon="10.543459600505503"><ele>12.0</ele><time>2026-03-29T14:32:54Z</time></trkpt><trkpt lat="43.288815430511754" lon="10.543502745747158"><ele>12.0</ele><time>2026-03-29T14:32:55Z</time></trkpt><trkpt lat="43.28905839741423" lon="10.543546829467848"><ele>12.0</ele><time>2026-03-29T14:32:56Z</time></trkpt><trkpt lat="43.28929763817279" lon="10.543591343264548"><ele>12.0</ele><time>2026-03-29T14:32:57Z</time></trkpt><trkpt lat="43.2895387055607" lon="10.543634414474308"><ele>12.0</ele><time>2026-03-29T14:32:58Z</time></trkpt><trkpt lat="43.28977947757906" lon="10.543674974907727"><ele>13.0</ele><time>2026-03-29T14:32:59Z</time></trkpt><trkpt lat="43.29001702294372" lon="10.543714789082253"><ele>14.0</ele><time>2026-03-29T14:33:00Z</time></trkpt><trkpt lat="43.290251413496364" lon="10.543753084727006"><ele>14.0</ele><time>2026-03-29T14:33:01Z</time></trkpt><trkpt lat="43.2904865195643" lon="10.543793190362228"><ele>14.0</ele><time>2026-03-29T14:33:02Z</time></trkpt><trkpt lat="43.29072263944948" lon="10.543836659066368"><ele>16.0</ele><time>2026-03-29T14:33:03Z</time></trkpt><trkpt lat="43.29095788645455" lon="10.543874120392754"><ele>18.0</ele><time>2026-03-29T14:33:04Z</time></trkpt><trkpt lat="43.29119600173129" lon="10.543927125112548"><ele>18.0</ele><time>2026-03-29T14:33:05Z</time></trkpt><trkpt lat="43.29144070233192" lon="10.543962349778216"><ele>18.0</ele><time>2026-03-29T14:33:06Z</time></trkpt><trkpt lat="43.291674874109425" lon="10.544029622806685"><ele>18.0</ele><time>2026-03-29T14:33:07Z</time></trkpt><trkpt lat="43.29191053777813" lon="10.544087898376512"><ele>18.0</ele><time>2026-03-29T14:33:08Z</time></trkpt><trkpt lat="43.29214835886723" lon="10.544153603800117"><ele>18.5</ele><time>2026-03-29T14:33:09Z</time></trkpt><trkpt lat="43.29238415059676" lon="10.544224607762448"><ele>19.0</ele><time>2026-03-29T14:33:10Z</time></trkpt><trkpt lat="43.29261720038396" lon="10.54430074167791"><ele>19.0</ele><time>2026-03-29T14:33:11Z</time></trkpt><trkpt lat="43.29285044206705" lon="10.544380288417763"><ele>19.0</ele><time>2026-03-29T14:33:12Z</time></trkpt><trkpt lat="43.29308749012112" lon="10.544460483153761"><ele>18.5</ele><time>2026-03-29T14:33:13Z</time></trkpt><trkpt lat="43.29332350624813" lon="10.544542077453647"><ele>18.0</ele><time>2026-03-29T14:33:14Z</time></trkpt><trkpt lat="43.29355462429846" lon="10.54463042254824"><ele>18.0</ele><time>2026-03-29T14:33:15Z</time></trkpt><trkpt lat="43.2937910232954" lon="10.544726714460028"><ele>18.0</ele><time>2026-03-29T14:33:16Z</time></trkpt><trkpt lat="43.29402364458501" lon="10.544825431584295"><ele>18.0</ele><time>2026-03-29T14:33:17Z</time></trkpt><trkpt lat="43.29425022742208" lon="10.544929424770855"><ele>18.0</ele><time>2026-03-29T14:33:18Z</time></trkpt><trkpt lat="43.29448008998262" lon="10.545043665002387"><ele>18.0</ele><time>2026-03-29T14:33:19Z</time></trkpt><trkpt lat="43.29470960673543" lon="10.545156963357483"><ele>18.0</ele><time>2026-03-29T14:33:20Z</time></trkpt><trkpt lat="43.29494457354154" lon="10.545269607801002"><ele>19.5</ele><time>2026-03-29T14:33:21Z</time></trkpt><trkpt lat="43.29517969948951" lon="10.545378503033644"><ele>21.0</ele><time>2026-03-29T14:33:22Z</time></trkpt><trkpt lat="43.29541594899365" lon="10.545486601265702"><ele>22.5</ele><time>2026-03-29T14:33:23Z</time></trkpt><trkpt lat="43.2956517446862" lon="10.545593683883515"><ele>24.0</ele><time>2026-03-29T14:33:24Z</time></trkpt><trkpt lat="43.29589046010816" lon="10.545702121242279"><ele>24.0</ele><time>2026-03-29T14:33:25Z</time></trkpt><trkpt lat="43.296129079538964" lon="10.545812342048986"><ele>24.0</ele><time>2026-03-29T14:33:26Z</time></trkpt><trkpt lat="43.296359953717634" lon="10.545922241864204"><ele>25.0</ele><time>2026-03-29T14:33:27Z</time></trkpt><trkpt lat="43.296602532370294" lon="10.54603465594904"><ele>26.0</ele><time>2026-03-29T14:33:28Z</time></trkpt><trkpt lat="43.296839678504405" lon="10.546144313281719"><ele>26.0</ele><time>2026-03-29T14:33:29Z</time></trkpt><trkpt lat="43.29707595917191" lon="10.546255948477171"><ele>26.0</ele><time>2026-03-29T14:33:29.999Z</time></trkpt><trkpt lat="43.2973132451013" lon="10.546366884060857"><ele>26.0</ele><time>2026-03-29T14:33:30.999Z</time></trkpt><trkpt lat="43.29754821780925" lon="10.546480958332532"><ele>26.0</ele><time>2026-03-29T14:33:31.999Z</time></trkpt><trkpt lat="43.2977812659671" lon="10.546588433814128"><ele>26.0</ele><time>2026-03-29T14:33:32.999Z</time></trkpt><trkpt lat="43.29801407469375" lon="10.546698236230242"><ele>26.0</ele><time>2026-03-29T14:33:33.999Z</time></trkpt><trkpt lat="43.298246639775584" lon="10.546808682110218"><ele>25.0</ele><time>2026-03-29T14:33:34.999Z</time></trkpt><trkpt lat="43.29847923075242" lon="10.54691882550436"><ele>24.0</ele><time>2026-03-29T14:33:35.999Z</time></trkpt><trkpt lat="43.298714827132784" lon="10.547027372599722"><ele>26.0</ele><time>2026-03-29T14:33:36.999Z</time></trkpt><trkpt lat="43.29895445653599" lon="10.547128179610288"><ele>28.0</ele><time>2026-03-29T14:33:37.999Z</time></trkpt><trkpt lat="43.29919645489619" lon="10.547216613192573"><ele>28.0</ele><time>2026-03-29T14:33:38.999Z</time></trkpt><trkpt lat="43.29944070250133" lon="10.547269749860742"><ele>28.0</ele><time>2026-03-29T14:33:39.999Z</time></trkpt><trkpt lat="43.299698713133644" lon="10.54733393068501"><ele>28.0</ele><time>2026-03-29T14:33:40.999Z</time></trkpt><trkpt lat="43.29993587744267" lon="10.54736803044538"><ele>28.0</ele><time>2026-03-29T14:33:41.999Z</time></trkpt><trkpt lat="43.30018557060081" lon="10.547389961389921"><ele>28.0</ele><time>2026-03-29T14:33:42.999Z</time></trkpt><trkpt lat="43.30043588107724" lon="10.547415027683769"><ele>28.0</ele><time>2026-03-29T14:33:43.999Z</time></trkpt><trkpt lat="43.30068709239395" lon="10.547430382017803"><ele>27.0</ele><time>2026-03-29T14:33:44.999Z</time></trkpt><trkpt lat="43.30094075074798" lon="10.547429214416665"><ele>26.0</ele><time>2026-03-29T14:33:45.999Z</time></trkpt><trkpt lat="43.30118804537712" lon="10.547413611697534"><ele>27.5</ele><time>2026-03-29T14:33:46.999Z</time></trkpt><trkpt lat="43.30143985697794" lon="10.547379878860506"><ele>29.0</ele><time>2026-03-29T14:33:47.999Z</time></trkpt><trkpt lat="43.3016890527186" lon="10.547337481261385"><ele>29.0</ele><time>2026-03-29T14:33:48.999Z</time></trkpt><trkpt lat="43.301936266843796" lon="10.547282174149075"><ele>29.0</ele><time>2026-03-29T14:33:49.999Z</time></trkpt><trkpt lat="43.3021760450245" lon="10.547214013959517"><ele>29.0</ele><time>2026-03-29T14:33:50.999Z</time></trkpt><trkpt lat="43.302410532074774" lon="10.547132225260377"><ele>29.0</ele><time>2026-03-29T14:33:51.999Z</time></trkpt><trkpt lat="43.30264012973716" lon="10.547041665342679"><ele>29.0</ele><time>2026-03-29T14:33:52.999Z</time></trkpt><trkpt lat="43.30286733666004" lon="10.546945562150453"><ele>29.0</ele><time>2026-03-29T14:33:53.999Z</time></trkpt><trkpt lat="43.303093228871674" lon="10.546841835821901"><ele>29.0</ele><time>2026-03-29T14:33:54.999Z</time></trkpt><trkpt lat="43.30331522978188" lon="10.546724483862883"><ele>29.0</ele><time>2026-03-29T14:33:55.999Z</time></trkpt><trkpt lat="43.3035330213714" lon="10.54659041440943"><ele>29.0</ele><time>2026-03-29T14:33:56.999Z</time></trkpt><trkpt lat="43.30374457855214" lon="10.546442756485757"><ele>29.0</ele><time>2026-03-29T14:33:57.999Z</time></trkpt><trkpt lat="43.30395123955519" lon="10.54629171157435"><ele>27.5</ele><time>2026-03-29T14:33:58.999Z</time></trkpt><trkpt lat="43.30415567745782" lon="10.546126816038253"><ele>26.0</ele><time>2026-03-29T14:33:59.999Z</time></trkpt><trkpt lat="43.30435656081921" lon="10.545952450638861"><ele>26.0</ele><time>2026-03-29T14:34:00.999Z</time></trkpt><trkpt lat="43.304556861875575" lon="10.545767871828744"><ele>26.0</ele><time>2026-03-29T14:34:01.999Z</time></trkpt><trkpt lat="43.304756171756146" lon="10.5455745919203"><ele>26.5</ele><time>2026-03-29T14:34:02.999Z</time></trkpt><trkpt lat="43.30495423536443" lon="10.545371440999796"><ele>27.0</ele><time>2026-03-29T14:34:03.999Z</time></trkpt><trkpt lat="43.305147124879426" lon="10.545158335980974"><ele>27.0</ele><time>2026-03-29T14:34:04.999Z</time></trkpt><trkpt lat="43.305338809323786" lon="10.54493750302069"><ele>27.0</ele><time>2026-03-29T14:34:05.999Z</time></trkpt><trkpt lat="43.30553147387813" lon="10.544716204609216"><ele>28.5</ele><time>2026-03-29T14:34:06.999Z</time></trkpt><trkpt lat="43.305729664900554" lon="10.544495327050432"><ele>30.0</ele><time>2026-03-29T14:34:07.999Z</time></trkpt><trkpt lat="43.305925920702144" lon="10.544276743262623"><ele>30.0</ele><time>2026-03-29T14:34:08.999Z</time></trkpt><trkpt lat="43.30612713531519" lon="10.544054648596576"><ele>30.0</ele><time>2026-03-29T14:34:09.999Z</time></trkpt><trkpt lat="43.306327329556716" lon="10.543832678264245"><ele>29.5</ele><time>2026-03-29T14:34:10.999Z</time></trkpt><trkpt lat="43.30652583932922" lon="10.543609531493974"><ele>29.0</ele><time>2026-03-29T14:34:11.999Z</time></trkpt><trkpt lat="43.306725332654366" lon="10.543378351256782"><ele>29.0</ele><time>2026-03-29T14:34:12.999Z</time></trkpt><trkpt lat="43.306924167369104" lon="10.543150466475687"><ele>29.0</ele><time>2026-03-29T14:34:13.999Z</time></trkpt><trkpt lat="43.30711498347215" lon="10.54293996003391"><ele>29.5</ele><time>2026-03-29T14:34:14.999Z</time></trkpt><trkpt lat="43.307302996856244" lon="10.542727490889972"><ele>30.0</ele><time>2026-03-29T14:34:15.999Z</time></trkpt><trkpt lat="43.30749112137174" lon="10.542513453789708"><ele>30.0</ele><time>2026-03-29T14:34:16.999Z</time></trkpt><trkpt lat="43.30768124848137" lon="10.542300056682938"><ele>30.0</ele><time>2026-03-29T14:34:17.999Z</time></trkpt><trkpt lat="43.30786961147115" lon="10.542083423967284"><ele>28.5</ele><time>2026-03-29T14:34:18.999Z</time></trkpt><trkpt lat="43.30805956690367" lon="10.541867968176398"><ele>27.0</ele><time>2026-03-29T14:34:19.999Z</time></trkpt><trkpt lat="43.30824508758296" lon="10.541655918111744"><ele>27.0</ele><time>2026-03-29T14:34:20.999Z</time></trkpt><trkpt lat="43.308432045387065" lon="10.541441449242209"><ele>27.0</ele><time>2026-03-29T14:34:21.999Z</time></trkpt><trkpt lat="43.30861844909088" lon="10.541227146275777"><ele>27.0</ele><time>2026-03-29T14:34:22.999Z</time></trkpt><trkpt lat="43.30880725258931" lon="10.541016875132438"><ele>27.0</ele><time>2026-03-29T14:34:23.999Z</time></trkpt><trkpt lat="43.30899766527533" lon="10.540804054013753"><ele>27.0</ele><time>2026-03-29T14:34:24.999Z</time></trkpt><trkpt lat="43.309185475655255" lon="10.540593246048363"><ele>27.0</ele><time>2026-03-29T14:34:25.999Z</time></trkpt><trkpt lat="43.30936676901399" lon="10.540385011317136"><ele>26.5</ele><time>2026-03-29T14:34:26.999Z</time></trkpt><trkpt lat="43.30955265032605" lon="10.540172528502724"><ele>26.0</ele><time>2026-03-29T14:34:28Z</time></trkpt><trkpt lat="43.309736406378796" lon="10.539961633998166"><ele>25.5</ele><time>2026-03-29T14:34:29Z</time></trkpt><trkpt lat="43.309921584140895" lon="10.539750466146812"><ele>25.0</ele><time>2026-03-29T14:34:30Z</time></trkpt><trkpt lat="43.31010820468983" lon="10.539539126810016"><ele>23.5</ele><time>2026-03-29T14:34:31Z</time></trkpt><trkpt lat="43.31029633520162" lon="10.539332181960768"><ele>22.0</ele><time>2026-03-29T14:34:32Z</time></trkpt><trkpt lat="43.3104850393919" lon="10.53912497038458"><ele>22.0</ele><time>2026-03-29T14:34:33Z</time></trkpt><trkpt lat="43.31067249667417" lon="10.53891142039693"><ele>22.0</ele><time>2026-03-29T14:34:34Z</time></trkpt><trkpt lat="43.310858144740024" lon="10.538700805565814"><ele>22.5</ele><time>2026-03-29T14:34:35Z</time></trkpt><trkpt lat="43.31104477967538" lon="10.5384880232551"><ele>23.0</ele><time>2026-03-29T14:34:36Z</time></trkpt><trkpt lat="43.31123083943484" lon="10.538280205468245"><ele>24.0</ele><time>2026-03-29T14:34:37Z</time></trkpt><trkpt lat="43.31141451536789" lon="10.538075732306728"><ele>25.0</ele><time>2026-03-29T14:34:38Z</time></trkpt><trkpt lat="43.31160166311003" lon="10.537880023197465"><ele>26.0</ele><time>2026-03-29T14:34:39Z</time></trkpt><trkpt lat="43.311794333735875" lon="10.537693661655851"><ele>27.0</ele><time>2026-03-29T14:34:40Z</time></trkpt><trkpt lat="43.31199330528226" lon="10.537508192269545"><ele>27.0</ele><time>2026-03-29T14:34:41Z</time></trkpt><trkpt lat="43.31219234607265" lon="10.537333740424781"><ele>27.0</ele><time>2026-03-29T14:34:42Z</time></trkpt><trkpt lat="43.31239951139441" lon="10.537165092839281"><ele>29.0</ele><time>2026-03-29T14:34:43Z</time></trkpt><trkpt lat="43.312607738443276" lon="10.537009249739699"><ele>31.0</ele><time>2026-03-29T14:34:44Z</time></trkpt><trkpt lat="43.312815473417494" lon="10.536855715805508"><ele>31.0</ele><time>2026-03-29T14:34:45Z</time></trkpt><trkpt lat="43.313031237961304" lon="10.536708557913759"><ele>31.0</ele><time>2026-03-29T14:34:46Z</time></trkpt><trkpt lat="43.31324929081414" lon="10.536567297139225"><ele>30.0</ele><time>2026-03-29T14:34:47Z</time></trkpt><trkpt lat="43.313471841085956" lon="10.536427359180772"><ele>29.0</ele><time>2026-03-29T14:34:48Z</time></trkpt><trkpt lat="43.31369528063434" lon="10.5362899384473"><ele>29.0</ele><time>2026-03-29T14:34:49Z</time></trkpt><trkpt lat="43.31392097741851" lon="10.536162356278021"><ele>29.0</ele><time>2026-03-29T14:34:50Z</time></trkpt><trkpt lat="43.31415074304279" lon="10.536033923167324"><ele>29.0</ele><time>2026-03-29T14:34:51Z</time></trkpt><trkpt lat="43.314385324421885" lon="10.535907978245767"><ele>29.0</ele><time>2026-03-29T14:34:52Z</time></trkpt><trkpt lat="43.31461711986131" lon="10.535790338253962"><ele>29.0</ele><time>2026-03-29T14:34:53Z</time></trkpt><trkpt lat="43.31485085381228" lon="10.53566746051005"><ele>29.0</ele><time>2026-03-29T14:34:54Z</time></trkpt><trkpt lat="43.31508338901977" lon="10.535537767625122"><ele>29.0</ele><time>2026-03-29T14:34:55Z</time></trkpt><trkpt lat="43.31530459826442" lon="10.535415898319242"><ele>29.0</ele><time>2026-03-29T14:34:56Z</time></trkpt><trkpt lat="43.31551090958247" lon="10.53530112365348"><ele>27.0</ele><time>2026-03-29T14:34:57Z</time></trkpt><trkpt lat="43.315716907956684" lon="10.535187140006261"><ele>25.0</ele><time>2026-03-29T14:34:58Z</time></trkpt><trkpt lat="43.315930345725825" lon="10.535074497253282"><ele>25.0</ele><time>2026-03-29T14:34:59Z</time></trkpt><trkpt lat="43.31614375214121" lon="10.534962237605669"><ele>25.0</ele><time>2026-03-29T14:35:00Z</time></trkpt><trkpt lat="43.316360274187886" lon="10.53484452809969"><ele>20.5</ele><time>2026-03-29T14:35:01Z</time></trkpt><trkpt lat="43.31657730692886" lon="10.534723380115018"><ele>16.0</ele><time>2026-03-29T14:35:02Z</time></trkpt><trkpt lat="43.31679401287913" lon="10.534600718961697"><ele>16.0</ele><time>2026-03-29T14:35:03Z</time></trkpt><trkpt lat="43.31701081541084" lon="10.534478275665982"><ele>16.0</ele><time>2026-03-29T14:35:04Z</time></trkpt><trkpt lat="43.31722673366449" lon="10.534355405138855"><ele>15.5</ele><time>2026-03-29T14:35:05Z</time></trkpt><trkpt lat="43.317439864515904" lon="10.53423750454078"><ele>15.0</ele><time>2026-03-29T14:35:06Z</time></trkpt><trkpt lat="43.31765737242974" lon="10.534115971895677"><ele>15.0</ele><time>2026-03-29T14:35:07Z</time></trkpt><trkpt lat="43.31787319951181" lon="10.533996823601525"><ele>15.0</ele><time>2026-03-29T14:35:08Z</time></trkpt><trkpt lat="43.31809139311902" lon="10.53387625618209"><ele>15.5</ele><time>2026-03-29T14:35:09Z</time></trkpt><trkpt lat="43.318309990813006" lon="10.533755643492361"><ele>16.0</ele><time>2026-03-29T14:35:10Z</time></trkpt><trkpt lat="43.31852168498052" lon="10.533637127068243"><ele>16.0</ele><time>2026-03-29T14:35:11Z</time></trkpt><trkpt lat="43.31873670276491" lon="10.533517010481425"><ele>16.0</ele><time>2026-03-29T14:35:12Z</time></trkpt><trkpt lat="43.318950299309115" lon="10.533399422289698"><ele>15.666666666666666</ele><time>2026-03-29T14:35:13Z</time></trkpt><trkpt lat="43.31915976545791" lon="10.533285887522585"><ele>15.333333333333332</ele><time>2026-03-29T14:35:14Z</time></trkpt><trkpt lat="43.31935672326578" lon="10.533179352276587"><ele>15.0</ele><time>2026-03-29T14:35:15Z</time></trkpt><trkpt lat="43.319546503346984" lon="10.533072218345396"><ele>15.0</ele><time>2026-03-29T14:35:16Z</time></trkpt><trkpt lat="43.319726922208005" lon="10.532968167272761"><ele>15.0</ele><time>2026-03-29T14:35:17Z</time></trkpt><trkpt lat="43.31990197836503" lon="10.532867728755201"><ele>15.0</ele><time>2026-03-29T14:35:18Z</time></trkpt><trkpt lat="43.320099619114636" lon="10.532754716378523"><ele>11.5</ele><time>2026-03-29T14:35:19Z</time></trkpt><trkpt lat="43.32031233583193" lon="10.532623140695872"><ele>8.0</ele><time>2026-03-29T14:35:20Z</time></trkpt><trkpt lat="43.32052371438745" lon="10.532499665041415"><ele>9.0</ele><time>2026-03-29T14:35:21Z</time></trkpt><trkpt lat="43.320738414892524" lon="10.53237477172653"><ele>10.0</ele><time>2026-03-29T14:35:22Z</time></trkpt><trkpt lat="43.32096062339644" lon="10.532255967435745"><ele>10.0</ele><time>2026-03-29T14:35:23Z</time></trkpt><trkpt lat="43.321187215613584" lon="10.532135468249528"><ele>10.0</ele><time>2026-03-29T14:35:24Z</time></trkpt><trkpt lat="43.321416198252635" lon="10.532010664529064"><ele>8.5</ele><time>2026-03-29T14:35:25Z</time></trkpt><trkpt lat="43.32164608362528" lon="10.531882724049453"><ele>7.0</ele><time>2026-03-29T14:35:26Z</time></trkpt><trkpt lat="43.32188362763428" lon="10.531752676064007"><ele>7.0</ele><time>2026-03-29T14:35:27Z</time></trkpt><trkpt lat="43.322119798784236" lon="10.531622555043512"><ele>7.0</ele><time>2026-03-29T14:35:28Z</time></trkpt><trkpt lat="43.32235606331603" lon="10.531492067475597"><ele>6.0</ele><time>2026-03-29T14:35:29Z</time></trkpt><trkpt lat="43.322592618161416" lon="10.531358508636114"><ele>5.0</ele><time>2026-03-29T14:35:30Z</time></trkpt><trkpt lat="43.32282975622561" lon="10.531228237132732"><ele>5.5</ele><time>2026-03-29T14:35:31Z</time></trkpt><trkpt lat="43.32306048187112" lon="10.531100165153727"><ele>6.0</ele><time>2026-03-29T14:35:32Z</time></trkpt><trkpt lat="43.32328940733285" lon="10.530970920363083"><ele>5.0</ele><time>2026-03-29T14:35:33Z</time></trkpt><trkpt lat="43.323523536002135" lon="10.530839663065725"><ele>4.0</ele><time>2026-03-29T14:35:34Z</time></trkpt><trkpt lat="43.323758065705846" lon="10.53070648366322"><ele>4.5</ele><time>2026-03-29T14:35:35Z</time></trkpt><trkpt lat="43.323997575904684" lon="10.53056712454873"><ele>5.0</ele><time>2026-03-29T14:35:36Z</time></trkpt><trkpt lat="43.32423917273521" lon="10.530424583247253"><ele>5.0</ele><time>2026-03-29T14:35:37Z</time></trkpt><trkpt lat="43.32450126221794" lon="10.530272215348198"><ele>5.0</ele><time>2026-03-29T14:35:38Z</time></trkpt><trkpt lat="43.324773417571414" lon="10.530113427456788"><ele>5.5</ele><time>2026-03-29T14:35:38.999Z</time></trkpt><trkpt lat="43.325056065208635" lon="10.529945576782348"><ele>6.0</ele><time>2026-03-29T14:35:39.999Z</time></trkpt><trkpt lat="43.3253429975848" lon="10.529769651421011"><ele>6.5</ele><time>2026-03-29T14:35:40.999Z</time></trkpt><trkpt lat="43.32563966752365" lon="10.529585175631071"><ele>7.0</ele><time>2026-03-29T14:35:41.999Z</time></trkpt><trkpt lat="43.32593345385536" lon="10.529401836805098"><ele>7.0</ele><time>2026-03-29T14:35:42.999Z</time></trkpt><trkpt lat="43.326207379154084" lon="10.52922809200582"><ele>7.0</ele><time>2026-03-29T14:35:43.999Z</time></trkpt><trkpt lat="43.326473173769024" lon="10.529063067927032"><ele>7.5</ele><time>2026-03-29T14:35:44.999Z</time></trkpt><trkpt lat="43.32673404001305" lon="10.5288974313289"><ele>8.0</ele><time>2026-03-29T14:35:45.999Z</time></trkpt><trkpt lat="43.3269969435419" lon="10.528731283050346"><ele>8.0</ele><time>2026-03-29T14:35:46.999Z</time></trkpt><trkpt lat="43.32725753104204" lon="10.528565340750278"><ele>8.0</ele><time>2026-03-29T14:35:47.999Z</time></trkpt><trkpt lat="43.32751686182706" lon="10.528398323683163"><ele>8.0</ele><time>2026-03-29T14:35:48.999Z</time></trkpt><trkpt lat="43.327780229404006" lon="10.528236278159438"><ele>8.0</ele><time>2026-03-29T14:35:49.999Z</time></trkpt><trkpt lat="43.32804399291026" lon="10.5280745382514"><ele>8.0</ele><time>2026-03-29T14:35:50.999Z</time></trkpt><trkpt lat="43.328307937358325" lon="10.527915097559458"><ele>8.0</ele><time>2026-03-29T14:35:51.999Z</time></trkpt><trkpt lat="43.32857118091788" lon="10.527752729873752"><ele>8.0</ele><time>2026-03-29T14:35:52.999Z</time></trkpt><trkpt lat="43.328814832403616" lon="10.527609480281889"><ele>8.0</ele><time>2026-03-29T14:35:53.999Z</time></trkpt><trkpt lat="43.32905455114262" lon="10.527470561685954"><ele>9.0</ele><time>2026-03-29T14:35:54.999Z</time></trkpt><trkpt lat="43.32929356306018" lon="10.527339706157843"><ele>10.0</ele><time>2026-03-29T14:35:55.999Z</time></trkpt><trkpt lat="43.32953239071969" lon="10.527214518768954"><ele>10.5</ele><time>2026-03-29T14:35:56.999Z</time></trkpt><trkpt lat="43.32977228875492" lon="10.527094229832674"><ele>11.0</ele><time>2026-03-29T14:35:57.999Z</time></trkpt><trkpt lat="43.33001516668099" lon="10.526982057114813"><ele>11.5</ele><time>2026-03-29T14:35:58.999Z</time></trkpt><trkpt lat="43.330255040069716" lon="10.52686899968513"><ele>12.0</ele><time>2026-03-29T14:35:59.999Z</time></trkpt><trkpt lat="43.330496762944335" lon="10.526757477616918"><ele>12.5</ele><time>2026-03-29T14:36:00.999Z</time></trkpt><trkpt lat="43.33073769624266" lon="10.526656040077869"><ele>13.0</ele><time>2026-03-29T14:36:01.999Z</time></trkpt><trkpt lat="43.330979406654926" lon="10.52655311061458"><ele>13.0</ele><time>2026-03-29T14:36:02.999Z</time></trkpt><trkpt lat="43.331219101194534" lon="10.52644546043186"><ele>13.0</ele><time>2026-03-29T14:36:03.999Z</time></trkpt><trkpt lat="43.33146269865602" lon="10.526332109349122"><ele>13.0</ele><time>2026-03-29T14:36:04.999Z</time></trkpt><trkpt lat="43.33170388444313" lon="10.526226269425543"><ele>13.0</ele><time>2026-03-29T14:36:05.999Z</time></trkpt><trkpt lat="43.33194553464152" lon="10.526120476363825"><ele>13.0</ele><time>2026-03-29T14:36:06.999Z</time></trkpt><trkpt lat="43.33218486899366" lon="10.526011919736845"><ele>13.0</ele><time>2026-03-29T14:36:07.999Z</time></trkpt><trkpt lat="43.332420427815755" lon="10.525906586254788"><ele>14.5</ele><time>2026-03-29T14:36:08.999Z</time></trkpt><trkpt lat="43.33265310921351" lon="10.525804349796621"><ele>16.0</ele><time>2026-03-29T14:36:09.999Z</time></trkpt><trkpt lat="43.33288693934197" lon="10.525700035611834"><ele>16.5</ele><time>2026-03-29T14:36:10.999Z</time></trkpt><trkpt lat="43.333110433056476" lon="10.525597169137981"><ele>17.0</ele><time>2026-03-29T14:36:11.999Z</time></trkpt><trkpt lat="43.333340973735766" lon="10.525495097690722"><ele>16.5</ele><time>2026-03-29T14:36:12.999Z</time></trkpt><trkpt lat="43.33357074029772" lon="10.525393308825095"><ele>16.0</ele><time>2026-03-29T14:36:13.999Z</time></trkpt><trkpt lat="43.33380132159875" lon="10.525288846371648"><ele>16.5</ele><time>2026-03-29T14:36:14.999Z</time></trkpt><trkpt lat="43.33403470273972" lon="10.525176231318033"><ele>17.0</ele><time>2026-03-29T14:36:15.999Z</time></trkpt><trkpt lat="43.33426636068885" lon="10.525064773116986"><ele>17.0</ele><time>2026-03-29T14:36:16.999Z</time></trkpt><trkpt lat="43.33450546864121" lon="10.524953527597006"><ele>17.0</ele><time>2026-03-29T14:36:17.999Z</time></trkpt><trkpt lat="43.33474688047869" lon="10.524846097505998"><ele>19.0</ele><time>2026-03-29T14:36:18.999Z</time></trkpt><trkpt lat="43.33499168681956" lon="10.524741094658456"><ele>21.0</ele><time>2026-03-29T14:36:19.999Z</time></trkpt><trkpt lat="43.33523866548711" lon="10.524636201447725"><ele>21.5</ele><time>2026-03-29T14:36:20.999Z</time></trkpt><trkpt lat="43.335466962637916" lon="10.524538025335977"><ele>22.0</ele><time>2026-03-29T14:36:21.999Z</time></trkpt><trkpt lat="43.33568416732692" lon="10.524443053727865"><ele>22.0</ele><time>2026-03-29T14:36:22.999Z</time></trkpt><trkpt lat="43.33590279188096" lon="10.524350779819585"><ele>22.0</ele><time>2026-03-29T14:36:23.999Z</time></trkpt><trkpt lat="43.336124230126906" lon="10.524249557109055"><ele>22.0</ele><time>2026-03-29T14:36:24.999Z</time></trkpt><trkpt lat="43.33634361118296" lon="10.524145576833686"><ele>22.0</ele><time>2026-03-29T14:36:25.999Z</time></trkpt><trkpt lat="43.33656511003677" lon="10.524039634910885"><ele>24.0</ele><time>2026-03-29T14:36:26.999Z</time></trkpt><trkpt lat="43.33678571428241" lon="10.523935687946127"><ele>26.0</ele><time>2026-03-29T14:36:27.999Z</time></trkpt><trkpt lat="43.337005645675475" lon="10.523827721233385"><ele>26.5</ele><time>2026-03-29T14:36:28.999Z</time></trkpt><trkpt lat="43.33722543903555" lon="10.523719838827356"><ele>27.0</ele><time>2026-03-29T14:36:29.999Z</time></trkpt><trkpt lat="43.33745136126203" lon="10.523603145561838"><ele>27.0</ele><time>2026-03-29T14:36:30.999Z</time></trkpt><trkpt lat="43.33767189910794" lon="10.523484799204905"><ele>27.0</ele><time>2026-03-29T14:36:31.999Z</time></trkpt><trkpt lat="43.337893392058334" lon="10.523356929270498"><ele>28.5</ele><time>2026-03-29T14:36:32.999Z</time></trkpt><trkpt lat="43.338117097434655" lon="10.52322320118027"><ele>30.0</ele><time>2026-03-29T14:36:34Z</time></trkpt><trkpt lat="43.33834112322263" lon="10.523087893102147"><ele>30.0</ele><time>2026-03-29T14:36:35Z</time></trkpt><trkpt lat="43.33856099575813" lon="10.522953763739423"><ele>30.0</ele><time>2026-03-29T14:36:36Z</time></trkpt><trkpt lat="43.338780889479466" lon="10.52281374032557"><ele>30.5</ele><time>2026-03-29T14:36:37Z</time></trkpt><trkpt lat="43.3390042877661" lon="10.52267824428106"><ele>31.0</ele><time>2026-03-29T14:36:38Z</time></trkpt><trkpt lat="43.33923133977277" lon="10.522540382514288"><ele>31.0</ele><time>2026-03-29T14:36:39Z</time></trkpt><trkpt lat="43.33945932219818" lon="10.522401383166091"><ele>31.0</ele><time>2026-03-29T14:36:40Z</time></trkpt><trkpt lat="43.339687236558376" lon="10.522259899363293"><ele>33.5</ele><time>2026-03-29T14:36:41Z</time></trkpt><trkpt lat="43.339914574110395" lon="10.522118166756472"><ele>36.0</ele><time>2026-03-29T14:36:42Z</time></trkpt><trkpt lat="43.34014234777067" lon="10.521972368809685"><ele>36.0</ele><time>2026-03-29T14:36:43Z</time></trkpt><trkpt lat="43.34037112183659" lon="10.521829721270462"><ele>36.0</ele><time>2026-03-29T14:36:44Z</time></trkpt><trkpt lat="43.34060023183885" lon="10.521685717622514"><ele>37.5</ele><time>2026-03-29T14:36:45Z</time></trkpt><trkpt lat="43.34082973871603" lon="10.52154253384762"><ele>39.0</ele><time>2026-03-29T14:36:46Z</time></trkpt><trkpt lat="43.34106050881924" lon="10.521395761113276"><ele>39.0</ele><time>2026-03-29T14:36:47Z</time></trkpt><trkpt lat="43.34129210249764" lon="10.521250388720052"><ele>39.0</ele><time>2026-03-29T14:36:48Z</time></trkpt><trkpt lat="43.341528719551725" lon="10.521104698914069"><ele>39.5</ele><time>2026-03-29T14:36:49Z</time></trkpt><trkpt lat="43.341764169831166" lon="10.520960396137788"><ele>40.0</ele><time>2026-03-29T14:36:50Z</time></trkpt><trkpt lat="43.341996392113565" lon="10.520811184930146"><ele>39.5</ele><time>2026-03-29T14:36:51Z</time></trkpt><trkpt lat="43.34223035093045" lon="10.520663680947868"><ele>39.0</ele><time>2026-03-29T14:36:52Z</time></trkpt><trkpt lat="43.342460182419934" lon="10.520515842448912"><ele>38.0</ele><time>2026-03-29T14:36:53Z</time></trkpt><trkpt lat="43.342693775850584" lon="10.520364878254655"><ele>37.0</ele><time>2026-03-29T14:36:54Z</time></trkpt><trkpt lat="43.342924726270596" lon="10.520208467169573"><ele>38.0</ele><time>2026-03-29T14:36:55Z</time></trkpt><trkpt lat="43.34314650645442" lon="10.520052883018376"><ele>39.0</ele><time>2026-03-29T14:36:56Z</time></trkpt><trkpt lat="43.343355203955205" lon="10.51990951484439"><ele>39.0</ele><time>2026-03-29T14:36:57Z</time></trkpt><trkpt lat="43.34356809347311" lon="10.519754467237192"><ele>39.0</ele><time>2026-03-29T14:36:58Z</time></trkpt><trkpt lat="43.34378132064402" lon="10.51960175398532"><ele>40.0</ele><time>2026-03-29T14:36:59Z</time></trkpt><trkpt lat="43.34399485993515" lon="10.519445733396449"><ele>41.0</ele><time>2026-03-29T14:37:00Z</time></trkpt><trkpt lat="43.34421124397152" lon="10.519287336762229"><ele>41.0</ele><time>2026-03-29T14:37:01Z</time></trkpt><trkpt lat="43.344429499290605" lon="10.519126260438698"><ele>41.0</ele><time>2026-03-29T14:37:02Z</time></trkpt><trkpt lat="43.34465015355155" lon="10.51896370026168"><ele>41.5</ele><time>2026-03-29T14:37:03Z</time></trkpt><trkpt lat="43.344868816409544" lon="10.51880104032141"><ele>42.0</ele><time>2026-03-29T14:37:04Z</time></trkpt><trkpt lat="43.345089519400624" lon="10.518633822653385"><ele>42.0</ele><time>2026-03-29T14:37:05Z</time></trkpt><trkpt lat="43.345310846926296" lon="10.518468048202724"><ele>42.0</ele><time>2026-03-29T14:37:06Z</time></trkpt><trkpt lat="43.345533353656634" lon="10.518298671912342"><ele>43.5</ele><time>2026-03-29T14:37:07Z</time></trkpt><trkpt lat="43.34575308141678" lon="10.518124720339623"><ele>45.0</ele><time>2026-03-29T14:37:08Z</time></trkpt><trkpt lat="43.34597575254121" lon="10.517950592910488"><ele>45.0</ele><time>2026-03-29T14:37:09Z</time></trkpt><trkpt lat="43.346196968205135" lon="10.51777238585197"><ele>45.0</ele><time>2026-03-29T14:37:10Z</time></trkpt><trkpt lat="43.34642009317335" lon="10.517594767382418"><ele>45.5</ele><time>2026-03-29T14:37:11Z</time></trkpt><trkpt lat="43.34664160033897" lon="10.51741642432622"><ele>46.0</ele><time>2026-03-29T14:37:12Z</time></trkpt><trkpt lat="43.34686629673292" lon="10.517235143539267"><ele>45.5</ele><time>2026-03-29T14:37:13Z</time></trkpt><trkpt lat="43.34709001825935" lon="10.517053952962126"><ele>45.0</ele><time>2026-03-29T14:37:14Z</time></trkpt><trkpt lat="43.34731029019546" lon="10.51687435896209"><ele>45.0</ele><time>2026-03-29T14:37:15Z</time></trkpt><trkpt lat="43.347535889316305" lon="10.5166945992203"><ele>45.0</ele><time>2026-03-29T14:37:16Z</time></trkpt><trkpt lat="43.34776169550168" lon="10.51651497805515"><ele>45.0</ele><time>2026-03-29T14:37:17Z</time></trkpt><trkpt lat="43.34799002135018" lon="10.516341432507607"><ele>45.0</ele><time>2026-03-29T14:37:18Z</time></trkpt><trkpt lat="43.34822614471125" lon="10.516177384384568"><ele>46.5</ele><time>2026-03-29T14:37:19Z</time></trkpt><trkpt lat="43.34846287389705" lon="10.516022239062295"><ele>48.0</ele><time>2026-03-29T14:37:20Z</time></trkpt><trkpt lat="43.34870856199378" lon="10.515876368113835"><ele>47.5</ele><time>2026-03-29T14:37:21Z</time></trkpt><trkpt lat="43.34895620775799" lon="10.515738702071534"><ele>47.0</ele><time>2026-03-29T14:37:22Z</time></trkpt><trkpt lat="43.34920342983852" lon="10.515605253853229"><ele>47.0</ele><time>2026-03-29T14:37:23Z</time></trkpt><trkpt lat="43.34945980342943" lon="10.515484550361714"><ele>47.0</ele><time>2026-03-29T14:37:24Z</time></trkpt><trkpt lat="43.34971989088951" lon="10.515368370374727"><ele>46.0</ele><time>2026-03-29T14:37:25Z</time></trkpt><trkpt lat="43.34997831795841" lon="10.51525830361822"><ele>45.0</ele><time>2026-03-29T14:37:26Z</time></trkpt><trkpt lat="43.35024062327662" lon="10.515155138784596"><ele>45.0</ele><time>2026-03-29T14:37:27Z</time></trkpt><trkpt lat="43.35050522021797" lon="10.51506355980039"><ele>45.0</ele><time>2026-03-29T14:37:28Z</time></trkpt><trkpt lat="43.35076959544679" lon="10.514980634496977"><ele>46.5</ele><time>2026-03-29T14:37:29Z</time></trkpt><trkpt lat="43.35103514859942" lon="10.514906328658064"><ele>48.0</ele><time>2026-03-29T14:37:30Z</time></trkpt><trkpt lat="43.35130068109477" lon="10.514838142004582"><ele>47.5</ele><time>2026-03-29T14:37:31Z</time></trkpt><trkpt lat="43.351566205248965" lon="10.514774183877991"><ele>47.0</ele><time>2026-03-29T14:37:32Z</time></trkpt><trkpt lat="43.35182526450777" lon="10.514711224399505"><ele>47.0</ele><time>2026-03-29T14:37:33Z</time></trkpt><trkpt lat="43.35206125196037" lon="10.514650665366812"><ele>47.0</ele><time>2026-03-29T14:37:34Z</time></trkpt><trkpt lat="43.35229048058906" lon="10.51459181043985"><ele>47.5</ele><time>2026-03-29T14:37:35Z</time></trkpt><trkpt lat="43.352523536435285" lon="10.514528737226321"><ele>48.0</ele><time>2026-03-29T14:37:36Z</time></trkpt><trkpt lat="43.352756135665985" lon="10.514463677659995"><ele>48.0</ele><time>2026-03-29T14:37:37Z</time></trkpt><trkpt lat="43.352990681334006" lon="10.514400107896192"><ele>48.0</ele><time>2026-03-29T14:37:38Z</time></trkpt><trkpt lat="43.35322480376988" lon="10.514338329715907"><ele>47.5</ele><time>2026-03-29T14:37:39Z</time></trkpt><trkpt lat="43.353459866601135" lon="10.514276563943756"><ele>47.0</ele><time>2026-03-29T14:37:40Z</time></trkpt><trkpt lat="43.35369618206923" lon="10.514218321805195"><ele>47.0</ele><time>2026-03-29T14:37:41Z</time></trkpt><trkpt lat="43.35393581511339" lon="10.514154011552973"><ele>47.0</ele><time>2026-03-29T14:37:42Z</time></trkpt><trkpt lat="43.354176417690226" lon="10.514088708894498"><ele>47.0</ele><time>2026-03-29T14:37:42.999Z</time></trkpt><trkpt lat="43.354415779091205" lon="10.514018096489883"><ele>47.0</ele><time>2026-03-29T14:37:43.999Z</time></trkpt><trkpt lat="43.35465873203617" lon="10.513943163137194"><ele>46.5</ele><time>2026-03-29T14:37:44.999Z</time></trkpt><trkpt lat="43.35490396327312" lon="10.51386368696506"><ele>46.0</ele><time>2026-03-29T14:37:45.999Z</time></trkpt><trkpt lat="43.35514761786527" lon="10.513779362571348"><ele>47.0</ele><time>2026-03-29T14:37:46.999Z</time></trkpt><trkpt lat="43.35539131094294" lon="10.513686094015904"><ele>48.0</ele><time>2026-03-29T14:37:47.999Z</time></trkpt><trkpt lat="43.355634131060256" lon="10.513576079913307"><ele>49.5</ele><time>2026-03-29T14:37:48.999Z</time></trkpt><trkpt lat="43.35587656819737" lon="10.513460975031771"><ele>51.0</ele><time>2026-03-29T14:37:49.999Z</time></trkpt><trkpt lat="43.356118415493384" lon="10.513338497496449"><ele>49.0</ele><time>2026-03-29T14:37:50.999Z</time></trkpt><trkpt lat="43.35637310005611" lon="10.51319615293139"><ele>47.0</ele><time>2026-03-29T14:37:51.999Z</time></trkpt><trkpt lat="43.35661082390493" lon="10.513055469609238"><ele>47.0</ele><time>2026-03-29T14:37:52.999Z</time></trkpt><trkpt lat="43.3568494266335" lon="10.512904823131217"><ele>47.0</ele><time>2026-03-29T14:37:53.999Z</time></trkpt><trkpt lat="43.35708596523543" lon="10.512746194126096"><ele>48.5</ele><time>2026-03-29T14:37:54.999Z</time></trkpt><trkpt lat="43.357321710738944" lon="10.512574790105353"><ele>50.0</ele><time>2026-03-29T14:37:55.999Z</time></trkpt><trkpt lat="43.35755417906545" lon="10.51239696346456"><ele>50.0</ele><time>2026-03-29T14:37:56.999Z</time></trkpt><trkpt lat="43.35778264325447" lon="10.5122091694337"><ele>50.0</ele><time>2026-03-29T14:37:57.999Z</time></trkpt><trkpt lat="43.35799285537248" lon="10.512024360733763"><ele>50.0</ele><time>2026-03-29T14:37:58.999Z</time></trkpt><trkpt lat="43.358193327197405" lon="10.511840097091"><ele>50.0</ele><time>2026-03-29T14:37:59.999Z</time></trkpt><trkpt lat="43.35839471431614" lon="10.511646464425558"><ele>50.0</ele><time>2026-03-29T14:38:00.999Z</time></trkpt><trkpt lat="43.35859390714643" lon="10.511441929847809"><ele>50.0</ele><time>2026-03-29T14:38:01.999Z</time></trkpt><trkpt lat="43.35879135312666" lon="10.511229325490815"><ele>47.0</ele><time>2026-03-29T14:38:02.999Z</time></trkpt><trkpt lat="43.35898882340785" lon="10.511013148156461"><ele>44.0</ele><time>2026-03-29T14:38:03.999Z</time></trkpt><trkpt lat="43.35918700154178" lon="10.510797909125472"><ele>44.0</ele><time>2026-03-29T14:38:04.999Z</time></trkpt><trkpt lat="43.35938539818603" lon="10.510581392321832"><ele>44.0</ele><time>2026-03-29T14:38:05.999Z</time></trkpt><trkpt lat="43.35958197268819" lon="10.510363073067314"><ele>46.5</ele><time>2026-03-29T14:38:06.999Z</time></trkpt><trkpt lat="43.35977596488612" lon="10.510141752301848"><ele>49.0</ele><time>2026-03-29T14:38:07.999Z</time></trkpt><trkpt lat="43.359970736526705" lon="10.509923432042994"><ele>49.0</ele><time>2026-03-29T14:38:08.999Z</time></trkpt><trkpt lat="43.36016930215968" lon="10.509694089692749"><ele>49.0</ele><time>2026-03-29T14:38:09.999Z</time></trkpt><trkpt lat="43.360369121381865" lon="10.509489285963811"><ele>48.0</ele><time>2026-03-29T14:38:10.999Z</time></trkpt><trkpt lat="43.360564130476924" lon="10.509272628115674"><ele>47.0</ele><time>2026-03-29T14:38:11.999Z</time></trkpt><trkpt lat="43.36076221904055" lon="10.50905684860727"><ele>47.0</ele><time>2026-03-29T14:38:12.999Z</time></trkpt><trkpt lat="43.36095977135401" lon="10.50883887529073"><ele>47.0</ele><time>2026-03-29T14:38:13.999Z</time></trkpt><trkpt lat="43.36115742325551" lon="10.50862252561398"><ele>46.0</ele><time>2026-03-29T14:38:14.999Z</time></trkpt><trkpt lat="43.3613500830433" lon="10.508408638649604"><ele>45.0</ele><time>2026-03-29T14:38:15.999Z</time></trkpt><trkpt lat="43.361542895389775" lon="10.508195778003858"><ele>45.0</ele><time>2026-03-29T14:38:16.999Z</time></trkpt><trkpt lat="43.361734351805715" lon="10.50798546009129"><ele>45.0</ele><time>2026-03-29T14:38:17.999Z</time></trkpt><trkpt lat="43.36191529485343" lon="10.507790860113037"><ele>45.0</ele><time>2026-03-29T14:38:18.999Z</time></trkpt><trkpt lat="43.362093626641716" lon="10.507607402022199"><ele>45.0</ele><time>2026-03-29T14:38:19.999Z</time></trkpt><trkpt lat="43.36227781645228" lon="10.507422553606213"><ele>45.5</ele><time>2026-03-29T14:38:20.999Z</time></trkpt><trkpt lat="43.3624689191273" lon="10.507242970357975"><ele>46.0</ele><time>2026-03-29T14:38:21.999Z</time></trkpt><trkpt lat="43.362663633303136" lon="10.507072483123212"><ele>46.0</ele><time>2026-03-29T14:38:22.999Z</time></trkpt><trkpt lat="43.36286370486948" lon="10.506908333855709"><ele>46.0</ele><time>2026-03-29T14:38:23.999Z</time></trkpt><trkpt lat="43.363063074818754" lon="10.506745531758135"><ele>46.66666666666667</ele><time>2026-03-29T14:38:24.999Z</time></trkpt><trkpt lat="43.36326040568556" lon="10.506593660984677"><ele>47.333333333333336</ele><time>2026-03-29T14:38:25.999Z</time></trkpt><trkpt lat="43.36345294133296" lon="10.506448291319062"><ele>48.0</ele><time>2026-03-29T14:38:26.999Z</time></trkpt><trkpt lat="43.363643096449884" lon="10.506316701158287"><ele>47.5</ele><time>2026-03-29T14:38:27.999Z</time></trkpt><trkpt lat="43.36384227304349" lon="10.506184356419194"><ele>47.0</ele><time>2026-03-29T14:38:28.999Z</time></trkpt><trkpt lat="43.36405190906036" lon="10.506052164978495"><ele>47.0</ele><time>2026-03-29T14:38:29.999Z</time></trkpt><trkpt lat="43.36426747218283" lon="10.505926312145052"><ele>47.0</ele><time>2026-03-29T14:38:30.999Z</time></trkpt><trkpt lat="43.36448798628562" lon="10.505812844518086"><ele>47.0</ele><time>2026-03-29T14:38:31.999Z</time></trkpt><trkpt lat="43.3647067555992" lon="10.505713627754735"><ele>47.0</ele><time>2026-03-29T14:38:32.999Z</time></trkpt><trkpt lat="43.36491591035994" lon="10.505621246421985"><ele>47.0</ele><time>2026-03-29T14:38:33.999Z</time></trkpt><trkpt lat="43.36511152359986" lon="10.505546695359913"><ele>47.0</ele><time>2026-03-29T14:38:34.999Z</time></trkpt><trkpt lat="43.3653028485936" lon="10.50548020719338"><ele>47.0</ele><time>2026-03-29T14:38:35.999Z</time></trkpt><trkpt lat="43.36550136722301" lon="10.505411976338404"><ele>47.33333333333333</ele><time>2026-03-29T14:38:36.999Z</time></trkpt><trkpt lat="43.36570946032052" lon="10.505346996076913"><ele>47.666666666666664</ele><time>2026-03-29T14:38:37.999Z</time></trkpt><trkpt lat="43.36591726927097" lon="10.50528328255429"><ele>48.0</ele><time>2026-03-29T14:38:38.999Z</time></trkpt><trkpt lat="43.366106292987595" lon="10.505233593362977"><ele>48.0</ele><time>2026-03-29T14:38:40Z</time></trkpt><trkpt lat="43.36629044984802" lon="10.505184964678177"><ele>48.0</ele><time>2026-03-29T14:38:41Z</time></trkpt><trkpt lat="43.36648298680969" lon="10.5051373689194"><ele>48.0</ele><time>2026-03-29T14:38:42Z</time></trkpt><trkpt lat="43.36667834567997" lon="10.505088613907295"><ele>48.0</ele><time>2026-03-29T14:38:43Z</time></trkpt><trkpt lat="43.36687958168942" lon="10.505039966238805"><ele>48.0</ele><time>2026-03-29T14:38:44Z</time></trkpt><trkpt lat="43.367081934365096" lon="10.504992007535893"><ele>48.0</ele><time>2026-03-29T14:38:45Z</time></trkpt><trkpt lat="43.36728581077026" lon="10.504942868518912"><ele>48.0</ele><time>2026-03-29T14:38:46Z</time></trkpt><trkpt lat="43.36747603632316" lon="10.504897494601858"><ele>48.0</ele><time>2026-03-29T14:38:47Z</time></trkpt><trkpt lat="43.36766411845631" lon="10.504859367474074"><ele>48.0</ele><time>2026-03-29T14:38:48Z</time></trkpt><trkpt lat="43.36783616638439" lon="10.504827717371668"><ele>48.0</ele><time>2026-03-29T14:38:49Z</time></trkpt><trkpt lat="43.36799367183972" lon="10.504795523524287"><ele>48.0</ele><time>2026-03-29T14:38:50Z</time></trkpt><trkpt lat="43.36814922583471" lon="10.504769001572168"><ele>48.0</ele><time>2026-03-29T14:38:51Z</time></trkpt><trkpt lat="43.36828989901765" lon="10.504743441715327"><ele>48.0</ele><time>2026-03-29T14:38:52Z</time></trkpt><trkpt lat="43.36842382331397" lon="10.504719743562607"><ele>48.0</ele><time>2026-03-29T14:38:53Z</time></trkpt><trkpt lat="43.36854707055845" lon="10.504696928175024"><ele>48.0</ele><time>2026-03-29T14:38:54Z</time></trkpt><trkpt lat="43.368666481809825" lon="10.504676131049447"><ele>48.0</ele><time>2026-03-29T14:38:55Z</time></trkpt><trkpt lat="43.36877775216982" lon="10.50465879418333"><ele>48.2</ele><time>2026-03-29T14:38:56Z</time></trkpt><trkpt lat="43.368891635358246" lon="10.504643027331548"><ele>48.4</ele><time>2026-03-29T14:38:57Z</time></trkpt><trkpt lat="43.36899951148493" lon="10.504623082146946"><ele>48.6</ele><time>2026-03-29T14:38:58Z</time></trkpt><trkpt lat="43.369090409948825" lon="10.504599193663775"><ele>48.800000000000004</ele><time>2026-03-29T14:38:59Z</time></trkpt><trkpt lat="43.36916290752855" lon="10.504575828775884"><ele>49.0</ele><time>2026-03-29T14:39:00Z</time></trkpt><trkpt lat="43.36922383972195" lon="10.504550873273297"><ele>49.0</ele><time>2026-03-29T14:39:01Z</time></trkpt><trkpt lat="43.36929736673729" lon="10.504521589706552"><ele>49.0</ele><time>2026-03-29T14:39:03Z</time></trkpt><trkpt lat="43.36923606748429" lon="10.504555138618048"><ele>49.0</ele><time>2026-03-29T14:40:02.999Z</time></trkpt><trkpt lat="43.369320329090016" lon="10.504583263540574"><ele>49.0</ele><time>2026-03-29T14:40:26.999Z</time></trkpt><trkpt lat="43.36939085199123" lon="10.504563613176728"><ele>49.0</ele><time>2026-03-29T14:40:27.999Z</time></trkpt><trkpt lat="43.36947339523716" lon="10.504580128975888"><ele>49.0</ele><time>2026-03-29T14:40:44.999Z</time></trkpt><trkpt lat="43.369537539819525" lon="10.504568238403746"><ele>49.0</ele><time>2026-03-29T14:40:46Z</time></trkpt><trkpt lat="43.36962661135968" lon="10.504543995548053"><ele>49.25</ele><time>2026-03-29T14:40:47Z</time></trkpt><trkpt lat="43.36973393031827" lon="10.504514001670904"><ele>49.5</ele><time>2026-03-29T14:40:48Z</time></trkpt><trkpt lat="43.36984601969434" lon="10.504488968559729"><ele>49.75</ele><time>2026-03-29T14:40:49Z</time></trkpt><trkpt lat="43.36997283428533" lon="10.504463429237447"><ele>50.0</ele><time>2026-03-29T14:40:50Z</time></trkpt><trkpt lat="43.37010830676507" lon="10.504434131921574"><ele>50.0</ele><time>2026-03-29T14:40:51Z</time></trkpt><trkpt lat="43.3702530313336" lon="10.504397119774715"><ele>50.0</ele><time>2026-03-29T14:40:52Z</time></trkpt><trkpt lat="43.370401298288996" lon="10.504358270160346"><ele>50.0</ele><time>2026-03-29T14:40:53Z</time></trkpt><trkpt lat="43.370561689720176" lon="10.50431510707024"><ele>49.66666666666667</ele><time>2026-03-29T14:40:54Z</time></trkpt><trkpt lat="43.37072940393518" lon="10.504264996347967"><ele>49.33333333333333</ele><time>2026-03-29T14:40:55Z</time></trkpt><trkpt lat="43.370907949178076" lon="10.504203521403442"><ele>49.0</ele><time>2026-03-29T14:40:56Z</time></trkpt><trkpt lat="43.371102319421134" lon="10.504134901637089"><ele>49.0</ele><time>2026-03-29T14:40:57Z</time></trkpt><trkpt lat="43.371313796578" lon="10.504049833545388"><ele>49.0</ele><time>2026-03-29T14:40:58Z</time></trkpt><trkpt lat="43.371542193402824" lon="10.503952311736636"><ele>48.0</ele><time>2026-03-29T14:40:59Z</time></trkpt><trkpt lat="43.37178120405646" lon="10.503843344193621"><ele>47.0</ele><time>2026-03-29T14:41:00Z</time></trkpt><trkpt lat="43.37201082484496" lon="10.503733190294525"><ele>44.5</ele><time>2026-03-29T14:41:01Z</time></trkpt><trkpt lat="43.372243221337705" lon="10.503614982512651"><ele>42.0</ele><time>2026-03-29T14:41:02Z</time></trkpt><trkpt lat="43.372476079898384" lon="10.503492984133716"><ele>42.0</ele><time>2026-03-29T14:41:03Z</time></trkpt><trkpt lat="43.37271320002024" lon="10.503365892104481"><ele>42.0</ele><time>2026-03-29T14:41:04Z</time></trkpt><trkpt lat="43.37295088410845" lon="10.503229080969803"><ele>43.0</ele><time>2026-03-29T14:41:05Z</time></trkpt><trkpt lat="43.373188660018116" lon="10.503078640546557"><ele>44.0</ele><time>2026-03-29T14:41:06Z</time></trkpt><trkpt lat="43.373411797297535" lon="10.502922907487877"><ele>44.0</ele><time>2026-03-29T14:41:07Z</time></trkpt><trkpt lat="43.37363173029612" lon="10.502754725644007"><ele>44.0</ele><time>2026-03-29T14:41:08Z</time></trkpt><trkpt lat="43.37385199519677" lon="10.502571024340773"><ele>46.5</ele><time>2026-03-29T14:41:09Z</time></trkpt><trkpt lat="43.37406910330273" lon="10.502378333583298"><ele>49.0</ele><time>2026-03-29T14:41:10Z</time></trkpt><trkpt lat="43.37428723167532" lon="10.502177327585478"><ele>48.5</ele><time>2026-03-29T14:41:11Z</time></trkpt><trkpt lat="43.374503106931485" lon="10.501965359959817"><ele>48.0</ele><time>2026-03-29T14:41:12Z</time></trkpt><trkpt lat="43.37471245565803" lon="10.50174343626899"><ele>49.0</ele><time>2026-03-29T14:41:13Z</time></trkpt><trkpt lat="43.37490191050299" lon="10.501522080554222"><ele>50.0</ele><time>2026-03-29T14:41:14Z</time></trkpt><trkpt lat="43.375072817285925" lon="10.501310802105461"><ele>50.0</ele><time>2026-03-29T14:41:15Z</time></trkpt><trkpt lat="43.37523463013083" lon="10.501097870555869"><ele>50.0</ele><time>2026-03-29T14:41:16Z</time></trkpt><trkpt lat="43.37538915723524" lon="10.500883067394383"><ele>50.0</ele><time>2026-03-29T14:41:17Z</time></trkpt><trkpt lat="43.3755430746687" lon="10.50065721755835"><ele>50.0</ele><time>2026-03-29T14:41:18Z</time></trkpt><trkpt lat="43.3756998348934" lon="10.50042069246736"><ele>50.0</ele><time>2026-03-29T14:41:19Z</time></trkpt><trkpt lat="43.37586199733362" lon="10.500177387121802"><ele>50.0</ele><time>2026-03-29T14:41:20Z</time></trkpt><trkpt lat="43.376027521279056" lon="10.499931931953094"><ele>50.0</ele><time>2026-03-29T14:41:21Z</time></trkpt><trkpt lat="43.376196556624926" lon="10.499679093661827"><ele>50.5</ele><time>2026-03-29T14:41:22Z</time></trkpt><trkpt lat="43.37636991137707" lon="10.499420183009603"><ele>51.0</ele><time>2026-03-29T14:41:23Z</time></trkpt><trkpt lat="43.37654380602002" lon="10.499159683043073"><ele>51.0</ele><time>2026-03-29T14:41:24Z</time></trkpt><trkpt lat="43.37671972513162" lon="10.498899939336345"><ele>51.0</ele><time>2026-03-29T14:41:25Z</time></trkpt><trkpt lat="43.37690221989726" lon="10.498638332500002"><ele>50.0</ele><time>2026-03-29T14:41:26Z</time></trkpt><trkpt lat="43.37708449293822" lon="10.498379995270046"><ele>49.0</ele><time>2026-03-29T14:41:27Z</time></trkpt><trkpt lat="43.37726754053892" lon="10.498127600941311"><ele>48.5</ele><time>2026-03-29T14:41:28Z</time></trkpt><trkpt lat="43.37745519208064" lon="10.497876825020457"><ele>48.0</ele><time>2026-03-29T14:41:29Z</time></trkpt><trkpt lat="43.37764633116964" lon="10.497627606314532"><ele>48.0</ele><time>2026-03-29T14:41:30Z</time></trkpt><trkpt lat="43.37784197218916" lon="10.497381759237024"><ele>48.0</ele><time>2026-03-29T14:41:31Z</time></trkpt><trkpt lat="43.378037094759584" lon="10.497143036315174"><ele>48.0</ele><time>2026-03-29T14:41:32Z</time></trkpt><trkpt lat="43.37823806631717" lon="10.496907267924646"><ele>48.0</ele><time>2026-03-29T14:41:33Z</time></trkpt><trkpt lat="43.37844248534721" lon="10.496673844239965"><ele>48.0</ele><time>2026-03-29T14:41:34Z</time></trkpt><trkpt lat="43.37865259434565" lon="10.496450209207666"><ele>48.0</ele><time>2026-03-29T14:41:35Z</time></trkpt><trkpt lat="43.378869795813884" lon="10.496239032669317"><ele>49.5</ele><time>2026-03-29T14:41:36Z</time></trkpt><trkpt lat="43.379090615514585" lon="10.496034615186861"><ele>51.0</ele><time>2026-03-29T14:41:37Z</time></trkpt><trkpt lat="43.379313795034406" lon="10.495833391127649"><ele>51.0</ele><time>2026-03-29T14:41:38Z</time></trkpt><trkpt lat="43.37954293909226" lon="10.495639413864435"><ele>51.0</ele><time>2026-03-29T14:41:39Z</time></trkpt><trkpt lat="43.3797738933368" lon="10.495456160263135"><ele>52.5</ele><time>2026-03-29T14:41:40Z</time></trkpt><trkpt lat="43.38001167074181" lon="10.495279387526013"><ele>54.0</ele><time>2026-03-29T14:41:41Z</time></trkpt><trkpt lat="43.380253951575185" lon="10.495109559843566"><ele>54.0</ele><time>2026-03-29T14:41:42Z</time></trkpt><trkpt lat="43.38050399017738" lon="10.494951963156684"><ele>54.0</ele><time>2026-03-29T14:41:43Z</time></trkpt><trkpt lat="43.380758647468966" lon="10.49480325797903"><ele>55.5</ele><time>2026-03-29T14:41:44Z</time></trkpt><trkpt lat="43.38101867392837" lon="10.49466036462703"><ele>57.0</ele><time>2026-03-29T14:41:45Z</time></trkpt><trkpt lat="43.38127777532086" lon="10.494523613796892"><ele>59.0</ele><time>2026-03-29T14:41:46Z</time></trkpt><trkpt lat="43.38153861276712" lon="10.49439110664185"><ele>61.0</ele><time>2026-03-29T14:41:47Z</time></trkpt><trkpt lat="43.38180158990247" lon="10.494251444856447"><ele>61.0</ele><time>2026-03-29T14:41:48.017Z</time></trkpt><trkpt lat="43.38206100791363" lon="10.494114774696115"><ele>61.0</ele><time>2026-03-29T14:41:49.019Z</time></trkpt><trkpt lat="43.38232114446448" lon="10.493980014408569"><ele>61.0</ele><time>2026-03-29T14:41:50.017Z</time></trkpt><trkpt lat="43.38258325919152" lon="10.493848131557806"><ele>61.0</ele><time>2026-03-29T14:41:51.017Z</time></trkpt><trkpt lat="43.38284341143221" lon="10.493715738143909"><ele>56.5</ele><time>2026-03-29T14:41:52.017Z</time></trkpt><trkpt lat="43.38309874539421" lon="10.493739367085887"><ele>52.0</ele><time>2026-03-29T14:41:53Z</time></trkpt><trkpt lat="43.3835138212905" lon="10.493886879418389"><ele>52.0</ele><time>2026-03-29T14:41:54Z</time></trkpt><trkpt lat="43.38379705885079" lon="10.493879818501753"><ele>52.0</ele><time>2026-03-29T14:41:55Z</time></trkpt><trkpt lat="43.3840737570357" lon="10.4938696082116"><ele>41.5</ele><time>2026-03-29T14:41:56Z</time></trkpt><trkpt lat="43.38434601800378" lon="10.49386310194243"><ele>31.0</ele><time>2026-03-29T14:41:57Z</time></trkpt><trkpt lat="43.38461605927949" lon="10.493873594078208"><ele>26.5</ele><time>2026-03-29T14:41:58Z</time></trkpt><trkpt lat="43.38488568317496" lon="10.493899622216361"><ele>22.0</ele><time>2026-03-29T14:41:59Z</time></trkpt><trkpt lat="43.385148053280474" lon="10.49393669021653"><ele>22.0</ele><time>2026-03-29T14:42:00Z</time></trkpt><trkpt lat="43.38540982930479" lon="10.493985031263323"><ele>22.0</ele><time>2026-03-29T14:42:01Z</time></trkpt><trkpt lat="43.385675085336246" lon="10.494034376202864"><ele>22.0</ele><time>2026-03-29T14:42:02Z</time></trkpt><trkpt lat="43.3859390444843" lon="10.494086814575786"><ele>22.0</ele><time>2026-03-29T14:42:03Z</time></trkpt><trkpt lat="43.38620349102684" lon="10.494140366985611"><ele>20.5</ele><time>2026-03-29T14:42:04Z</time></trkpt><trkpt lat="43.3864674843041" lon="10.494192746728123"><ele>19.0</ele><time>2026-03-29T14:42:05Z</time></trkpt><trkpt lat="43.386732963469626" lon="10.494243965586694"><ele>19.0</ele><time>2026-03-29T14:42:06Z</time></trkpt><trkpt lat="43.38699472054304" lon="10.494288008471228"><ele>19.0</ele><time>2026-03-29T14:42:07Z</time></trkpt><trkpt lat="43.387255218349054" lon="10.494335984574397"><ele>21.5</ele><time>2026-03-29T14:42:08Z</time></trkpt><trkpt lat="43.38751442689894" lon="10.494384853669859"><ele>24.0</ele><time>2026-03-29T14:42:09Z</time></trkpt><trkpt lat="43.387772940898095" lon="10.4944364348337"><ele>28.0</ele><time>2026-03-29T14:42:09.999Z</time></trkpt><trkpt lat="43.38803488731964" lon="10.494487811681855"><ele>32.0</ele><time>2026-03-29T14:42:10.999Z</time></trkpt><trkpt lat="43.38829221328435" lon="10.494530603028926"><ele>32.0</ele><time>2026-03-29T14:42:11.999Z</time></trkpt><trkpt lat="43.38855357444218" lon="10.494573286225593"><ele>32.0</ele><time>2026-03-29T14:42:12.999Z</time></trkpt><trkpt lat="43.38881923683276" lon="10.49461698593205"><ele>34.5</ele><time>2026-03-29T14:42:13.999Z</time></trkpt><trkpt lat="43.38908566802576" lon="10.494654842870023"><ele>37.0</ele><time>2026-03-29T14:42:14.999Z</time></trkpt><trkpt lat="43.389356020775175" lon="10.494685683208035"><ele>37.0</ele><time>2026-03-29T14:42:15.999Z</time></trkpt><trkpt lat="43.38963012155787" lon="10.494710092289909"><ele>37.0</ele><time>2026-03-29T14:42:16.999Z</time></trkpt><trkpt lat="43.38990748385077" lon="10.494729261600646"><ele>41.5</ele><time>2026-03-29T14:42:17.999Z</time></trkpt><trkpt lat="43.39018846015637" lon="10.494742752018302"><ele>46.0</ele><time>2026-03-29T14:42:18.999Z</time></trkpt><trkpt lat="43.39047426771922" lon="10.494754961026093"><ele>55.5</ele><time>2026-03-29T14:42:19.999Z</time></trkpt><trkpt lat="43.39076609750267" lon="10.494753176285146"><ele>65.0</ele><time>2026-03-29T14:42:20.999Z</time></trkpt><trkpt lat="43.39105793462727" lon="10.494741154736735"><ele>71.0</ele><time>2026-03-29T14:42:21.999Z</time></trkpt><trkpt lat="43.3913502366253" lon="10.494728313512184"><ele>77.0</ele><time>2026-03-29T14:42:23.019Z</time></trkpt><trkpt lat="43.391639907368194" lon="10.494716311062728"><ele>77.0</ele><time>2026-03-29T14:42:24.019Z</time></trkpt><trkpt lat="43.39193789359643" lon="10.49470194258583"><ele>77.0</ele><time>2026-03-29T14:42:25.016Z</time></trkpt><trkpt lat="43.39224095555193" lon="10.494689611401226"><ele>77.5</ele><time>2026-03-29T14:42:26.018Z</time></trkpt><trkpt lat="43.39252364913462" lon="10.494677328477314"><ele>78.0</ele><time>2026-03-29T14:42:27.017Z</time></trkpt><trkpt lat="43.39281302953499" lon="10.494667129089477"><ele>30.0</ele><time>2026-03-29T14:42:28.016Z</time></trkpt><trkpt lat="43.393987288183226" lon="10.49420462677999"><ele>30.0</ele><time>2026-03-29T14:42:31.999Z</time></trkpt><trkpt lat="43.394135954728554" lon="10.494209056557965"><ele>30.0</ele><time>2026-03-29T14:42:32.999Z</time></trkpt><trkpt lat="43.394408981675475" lon="10.494117770669838"><ele>30.0</ele><time>2026-03-29T14:42:33.999Z</time></trkpt><trkpt lat="43.394680826224494" lon="10.494014821120436"><ele>28.0</ele><time>2026-03-29T14:42:34.999Z</time></trkpt><trkpt lat="43.394956250300744" lon="10.493908133412587"><ele>26.0</ele><time>2026-03-29T14:42:35.999Z</time></trkpt><trkpt lat="43.39522367390139" lon="10.493799220347604"><ele>23.5</ele><time>2026-03-29T14:42:36.999Z</time></trkpt><trkpt lat="43.39549106297294" lon="10.493685615577805"><ele>21.0</ele><time>2026-03-29T14:42:37.999Z</time></trkpt><trkpt lat="43.395754484139346" lon="10.49356496797978"><ele>20.5</ele><time>2026-03-29T14:42:38.999Z</time></trkpt><trkpt lat="43.39601626036242" lon="10.49343777996211"><ele>20.0</ele><time>2026-03-29T14:42:39.999Z</time></trkpt><trkpt lat="43.39628288533504" lon="10.493303572153312"><ele>19.5</ele><time>2026-03-29T14:42:40.999Z</time></trkpt><trkpt lat="43.39654974160174" lon="10.493156796697606"><ele>19.0</ele><time>2026-03-29T14:42:41.999Z</time></trkpt><trkpt lat="43.39681663835307" lon="10.493007112818304"><ele>17.5</ele><time>2026-03-29T14:42:42.999Z</time></trkpt><trkpt lat="43.39708710373289" lon="10.492858406860725"><ele>16.0</ele><time>2026-03-29T14:42:43.999Z</time></trkpt><trkpt lat="43.39735525787267" lon="10.49270357724032"><ele>15.5</ele><time>2026-03-29T14:42:44.999Z</time></trkpt><trkpt lat="43.39762659589545" lon="10.492540327754819"><ele>15.0</ele><time>2026-03-29T14:42:45.999Z</time></trkpt><trkpt lat="43.39789881531219" lon="10.492377545032006"><ele>14.5</ele><time>2026-03-29T14:42:46.999Z</time></trkpt><trkpt lat="43.398169744558444" lon="10.492215041309564"><ele>14.0</ele><time>2026-03-29T14:42:47.999Z</time></trkpt><trkpt lat="43.398434765484176" lon="10.492049398148392"><ele>16.5</ele><time>2026-03-29T14:42:48.999Z</time></trkpt><trkpt lat="43.398704566043804" lon="10.491879367707877"><ele>19.0</ele><time>2026-03-29T14:42:49.999Z</time></trkpt><trkpt lat="43.39896871790977" lon="10.4917185936901"><ele>20.0</ele><time>2026-03-29T14:42:50.999Z</time></trkpt><trkpt lat="43.39923445661333" lon="10.491553109450201"><ele>21.0</ele><time>2026-03-29T14:42:52Z</time></trkpt><trkpt lat="43.39950327120775" lon="10.491385144622798"><ele>27.5</ele><time>2026-03-29T14:42:53Z</time></trkpt><trkpt lat="43.39977183094577" lon="10.491224813186495"><ele>34.0</ele><time>2026-03-29T14:42:54Z</time></trkpt><trkpt lat="43.400043165596614" lon="10.491062552926495"><ele>34.0</ele><time>2026-03-29T14:42:55Z</time></trkpt><trkpt lat="43.400313605966424" lon="10.490912173791296"><ele>34.0</ele><time>2026-03-29T14:42:56Z</time></trkpt><trkpt lat="43.40058468510207" lon="10.49076367464318"><ele>31.0</ele><time>2026-03-29T14:42:57Z</time></trkpt><trkpt lat="43.4008581783705" lon="10.490622285505145"><ele>28.0</ele><time>2026-03-29T14:42:58Z</time></trkpt><trkpt lat="43.4011376488333" lon="10.490488616316558"><ele>34.5</ele><time>2026-03-29T14:42:59Z</time></trkpt><trkpt lat="43.40142245550758" lon="10.490371399871064"><ele>41.0</ele><time>2026-03-29T14:43:00Z</time></trkpt><trkpt lat="43.40170807179286" lon="10.490268716731782"><ele>41.0</ele><time>2026-03-29T14:43:01Z</time></trkpt><trkpt lat="43.401992045943224" lon="10.490179961199551"><ele>41.0</ele><time>2026-03-29T14:43:02Z</time></trkpt><trkpt lat="43.40227547813157" lon="10.49010240631138"><ele>32.0</ele><time>2026-03-29T14:43:03Z</time></trkpt><trkpt lat="43.40256636400953" lon="10.49003958416212"><ele>23.0</ele><time>2026-03-29T14:43:04Z</time></trkpt><trkpt lat="43.40285784553558" lon="10.48998635693858"><ele>23.0</ele><time>2026-03-29T14:43:05Z</time></trkpt><trkpt lat="43.40314739024609" lon="10.489947225714765"><ele>23.0</ele><time>2026-03-29T14:43:06Z</time></trkpt><trkpt lat="43.40343444821904" lon="10.489921383391481"><ele>23.0</ele><time>2026-03-29T14:43:07Z</time></trkpt><trkpt lat="43.40372019248311" lon="10.489910376103094"><ele>23.0</ele><time>2026-03-29T14:43:08Z</time></trkpt><trkpt lat="43.40399603425213" lon="10.489911981910048"><ele>23.0</ele><time>2026-03-29T14:43:09Z</time></trkpt><trkpt lat="43.4042713682017" lon="10.489923837392217"><ele>23.0</ele><time>2026-03-29T14:43:10Z</time></trkpt><trkpt lat="43.40454593751614" lon="10.489945936609772"><ele>24.0</ele><time>2026-03-29T14:43:11Z</time></trkpt><trkpt lat="43.40482515065617" lon="10.489990583322635"><ele>25.0</ele><time>2026-03-29T14:43:12Z</time></trkpt><trkpt lat="43.405098322306024" lon="10.49004408601713"><ele>25.0</ele><time>2026-03-29T14:43:13Z</time></trkpt><trkpt lat="43.40536962045058" lon="10.490105660441678"><ele>25.0</ele><time>2026-03-29T14:43:14Z</time></trkpt><trkpt lat="43.40564065989522" lon="10.490178033572631"><ele>22.0</ele><time>2026-03-29T14:43:15Z</time></trkpt><trkpt lat="43.40590746357123" lon="10.490261913261314"><ele>19.0</ele><time>2026-03-29T14:43:16Z</time></trkpt><trkpt lat="43.4061722149566" lon="10.49035700166191"><ele>21.5</ele><time>2026-03-29T14:43:17Z</time></trkpt><trkpt lat="43.40643155700142" lon="10.490461962388041"><ele>24.0</ele><time>2026-03-29T14:43:18Z</time></trkpt><trkpt lat="43.406692514649194" lon="10.49058222598082"><ele>24.0</ele><time>2026-03-29T14:43:19Z</time></trkpt><trkpt lat="43.40695117846214" lon="10.49071136293832"><ele>24.0</ele><time>2026-03-29T14:43:20Z</time></trkpt><trkpt lat="43.40720914411073" lon="10.490846251980914"><ele>31.5</ele><time>2026-03-29T14:43:21Z</time></trkpt><trkpt lat="43.407467743505975" lon="10.490986936791222"><ele>39.0</ele><time>2026-03-29T14:43:22Z</time></trkpt><trkpt lat="43.407725690085705" lon="10.49112650970024"><ele>34.5</ele><time>2026-03-29T14:43:23Z</time></trkpt><trkpt lat="43.407982083504535" lon="10.491270350720312"><ele>30.0</ele><time>2026-03-29T14:43:24Z</time></trkpt><trkpt lat="43.408242152424314" lon="10.491415753649031"><ele>30.0</ele><time>2026-03-29T14:43:25Z</time></trkpt><trkpt lat="43.40850055607952" lon="10.491563070018938"><ele>30.0</ele><time>2026-03-29T14:43:26Z</time></trkpt><trkpt lat="43.408761272610214" lon="10.491704268255605"><ele>26.0</ele><time>2026-03-29T14:43:27Z</time></trkpt><trkpt lat="43.40902411003015" lon="10.491847969984601"><ele>22.0</ele><time>2026-03-29T14:43:28Z</time></trkpt><trkpt lat="43.40928669778037" lon="10.491987698010426"><ele>22.5</ele><time>2026-03-29T14:43:29Z</time></trkpt><trkpt lat="43.40954833460747" lon="10.492124855071069"><ele>23.0</ele><time>2026-03-29T14:43:30Z</time></trkpt><trkpt lat="43.409813648927475" lon="10.492260059458587"><ele>24.0</ele><time>2026-03-29T14:43:31Z</time></trkpt><trkpt lat="43.410077841815365" lon="10.492387292290667"><ele>25.0</ele><time>2026-03-29T14:43:32Z</time></trkpt><trkpt lat="43.410344806584135" lon="10.492513462736326"><ele>26.0</ele><time>2026-03-29T14:43:33Z</time></trkpt><trkpt lat="43.41061511285875" lon="10.49263325301594"><ele>27.0</ele><time>2026-03-29T14:43:34Z</time></trkpt><trkpt lat="43.410888947023814" lon="10.492747066722876"><ele>27.0</ele><time>2026-03-29T14:43:35Z</time></trkpt><trkpt lat="43.41116234295043" lon="10.492853113654409"><ele>27.0</ele><time>2026-03-29T14:43:36Z</time></trkpt><trkpt lat="43.41143826924004" lon="10.492950361294447"><ele>25.0</ele><time>2026-03-29T14:43:37Z</time></trkpt><trkpt lat="43.41171389277485" lon="10.493039229879871"><ele>23.0</ele><time>2026-03-29T14:43:38Z</time></trkpt><trkpt lat="43.41198975923909" lon="10.493118197845227"><ele>24.0</ele><time>2026-03-29T14:43:39Z</time></trkpt><trkpt lat="43.412266998810054" lon="10.493184226425873"><ele>25.0</ele><time>2026-03-29T14:43:40Z</time></trkpt><trkpt lat="43.412545503363546" lon="10.49323784179987"><ele>25.0</ele><time>2026-03-29T14:43:41Z</time></trkpt><trkpt lat="43.41282324037368" lon="10.493285202671803"><ele>25.0</ele><time>2026-03-29T14:43:42Z</time></trkpt><trkpt lat="43.41310096251599" lon="10.493321429376207"><ele>25.5</ele><time>2026-03-29T14:43:43Z</time></trkpt><trkpt lat="43.41338105502677" lon="10.493346485893893"><ele>26.0</ele><time>2026-03-29T14:43:44Z</time></trkpt><trkpt lat="43.41366172408907" lon="10.493356997387446"><ele>26.0</ele><time>2026-03-29T14:43:45Z</time></trkpt><trkpt lat="43.41394295783921" lon="10.4933520359257"><ele>26.0</ele><time>2026-03-29T14:43:46Z</time></trkpt><trkpt lat="43.41422066681282" lon="10.493332785710862"><ele>26.0</ele><time>2026-03-29T14:43:47Z</time></trkpt><trkpt lat="43.41449505878879" lon="10.493301070972528"><ele>26.0</ele><time>2026-03-29T14:43:48Z</time></trkpt><trkpt lat="43.41476714100095" lon="10.493260157411251"><ele>27.5</ele><time>2026-03-29T14:43:49Z</time></trkpt><trkpt lat="43.415039776005834" lon="10.49320923696599"><ele>29.0</ele><time>2026-03-29T14:43:50Z</time></trkpt><trkpt lat="43.415310766270245" lon="10.493148100060646"><ele>30.0</ele><time>2026-03-29T14:43:51Z</time></trkpt><trkpt lat="43.41557929272478" lon="10.493076738395214"><ele>31.0</ele><time>2026-03-29T14:43:52Z</time></trkpt><trkpt lat="43.41584596067568" lon="10.49299566451325"><ele>31.5</ele><time>2026-03-29T14:43:53Z</time></trkpt><trkpt lat="43.416108384062156" lon="10.492909102526454"><ele>32.0</ele><time>2026-03-29T14:43:54Z</time></trkpt><trkpt lat="43.416371712893614" lon="10.49281346758199"><ele>32.0</ele><time>2026-03-29T14:43:55Z</time></trkpt><trkpt lat="43.416639210926114" lon="10.492714678349609"><ele>32.0</ele><time>2026-03-29T14:43:56Z</time></trkpt><trkpt lat="43.41691127835436" lon="10.492609926727354"><ele>33.5</ele><time>2026-03-29T14:43:57Z</time></trkpt><trkpt lat="43.41718572271173" lon="10.492502485074713"><ele>35.0</ele><time>2026-03-29T14:43:58Z</time></trkpt><trkpt lat="43.41745903183543" lon="10.492394749988765"><ele>35.0</ele><time>2026-03-29T14:43:59Z</time></trkpt><trkpt lat="43.417731048682136" lon="10.492286297178433"><ele>35.0</ele><time>2026-03-29T14:44:00Z</time></trkpt><trkpt lat="43.41800646137421" lon="10.492177692859638"><ele>30.5</ele><time>2026-03-29T14:44:01Z</time></trkpt><trkpt lat="43.41828371999424" lon="10.49206830780193"><ele>26.0</ele><time>2026-03-29T14:44:02Z</time></trkpt><trkpt lat="43.4185585504806" lon="10.491957336017805"><ele>27.0</ele><time>2026-03-29T14:44:03Z</time></trkpt><trkpt lat="43.41883519328339" lon="10.491847941584345"><ele>28.0</ele><time>2026-03-29T14:44:04Z</time></trkpt><trkpt lat="43.419111549527344" lon="10.49173990459696"><ele>28.0</ele><time>2026-03-29T14:44:04.999Z</time></trkpt><trkpt lat="43.41938951631195" lon="10.491631741421545"><ele>28.0</ele><time>2026-03-29T14:44:05.999Z</time></trkpt><trkpt lat="43.41966390743438" lon="10.491520023654433"><ele>28.5</ele><time>2026-03-29T14:44:06.999Z</time></trkpt><trkpt lat="43.419938521757636" lon="10.491405759267627"><ele>29.0</ele><time>2026-03-29T14:44:07.999Z</time></trkpt><trkpt lat="43.42021347303918" lon="10.491294927844017"><ele>29.0</ele><time>2026-03-29T14:44:08.999Z</time></trkpt><trkpt lat="43.420488669140816" lon="10.491183334533947"><ele>29.0</ele><time>2026-03-29T14:44:09.999Z</time></trkpt><trkpt lat="43.420770648422746" lon="10.491073679171603"><ele>29.0</ele><time>2026-03-29T14:44:10.999Z</time></trkpt><trkpt lat="43.42104935322208" lon="10.490965923342882"><ele>29.0</ele><time>2026-03-29T14:44:11.999Z</time></trkpt><trkpt lat="43.421331867290064" lon="10.490857166341483"><ele>29.5</ele><time>2026-03-29T14:44:12.999Z</time></trkpt><trkpt lat="43.42161333105316" lon="10.49074363042032"><ele>30.0</ele><time>2026-03-29T14:44:13.999Z</time></trkpt><trkpt lat="43.42189332305618" lon="10.490629169093342"><ele>29.0</ele><time>2026-03-29T14:44:14.999Z</time></trkpt><trkpt lat="43.422177916839026" lon="10.490518501898563"><ele>28.0</ele><time>2026-03-29T14:44:15.999Z</time></trkpt><trkpt lat="43.42246022304358" lon="10.490409075159398"><ele>28.0</ele><time>2026-03-29T14:44:16.999Z</time></trkpt><trkpt lat="43.42274526259124" lon="10.490297578550914"><ele>28.0</ele><time>2026-03-29T14:44:17.999Z</time></trkpt><trkpt lat="43.423030571429194" lon="10.490185369718454"><ele>29.0</ele><time>2026-03-29T14:44:18.999Z</time></trkpt><trkpt lat="43.42331590687026" lon="10.490072863858629"><ele>30.0</ele><time>2026-03-29T14:44:19.999Z</time></trkpt><trkpt lat="43.423604364395544" lon="10.489956671456405"><ele>30.0</ele><time>2026-03-29T14:44:20.999Z</time></trkpt><trkpt lat="43.423892350515786" lon="10.48983691898464"><ele>30.0</ele><time>2026-03-29T14:44:21.999Z</time></trkpt><trkpt lat="43.424164181913866" lon="10.489728737733763"><ele>30.0</ele><time>2026-03-29T14:44:22.999Z</time></trkpt><trkpt lat="43.42442227215532" lon="10.489625409934678"><ele>30.0</ele><time>2026-03-29T14:44:23.999Z</time></trkpt><trkpt lat="43.42468738214592" lon="10.489518963629985"><ele>29.5</ele><time>2026-03-29T14:44:24.999Z</time></trkpt><trkpt lat="43.42495329218036" lon="10.489414754246484"><ele>29.0</ele><time>2026-03-29T14:44:25.999Z</time></trkpt><trkpt lat="43.425220371524205" lon="10.489309277278569"><ele>29.5</ele><time>2026-03-29T14:44:26.999Z</time></trkpt><trkpt lat="43.425490590319576" lon="10.489203873760061"><ele>30.0</ele><time>2026-03-29T14:44:27.999Z</time></trkpt><trkpt lat="43.42575805011509" lon="10.489099826536535"><ele>30.0</ele><time>2026-03-29T14:44:28.999Z</time></trkpt><trkpt lat="43.4260271836374" lon="10.48899355601305"><ele>30.0</ele><time>2026-03-29T14:44:29.999Z</time></trkpt><trkpt lat="43.426293302861794" lon="10.488885815374829"><ele>30.0</ele><time>2026-03-29T14:44:30.999Z</time></trkpt><trkpt lat="43.42655891398184" lon="10.488778285163809"><ele>30.0</ele><time>2026-03-29T14:44:31.999Z</time></trkpt><trkpt lat="43.42682371932929" lon="10.4886711287441"><ele>30.5</ele><time>2026-03-29T14:44:32.999Z</time></trkpt><trkpt lat="43.427087329963435" lon="10.488566969006259"><ele>31.0</ele><time>2026-03-29T14:44:33.999Z</time></trkpt><trkpt lat="43.427351156522654" lon="10.488462813895051"><ele>31.5</ele><time>2026-03-29T14:44:34.999Z</time></trkpt><trkpt lat="43.427615266287106" lon="10.488361982940308"><ele>32.0</ele><time>2026-03-29T14:44:35.999Z</time></trkpt><trkpt lat="43.42788154904234" lon="10.488260459503259"><ele>33.0</ele><time>2026-03-29T14:44:36.999Z</time></trkpt><trkpt lat="43.42814923472691" lon="10.488155698749342"><ele>34.0</ele><time>2026-03-29T14:44:37.999Z</time></trkpt><trkpt lat="43.428413528038796" lon="10.48805115418616"><ele>34.0</ele><time>2026-03-29T14:44:38.999Z</time></trkpt><trkpt lat="43.42867867128014" lon="10.487944056991072"><ele>34.0</ele><time>2026-03-29T14:44:39.999Z</time></trkpt><trkpt lat="43.428944634107076" lon="10.487835279445356"><ele>33.0</ele><time>2026-03-29T14:44:40.999Z</time></trkpt><trkpt lat="43.42920860642539" lon="10.487728228827676"><ele>32.0</ele><time>2026-03-29T14:44:41.999Z</time></trkpt><trkpt lat="43.429475750970724" lon="10.487624476546024"><ele>31.5</ele><time>2026-03-29T14:44:42.999Z</time></trkpt><trkpt lat="43.429739517262256" lon="10.487511539252818"><ele>31.0</ele><time>2026-03-29T14:44:43.999Z</time></trkpt><trkpt lat="43.42998357784351" lon="10.487406881089123"><ele>31.0</ele><time>2026-03-29T14:44:44.999Z</time></trkpt><trkpt lat="43.430211071118464" lon="10.487306124083247"><ele>31.0</ele><time>2026-03-29T14:44:45.999Z</time></trkpt><trkpt lat="43.43044890384624" lon="10.487207389417181"><ele>31.0</ele><time>2026-03-29T14:44:46.999Z</time></trkpt><trkpt lat="43.43068772194003" lon="10.487113020753823"><ele>31.0</ele><time>2026-03-29T14:44:47.999Z</time></trkpt><trkpt lat="43.4309320301437" lon="10.487021861784452"><ele>31.0</ele><time>2026-03-29T14:44:48.999Z</time></trkpt><trkpt lat="43.43118320882026" lon="10.486932101287442"><ele>31.0</ele><time>2026-03-29T14:44:49.999Z</time></trkpt><trkpt lat="43.431438728411464" lon="10.486847998824748"><ele>32.0</ele><time>2026-03-29T14:44:50.999Z</time></trkpt><trkpt lat="43.43169611098917" lon="10.486763024408244"><ele>33.0</ele><time>2026-03-29T14:44:51.999Z</time></trkpt><trkpt lat="43.4319546943422" lon="10.486673706159213"><ele>32.5</ele><time>2026-03-29T14:44:52.999Z</time></trkpt><trkpt lat="43.43221683953271" lon="10.48658888998525"><ele>32.0</ele><time>2026-03-29T14:44:53.999Z</time></trkpt><trkpt lat="43.43248399670495" lon="10.486506694100251"><ele>32.0</ele><time>2026-03-29T14:44:54.999Z</time></trkpt><trkpt lat="43.43274879200548" lon="10.486427537353535"><ele>32.0</ele><time>2026-03-29T14:44:55.999Z</time></trkpt><trkpt lat="43.43301998763487" lon="10.486357344671202"><ele>32.5</ele><time>2026-03-29T14:44:56.999Z</time></trkpt><trkpt lat="43.43329308695352" lon="10.486300790664068"><ele>33.0</ele><time>2026-03-29T14:44:58Z</time></trkpt><trkpt lat="43.43356538864738" lon="10.486261397148287"><ele>31.5</ele><time>2026-03-29T14:44:59Z</time></trkpt><trkpt lat="43.43384054147191" lon="10.486232864262377"><ele>30.0</ele><time>2026-03-29T14:45:00Z</time></trkpt><trkpt lat="43.43411311654684" lon="10.48622008071197"><ele>30.0</ele><time>2026-03-29T14:45:01Z</time></trkpt><trkpt lat="43.43438571778318" lon="10.486219204528343"><ele>30.0</ele><time>2026-03-29T14:45:02Z</time></trkpt><trkpt lat="43.43465741753291" lon="10.48622471066376"><ele>30.5</ele><time>2026-03-29T14:45:03Z</time></trkpt><trkpt lat="43.434928248949" lon="10.486244137469608"><ele>31.0</ele><time>2026-03-29T14:45:04Z</time></trkpt><trkpt lat="43.435196910301016" lon="10.486277721183388"><ele>31.0</ele><time>2026-03-29T14:45:05Z</time></trkpt><trkpt lat="43.43546626198826" lon="10.486319186234947"><ele>31.0</ele><time>2026-03-29T14:45:06Z</time></trkpt><trkpt lat="43.43573292959514" lon="10.48637328560934"><ele>31.0</ele><time>2026-03-29T14:45:07Z</time></trkpt><trkpt lat="43.435999399452534" lon="10.48644079786966"><ele>31.0</ele><time>2026-03-29T14:45:08Z</time></trkpt><trkpt lat="43.43626443766395" lon="10.486521272850279"><ele>31.5</ele><time>2026-03-29T14:45:09Z</time></trkpt><trkpt lat="43.43652742728231" lon="10.486616600985613"><ele>32.0</ele><time>2026-03-29T14:45:10Z</time></trkpt><trkpt lat="43.436788650279546" lon="10.486723513786998"><ele>32.0</ele><time>2026-03-29T14:45:11Z</time></trkpt><trkpt lat="43.437047640957346" lon="10.486839929777155"><ele>32.0</ele><time>2026-03-29T14:45:12Z</time></trkpt><trkpt lat="43.43730277880616" lon="10.486962811092734"><ele>31.5</ele><time>2026-03-29T14:45:13Z</time></trkpt><trkpt lat="43.43755523422013" lon="10.487099069598864"><ele>31.0</ele><time>2026-03-29T14:45:14Z</time></trkpt><trkpt lat="43.43780265747889" lon="10.487245484844365"><ele>31.5</ele><time>2026-03-29T14:45:15Z</time></trkpt><trkpt lat="43.438050491228196" lon="10.48740418692836"><ele>32.0</ele><time>2026-03-29T14:45:16Z</time></trkpt><trkpt lat="43.4382962575628" lon="10.487568805711417"><ele>32.0</ele><time>2026-03-29T14:45:17Z</time></trkpt><trkpt lat="43.438537258656076" lon="10.487744852392423"><ele>32.0</ele><time>2026-03-29T14:45:18Z</time></trkpt><trkpt lat="43.43877543871121" lon="10.487931984857635"><ele>32.5</ele><time>2026-03-29T14:45:19Z</time></trkpt><trkpt lat="43.439010623106114" lon="10.488125492958556"><ele>33.0</ele><time>2026-03-29T14:45:20Z</time></trkpt><trkpt lat="43.43923804755858" lon="10.488322702986812"><ele>33.0</ele><time>2026-03-29T14:45:21Z</time></trkpt><trkpt lat="43.43946171616351" lon="10.488528386546209"><ele>33.0</ele><time>2026-03-29T14:45:22Z</time></trkpt><trkpt lat="43.43968153286344" lon="10.488739435507583"><ele>33.0</ele><time>2026-03-29T14:45:23Z</time></trkpt><trkpt lat="43.43989712584385" lon="10.488948185979698"><ele>33.0</ele><time>2026-03-29T14:45:24Z</time></trkpt><trkpt lat="43.4401112699462" lon="10.489165453903345"><ele>33.0</ele><time>2026-03-29T14:45:25Z</time></trkpt><trkpt lat="43.4403240539662" lon="10.489387137980165"><ele>33.0</ele><time>2026-03-29T14:45:26Z</time></trkpt><trkpt lat="43.440533462559955" lon="10.489609496080298"><ele>34.0</ele><time>2026-03-29T14:45:27Z</time></trkpt><trkpt lat="43.44074306251198" lon="10.489834737184415"><ele>35.0</ele><time>2026-03-29T14:45:28Z</time></trkpt><trkpt lat="43.4409503072842" lon="10.490064584841914"><ele>35.0</ele><time>2026-03-29T14:45:29Z</time></trkpt><trkpt lat="43.44115664700041" lon="10.490296540892203"><ele>35.0</ele><time>2026-03-29T14:45:30Z</time></trkpt><trkpt lat="43.441361651232825" lon="10.490526920741162"><ele>34.5</ele><time>2026-03-29T14:45:31Z</time></trkpt><trkpt lat="43.441569007866924" lon="10.490753717452236"><ele>34.0</ele><time>2026-03-29T14:45:32Z</time></trkpt><trkpt lat="43.441778173697216" lon="10.490979160688825"><ele>34.0</ele><time>2026-03-29T14:45:33Z</time></trkpt><trkpt lat="43.441988328256315" lon="10.491209263717202"><ele>34.0</ele><time>2026-03-29T14:45:34Z</time></trkpt><trkpt lat="43.44219854160325" lon="10.491436236360416"><ele>34.0</ele><time>2026-03-29T14:45:35Z</time></trkpt><trkpt lat="43.44241200264089" lon="10.491662730117095"><ele>34.0</ele><time>2026-03-29T14:45:36Z</time></trkpt><trkpt lat="43.442626732343854" lon="10.491885165311096"><ele>33.5</ele><time>2026-03-29T14:45:37Z</time></trkpt><trkpt lat="43.4428423264443" lon="10.492105293290368"><ele>33.0</ele><time>2026-03-29T14:45:38Z</time></trkpt><trkpt lat="43.44305718986352" lon="10.492321809892811"><ele>34.0</ele><time>2026-03-29T14:45:39Z</time></trkpt><trkpt lat="43.443273949181496" lon="10.492532251513305"><ele>35.0</ele><time>2026-03-29T14:45:40Z</time></trkpt><trkpt lat="43.44349286069729" lon="10.492742138027998"><ele>34.0</ele><time>2026-03-29T14:45:41Z</time></trkpt><trkpt lat="43.44371410105869" lon="10.492943794879203"><ele>33.0</ele><time>2026-03-29T14:45:42Z</time></trkpt><trkpt lat="43.443938172407535" lon="10.493140729957185"><ele>35.5</ele><time>2026-03-29T14:45:43Z</time></trkpt><trkpt lat="43.444168475352676" lon="10.493332190771543"><ele>38.0</ele><time>2026-03-29T14:45:44Z</time></trkpt><trkpt lat="43.44440339551524" lon="10.493515781406746"><ele>39.0</ele><time>2026-03-29T14:45:45Z</time></trkpt><trkpt lat="43.44464305099199" lon="10.493691593457152"><ele>40.0</ele><time>2026-03-29T14:45:46Z</time></trkpt><trkpt lat="43.444885809151025" lon="10.493865147096928"><ele>40.0</ele><time>2026-03-29T14:45:47Z</time></trkpt><trkpt lat="43.445134730396965" lon="10.494027460382533"><ele>40.0</ele><time>2026-03-29T14:45:48Z</time></trkpt><trkpt lat="43.445386149306735" lon="10.494179978765883"><ele>45.0</ele><time>2026-03-29T14:45:49Z</time></trkpt><trkpt lat="43.44563024027057" lon="10.494317218436711"><ele>50.0</ele><time>2026-03-29T14:45:50Z</time></trkpt><trkpt lat="43.44586636545951" lon="10.49444356221093"><ele>50.0</ele><time>2026-03-29T14:45:51Z</time></trkpt><trkpt lat="43.446114223593874" lon="10.494560824358729"><ele>50.0</ele><time>2026-03-29T14:45:52Z</time></trkpt><trkpt lat="43.44636910237758" lon="10.494658652937927"><ele>50.5</ele><time>2026-03-29T14:45:53Z</time></trkpt><trkpt lat="43.446623200035155" lon="10.494749507276834"><ele>51.0</ele><time>2026-03-29T14:45:54Z</time></trkpt><trkpt lat="43.446882380600684" lon="10.494841207419498"><ele>49.5</ele><time>2026-03-29T14:45:55.021Z</time></trkpt><trkpt lat="43.44713700873524" lon="10.49493308232631"><ele>48.0</ele><time>2026-03-29T14:45:56.019Z</time></trkpt><trkpt lat="43.44742273802003" lon="10.495026458592712"><ele>48.0</ele><time>2026-03-29T14:45:57Z</time></trkpt><trkpt lat="43.447699728784265" lon="10.49503452770573"><ele>48.0</ele><time>2026-03-29T14:45:58Z</time></trkpt><trkpt lat="43.447968618350835" lon="10.495081403092364"><ele>45.5</ele><time>2026-03-29T14:45:59Z</time></trkpt><trkpt lat="43.44823855625541" lon="10.495117698434333"><ele>43.0</ele><time>2026-03-29T14:46:00Z</time></trkpt><trkpt lat="43.44850755402165" lon="10.495140517610682"><ele>43.0</ele><time>2026-03-29T14:46:01Z</time></trkpt><trkpt lat="43.448761290076625" lon="10.495152768748081"><ele>43.0</ele><time>2026-03-29T14:46:02Z</time></trkpt><trkpt lat="43.449003324960195" lon="10.495156225843676"><ele>42.5</ele><time>2026-03-29T14:46:03Z</time></trkpt><trkpt lat="43.449246085279164" lon="10.495150623811528"><ele>42.0</ele><time>2026-03-29T14:46:04Z</time></trkpt><trkpt lat="43.44948916632875" lon="10.495138533375194"><ele>42.5</ele><time>2026-03-29T14:46:05Z</time></trkpt><trkpt lat="43.44973318804389" lon="10.495109845515506"><ele>43.0</ele><time>2026-03-29T14:46:06Z</time></trkpt><trkpt lat="43.449975178939795" lon="10.495072601672367"><ele>43.0</ele><time>2026-03-29T14:46:07Z</time></trkpt><trkpt lat="43.45022009348848" lon="10.495020625769099"><ele>43.0</ele><time>2026-03-29T14:46:08Z</time></trkpt><trkpt lat="43.45047452406973" lon="10.49496759166905"><ele>40.5</ele><time>2026-03-29T14:46:09Z</time></trkpt><trkpt lat="43.450730534718424" lon="10.494911764520094"><ele>38.0</ele><time>2026-03-29T14:46:10Z</time></trkpt><trkpt lat="43.45098701882441" lon="10.494857355801773"><ele>38.0</ele><time>2026-03-29T14:46:11Z</time></trkpt><trkpt lat="43.45124856743819" lon="10.494800919696472"><ele>38.0</ele><time>2026-03-29T14:46:12Z</time></trkpt><trkpt lat="43.451509102504716" lon="10.494742569834736"><ele>38.0</ele><time>2026-03-29T14:46:12.999Z</time></trkpt><trkpt lat="43.45176860112235" lon="10.494684030678785"><ele>38.0</ele><time>2026-03-29T14:46:13.999Z</time></trkpt><trkpt lat="43.45203286663128" lon="10.494626728049495"><ele>38.5</ele><time>2026-03-29T14:46:14.999Z</time></trkpt><trkpt lat="43.45229439043761" lon="10.494571946284584"><ele>39.0</ele><time>2026-03-29T14:46:15.999Z</time></trkpt><trkpt lat="43.45255706265078" lon="10.494518434851305"><ele>39.0</ele><time>2026-03-29T14:46:16.999Z</time></trkpt><trkpt lat="43.45281770416586" lon="10.494462554408637"><ele>39.0</ele><time>2026-03-29T14:46:17.999Z</time></trkpt><trkpt lat="43.453075619109846" lon="10.494406477971491"><ele>39.5</ele><time>2026-03-29T14:46:18.999Z</time></trkpt><trkpt lat="43.45333558749823" lon="10.494348930208742"><ele>40.0</ele><time>2026-03-29T14:46:19.999Z</time></trkpt><trkpt lat="43.45359806497926" lon="10.49429325158395"><ele>39.5</ele><time>2026-03-29T14:46:20.999Z</time></trkpt><trkpt lat="43.453858755172064" lon="10.494236978511092"><ele>39.0</ele><time>2026-03-29T14:46:21.999Z</time></trkpt><trkpt lat="43.45412057675895" lon="10.494178841998952"><ele>39.0</ele><time>2026-03-29T14:46:22.999Z</time></trkpt><trkpt lat="43.454377774355855" lon="10.494123835293726"><ele>39.0</ele><time>2026-03-29T14:46:23.999Z</time></trkpt><trkpt lat="43.454636922898004" lon="10.494068838159777"><ele>39.0</ele><time>2026-03-29T14:46:24.999Z</time></trkpt><trkpt lat="43.454893614858484" lon="10.494012486075238"><ele>39.0</ele><time>2026-03-29T14:46:25.999Z</time></trkpt><trkpt lat="43.455151877783216" lon="10.493958683112327"><ele>39.0</ele><time>2026-03-29T14:46:26.999Z</time></trkpt><trkpt lat="43.455410294891564" lon="10.493907446203552"><ele>39.0</ele><time>2026-03-29T14:46:27.999Z</time></trkpt><trkpt lat="43.45567087758273" lon="10.49385466795888"><ele>38.5</ele><time>2026-03-29T14:46:28.999Z</time></trkpt><trkpt lat="43.455929281393786" lon="10.493797412390995"><ele>38.0</ele><time>2026-03-29T14:46:29.999Z</time></trkpt><trkpt lat="43.45618837725401" lon="10.493742014991149"><ele>39.5</ele><time>2026-03-29T14:46:30.999Z</time></trkpt><trkpt lat="43.45644566389587" lon="10.493686345923445"><ele>41.0</ele><time>2026-03-29T14:46:31.999Z</time></trkpt><trkpt lat="43.45670652759325" lon="10.493635158038499"><ele>41.0</ele><time>2026-03-29T14:46:32.999Z</time></trkpt><trkpt lat="43.4569598768701" lon="10.493585309223636"><ele>41.0</ele><time>2026-03-29T14:46:33.999Z</time></trkpt><trkpt lat="43.45722739687199" lon="10.493530093049934"><ele>40.0</ele><time>2026-03-29T14:46:34.999Z</time></trkpt><trkpt lat="43.457494143118566" lon="10.49347013600128"><ele>39.0</ele><time>2026-03-29T14:46:35.999Z</time></trkpt><trkpt lat="43.45775624505091" lon="10.49341075315512"><ele>40.0</ele><time>2026-03-29T14:46:36.999Z</time></trkpt><trkpt lat="43.45802206158164" lon="10.493351009098973"><ele>41.0</ele><time>2026-03-29T14:46:37.999Z</time></trkpt><trkpt lat="43.458286465915016" lon="10.493293628805883"><ele>41.0</ele><time>2026-03-29T14:46:38.999Z</time></trkpt><trkpt lat="43.45855591994487" lon="10.493237017359643"><ele>41.0</ele><time>2026-03-29T14:46:39.999Z</time></trkpt><trkpt lat="43.45882231607884" lon="10.49317819542106"><ele>41.0</ele><time>2026-03-29T14:46:40.999Z</time></trkpt><trkpt lat="43.459094970483385" lon="10.493118409432705"><ele>41.0</ele><time>2026-03-29T14:46:41.999Z</time></trkpt><trkpt lat="43.45936428730896" lon="10.493057082309509"><ele>41.0</ele><time>2026-03-29T14:46:42.999Z</time></trkpt><trkpt lat="43.45963313384839" lon="10.492998170454204"><ele>41.0</ele><time>2026-03-29T14:46:43.999Z</time></trkpt><trkpt lat="43.45990074377061" lon="10.492938696403312"><ele>42.5</ele><time>2026-03-29T14:46:44.999Z</time></trkpt><trkpt lat="43.460168704062475" lon="10.49287965426532"><ele>44.0</ele><time>2026-03-29T14:46:45.999Z</time></trkpt><trkpt lat="43.460437620089024" lon="10.492821906533427"><ele>43.0</ele><time>2026-03-29T14:46:46.999Z</time></trkpt><trkpt lat="43.46070463097884" lon="10.49276407103015"><ele>42.0</ele><time>2026-03-29T14:46:47.999Z</time></trkpt><trkpt lat="43.46096939542733" lon="10.492706582924706"><ele>42.0</ele><time>2026-03-29T14:46:48.999Z</time></trkpt><trkpt lat="43.46123206744171" lon="10.492646471101091"><ele>42.0</ele><time>2026-03-29T14:46:49.999Z</time></trkpt><trkpt lat="43.4614938509897" lon="10.492589498300902"><ele>42.0</ele><time>2026-03-29T14:46:50.999Z</time></trkpt><trkpt lat="43.46175667879002" lon="10.492534164975591"><ele>42.0</ele><time>2026-03-29T14:46:51.999Z</time></trkpt><trkpt lat="43.462016880168285" lon="10.49247656385728"><ele>42.0</ele><time>2026-03-29T14:46:52.999Z</time></trkpt><trkpt lat="43.46227879370432" lon="10.49241841208292"><ele>42.0</ele><time>2026-03-29T14:46:53.999Z</time></trkpt><trkpt lat="43.462541253910125" lon="10.492359705651305"><ele>42.0</ele><time>2026-03-29T14:46:54.999Z</time></trkpt><trkpt lat="43.462808286832406" lon="10.492302388585728"><ele>42.0</ele><time>2026-03-29T14:46:55.999Z</time></trkpt><trkpt lat="43.46307044263421" lon="10.492244023032791"><ele>42.0</ele><time>2026-03-29T14:46:56.999Z</time></trkpt><trkpt lat="43.4633337535405" lon="10.492184678884401"><ele>42.0</ele><time>2026-03-29T14:46:57.999Z</time></trkpt><trkpt lat="43.46359758068559" lon="10.492125417888868"><ele>43.5</ele><time>2026-03-29T14:46:58.999Z</time></trkpt><trkpt lat="43.46386077405134" lon="10.492066637033833"><ele>45.0</ele><time>2026-03-29T14:46:59.999Z</time></trkpt><trkpt lat="43.464124067279236" lon="10.492010081125331"><ele>45.0</ele><time>2026-03-29T14:47:00.999Z</time></trkpt><trkpt lat="43.464387639828196" lon="10.491956860611282"><ele>45.0</ele><time>2026-03-29T14:47:01.999Z</time></trkpt><trkpt lat="43.464649798546226" lon="10.491901064736508"><ele>46.0</ele><time>2026-03-29T14:47:02.999Z</time></trkpt><trkpt lat="43.464913100590586" lon="10.491846400577975"><ele>47.0</ele><time>2026-03-29T14:47:04Z</time></trkpt><trkpt lat="43.46517878212749" lon="10.491791219632978"><ele>47.0</ele><time>2026-03-29T14:47:05Z</time></trkpt><trkpt lat="43.465445446992405" lon="10.49173685639945"><ele>47.0</ele><time>2026-03-29T14:47:06Z</time></trkpt><trkpt lat="43.465709533467006" lon="10.491677756865686"><ele>46.5</ele><time>2026-03-29T14:47:07Z</time></trkpt><trkpt lat="43.465972022634254" lon="10.491619503939996"><ele>46.0</ele><time>2026-03-29T14:47:08Z</time></trkpt><trkpt lat="43.46623520215169" lon="10.49155783709925"><ele>45.0</ele><time>2026-03-29T14:47:09Z</time></trkpt><trkpt lat="43.466501400456146" lon="10.491494396662317"><ele>44.0</ele><time>2026-03-29T14:47:10Z</time></trkpt><trkpt lat="43.46676773551808" lon="10.491431562126419"><ele>44.0</ele><time>2026-03-29T14:47:11Z</time></trkpt><trkpt lat="43.46703485377849" lon="10.491369317138329"><ele>44.0</ele><time>2026-03-29T14:47:12Z</time></trkpt><trkpt lat="43.467301941367786" lon="10.491305155447845"><ele>44.0</ele><time>2026-03-29T14:47:13Z</time></trkpt><trkpt lat="43.467567653452676" lon="10.491239083463835"><ele>44.0</ele><time>2026-03-29T14:47:14Z</time></trkpt><trkpt lat="43.46783048478664" lon="10.491172719425064"><ele>45.0</ele><time>2026-03-29T14:47:15Z</time></trkpt><trkpt lat="43.46809247019119" lon="10.491104352109069"><ele>46.0</ele><time>2026-03-29T14:47:16Z</time></trkpt><trkpt lat="43.468352354364235" lon="10.491031428029311"><ele>46.0</ele><time>2026-03-29T14:47:17Z</time></trkpt><trkpt lat="43.468612328069035" lon="10.490955089796188"><ele>46.0</ele><time>2026-03-29T14:47:18Z</time></trkpt><trkpt lat="43.46886999871282" lon="10.49087517030742"><ele>46.0</ele><time>2026-03-29T14:47:19Z</time></trkpt><trkpt lat="43.46912924998883" lon="10.490793623831694"><ele>46.0</ele><time>2026-03-29T14:47:20Z</time></trkpt><trkpt lat="43.46938816518676" lon="10.490706902308554"><ele>47.0</ele><time>2026-03-29T14:47:21Z</time></trkpt><trkpt lat="43.46964799232296" lon="10.49061428605934"><ele>48.0</ele><time>2026-03-29T14:47:22Z</time></trkpt><trkpt lat="43.469903359692175" lon="10.490516953567306"><ele>47.0</ele><time>2026-03-29T14:47:23Z</time></trkpt><trkpt lat="43.47017058567207" lon="10.490417789688589"><ele>46.0</ele><time>2026-03-29T14:47:24Z</time></trkpt><trkpt lat="43.470426261754525" lon="10.490306844524705"><ele>47.0</ele><time>2026-03-29T14:47:25Z</time></trkpt><trkpt lat="43.47067976120968" lon="10.490199274256147"><ele>48.0</ele><time>2026-03-29T14:47:26Z</time></trkpt><trkpt lat="43.470935388850656" lon="10.490086977353045"><ele>48.0</ele><time>2026-03-29T14:47:27Z</time></trkpt><trkpt lat="43.47119046977097" lon="10.4899715322439"><ele>48.0</ele><time>2026-03-29T14:47:28Z</time></trkpt><trkpt lat="43.47144440757683" lon="10.489850929071554"><ele>47.0</ele><time>2026-03-29T14:47:29Z</time></trkpt><trkpt lat="43.471697298085886" lon="10.48972807906324"><ele>46.0</ele><time>2026-03-29T14:47:30Z</time></trkpt><trkpt lat="43.47195195742367" lon="10.48960041125055"><ele>46.5</ele><time>2026-03-29T14:47:31Z</time></trkpt><trkpt lat="43.47220578133496" lon="10.489468579285967"><ele>47.0</ele><time>2026-03-29T14:47:32Z</time></trkpt><trkpt lat="43.47245594547176" lon="10.489334744579427"><ele>47.0</ele><time>2026-03-29T14:47:33Z</time></trkpt><trkpt lat="43.47270634361214" lon="10.489199611771078"><ele>47.0</ele><time>2026-03-29T14:47:34Z</time></trkpt><trkpt lat="43.47293879697638" lon="10.489074851880055"><ele>46.5</ele><time>2026-03-29T14:47:35Z</time></trkpt><trkpt lat="43.47317380765988" lon="10.488947274823014"><ele>46.0</ele><time>2026-03-29T14:47:36Z</time></trkpt><trkpt lat="43.47340996217217" lon="10.48881610081481"><ele>46.5</ele><time>2026-03-29T14:47:37Z</time></trkpt><trkpt lat="43.473647635365744" lon="10.488688211019344"><ele>47.0</ele><time>2026-03-29T14:47:38Z</time></trkpt><trkpt lat="43.47388605484735" lon="10.488562407377373"><ele>47.5</ele><time>2026-03-29T14:47:39Z</time></trkpt><trkpt lat="43.47412514124896" lon="10.488435465977556"><ele>48.0</ele><time>2026-03-29T14:47:40Z</time></trkpt><trkpt lat="43.474363193785265" lon="10.488307779807808"><ele>48.0</ele><time>2026-03-29T14:47:41Z</time></trkpt><trkpt lat="43.474608139180624" lon="10.488179438073239"><ele>48.0</ele><time>2026-03-29T14:47:42Z</time></trkpt><trkpt lat="43.47484976678113" lon="10.488050791835299"><ele>47.5</ele><time>2026-03-29T14:47:43Z</time></trkpt><trkpt lat="43.47509202260011" lon="10.487926644599336"><ele>47.0</ele><time>2026-03-29T14:47:44Z</time></trkpt><trkpt lat="43.47533029002312" lon="10.487807830377417"><ele>47.5</ele><time>2026-03-29T14:47:45Z</time></trkpt><trkpt lat="43.4755576286731" lon="10.487696867719896"><ele>48.0</ele><time>2026-03-29T14:47:46Z</time></trkpt><trkpt lat="43.47578644871992" lon="10.487586485873042"><ele>48.0</ele><time>2026-03-29T14:47:47Z</time></trkpt><trkpt lat="43.47602289612704" lon="10.487473828961077"><ele>48.0</ele><time>2026-03-29T14:47:48Z</time></trkpt><trkpt lat="43.47625735250069" lon="10.487366991625148"><ele>47.5</ele><time>2026-03-29T14:47:49Z</time></trkpt><trkpt lat="43.476494266936456" lon="10.487260063100765"><ele>47.0</ele><time>2026-03-29T14:47:50Z</time></trkpt><trkpt lat="43.47673078760131" lon="10.487155059809064"><ele>47.5</ele><time>2026-03-29T14:47:51Z</time></trkpt><trkpt lat="43.47697199201372" lon="10.487054103408868"><ele>48.0</ele><time>2026-03-29T14:47:52Z</time></trkpt><trkpt lat="43.47721639383285" lon="10.486953362165874"><ele>49.0</ele><time>2026-03-29T14:47:53Z</time></trkpt><trkpt lat="43.47746385129654" lon="10.48685776493627"><ele>50.0</ele><time>2026-03-29T14:47:54Z</time></trkpt><trkpt lat="43.47771261426432" lon="10.486766262879875"><ele>50.5</ele><time>2026-03-29T14:47:55Z</time></trkpt><trkpt lat="43.47796647418873" lon="10.486678962057969"><ele>51.0</ele><time>2026-03-29T14:47:56Z</time></trkpt><trkpt lat="43.47822388150055" lon="10.486594253685862"><ele>51.0</ele><time>2026-03-29T14:47:57Z</time></trkpt><trkpt lat="43.47848741233158" lon="10.486512146905701"><ele>51.0</ele><time>2026-03-29T14:47:58Z</time></trkpt><trkpt lat="43.478750716817515" lon="10.486434258894871"><ele>50.5</ele><time>2026-03-29T14:47:59Z</time></trkpt><trkpt lat="43.479015580608106" lon="10.486361612984807"><ele>50.0</ele><time>2026-03-29T14:48:00Z</time></trkpt><trkpt lat="43.479276872479694" lon="10.486293217646079"><ele>50.5</ele><time>2026-03-29T14:48:01Z</time></trkpt><trkpt lat="43.47954048815428" lon="10.48622911188357"><ele>51.0</ele><time>2026-03-29T14:48:02Z</time></trkpt><trkpt lat="43.47979953276686" lon="10.486167472309381"><ele>51.5</ele><time>2026-03-29T14:48:03Z</time></trkpt><trkpt lat="43.48005848212669" lon="10.486112175052863"><ele>52.0</ele><time>2026-03-29T14:48:04Z</time></trkpt><trkpt lat="43.48031901604835" lon="10.486060815731335"><ele>51.5</ele><time>2026-03-29T14:48:05Z</time></trkpt><trkpt lat="43.48057768666549" lon="10.486009712594388"><ele>51.0</ele><time>2026-03-29T14:48:06Z</time></trkpt><trkpt lat="43.480838913313946" lon="10.485956957121033"><ele>51.0</ele><time>2026-03-29T14:48:07Z</time></trkpt><trkpt lat="43.481095805212895" lon="10.485902048644922"><ele>51.0</ele><time>2026-03-29T14:48:08Z</time></trkpt><trkpt lat="43.48135593338789" lon="10.485846695881026"><ele>51.0</ele><time>2026-03-29T14:48:09Z</time></trkpt><trkpt lat="43.48161491723214" lon="10.485791499212656"><ele>51.0</ele><time>2026-03-29T14:48:10Z</time></trkpt><trkpt lat="43.48187749681642" lon="10.485734055010434"><ele>50.5</ele><time>2026-03-29T14:48:11Z</time></trkpt><trkpt lat="43.48213866159929" lon="10.485675929658893"><ele>50.0</ele><time>2026-03-29T14:48:12Z</time></trkpt><trkpt lat="43.48239994831911" lon="10.485621447035303"><ele>50.0</ele><time>2026-03-29T14:48:13Z</time></trkpt><trkpt lat="43.4826619653725" lon="10.485565729295185"><ele>50.0</ele><time>2026-03-29T14:48:14Z</time></trkpt><trkpt lat="43.48292438633065" lon="10.485503525581745"><ele>50.5</ele><time>2026-03-29T14:48:15Z</time></trkpt><trkpt lat="43.48318749999684" lon="10.485435738806373"><ele>51.0</ele><time>2026-03-29T14:48:16Z</time></trkpt><trkpt lat="43.48345087136938" lon="10.485363204024331"><ele>51.0</ele><time>2026-03-29T14:48:17Z</time></trkpt><trkpt lat="43.48371399166943" lon="10.48528418026756"><ele>51.0</ele><time>2026-03-29T14:48:18Z</time></trkpt><trkpt lat="43.48397741571971" lon="10.48519827278888"><ele>52.0</ele><time>2026-03-29T14:48:19Z</time></trkpt><trkpt lat="43.4842447960495" lon="10.485106067470682"><ele>53.0</ele><time>2026-03-29T14:48:20Z</time></trkpt><trkpt lat="43.48451210714048" lon="10.485006921208775"><ele>53.5</ele><time>2026-03-29T14:48:21Z</time></trkpt><trkpt lat="43.484776280970046" lon="10.484898528690152"><ele>54.0</ele><time>2026-03-29T14:48:22Z</time></trkpt><trkpt lat="43.48503749865907" lon="10.48478355367534"><ele>54.0</ele><time>2026-03-29T14:48:22.999Z</time></trkpt><trkpt lat="43.485300167549546" lon="10.484665577667743"><ele>54.0</ele><time>2026-03-29T14:48:23.999Z</time></trkpt><trkpt lat="43.48556131423276" lon="10.484542185599052"><ele>54.5</ele><time>2026-03-29T14:48:24.999Z</time></trkpt><trkpt lat="43.4858209803886" lon="10.484415307868687"><ele>55.0</ele><time>2026-03-29T14:48:25.999Z</time></trkpt><trkpt lat="43.48607848467474" lon="10.484282418770956"><ele>54.5</ele><time>2026-03-29T14:48:26.999Z</time></trkpt><trkpt lat="43.486334543232715" lon="10.48414726486949"><ele>54.0</ele><time>2026-03-29T14:48:27.999Z</time></trkpt><trkpt lat="43.48659052878049" lon="10.484004252202158"><ele>54.0</ele><time>2026-03-29T14:48:28.999Z</time></trkpt><trkpt lat="43.48684438415306" lon="10.483852070721367"><ele>54.0</ele><time>2026-03-29T14:48:29.999Z</time></trkpt><trkpt lat="43.48709554842215" lon="10.483695234903964"><ele>55.5</ele><time>2026-03-29T14:48:30.999Z</time></trkpt><trkpt lat="43.48734616133254" lon="10.483531408988966"><ele>57.0</ele><time>2026-03-29T14:48:31.999Z</time></trkpt><trkpt lat="43.48759567760659" lon="10.483366141039735"><ele>57.0</ele><time>2026-03-29T14:48:32.999Z</time></trkpt><trkpt lat="43.487844717673845" lon="10.483201484665162"><ele>57.0</ele><time>2026-03-29T14:48:33.999Z</time></trkpt><trkpt lat="43.48809129487104" lon="10.483037394954266"><ele>60.5</ele><time>2026-03-29T14:48:34.999Z</time></trkpt><trkpt lat="43.48833820757034" lon="10.482872781223907"><ele>64.0</ele><time>2026-03-29T14:48:35.999Z</time></trkpt><trkpt lat="43.48858655255094" lon="10.482709730357731"><ele>60.5</ele><time>2026-03-29T14:48:36.999Z</time></trkpt><trkpt lat="43.488835097033174" lon="10.482546169590373"><ele>57.0</ele><time>2026-03-29T14:48:37.999Z</time></trkpt><trkpt lat="43.48908210892606" lon="10.48238321704294"><ele>57.0</ele><time>2026-03-29T14:48:38.999Z</time></trkpt><trkpt lat="43.48933005320219" lon="10.48222205295958"><ele>57.0</ele><time>2026-03-29T14:48:39.999Z</time></trkpt><trkpt lat="43.48957865931158" lon="10.482062544488649"><ele>57.0</ele><time>2026-03-29T14:48:40.999Z</time></trkpt><trkpt lat="43.48982993983559" lon="10.481904410220867"><ele>57.0</ele><time>2026-03-29T14:48:41.999Z</time></trkpt><trkpt lat="43.4900787622604" lon="10.481750367375085"><ele>57.0</ele><time>2026-03-29T14:48:42.999Z</time></trkpt><trkpt lat="43.49032899278829" lon="10.481596595049275"><ele>57.0</ele><time>2026-03-29T14:48:43.999Z</time></trkpt><trkpt lat="43.4905794424324" lon="10.481448299343267"><ele>58.0</ele><time>2026-03-29T14:48:44.999Z</time></trkpt><trkpt lat="43.490831977942086" lon="10.481300958134115"><ele>59.0</ele><time>2026-03-29T14:48:45.999Z</time></trkpt><trkpt lat="43.491083120057006" lon="10.481155696395748"><ele>59.0</ele><time>2026-03-29T14:48:46.999Z</time></trkpt><trkpt lat="43.49133572454971" lon="10.481015779301304"><ele>59.0</ele><time>2026-03-29T14:48:47.999Z</time></trkpt><trkpt lat="43.49159002931909" lon="10.480879110481414"><ele>59.0</ele><time>2026-03-29T14:48:48.999Z</time></trkpt><trkpt lat="43.491845857203" lon="10.480745909223181"><ele>59.0</ele><time>2026-03-29T14:48:49.999Z</time></trkpt><trkpt lat="43.49210182570771" lon="10.48061445398342"><ele>59.0</ele><time>2026-03-29T14:48:50.999Z</time></trkpt><trkpt lat="43.492359652236416" lon="10.480487805038722"><ele>59.0</ele><time>2026-03-29T14:48:51.999Z</time></trkpt><trkpt lat="43.49261927018544" lon="10.480365800321872"><ele>59.0</ele><time>2026-03-29T14:48:52.999Z</time></trkpt><trkpt lat="43.49287789909658" lon="10.480247439249"><ele>59.0</ele><time>2026-03-29T14:48:53.999Z</time></trkpt><trkpt lat="43.49313879293569" lon="10.4801311039684"><ele>60.0</ele><time>2026-03-29T14:48:54.999Z</time></trkpt><trkpt lat="43.49339737091744" lon="10.480018068311239"><ele>61.0</ele><time>2026-03-29T14:48:55.999Z</time></trkpt><trkpt lat="43.49365438323631" lon="10.479902730031714"><ele>61.5</ele><time>2026-03-29T14:48:56.999Z</time></trkpt><trkpt lat="43.49391533879825" lon="10.479791986591934"><ele>62.0</ele><time>2026-03-29T14:48:57.999Z</time></trkpt><trkpt lat="43.49417597117787" lon="10.479685990672891"><ele>64.5</ele><time>2026-03-29T14:48:58.999Z</time></trkpt><trkpt lat="43.49443323635603" lon="10.479582329547085"><ele>67.0</ele><time>2026-03-29T14:48:59.999Z</time></trkpt><trkpt lat="43.49469626527046" lon="10.479481636400331"><ele>67.0</ele><time>2026-03-29T14:49:00.999Z</time></trkpt><trkpt lat="43.49495531782834" lon="10.479381531826263"><ele>67.0</ele><time>2026-03-29T14:49:01.999Z</time></trkpt><trkpt lat="43.49521339933358" lon="10.47927850067992"><ele>66.0</ele><time>2026-03-29T14:49:02.999Z</time></trkpt><trkpt lat="43.49546939235099" lon="10.479176036741237"><ele>65.0</ele><time>2026-03-29T14:49:03.999Z</time></trkpt><trkpt lat="43.49572612478641" lon="10.479070741193427"><ele>65.0</ele><time>2026-03-29T14:49:04.999Z</time></trkpt><trkpt lat="43.49598279839504" lon="10.478963133910462"><ele>65.0</ele><time>2026-03-29T14:49:05.999Z</time></trkpt><trkpt lat="43.49624141240266" lon="10.478855349922272"><ele>67.5</ele><time>2026-03-29T14:49:06.999Z</time></trkpt><trkpt lat="43.49650401999257" lon="10.478746405953041"><ele>70.0</ele><time>2026-03-29T14:49:07.999Z</time></trkpt><trkpt lat="43.49675692796208" lon="10.478636239504322"><ele>70.0</ele><time>2026-03-29T14:49:08.999Z</time></trkpt><trkpt lat="43.497016330704355" lon="10.478522014218841"><ele>70.0</ele><time>2026-03-29T14:49:10Z</time></trkpt><trkpt lat="43.49727507692311" lon="10.478404936242441"><ele>68.0</ele><time>2026-03-29T14:49:11Z</time></trkpt><trkpt lat="43.49753196802697" lon="10.478286214577453"><ele>66.0</ele><time>2026-03-29T14:49:12Z</time></trkpt><trkpt lat="43.497786922227455" lon="10.47816186963299"><ele>66.5</ele><time>2026-03-29T14:49:13Z</time></trkpt><trkpt lat="43.49804375286926" lon="10.478032833882752"><ele>67.0</ele><time>2026-03-29T14:49:14Z</time></trkpt><trkpt lat="43.498297072777014" lon="10.477897565572018"><ele>69.0</ele><time>2026-03-29T14:49:15Z</time></trkpt><trkpt lat="43.498547100784585" lon="10.477758321317726"><ele>71.0</ele><time>2026-03-29T14:49:16Z</time></trkpt><trkpt lat="43.4987975586025" lon="10.477614334037671"><ele>71.5</ele><time>2026-03-29T14:49:17Z</time></trkpt><trkpt lat="43.499044928533394" lon="10.477464868372696"><ele>72.0</ele><time>2026-03-29T14:49:18Z</time></trkpt><trkpt lat="43.499290059893575" lon="10.477313578424662"><ele>72.0</ele><time>2026-03-29T14:49:19Z</time></trkpt><trkpt lat="43.49953392508192" lon="10.477155201296918"><ele>72.0</ele><time>2026-03-29T14:49:20Z</time></trkpt><trkpt lat="43.49977633754963" lon="10.476995202013986"><ele>74.5</ele><time>2026-03-29T14:49:21Z</time></trkpt><trkpt lat="43.50002026633916" lon="10.476830763217071"><ele>77.0</ele><time>2026-03-29T14:49:22Z</time></trkpt><trkpt lat="43.500264246245294" lon="10.476661658972521"><ele>74.5</ele><time>2026-03-29T14:49:23Z</time></trkpt><trkpt lat="43.500503160379495" lon="10.476492158287945"><ele>72.0</ele><time>2026-03-29T14:49:24Z</time></trkpt><trkpt lat="43.50074254774634" lon="10.47631795819814"><ele>77.0</ele><time>2026-03-29T14:49:25Z</time></trkpt><trkpt lat="43.50098367911165" lon="10.476142915455718"><ele>82.0</ele><time>2026-03-29T14:49:26Z</time></trkpt><trkpt lat="43.50122587140736" lon="10.475967346893912"><ele>78.5</ele><time>2026-03-29T14:49:27Z</time></trkpt><trkpt lat="43.50146710431886" lon="10.475790368665466"><ele>75.0</ele><time>2026-03-29T14:49:28Z</time></trkpt><trkpt lat="43.501707684015074" lon="10.475612175356899"><ele>78.0</ele><time>2026-03-29T14:49:29Z</time></trkpt><trkpt lat="43.50194893614792" lon="10.475432556829087"><ele>81.0</ele><time>2026-03-29T14:49:30Z</time></trkpt><trkpt lat="43.502172726633404" lon="10.47527176053161"><ele>81.0</ele><time>2026-03-29T14:49:31Z</time></trkpt><trkpt lat="43.502384603052356" lon="10.475117737488825"><ele>81.0</ele><time>2026-03-29T14:49:32Z</time></trkpt><trkpt lat="43.50259398311233" lon="10.474969090333857"><ele>81.0</ele><time>2026-03-29T14:49:33Z</time></trkpt><trkpt lat="43.5028075177391" lon="10.474830192630371"><ele>81.0</ele><time>2026-03-29T14:49:34Z</time></trkpt><trkpt lat="43.503009737343596" lon="10.474700040794655"><ele>85.0</ele><time>2026-03-29T14:49:35Z</time></trkpt><trkpt lat="43.50321695144043" lon="10.474570557915586"><ele>89.0</ele><time>2026-03-29T14:49:36.016Z</time></trkpt><trkpt lat="43.503421912389236" lon="10.474442564307035"><ele>89.0</ele><time>2026-03-29T14:49:37.017Z</time></trkpt><trkpt lat="43.50362590692509" lon="10.47431343965097"><ele>89.0</ele><time>2026-03-29T14:49:38.016Z</time></trkpt><trkpt lat="43.50382396667046" lon="10.474177300308984"><ele>89.0</ele><time>2026-03-29T14:49:39Z</time></trkpt><trkpt lat="43.504161380313214" lon="10.474074971822061"><ele>81.5</ele><time>2026-03-29T14:49:40Z</time></trkpt><trkpt lat="43.50441049646522" lon="10.47397412307234"><ele>74.0</ele><time>2026-03-29T14:49:41Z</time></trkpt><trkpt lat="43.504664383007025" lon="10.473878499797081"><ele>70.0</ele><time>2026-03-29T14:49:42Z</time></trkpt><trkpt lat="43.50492558250437" lon="10.473791245614759"><ele>66.0</ele><time>2026-03-29T14:49:43Z</time></trkpt><trkpt lat="43.50518670236741" lon="10.473715419507307"><ele>66.0</ele><time>2026-03-29T14:49:44Z</time></trkpt><trkpt lat="43.50544787004941" lon="10.473650532507046"><ele>66.0</ele><time>2026-03-29T14:49:45Z</time></trkpt><trkpt lat="43.50571500925859" lon="10.473599082194673"><ele>66.0</ele><time>2026-03-29T14:49:46Z</time></trkpt><trkpt lat="43.50598514248738" lon="10.473561592298637"><ele>66.0</ele><time>2026-03-29T14:49:47Z</time></trkpt><trkpt lat="43.50625385446896" lon="10.473536236915356"><ele>67.5</ele><time>2026-03-29T14:49:48Z</time></trkpt><trkpt lat="43.506511153958854" lon="10.473521706297086"><ele>69.0</ele><time>2026-03-29T14:49:49Z</time></trkpt><trkpt lat="43.50676656695631" lon="10.473520212627013"><ele>69.0</ele><time>2026-03-29T14:49:50Z</time></trkpt><trkpt lat="43.50702368216337" lon="10.473523185015292"><ele>69.0</ele><time>2026-03-29T14:49:51Z</time></trkpt><trkpt lat="43.50728168432514" lon="10.473535728861556"><ele>68.5</ele><time>2026-03-29T14:49:52Z</time></trkpt><trkpt lat="43.5075435672788" lon="10.473558246318916"><ele>68.0</ele><time>2026-03-29T14:49:53Z</time></trkpt><trkpt lat="43.507806286116804" lon="10.473588631388331"><ele>65.5</ele><time>2026-03-29T14:49:54Z</time></trkpt><trkpt lat="43.50807057181227" lon="10.47362589323251"><ele>63.0</ele><time>2026-03-29T14:49:55Z</time></trkpt><trkpt lat="43.50833391384604" lon="10.473664947103"><ele>63.0</ele><time>2026-03-29T14:49:56Z</time></trkpt><trkpt lat="43.50859439131862" lon="10.473705949047202"><ele>63.0</ele><time>2026-03-29T14:49:57Z</time></trkpt><trkpt lat="43.50886227408767" lon="10.473751058346824"><ele>61.0</ele><time>2026-03-29T14:49:58Z</time></trkpt><trkpt lat="43.509133242033506" lon="10.47379985000273"><ele>59.0</ele><time>2026-03-29T14:49:59Z</time></trkpt><trkpt lat="43.50940388152202" lon="10.473852229026699"><ele>59.0</ele><time>2026-03-29T14:50:00Z</time></trkpt><trkpt lat="43.50967303813406" lon="10.473904538167615"><ele>59.0</ele><time>2026-03-29T14:50:01Z</time></trkpt><trkpt lat="43.50994449933539" lon="10.47395902878152"><ele>59.0</ele><time>2026-03-29T14:50:02Z</time></trkpt><trkpt lat="43.51021619111264" lon="10.47401582758959"><ele>59.0</ele><time>2026-03-29T14:50:03Z</time></trkpt><trkpt lat="43.510489026383105" lon="10.474072507739253"><ele>58.5</ele><time>2026-03-29T14:50:04Z</time></trkpt><trkpt lat="43.51076330266054" lon="10.474128372460802"><ele>58.0</ele><time>2026-03-29T14:50:05Z</time></trkpt><trkpt lat="43.51103669370248" lon="10.474181246166973"><ele>58.5</ele><time>2026-03-29T14:50:06Z</time></trkpt><trkpt lat="43.51130971325848" lon="10.474234366214185"><ele>59.0</ele><time>2026-03-29T14:50:07Z</time></trkpt><trkpt lat="43.51158109935869" lon="10.474287063119787"><ele>59.0</ele><time>2026-03-29T14:50:08Z</time></trkpt><trkpt lat="43.5118564035761" lon="10.474334670809274"><ele>59.0</ele><time>2026-03-29T14:50:09Z</time></trkpt><trkpt lat="43.51212556102206" lon="10.47437489951232"><ele>58.0</ele><time>2026-03-29T14:50:10Z</time></trkpt><trkpt lat="43.512395544162295" lon="10.474415078494511"><ele>57.0</ele><time>2026-03-29T14:50:11Z</time></trkpt><trkpt lat="43.512665398789785" lon="10.474451629513812"><ele>56.0</ele><time>2026-03-29T14:50:12Z</time></trkpt><trkpt lat="43.51293742942881" lon="10.474484048592455"><ele>55.0</ele><time>2026-03-29T14:50:13Z</time></trkpt><trkpt lat="43.513211784014935" lon="10.474509025335175"><ele>55.0</ele><time>2026-03-29T14:50:14Z</time></trkpt><trkpt lat="43.513481282611224" lon="10.474521134493566"><ele>55.0</ele><time>2026-03-29T14:50:15Z</time></trkpt><trkpt lat="43.513754079040446" lon="10.474528305604998"><ele>55.0</ele><time>2026-03-29T14:50:16Z</time></trkpt><trkpt lat="43.514025309226774" lon="10.474528361425568"><ele>55.0</ele><time>2026-03-29T14:50:17Z</time></trkpt><trkpt lat="43.51429295736287" lon="10.474521390357467"><ele>55.0</ele><time>2026-03-29T14:50:17.999Z</time></trkpt><trkpt lat="43.51456026286505" lon="10.474501286648042"><ele>55.0</ele><time>2026-03-29T14:50:18.999Z</time></trkpt><trkpt lat="43.51482855065409" lon="10.47447049789525"><ele>58.5</ele><time>2026-03-29T14:50:19.999Z</time></trkpt><trkpt lat="43.51509077140395" lon="10.474427326461411"><ele>62.0</ele><time>2026-03-29T14:50:20.999Z</time></trkpt><trkpt lat="43.515353680902976" lon="10.47437392003667"><ele>61.5</ele><time>2026-03-29T14:50:21.999Z</time></trkpt><trkpt lat="43.51560822271123" lon="10.474310389268306"><ele>61.0</ele><time>2026-03-29T14:50:22.999Z</time></trkpt><trkpt lat="43.51586107088623" lon="10.474238467462154"><ele>61.0</ele><time>2026-03-29T14:50:23.999Z</time></trkpt><trkpt lat="43.5161112837898" lon="10.474151243695424"><ele>61.0</ele><time>2026-03-29T14:50:24.999Z</time></trkpt><trkpt lat="43.51636009400543" lon="10.474054579093943"><ele>57.5</ele><time>2026-03-29T14:50:25.999Z</time></trkpt><trkpt lat="43.51660979332055" lon="10.473950540130474"><ele>54.0</ele><time>2026-03-29T14:50:26.999Z</time></trkpt><trkpt lat="43.51685771200583" lon="10.473847271123748"><ele>56.5</ele><time>2026-03-29T14:50:27.999Z</time></trkpt><trkpt lat="43.517106860037195" lon="10.473737478972204"><ele>59.0</ele><time>2026-03-29T14:50:28.999Z</time></trkpt><trkpt lat="43.517357355525455" lon="10.473622779849713"><ele>59.0</ele><time>2026-03-29T14:50:29.999Z</time></trkpt><trkpt lat="43.51760504506644" lon="10.473492000379773"><ele>59.0</ele><time>2026-03-29T14:50:30.999Z</time></trkpt><trkpt lat="43.51784706135272" lon="10.47335593027332"><ele>62.5</ele><time>2026-03-29T14:50:31.999Z</time></trkpt><trkpt lat="43.51808963114258" lon="10.473211932928546"><ele>66.0</ele><time>2026-03-29T14:50:32.999Z</time></trkpt><trkpt lat="43.518329816194914" lon="10.473062269498449"><ele>65.5</ele><time>2026-03-29T14:50:33.999Z</time></trkpt><trkpt lat="43.51856525316786" lon="10.472906986109408"><ele>65.0</ele><time>2026-03-29T14:50:34.999Z</time></trkpt><trkpt lat="43.518798551137856" lon="10.47274321465949"><ele>70.5</ele><time>2026-03-29T14:50:35.999Z</time></trkpt><trkpt lat="43.51903597132044" lon="10.472570750328755"><ele>76.0</ele><time>2026-03-29T14:50:36.999Z</time></trkpt><trkpt lat="43.51928363961174" lon="10.472379453673783"><ele>76.0</ele><time>2026-03-29T14:50:37.999Z</time></trkpt><trkpt lat="43.51953715136417" lon="10.472180780706793"><ele>76.0</ele><time>2026-03-29T14:50:39.016Z</time></trkpt><trkpt lat="43.519788644151305" lon="10.471985399700493"><ele>83.5</ele><time>2026-03-29T14:50:40.017Z</time></trkpt><trkpt lat="43.52003944062059" lon="10.471789578152995"><ele>91.0</ele><time>2026-03-29T14:50:41.016Z</time></trkpt><trkpt lat="43.520311144443475" lon="10.471567220158375"><ele>90.5</ele><time>2026-03-29T14:50:42.017Z</time></trkpt><trkpt lat="43.52055421052581" lon="10.471380543341484"><ele>90.0</ele><time>2026-03-29T14:50:43.016Z</time></trkpt><trkpt lat="43.52670642551363" lon="10.468549886728141"><ele>75.5</ele><time>2026-03-29T14:51:05.999Z</time></trkpt><trkpt lat="43.5269838530644" lon="10.468488538027254"><ele>61.0</ele><time>2026-03-29T14:51:06.999Z</time></trkpt><trkpt lat="43.527242277998496" lon="10.46842461156104"><ele>61.0</ele><time>2026-03-29T14:51:07.999Z</time></trkpt><trkpt lat="43.527523200726314" lon="10.468370638812917"><ele>61.0</ele><time>2026-03-29T14:51:08.999Z</time></trkpt><trkpt lat="43.52779893019827" lon="10.468319689006"><ele>58.5</ele><time>2026-03-29T14:51:09.999Z</time></trkpt><trkpt lat="43.52807914932558" lon="10.468271479399899"><ele>56.0</ele><time>2026-03-29T14:51:10.999Z</time></trkpt><trkpt lat="43.52835552103692" lon="10.468221349032921"><ele>56.0</ele><time>2026-03-29T14:51:11.999Z</time></trkpt><trkpt lat="43.528633288515124" lon="10.468172945758397"><ele>56.0</ele><time>2026-03-29T14:51:12.999Z</time></trkpt><trkpt lat="43.52891139394186" lon="10.468128060058817"><ele>54.5</ele><time>2026-03-29T14:51:13.999Z</time></trkpt><trkpt lat="43.529188866922205" lon="10.468083813596902"><ele>53.0</ele><time>2026-03-29T14:51:14.999Z</time></trkpt><trkpt lat="43.529462041635206" lon="10.468041760350845"><ele>52.5</ele><time>2026-03-29T14:51:16Z</time></trkpt><trkpt lat="43.52973827983699" lon="10.467995733689555"><ele>52.0</ele><time>2026-03-29T14:51:17Z</time></trkpt><trkpt lat="43.53001745804567" lon="10.467939171951054"><ele>52.0</ele><time>2026-03-29T14:51:18Z</time></trkpt><trkpt lat="43.53029345470589" lon="10.467879639124249"><ele>52.0</ele><time>2026-03-29T14:51:19Z</time></trkpt><trkpt lat="43.530568204788864" lon="10.467816268250747"><ele>52.5</ele><time>2026-03-29T14:51:20Z</time></trkpt><trkpt lat="43.53084374838254" lon="10.467744968044666"><ele>53.0</ele><time>2026-03-29T14:51:21Z</time></trkpt><trkpt lat="43.531118016475965" lon="10.467667128173208"><ele>52.0</ele><time>2026-03-29T14:51:22Z</time></trkpt><trkpt lat="43.53139379081674" lon="10.467583250124461"><ele>51.0</ele><time>2026-03-29T14:51:23Z</time></trkpt><trkpt lat="43.53166805978668" lon="10.467491172682667"><ele>51.0</ele><time>2026-03-29T14:51:24Z</time></trkpt><trkpt lat="43.531942655268104" lon="10.46739229236895"><ele>51.0</ele><time>2026-03-29T14:51:25Z</time></trkpt><trkpt lat="43.53222142670058" lon="10.467293174277247"><ele>51.0</ele><time>2026-03-29T14:51:26Z</time></trkpt><trkpt lat="43.53249826828461" lon="10.467188045737608"><ele>51.0</ele><time>2026-03-29T14:51:27Z</time></trkpt><trkpt lat="43.53277338670944" lon="10.467078495496382"><ele>48.0</ele><time>2026-03-29T14:51:28Z</time></trkpt><trkpt lat="43.533033971086184" lon="10.466978158578053"><ele>45.0</ele><time>2026-03-29T14:51:29Z</time></trkpt><trkpt lat="43.53327690926823" lon="10.46688221128099"><ele>45.0</ele><time>2026-03-29T14:51:30Z</time></trkpt><trkpt lat="43.5335176952433" lon="10.466787259626436"><ele>45.0</ele><time>2026-03-29T14:51:31Z</time></trkpt><trkpt lat="43.53376218722943" lon="10.46669341927373"><ele>46.0</ele><time>2026-03-29T14:51:32Z</time></trkpt><trkpt lat="43.5340109734063" lon="10.466602660247725"><ele>47.0</ele><time>2026-03-29T14:51:33Z</time></trkpt><trkpt lat="43.53426704127551" lon="10.466514400177946"><ele>47.0</ele><time>2026-03-29T14:51:34Z</time></trkpt><trkpt lat="43.534523875724005" lon="10.466430012212486"><ele>47.0</ele><time>2026-03-29T14:51:35Z</time></trkpt><trkpt lat="43.53478450848128" lon="10.46634741610639"><ele>45.5</ele><time>2026-03-29T14:51:36Z</time></trkpt><trkpt lat="43.53504684346518" lon="10.466271271628202"><ele>44.0</ele><time>2026-03-29T14:51:37Z</time></trkpt><trkpt lat="43.53531091996075" lon="10.466209796654645"><ele>41.5</ele><time>2026-03-29T14:51:38Z</time></trkpt><trkpt lat="43.5355757072658" lon="10.466159066165218"><ele>39.0</ele><time>2026-03-29T14:51:39Z</time></trkpt><trkpt lat="43.53584038384291" lon="10.466117088035132"><ele>39.0</ele><time>2026-03-29T14:51:40Z</time></trkpt><trkpt lat="43.53610134058001" lon="10.466082578150168"><ele>39.0</ele><time>2026-03-29T14:51:41Z</time></trkpt><trkpt lat="43.53635664456862" lon="10.466062682085196"><ele>39.5</ele><time>2026-03-29T14:51:42Z</time></trkpt><trkpt lat="43.53661637656415" lon="10.466056028919304"><ele>40.0</ele><time>2026-03-29T14:51:43Z</time></trkpt><trkpt lat="43.53687639330003" lon="10.466061161912458"><ele>39.0</ele><time>2026-03-29T14:51:44Z</time></trkpt><trkpt lat="43.537134411452534" lon="10.466073752943371"><ele>38.0</ele><time>2026-03-29T14:51:45Z</time></trkpt><trkpt lat="43.53739723672778" lon="10.466094875689803"><ele>38.0</ele><time>2026-03-29T14:51:46Z</time></trkpt><trkpt lat="43.537654361711326" lon="10.466123676714407"><ele>38.0</ele><time>2026-03-29T14:51:47Z</time></trkpt><trkpt lat="43.53790826358738" lon="10.466162130531197"><ele>38.0</ele><time>2026-03-29T14:51:48Z</time></trkpt><trkpt lat="43.538159451409264" lon="10.466212344160052"><ele>38.0</ele><time>2026-03-29T14:51:49Z</time></trkpt><trkpt lat="43.53840827772963" lon="10.466274377677713"><ele>38.5</ele><time>2026-03-29T14:51:50Z</time></trkpt><trkpt lat="43.53865481251114" lon="10.466345803360415"><ele>39.0</ele><time>2026-03-29T14:51:51Z</time></trkpt><trkpt lat="43.53890084376927" lon="10.466427724834357"><ele>42.0</ele><time>2026-03-29T14:51:52Z</time></trkpt><trkpt lat="43.53914856574258" lon="10.466517858292661"><ele>45.0</ele><time>2026-03-29T14:51:53Z</time></trkpt><trkpt lat="43.53939745254213" lon="10.46662190699201"><ele>43.5</ele><time>2026-03-29T14:51:54Z</time></trkpt><trkpt lat="43.5396488828551" lon="10.466738587829303"><ele>42.0</ele><time>2026-03-29T14:51:55Z</time></trkpt><trkpt lat="43.53989888962817" lon="10.46686680651738"><ele>42.0</ele><time>2026-03-29T14:51:56Z</time></trkpt><trkpt lat="43.5401394759341" lon="10.46700186164259"><ele>42.0</ele><time>2026-03-29T14:51:57Z</time></trkpt><trkpt lat="43.54040046182161" lon="10.467148552536838"><ele>41.5</ele><time>2026-03-29T14:51:58Z</time></trkpt><trkpt lat="43.54064362549973" lon="10.467303150049954"><ele>41.0</ele><time>2026-03-29T14:51:59Z</time></trkpt><trkpt lat="43.54088481165273" lon="10.467470826774491"><ele>41.0</ele><time>2026-03-29T14:52:00Z</time></trkpt><trkpt lat="43.54112664796648" lon="10.467649373820636"><ele>41.0</ele><time>2026-03-29T14:52:01Z</time></trkpt><trkpt lat="43.54136555662594" lon="10.467828450540143"><ele>43.0</ele><time>2026-03-29T14:52:02Z</time></trkpt><trkpt lat="43.54160596869185" lon="10.468009339287061"><ele>45.0</ele><time>2026-03-29T14:52:03Z</time></trkpt><trkpt lat="43.5418428737848" lon="10.468188711887128"><ele>43.0</ele><time>2026-03-29T14:52:04Z</time></trkpt><trkpt lat="43.542079151790226" lon="10.468374370523852"><ele>41.0</ele><time>2026-03-29T14:52:05Z</time></trkpt><trkpt lat="43.542312459208" lon="10.468560571712738"><ele>41.0</ele><time>2026-03-29T14:52:06Z</time></trkpt><trkpt lat="43.54254868838892" lon="10.468746572394156"><ele>41.0</ele><time>2026-03-29T14:52:07Z</time></trkpt><trkpt lat="43.542786184509886" lon="10.468929121797231"><ele>41.5</ele><time>2026-03-29T14:52:08Z</time></trkpt><trkpt lat="43.54302322399513" lon="10.469107908192356"><ele>42.0</ele><time>2026-03-29T14:52:09Z</time></trkpt><trkpt lat="43.54326170440776" lon="10.469286175868513"><ele>42.0</ele><time>2026-03-29T14:52:10Z</time></trkpt><trkpt lat="43.543496035987914" lon="10.469460512031612"><ele>42.0</ele><time>2026-03-29T14:52:11Z</time></trkpt><trkpt lat="43.543729678773246" lon="10.469635020952317"><ele>40.5</ele><time>2026-03-29T14:52:12Z</time></trkpt><trkpt lat="43.54396390883786" lon="10.46980975748311"><ele>39.0</ele><time>2026-03-29T14:52:13Z</time></trkpt><trkpt lat="43.544201092294465" lon="10.469984192151673"><ele>39.0</ele><time>2026-03-29T14:52:14Z</time></trkpt><trkpt lat="43.54444060936689" lon="10.470152564743197"><ele>39.0</ele><time>2026-03-29T14:52:15Z</time></trkpt><trkpt lat="43.544683323119635" lon="10.47032174195184"><ele>37.5</ele><time>2026-03-29T14:52:16Z</time></trkpt><trkpt lat="43.54492261844871" lon="10.470480344629577"><ele>36.0</ele><time>2026-03-29T14:52:17Z</time></trkpt><trkpt lat="43.5451646442884" lon="10.470635061973288"><ele>34.0</ele><time>2026-03-29T14:52:18Z</time></trkpt><trkpt lat="43.545406887345884" lon="10.470785554829073"><ele>32.0</ele><time>2026-03-29T14:52:19Z</time></trkpt><trkpt lat="43.54565066503807" lon="10.470932816653256"><ele>32.0</ele><time>2026-03-29T14:52:20Z</time></trkpt><trkpt lat="43.54589367110256" lon="10.471075904702827"><ele>32.0</ele><time>2026-03-29T14:52:21Z</time></trkpt><trkpt lat="43.54613635511513" lon="10.471215639992238"><ele>33.0</ele><time>2026-03-29T14:52:22Z</time></trkpt><trkpt lat="43.54638193159555" lon="10.471349775464203"><ele>34.0</ele><time>2026-03-29T14:52:23Z</time></trkpt><trkpt lat="43.546627826799956" lon="10.471481564848254"><ele>34.0</ele><time>2026-03-29T14:52:24Z</time></trkpt><trkpt lat="43.54687438342652" lon="10.471608831565048"><ele>34.0</ele><time>2026-03-29T14:52:25Z</time></trkpt><trkpt lat="43.54711912895768" lon="10.47172843202144"><ele>33.0</ele><time>2026-03-29T14:52:26Z</time></trkpt><trkpt lat="43.54736682282464" lon="10.471853419838542"><ele>32.0</ele><time>2026-03-29T14:52:27Z</time></trkpt><trkpt lat="43.5476143366492" lon="10.471968333377587"><ele>32.0</ele><time>2026-03-29T14:52:28Z</time></trkpt><trkpt lat="43.547862317947896" lon="10.472084771626024"><ele>32.0</ele><time>2026-03-29T14:52:29Z</time></trkpt><trkpt lat="43.548110232585884" lon="10.47220033344945"><ele>32.0</ele><time>2026-03-29T14:52:30Z</time></trkpt><trkpt lat="43.54836487030504" lon="10.47231717766001"><ele>32.0</ele><time>2026-03-29T14:52:31Z</time></trkpt><trkpt lat="43.548619396658424" lon="10.472430905656642"><ele>31.0</ele><time>2026-03-29T14:52:32Z</time></trkpt><trkpt lat="43.54887743046582" lon="10.472546185501733"><ele>30.0</ele><time>2026-03-29T14:52:33Z</time></trkpt><trkpt lat="43.5491335598962" lon="10.47265825730707"><ele>30.0</ele><time>2026-03-29T14:52:33.999Z</time></trkpt><trkpt lat="43.54939066235566" lon="10.47277066559211"><ele>30.0</ele><time>2026-03-29T14:52:34.999Z</time></trkpt><trkpt lat="43.54964690906592" lon="10.472886201658282"><ele>29.0</ele><time>2026-03-29T14:52:35.999Z</time></trkpt><trkpt lat="43.54990700734455" lon="10.473001069647255"><ele>28.0</ele><time>2026-03-29T14:52:36.999Z</time></trkpt><trkpt lat="43.550164261156866" lon="10.473108511791212"><ele>27.5</ele><time>2026-03-29T14:52:37.999Z</time></trkpt><trkpt lat="43.55042510274454" lon="10.47322225337402"><ele>27.0</ele><time>2026-03-29T14:52:38.999Z</time></trkpt><trkpt lat="43.550682016620556" lon="10.473328015217445"><ele>27.0</ele><time>2026-03-29T14:52:39.999Z</time></trkpt><trkpt lat="43.55094017965189" lon="10.473436421707783"><ele>27.0</ele><time>2026-03-29T14:52:40.999Z</time></trkpt><trkpt lat="43.55119866944603" lon="10.473545563930372"><ele>27.5</ele><time>2026-03-29T14:52:41.999Z</time></trkpt><trkpt lat="43.551457382514755" lon="10.473648088272617"><ele>28.0</ele><time>2026-03-29T14:52:42.999Z</time></trkpt><trkpt lat="43.55171975769708" lon="10.473749339380332"><ele>26.5</ele><time>2026-03-29T14:52:43.999Z</time></trkpt><trkpt lat="43.55198661355808" lon="10.473854888848711"><ele>25.0</ele><time>2026-03-29T14:52:44.999Z</time></trkpt><trkpt lat="43.552252253336626" lon="10.4739569894972"><ele>25.0</ele><time>2026-03-29T14:52:45.999Z</time></trkpt><trkpt lat="43.55251689703881" lon="10.474058139934586"><ele>25.0</ele><time>2026-03-29T14:52:46.999Z</time></trkpt><trkpt lat="43.55278369154854" lon="10.47416067717691"><ele>26.5</ele><time>2026-03-29T14:52:47.999Z</time></trkpt><trkpt lat="43.55305074555121" lon="10.474262013072295"><ele>28.0</ele><time>2026-03-29T14:52:48.999Z</time></trkpt><trkpt lat="43.553316774655194" lon="10.47436193282203"><ele>28.0</ele><time>2026-03-29T14:52:49.999Z</time></trkpt><trkpt lat="43.55358114582363" lon="10.474459544988223"><ele>28.0</ele><time>2026-03-29T14:52:50.999Z</time></trkpt><trkpt lat="43.55384743096898" lon="10.474559634479437"><ele>26.5</ele><time>2026-03-29T14:52:51.999Z</time></trkpt><trkpt lat="43.554112885001786" lon="10.474658609450078"><ele>25.0</ele><time>2026-03-29T14:52:52.999Z</time></trkpt><trkpt lat="43.55438196288083" lon="10.474755296982208"><ele>25.0</ele><time>2026-03-29T14:52:53.999Z</time></trkpt><trkpt lat="43.55465125544421" lon="10.474847303328067"><ele>25.0</ele><time>2026-03-29T14:52:54.999Z</time></trkpt><trkpt lat="43.5549221132256" lon="10.4749319780352"><ele>25.0</ele><time>2026-03-29T14:52:55.999Z</time></trkpt><trkpt lat="43.5551938611157" lon="10.475016505393366"><ele>25.0</ele><time>2026-03-29T14:52:56.999Z</time></trkpt><trkpt lat="43.555468825032584" lon="10.475099395664351"><ele>27.0</ele><time>2026-03-29T14:52:57.999Z</time></trkpt><trkpt lat="43.55574232198899" lon="10.475183294605571"><ele>29.0</ele><time>2026-03-29T14:52:58.999Z</time></trkpt><trkpt lat="43.55601950831391" lon="10.475268183824708"><ele>28.0</ele><time>2026-03-29T14:52:59.999Z</time></trkpt><trkpt lat="43.5563007058458" lon="10.47535968195646"><ele>27.0</ele><time>2026-03-29T14:53:00.999Z</time></trkpt><trkpt lat="43.55659990324159" lon="10.475455488906194"><ele>27.0</ele><time>2026-03-29T14:53:01.999Z</time></trkpt><trkpt lat="43.55690732075384" lon="10.47555641578672"><ele>27.0</ele><time>2026-03-29T14:53:02.999Z</time></trkpt><trkpt lat="43.55721970733893" lon="10.475662381105517"><ele>29.5</ele><time>2026-03-29T14:53:03.999Z</time></trkpt><trkpt lat="43.55754243128973" lon="10.475769384132343"><ele>32.0</ele><time>2026-03-29T14:53:04.999Z</time></trkpt><trkpt lat="43.55785379332156" lon="10.475867452596658"><ele>32.0</ele><time>2026-03-29T14:53:05.999Z</time></trkpt><trkpt lat="43.55816032891767" lon="10.47596329582646"><ele>32.0</ele><time>2026-03-29T14:53:06.999Z</time></trkpt><trkpt lat="43.558465685817296" lon="10.476059856801959"><ele>33.5</ele><time>2026-03-29T14:53:07.999Z</time></trkpt><trkpt lat="43.55876555054429" lon="10.476155331729638"><ele>35.0</ele><time>2026-03-29T14:53:08.999Z</time></trkpt><trkpt lat="43.55905327242575" lon="10.476253635111124"><ele>29.5</ele><time>2026-03-29T14:53:09.999Z</time></trkpt><trkpt lat="43.55936351037974" lon="10.476299402798665"><ele>24.0</ele><time>2026-03-29T14:53:10.999Z</time></trkpt><trkpt lat="43.559672950783025" lon="10.47633781384164"><ele>23.5</ele><time>2026-03-29T14:53:11.999Z</time></trkpt><trkpt lat="43.55985092323657" lon="10.476309875228287"><ele>23.0</ele><time>2026-03-29T14:53:12.999Z</time></trkpt><trkpt lat="43.56012709262538" lon="10.476318442430124"><ele>22.0</ele><time>2026-03-29T14:53:13.999Z</time></trkpt><trkpt lat="43.56039597608218" lon="10.476306018703156"><ele>21.0</ele><time>2026-03-29T14:53:14.999Z</time></trkpt><trkpt lat="43.56067824241945" lon="10.476293171867116"><ele>21.0</ele><time>2026-03-29T14:53:15.999Z</time></trkpt><trkpt lat="43.56095500692616" lon="10.476276167656936"><ele>21.0</ele><time>2026-03-29T14:53:16.999Z</time></trkpt><trkpt lat="43.561237464980856" lon="10.476249664954134"><ele>21.5</ele><time>2026-03-29T14:53:17.999Z</time></trkpt><trkpt lat="43.561517910427305" lon="10.476206178420519"><ele>22.0</ele><time>2026-03-29T14:53:18.999Z</time></trkpt><trkpt lat="43.56179691573933" lon="10.476140272538988"><ele>21.0</ele><time>2026-03-29T14:53:19.999Z</time></trkpt><trkpt lat="43.562071864116355" lon="10.476074888671487"><ele>20.0</ele><time>2026-03-29T14:53:20.999Z</time></trkpt><trkpt lat="43.56234730942334" lon="10.476004132968649"><ele>20.0</ele><time>2026-03-29T14:53:22Z</time></trkpt><trkpt lat="43.562617782430785" lon="10.475922968721333"><ele>20.0</ele><time>2026-03-29T14:53:23Z</time></trkpt><trkpt lat="43.56288919350047" lon="10.475829750420509"><ele>20.5</ele><time>2026-03-29T14:53:24Z</time></trkpt><trkpt lat="43.56315676044465" lon="10.475725877408717"><ele>21.0</ele><time>2026-03-29T14:53:25Z</time></trkpt><trkpt lat="43.5634195138509" lon="10.475613390463012"><ele>21.0</ele><time>2026-03-29T14:53:26Z</time></trkpt><trkpt lat="43.56368232319682" lon="10.47549225608552"><ele>21.0</ele><time>2026-03-29T14:53:27Z</time></trkpt><trkpt lat="43.56393865264011" lon="10.4753560883247"><ele>21.0</ele><time>2026-03-29T14:53:28Z</time></trkpt><trkpt lat="43.56419958013956" lon="10.475217409094626"><ele>21.0</ele><time>2026-03-29T14:53:29Z</time></trkpt><trkpt lat="43.564454602272214" lon="10.475068194420164"><ele>20.5</ele><time>2026-03-29T14:53:30Z</time></trkpt><trkpt lat="43.56470500327298" lon="10.474908903200747"><ele>20.0</ele><time>2026-03-29T14:53:31Z</time></trkpt><trkpt lat="43.56495283331407" lon="10.47474028437206"><ele>20.0</ele><time>2026-03-29T14:53:32Z</time></trkpt><trkpt lat="43.56519602687169" lon="10.474563293908423"><ele>20.0</ele><time>2026-03-29T14:53:33Z</time></trkpt><trkpt lat="43.56543802297232" lon="10.474383490105271"><ele>20.0</ele><time>2026-03-29T14:53:34Z</time></trkpt><trkpt lat="43.56568094678682" lon="10.474197833933946"><ele>20.0</ele><time>2026-03-29T14:53:35Z</time></trkpt><trkpt lat="43.5659165900661" lon="10.474006356263878"><ele>20.0</ele><time>2026-03-29T14:53:36Z</time></trkpt><trkpt lat="43.56615007226298" lon="10.473810077282351"><ele>20.0</ele><time>2026-03-29T14:53:37Z</time></trkpt><trkpt lat="43.56637672877618" lon="10.473606279799789"><ele>20.0</ele><time>2026-03-29T14:53:38Z</time></trkpt><trkpt lat="43.56660479372532" lon="10.473394774560756"><ele>20.0</ele><time>2026-03-29T14:53:39Z</time></trkpt><trkpt lat="43.56683657553116" lon="10.473185053943418"><ele>19.5</ele><time>2026-03-29T14:53:40Z</time></trkpt><trkpt lat="43.56706594835252" lon="10.472977247770597"><ele>19.0</ele><time>2026-03-29T14:53:41Z</time></trkpt><trkpt lat="43.56729574879492" lon="10.472767770411128"><ele>18.5</ele><time>2026-03-29T14:53:42Z</time></trkpt><trkpt lat="43.56752725953664" lon="10.472554542796802"><ele>18.0</ele><time>2026-03-29T14:53:43Z</time></trkpt><trkpt lat="43.56775792145774" lon="10.472343534569502"><ele>18.0</ele><time>2026-03-29T14:53:44Z</time></trkpt><trkpt lat="43.567989277870915" lon="10.472130770709096"><ele>18.0</ele><time>2026-03-29T14:53:45Z</time></trkpt><trkpt lat="43.5682208259219" lon="10.471919158001052"><ele>17.5</ele><time>2026-03-29T14:53:46Z</time></trkpt><trkpt lat="43.568453088548345" lon="10.471704845786753"><ele>17.0</ele><time>2026-03-29T14:53:47Z</time></trkpt><trkpt lat="43.5686906012861" lon="10.471493027973281"><ele>17.5</ele><time>2026-03-29T14:53:48Z</time></trkpt><trkpt lat="43.5689306381913" lon="10.471285918171764"><ele>18.0</ele><time>2026-03-29T14:53:49Z</time></trkpt><trkpt lat="43.56916964591365" lon="10.471082755660289"><ele>18.0</ele><time>2026-03-29T14:53:50Z</time></trkpt><trkpt lat="43.56941128828126" lon="10.470882803214344"><ele>18.0</ele><time>2026-03-29T14:53:51Z</time></trkpt><trkpt lat="43.56965837344694" lon="10.470688513986223"><ele>18.0</ele><time>2026-03-29T14:53:52Z</time></trkpt><trkpt lat="43.569912382354964" lon="10.470510918572886"><ele>18.0</ele><time>2026-03-29T14:53:53Z</time></trkpt><trkpt lat="43.57016269848346" lon="10.470313739467116"><ele>18.0</ele><time>2026-03-29T14:53:54Z</time></trkpt><trkpt lat="43.570412421700425" lon="10.470134713344624"><ele>18.0</ele><time>2026-03-29T14:53:55Z</time></trkpt><trkpt lat="43.570667409595316" lon="10.46996301887218"><ele>18.0</ele><time>2026-03-29T14:53:56Z</time></trkpt><trkpt lat="43.57092422056074" lon="10.469799503759047"><ele>18.0</ele><time>2026-03-29T14:53:57Z</time></trkpt><trkpt lat="43.57118345642074" lon="10.469637774595727"><ele>18.0</ele><time>2026-03-29T14:53:58Z</time></trkpt><trkpt lat="43.571449132223" lon="10.469479608432573"><ele>18.0</ele><time>2026-03-29T14:53:59Z</time></trkpt><trkpt lat="43.57171512564009" lon="10.469328861931311"><ele>18.0</ele><time>2026-03-29T14:54:00Z</time></trkpt><trkpt lat="43.571983718184164" lon="10.469180820312676"><ele>18.0</ele><time>2026-03-29T14:54:01Z</time></trkpt><trkpt lat="43.572253604965894" lon="10.469036939452117"><ele>18.0</ele><time>2026-03-29T14:54:02Z</time></trkpt><trkpt lat="43.57252633464668" lon="10.468903484464914"><ele>18.0</ele><time>2026-03-29T14:54:03Z</time></trkpt><trkpt lat="43.57279949350248" lon="10.468773159572988"><ele>17.0</ele><time>2026-03-29T14:54:04Z</time></trkpt><trkpt lat="43.573069528576404" lon="10.468638961717287"><ele>16.0</ele><time>2026-03-29T14:54:05Z</time></trkpt><trkpt lat="43.573339092310256" lon="10.468504851035123"><ele>16.0</ele><time>2026-03-29T14:54:06Z</time></trkpt><trkpt lat="43.573609181024686" lon="10.46837197345524"><ele>16.0</ele><time>2026-03-29T14:54:07Z</time></trkpt><trkpt lat="43.573875672232084" lon="10.468242418514581"><ele>16.0</ele><time>2026-03-29T14:54:08Z</time></trkpt><trkpt lat="43.57414616440684" lon="10.46811485308481"><ele>16.0</ele><time>2026-03-29T14:54:09Z</time></trkpt><trkpt lat="43.574412019384745" lon="10.46798265588876"><ele>17.5</ele><time>2026-03-29T14:54:10Z</time></trkpt><trkpt lat="43.57468109966395" lon="10.467849522169095"><ele>19.0</ele><time>2026-03-29T14:54:11Z</time></trkpt><trkpt lat="43.574953270357085" lon="10.46771927424142"><ele>19.0</ele><time>2026-03-29T14:54:12Z</time></trkpt><trkpt lat="43.57522533364696" lon="10.467586488009493"><ele>19.0</ele><time>2026-03-29T14:54:13Z</time></trkpt><trkpt lat="43.57549476922546" lon="10.46745096852837"><ele>18.0</ele><time>2026-03-29T14:54:14Z</time></trkpt><trkpt lat="43.5757622400359" lon="10.467308604639985"><ele>17.0</ele><time>2026-03-29T14:54:15Z</time></trkpt><trkpt lat="43.57603228561001" lon="10.467166649426046"><ele>20.0</ele><time>2026-03-29T14:54:16Z</time></trkpt><trkpt lat="43.57630246731688" lon="10.467021780688103"><ele>23.0</ele><time>2026-03-29T14:54:17Z</time></trkpt><trkpt lat="43.5765714899146" lon="10.466877166757383"><ele>23.0</ele><time>2026-03-29T14:54:18Z</time></trkpt><trkpt lat="43.57684045199167" lon="10.466731976400492"><ele>23.0</ele><time>2026-03-29T14:54:19Z</time></trkpt><trkpt lat="43.577113454687606" lon="10.466578883740462"><ele>24.0</ele><time>2026-03-29T14:54:20Z</time></trkpt><trkpt lat="43.57738221646585" lon="10.46641430254319"><ele>25.0</ele><time>2026-03-29T14:54:21Z</time></trkpt><trkpt lat="43.57765056774289" lon="10.466241580960391"><ele>20.0</ele><time>2026-03-29T14:54:22Z</time></trkpt><trkpt lat="43.57792127017617" lon="10.466061431835335"><ele>15.0</ele><time>2026-03-29T14:54:23Z</time></trkpt><trkpt lat="43.578188654912616" lon="10.465876928659323"><ele>15.0</ele><time>2026-03-29T14:54:24Z</time></trkpt><trkpt lat="43.57845968850928" lon="10.465688452388257"><ele>15.0</ele><time>2026-03-29T14:54:25Z</time></trkpt><trkpt lat="43.57872777536926" lon="10.46549844078473"><ele>17.5</ele><time>2026-03-29T14:54:26Z</time></trkpt><trkpt lat="43.578999643749945" lon="10.465305743422292"><ele>20.0</ele><time>2026-03-29T14:54:27Z</time></trkpt><trkpt lat="43.579267949831426" lon="10.465108521454605"><ele>17.5</ele><time>2026-03-29T14:54:28Z</time></trkpt><trkpt lat="43.57953306154862" lon="10.464904704001066"><ele>15.0</ele><time>2026-03-29T14:54:29Z</time></trkpt><trkpt lat="43.57979972270839" lon="10.464694560352434"><ele>18.5</ele><time>2026-03-29T14:54:30Z</time></trkpt><trkpt lat="43.58006304980676" lon="10.464478322991043"><ele>22.0</ele><time>2026-03-29T14:54:31Z</time></trkpt><trkpt lat="43.58032540313572" lon="10.464255916116137"><ele>18.5</ele><time>2026-03-29T14:54:32Z</time></trkpt><trkpt lat="43.58058488434032" lon="10.464029704359339"><ele>15.0</ele><time>2026-03-29T14:54:33Z</time></trkpt><trkpt lat="43.58084238098069" lon="10.463798061952867"><ele>17.5</ele><time>2026-03-29T14:54:34Z</time></trkpt><trkpt lat="43.58109128764594" lon="10.463569404324971"><ele>20.0</ele><time>2026-03-29T14:54:35Z</time></trkpt><trkpt lat="43.5813326126381" lon="10.463354645979686"><ele>20.0</ele><time>2026-03-29T14:54:36Z</time></trkpt><trkpt lat="43.581570380648806" lon="10.463135726629364"><ele>20.0</ele><time>2026-03-29T14:54:36.999Z</time></trkpt><trkpt lat="43.58180414921841" lon="10.462915270858463"><ele>29.0</ele><time>2026-03-29T14:54:37.999Z</time></trkpt><trkpt lat="43.58203744464419" lon="10.462687987742749"><ele>38.0</ele><time>2026-03-29T14:54:38.999Z</time></trkpt><trkpt lat="43.58226862664201" lon="10.462454714455767"><ele>38.0</ele><time>2026-03-29T14:54:39.999Z</time></trkpt><trkpt lat="43.582504837575165" lon="10.462213927655453"><ele>38.0</ele><time>2026-03-29T14:54:41.02Z</time></trkpt><trkpt lat="43.5827190878103" lon="10.461992149343239"><ele>41.0</ele><time>2026-03-29T14:54:42.015Z</time></trkpt><trkpt lat="43.582945983786935" lon="10.461762354704875"><ele>44.0</ele><time>2026-03-29T14:54:43.025Z</time></trkpt><trkpt lat="43.583126045838284" lon="10.461573235015742"><ele>17.0</ele><time>2026-03-29T14:54:44.017Z</time></trkpt><trkpt lat="43.58503730506039" lon="10.459461640576329"><ele>17.0</ele><time>2026-03-29T14:54:51.999Z</time></trkpt><trkpt lat="43.58525826361087" lon="10.459215284806444"><ele>17.0</ele><time>2026-03-29T14:54:52.999Z</time></trkpt><trkpt lat="43.58549440938968" lon="10.458960984888108"><ele>15.0</ele><time>2026-03-29T14:54:53.999Z</time></trkpt><trkpt lat="43.585712911821666" lon="10.458715416074345"><ele>13.0</ele><time>2026-03-29T14:54:54.999Z</time></trkpt><trkpt lat="43.58593588393082" lon="10.458473963125176"><ele>13.0</ele><time>2026-03-29T14:54:55.999Z</time></trkpt><trkpt lat="43.5861573940972" lon="10.458228367376563"><ele>13.0</ele><time>2026-03-29T14:54:56.999Z</time></trkpt><trkpt lat="43.58638233792527" lon="10.457990398392372"><ele>12.5</ele><time>2026-03-29T14:54:57.999Z</time></trkpt><trkpt lat="43.58660569224848" lon="10.457757011840696"><ele>12.0</ele><time>2026-03-29T14:54:58.999Z</time></trkpt><trkpt lat="43.58683267862646" lon="10.457527691858397"><ele>12.5</ele><time>2026-03-29T14:54:59.999Z</time></trkpt><trkpt lat="43.58706047534518" lon="10.457303044044071"><ele>13.0</ele><time>2026-03-29T14:55:00.999Z</time></trkpt><trkpt lat="43.58728990086012" lon="10.457080973324757"><ele>11.5</ele><time>2026-03-29T14:55:01.999Z</time></trkpt><trkpt lat="43.5875223680346" lon="10.456865114924835"><ele>10.0</ele><time>2026-03-29T14:55:02.999Z</time></trkpt><trkpt lat="43.5877555158142" lon="10.456653469271979"><ele>10.5</ele><time>2026-03-29T14:55:03.999Z</time></trkpt><trkpt lat="43.58799118326978" lon="10.45644828213329"><ele>11.0</ele><time>2026-03-29T14:55:04.999Z</time></trkpt><trkpt lat="43.58823031860157" lon="10.456247353275671"><ele>11.0</ele><time>2026-03-29T14:55:05.999Z</time></trkpt><trkpt lat="43.58847170143072" lon="10.456055759469395"><ele>11.0</ele><time>2026-03-29T14:55:06.999Z</time></trkpt><trkpt lat="43.58871837006472" lon="10.45586678779162"><ele>11.0</ele><time>2026-03-29T14:55:07.999Z</time></trkpt><trkpt lat="43.588964351802794" lon="10.455679614587014"><ele>11.0</ele><time>2026-03-29T14:55:08.999Z</time></trkpt><trkpt lat="43.58920908737567" lon="10.455495940846632"><ele>10.5</ele><time>2026-03-29T14:55:09.999Z</time></trkpt><trkpt lat="43.58945281548353" lon="10.455315955864652"><ele>10.0</ele><time>2026-03-29T14:55:10.999Z</time></trkpt><trkpt lat="43.58969560426075" lon="10.455140534974806"><ele>10.0</ele><time>2026-03-29T14:55:11.999Z</time></trkpt><trkpt lat="43.58994005805407" lon="10.454970473895536"><ele>10.0</ele><time>2026-03-29T14:55:12.999Z</time></trkpt><trkpt lat="43.59018678848927" lon="10.454804673849047"><ele>10.0</ele><time>2026-03-29T14:55:13.999Z</time></trkpt><trkpt lat="43.59043238688131" lon="10.45464071212216"><ele>10.0</ele><time>2026-03-29T14:55:14.999Z</time></trkpt><trkpt lat="43.590677856087645" lon="10.45447599123683"><ele>10.0</ele><time>2026-03-29T14:55:15.999Z</time></trkpt><trkpt lat="43.59092931084005" lon="10.454311145695714"><ele>10.0</ele><time>2026-03-29T14:55:16.999Z</time></trkpt><trkpt lat="43.59118168475932" lon="10.454151351276911"><ele>9.0</ele><time>2026-03-29T14:55:17.999Z</time></trkpt><trkpt lat="43.5914350874642" lon="10.45399677055459"><ele>8.0</ele><time>2026-03-29T14:55:18.999Z</time></trkpt><trkpt lat="43.59169317042359" lon="10.453840472279353"><ele>7.5</ele><time>2026-03-29T14:55:19.999Z</time></trkpt><trkpt lat="43.59195423758217" lon="10.453688251234244"><ele>7.0</ele><time>2026-03-29T14:55:20.999Z</time></trkpt><trkpt lat="43.59221835275262" lon="10.453540320005576"><ele>7.0</ele><time>2026-03-29T14:55:21.999Z</time></trkpt><trkpt lat="43.59248456112202" lon="10.453398066539556"><ele>7.0</ele><time>2026-03-29T14:55:22.999Z</time></trkpt><trkpt lat="43.59275234147342" lon="10.453264259667073"><ele>7.0</ele><time>2026-03-29T14:55:23.999Z</time></trkpt><trkpt lat="43.59302164343739" lon="10.45313721946289"><ele>7.0</ele><time>2026-03-29T14:55:24.999Z</time></trkpt><trkpt lat="43.59328993523911" lon="10.453009803256387"><ele>7.5</ele><time>2026-03-29T14:55:25.999Z</time></trkpt><trkpt lat="43.59356002524531" lon="10.452877713207801"><ele>8.0</ele><time>2026-03-29T14:55:26.999Z</time></trkpt><trkpt lat="43.593824590849636" lon="10.452746611670497"><ele>8.0</ele><time>2026-03-29T14:55:28Z</time></trkpt><trkpt lat="43.59409067194492" lon="10.452611534463845"><ele>8.0</ele><time>2026-03-29T14:55:29Z</time></trkpt><trkpt lat="43.59435680909924" lon="10.452475948774534"><ele>8.0</ele><time>2026-03-29T14:55:30Z</time></trkpt><trkpt lat="43.59462131540086" lon="10.452336708617453"><ele>8.0</ele><time>2026-03-29T14:55:31Z</time></trkpt><trkpt lat="43.594884321682194" lon="10.452199303993943"><ele>7.5</ele><time>2026-03-29T14:55:32Z</time></trkpt><trkpt lat="43.595146038410256" lon="10.45206663544088"><ele>7.0</ele><time>2026-03-29T14:55:33Z</time></trkpt><trkpt lat="43.59541074948276" lon="10.451936870064637"><ele>7.0</ele><time>2026-03-29T14:55:34Z</time></trkpt><trkpt lat="43.595657803860185" lon="10.451811415740252"><ele>7.0</ele><time>2026-03-29T14:55:35Z</time></trkpt><trkpt lat="43.59588420410123" lon="10.451696840416208"><ele>7.0</ele><time>2026-03-29T14:55:36Z</time></trkpt><trkpt lat="43.596095854422686" lon="10.451589244146684"><ele>7.0</ele><time>2026-03-29T14:55:37Z</time></trkpt><trkpt lat="43.59629000947846" lon="10.451489061132705"><ele>7.0</ele><time>2026-03-29T14:55:38Z</time></trkpt><trkpt lat="43.59647199631412" lon="10.451395065956731"><ele>7.0</ele><time>2026-03-29T14:55:39Z</time></trkpt><trkpt lat="43.59664115381547" lon="10.45131116924407"><ele>7.0</ele><time>2026-03-29T14:55:40Z</time></trkpt><trkpt lat="43.59680914816234" lon="10.451226716113283"><ele>7.0</ele><time>2026-03-29T14:55:41Z</time></trkpt><trkpt lat="43.59697082042848" lon="10.451143649101509"><ele>6.666666666666667</ele><time>2026-03-29T14:55:42Z</time></trkpt><trkpt lat="43.59714261432189" lon="10.451048332069231"><ele>6.333333333333334</ele><time>2026-03-29T14:55:43Z</time></trkpt><trkpt lat="43.59732372671615" lon="10.450933934354762"><ele>6.0</ele><time>2026-03-29T14:55:44Z</time></trkpt><trkpt lat="43.597488342609886" lon="10.450836410556883"><ele>6.0</ele><time>2026-03-29T14:55:45Z</time></trkpt><trkpt lat="43.597664189025544" lon="10.45073587892826"><ele>6.0</ele><time>2026-03-29T14:55:46Z</time></trkpt><trkpt lat="43.597855406146145" lon="10.450644511054483"><ele>6.0</ele><time>2026-03-29T14:55:47Z</time></trkpt><trkpt lat="43.59804480074705" lon="10.45055489091321"><ele>6.333333333333334</ele><time>2026-03-29T14:55:48Z</time></trkpt><trkpt lat="43.598254926634674" lon="10.450456230211412"><ele>6.666666666666667</ele><time>2026-03-29T14:55:49Z</time></trkpt><trkpt lat="43.59846856853409" lon="10.450360400257349"><ele>7.0</ele><time>2026-03-29T14:55:50Z</time></trkpt><trkpt lat="43.598684466054955" lon="10.450262433921997"><ele>7.0</ele><time>2026-03-29T14:55:51Z</time></trkpt><trkpt lat="43.59890428221621" lon="10.450161796452644"><ele>7.0</ele><time>2026-03-29T14:55:52Z</time></trkpt><trkpt lat="43.59912505349378" lon="10.4500521916712"><ele>7.0</ele><time>2026-03-29T14:55:53Z</time></trkpt><trkpt lat="43.599347435469205" lon="10.44993760617927"><ele>7.0</ele><time>2026-03-29T14:55:54Z</time></trkpt><trkpt lat="43.599573977218135" lon="10.449822994602389"><ele>7.0</ele><time>2026-03-29T14:55:55Z</time></trkpt><trkpt lat="43.59980618426758" lon="10.449708090365121"><ele>7.0</ele><time>2026-03-29T14:55:56Z</time></trkpt><trkpt lat="43.60004272040258" lon="10.44958511217836"><ele>7.5</ele><time>2026-03-29T14:55:57Z</time></trkpt><trkpt lat="43.6002797950325" lon="10.44945758805853"><ele>8.0</ele><time>2026-03-29T14:55:58Z</time></trkpt><trkpt lat="43.60052232181588" lon="10.449333193209018"><ele>8.5</ele><time>2026-03-29T14:55:59Z</time></trkpt><trkpt lat="43.60077193852586" lon="10.44920951832999"><ele>9.0</ele><time>2026-03-29T14:56:00Z</time></trkpt><trkpt lat="43.60102585469282" lon="10.44908212578967"><ele>9.0</ele><time>2026-03-29T14:56:01Z</time></trkpt><trkpt lat="43.60128146649061" lon="10.448951905056402"><ele>9.0</ele><time>2026-03-29T14:56:02Z</time></trkpt><trkpt lat="43.6015190908917" lon="10.448817960003936"><ele>8.0</ele><time>2026-03-29T14:56:03Z</time></trkpt><trkpt lat="43.601749923498225" lon="10.44870645139144"><ele>7.0</ele><time>2026-03-29T14:56:04Z</time></trkpt><trkpt lat="43.601988082983546" lon="10.448583625906714"><ele>6.5</ele><time>2026-03-29T14:56:05Z</time></trkpt><trkpt lat="43.60222550817645" lon="10.448461329598715"><ele>6.0</ele><time>2026-03-29T14:56:06Z</time></trkpt><trkpt lat="43.602466297634834" lon="10.448336713175525"><ele>6.0</ele><time>2026-03-29T14:56:07Z</time></trkpt><trkpt lat="43.60270770646773" lon="10.448214694447277"><ele>6.0</ele><time>2026-03-29T14:56:08Z</time></trkpt><trkpt lat="43.60294715555005" lon="10.4480897228125"><ele>6.0</ele><time>2026-03-29T14:56:09Z</time></trkpt><trkpt lat="43.60318754938441" lon="10.44796461616191"><ele>6.0</ele><time>2026-03-29T14:56:10Z</time></trkpt><trkpt lat="43.60342704970324" lon="10.447837815058605"><ele>6.0</ele><time>2026-03-29T14:56:11Z</time></trkpt><trkpt lat="43.60366767238787" lon="10.447710470607552"><ele>6.0</ele><time>2026-03-29T14:56:12Z</time></trkpt><trkpt lat="43.60390997102377" lon="10.44758048197248"><ele>6.0</ele><time>2026-03-29T14:56:13Z</time></trkpt><trkpt lat="43.60415045220334" lon="10.447444339607292"><ele>6.0</ele><time>2026-03-29T14:56:14Z</time></trkpt><trkpt lat="43.60438960968663" lon="10.447309270795232"><ele>6.0</ele><time>2026-03-29T14:56:15Z</time></trkpt><trkpt lat="43.604629934907045" lon="10.447172586413197"><ele>6.0</ele><time>2026-03-29T14:56:16Z</time></trkpt><trkpt lat="43.604869359536025" lon="10.44703332693111"><ele>6.0</ele><time>2026-03-29T14:56:17Z</time></trkpt><trkpt lat="43.60510950705" lon="10.446892803931975"><ele>6.0</ele><time>2026-03-29T14:56:18Z</time></trkpt><trkpt lat="43.605347796167734" lon="10.446750337403518"><ele>6.5</ele><time>2026-03-29T14:56:19Z</time></trkpt><trkpt lat="43.60558326875704" lon="10.446604488567486"><ele>7.0</ele><time>2026-03-29T14:56:20Z</time></trkpt><trkpt lat="43.605822155767804" lon="10.446453744804266"><ele>7.0</ele><time>2026-03-29T14:56:21Z</time></trkpt><trkpt lat="43.60605757836236" lon="10.446302235332155"><ele>7.0</ele><time>2026-03-29T14:56:22Z</time></trkpt><trkpt lat="43.606292343669004" lon="10.446144652118015"><ele>6.0</ele><time>2026-03-29T14:56:23Z</time></trkpt><trkpt lat="43.60652768971374" lon="10.44598617562126"><ele>5.0</ele><time>2026-03-29T14:56:24Z</time></trkpt><trkpt lat="43.60676488700277" lon="10.445826310762897"><ele>4.5</ele><time>2026-03-29T14:56:25Z</time></trkpt><trkpt lat="43.60700423567642" lon="10.445663519314737"><ele>4.0</ele><time>2026-03-29T14:56:26Z</time></trkpt><trkpt lat="43.60724356516793" lon="10.44549518005468"><ele>4.5</ele><time>2026-03-29T14:56:27Z</time></trkpt><trkpt lat="43.6074818749876" lon="10.445321501527342"><ele>5.0</ele><time>2026-03-29T14:56:28Z</time></trkpt><trkpt lat="43.6077219639201" lon="10.445144356369495"><ele>4.5</ele><time>2026-03-29T14:56:29Z</time></trkpt><trkpt lat="43.607962477799205" lon="10.44496199575339"><ele>4.0</ele><time>2026-03-29T14:56:30Z</time></trkpt><trkpt lat="43.60820309312445" lon="10.444776079284782"><ele>4.0</ele><time>2026-03-29T14:56:31Z</time></trkpt><trkpt lat="43.60844503844071" lon="10.44458891080217"><ele>4.0</ele><time>2026-03-29T14:56:32Z</time></trkpt><trkpt lat="43.608682905466125" lon="10.444400037164323"><ele>5.0</ele><time>2026-03-29T14:56:33Z</time></trkpt><trkpt lat="43.6089191972947" lon="10.44420459107165"><ele>6.0</ele><time>2026-03-29T14:56:34Z</time></trkpt><trkpt lat="43.609156610530405" lon="10.44400581007215"><ele>6.0</ele><time>2026-03-29T14:56:35Z</time></trkpt><trkpt lat="43.60939348713849" lon="10.443805428056526"><ele>6.0</ele><time>2026-03-29T14:56:35.999Z</time></trkpt><trkpt lat="43.60962855494623" lon="10.443602445080595"><ele>5.5</ele><time>2026-03-29T14:56:36.999Z</time></trkpt><trkpt lat="43.60985805953838" lon="10.443397239652134"><ele>5.0</ele><time>2026-03-29T14:56:37.999Z</time></trkpt><trkpt lat="43.61009115514492" lon="10.443192714644047"><ele>5.0</ele><time>2026-03-29T14:56:38.999Z</time></trkpt><trkpt lat="43.61032099804064" lon="10.442983511225052"><ele>5.0</ele><time>2026-03-29T14:56:39.999Z</time></trkpt><trkpt lat="43.610548953667085" lon="10.4427724740485"><ele>4.5</ele><time>2026-03-29T14:56:40.999Z</time></trkpt><trkpt lat="43.610776701439" lon="10.44256049450855"><ele>4.0</ele><time>2026-03-29T14:56:41.999Z</time></trkpt><trkpt lat="43.61100377547861" lon="10.44234618989524"><ele>5.0</ele><time>2026-03-29T14:56:42.999Z</time></trkpt><trkpt lat="43.61122876457047" lon="10.442130215605955"><ele>6.0</ele><time>2026-03-29T14:56:43.999Z</time></trkpt><trkpt lat="43.61144997253724" lon="10.44190882771274"><ele>6.0</ele><time>2026-03-29T14:56:44.999Z</time></trkpt><trkpt lat="43.61167063700051" lon="10.441680552823172"><ele>6.0</ele><time>2026-03-29T14:56:45.999Z</time></trkpt><trkpt lat="43.611885773162975" lon="10.441450762073558"><ele>6.0</ele><time>2026-03-29T14:56:46.999Z</time></trkpt><trkpt lat="43.612101581680825" lon="10.441223783602403"><ele>6.0</ele><time>2026-03-29T14:56:47.999Z</time></trkpt><trkpt lat="43.612318201982816" lon="10.440999475191939"><ele>6.0</ele><time>2026-03-29T14:56:48.999Z</time></trkpt><trkpt lat="43.612535846977856" lon="10.440774173953518"><ele>6.0</ele><time>2026-03-29T14:56:49.999Z</time></trkpt><trkpt lat="43.61275057586169" lon="10.440543079522753"><ele>6.0</ele><time>2026-03-29T14:56:50.999Z</time></trkpt><trkpt lat="43.612959064509496" lon="10.440305344414918"><ele>6.0</ele><time>2026-03-29T14:56:51.999Z</time></trkpt><trkpt lat="43.613169231454364" lon="10.440065015237218"><ele>6.0</ele><time>2026-03-29T14:56:52.999Z</time></trkpt><trkpt lat="43.613381026808064" lon="10.439822279863858"><ele>6.0</ele><time>2026-03-29T14:56:53.999Z</time></trkpt><trkpt lat="43.613589241087915" lon="10.439576742873724"><ele>7.5</ele><time>2026-03-29T14:56:54.999Z</time></trkpt><trkpt lat="43.613793172009856" lon="10.439327872342856"><ele>9.0</ele><time>2026-03-29T14:56:55.999Z</time></trkpt><trkpt lat="43.61399820909083" lon="10.439079345754783"><ele>9.0</ele><time>2026-03-29T14:56:56.999Z</time></trkpt><trkpt lat="43.61420489911493" lon="10.438832111240599"><ele>9.0</ele><time>2026-03-29T14:56:57.999Z</time></trkpt><trkpt lat="43.614411955078154" lon="10.438584350902541"><ele>7.5</ele><time>2026-03-29T14:56:58.999Z</time></trkpt><trkpt lat="43.61461131863203" lon="10.438333471510942"><ele>6.0</ele><time>2026-03-29T14:56:59.999Z</time></trkpt><trkpt lat="43.61481173078414" lon="10.43807808666461"><ele>7.0</ele><time>2026-03-29T14:57:00.999Z</time></trkpt><trkpt lat="43.61501111702369" lon="10.437817821418152"><ele>8.0</ele><time>2026-03-29T14:57:01.999Z</time></trkpt><trkpt lat="43.61520809459792" lon="10.437553900238095"><ele>7.5</ele><time>2026-03-29T14:57:02.999Z</time></trkpt><trkpt lat="43.61540255450765" lon="10.437287949671946"><ele>7.0</ele><time>2026-03-29T14:57:03.999Z</time></trkpt><trkpt lat="43.615598489867956" lon="10.437017310220098"><ele>7.0</ele><time>2026-03-29T14:57:04.999Z</time></trkpt><trkpt lat="43.61579060536117" lon="10.436748362707634"><ele>7.0</ele><time>2026-03-29T14:57:05.999Z</time></trkpt><trkpt lat="43.61598476005373" lon="10.43647681715975"><ele>5.0</ele><time>2026-03-29T14:57:06.999Z</time></trkpt><trkpt lat="43.61617763984196" lon="10.436202251468522"><ele>3.0</ele><time>2026-03-29T14:57:07.999Z</time></trkpt><trkpt lat="43.61636896647594" lon="10.43592378134467"><ele>3.0</ele><time>2026-03-29T14:57:08.999Z</time></trkpt><trkpt lat="43.616558266497066" lon="10.435646362761057"><ele>3.0</ele><time>2026-03-29T14:57:09.999Z</time></trkpt><trkpt lat="43.61674678423598" lon="10.435361351897173"><ele>3.5</ele><time>2026-03-29T14:57:10.999Z</time></trkpt><trkpt lat="43.616934677790375" lon="10.435074965215957"><ele>4.0</ele><time>2026-03-29T14:57:11.999Z</time></trkpt><trkpt lat="43.61712028953944" lon="10.434783604249475"><ele>3.0</ele><time>2026-03-29T14:57:12.999Z</time></trkpt><trkpt lat="43.61730571445802" lon="10.434488679334295"><ele>2.0</ele><time>2026-03-29T14:57:13.999Z</time></trkpt><trkpt lat="43.617484364000205" lon="10.43418942496599"><ele>2.0</ele><time>2026-03-29T14:57:14.999Z</time></trkpt><trkpt lat="43.61766555281432" lon="10.433886825838716"><ele>2.0</ele><time>2026-03-29T14:57:15.999Z</time></trkpt><trkpt lat="43.61784383448939" lon="10.433583660848237"><ele>2.0</ele><time>2026-03-29T14:57:16.999Z</time></trkpt><trkpt lat="43.61802089776858" lon="10.433278419834853"><ele>2.0</ele><time>2026-03-29T14:57:17.999Z</time></trkpt><trkpt lat="43.61819862145122" lon="10.4329686749618"><ele>2.0</ele><time>2026-03-29T14:57:18.999Z</time></trkpt><trkpt lat="43.61836868446697" lon="10.432654672359009"><ele>2.0</ele><time>2026-03-29T14:57:19.999Z</time></trkpt><trkpt lat="43.618535951554236" lon="10.432334284918499"><ele>1.5</ele><time>2026-03-29T14:57:20.999Z</time></trkpt><trkpt lat="43.61869910337641" lon="10.432008385472981"><ele>1.0</ele><time>2026-03-29T14:57:21.999Z</time></trkpt><trkpt lat="43.61885753884089" lon="10.431678384981163"><ele>1.0</ele><time>2026-03-29T14:57:22.999Z</time></trkpt><trkpt lat="43.61901576131521" lon="10.431346222910037"><ele>1.0</ele><time>2026-03-29T14:57:23.999Z</time></trkpt><trkpt lat="43.61917156034686" lon="10.431005473525794"><ele>1.0</ele><time>2026-03-29T14:57:24.999Z</time></trkpt><trkpt lat="43.619317440378346" lon="10.430669072517778"><ele>1.0</ele><time>2026-03-29T14:57:25.999Z</time></trkpt><trkpt lat="43.61946109262461" lon="10.430321858220633"><ele>0.5</ele><time>2026-03-29T14:57:26.999Z</time></trkpt><trkpt lat="43.61960206495208" lon="10.429971407696332"><ele>0.0</ele><time>2026-03-29T14:57:27.999Z</time></trkpt><trkpt lat="43.61973771798341" lon="10.429625798587768"><ele>-0.5</ele><time>2026-03-29T14:57:28.999Z</time></trkpt><trkpt lat="43.61987157663496" lon="10.429272580113224"><ele>-1.0</ele><time>2026-03-29T14:57:29.999Z</time></trkpt><trkpt lat="43.61999944070745" lon="10.428919249051726"><ele>-1.0</ele><time>2026-03-29T14:57:30.999Z</time></trkpt><trkpt lat="43.620117886975734" lon="10.42856245232834"><ele>-1.0</ele><time>2026-03-29T14:57:31.999Z</time></trkpt><trkpt lat="43.62023529820118" lon="10.428200940802338"><ele>-1.0</ele><time>2026-03-29T14:57:32.999Z</time></trkpt><trkpt lat="43.620347630971025" lon="10.427837698296676"><ele>-1.0</ele><time>2026-03-29T14:57:34Z</time></trkpt><trkpt lat="43.62045483117611" lon="10.427475899383268"><ele>-1.0</ele><time>2026-03-29T14:57:35Z</time></trkpt><trkpt lat="43.62055940170887" lon="10.42710674493813"><ele>-1.0</ele><time>2026-03-29T14:57:36Z</time></trkpt><trkpt lat="43.62066329730829" lon="10.42673620605095"><ele>-1.0</ele><time>2026-03-29T14:57:37Z</time></trkpt><trkpt lat="43.62076121489178" lon="10.42636164364657"><ele>-1.0</ele><time>2026-03-29T14:57:38Z</time></trkpt><trkpt lat="43.620855099933934" lon="10.425987931592358"><ele>-1.0</ele><time>2026-03-29T14:57:39Z</time></trkpt><trkpt lat="43.620940784402244" lon="10.42560979486833"><ele>-1.0</ele><time>2026-03-29T14:57:40Z</time></trkpt><trkpt lat="43.62102357579493" lon="10.425226146609104"><ele>-1.0</ele><time>2026-03-29T14:57:41Z</time></trkpt><trkpt lat="43.621095847523705" lon="10.424840895414565"><ele>-1.0</ele><time>2026-03-29T14:57:42Z</time></trkpt><trkpt lat="43.62116540964126" lon="10.42445687304891"><ele>-0.5</ele><time>2026-03-29T14:57:43Z</time></trkpt><trkpt lat="43.62122993344214" lon="10.424063342572996"><ele>0.0</ele><time>2026-03-29T14:57:44Z</time></trkpt><trkpt lat="43.621296899007554" lon="10.42366346104493"><ele>0.0</ele><time>2026-03-29T14:57:45Z</time></trkpt><trkpt lat="43.621358749543944" lon="10.423265530977458"><ele>0.0</ele><time>2026-03-29T14:57:46Z</time></trkpt><trkpt lat="43.62141376941054" lon="10.422873759118463"><ele>0.0</ele><time>2026-03-29T14:57:47Z</time></trkpt><trkpt lat="43.621460977732774" lon="10.42247828110912"><ele>0.0</ele><time>2026-03-29T14:57:48Z</time></trkpt><trkpt lat="43.62150117153979" lon="10.422080737073799"><ele>-0.5</ele><time>2026-03-29T14:57:49Z</time></trkpt><trkpt lat="43.62153841774106" lon="10.421680902692843"><ele>-1.0</ele><time>2026-03-29T14:57:50Z</time></trkpt><trkpt lat="43.621571720180384" lon="10.421280477947052"><ele>-0.5</ele><time>2026-03-29T14:57:51Z</time></trkpt><trkpt lat="43.6216044957468" lon="10.42087834893212"><ele>0.0</ele><time>2026-03-29T14:57:52Z</time></trkpt><trkpt lat="43.62163253713123" lon="10.42047764713562"><ele>0.0</ele><time>2026-03-29T14:57:53Z</time></trkpt><trkpt lat="43.62165573473481" lon="10.420074738721876"><ele>0.0</ele><time>2026-03-29T14:57:54Z</time></trkpt><trkpt lat="43.621673078627865" lon="10.419672635815951"><ele>0.5</ele><time>2026-03-29T14:57:55Z</time></trkpt><trkpt lat="43.62168533385674" lon="10.419270108268393"><ele>1.0</ele><time>2026-03-29T14:57:56Z</time></trkpt><trkpt lat="43.62169295087893" lon="10.418863365661291"><ele>0.5</ele><time>2026-03-29T14:57:57Z</time></trkpt><trkpt lat="43.621696731086445" lon="10.4184553279959"><ele>0.0</ele><time>2026-03-29T14:57:58Z</time></trkpt><trkpt lat="43.62169605275257" lon="10.418046373400212"><ele>0.5</ele><time>2026-03-29T14:57:59Z</time></trkpt><trkpt lat="43.62169576765676" lon="10.417640222531524"><ele>1.0</ele><time>2026-03-29T14:58:00Z</time></trkpt><trkpt lat="43.62169196818736" lon="10.41723804439219"><ele>1.5</ele><time>2026-03-29T14:58:01Z</time></trkpt><trkpt lat="43.62167981302143" lon="10.41683810652274"><ele>2.0</ele><time>2026-03-29T14:58:02Z</time></trkpt><trkpt lat="43.62166109916994" lon="10.416434995700566"><ele>1.5</ele><time>2026-03-29T14:58:03Z</time></trkpt><trkpt lat="43.62163769800741" lon="10.416027625025194"><ele>1.0</ele><time>2026-03-29T14:58:04Z</time></trkpt><trkpt lat="43.62161075490232" lon="10.4156248196887"><ele>1.0</ele><time>2026-03-29T14:58:05Z</time></trkpt><trkpt lat="43.621583381150174" lon="10.415223826563683"><ele>1.0</ele><time>2026-03-29T14:58:06Z</time></trkpt><trkpt lat="43.62155161355999" lon="10.414822744456432"><ele>1.0</ele><time>2026-03-29T14:58:07Z</time></trkpt><trkpt lat="43.621518789927435" lon="10.414430544996026"><ele>1.0</ele><time>2026-03-29T14:58:08Z</time></trkpt><trkpt lat="43.62147963397924" lon="10.414036623112414"><ele>0.5</ele><time>2026-03-29T14:58:09Z</time></trkpt><trkpt lat="43.621433110717554" lon="10.413644093215021"><ele>0.0</ele><time>2026-03-29T14:58:10Z</time></trkpt><trkpt lat="43.62138238008152" lon="10.413248404354972"><ele>0.5</ele><time>2026-03-29T14:58:11Z</time></trkpt><trkpt lat="43.62132781879289" lon="10.412856211355276"><ele>1.0</ele><time>2026-03-29T14:58:12Z</time></trkpt><trkpt lat="43.621269725944025" lon="10.412468303912332"><ele>0.5</ele><time>2026-03-29T14:58:13Z</time></trkpt><trkpt lat="43.621206927219184" lon="10.412080828294561"><ele>0.0</ele><time>2026-03-29T14:58:14Z</time></trkpt><trkpt lat="43.62114270431482" lon="10.411698020679454"><ele>0.0</ele><time>2026-03-29T14:58:15Z</time></trkpt><trkpt lat="43.621078662899144" lon="10.41132037065063"><ele>0.0</ele><time>2026-03-29T14:58:16Z</time></trkpt><trkpt lat="43.621007183613" lon="10.41094231623079"><ele>0.0</ele><time>2026-03-29T14:58:17Z</time></trkpt><trkpt lat="43.620931181965716" lon="10.410565966964612"><ele>0.0</ele><time>2026-03-29T14:58:18Z</time></trkpt><trkpt lat="43.62085110073914" lon="10.410191812912181"><ele>1.0</ele><time>2026-03-29T14:58:19Z</time></trkpt><trkpt lat="43.62076768061058" lon="10.409817488142151"><ele>2.0</ele><time>2026-03-29T14:58:20Z</time></trkpt><trkpt lat="43.62068054152893" lon="10.409444161799678"><ele>2.0</ele><time>2026-03-29T14:58:21Z</time></trkpt><trkpt lat="43.620590126373706" lon="10.409072078058372"><ele>2.0</ele><time>2026-03-29T14:58:22Z</time></trkpt><trkpt lat="43.62049440049584" lon="10.408701873389562"><ele>2.0</ele><time>2026-03-29T14:58:23Z</time></trkpt><trkpt lat="43.62038887301558" lon="10.408330712869885"><ele>2.0</ele><time>2026-03-29T14:58:24Z</time></trkpt><trkpt lat="43.62028122178801" lon="10.407964083214884"><ele>2.0</ele><time>2026-03-29T14:58:25Z</time></trkpt><trkpt lat="43.62017267961914" lon="10.407597691399156"><ele>2.0</ele><time>2026-03-29T14:58:26Z</time></trkpt><trkpt lat="43.620061216711306" lon="10.4072338139392"><ele>3.0</ele><time>2026-03-29T14:58:27Z</time></trkpt><trkpt lat="43.6199492712582" lon="10.406872635919719"><ele>4.0</ele><time>2026-03-29T14:58:28Z</time></trkpt><trkpt lat="43.61983611709014" lon="10.406513040224965"><ele>3.5</ele><time>2026-03-29T14:58:29Z</time></trkpt><trkpt lat="43.619719896763876" lon="10.406158481101986"><ele>3.0</ele><time>2026-03-29T14:58:30Z</time></trkpt><trkpt lat="43.61960142532919" lon="10.405802981920026"><ele>2.5</ele><time>2026-03-29T14:58:31Z</time></trkpt><trkpt lat="43.619481937994" lon="10.405445769802467"><ele>2.0</ele><time>2026-03-29T14:58:32Z</time></trkpt><trkpt lat="43.619361959739784" lon="10.405091542645962"><ele>2.0</ele><time>2026-03-29T14:58:33Z</time></trkpt><trkpt lat="43.61923998867077" lon="10.404744307454912"><ele>2.0</ele><time>2026-03-29T14:58:34Z</time></trkpt><trkpt lat="43.61911620890454" lon="10.404392042878468"><ele>2.0</ele><time>2026-03-29T14:58:35Z</time></trkpt><trkpt lat="43.61899563604718" lon="10.404035409608857"><ele>2.0</ele><time>2026-03-29T14:58:36Z</time></trkpt><trkpt lat="43.61887596822196" lon="10.40368131475863"><ele>2.0</ele><time>2026-03-29T14:58:37Z</time></trkpt><trkpt lat="43.61875728528205" lon="10.40333071085526"><ele>2.0</ele><time>2026-03-29T14:58:38Z</time></trkpt><trkpt lat="43.61863587180765" lon="10.402981769454547"><ele>1.5</ele><time>2026-03-29T14:58:39Z</time></trkpt><trkpt lat="43.61851173880056" lon="10.40262744037352"><ele>1.0</ele><time>2026-03-29T14:58:40Z</time></trkpt><trkpt lat="43.61838818314503" lon="10.402277008741889"><ele>1.0</ele><time>2026-03-29T14:58:41Z</time></trkpt><trkpt lat="43.618265590200565" lon="10.401924588054099"><ele>1.0</ele><time>2026-03-29T14:58:42Z</time></trkpt><trkpt lat="43.618156645980505" lon="10.401578709697386"><ele>0.5</ele><time>2026-03-29T14:58:43Z</time></trkpt><trkpt lat="43.6180466294655" lon="10.401266895905131"><ele>0.0</ele><time>2026-03-29T14:58:44Z</time></trkpt><trkpt lat="43.61792119427499" lon="10.400954580711783"><ele>0.0</ele><time>2026-03-29T14:58:44.999Z</time></trkpt><trkpt lat="43.61780121776735" lon="10.40063336619135"><ele>0.0</ele><time>2026-03-29T14:58:45.999Z</time></trkpt><trkpt lat="43.6176797351057" lon="10.400309970246012"><ele>0.0</ele><time>2026-03-29T14:58:46.999Z</time></trkpt><trkpt lat="43.617561893951475" lon="10.399976274124258"><ele>0.0</ele><time>2026-03-29T14:58:47.999Z</time></trkpt><trkpt lat="43.61744381488657" lon="10.39964293567715"><ele>0.0</ele><time>2026-03-29T14:58:48.999Z</time></trkpt><trkpt lat="43.6173247028315" lon="10.399301839605474"><ele>0.0</ele><time>2026-03-29T14:58:49.999Z</time></trkpt><trkpt lat="43.61721090771777" lon="10.398965637378113"><ele>-1.5</ele><time>2026-03-29T14:58:50.999Z</time></trkpt><trkpt lat="43.61710212060608" lon="10.398654921867191"><ele>-3.0</ele><time>2026-03-29T14:58:51.999Z</time></trkpt><trkpt lat="43.61699109984029" lon="10.398341198944406"><ele>-1.5</ele><time>2026-03-29T14:58:52.999Z</time></trkpt><trkpt lat="43.61688047926394" lon="10.398026753035158"><ele>0.0</ele><time>2026-03-29T14:58:53.999Z</time></trkpt><trkpt lat="43.61677155772368" lon="10.39771279697418"><ele>0.0</ele><time>2026-03-29T14:58:54.999Z</time></trkpt><trkpt lat="43.61666270073822" lon="10.39739751845374"><ele>0.0</ele><time>2026-03-29T14:58:55.999Z</time></trkpt><trkpt lat="43.61655556144692" lon="10.397083545054372"><ele>-1.0</ele><time>2026-03-29T14:58:56.999Z</time></trkpt><trkpt lat="43.616446198210085" lon="10.396767381039101"><ele>-2.0</ele><time>2026-03-29T14:58:57.999Z</time></trkpt><trkpt lat="43.61633507393898" lon="10.396444999596635"><ele>-2.0</ele><time>2026-03-29T14:58:58.999Z</time></trkpt><trkpt lat="43.616226094457325" lon="10.396122463754944"><ele>-2.0</ele><time>2026-03-29T14:58:59.999Z</time></trkpt><trkpt lat="43.61611378994016" lon="10.395796532019217"><ele>-0.5</ele><time>2026-03-29T14:59:00.999Z</time></trkpt><trkpt lat="43.61599900044668" lon="10.395466268521679"><ele>1.0</ele><time>2026-03-29T14:59:01.999Z</time></trkpt><trkpt lat="43.615880559570726" lon="10.395127948451195"><ele>1.0</ele><time>2026-03-29T14:59:02.999Z</time></trkpt><trkpt lat="43.61576262110457" lon="10.394789368557324"><ele>1.0</ele><time>2026-03-29T14:59:03.999Z</time></trkpt><trkpt lat="43.61564387809523" lon="10.394447747156876"><ele>-0.5</ele><time>2026-03-29T14:59:04.999Z</time></trkpt><trkpt lat="43.61552351957692" lon="10.394101622592888"><ele>-2.0</ele><time>2026-03-29T14:59:05.999Z</time></trkpt><trkpt lat="43.61540472381389" lon="10.393758365634907"><ele>-1.0</ele><time>2026-03-29T14:59:06.999Z</time></trkpt><trkpt lat="43.61528444333804" lon="10.393412307724892"><ele>0.0</ele><time>2026-03-29T14:59:07.999Z</time></trkpt><trkpt lat="43.61516354226296" lon="10.393062052886757"><ele>0.5</ele><time>2026-03-29T14:59:08.999Z</time></trkpt><trkpt lat="43.61504381699553" lon="10.392711673822014"><ele>1.0</ele><time>2026-03-29T14:59:09.999Z</time></trkpt><trkpt lat="43.61492458891374" lon="10.392362530441172"><ele>0.0</ele><time>2026-03-29T14:59:10.999Z</time></trkpt><trkpt lat="43.614802862847206" lon="10.392011872773653"><ele>-1.0</ele><time>2026-03-29T14:59:11.999Z</time></trkpt><trkpt lat="43.614681425128545" lon="10.3916619258541"><ele>-1.0</ele><time>2026-03-29T14:59:12.999Z</time></trkpt><trkpt lat="43.6145590952139" lon="10.391311111314309"><ele>-1.0</ele><time>2026-03-29T14:59:13.999Z</time></trkpt><trkpt lat="43.61443766429496" lon="10.390962744542442"><ele>-1.0</ele><time>2026-03-29T14:59:14.999Z</time></trkpt><trkpt lat="43.61431653317387" lon="10.390615198113327"><ele>-1.0</ele><time>2026-03-29T14:59:15.999Z</time></trkpt><trkpt lat="43.61419541432075" lon="10.39026637555687"><ele>-1.5</ele><time>2026-03-29T14:59:16.999Z</time></trkpt><trkpt lat="43.6140746436696" lon="10.389918092330115"><ele>-2.0</ele><time>2026-03-29T14:59:17.999Z</time></trkpt><trkpt lat="43.613953301342015" lon="10.389569911626602"><ele>-2.0</ele><time>2026-03-29T14:59:18.999Z</time></trkpt><trkpt lat="43.61383286558488" lon="10.389221685041141"><ele>-2.0</ele><time>2026-03-29T14:59:19.999Z</time></trkpt><trkpt lat="43.613714548523504" lon="10.388877236901516"><ele>-1.5</ele><time>2026-03-29T14:59:20.999Z</time></trkpt><trkpt lat="43.61359529849195" lon="10.38853353312917"><ele>-1.0</ele><time>2026-03-29T14:59:21.999Z</time></trkpt><trkpt lat="43.613476340316936" lon="10.388190033093894"><ele>-1.0</ele><time>2026-03-29T14:59:22.999Z</time></trkpt><trkpt lat="43.613359096496" lon="10.38784977745226"><ele>-1.0</ele><time>2026-03-29T14:59:23.999Z</time></trkpt><trkpt lat="43.613239415356695" lon="10.387507308213086"><ele>-1.5</ele><time>2026-03-29T14:59:24.999Z</time></trkpt><trkpt lat="43.61312047457066" lon="10.38716205449273"><ele>-2.0</ele><time>2026-03-29T14:59:25.999Z</time></trkpt><trkpt lat="43.613001104435035" lon="10.38681808946474"><ele>-2.0</ele><time>2026-03-29T14:59:26.999Z</time></trkpt><trkpt lat="43.61288108550524" lon="10.386474785298946"><ele>-2.0</ele><time>2026-03-29T14:59:27.999Z</time></trkpt><trkpt lat="43.61276013790239" lon="10.386130987932948"><ele>-1.5</ele><time>2026-03-29T14:59:28.999Z</time></trkpt><trkpt lat="43.61264014551144" lon="10.385786786020796"><ele>-1.0</ele><time>2026-03-29T14:59:29.999Z</time></trkpt><trkpt lat="43.612521647527124" lon="10.385440949488148"><ele>-1.0</ele><time>2026-03-29T14:59:30.999Z</time></trkpt><trkpt lat="43.61240263250963" lon="10.385099172473463"><ele>-1.0</ele><time>2026-03-29T14:59:31.999Z</time></trkpt><trkpt lat="43.612282466089354" lon="10.384755835075094"><ele>-0.5</ele><time>2026-03-29T14:59:32.999Z</time></trkpt><trkpt lat="43.61216268565945" lon="10.384413327399546"><ele>0.0</ele><time>2026-03-29T14:59:33.999Z</time></trkpt><trkpt lat="43.61204353660933" lon="10.384067041909091"><ele>0.0</ele><time>2026-03-29T14:59:34.999Z</time></trkpt><trkpt lat="43.61192520835823" lon="10.383720044500008"><ele>0.0</ele><time>2026-03-29T14:59:35.999Z</time></trkpt><trkpt lat="43.61180762643302" lon="10.383376996551291"><ele>0.0</ele><time>2026-03-29T14:59:36.999Z</time></trkpt><trkpt lat="43.61169028424151" lon="10.383035575017814"><ele>0.0</ele><time>2026-03-29T14:59:37.999Z</time></trkpt><trkpt lat="43.61157250691818" lon="10.382695730517737"><ele>-1.0</ele><time>2026-03-29T14:59:38.999Z</time></trkpt><trkpt lat="43.61145527633389" lon="10.382352389293708"><ele>-2.0</ele><time>2026-03-29T14:59:40Z</time></trkpt><trkpt lat="43.61133674558427" lon="10.382016152364356"><ele>-2.0</ele><time>2026-03-29T14:59:41Z</time></trkpt><trkpt lat="43.611221115757026" lon="10.381678101484892"><ele>-2.0</ele><time>2026-03-29T14:59:42Z</time></trkpt><trkpt lat="43.61110598369166" lon="10.38134002212114"><ele>-2.0</ele><time>2026-03-29T14:59:43Z</time></trkpt><trkpt lat="43.61098797478156" lon="10.38100587522926"><ele>-2.0</ele><time>2026-03-29T14:59:44Z</time></trkpt><trkpt lat="43.61087028370978" lon="10.380668159305204"><ele>-2.5</ele><time>2026-03-29T14:59:45Z</time></trkpt><trkpt lat="43.61075267167978" lon="10.380330289786654"><ele>-3.0</ele><time>2026-03-29T14:59:46Z</time></trkpt><trkpt lat="43.61063568191753" lon="10.379994694961493"><ele>-3.5</ele><time>2026-03-29T14:59:47Z</time></trkpt><trkpt lat="43.61051852014649" lon="10.379660733417719"><ele>-4.0</ele><time>2026-03-29T14:59:48Z</time></trkpt><trkpt lat="43.61040288569591" lon="10.37932101935589"><ele>-3.0</ele><time>2026-03-29T14:59:49Z</time></trkpt><trkpt lat="43.61028605167583" lon="10.378983198786402"><ele>-2.0</ele><time>2026-03-29T14:59:50Z</time></trkpt><trkpt lat="43.610172220476464" lon="10.378646911935105"><ele>-2.0</ele><time>2026-03-29T14:59:51Z</time></trkpt><trkpt lat="43.6100569925062" lon="10.37830693900822"><ele>-2.0</ele><time>2026-03-29T14:59:52Z</time></trkpt><trkpt lat="43.60994495807585" lon="10.37796807601622"><ele>-2.0</ele><time>2026-03-29T14:59:53Z</time></trkpt><trkpt lat="43.60983749567719" lon="10.377627763067137"><ele>-2.0</ele><time>2026-03-29T14:59:54Z</time></trkpt><trkpt lat="43.60972824397209" lon="10.37728353571994"><ele>-2.5</ele><time>2026-03-29T14:59:55Z</time></trkpt><trkpt lat="43.60962718852302" lon="10.37693773323117"><ele>-3.0</ele><time>2026-03-29T14:59:56Z</time></trkpt><trkpt lat="43.60952857983971" lon="10.376593625671926"><ele>-3.0</ele><time>2026-03-29T14:59:57Z</time></trkpt><trkpt lat="43.609429593187876" lon="10.376247610634982"><ele>-3.0</ele><time>2026-03-29T14:59:58Z</time></trkpt><trkpt lat="43.60933491609938" lon="10.375905457635131"><ele>-3.0</ele><time>2026-03-29T14:59:59Z</time></trkpt><trkpt lat="43.609245587771966" lon="10.375554908818671"><ele>-3.0</ele><time>2026-03-29T15:00:00Z</time></trkpt><trkpt lat="43.60916142835373" lon="10.375208221772356"><ele>-2.5</ele><time>2026-03-29T15:00:01Z</time></trkpt><trkpt lat="43.609084289291744" lon="10.374860801944676"><ele>-2.0</ele><time>2026-03-29T15:00:02Z</time></trkpt><trkpt lat="43.609009547040316" lon="10.374510695270475"><ele>-2.5</ele><time>2026-03-29T15:00:03Z</time></trkpt><trkpt lat="43.60893615542492" lon="10.374162229082758"><ele>-3.0</ele><time>2026-03-29T15:00:04Z</time></trkpt><trkpt lat="43.608866744377956" lon="10.373808343918277"><ele>-3.0</ele><time>2026-03-29T15:00:05Z</time></trkpt><trkpt lat="43.6087994315123" lon="10.373456435611107"><ele>-3.0</ele><time>2026-03-29T15:00:06Z</time></trkpt><trkpt lat="43.60873371747086" lon="10.3730935030907"><ele>-3.5</ele><time>2026-03-29T15:00:07Z</time></trkpt><trkpt lat="43.608676335047655" lon="10.37273113320116"><ele>-4.0</ele><time>2026-03-29T15:00:08Z</time></trkpt><trkpt lat="43.608620943038694" lon="10.372375592314835"><ele>-3.5</ele><time>2026-03-29T15:00:09Z</time></trkpt><trkpt lat="43.60857102606573" lon="10.372018486899812"><ele>-3.0</ele><time>2026-03-29T15:00:10Z</time></trkpt><trkpt lat="43.60852644130099" lon="10.371658790078653"><ele>-3.0</ele><time>2026-03-29T15:00:11Z</time></trkpt><trkpt lat="43.608487307026856" lon="10.371294811666647"><ele>-3.0</ele><time>2026-03-29T15:00:12Z</time></trkpt><trkpt lat="43.608452831061406" lon="10.370933336899114"><ele>-3.0</ele><time>2026-03-29T15:00:13Z</time></trkpt><trkpt lat="43.608425689592124" lon="10.370573069004834"><ele>-3.0</ele><time>2026-03-29T15:00:14Z</time></trkpt><trkpt lat="43.60840426611938" lon="10.370213726500532"><ele>-2.5</ele><time>2026-03-29T15:00:15Z</time></trkpt><trkpt lat="43.608388692656526" lon="10.36985585446445"><ele>-2.0</ele><time>2026-03-29T15:00:16Z</time></trkpt><trkpt lat="43.60837981038214" lon="10.369496467088618"><ele>-2.0</ele><time>2026-03-29T15:00:17Z</time></trkpt><trkpt lat="43.60837619682371" lon="10.369137945005983"><ele>-2.0</ele><time>2026-03-29T15:00:18Z</time></trkpt><trkpt lat="43.60838277162773" lon="10.36878093276111"><ele>-2.0</ele><time>2026-03-29T15:00:19Z</time></trkpt><trkpt lat="43.608396550183116" lon="10.368429339156883"><ele>-2.0</ele><time>2026-03-29T15:00:20Z</time></trkpt><trkpt lat="43.608421110540256" lon="10.368070062756656"><ele>-0.5</ele><time>2026-03-29T15:00:21Z</time></trkpt><trkpt lat="43.60844960938739" lon="10.36771185500528"><ele>1.0</ele><time>2026-03-29T15:00:22Z</time></trkpt><trkpt lat="43.60848503824121" lon="10.367355384202234"><ele>0.5</ele><time>2026-03-29T15:00:23Z</time></trkpt><trkpt lat="43.60852898073118" lon="10.36700020999967"><ele>0.0</ele><time>2026-03-29T15:00:24Z</time></trkpt><trkpt lat="43.608580664894355" lon="10.366648045790654"><ele>0.0</ele><time>2026-03-29T15:00:25Z</time></trkpt><trkpt lat="43.60863779195228" lon="10.366296616050445"><ele>0.0</ele><time>2026-03-29T15:00:26Z</time></trkpt><trkpt lat="43.608704990320675" lon="10.365950242066749"><ele>-0.5</ele><time>2026-03-29T15:00:27Z</time></trkpt><trkpt lat="43.6087766748631" lon="10.365606468866556"><ele>-1.0</ele><time>2026-03-29T15:00:28Z</time></trkpt><trkpt lat="43.60885774042655" lon="10.365266170483018"><ele>-1.0</ele><time>2026-03-29T15:00:29Z</time></trkpt><trkpt lat="43.608957535285064" lon="10.364938216720935"><ele>-1.0</ele><time>2026-03-29T15:00:30Z</time></trkpt><trkpt lat="43.60905217406168" lon="10.364604949647115"><ele>-1.0</ele><time>2026-03-29T15:00:31Z</time></trkpt><trkpt lat="43.60915586952359" lon="10.364275207814297"><ele>-1.0</ele><time>2026-03-29T15:00:32Z</time></trkpt><trkpt lat="43.60926813656084" lon="10.363946899450225"><ele>-1.0</ele><time>2026-03-29T15:00:33Z</time></trkpt><trkpt lat="43.60938641471104" lon="10.363622023418621"><ele>-1.0</ele><time>2026-03-29T15:00:34Z</time></trkpt><trkpt lat="43.60951188289735" lon="10.363303921588125"><ele>-1.0</ele><time>2026-03-29T15:00:35Z</time></trkpt><trkpt lat="43.60964542512068" lon="10.362988261561073"><ele>-1.0</ele><time>2026-03-29T15:00:36Z</time></trkpt><trkpt lat="43.60978134414355" lon="10.362675397178352"><ele>-1.0</ele><time>2026-03-29T15:00:37Z</time></trkpt><trkpt lat="43.60991960904726" lon="10.362366611432321"><ele>-1.0</ele><time>2026-03-29T15:00:38Z</time></trkpt><trkpt lat="43.61006980734683" lon="10.36206644316369"><ele>-1.0</ele><time>2026-03-29T15:00:39Z</time></trkpt><trkpt lat="43.61023100236786" lon="10.361773631343134"><ele>-1.0</ele><time>2026-03-29T15:00:40Z</time></trkpt><trkpt lat="43.610397043653016" lon="10.361487725471427"><ele>-0.5</ele><time>2026-03-29T15:00:41Z</time></trkpt><trkpt lat="43.61056946529599" lon="10.361212980616859"><ele>0.0</ele><time>2026-03-29T15:00:42Z</time></trkpt><trkpt lat="43.610747985511345" lon="10.360943271272921"><ele>0.0</ele><time>2026-03-29T15:00:43Z</time></trkpt><trkpt lat="43.61093255921312" lon="10.36068207510586"><ele>0.0</ele><time>2026-03-29T15:00:44Z</time></trkpt><trkpt lat="43.61112215977478" lon="10.360433731286722"><ele>1.0</ele><time>2026-03-29T15:00:45Z</time></trkpt><trkpt lat="43.611318772390135" lon="10.36018863419903"><ele>2.0</ele><time>2026-03-29T15:00:46Z</time></trkpt><trkpt lat="43.61151634700986" lon="10.359950467460674"><ele>2.0</ele><time>2026-03-29T15:00:47Z</time></trkpt><trkpt lat="43.61171940308373" lon="10.359719745677314"><ele>2.0</ele><time>2026-03-29T15:00:48Z</time></trkpt><trkpt lat="43.61193252286254" lon="10.359495834914826"><ele>1.0</ele><time>2026-03-29T15:00:49Z</time></trkpt><trkpt lat="43.61214186263895" lon="10.359275339999089"><ele>0.0</ele><time>2026-03-29T15:00:49.999Z</time></trkpt><trkpt lat="43.612357238117454" lon="10.359062396909167"><ele>0.5</ele><time>2026-03-29T15:00:50.999Z</time></trkpt><trkpt lat="43.61258208977183" lon="10.358861153238019"><ele>1.0</ele><time>2026-03-29T15:00:51.999Z</time></trkpt><trkpt lat="43.61280510961633" lon="10.358664132588917"><ele>2.0</ele><time>2026-03-29T15:00:52.999Z</time></trkpt><trkpt lat="43.61303422996992" lon="10.358481461424267"><ele>3.0</ele><time>2026-03-29T15:00:53.999Z</time></trkpt><trkpt lat="43.61327009498363" lon="10.358306024766335"><ele>3.0</ele><time>2026-03-29T15:00:54.999Z</time></trkpt><trkpt lat="43.613511990490494" lon="10.35814014130203"><ele>3.0</ele><time>2026-03-29T15:00:55.999Z</time></trkpt><trkpt lat="43.6137586425914" lon="10.35798530706439"><ele>4.0</ele><time>2026-03-29T15:00:56.999Z</time></trkpt><trkpt lat="43.61400453579353" lon="10.357843687118146"><ele>5.0</ele><time>2026-03-29T15:00:57.999Z</time></trkpt><trkpt lat="43.61425352532788" lon="10.357719683124724"><ele>4.0</ele><time>2026-03-29T15:00:58.999Z</time></trkpt><trkpt lat="43.61451599118401" lon="10.357589102787127"><ele>3.0</ele><time>2026-03-29T15:00:59.999Z</time></trkpt><trkpt lat="43.614764506331106" lon="10.357487351161883"><ele>3.0</ele><time>2026-03-29T15:01:00.999Z</time></trkpt><trkpt lat="43.614996095145706" lon="10.357394299708853"><ele>3.0</ele><time>2026-03-29T15:01:01.999Z</time></trkpt><trkpt lat="43.615216452328106" lon="10.357317838819023"><ele>2.5</ele><time>2026-03-29T15:01:02.999Z</time></trkpt><trkpt lat="43.615441518922914" lon="10.357239161458304"><ele>2.0</ele><time>2026-03-29T15:01:03.999Z</time></trkpt><trkpt lat="43.61567305706794" lon="10.35717323156577"><ele>1.5</ele><time>2026-03-29T15:01:04.999Z</time></trkpt><trkpt lat="43.61590698241225" lon="10.357119400828935"><ele>1.0</ele><time>2026-03-29T15:01:05.999Z</time></trkpt><trkpt lat="43.616136459280554" lon="10.357071806351243"><ele>0.5</ele><time>2026-03-29T15:01:06.999Z</time></trkpt><trkpt lat="43.616372315005435" lon="10.357023165358562"><ele>0.0</ele><time>2026-03-29T15:01:07.999Z</time></trkpt><trkpt lat="43.616629404483255" lon="10.356981565271933"><ele>0.0</ele><time>2026-03-29T15:01:08.999Z</time></trkpt><trkpt lat="43.616908120874804" lon="10.356952829169177"><ele>0.0</ele><time>2026-03-29T15:01:09.999Z</time></trkpt><trkpt lat="43.6171719304604" lon="10.356937084094216"><ele>2.5</ele><time>2026-03-29T15:01:10.999Z</time></trkpt><trkpt lat="43.61741782724168" lon="10.356922812742082"><ele>5.0</ele><time>2026-03-29T15:01:11.999Z</time></trkpt><trkpt lat="43.6176656133781" lon="10.356909479227813"><ele>5.5</ele><time>2026-03-29T15:01:12.999Z</time></trkpt><trkpt lat="43.61791797986207" lon="10.356899410068154"><ele>6.0</ele><time>2026-03-29T15:01:13.999Z</time></trkpt><trkpt lat="43.61816800118316" lon="10.356890158243871"><ele>6.0</ele><time>2026-03-29T15:01:14.999Z</time></trkpt><trkpt lat="43.61841883211998" lon="10.356882246632923"><ele>6.0</ele><time>2026-03-29T15:01:15.999Z</time></trkpt><trkpt lat="43.61866807559226" lon="10.356879694477108"><ele>5.5</ele><time>2026-03-29T15:01:16.999Z</time></trkpt><trkpt lat="43.61891735176839" lon="10.356880816610923"><ele>5.0</ele><time>2026-03-29T15:01:17.999Z</time></trkpt><trkpt lat="43.61916633491797" lon="10.35688381260759"><ele>5.0</ele><time>2026-03-29T15:01:18.999Z</time></trkpt><trkpt lat="43.61941522989748" lon="10.356885986010203"><ele>5.0</ele><time>2026-03-29T15:01:19.999Z</time></trkpt><trkpt lat="43.61967076600296" lon="10.356890238906987"><ele>4.0</ele><time>2026-03-29T15:01:20.999Z</time></trkpt><trkpt lat="43.6199244662262" lon="10.356894644727108"><ele>3.0</ele><time>2026-03-29T15:01:21.999Z</time></trkpt><trkpt lat="43.62018195584201" lon="10.356896488649522"><ele>4.0</ele><time>2026-03-29T15:01:22.999Z</time></trkpt><trkpt lat="43.620435915594165" lon="10.356896293599059"><ele>5.0</ele><time>2026-03-29T15:01:23.999Z</time></trkpt><trkpt lat="43.62069428737446" lon="10.356895301357207"><ele>5.0</ele><time>2026-03-29T15:01:24.999Z</time></trkpt><trkpt lat="43.6209494375345" lon="10.356895533232503"><ele>5.0</ele><time>2026-03-29T15:01:25.999Z</time></trkpt><trkpt lat="43.62120830457903" lon="10.356894312625636"><ele>5.5</ele><time>2026-03-29T15:01:26.999Z</time></trkpt><trkpt lat="43.62146522976508" lon="10.356894608000882"><ele>6.0</ele><time>2026-03-29T15:01:27.999Z</time></trkpt><trkpt lat="43.621723895277334" lon="10.35689520836253"><ele>6.0</ele><time>2026-03-29T15:01:28.999Z</time></trkpt><trkpt lat="43.62198466289205" lon="10.356896887744824"><ele>6.0</ele><time>2026-03-29T15:01:29.999Z</time></trkpt><trkpt lat="43.62224838283396" lon="10.356902141065769"><ele>6.0</ele><time>2026-03-29T15:01:30.999Z</time></trkpt><trkpt lat="43.62251031582367" lon="10.356904045559679"><ele>6.0</ele><time>2026-03-29T15:01:31.999Z</time></trkpt><trkpt lat="43.622772578697166" lon="10.356906412160226"><ele>5.5</ele><time>2026-03-29T15:01:32.999Z</time></trkpt><trkpt lat="43.62303953213805" lon="10.356909825859107"><ele>5.0</ele><time>2026-03-29T15:01:33.999Z</time></trkpt><trkpt lat="43.623301494054026" lon="10.35691023560177"><ele>5.0</ele><time>2026-03-29T15:01:34.999Z</time></trkpt><trkpt lat="43.62356861248549" lon="10.356914966798081"><ele>5.0</ele><time>2026-03-29T15:01:35.999Z</time></trkpt><trkpt lat="43.62383723804352" lon="10.356917336132344"><ele>3.5</ele><time>2026-03-29T15:01:36.999Z</time></trkpt><trkpt lat="43.624103511149826" lon="10.356918958284252"><ele>2.0</ele><time>2026-03-29T15:01:37.999Z</time></trkpt><trkpt lat="43.624371286140324" lon="10.356923185707629"><ele>2.0</ele><time>2026-03-29T15:01:38.999Z</time></trkpt><trkpt lat="43.62463834113534" lon="10.356923132340585"><ele>2.0</ele><time>2026-03-29T15:01:39.999Z</time></trkpt><trkpt lat="43.62490909492057" lon="10.35692164775896"><ele>2.0</ele><time>2026-03-29T15:01:40.999Z</time></trkpt><trkpt lat="43.6251789537014" lon="10.356920308037035"><ele>2.0</ele><time>2026-03-29T15:01:41.999Z</time></trkpt><trkpt lat="43.62544983811898" lon="10.35692422628407"><ele>2.0</ele><time>2026-03-29T15:01:42.999Z</time></trkpt><trkpt lat="43.625717738137155" lon="10.35693025815266"><ele>2.0</ele><time>2026-03-29T15:01:43.999Z</time></trkpt><trkpt lat="43.62598410548516" lon="10.356931101713391"><ele>2.0</ele><time>2026-03-29T15:01:44.999Z</time></trkpt><trkpt lat="43.626249871949" lon="10.356929532153874"><ele>2.0</ele><time>2026-03-29T15:01:46Z</time></trkpt><trkpt lat="43.62651749596282" lon="10.356933037611055"><ele>2.0</ele><time>2026-03-29T15:01:47Z</time></trkpt><trkpt lat="43.62677745638479" lon="10.35693271953376"><ele>2.0</ele><time>2026-03-29T15:01:48Z</time></trkpt><trkpt lat="43.62705199760509" lon="10.356932420269969"><ele>0.5</ele><time>2026-03-29T15:01:49Z</time></trkpt><trkpt lat="43.62730712345658" lon="10.356937560879109"><ele>-1.0</ele><time>2026-03-29T15:01:50Z</time></trkpt><trkpt lat="43.62756898694364" lon="10.35693451539656"><ele>-1.0</ele><time>2026-03-29T15:01:51Z</time></trkpt><trkpt lat="43.62782966106437" lon="10.356935855145743"><ele>-1.0</ele><time>2026-03-29T15:01:52Z</time></trkpt><trkpt lat="43.6280895896081" lon="10.356935406368104"><ele>-1.0</ele><time>2026-03-29T15:01:53Z</time></trkpt><trkpt lat="43.62835334461144" lon="10.356936316753789"><ele>-1.0</ele><time>2026-03-29T15:01:54Z</time></trkpt><trkpt lat="43.62861118241552" lon="10.356940012422026"><ele>-1.0</ele><time>2026-03-29T15:01:55Z</time></trkpt><trkpt lat="43.6288719846846" lon="10.356940795495506"><ele>-1.0</ele><time>2026-03-29T15:01:56Z</time></trkpt><trkpt lat="43.62913259747731" lon="10.356944523759468"><ele>-1.0</ele><time>2026-03-29T15:01:57Z</time></trkpt><trkpt lat="43.62940326482719" lon="10.356948835900306"><ele>-1.0</ele><time>2026-03-29T15:01:58Z</time></trkpt><trkpt lat="43.629675099306375" lon="10.35695436488243"><ele>-0.5</ele><time>2026-03-29T15:01:59Z</time></trkpt><trkpt lat="43.6299519702101" lon="10.356954500760406"><ele>0.0</ele><time>2026-03-29T15:02:00Z</time></trkpt><trkpt lat="43.63023279052361" lon="10.356953927686622"><ele>1.0</ele><time>2026-03-29T15:02:01Z</time></trkpt><trkpt lat="43.6305121874541" lon="10.356952250248069"><ele>2.0</ele><time>2026-03-29T15:02:02Z</time></trkpt><trkpt lat="43.63079021615205" lon="10.356951346189822"><ele>2.0</ele><time>2026-03-29T15:02:03Z</time></trkpt><trkpt lat="43.631070974089845" lon="10.356955671197753"><ele>2.0</ele><time>2026-03-29T15:02:04Z</time></trkpt><trkpt lat="43.6313483262477" lon="10.356959325983977"><ele>2.0</ele><time>2026-03-29T15:02:05Z</time></trkpt><trkpt lat="43.63162573236145" lon="10.35696690022378"><ele>2.0</ele><time>2026-03-29T15:02:06Z</time></trkpt><trkpt lat="43.63190533277314" lon="10.356971607865397"><ele>2.0</ele><time>2026-03-29T15:02:07Z</time></trkpt><trkpt lat="43.632185214487556" lon="10.356978769147208"><ele>2.0</ele><time>2026-03-29T15:02:08Z</time></trkpt><trkpt lat="43.632463013754794" lon="10.356994638127619"><ele>2.0</ele><time>2026-03-29T15:02:09Z</time></trkpt><trkpt lat="43.632742367617425" lon="10.357021389538183"><ele>2.0</ele><time>2026-03-29T15:02:10Z</time></trkpt><trkpt lat="43.63301922162757" lon="10.357060310061017"><ele>2.5</ele><time>2026-03-29T15:02:11Z</time></trkpt><trkpt lat="43.63329395372478" lon="10.3571102138811"><ele>3.0</ele><time>2026-03-29T15:02:12Z</time></trkpt><trkpt lat="43.633566589591936" lon="10.357161269845893"><ele>3.5</ele><time>2026-03-29T15:02:13Z</time></trkpt><trkpt lat="43.633839178991806" lon="10.35722119839495"><ele>4.0</ele><time>2026-03-29T15:02:14Z</time></trkpt><trkpt lat="43.63411043220496" lon="10.357285347252072"><ele>4.0</ele><time>2026-03-29T15:02:15Z</time></trkpt><trkpt lat="43.634379472363584" lon="10.357357835549227"><ele>4.0</ele><time>2026-03-29T15:02:16Z</time></trkpt><trkpt lat="43.63464736330746" lon="10.357438126527033"><ele>3.0</ele><time>2026-03-29T15:02:17Z</time></trkpt><trkpt lat="43.634908173387764" lon="10.357526089328568"><ele>2.0</ele><time>2026-03-29T15:02:18Z</time></trkpt><trkpt lat="43.63518023561392" lon="10.357633139116533"><ele>1.5</ele><time>2026-03-29T15:02:19Z</time></trkpt><trkpt lat="43.635430747868455" lon="10.357727173619349"><ele>1.0</ele><time>2026-03-29T15:02:20Z</time></trkpt><trkpt lat="43.63568256658221" lon="10.357838794248659"><ele>1.0</ele><time>2026-03-29T15:02:21Z</time></trkpt><trkpt lat="43.6359340436838" lon="10.357956668767333"><ele>1.0</ele><time>2026-03-29T15:02:22Z</time></trkpt><trkpt lat="43.63618299096933" lon="10.358078118383336"><ele>3.0</ele><time>2026-03-29T15:02:23Z</time></trkpt><trkpt lat="43.63643094922593" lon="10.35820050892554"><ele>5.0</ele><time>2026-03-29T15:02:24Z</time></trkpt><trkpt lat="43.63667398516179" lon="10.3583307586374"><ele>5.0</ele><time>2026-03-29T15:02:25Z</time></trkpt><trkpt lat="43.636915300969065" lon="10.358470132618956"><ele>5.0</ele><time>2026-03-29T15:02:26Z</time></trkpt><trkpt lat="43.63715431957662" lon="10.358616753630086"><ele>4.5</ele><time>2026-03-29T15:02:27Z</time></trkpt><trkpt lat="43.63739253173527" lon="10.358769338575176"><ele>4.0</ele><time>2026-03-29T15:02:28Z</time></trkpt><trkpt lat="43.63762974819186" lon="10.358930354509406"><ele>3.0</ele><time>2026-03-29T15:02:29Z</time></trkpt><trkpt lat="43.6378622575843" lon="10.359094573680512"><ele>2.0</ele><time>2026-03-29T15:02:30Z</time></trkpt><trkpt lat="43.63809430067433" lon="10.359264994156792"><ele>2.0</ele><time>2026-03-29T15:02:31Z</time></trkpt><trkpt lat="43.63832270357685" lon="10.359439565425296"><ele>2.0</ele><time>2026-03-29T15:02:32Z</time></trkpt><trkpt lat="43.63855024828604" lon="10.359623637589737"><ele>2.0</ele><time>2026-03-29T15:02:33Z</time></trkpt><trkpt lat="43.638771933960804" lon="10.359810701620184"><ele>2.0</ele><time>2026-03-29T15:02:34Z</time></trkpt><trkpt lat="43.638992943814706" lon="10.360003363597697"><ele>2.0</ele><time>2026-03-29T15:02:35Z</time></trkpt><trkpt lat="43.63921078499638" lon="10.360205304422406"><ele>2.0</ele><time>2026-03-29T15:02:36Z</time></trkpt><trkpt lat="43.639424457269584" lon="10.36040776526551"><ele>0.0</ele><time>2026-03-29T15:02:37Z</time></trkpt><trkpt lat="43.63963554867219" lon="10.360619373399308"><ele>-2.0</ele><time>2026-03-29T15:02:38Z</time></trkpt><trkpt lat="43.639846708569536" lon="10.36083119449079"><ele>-2.0</ele><time>2026-03-29T15:02:39Z</time></trkpt><trkpt lat="43.64006042884734" lon="10.361036901836506"><ele>-2.0</ele><time>2026-03-29T15:02:40Z</time></trkpt><trkpt lat="43.64027739917273" lon="10.36123966005634"><ele>-1.5</ele><time>2026-03-29T15:02:41Z</time></trkpt><trkpt lat="43.64049416501058" lon="10.361440013932315"><ele>-1.0</ele><time>2026-03-29T15:02:42Z</time></trkpt><trkpt lat="43.64070748055434" lon="10.361639515770493"><ele>-1.0</ele><time>2026-03-29T15:02:43Z</time></trkpt><trkpt lat="43.64092098335249" lon="10.361840236893428"><ele>-1.0</ele><time>2026-03-29T15:02:44Z</time></trkpt><trkpt lat="43.64113297265449" lon="10.362039485054408"><ele>-1.0</ele><time>2026-03-29T15:02:45Z</time></trkpt><trkpt lat="43.64134016835658" lon="10.362238689093605"><ele>-1.0</ele><time>2026-03-29T15:02:46Z</time></trkpt><trkpt lat="43.64155036748826" lon="10.362436945675944"><ele>-1.0</ele><time>2026-03-29T15:02:47Z</time></trkpt><trkpt lat="43.64176043910638" lon="10.362635215642303"><ele>-1.0</ele><time>2026-03-29T15:02:48Z</time></trkpt><trkpt lat="43.64196819488556" lon="10.362831195056268"><ele>-2.0</ele><time>2026-03-29T15:02:49Z</time></trkpt><trkpt lat="43.64217929581285" lon="10.363030061005828"><ele>-3.0</ele><time>2026-03-29T15:02:49.999Z</time></trkpt><trkpt lat="43.642387874047486" lon="10.36322734263048"><ele>-3.0</ele><time>2026-03-29T15:02:50.999Z</time></trkpt><trkpt lat="43.64259314915922" lon="10.363423647627565"><ele>-3.0</ele><time>2026-03-29T15:02:51.999Z</time></trkpt><trkpt lat="43.64280108937185" lon="10.363623550744393"><ele>-2.5</ele><time>2026-03-29T15:02:52.999Z</time></trkpt><trkpt lat="43.643010130615174" lon="10.363823145115374"><ele>-2.0</ele><time>2026-03-29T15:02:53.999Z</time></trkpt><trkpt lat="43.64321737363935" lon="10.364020212099415"><ele>-1.5</ele><time>2026-03-29T15:02:54.999Z</time></trkpt><trkpt lat="43.64343020969642" lon="10.36422146736569"><ele>-1.0</ele><time>2026-03-29T15:02:55.999Z</time></trkpt><trkpt lat="43.64364308740901" lon="10.36442409163335"><ele>-1.0</ele><time>2026-03-29T15:02:56.999Z</time></trkpt><trkpt lat="43.64385714205403" lon="10.36463007218306"><ele>-1.0</ele><time>2026-03-29T15:02:57.999Z</time></trkpt><trkpt lat="43.64407440567663" lon="10.364838373300655"><ele>-1.0</ele><time>2026-03-29T15:02:58.999Z</time></trkpt><trkpt lat="43.644292811671015" lon="10.365046249212337"><ele>-1.0</ele><time>2026-03-29T15:02:59.999Z</time></trkpt><trkpt lat="43.64451305743235" lon="10.365253746899734"><ele>-1.0</ele><time>2026-03-29T15:03:00.999Z</time></trkpt><trkpt lat="43.64473310325503" lon="10.365464567598464"><ele>-1.0</ele><time>2026-03-29T15:03:01.999Z</time></trkpt><trkpt lat="43.64495409650121" lon="10.365676172068172"><ele>-1.5</ele><time>2026-03-29T15:03:02.999Z</time></trkpt><trkpt lat="43.645176986646135" lon="10.3658865670288"><ele>-2.0</ele><time>2026-03-29T15:03:03.999Z</time></trkpt><trkpt lat="43.64540068975695" lon="10.366096813455966"><ele>-2.0</ele><time>2026-03-29T15:03:04.999Z</time></trkpt><trkpt lat="43.645625959727965" lon="10.366307721676202"><ele>-2.0</ele><time>2026-03-29T15:03:05.999Z</time></trkpt><trkpt lat="43.64585185357374" lon="10.366519426192202"><ele>-2.5</ele><time>2026-03-29T15:03:06.999Z</time></trkpt><trkpt lat="43.646074861925754" lon="10.366731181649214"><ele>-3.0</ele><time>2026-03-29T15:03:07.999Z</time></trkpt><trkpt lat="43.64629788898963" lon="10.366942892372775"><ele>-3.0</ele><time>2026-03-29T15:03:08.999Z</time></trkpt><trkpt lat="43.64650520731938" lon="10.367143242601538"><ele>-3.0</ele><time>2026-03-29T15:03:09.999Z</time></trkpt><trkpt lat="43.64671552554975" lon="10.367336328861413"><ele>-2.0</ele><time>2026-03-29T15:03:10.999Z</time></trkpt><trkpt lat="43.64692699432874" lon="10.367524277931984"><ele>-1.0</ele><time>2026-03-29T15:03:11.999Z</time></trkpt><trkpt lat="43.64714102481801" lon="10.367709652190772"><ele>-1.0</ele><time>2026-03-29T15:03:12.999Z</time></trkpt><trkpt lat="43.64735281077662" lon="10.36788660049705"><ele>-1.0</ele><time>2026-03-29T15:03:13.999Z</time></trkpt><trkpt lat="43.64756835590112" lon="10.368057843974807"><ele>0.5</ele><time>2026-03-29T15:03:14.999Z</time></trkpt><trkpt lat="43.64778758393903" lon="10.368224766337725"><ele>2.0</ele><time>2026-03-29T15:03:15.999Z</time></trkpt><trkpt lat="43.64800556590338" lon="10.368384074928732"><ele>2.5</ele><time>2026-03-29T15:03:16.999Z</time></trkpt><trkpt lat="43.648224844343495" lon="10.368535862375348"><ele>3.0</ele><time>2026-03-29T15:03:17.999Z</time></trkpt><trkpt lat="43.6484483347845" lon="10.36868213486088"><ele>2.5</ele><time>2026-03-29T15:03:18.999Z</time></trkpt><trkpt lat="43.64867428334636" lon="10.368823152809117"><ele>2.0</ele><time>2026-03-29T15:03:19.999Z</time></trkpt><trkpt lat="43.648900016393334" lon="10.36896012068065"><ele>1.5</ele><time>2026-03-29T15:03:20.999Z</time></trkpt><trkpt lat="43.6491288816805" lon="10.369090203096809"><ele>1.0</ele><time>2026-03-29T15:03:21.999Z</time></trkpt><trkpt lat="43.649359193966966" lon="10.36921821878994"><ele>1.0</ele><time>2026-03-29T15:03:22.999Z</time></trkpt><trkpt lat="43.64958818757339" lon="10.369336506607981"><ele>1.0</ele><time>2026-03-29T15:03:23.999Z</time></trkpt><trkpt lat="43.6498223608669" lon="10.369450907891256"><ele>1.0</ele><time>2026-03-29T15:03:24.999Z</time></trkpt><trkpt lat="43.650059882026376" lon="10.36956088691657"><ele>1.0</ele><time>2026-03-29T15:03:25.999Z</time></trkpt><trkpt lat="43.650300534965275" lon="10.369661946512291"><ele>2.0</ele><time>2026-03-29T15:03:26.999Z</time></trkpt><trkpt lat="43.65054317772554" lon="10.36975536253483"><ele>3.0</ele><time>2026-03-29T15:03:27.999Z</time></trkpt><trkpt lat="43.65078698588986" lon="10.369842517854398"><ele>3.0</ele><time>2026-03-29T15:03:28.999Z</time></trkpt><trkpt lat="43.65103442843743" lon="10.36992998951041"><ele>3.0</ele><time>2026-03-29T15:03:29.999Z</time></trkpt><trkpt lat="43.65128325647018" lon="10.37000882317886"><ele>2.0</ele><time>2026-03-29T15:03:30.999Z</time></trkpt><trkpt lat="43.65153155644941" lon="10.370079696956392"><ele>1.0</ele><time>2026-03-29T15:03:31.999Z</time></trkpt><trkpt lat="43.65178144230877" lon="10.370144605294573"><ele>1.5</ele><time>2026-03-29T15:03:32.999Z</time></trkpt><trkpt lat="43.652030191668715" lon="10.370200730819015"><ele>2.0</ele><time>2026-03-29T15:03:33.999Z</time></trkpt><trkpt lat="43.65227809598111" lon="10.370254144271923"><ele>2.0</ele><time>2026-03-29T15:03:34.999Z</time></trkpt><trkpt lat="43.65252816738368" lon="10.370298991312858"><ele>2.0</ele><time>2026-03-29T15:03:35.999Z</time></trkpt><trkpt lat="43.65278153469735" lon="10.370341460334352"><ele>3.5</ele><time>2026-03-29T15:03:36.999Z</time></trkpt><trkpt lat="43.653041262279366" lon="10.370376495498341"><ele>5.0</ele><time>2026-03-29T15:03:37.999Z</time></trkpt><trkpt lat="43.65330790622046" lon="10.370397551901496"><ele>5.0</ele><time>2026-03-29T15:03:38.999Z</time></trkpt><trkpt lat="43.65357322046949" lon="10.370409267194704"><ele>5.0</ele><time>2026-03-29T15:03:39.999Z</time></trkpt><trkpt lat="43.65383559851659" lon="10.37041423873036"><ele>6.0</ele><time>2026-03-29T15:03:40.999Z</time></trkpt><trkpt lat="43.65409785298603" lon="10.370414276979421"><ele>7.0</ele><time>2026-03-29T15:03:41.999Z</time></trkpt><trkpt lat="43.65436248043318" lon="10.370414598760709"><ele>3.5</ele><time>2026-03-29T15:03:42.999Z</time></trkpt><trkpt lat="43.654623228035824" lon="10.370411126630913"><ele>0.0</ele><time>2026-03-29T15:03:43.999Z</time></trkpt><trkpt lat="43.654889038260485" lon="10.370402341193605"><ele>0.0</ele><time>2026-03-29T15:03:44.999Z</time></trkpt><trkpt lat="43.65515362820319" lon="10.370385296084333"><ele>0.0</ele><time>2026-03-29T15:03:45.999Z</time></trkpt><trkpt lat="43.65541841486894" lon="10.37036196603817"><ele>-0.5</ele><time>2026-03-29T15:03:46.999Z</time></trkpt><trkpt lat="43.65567876675531" lon="10.370330366024874"><ele>-1.0</ele><time>2026-03-29T15:03:47.999Z</time></trkpt><trkpt lat="43.65593940306131" lon="10.370292312595412"><ele>-1.0</ele><time>2026-03-29T15:03:48.999Z</time></trkpt><trkpt lat="43.656201720290696" lon="10.370244108428336"><ele>-1.0</ele><time>2026-03-29T15:03:49.999Z</time></trkpt><trkpt lat="43.656462736918286" lon="10.370189983122753"><ele>-1.0</ele><time>2026-03-29T15:03:50.999Z</time></trkpt><trkpt lat="43.656722833774886" lon="10.370128163707438"><ele>-1.0</ele><time>2026-03-29T15:03:52Z</time></trkpt><trkpt lat="43.6569751945235" lon="10.370047364644796"><ele>-1.5</ele><time>2026-03-29T15:03:53Z</time></trkpt><trkpt lat="43.657236441476904" lon="10.369969430925563"><ele>-2.0</ele><time>2026-03-29T15:03:54Z</time></trkpt><trkpt lat="43.657497023461524" lon="10.369883232143922"><ele>-2.0</ele><time>2026-03-29T15:03:55Z</time></trkpt><trkpt lat="43.657755565413964" lon="10.369789360520521"><ele>-2.0</ele><time>2026-03-29T15:03:56Z</time></trkpt><trkpt lat="43.658011320821004" lon="10.369685818918613"><ele>-1.5</ele><time>2026-03-29T15:03:57Z</time></trkpt><trkpt lat="43.65826260025378" lon="10.369574978074183"><ele>-1.0</ele><time>2026-03-29T15:03:58Z</time></trkpt><trkpt lat="43.658513471335496" lon="10.369460913369291"><ele>-1.0</ele><time>2026-03-29T15:03:59Z</time></trkpt><trkpt lat="43.658758875265384" lon="10.369342208631172"><ele>-1.0</ele><time>2026-03-29T15:04:00Z</time></trkpt><trkpt lat="43.65900444322073" lon="10.369219058304804"><ele>-1.0</ele><time>2026-03-29T15:04:01Z</time></trkpt><trkpt lat="43.659247909933555" lon="10.36908945488169"><ele>-1.0</ele><time>2026-03-29T15:04:02Z</time></trkpt><trkpt lat="43.65949104160007" lon="10.368954180317624"><ele>0.5</ele><time>2026-03-29T15:04:03Z</time></trkpt><trkpt lat="43.65973098069413" lon="10.368812227419994"><ele>2.0</ele><time>2026-03-29T15:04:04Z</time></trkpt><trkpt lat="43.65996651192613" lon="10.368662804944238"><ele>2.0</ele><time>2026-03-29T15:04:05Z</time></trkpt><trkpt lat="43.660198185959665" lon="10.368505732105575"><ele>2.0</ele><time>2026-03-29T15:04:06Z</time></trkpt><trkpt lat="43.66042653541411" lon="10.368342817211012"><ele>2.0</ele><time>2026-03-29T15:04:07Z</time></trkpt><trkpt lat="43.66065249877207" lon="10.368177982698736"><ele>2.0</ele><time>2026-03-29T15:04:08Z</time></trkpt><trkpt lat="43.66087865217383" lon="10.368007878837055"><ele>2.5</ele><time>2026-03-29T15:04:09Z</time></trkpt><trkpt lat="43.661101583952714" lon="10.367833566410038"><ele>3.0</ele><time>2026-03-29T15:04:10Z</time></trkpt><trkpt lat="43.66131889648083" lon="10.367655023527941"><ele>3.0</ele><time>2026-03-29T15:04:11Z</time></trkpt><trkpt lat="43.661535183834175" lon="10.367467004579673"><ele>3.0</ele><time>2026-03-29T15:04:12Z</time></trkpt><trkpt lat="43.66174639403512" lon="10.367275753895083"><ele>3.0</ele><time>2026-03-29T15:04:13Z</time></trkpt><trkpt lat="43.66195497239003" lon="10.367078598288229"><ele>3.0</ele><time>2026-03-29T15:04:14Z</time></trkpt><trkpt lat="43.66216111808108" lon="10.366874607325093"><ele>3.0</ele><time>2026-03-29T15:04:15Z</time></trkpt><trkpt lat="43.66236675663583" lon="10.366665517890391"><ele>3.0</ele><time>2026-03-29T15:04:16Z</time></trkpt><trkpt lat="43.66256867238788" lon="10.366453890969437"><ele>3.0</ele><time>2026-03-29T15:04:17Z</time></trkpt><trkpt lat="43.66276679138507" lon="10.366237156902338"><ele>3.0</ele><time>2026-03-29T15:04:18Z</time></trkpt><trkpt lat="43.66296226142951" lon="10.366014231274772"><ele>4.0</ele><time>2026-03-29T15:04:19Z</time></trkpt><trkpt lat="43.66315804086354" lon="10.365787165720988"><ele>5.0</ele><time>2026-03-29T15:04:20Z</time></trkpt><trkpt lat="43.663351496883514" lon="10.36555577578016"><ele>5.0</ele><time>2026-03-29T15:04:21Z</time></trkpt><trkpt lat="43.66354652879773" lon="10.36532434636723"><ele>5.0</ele><time>2026-03-29T15:04:22Z</time></trkpt><trkpt lat="43.66374102613768" lon="10.36509442885137"><ele>4.5</ele><time>2026-03-29T15:04:23Z</time></trkpt><trkpt lat="43.66393890832131" lon="10.364863796382087"><ele>4.0</ele><time>2026-03-29T15:04:24Z</time></trkpt><trkpt lat="43.6641356226054" lon="10.364629750209199"><ele>3.5</ele><time>2026-03-29T15:04:25Z</time></trkpt><trkpt lat="43.6643358701289" lon="10.36439361372918"><ele>3.0</ele><time>2026-03-29T15:04:26Z</time></trkpt><trkpt lat="43.66453360710362" lon="10.364158893395038"><ele>3.0</ele><time>2026-03-29T15:04:27Z</time></trkpt><trkpt lat="43.66473213521393" lon="10.363924871647118"><ele>3.0</ele><time>2026-03-29T15:04:28Z</time></trkpt><trkpt lat="43.66493118221481" lon="10.363689729171972"><ele>2.5</ele><time>2026-03-29T15:04:29Z</time></trkpt><trkpt lat="43.66512933814089" lon="10.363454701466098"><ele>2.0</ele><time>2026-03-29T15:04:30Z</time></trkpt><trkpt lat="43.66532961677477" lon="10.363217644547438"><ele>2.5</ele><time>2026-03-29T15:04:31Z</time></trkpt><trkpt lat="43.6655294202889" lon="10.362980427984192"><ele>3.0</ele><time>2026-03-29T15:04:32Z</time></trkpt><trkpt lat="43.66573184179989" lon="10.362743678346733"><ele>3.0</ele><time>2026-03-29T15:04:33Z</time></trkpt><trkpt lat="43.66593607517269" lon="10.362505909429577"><ele>3.0</ele><time>2026-03-29T15:04:34Z</time></trkpt><trkpt lat="43.66614061846685" lon="10.362264576333459"><ele>3.0</ele><time>2026-03-29T15:04:35Z</time></trkpt><trkpt lat="43.666343312730724" lon="10.362023621115295"><ele>3.0</ele><time>2026-03-29T15:04:36Z</time></trkpt><trkpt lat="43.666549171970146" lon="10.36178008855588"><ele>3.0</ele><time>2026-03-29T15:04:37Z</time></trkpt><trkpt lat="43.666754965456825" lon="10.361536260693796"><ele>3.0</ele><time>2026-03-29T15:04:38Z</time></trkpt><trkpt lat="43.66696139951733" lon="10.361292405845683"><ele>3.5</ele><time>2026-03-29T15:04:39Z</time></trkpt><trkpt lat="43.66716912672617" lon="10.361049358186103"><ele>4.0</ele><time>2026-03-29T15:04:40Z</time></trkpt><trkpt lat="43.66737624910237" lon="10.360805561162028"><ele>4.0</ele><time>2026-03-29T15:04:41Z</time></trkpt><trkpt lat="43.66758607581779" lon="10.360564441957028"><ele>4.0</ele><time>2026-03-29T15:04:42Z</time></trkpt><trkpt lat="43.667792448469015" lon="10.360318553227199"><ele>4.0</ele><time>2026-03-29T15:04:43Z</time></trkpt><trkpt lat="43.667992572690366" lon="10.360072578900985"><ele>4.0</ele><time>2026-03-29T15:04:44Z</time></trkpt><trkpt lat="43.66819506087897" lon="10.359832998011301"><ele>3.5</ele><time>2026-03-29T15:04:45Z</time></trkpt><trkpt lat="43.66839607290346" lon="10.359596621422511"><ele>3.0</ele><time>2026-03-29T15:04:46Z</time></trkpt><trkpt lat="43.668598065553695" lon="10.359364683367582"><ele>4.0</ele><time>2026-03-29T15:04:47Z</time></trkpt><trkpt lat="43.668800144588594" lon="10.35912741056554"><ele>5.0</ele><time>2026-03-29T15:04:48Z</time></trkpt><trkpt lat="43.66900196864696" lon="10.358888176143678"><ele>3.5</ele><time>2026-03-29T15:04:49Z</time></trkpt><trkpt lat="43.66920510760432" lon="10.358646456628732"><ele>2.0</ele><time>2026-03-29T15:04:50Z</time></trkpt><trkpt lat="43.66941246698383" lon="10.358401184749056"><ele>1.5</ele><time>2026-03-29T15:04:51Z</time></trkpt><trkpt lat="43.669617597068466" lon="10.358158952209271"><ele>1.0</ele><time>2026-03-29T15:04:52Z</time></trkpt><trkpt lat="43.66982588347721" lon="10.357913045884452"><ele>1.0</ele><time>2026-03-29T15:04:53Z</time></trkpt><trkpt lat="43.67003244656508" lon="10.357665778105707"><ele>1.0</ele><time>2026-03-29T15:04:54Z</time></trkpt><trkpt lat="43.67024298313055" lon="10.357416709657855"><ele>0.5</ele><time>2026-03-29T15:04:55Z</time></trkpt><trkpt lat="43.67045487504001" lon="10.357172151170458"><ele>0.0</ele><time>2026-03-29T15:04:56Z</time></trkpt><trkpt lat="43.67067163111217" lon="10.356922013823171"><ele>0.0</ele><time>2026-03-29T15:04:57Z</time></trkpt><trkpt lat="43.67088580349338" lon="10.35667154070791"><ele>0.0</ele><time>2026-03-29T15:04:58Z</time></trkpt><trkpt lat="43.67110130455889" lon="10.35642037029638"><ele>-1.0</ele><time>2026-03-29T15:04:59Z</time></trkpt><trkpt lat="43.67132454871694" lon="10.356175124992635"><ele>-2.0</ele><time>2026-03-29T15:05:00Z</time></trkpt><trkpt lat="43.67154957339834" lon="10.355930693152914"><ele>-2.0</ele><time>2026-03-29T15:05:01Z</time></trkpt><trkpt lat="43.671784949772636" lon="10.355699592120514"><ele>-2.0</ele><time>2026-03-29T15:05:02Z</time></trkpt><trkpt lat="43.67202513445762" lon="10.355481989910006"><ele>0.0</ele><time>2026-03-29T15:05:03Z</time></trkpt><trkpt lat="43.67227642848569" lon="10.355279447827707"><ele>2.0</ele><time>2026-03-29T15:05:04Z</time></trkpt><trkpt lat="43.67253090221702" lon="10.355084021570942"><ele>3.5</ele><time>2026-03-29T15:05:05Z</time></trkpt><trkpt lat="43.672788981327976" lon="10.354898169746974"><ele>5.0</ele><time>2026-03-29T15:05:06Z</time></trkpt><trkpt lat="43.67305200976554" lon="10.35472354829652"><ele>7.5</ele><time>2026-03-29T15:05:07Z</time></trkpt><trkpt lat="43.67331766630703" lon="10.354560848035009"><ele>10.0</ele><time>2026-03-29T15:05:08Z</time></trkpt><trkpt lat="43.67359120656422" lon="10.354415961657189"><ele>9.0</ele><time>2026-03-29T15:05:08.999Z</time></trkpt><trkpt lat="43.6738659271191" lon="10.354276732420045"><ele>8.0</ele><time>2026-03-29T15:05:09.999Z</time></trkpt><trkpt lat="43.67414450933932" lon="10.354151216755364"><ele>8.0</ele><time>2026-03-29T15:05:10.999Z</time></trkpt><trkpt lat="43.67442698856144" lon="10.35403578724762"><ele>8.0</ele><time>2026-03-29T15:05:11.999Z</time></trkpt><trkpt lat="43.67471031657946" lon="10.35393555143312"><ele>3.5</ele><time>2026-03-29T15:05:12.999Z</time></trkpt><trkpt lat="43.67499296808791" lon="10.353839278214554"><ele>-1.0</ele><time>2026-03-29T15:05:13.999Z</time></trkpt><trkpt lat="43.67527891255201" lon="10.35376724845252"><ele>-1.0</ele><time>2026-03-29T15:05:14.999Z</time></trkpt><trkpt lat="43.67556736535126" lon="10.353704977104025"><ele>-1.0</ele><time>2026-03-29T15:05:15.999Z</time></trkpt><trkpt lat="43.67585876015044" lon="10.35366611238715"><ele>-1.0</ele><time>2026-03-29T15:05:16.999Z</time></trkpt><trkpt lat="43.67614862651814" lon="10.353633820943879"><ele>-1.0</ele><time>2026-03-29T15:05:17.999Z</time></trkpt><trkpt lat="43.67644043026235" lon="10.353610307688458"><ele>-1.0</ele><time>2026-03-29T15:05:18.999Z</time></trkpt><trkpt lat="43.67673054732003" lon="10.353599636061485"><ele>-1.0</ele><time>2026-03-29T15:05:19.999Z</time></trkpt><trkpt lat="43.6770221350275" lon="10.353592843052027"><ele>-1.0</ele><time>2026-03-29T15:05:20.999Z</time></trkpt><trkpt lat="43.677314053787406" lon="10.353604028096386"><ele>-1.0</ele><time>2026-03-29T15:05:21.999Z</time></trkpt><trkpt lat="43.677601244828566" lon="10.35362362243627"><ele>-0.5</ele><time>2026-03-29T15:05:22.999Z</time></trkpt><trkpt lat="43.6778936602198" lon="10.35365198603795"><ele>0.0</ele><time>2026-03-29T15:05:23.999Z</time></trkpt><trkpt lat="43.67818410040444" lon="10.353681095524207"><ele>0.0</ele><time>2026-03-29T15:05:24.999Z</time></trkpt><trkpt lat="43.67847277223664" lon="10.353706980445919"><ele>0.0</ele><time>2026-03-29T15:05:25.999Z</time></trkpt><trkpt lat="43.67876634309929" lon="10.353729104774745"><ele>0.0</ele><time>2026-03-29T15:05:26.999Z</time></trkpt><trkpt lat="43.67905632920154" lon="10.353750234744489"><ele>0.0</ele><time>2026-03-29T15:05:27.999Z</time></trkpt><trkpt lat="43.679346528753335" lon="10.35377204599432"><ele>-0.5</ele><time>2026-03-29T15:05:28.999Z</time></trkpt><trkpt lat="43.679635227352364" lon="10.353796343219688"><ele>-1.0</ele><time>2026-03-29T15:05:29.999Z</time></trkpt><trkpt lat="43.67992426607491" lon="10.353818923468541"><ele>-1.0</ele><time>2026-03-29T15:05:30.999Z</time></trkpt><trkpt lat="43.68021299132334" lon="10.353844705759458"><ele>-1.0</ele><time>2026-03-29T15:05:31.999Z</time></trkpt><trkpt lat="43.68049109631005" lon="10.353865970128863"><ele>-0.5</ele><time>2026-03-29T15:05:32.999Z</time></trkpt><trkpt lat="43.680785524999166" lon="10.353888477589804"><ele>0.0</ele><time>2026-03-29T15:05:33.999Z</time></trkpt><trkpt lat="43.6810758814314" lon="10.353915930018125"><ele>0.5</ele><time>2026-03-29T15:05:34.999Z</time></trkpt><trkpt lat="43.68136602606909" lon="10.353938897834308"><ele>1.0</ele><time>2026-03-29T15:05:35.999Z</time></trkpt><trkpt lat="43.6816512554985" lon="10.353963450828694"><ele>2.0</ele><time>2026-03-29T15:05:36.999Z</time></trkpt><trkpt lat="43.68193669616353" lon="10.353988233195523"><ele>3.0</ele><time>2026-03-29T15:05:37.999Z</time></trkpt><trkpt lat="43.682219456355895" lon="10.354014402324173"><ele>3.0</ele><time>2026-03-29T15:05:38.999Z</time></trkpt><trkpt lat="43.68250439328603" lon="10.354044528440422"><ele>3.0</ele><time>2026-03-29T15:05:39.999Z</time></trkpt><trkpt lat="43.682786756822146" lon="10.354068411107122"><ele>1.0</ele><time>2026-03-29T15:05:40.999Z</time></trkpt><trkpt lat="43.683066018699314" lon="10.354103463583053"><ele>-1.0</ele><time>2026-03-29T15:05:41.999Z</time></trkpt><trkpt lat="43.68334854322918" lon="10.354128087173882"><ele>-1.0</ele><time>2026-03-29T15:05:42.999Z</time></trkpt><trkpt lat="43.68362713833163" lon="10.354150410596223"><ele>-1.0</ele><time>2026-03-29T15:05:43.999Z</time></trkpt><trkpt lat="43.68390553486658" lon="10.354174697120994"><ele>-1.0</ele><time>2026-03-29T15:05:44.999Z</time></trkpt><trkpt lat="43.68418383859949" lon="10.354196152459515"><ele>-1.0</ele><time>2026-03-29T15:05:45.999Z</time></trkpt><trkpt lat="43.684461537068046" lon="10.354218173918069"><ele>0.0</ele><time>2026-03-29T15:05:46.999Z</time></trkpt><trkpt lat="43.68474327781983" lon="10.354243478518477"><ele>1.0</ele><time>2026-03-29T15:05:47.999Z</time></trkpt><trkpt lat="43.685014370899644" lon="10.354263285063166"><ele>1.0</ele><time>2026-03-29T15:05:48.999Z</time></trkpt><trkpt lat="43.685290935423" lon="10.354289456411003"><ele>1.0</ele><time>2026-03-29T15:05:49.999Z</time></trkpt><trkpt lat="43.68556815445395" lon="10.35431116787257"><ele>1.0</ele><time>2026-03-29T15:05:50.999Z</time></trkpt><trkpt lat="43.68584597739158" lon="10.354332186668113"><ele>1.0</ele><time>2026-03-29T15:05:51.999Z</time></trkpt><trkpt lat="43.68614070522981" lon="10.354356061464799"><ele>1.0</ele><time>2026-03-29T15:05:52.999Z</time></trkpt><trkpt lat="43.68644789668815" lon="10.354376811470122"><ele>1.0</ele><time>2026-03-29T15:05:53.999Z</time></trkpt><trkpt lat="43.68675988964829" lon="10.354400759185731"><ele>1.5</ele><time>2026-03-29T15:05:54.999Z</time></trkpt><trkpt lat="43.68705174308238" lon="10.354427005883581"><ele>2.0</ele><time>2026-03-29T15:05:55.999Z</time></trkpt><trkpt lat="43.687345416519825" lon="10.354453162300839"><ele>2.0</ele><time>2026-03-29T15:05:56.999Z</time></trkpt><trkpt lat="43.687640417125394" lon="10.354472906959087"><ele>2.0</ele><time>2026-03-29T15:05:58Z</time></trkpt><trkpt lat="43.687931479264556" lon="10.35449539733876"><ele>2.5</ele><time>2026-03-29T15:05:59Z</time></trkpt><trkpt lat="43.68822232558948" lon="10.354510338177358"><ele>3.0</ele><time>2026-03-29T15:06:00Z</time></trkpt><trkpt lat="43.68851299366049" lon="10.354522427250433"><ele>2.5</ele><time>2026-03-29T15:06:01Z</time></trkpt><trkpt lat="43.68880447859335" lon="10.354521031056022"><ele>2.0</ele><time>2026-03-29T15:06:02Z</time></trkpt><trkpt lat="43.68909619256928" lon="10.354505130854777"><ele>2.0</ele><time>2026-03-29T15:06:03Z</time></trkpt><trkpt lat="43.68938512650548" lon="10.354490673765858"><ele>2.0</ele><time>2026-03-29T15:06:04Z</time></trkpt><trkpt lat="43.689673006520486" lon="10.354461609557333"><ele>2.5</ele><time>2026-03-29T15:06:05Z</time></trkpt><trkpt lat="43.689957923964684" lon="10.354423628376654"><ele>3.0</ele><time>2026-03-29T15:06:06Z</time></trkpt><trkpt lat="43.6902398185827" lon="10.354380961248122"><ele>2.5</ele><time>2026-03-29T15:06:07Z</time></trkpt><trkpt lat="43.6905208491484" lon="10.354325679556085"><ele>2.0</ele><time>2026-03-29T15:06:08Z</time></trkpt><trkpt lat="43.69080080350825" lon="10.354260399922003"><ele>2.0</ele><time>2026-03-29T15:06:09Z</time></trkpt><trkpt lat="43.691075473335" lon="10.354190289870703"><ele>2.0</ele><time>2026-03-29T15:06:10Z</time></trkpt><trkpt lat="43.69135115975261" lon="10.354112931839882"><ele>1.5</ele><time>2026-03-29T15:06:11Z</time></trkpt><trkpt lat="43.69162489260424" lon="10.354030870543419"><ele>1.0</ele><time>2026-03-29T15:06:12Z</time></trkpt><trkpt lat="43.69189571590545" lon="10.353952147385295"><ele>1.5</ele><time>2026-03-29T15:06:13Z</time></trkpt><trkpt lat="43.692165981517924" lon="10.353875367649449"><ele>2.0</ele><time>2026-03-29T15:06:14Z</time></trkpt><trkpt lat="43.692440270515355" lon="10.35379908700124"><ele>2.5</ele><time>2026-03-29T15:06:15Z</time></trkpt><trkpt lat="43.69271408633149" lon="10.353726677872288"><ele>3.0</ele><time>2026-03-29T15:06:16Z</time></trkpt><trkpt lat="43.69298775899542" lon="10.353650934624206"><ele>4.5</ele><time>2026-03-29T15:06:17Z</time></trkpt><trkpt lat="43.693262955579804" lon="10.353574189152607"><ele>6.0</ele><time>2026-03-29T15:06:18Z</time></trkpt><trkpt lat="43.69353853863806" lon="10.353498059586347"><ele>4.5</ele><time>2026-03-29T15:06:19Z</time></trkpt><trkpt lat="43.693814036547074" lon="10.353422142079888"><ele>3.0</ele><time>2026-03-29T15:06:20Z</time></trkpt><trkpt lat="43.69409242970297" lon="10.353344123531189"><ele>3.0</ele><time>2026-03-29T15:06:21Z</time></trkpt><trkpt lat="43.694370838336596" lon="10.353263804973048"><ele>3.0</ele><time>2026-03-29T15:06:22Z</time></trkpt><trkpt lat="43.69465070249087" lon="10.353184991982141"><ele>2.5</ele><time>2026-03-29T15:06:23Z</time></trkpt><trkpt lat="43.69493160254926" lon="10.353106302714263"><ele>2.0</ele><time>2026-03-29T15:06:24Z</time></trkpt><trkpt lat="43.695212152639435" lon="10.353028089941217"><ele>2.5</ele><time>2026-03-29T15:06:25Z</time></trkpt><trkpt lat="43.69549480582055" lon="10.352947972377919"><ele>3.0</ele><time>2026-03-29T15:06:26Z</time></trkpt><trkpt lat="43.695776357988635" lon="10.35286829950999"><ele>3.0</ele><time>2026-03-29T15:06:27Z</time></trkpt><trkpt lat="43.69606038920731" lon="10.352787570162729"><ele>3.0</ele><time>2026-03-29T15:06:28Z</time></trkpt><trkpt lat="43.69634450585392" lon="10.35270705294926"><ele>3.0</ele><time>2026-03-29T15:06:29Z</time></trkpt><trkpt lat="43.696629390446816" lon="10.35262608250015"><ele>3.0</ele><time>2026-03-29T15:06:30Z</time></trkpt><trkpt lat="43.69691363466239" lon="10.35254646142976"><ele>2.5</ele><time>2026-03-29T15:06:31Z</time></trkpt><trkpt lat="43.69720017443207" lon="10.352466701197685"><ele>2.0</ele><time>2026-03-29T15:06:32Z</time></trkpt><trkpt lat="43.69748671161391" lon="10.352387885211826"><ele>2.0</ele><time>2026-03-29T15:06:33Z</time></trkpt><trkpt lat="43.69777559281224" lon="10.352307945097971"><ele>2.0</ele><time>2026-03-29T15:06:34Z</time></trkpt><trkpt lat="43.6980665143956" lon="10.352225985226768"><ele>2.0</ele><time>2026-03-29T15:06:35Z</time></trkpt><trkpt lat="43.69835842293068" lon="10.352141290115567"><ele>2.0</ele><time>2026-03-29T15:06:36Z</time></trkpt><trkpt lat="43.69865163213164" lon="10.352058190780063"><ele>2.0</ele><time>2026-03-29T15:06:37Z</time></trkpt><trkpt lat="43.698944974420534" lon="10.351972844357842"><ele>2.0</ele><time>2026-03-29T15:06:38Z</time></trkpt><trkpt lat="43.69924144057447" lon="10.351886225655091"><ele>1.5</ele><time>2026-03-29T15:06:39Z</time></trkpt><trkpt lat="43.69953574278858" lon="10.351803047567069"><ele>1.0</ele><time>2026-03-29T15:06:40Z</time></trkpt><trkpt lat="43.69983244757494" lon="10.35172119187856"><ele>1.0</ele><time>2026-03-29T15:06:41Z</time></trkpt><trkpt lat="43.70012681207374" lon="10.351638052168031"><ele>1.0</ele><time>2026-03-29T15:06:42Z</time></trkpt><trkpt lat="43.70041826011946" lon="10.351555530479143"><ele>0.5</ele><time>2026-03-29T15:06:43Z</time></trkpt><trkpt lat="43.700710506588045" lon="10.351474323694777"><ele>0.0</ele><time>2026-03-29T15:06:44Z</time></trkpt><trkpt lat="43.70099623625294" lon="10.351390544565177"><ele>0.5</ele><time>2026-03-29T15:06:45Z</time></trkpt><trkpt lat="43.70128725873616" lon="10.351309925609401"><ele>1.0</ele><time>2026-03-29T15:06:46Z</time></trkpt><trkpt lat="43.70157619307689" lon="10.351229854688514"><ele>1.0</ele><time>2026-03-29T15:06:47Z</time></trkpt><trkpt lat="43.701864414061234" lon="10.3511528275344"><ele>1.0</ele><time>2026-03-29T15:06:48Z</time></trkpt><trkpt lat="43.702150828516274" lon="10.351069463859677"><ele>0.5</ele><time>2026-03-29T15:06:49Z</time></trkpt><trkpt lat="43.7024387417175" lon="10.350985911396966"><ele>0.0</ele><time>2026-03-29T15:06:50Z</time></trkpt><trkpt lat="43.70272471902789" lon="10.35090644058404"><ele>0.5</ele><time>2026-03-29T15:06:51Z</time></trkpt><trkpt lat="43.70301192854344" lon="10.350825192163937"><ele>1.0</ele><time>2026-03-29T15:06:52Z</time></trkpt><trkpt lat="43.70329905286352" lon="10.350744397408159"><ele>1.0</ele><time>2026-03-29T15:06:53Z</time></trkpt><trkpt lat="43.70358650951011" lon="10.350660751230183"><ele>1.0</ele><time>2026-03-29T15:06:54Z</time></trkpt><trkpt lat="43.703873913251634" lon="10.35057964313499"><ele>1.5</ele><time>2026-03-29T15:06:55Z</time></trkpt><trkpt lat="43.70415987702443" lon="10.350499644616264"><ele>2.0</ele><time>2026-03-29T15:06:56Z</time></trkpt><trkpt lat="43.70444330064219" lon="10.350419500423238"><ele>2.0</ele><time>2026-03-29T15:06:57Z</time></trkpt><trkpt lat="43.70472832149526" lon="10.35033315928732"><ele>2.0</ele><time>2026-03-29T15:06:58Z</time></trkpt><trkpt lat="43.70501565989958" lon="10.350253312153319"><ele>2.0</ele><time>2026-03-29T15:06:59Z</time></trkpt><trkpt lat="43.70530456181378" lon="10.350170968853481"><ele>2.0</ele><time>2026-03-29T15:07:00Z</time></trkpt><trkpt lat="43.70559445476171" lon="10.350090248308131"><ele>2.0</ele><time>2026-03-29T15:07:01Z</time></trkpt><trkpt lat="43.70588282662145" lon="10.350010425428215"><ele>2.0</ele><time>2026-03-29T15:07:02Z</time></trkpt><trkpt lat="43.706171288433424" lon="10.3499302143003"><ele>2.0</ele><time>2026-03-29T15:07:03Z</time></trkpt><trkpt lat="43.70646114932072" lon="10.349847636939927"><ele>2.0</ele><time>2026-03-29T15:07:04Z</time></trkpt><trkpt lat="43.70675556221706" lon="10.349764811668026"><ele>2.0</ele><time>2026-03-29T15:07:05Z</time></trkpt><trkpt lat="43.70704920705786" lon="10.349678492021093"><ele>2.0</ele><time>2026-03-29T15:07:06Z</time></trkpt><trkpt lat="43.70733685265207" lon="10.34959086672322"><ele>2.0</ele><time>2026-03-29T15:07:07Z</time></trkpt><trkpt lat="43.70760694529244" lon="10.349517872405869"><ele>2.0</ele><time>2026-03-29T15:07:08Z</time></trkpt><trkpt lat="43.70787410955338" lon="10.349446202556619"><ele>1.0</ele><time>2026-03-29T15:07:09Z</time></trkpt><trkpt lat="43.70815067869924" lon="10.349386232109039"><ele>0.0</ele><time>2026-03-29T15:07:10Z</time></trkpt><trkpt lat="43.708431012159515" lon="10.349324155301456"><ele>-0.5</ele><time>2026-03-29T15:07:10.999Z</time></trkpt><trkpt lat="43.70870340667778" lon="10.34927123012027"><ele>-1.0</ele><time>2026-03-29T15:07:11.999Z</time></trkpt><trkpt lat="43.70895600222906" lon="10.349228074419852"><ele>-1.0</ele><time>2026-03-29T15:07:12.999Z</time></trkpt><trkpt lat="43.709212752701376" lon="10.34918937599411"><ele>-1.0</ele><time>2026-03-29T15:07:13.999Z</time></trkpt><trkpt lat="43.70947881356785" lon="10.349152866813927"><ele>-1.0</ele><time>2026-03-29T15:07:14.999Z</time></trkpt><trkpt lat="43.70975388925094" lon="10.349118135625675"><ele>-1.0</ele><time>2026-03-29T15:07:15.999Z</time></trkpt><trkpt lat="43.710035440395046" lon="10.34908755880716"><ele>-1.0</ele><time>2026-03-29T15:07:16.999Z</time></trkpt><trkpt lat="43.71032797873696" lon="10.349059906488234"><ele>-1.0</ele><time>2026-03-29T15:07:17.999Z</time></trkpt><trkpt lat="43.71061917839491" lon="10.349045251682924"><ele>-1.0</ele><time>2026-03-29T15:07:18.999Z</time></trkpt><trkpt lat="43.71091296551266" lon="10.349039357182255"><ele>-1.0</ele><time>2026-03-29T15:07:19.999Z</time></trkpt><trkpt lat="43.71120821566389" lon="10.349041910565232"><ele>-1.0</ele><time>2026-03-29T15:07:20.999Z</time></trkpt><trkpt lat="43.7115076979629" lon="10.34905031285456"><ele>-1.0</ele><time>2026-03-29T15:07:21.999Z</time></trkpt><trkpt lat="43.71180666526846" lon="10.349063852295426"><ele>-1.0</ele><time>2026-03-29T15:07:22.999Z</time></trkpt><trkpt lat="43.712106031249846" lon="10.349083964366741"><ele>-1.0</ele><time>2026-03-29T15:07:23.999Z</time></trkpt><trkpt lat="43.71240413485515" lon="10.34911034494398"><ele>-1.0</ele><time>2026-03-29T15:07:24.999Z</time></trkpt><trkpt lat="43.71270227914313" lon="10.349143102939411"><ele>-1.0</ele><time>2026-03-29T15:07:25.999Z</time></trkpt><trkpt lat="43.712998563675164" lon="10.349175773911961"><ele>-1.0</ele><time>2026-03-29T15:07:26.999Z</time></trkpt><trkpt lat="43.71329850719442" lon="10.349209247301568"><ele>-1.0</ele><time>2026-03-29T15:07:27.999Z</time></trkpt><trkpt lat="43.71359416734254" lon="10.34923674771837"><ele>-1.0</ele><time>2026-03-29T15:07:28.999Z</time></trkpt><trkpt lat="43.71388994063979" lon="10.349267316080022"><ele>-1.0</ele><time>2026-03-29T15:07:29.999Z</time></trkpt><trkpt lat="43.714183882637364" lon="10.349302854356438"><ele>-1.5</ele><time>2026-03-29T15:07:30.999Z</time></trkpt><trkpt lat="43.7144797278296" lon="10.34934154046978"><ele>-2.0</ele><time>2026-03-29T15:07:31.999Z</time></trkpt><trkpt lat="43.7147745877271" lon="10.349375131666616"><ele>-2.0</ele><time>2026-03-29T15:07:32.999Z</time></trkpt><trkpt lat="43.71506840810188" lon="10.3494081633107"><ele>-2.0</ele><time>2026-03-29T15:07:33.999Z</time></trkpt><trkpt lat="43.7153647606522" lon="10.349437807706481"><ele>-1.5</ele><time>2026-03-29T15:07:34.999Z</time></trkpt><trkpt lat="43.71566384775777" lon="10.349468318088311"><ele>-1.0</ele><time>2026-03-29T15:07:35.999Z</time></trkpt><trkpt lat="43.715960809572664" lon="10.349495326247368"><ele>-1.0</ele><time>2026-03-29T15:07:36.999Z</time></trkpt><trkpt lat="43.71625779076457" lon="10.349520400530693"><ele>-1.0</ele><time>2026-03-29T15:07:37.999Z</time></trkpt><trkpt lat="43.71655403757496" lon="10.34954471360727"><ele>-1.0</ele><time>2026-03-29T15:07:38.999Z</time></trkpt><trkpt lat="43.71685253198532" lon="10.349566326320584"><ele>-1.0</ele><time>2026-03-29T15:07:39.999Z</time></trkpt><trkpt lat="43.717148802673265" lon="10.34959092543341"><ele>-1.0</ele><time>2026-03-29T15:07:40.999Z</time></trkpt><trkpt lat="43.71744846807945" lon="10.349618161830657"><ele>-1.0</ele><time>2026-03-29T15:07:41.999Z</time></trkpt><trkpt lat="43.71775198432155" lon="10.349652132207837"><ele>-1.0</ele><time>2026-03-29T15:07:42.999Z</time></trkpt><trkpt lat="43.71805320099447" lon="10.349686093758539"><ele>-1.0</ele><time>2026-03-29T15:07:43.999Z</time></trkpt><trkpt lat="43.718354782961825" lon="10.349719737616768"><ele>0.0</ele><time>2026-03-29T15:07:44.999Z</time></trkpt><trkpt lat="43.71866378390731" lon="10.349750290790585"><ele>1.0</ele><time>2026-03-29T15:07:45.999Z</time></trkpt><trkpt lat="43.71898446545421" lon="10.349780778449446"><ele>1.0</ele><time>2026-03-29T15:07:46.999Z</time></trkpt><trkpt lat="43.71933055852535" lon="10.349817064756623"><ele>1.0</ele><time>2026-03-29T15:07:47.999Z</time></trkpt><trkpt lat="43.71967362285614" lon="10.34985169608305"><ele>2.0</ele><time>2026-03-29T15:07:48.999Z</time></trkpt><trkpt lat="43.720025649709314" lon="10.349887148654757"><ele>3.0</ele><time>2026-03-29T15:07:49.999Z</time></trkpt><trkpt lat="43.72038425018812" lon="10.34992498285181"><ele>4.0</ele><time>2026-03-29T15:07:50.999Z</time></trkpt><trkpt lat="43.72072074423841" lon="10.349960998186885"><ele>5.0</ele><time>2026-03-29T15:07:51.999Z</time></trkpt><trkpt lat="43.72103797675721" lon="10.34998837214089"><ele>5.5</ele><time>2026-03-29T15:07:52.999Z</time></trkpt><trkpt lat="43.72135198732638" lon="10.350019191377466"><ele>6.0</ele><time>2026-03-29T15:07:53.999Z</time></trkpt><trkpt lat="43.72166001298742" lon="10.350052118489662"><ele>5.5</ele><time>2026-03-29T15:07:54.999Z</time></trkpt><trkpt lat="43.72196176589922" lon="10.350083294084984"><ele>5.0</ele><time>2026-03-29T15:07:55.999Z</time></trkpt><trkpt lat="43.72225802063825" lon="10.350119301039364"><ele>5.0</ele><time>2026-03-29T15:07:56.999Z</time></trkpt><trkpt lat="43.72254674695319" lon="10.350154472942805"><ele>5.0</ele><time>2026-03-29T15:07:57.999Z</time></trkpt><trkpt lat="43.72283135376997" lon="10.350192349172904"><ele>3.5</ele><time>2026-03-29T15:07:58.999Z</time></trkpt><trkpt lat="43.72311194209413" lon="10.350223995941278"><ele>2.0</ele><time>2026-03-29T15:07:59.999Z</time></trkpt><trkpt lat="43.72338717668398" lon="10.350252624731297"><ele>2.5</ele><time>2026-03-29T15:08:00.999Z</time></trkpt><trkpt lat="43.72366445081055" lon="10.350281495065472"><ele>3.0</ele><time>2026-03-29T15:08:01.999Z</time></trkpt><trkpt lat="43.72394163157308" lon="10.350309780463606"><ele>3.0</ele><time>2026-03-29T15:08:02.999Z</time></trkpt><trkpt lat="43.724219900275216" lon="10.350337054014421"><ele>3.0</ele><time>2026-03-29T15:08:04Z</time></trkpt><trkpt lat="43.7245038104621" lon="10.350364184184762"><ele>2.0</ele><time>2026-03-29T15:08:05Z</time></trkpt><trkpt lat="43.72479020406641" lon="10.35038944655448"><ele>1.0</ele><time>2026-03-29T15:08:06Z</time></trkpt><trkpt lat="43.72507674985762" lon="10.350420019052507"><ele>1.0</ele><time>2026-03-29T15:08:07Z</time></trkpt><trkpt lat="43.72536636927685" lon="10.350449566471639"><ele>1.0</ele><time>2026-03-29T15:08:08Z</time></trkpt><trkpt lat="43.725659743586" lon="10.350479555932097"><ele>1.0</ele><time>2026-03-29T15:08:09Z</time></trkpt><trkpt lat="43.725955535031304" lon="10.350508902505942"><ele>1.0</ele><time>2026-03-29T15:08:10Z</time></trkpt><trkpt lat="43.72625069932108" lon="10.350541759903752"><ele>0.0</ele><time>2026-03-29T15:08:11Z</time></trkpt><trkpt lat="43.72654964932296" lon="10.350572284105224"><ele>-1.0</ele><time>2026-03-29T15:08:12Z</time></trkpt><trkpt lat="43.72685051530409" lon="10.35060074947741"><ele>-1.5</ele><time>2026-03-29T15:08:13Z</time></trkpt><trkpt lat="43.72715168215135" lon="10.350631234217492"><ele>-2.0</ele><time>2026-03-29T15:08:14Z</time></trkpt><trkpt lat="43.727451856672566" lon="10.350661104117394"><ele>-2.0</ele><time>2026-03-29T15:08:15Z</time></trkpt><trkpt lat="43.727752490621555" lon="10.350692609018282"><ele>-2.0</ele><time>2026-03-29T15:08:16Z</time></trkpt><trkpt lat="43.72805377655709" lon="10.350725082070351"><ele>-2.0</ele><time>2026-03-29T15:08:17Z</time></trkpt><trkpt lat="43.72835602789301" lon="10.350754761297619"><ele>-2.0</ele><time>2026-03-29T15:08:18Z</time></trkpt><trkpt lat="43.728658459474765" lon="10.350783354089566"><ele>-2.0</ele><time>2026-03-29T15:08:19Z</time></trkpt><trkpt lat="43.72895878777622" lon="10.35080982711428"><ele>-2.0</ele><time>2026-03-29T15:08:20Z</time></trkpt><trkpt lat="43.72926178951329" lon="10.350842663722492"><ele>-1.5</ele><time>2026-03-29T15:08:21Z</time></trkpt><trkpt lat="43.729561250745576" lon="10.350875375152246"><ele>-1.0</ele><time>2026-03-29T15:08:22Z</time></trkpt><trkpt lat="43.729861369928706" lon="10.35090812940911"><ele>-1.0</ele><time>2026-03-29T15:08:23Z</time></trkpt><trkpt lat="43.730160671977856" lon="10.35093425208593"><ele>-1.0</ele><time>2026-03-29T15:08:24Z</time></trkpt><trkpt lat="43.73046388111964" lon="10.350961310725383"><ele>-1.0</ele><time>2026-03-29T15:08:25Z</time></trkpt><trkpt lat="43.7307665660834" lon="10.350989120827796"><ele>-1.0</ele><time>2026-03-29T15:08:26Z</time></trkpt><trkpt lat="43.731065937222134" lon="10.351018668363977"><ele>0.0</ele><time>2026-03-29T15:08:27Z</time></trkpt><trkpt lat="43.73136185885291" lon="10.351048218420333"><ele>1.0</ele><time>2026-03-29T15:08:28Z</time></trkpt><trkpt lat="43.731658998298755" lon="10.351080426461822"><ele>1.5</ele><time>2026-03-29T15:08:29Z</time></trkpt><trkpt lat="43.73195667000532" lon="10.351117378841444"><ele>2.0</ele><time>2026-03-29T15:08:30Z</time></trkpt><trkpt lat="43.7322545483793" lon="10.35116150785238"><ele>2.0</ele><time>2026-03-29T15:08:31Z</time></trkpt><trkpt lat="43.73254921862023" lon="10.351213355890199"><ele>2.0</ele><time>2026-03-29T15:08:32Z</time></trkpt><trkpt lat="43.732846526821696" lon="10.35127040949448"><ele>2.0</ele><time>2026-03-29T15:08:33Z</time></trkpt><trkpt lat="43.7331413356982" lon="10.351332042042896"><ele>2.0</ele><time>2026-03-29T15:08:34Z</time></trkpt><trkpt lat="43.73343521739601" lon="10.351411025091132"><ele>1.0</ele><time>2026-03-29T15:08:35Z</time></trkpt><trkpt lat="43.733729554598675" lon="10.351500722839601"><ele>0.0</ele><time>2026-03-29T15:08:36Z</time></trkpt><trkpt lat="43.73402501739363" lon="10.351597317352681"><ele>0.0</ele><time>2026-03-29T15:08:37Z</time></trkpt><trkpt lat="43.73431918766695" lon="10.351697574358267"><ele>0.0</ele><time>2026-03-29T15:08:38Z</time></trkpt><trkpt lat="43.73461459258983" lon="10.351789817192794"><ele>0.0</ele><time>2026-03-29T15:08:39Z</time></trkpt><trkpt lat="43.734910969522836" lon="10.351881701251354"><ele>0.0</ele><time>2026-03-29T15:08:40Z</time></trkpt><trkpt lat="43.735208075764575" lon="10.351969846834804"><ele>2.0</ele><time>2026-03-29T15:08:41Z</time></trkpt><trkpt lat="43.735501933614614" lon="10.352063554087696"><ele>4.0</ele><time>2026-03-29T15:08:42Z</time></trkpt><trkpt lat="43.73579545147625" lon="10.35215825442175"><ele>2.5</ele><time>2026-03-29T15:08:43Z</time></trkpt><trkpt lat="43.736090568842926" lon="10.352253004701968"><ele>1.0</ele><time>2026-03-29T15:08:44Z</time></trkpt><trkpt lat="43.73638641024561" lon="10.352348391604162"><ele>1.0</ele><time>2026-03-29T15:08:45Z</time></trkpt><trkpt lat="43.736683536264756" lon="10.352444844496212"><ele>1.0</ele><time>2026-03-29T15:08:46Z</time></trkpt><trkpt lat="43.73698026060238" lon="10.352539058429464"><ele>2.5</ele><time>2026-03-29T15:08:47Z</time></trkpt><trkpt lat="43.737276781412604" lon="10.352631886657797"><ele>4.0</ele><time>2026-03-29T15:08:48Z</time></trkpt><trkpt lat="43.73757092815754" lon="10.352725000343499"><ele>3.0</ele><time>2026-03-29T15:08:49Z</time></trkpt><trkpt lat="43.73786810540372" lon="10.352815524680619"><ele>2.0</ele><time>2026-03-29T15:08:50Z</time></trkpt><trkpt lat="43.738161691000165" lon="10.352908033860368"><ele>2.0</ele><time>2026-03-29T15:08:51Z</time></trkpt><trkpt lat="43.73845045165653" lon="10.353001572245606"><ele>2.0</ele><time>2026-03-29T15:08:52Z</time></trkpt><trkpt lat="43.73874029962591" lon="10.353096654003688"><ele>0.0</ele><time>2026-03-29T15:08:53Z</time></trkpt><trkpt lat="43.739031504909256" lon="10.353190399806309"><ele>-2.0</ele><time>2026-03-29T15:08:54Z</time></trkpt><trkpt lat="43.739322026456726" lon="10.35328173201622"><ele>-1.0</ele><time>2026-03-29T15:08:55Z</time></trkpt><trkpt lat="43.73961124565268" lon="10.353372505173937"><ele>0.0</ele><time>2026-03-29T15:08:56Z</time></trkpt><trkpt lat="43.739901839735964" lon="10.35346394183783"><ele>0.0</ele><time>2026-03-29T15:08:57Z</time></trkpt><trkpt lat="43.74019400573729" lon="10.353557807028595"><ele>0.0</ele><time>2026-03-29T15:08:58Z</time></trkpt><trkpt lat="43.74048559939269" lon="10.353651077171135"><ele>0.0</ele><time>2026-03-29T15:08:59Z</time></trkpt><trkpt lat="43.74077627374318" lon="10.353746065821877"><ele>0.0</ele><time>2026-03-29T15:09:00Z</time></trkpt><trkpt lat="43.741068593661275" lon="10.35383814822384"><ele>-0.5</ele><time>2026-03-29T15:09:01Z</time></trkpt><trkpt lat="43.74135888464311" lon="10.353927657590292"><ele>-1.0</ele><time>2026-03-29T15:09:02Z</time></trkpt><trkpt lat="43.741645942059996" lon="10.354015382112747"><ele>0.5</ele><time>2026-03-29T15:09:03Z</time></trkpt><trkpt lat="43.74193051706781" lon="10.354104757523702"><ele>2.0</ele><time>2026-03-29T15:09:04Z</time></trkpt><trkpt lat="43.74221551784681" lon="10.354196732452634"><ele>2.0</ele><time>2026-03-29T15:09:05Z</time></trkpt><trkpt lat="43.74250005067014" lon="10.354288941026113"><ele>2.0</ele><time>2026-03-29T15:09:06Z</time></trkpt><trkpt lat="43.74278259430181" lon="10.354382414856632"><ele>2.5</ele><time>2026-03-29T15:09:07Z</time></trkpt><trkpt lat="43.74306581659972" lon="10.354475641075792"><ele>3.0</ele><time>2026-03-29T15:09:08Z</time></trkpt><trkpt lat="43.74334657233443" lon="10.354563761640845"><ele>3.0</ele><time>2026-03-29T15:09:09Z</time></trkpt><trkpt lat="43.74362929540119" lon="10.354652697252877"><ele>3.0</ele><time>2026-03-29T15:09:10Z</time></trkpt><trkpt lat="43.74391265231043" lon="10.35473821038269"><ele>3.0</ele><time>2026-03-29T15:09:11Z</time></trkpt><trkpt lat="43.7441952090045" lon="10.354824773935224"><ele>3.0</ele><time>2026-03-29T15:09:12Z</time></trkpt><trkpt lat="43.744474616095594" lon="10.354909604335331"><ele>1.5</ele><time>2026-03-29T15:09:13Z</time></trkpt><trkpt lat="43.744738100537404" lon="10.354984036458232"><ele>0.0</ele><time>2026-03-29T15:09:14Z</time></trkpt><trkpt lat="43.744985566557844" lon="10.355072189411302"><ele>-0.5</ele><time>2026-03-29T15:09:15Z</time></trkpt><trkpt lat="43.745239150532754" lon="10.355158100965864"><ele>-1.0</ele><time>2026-03-29T15:09:16Z</time></trkpt><trkpt lat="43.74549357084408" lon="10.35524024984651"><ele>-1.0</ele><time>2026-03-29T15:09:17Z</time></trkpt><trkpt lat="43.745751669077094" lon="10.355321844592165"><ele>-1.0</ele><time>2026-03-29T15:09:18Z</time></trkpt><trkpt lat="43.746014789614726" lon="10.355404991173494"><ele>-0.5</ele><time>2026-03-29T15:09:19Z</time></trkpt><trkpt lat="43.746292545596496" lon="10.355488899027927"><ele>0.0</ele><time>2026-03-29T15:09:19.999Z</time></trkpt><trkpt lat="43.7465525668246" lon="10.355568520462308"><ele>0.5</ele><time>2026-03-29T15:09:20.999Z</time></trkpt><trkpt lat="43.7468083125011" lon="10.355652148830293"><ele>1.0</ele><time>2026-03-29T15:09:21.999Z</time></trkpt><trkpt lat="43.747069488664515" lon="10.355737010850687"><ele>1.0</ele><time>2026-03-29T15:09:22.999Z</time></trkpt><trkpt lat="43.74733359242526" lon="10.355820999401159"><ele>1.0</ele><time>2026-03-29T15:09:23.999Z</time></trkpt><trkpt lat="43.74759825557504" lon="10.355905752827942"><ele>1.0</ele><time>2026-03-29T15:09:24.999Z</time></trkpt><trkpt lat="43.74786340193365" lon="10.355991905172962"><ele>1.0</ele><time>2026-03-29T15:09:25.999Z</time></trkpt><trkpt lat="43.74812893655086" lon="10.356076297781799"><ele>1.0</ele><time>2026-03-29T15:09:26.999Z</time></trkpt><trkpt lat="43.74839673753064" lon="10.356161955208583"><ele>1.0</ele><time>2026-03-29T15:09:27.999Z</time></trkpt><trkpt lat="43.748664009716926" lon="10.356248229919863"><ele>1.0</ele><time>2026-03-29T15:09:28.999Z</time></trkpt><trkpt lat="43.74892986351254" lon="10.35633331172046"><ele>1.0</ele><time>2026-03-29T15:09:29.999Z</time></trkpt><trkpt lat="43.749196315040834" lon="10.356419326052931"><ele>1.0</ele><time>2026-03-29T15:09:30.999Z</time></trkpt><trkpt lat="43.749460993439435" lon="10.35650564705616"><ele>1.0</ele><time>2026-03-29T15:09:31.999Z</time></trkpt><trkpt lat="43.749723837814415" lon="10.356589643545755"><ele>1.0</ele><time>2026-03-29T15:09:32.999Z</time></trkpt><trkpt lat="43.74998994660134" lon="10.356674318635033"><ele>1.0</ele><time>2026-03-29T15:09:33.999Z</time></trkpt><trkpt lat="43.75025360301696" lon="10.356757064981265"><ele>2.5</ele><time>2026-03-29T15:09:34.999Z</time></trkpt><trkpt lat="43.75051629948966" lon="10.356839789991303"><ele>4.0</ele><time>2026-03-29T15:09:35.999Z</time></trkpt><trkpt lat="43.750780082030936" lon="10.356925121162877"><ele>3.5</ele><time>2026-03-29T15:09:36.999Z</time></trkpt><trkpt lat="43.75104429638787" lon="10.357011304413076"><ele>3.0</ele><time>2026-03-29T15:09:37.999Z</time></trkpt><trkpt lat="43.751310030079836" lon="10.357095488137874"><ele>3.0</ele><time>2026-03-29T15:09:38.999Z</time></trkpt><trkpt lat="43.75157748108845" lon="10.357178688089975"><ele>3.0</ele><time>2026-03-29T15:09:39.999Z</time></trkpt><trkpt lat="43.751844246998495" lon="10.35726169939932"><ele>3.0</ele><time>2026-03-29T15:09:40.999Z</time></trkpt><trkpt lat="43.7521116848466" lon="10.357346070153943"><ele>3.0</ele><time>2026-03-29T15:09:41.999Z</time></trkpt><trkpt lat="43.752380618849756" lon="10.357431416784593"><ele>3.0</ele><time>2026-03-29T15:09:42.999Z</time></trkpt><trkpt lat="43.75265073235068" lon="10.357517372488626"><ele>3.0</ele><time>2026-03-29T15:09:43.999Z</time></trkpt><trkpt lat="43.75292074393491" lon="10.357605242508962"><ele>2.5</ele><time>2026-03-29T15:09:44.999Z</time></trkpt><trkpt lat="43.75319063881475" lon="10.357691767471447"><ele>2.0</ele><time>2026-03-29T15:09:45.999Z</time></trkpt><trkpt lat="43.75346042177435" lon="10.35777872471396"><ele>1.5</ele><time>2026-03-29T15:09:46.999Z</time></trkpt><trkpt lat="43.75373133952868" lon="10.357867006917127"><ele>1.0</ele><time>2026-03-29T15:09:47.999Z</time></trkpt><trkpt lat="43.754006208133255" lon="10.357954442429222"><ele>1.0</ele><time>2026-03-29T15:09:48.999Z</time></trkpt><trkpt lat="43.7542624074817" lon="10.358039423280216"><ele>1.0</ele><time>2026-03-29T15:09:49.999Z</time></trkpt><trkpt lat="43.75451520478196" lon="10.358117769266878"><ele>0.5</ele><time>2026-03-29T15:09:50.999Z</time></trkpt><trkpt lat="43.75477037437929" lon="10.358196547267834"><ele>0.0</ele><time>2026-03-29T15:09:51.999Z</time></trkpt><trkpt lat="43.7550174788503" lon="10.358274306817801"><ele>0.0</ele><time>2026-03-29T15:09:52.999Z</time></trkpt><trkpt lat="43.7552526849097" lon="10.358345276190269"><ele>0.0</ele><time>2026-03-29T15:09:53.999Z</time></trkpt><trkpt lat="43.755492284959885" lon="10.358410016825696"><ele>0.0</ele><time>2026-03-29T15:09:54.999Z</time></trkpt><trkpt lat="43.75574045449903" lon="10.358469971531111"><ele>0.0</ele><time>2026-03-29T15:09:55.999Z</time></trkpt><trkpt lat="43.755992274541114" lon="10.35852517567493"><ele>0.5</ele><time>2026-03-29T15:09:56.999Z</time></trkpt><trkpt lat="43.75624137502386" lon="10.358571065189317"><ele>1.0</ele><time>2026-03-29T15:09:57.999Z</time></trkpt><trkpt lat="43.75647780000875" lon="10.358609611933561"><ele>1.0</ele><time>2026-03-29T15:09:58.999Z</time></trkpt><trkpt lat="43.75671535342524" lon="10.358642466117043"><ele>1.0</ele><time>2026-03-29T15:09:59.999Z</time></trkpt><trkpt lat="43.756959742170686" lon="10.358669388075853"><ele>1.0</ele><time>2026-03-29T15:10:00.999Z</time></trkpt><trkpt lat="43.75721335970306" lon="10.358689511579366"><ele>1.0</ele><time>2026-03-29T15:10:01.999Z</time></trkpt><trkpt lat="43.75747046636181" lon="10.358705082611024"><ele>1.0</ele><time>2026-03-29T15:10:02.999Z</time></trkpt><trkpt lat="43.75771160568012" lon="10.358715465062149"><ele>1.0</ele><time>2026-03-29T15:10:03.999Z</time></trkpt><trkpt lat="43.75795266941244" lon="10.358719589862998"><ele>1.0</ele><time>2026-03-29T15:10:04.999Z</time></trkpt><trkpt lat="43.758197158834285" lon="10.358718196988189"><ele>1.0</ele><time>2026-03-29T15:10:05.999Z</time></trkpt><trkpt lat="43.75844527085398" lon="10.358712089763602"><ele>0.5</ele><time>2026-03-29T15:10:06.999Z</time></trkpt><trkpt lat="43.75869420076999" lon="10.358699553342346"><ele>0.0</ele><time>2026-03-29T15:10:07.999Z</time></trkpt><trkpt lat="43.758945058378494" lon="10.358678589942151"><ele>0.0</ele><time>2026-03-29T15:10:08.999Z</time></trkpt><trkpt lat="43.75920116859107" lon="10.358650136216585"><ele>0.0</ele><time>2026-03-29T15:10:10Z</time></trkpt><trkpt lat="43.759459229118946" lon="10.358614034719407"><ele>0.0</ele><time>2026-03-29T15:10:11Z</time></trkpt><trkpt lat="43.75972149414109" lon="10.358573889561425"><ele>0.0</ele><time>2026-03-29T15:10:12Z</time></trkpt><trkpt lat="43.759983082878755" lon="10.358527329668195"><ele>1.0</ele><time>2026-03-29T15:10:13Z</time></trkpt><trkpt lat="43.7602469780221" lon="10.358471604100933"><ele>2.0</ele><time>2026-03-29T15:10:14Z</time></trkpt><trkpt lat="43.76051057085128" lon="10.35840585924079"><ele>2.0</ele><time>2026-03-29T15:10:15Z</time></trkpt><trkpt lat="43.76077446521735" lon="10.358331780720697"><ele>2.0</ele><time>2026-03-29T15:10:16Z</time></trkpt><trkpt lat="43.76104026518151" lon="10.358251486647454"><ele>1.5</ele><time>2026-03-29T15:10:17Z</time></trkpt><trkpt lat="43.76130676767724" lon="10.358161634016653"><ele>1.0</ele><time>2026-03-29T15:10:18Z</time></trkpt><trkpt lat="43.761570260144126" lon="10.358064292334056"><ele>1.0</ele><time>2026-03-29T15:10:19Z</time></trkpt><trkpt lat="43.761832433533556" lon="10.357960126319865"><ele>1.0</ele><time>2026-03-29T15:10:20Z</time></trkpt><trkpt lat="43.76209265384717" lon="10.357850132690839"><ele>1.0</ele><time>2026-03-29T15:10:21Z</time></trkpt><trkpt lat="43.76235387179839" lon="10.357733842636442"><ele>1.0</ele><time>2026-03-29T15:10:22Z</time></trkpt><trkpt lat="43.76261316991747" lon="10.357610014676808"><ele>0.5</ele><time>2026-03-29T15:10:23Z</time></trkpt><trkpt lat="43.762871922447374" lon="10.357479118911183"><ele>0.0</ele><time>2026-03-29T15:10:24Z</time></trkpt><trkpt lat="43.76312868747845" lon="10.357339999685783"><ele>0.5</ele><time>2026-03-29T15:10:25Z</time></trkpt><trkpt lat="43.7633821823341" lon="10.357189363540765"><ele>1.0</ele><time>2026-03-29T15:10:26Z</time></trkpt><trkpt lat="43.7636325085811" lon="10.357034228709953"><ele>1.0</ele><time>2026-03-29T15:10:27Z</time></trkpt><trkpt lat="43.76387990581082" lon="10.356873070584443"><ele>1.0</ele><time>2026-03-29T15:10:28Z</time></trkpt><trkpt lat="43.76412529190068" lon="10.356705617592736"><ele>1.0</ele><time>2026-03-29T15:10:29Z</time></trkpt><trkpt lat="43.76436589343528" lon="10.356534270651574"><ele>1.0</ele><time>2026-03-29T15:10:30Z</time></trkpt><trkpt lat="43.764604182499305" lon="10.356356471141627"><ele>1.0</ele><time>2026-03-29T15:10:31Z</time></trkpt><trkpt lat="43.76484080637456" lon="10.35617183922919"><ele>1.0</ele><time>2026-03-29T15:10:32Z</time></trkpt><trkpt lat="43.76507726163596" lon="10.355980683796504"><ele>1.0</ele><time>2026-03-29T15:10:33Z</time></trkpt><trkpt lat="43.76531086782564" lon="10.355783462404355"><ele>1.0</ele><time>2026-03-29T15:10:34Z</time></trkpt><trkpt lat="43.76553979209643" lon="10.355578298012444"><ele>0.5</ele><time>2026-03-29T15:10:35Z</time></trkpt><trkpt lat="43.76576391128438" lon="10.355363636986787"><ele>0.0</ele><time>2026-03-29T15:10:36Z</time></trkpt><trkpt lat="43.76598381162049" lon="10.355144241450436"><ele>1.0</ele><time>2026-03-29T15:10:37Z</time></trkpt><trkpt lat="43.766201220492285" lon="10.354918723331462"><ele>2.0</ele><time>2026-03-29T15:10:38Z</time></trkpt><trkpt lat="43.7664149153912" lon="10.354693226098107"><ele>2.0</ele><time>2026-03-29T15:10:39Z</time></trkpt><trkpt lat="43.76662557140719" lon="10.35446145803937"><ele>2.0</ele><time>2026-03-29T15:10:40Z</time></trkpt><trkpt lat="43.76683049734092" lon="10.35422680183362"><ele>2.5</ele><time>2026-03-29T15:10:41Z</time></trkpt><trkpt lat="43.76702921915675" lon="10.353987904267447"><ele>3.0</ele><time>2026-03-29T15:10:42Z</time></trkpt><trkpt lat="43.76722346553238" lon="10.353739628463703"><ele>3.5</ele><time>2026-03-29T15:10:43Z</time></trkpt><trkpt lat="43.76741602678802" lon="10.353484261097154"><ele>4.0</ele><time>2026-03-29T15:10:44Z</time></trkpt><trkpt lat="43.76760313148078" lon="10.353226988336814"><ele>4.0</ele><time>2026-03-29T15:10:45Z</time></trkpt><trkpt lat="43.76778741750839" lon="10.352966108453883"><ele>4.0</ele><time>2026-03-29T15:10:46Z</time></trkpt><trkpt lat="43.767968756190456" lon="10.352703755148724"><ele>4.0</ele><time>2026-03-29T15:10:47Z</time></trkpt><trkpt lat="43.76814519424879" lon="10.35243578700594"><ele>4.0</ele><time>2026-03-29T15:10:48Z</time></trkpt><trkpt lat="43.76831641935868" lon="10.352164627580946"><ele>4.0</ele><time>2026-03-29T15:10:49Z</time></trkpt><trkpt lat="43.76848818992574" lon="10.351890638837515"><ele>4.0</ele><time>2026-03-29T15:10:50Z</time></trkpt><trkpt lat="43.76865953758369" lon="10.35161398619098"><ele>4.5</ele><time>2026-03-29T15:10:51Z</time></trkpt><trkpt lat="43.768834250435134" lon="10.351339242728542"><ele>5.0</ele><time>2026-03-29T15:10:52Z</time></trkpt><trkpt lat="43.76901012891853" lon="10.35106199415882"><ele>5.0</ele><time>2026-03-29T15:10:53Z</time></trkpt><trkpt lat="43.76918236782567" lon="10.350786968815864"><ele>5.0</ele><time>2026-03-29T15:10:54Z</time></trkpt><trkpt lat="43.76935545603116" lon="10.350510933396576"><ele>4.0</ele><time>2026-03-29T15:10:55Z</time></trkpt><trkpt lat="43.76952863683968" lon="10.350233499834118"><ele>3.0</ele><time>2026-03-29T15:10:56Z</time></trkpt><trkpt lat="43.76970286230149" lon="10.349954801320123"><ele>4.0</ele><time>2026-03-29T15:10:57Z</time></trkpt><trkpt lat="43.769873105524844" lon="10.349670562200266"><ele>5.0</ele><time>2026-03-29T15:10:58Z</time></trkpt><trkpt lat="43.77004991716851" lon="10.34938481299277"><ele>5.0</ele><time>2026-03-29T15:10:59Z</time></trkpt><trkpt lat="43.77022345006494" lon="10.349092232067632"><ele>5.0</ele><time>2026-03-29T15:11:00Z</time></trkpt><trkpt lat="43.77040449698219" lon="10.3488011830719"><ele>5.0</ele><time>2026-03-29T15:11:01Z</time></trkpt><trkpt lat="43.770581784715226" lon="10.348506581495098"><ele>5.0</ele><time>2026-03-29T15:11:02Z</time></trkpt><trkpt lat="43.770763793293035" lon="10.348216568724343"><ele>5.0</ele><time>2026-03-29T15:11:03Z</time></trkpt><trkpt lat="43.77094597791588" lon="10.347934192298705"><ele>5.0</ele><time>2026-03-29T15:11:04Z</time></trkpt><trkpt lat="43.77113264365531" lon="10.34763513284675"><ele>5.0</ele><time>2026-03-29T15:11:05Z</time></trkpt><trkpt lat="43.771319907019446" lon="10.34733892326503"><ele>5.0</ele><time>2026-03-29T15:11:06Z</time></trkpt><trkpt lat="43.77150388576711" lon="10.347044262378526"><ele>5.0</ele><time>2026-03-29T15:11:07Z</time></trkpt><trkpt lat="43.77168786111871" lon="10.346748907043938"><ele>5.0</ele><time>2026-03-29T15:11:08Z</time></trkpt><trkpt lat="43.77187321691871" lon="10.346450306323744"><ele>4.0</ele><time>2026-03-29T15:11:09Z</time></trkpt><trkpt lat="43.77206270416045" lon="10.346152319015584"><ele>3.0</ele><time>2026-03-29T15:11:10Z</time></trkpt><trkpt lat="43.77225154702961" lon="10.345855326098274"><ele>3.0</ele><time>2026-03-29T15:11:11Z</time></trkpt><trkpt lat="43.7724404946716" lon="10.345558940116165"><ele>3.0</ele><time>2026-03-29T15:11:12Z</time></trkpt><trkpt lat="43.77262629462373" lon="10.345263562397545"><ele>2.0</ele><time>2026-03-29T15:11:13Z</time></trkpt><trkpt lat="43.77280984832947" lon="10.344966792941511"><ele>1.0</ele><time>2026-03-29T15:11:14Z</time></trkpt><trkpt lat="43.77299693022707" lon="10.344668817615588"><ele>1.0</ele><time>2026-03-29T15:11:15Z</time></trkpt><trkpt lat="43.77318577408286" lon="10.344371527899911"><ele>1.0</ele><time>2026-03-29T15:11:16Z</time></trkpt><trkpt lat="43.77337142805607" lon="10.344076604691239"><ele>0.5</ele><time>2026-03-29T15:11:17Z</time></trkpt><trkpt lat="43.773558331337995" lon="10.3437788151913"><ele>0.0</ele><time>2026-03-29T15:11:18Z</time></trkpt><trkpt lat="43.77374114801203" lon="10.343485096475673"><ele>0.0</ele><time>2026-03-29T15:11:19Z</time></trkpt><trkpt lat="43.773928545802676" lon="10.343184055010823"><ele>0.0</ele><time>2026-03-29T15:11:20Z</time></trkpt><trkpt lat="43.77411489673336" lon="10.342888907810556"><ele>0.5</ele><time>2026-03-29T15:11:21Z</time></trkpt><trkpt lat="43.774304569162375" lon="10.342588577484033"><ele>1.0</ele><time>2026-03-29T15:11:22Z</time></trkpt><trkpt lat="43.774497609871105" lon="10.342291951906574"><ele>0.5</ele><time>2026-03-29T15:11:23Z</time></trkpt><trkpt lat="43.77468880379079" lon="10.34200448044275"><ele>0.0</ele><time>2026-03-29T15:11:24Z</time></trkpt><trkpt lat="43.77488236120429" lon="10.341712434530775"><ele>0.0</ele><time>2026-03-29T15:11:25Z</time></trkpt><trkpt lat="43.77506790941908" lon="10.341411837446994"><ele>0.0</ele><time>2026-03-29T15:11:26Z</time></trkpt><trkpt lat="43.7752564978968" lon="10.341120964835659"><ele>0.0</ele><time>2026-03-29T15:11:27Z</time></trkpt><trkpt lat="43.77544399174237" lon="10.34082406327173"><ele>0.0</ele><time>2026-03-29T15:11:28Z</time></trkpt><trkpt lat="43.775629377471446" lon="10.340529188337465"><ele>0.0</ele><time>2026-03-29T15:11:29Z</time></trkpt><trkpt lat="43.775819722672644" lon="10.340234150997986"><ele>0.0</ele><time>2026-03-29T15:11:29.999Z</time></trkpt><trkpt lat="43.776005431129285" lon="10.339941089591415"><ele>-0.5</ele><time>2026-03-29T15:11:30.999Z</time></trkpt><trkpt lat="43.77618378664949" lon="10.339655871582726"><ele>-1.0</ele><time>2026-03-29T15:11:31.999Z</time></trkpt><trkpt lat="43.77636700398608" lon="10.339364539523473"><ele>-1.0</ele><time>2026-03-29T15:11:32.999Z</time></trkpt><trkpt lat="43.776547952311866" lon="10.339062294950175"><ele>-1.0</ele><time>2026-03-29T15:11:33.999Z</time></trkpt><trkpt lat="43.77672749546753" lon="10.338779543285606"><ele>-0.5</ele><time>2026-03-29T15:11:34.999Z</time></trkpt><trkpt lat="43.77691134025603" lon="10.338493248566001"><ele>0.0</ele><time>2026-03-29T15:11:35.999Z</time></trkpt><trkpt lat="43.777095085513636" lon="10.338199488701186"><ele>0.5</ele><time>2026-03-29T15:11:36.999Z</time></trkpt><trkpt lat="43.77727474502597" lon="10.337917073037826"><ele>1.0</ele><time>2026-03-29T15:11:37.999Z</time></trkpt><trkpt lat="43.77745459659591" lon="10.337628146411447"><ele>1.0</ele><time>2026-03-29T15:11:38.999Z</time></trkpt><trkpt lat="43.777634388353256" lon="10.337339929569431"><ele>1.0</ele><time>2026-03-29T15:11:39.999Z</time></trkpt><trkpt lat="43.77781720862698" lon="10.33704786563998"><ele>0.0</ele><time>2026-03-29T15:11:40.999Z</time></trkpt><trkpt lat="43.77799706436756" lon="10.336760560566455"><ele>-1.0</ele><time>2026-03-29T15:11:41.999Z</time></trkpt><trkpt lat="43.778177392578506" lon="10.336475008284129"><ele>-1.0</ele><time>2026-03-29T15:11:42.999Z</time></trkpt><trkpt lat="43.778358869482" lon="10.336190116223419"><ele>-1.0</ele><time>2026-03-29T15:11:43.999Z</time></trkpt><trkpt lat="43.7785388313474" lon="10.335905682395426"><ele>-1.0</ele><time>2026-03-29T15:11:44.999Z</time></trkpt><trkpt lat="43.77871844975465" lon="10.335618456993341"><ele>-1.0</ele><time>2026-03-29T15:11:45.999Z</time></trkpt><trkpt lat="43.778901664682984" lon="10.335330754235828"><ele>-0.5</ele><time>2026-03-29T15:11:46.999Z</time></trkpt><trkpt lat="43.77908196762659" lon="10.33504184031975"><ele>0.0</ele><time>2026-03-29T15:11:47.999Z</time></trkpt><trkpt lat="43.7792622615127" lon="10.334753297981624"><ele>-0.5</ele><time>2026-03-29T15:11:48.999Z</time></trkpt><trkpt lat="43.77944445966199" lon="10.334469635070919"><ele>-1.0</ele><time>2026-03-29T15:11:49.999Z</time></trkpt><trkpt lat="43.77962642918758" lon="10.334181916790412"><ele>-1.0</ele><time>2026-03-29T15:11:50.999Z</time></trkpt><trkpt lat="43.77980750828687" lon="10.33389026622617"><ele>-1.0</ele><time>2026-03-29T15:11:51.999Z</time></trkpt><trkpt lat="43.77999034473084" lon="10.333607913272054"><ele>-0.5</ele><time>2026-03-29T15:11:52.999Z</time></trkpt><trkpt lat="43.78015237381393" lon="10.333344824108641"><ele>0.0</ele><time>2026-03-29T15:11:53.999Z</time></trkpt><trkpt lat="43.780309765962386" lon="10.333091436473596"><ele>0.5</ele><time>2026-03-29T15:11:54.999Z</time></trkpt><trkpt lat="43.78046936475183" lon="10.332829105737614"><ele>1.0</ele><time>2026-03-29T15:11:55.999Z</time></trkpt><trkpt lat="43.780633381894965" lon="10.332562030743414"><ele>1.0</ele><time>2026-03-29T15:11:56.999Z</time></trkpt><trkpt lat="43.78079978007994" lon="10.332297211227328"><ele>1.0</ele><time>2026-03-29T15:11:57.999Z</time></trkpt><trkpt lat="43.78097032454855" lon="10.332028486676345"><ele>-0.5</ele><time>2026-03-29T15:11:58.999Z</time></trkpt><trkpt lat="43.781150619765725" lon="10.331745688292092"><ele>-2.0</ele><time>2026-03-29T15:11:59.999Z</time></trkpt><trkpt lat="43.78133975800361" lon="10.331441606433087"><ele>-1.0</ele><time>2026-03-29T15:12:00.999Z</time></trkpt><trkpt lat="43.78152369605687" lon="10.331156119031167"><ele>0.0</ele><time>2026-03-29T15:12:01.999Z</time></trkpt><trkpt lat="43.78169712717312" lon="10.330886361486478"><ele>-1.5</ele><time>2026-03-29T15:12:02.999Z</time></trkpt><trkpt lat="43.78187630924047" lon="10.33061176720057"><ele>-3.0</ele><time>2026-03-29T15:12:03.999Z</time></trkpt><trkpt lat="43.782059479641426" lon="10.330337385680947"><ele>-3.0</ele><time>2026-03-29T15:12:04.999Z</time></trkpt><trkpt lat="43.7822492306192" lon="10.33006750140178"><ele>-3.0</ele><time>2026-03-29T15:12:05.999Z</time></trkpt><trkpt lat="43.78244068483846" lon="10.329800608108405"><ele>-3.0</ele><time>2026-03-29T15:12:06.999Z</time></trkpt><trkpt lat="43.78263116927995" lon="10.329536134757992"><ele>-3.0</ele><time>2026-03-29T15:12:07.999Z</time></trkpt><trkpt lat="43.782822966104234" lon="10.32927020381633"><ele>-3.0</ele><time>2026-03-29T15:12:08.999Z</time></trkpt><trkpt lat="43.783020561442804" lon="10.32900988187255"><ele>-3.0</ele><time>2026-03-29T15:12:09.999Z</time></trkpt><trkpt lat="43.783217493241544" lon="10.328747592681216"><ele>-3.0</ele><time>2026-03-29T15:12:10.999Z</time></trkpt><trkpt lat="43.78342063208329" lon="10.3284832657593"><ele>-3.0</ele><time>2026-03-29T15:12:11.999Z</time></trkpt><trkpt lat="43.78363463944929" lon="10.328205641127536"><ele>-3.0</ele><time>2026-03-29T15:12:12.999Z</time></trkpt><trkpt lat="43.78384483727715" lon="10.327945224617384"><ele>-3.0</ele><time>2026-03-29T15:12:13.999Z</time></trkpt><trkpt lat="43.78406622457057" lon="10.327683996885204"><ele>-3.0</ele><time>2026-03-29T15:12:14.999Z</time></trkpt><trkpt lat="43.78429440919886" lon="10.32741893507869"><ele>-3.0</ele><time>2026-03-29T15:12:16Z</time></trkpt><trkpt lat="43.78452790754256" lon="10.327154886910076"><ele>-3.5</ele><time>2026-03-29T15:12:17Z</time></trkpt><trkpt lat="43.784766813066334" lon="10.326891211709317"><ele>-4.0</ele><time>2026-03-29T15:12:18Z</time></trkpt><trkpt lat="43.785009644275306" lon="10.326630602117778"><ele>-3.0</ele><time>2026-03-29T15:12:19Z</time></trkpt><trkpt lat="43.7852570333148" lon="10.32637330571353"><ele>-2.0</ele><time>2026-03-29T15:12:20Z</time></trkpt><trkpt lat="43.78550811012055" lon="10.326117468322648"><ele>-2.0</ele><time>2026-03-29T15:12:21Z</time></trkpt><trkpt lat="43.78576179407006" lon="10.325863378731423"><ele>-2.0</ele><time>2026-03-29T15:12:22Z</time></trkpt><trkpt lat="43.78602164580797" lon="10.325611319811745"><ele>-3.0</ele><time>2026-03-29T15:12:23Z</time></trkpt><trkpt lat="43.786286258784244" lon="10.325365165207298"><ele>-4.0</ele><time>2026-03-29T15:12:24Z</time></trkpt><trkpt lat="43.78655590480725" lon="10.325127063495405"><ele>-4.0</ele><time>2026-03-29T15:12:25Z</time></trkpt><trkpt lat="43.78682636636861" lon="10.324898885291708"><ele>-4.0</ele><time>2026-03-29T15:12:26Z</time></trkpt><trkpt lat="43.78709685626916" lon="10.324670606981181"><ele>-2.5</ele><time>2026-03-29T15:12:27Z</time></trkpt><trkpt lat="43.78736878142272" lon="10.324445463799467"><ele>-1.0</ele><time>2026-03-29T15:12:28Z</time></trkpt><trkpt lat="43.78764411850429" lon="10.324224970957005"><ele>-1.0</ele><time>2026-03-29T15:12:29Z</time></trkpt><trkpt lat="43.78792322797438" lon="10.324007233761582"><ele>-1.0</ele><time>2026-03-29T15:12:30Z</time></trkpt><trkpt lat="43.78820550798126" lon="10.323790617451003"><ele>-1.0</ele><time>2026-03-29T15:12:31Z</time></trkpt><trkpt lat="43.78848693863801" lon="10.323577787324341"><ele>-1.0</ele><time>2026-03-29T15:12:32Z</time></trkpt><trkpt lat="43.78877028980166" lon="10.323367075680666"><ele>-1.0</ele><time>2026-03-29T15:12:33Z</time></trkpt><trkpt lat="43.78905838782834" lon="10.323160374162978"><ele>-1.0</ele><time>2026-03-29T15:12:34Z</time></trkpt><trkpt lat="43.789346243142006" lon="10.322964167024692"><ele>-1.5</ele><time>2026-03-29T15:12:35Z</time></trkpt><trkpt lat="43.78963783858503" lon="10.32277333378969"><ele>-2.0</ele><time>2026-03-29T15:12:36Z</time></trkpt><trkpt lat="43.78993001615326" lon="10.322592711998803"><ele>-2.5</ele><time>2026-03-29T15:12:37Z</time></trkpt><trkpt lat="43.79022488864548" lon="10.322415726778473"><ele>-3.0</ele><time>2026-03-29T15:12:38Z</time></trkpt><trkpt lat="43.79051916352414" lon="10.322241121499333"><ele>-1.0</ele><time>2026-03-29T15:12:39Z</time></trkpt><trkpt lat="43.7908152187688" lon="10.322068560104222"><ele>1.0</ele><time>2026-03-29T15:12:40Z</time></trkpt><trkpt lat="43.79111070457505" lon="10.32190344081895"><ele>1.0</ele><time>2026-03-29T15:12:41Z</time></trkpt><trkpt lat="43.79140876113041" lon="10.321744753162848"><ele>1.0</ele><time>2026-03-29T15:12:42Z</time></trkpt><trkpt lat="43.7917095719013" lon="10.321592377831609"><ele>0.0</ele><time>2026-03-29T15:12:43Z</time></trkpt><trkpt lat="43.79201098772598" lon="10.321441761261793"><ele>-1.0</ele><time>2026-03-29T15:12:44Z</time></trkpt><trkpt lat="43.79231140415229" lon="10.321296931008861"><ele>0.0</ele><time>2026-03-29T15:12:45Z</time></trkpt><trkpt lat="43.792615984369874" lon="10.32115742750459"><ele>1.0</ele><time>2026-03-29T15:12:46Z</time></trkpt><trkpt lat="43.79291858393207" lon="10.321026783918139"><ele>1.0</ele><time>2026-03-29T15:12:47Z</time></trkpt><trkpt lat="43.793222226507076" lon="10.320901127205339"><ele>1.0</ele><time>2026-03-29T15:12:48Z</time></trkpt><trkpt lat="43.79352574312736" lon="10.320778181479087"><ele>0.5</ele><time>2026-03-29T15:12:49Z</time></trkpt><trkpt lat="43.7938290787573" lon="10.320659690484877"><ele>0.0</ele><time>2026-03-29T15:12:50Z</time></trkpt><trkpt lat="43.794135371013496" lon="10.320548007309645"><ele>0.5</ele><time>2026-03-29T15:12:51Z</time></trkpt><trkpt lat="43.79444295511079" lon="10.320435465086124"><ele>1.0</ele><time>2026-03-29T15:12:52Z</time></trkpt><trkpt lat="43.794748843123955" lon="10.320322137882696"><ele>1.0</ele><time>2026-03-29T15:12:53Z</time></trkpt><trkpt lat="43.795053936274726" lon="10.320207269762498"><ele>1.0</ele><time>2026-03-29T15:12:54Z</time></trkpt><trkpt lat="43.79535877372172" lon="10.320089660929217"><ele>-0.5</ele><time>2026-03-29T15:12:55Z</time></trkpt><trkpt lat="43.79566421046247" lon="10.319972929768715"><ele>-2.0</ele><time>2026-03-29T15:12:56Z</time></trkpt><trkpt lat="43.79597047018336" lon="10.319857066345751"><ele>-1.5</ele><time>2026-03-29T15:12:57Z</time></trkpt><trkpt lat="43.79627689637271" lon="10.319741587255498"><ele>-1.0</ele><time>2026-03-29T15:12:58Z</time></trkpt><trkpt lat="43.79658230092841" lon="10.31962420116576"><ele>1.0</ele><time>2026-03-29T15:12:59Z</time></trkpt><trkpt lat="43.796886278518116" lon="10.319506575847074"><ele>3.0</ele><time>2026-03-29T15:13:00Z</time></trkpt><trkpt lat="43.79719326104404" lon="10.319388321002025"><ele>3.0</ele><time>2026-03-29T15:13:01Z</time></trkpt><trkpt lat="43.79749717928282" lon="10.319267924909553"><ele>3.0</ele><time>2026-03-29T15:13:02Z</time></trkpt><trkpt lat="43.79780305437133" lon="10.319155358327421"><ele>1.5</ele><time>2026-03-29T15:13:03Z</time></trkpt><trkpt lat="43.79811063380603" lon="10.319042364615587"><ele>0.0</ele><time>2026-03-29T15:13:04Z</time></trkpt><trkpt lat="43.79841657608951" lon="10.318927553307386"><ele>2.5</ele><time>2026-03-29T15:13:05Z</time></trkpt><trkpt lat="43.79872404643751" lon="10.318810289938256"><ele>5.0</ele><time>2026-03-29T15:13:06Z</time></trkpt><trkpt lat="43.79902930049711" lon="10.31869070037475"><ele>2.5</ele><time>2026-03-29T15:13:07Z</time></trkpt><trkpt lat="43.79933704268792" lon="10.31857160775589"><ele>0.0</ele><time>2026-03-29T15:13:08Z</time></trkpt><trkpt lat="43.799643272825946" lon="10.318450700873674"><ele>0.0</ele><time>2026-03-29T15:13:09Z</time></trkpt><trkpt lat="43.7999517030737" lon="10.318330368470363"><ele>0.0</ele><time>2026-03-29T15:13:10Z</time></trkpt><trkpt lat="43.80025580987353" lon="10.318214572283038"><ele>-0.5</ele><time>2026-03-29T15:13:11Z</time></trkpt><trkpt lat="43.80056285622179" lon="10.318101492327537"><ele>-1.0</ele><time>2026-03-29T15:13:12Z</time></trkpt><trkpt lat="43.80086823417503" lon="10.317986194022716"><ele>1.0</ele><time>2026-03-29T15:13:13Z</time></trkpt><trkpt lat="43.8011751932067" lon="10.317870312927719"><ele>3.0</ele><time>2026-03-29T15:13:14Z</time></trkpt><trkpt lat="43.80147769687183" lon="10.317753509436631"><ele>3.0</ele><time>2026-03-29T15:13:15Z</time></trkpt><trkpt lat="43.80177910460217" lon="10.31763876593019"><ele>3.0</ele><time>2026-03-29T15:13:16Z</time></trkpt><trkpt lat="43.802075956437356" lon="10.31752922541639"><ele>2.5</ele><time>2026-03-29T15:13:17Z</time></trkpt><trkpt lat="43.80237287595734" lon="10.317419983371634"><ele>2.0</ele><time>2026-03-29T15:13:18Z</time></trkpt><trkpt lat="43.80267089870794" lon="10.317314693544253"><ele>3.5</ele><time>2026-03-29T15:13:19Z</time></trkpt><trkpt lat="43.80296295286662" lon="10.317210664988409"><ele>5.0</ele><time>2026-03-29T15:13:20Z</time></trkpt><trkpt lat="43.80325896045056" lon="10.317101963436901"><ele>4.5</ele><time>2026-03-29T15:13:21Z</time></trkpt><trkpt lat="43.803549536076126" lon="10.31699605197864"><ele>4.0</ele><time>2026-03-29T15:13:22Z</time></trkpt><trkpt lat="43.80384091944738" lon="10.316881460497909"><ele>4.0</ele><time>2026-03-29T15:13:23Z</time></trkpt><trkpt lat="43.80413140195742" lon="10.316768552838557"><ele>4.0</ele><time>2026-03-29T15:13:24Z</time></trkpt><trkpt lat="43.80442142270032" lon="10.316654713750742"><ele>4.0</ele><time>2026-03-29T15:13:25Z</time></trkpt><trkpt lat="43.80471272788156" lon="10.316541678627422"><ele>4.0</ele><time>2026-03-29T15:13:26Z</time></trkpt><trkpt lat="43.80500508798634" lon="10.316431390170694"><ele>4.5</ele><time>2026-03-29T15:13:27Z</time></trkpt><trkpt lat="43.80529281169552" lon="10.316322223013918"><ele>5.0</ele><time>2026-03-29T15:13:28Z</time></trkpt><trkpt lat="43.80558434978267" lon="10.316210864861645"><ele>5.0</ele><time>2026-03-29T15:13:29Z</time></trkpt><trkpt lat="43.805878856467814" lon="10.316099870846818"><ele>5.0</ele><time>2026-03-29T15:13:30Z</time></trkpt><trkpt lat="43.80617362091212" lon="10.315985303667238"><ele>5.0</ele><time>2026-03-29T15:13:31Z</time></trkpt><trkpt lat="43.80646948318661" lon="10.315870720904574"><ele>5.0</ele><time>2026-03-29T15:13:31.999Z</time></trkpt><trkpt lat="43.80676987659279" lon="10.315761224766103"><ele>4.0</ele><time>2026-03-29T15:13:32.999Z</time></trkpt><trkpt lat="43.807067980594404" lon="10.315647503067789"><ele>3.0</ele><time>2026-03-29T15:13:33.999Z</time></trkpt><trkpt lat="43.80736932879782" lon="10.315532005490926"><ele>4.5</ele><time>2026-03-29T15:13:34.999Z</time></trkpt><trkpt lat="43.807671077177886" lon="10.315416314703242"><ele>6.0</ele><time>2026-03-29T15:13:35.999Z</time></trkpt><trkpt lat="43.80797188749894" lon="10.315305792405255"><ele>6.0</ele><time>2026-03-29T15:13:36.999Z</time></trkpt><trkpt lat="43.80827292107958" lon="10.315190843548145"><ele>6.0</ele><time>2026-03-29T15:13:37.999Z</time></trkpt><trkpt lat="43.80857766498129" lon="10.31507879370558"><ele>5.5</ele><time>2026-03-29T15:13:38.999Z</time></trkpt><trkpt lat="43.808881045526654" lon="10.314963771962077"><ele>5.0</ele><time>2026-03-29T15:13:39.999Z</time></trkpt><trkpt lat="43.80918068268049" lon="10.31484480757922"><ele>8.0</ele><time>2026-03-29T15:13:40.999Z</time></trkpt><trkpt lat="43.809486821732115" lon="10.314726283290419"><ele>11.0</ele><time>2026-03-29T15:13:41.999Z</time></trkpt><trkpt lat="43.80979171341823" lon="10.314608352721665"><ele>11.0</ele><time>2026-03-29T15:13:42.999Z</time></trkpt><trkpt lat="43.81009503876353" lon="10.314487495435198"><ele>11.0</ele><time>2026-03-29T15:13:43.999Z</time></trkpt><trkpt lat="43.810396171034306" lon="10.314359900491297"><ele>8.0</ele><time>2026-03-29T15:13:44.999Z</time></trkpt><trkpt lat="43.810697848643045" lon="10.314228739036622"><ele>5.0</ele><time>2026-03-29T15:13:45.999Z</time></trkpt><trkpt lat="43.81100064897703" lon="10.314094241932773"><ele>4.0</ele><time>2026-03-29T15:13:46.999Z</time></trkpt><trkpt lat="43.81130080163184" lon="10.31395516393649"><ele>3.0</ele><time>2026-03-29T15:13:47.999Z</time></trkpt><trkpt lat="43.81160051363868" lon="10.31381317185795"><ele>2.5</ele><time>2026-03-29T15:13:48.999Z</time></trkpt><trkpt lat="43.8118986249847" lon="10.313667741915163"><ele>2.0</ele><time>2026-03-29T15:13:49.999Z</time></trkpt><trkpt lat="43.81219733717277" lon="10.313520206177213"><ele>2.0</ele><time>2026-03-29T15:13:50.999Z</time></trkpt><trkpt lat="43.81249248477026" lon="10.313367415433179"><ele>2.0</ele><time>2026-03-29T15:13:51.999Z</time></trkpt><trkpt lat="43.8127872909098" lon="10.313212751729218"><ele>3.5</ele><time>2026-03-29T15:13:52.999Z</time></trkpt><trkpt lat="43.81307709880897" lon="10.31305693849206"><ele>5.0</ele><time>2026-03-29T15:13:53.999Z</time></trkpt><trkpt lat="43.813367616963156" lon="10.312897575075532"><ele>5.5</ele><time>2026-03-29T15:13:54.999Z</time></trkpt><trkpt lat="43.81365624263699" lon="10.312733985239486"><ele>6.0</ele><time>2026-03-29T15:13:55.999Z</time></trkpt><trkpt lat="43.81394331079971" lon="10.312568354583496"><ele>6.0</ele><time>2026-03-29T15:13:56.999Z</time></trkpt><trkpt lat="43.814232469058574" lon="10.312395714402202"><ele>6.0</ele><time>2026-03-29T15:13:57.999Z</time></trkpt><trkpt lat="43.81452099684814" lon="10.312217686605678"><ele>7.0</ele><time>2026-03-29T15:13:58.999Z</time></trkpt><trkpt lat="43.81480777968045" lon="10.312037619800192"><ele>8.0</ele><time>2026-03-29T15:13:59.999Z</time></trkpt><trkpt lat="43.81509372328458" lon="10.311854160737717"><ele>8.0</ele><time>2026-03-29T15:14:00.999Z</time></trkpt><trkpt lat="43.81538166136066" lon="10.311667341826555"><ele>8.0</ele><time>2026-03-29T15:14:01.999Z</time></trkpt><trkpt lat="43.81566766004424" lon="10.31147747773651"><ele>8.0</ele><time>2026-03-29T15:14:02.999Z</time></trkpt><trkpt lat="43.81595388991024" lon="10.31128225034237"><ele>8.0</ele><time>2026-03-29T15:14:03.999Z</time></trkpt><trkpt lat="43.8162389121102" lon="10.311083836093061"><ele>8.0</ele><time>2026-03-29T15:14:04.999Z</time></trkpt><trkpt lat="43.81652246258226" lon="10.310880232475421"><ele>8.0</ele><time>2026-03-29T15:14:05.999Z</time></trkpt><trkpt lat="43.816804974444196" lon="10.310670249836816"><ele>8.5</ele><time>2026-03-29T15:14:06.999Z</time></trkpt><trkpt lat="43.81708566207651" lon="10.310456611507066"><ele>9.0</ele><time>2026-03-29T15:14:07.999Z</time></trkpt><trkpt lat="43.8173711822786" lon="10.310239973181025"><ele>9.0</ele><time>2026-03-29T15:14:08.999Z</time></trkpt><trkpt lat="43.817640472883404" lon="10.31004172694447"><ele>9.0</ele><time>2026-03-29T15:14:09.999Z</time></trkpt><trkpt lat="43.81789255232457" lon="10.309853236955732"><ele>8.0</ele><time>2026-03-29T15:14:10.999Z</time></trkpt><trkpt lat="43.818146263199544" lon="10.309660051010917"><ele>7.0</ele><time>2026-03-29T15:14:11.999Z</time></trkpt><trkpt lat="43.81840054263249" lon="10.30947278253273"><ele>7.0</ele><time>2026-03-29T15:14:12.999Z</time></trkpt><trkpt lat="43.818638335648416" lon="10.30929986208624"><ele>7.0</ele><time>2026-03-29T15:14:13.999Z</time></trkpt><trkpt lat="43.81885015467841" lon="10.309143574466608"><ele>7.0</ele><time>2026-03-29T15:14:14.999Z</time></trkpt><trkpt lat="43.81903849171504" lon="10.308994108925056"><ele>7.0</ele><time>2026-03-29T15:14:15.999Z</time></trkpt><trkpt lat="43.819225117321956" lon="10.308846134273356"><ele>7.0</ele><time>2026-03-29T15:14:16.999Z</time></trkpt><trkpt lat="43.81942317620713" lon="10.308693093869179"><ele>7.0</ele><time>2026-03-29T15:14:17.999Z</time></trkpt><trkpt lat="43.8196115723463" lon="10.308559223106304"><ele>7.0</ele><time>2026-03-29T15:14:18.999Z</time></trkpt><trkpt lat="43.819804261031" lon="10.308423009252337"><ele>7.0</ele><time>2026-03-29T15:14:19.999Z</time></trkpt><trkpt lat="43.819993961088755" lon="10.308286329302343"><ele>7.5</ele><time>2026-03-29T15:14:20.999Z</time></trkpt><trkpt lat="43.82017162550042" lon="10.308135697793999"><ele>8.0</ele><time>2026-03-29T15:14:22Z</time></trkpt><trkpt lat="43.82038045604966" lon="10.30796755505575"><ele>8.0</ele><time>2026-03-29T15:14:23Z</time></trkpt><trkpt lat="43.820607596321494" lon="10.307794000055331"><ele>8.0</ele><time>2026-03-29T15:14:24Z</time></trkpt><trkpt lat="43.82084623228688" lon="10.307614394244109"><ele>8.0</ele><time>2026-03-29T15:14:25Z</time></trkpt><trkpt lat="43.82110161203988" lon="10.30743083515687"><ele>8.0</ele><time>2026-03-29T15:14:26Z</time></trkpt><trkpt lat="43.82136854307197" lon="10.307240334993743"><ele>8.5</ele><time>2026-03-29T15:14:27Z</time></trkpt><trkpt lat="43.82164458131347" lon="10.30704178216612"><ele>9.0</ele><time>2026-03-29T15:14:28Z</time></trkpt><trkpt lat="43.82192824397643" lon="10.306834028081653"><ele>9.5</ele><time>2026-03-29T15:14:29Z</time></trkpt><trkpt lat="43.82221384367694" lon="10.306622130661532"><ele>10.0</ele><time>2026-03-29T15:14:30Z</time></trkpt><trkpt lat="43.82250772640255" lon="10.306402042398702"><ele>8.5</ele><time>2026-03-29T15:14:31Z</time></trkpt><trkpt lat="43.82280630604598" lon="10.30617957413039"><ele>7.0</ele><time>2026-03-29T15:14:32Z</time></trkpt><trkpt lat="43.82310573512966" lon="10.305955402597146"><ele>7.0</ele><time>2026-03-29T15:14:33Z</time></trkpt><trkpt lat="43.82340681301342" lon="10.305728576613916"><ele>7.0</ele><time>2026-03-29T15:14:34Z</time></trkpt><trkpt lat="43.82368244971122" lon="10.30552554658732"><ele>5.5</ele><time>2026-03-29T15:14:35Z</time></trkpt><trkpt lat="43.82395118418825" lon="10.305321297314874"><ele>4.0</ele><time>2026-03-29T15:14:36Z</time></trkpt><trkpt lat="43.824216898324174" lon="10.305119024782586"><ele>3.5</ele><time>2026-03-29T15:14:37Z</time></trkpt><trkpt lat="43.8244805022094" lon="10.304920634495824"><ele>3.0</ele><time>2026-03-29T15:14:38Z</time></trkpt><trkpt lat="43.8247417715487" lon="10.304723384314297"><ele>3.0</ele><time>2026-03-29T15:14:39Z</time></trkpt><trkpt lat="43.82500197795482" lon="10.304527085627884"><ele>3.0</ele><time>2026-03-29T15:14:40Z</time></trkpt><trkpt lat="43.82526139812278" lon="10.304331970070752"><ele>3.5</ele><time>2026-03-29T15:14:41Z</time></trkpt><trkpt lat="43.825519909321166" lon="10.30413755401341"><ele>4.0</ele><time>2026-03-29T15:14:42Z</time></trkpt><trkpt lat="43.82577879282511" lon="10.30394199641757"><ele>3.5</ele><time>2026-03-29T15:14:43Z</time></trkpt><trkpt lat="43.82603402442989" lon="10.303746883496276"><ele>3.0</ele><time>2026-03-29T15:14:44Z</time></trkpt><trkpt lat="43.8262915558716" lon="10.303553735594734"><ele>3.0</ele><time>2026-03-29T15:14:45Z</time></trkpt><trkpt lat="43.826550117880224" lon="10.303360159508543"><ele>3.0</ele><time>2026-03-29T15:14:46Z</time></trkpt><trkpt lat="43.826809266375726" lon="10.303164157902438"><ele>2.5</ele><time>2026-03-29T15:14:47Z</time></trkpt><trkpt lat="43.82706646754836" lon="10.30296969646205"><ele>2.0</ele><time>2026-03-29T15:14:48Z</time></trkpt><trkpt lat="43.82732382691549" lon="10.302773095595184"><ele>2.0</ele><time>2026-03-29T15:14:49Z</time></trkpt><trkpt lat="43.82758159443452" lon="10.302577884488118"><ele>2.0</ele><time>2026-03-29T15:14:50Z</time></trkpt><trkpt lat="43.827839612271276" lon="10.302383815094716"><ele>2.0</ele><time>2026-03-29T15:14:51Z</time></trkpt><trkpt lat="43.828097763873686" lon="10.302188813636596"><ele>2.0</ele><time>2026-03-29T15:14:52Z</time></trkpt><trkpt lat="43.828354734075916" lon="10.301993897432183"><ele>2.5</ele><time>2026-03-29T15:14:53Z</time></trkpt><trkpt lat="43.828610581462925" lon="10.301799920861681"><ele>3.0</ele><time>2026-03-29T15:14:54Z</time></trkpt><trkpt lat="43.82886675733213" lon="10.301606870764282"><ele>3.0</ele><time>2026-03-29T15:14:55Z</time></trkpt><trkpt lat="43.82912364925433" lon="10.301412046006952"><ele>3.0</ele><time>2026-03-29T15:14:56Z</time></trkpt><trkpt lat="43.829383016002595" lon="10.301217919789655"><ele>3.0</ele><time>2026-03-29T15:14:57Z</time></trkpt><trkpt lat="43.82964052003547" lon="10.301025460506253"><ele>3.0</ele><time>2026-03-29T15:14:58Z</time></trkpt><trkpt lat="43.82989996606764" lon="10.30083079752323"><ele>2.5</ele><time>2026-03-29T15:14:59Z</time></trkpt><trkpt lat="43.8301583741773" lon="10.300636216498432"><ele>2.0</ele><time>2026-03-29T15:15:00Z</time></trkpt><trkpt lat="43.83041755021508" lon="10.300440542666209"><ele>2.0</ele><time>2026-03-29T15:15:01Z</time></trkpt><trkpt lat="43.8306777323014" lon="10.300244978368713"><ele>2.0</ele><time>2026-03-29T15:15:02Z</time></trkpt><trkpt lat="43.83093685269649" lon="10.300048362720451"><ele>1.5</ele><time>2026-03-29T15:15:03Z</time></trkpt><trkpt lat="43.83119576044578" lon="10.299851850977827"><ele>1.0</ele><time>2026-03-29T15:15:04Z</time></trkpt><trkpt lat="43.83145379709952" lon="10.299655574094453"><ele>1.0</ele><time>2026-03-29T15:15:05Z</time></trkpt><trkpt lat="43.831710159444256" lon="10.299460713333566"><ele>1.0</ele><time>2026-03-29T15:15:06Z</time></trkpt><trkpt lat="43.83197058817954" lon="10.29926552574747"><ele>1.0</ele><time>2026-03-29T15:15:07Z</time></trkpt><trkpt lat="43.832229904329495" lon="10.299070695987544"><ele>1.0</ele><time>2026-03-29T15:15:08Z</time></trkpt><trkpt lat="43.832489325290304" lon="10.298872804839071"><ele>1.5</ele><time>2026-03-29T15:15:09Z</time></trkpt><trkpt lat="43.832750499449936" lon="10.298676140350336"><ele>2.0</ele><time>2026-03-29T15:15:10Z</time></trkpt><trkpt lat="43.8330109399124" lon="10.298482019569075"><ele>2.0</ele><time>2026-03-29T15:15:11Z</time></trkpt><trkpt lat="43.833270036583244" lon="10.298286739482977"><ele>2.0</ele><time>2026-03-29T15:15:12Z</time></trkpt><trkpt lat="43.833528489179365" lon="10.298093553119406"><ele>2.0</ele><time>2026-03-29T15:15:13Z</time></trkpt><trkpt lat="43.83378714064737" lon="10.297899442659581"><ele>2.0</ele><time>2026-03-29T15:15:14Z</time></trkpt><trkpt lat="43.83404578637912" lon="10.297704222564343"><ele>2.0</ele><time>2026-03-29T15:15:15Z</time></trkpt><trkpt lat="43.834304557061934" lon="10.29750850105819"><ele>2.0</ele><time>2026-03-29T15:15:16Z</time></trkpt><trkpt lat="43.834562074803074" lon="10.297315003671436"><ele>1.0</ele><time>2026-03-29T15:15:17Z</time></trkpt><trkpt lat="43.83481908270038" lon="10.297121630300142"><ele>0.0</ele><time>2026-03-29T15:15:18Z</time></trkpt><trkpt lat="43.835074046758635" lon="10.296930173820147"><ele>1.0</ele><time>2026-03-29T15:15:19Z</time></trkpt><trkpt lat="43.83533025732867" lon="10.296738516354965"><ele>2.0</ele><time>2026-03-29T15:15:20Z</time></trkpt><trkpt lat="43.8355867843945" lon="10.296544997288457"><ele>2.0</ele><time>2026-03-29T15:15:21Z</time></trkpt><trkpt lat="43.835844576910034" lon="10.296350432749904"><ele>2.0</ele><time>2026-03-29T15:15:22Z</time></trkpt><trkpt lat="43.83610111679488" lon="10.296155804540865"><ele>2.0</ele><time>2026-03-29T15:15:23Z</time></trkpt><trkpt lat="43.83635795791894" lon="10.29596279177041"><ele>2.0</ele><time>2026-03-29T15:15:24Z</time></trkpt><trkpt lat="43.836616402753215" lon="10.295769584761223"><ele>1.5</ele><time>2026-03-29T15:15:25Z</time></trkpt><trkpt lat="43.83687475442851" lon="10.295579306618924"><ele>1.0</ele><time>2026-03-29T15:15:26Z</time></trkpt><trkpt lat="43.83713327079705" lon="10.295386588313951"><ele>1.0</ele><time>2026-03-29T15:15:27Z</time></trkpt><trkpt lat="43.83738872238012" lon="10.295194975806574"><ele>1.0</ele><time>2026-03-29T15:15:28Z</time></trkpt><trkpt lat="43.83764411136371" lon="10.29500176176207"><ele>1.0</ele><time>2026-03-29T15:15:29Z</time></trkpt><trkpt lat="43.837899745411896" lon="10.294807820844618"><ele>1.0</ele><time>2026-03-29T15:15:30Z</time></trkpt><trkpt lat="43.838155193281324" lon="10.294614503282975"><ele>1.0</ele><time>2026-03-29T15:15:31Z</time></trkpt><trkpt lat="43.83841464700343" lon="10.294421891777368"><ele>1.0</ele><time>2026-03-29T15:15:32Z</time></trkpt><trkpt lat="43.83867671681718" lon="10.29423004691642"><ele>1.0</ele><time>2026-03-29T15:15:33Z</time></trkpt><trkpt lat="43.838937357064026" lon="10.294035439066684"><ele>1.0</ele><time>2026-03-29T15:15:34Z</time></trkpt><trkpt lat="43.83919882102877" lon="10.29383853806517"><ele>1.0</ele><time>2026-03-29T15:15:35Z</time></trkpt><trkpt lat="43.83946059229026" lon="10.293639507622293"><ele>1.0</ele><time>2026-03-29T15:15:35.999Z</time></trkpt><trkpt lat="43.839725199044636" lon="10.293441766568797"><ele>1.0</ele><time>2026-03-29T15:15:36.999Z</time></trkpt><trkpt lat="43.83998838817833" lon="10.293244181048943"><ele>1.0</ele><time>2026-03-29T15:15:37.999Z</time></trkpt><trkpt lat="43.84025252291743" lon="10.29304702678899"><ele>0.5</ele><time>2026-03-29T15:15:38.999Z</time></trkpt><trkpt lat="43.840516467555155" lon="10.292850208156603"><ele>0.0</ele><time>2026-03-29T15:15:39.999Z</time></trkpt><trkpt lat="43.840779900308114" lon="10.292650521954794"><ele>0.0</ele><time>2026-03-29T15:15:40.999Z</time></trkpt><trkpt lat="43.841044355654915" lon="10.292450971017725"><ele>0.0</ele><time>2026-03-29T15:15:41.999Z</time></trkpt><trkpt lat="43.84130880069012" lon="10.292250768094732"><ele>0.0</ele><time>2026-03-29T15:15:42.999Z</time></trkpt><trkpt lat="43.84157233111851" lon="10.292048856877113"><ele>0.0</ele><time>2026-03-29T15:15:43.999Z</time></trkpt><trkpt lat="43.841836785104874" lon="10.291848619412203"><ele>-0.5</ele><time>2026-03-29T15:15:44.999Z</time></trkpt><trkpt lat="43.8421025354906" lon="10.291650844492267"><ele>-1.0</ele><time>2026-03-29T15:15:45.999Z</time></trkpt><trkpt lat="43.84236537977889" lon="10.291456025397862"><ele>-1.0</ele><time>2026-03-29T15:15:46.999Z</time></trkpt><trkpt lat="43.84262745131534" lon="10.291263343849018"><ele>-1.0</ele><time>2026-03-29T15:15:47.999Z</time></trkpt><trkpt lat="43.84288768650917" lon="10.291071375498287"><ele>0.0</ele><time>2026-03-29T15:15:48.999Z</time></trkpt><trkpt lat="43.84314953682174" lon="10.290883581856708"><ele>1.0</ele><time>2026-03-29T15:15:49.999Z</time></trkpt><trkpt lat="43.84341228130354" lon="10.290702353655659"><ele>0.0</ele><time>2026-03-29T15:15:50.999Z</time></trkpt><trkpt lat="43.84367761290306" lon="10.290526472908228"><ele>-1.0</ele><time>2026-03-29T15:15:51.999Z</time></trkpt><trkpt lat="43.84394301543455" lon="10.290356336110447"><ele>-1.0</ele><time>2026-03-29T15:15:52.999Z</time></trkpt><trkpt lat="43.84420856234356" lon="10.290188389479184"><ele>-1.0</ele><time>2026-03-29T15:15:53.999Z</time></trkpt><trkpt lat="43.844478887184735" lon="10.290020993867193"><ele>-0.5</ele><time>2026-03-29T15:15:54.999Z</time></trkpt><trkpt lat="43.844749667008486" lon="10.289858949439443"><ele>0.0</ele><time>2026-03-29T15:15:55.999Z</time></trkpt><trkpt lat="43.84501899950459" lon="10.28969766992185"><ele>0.0</ele><time>2026-03-29T15:15:56.999Z</time></trkpt><trkpt lat="43.84528839411545" lon="10.289532593359286"><ele>0.0</ele><time>2026-03-29T15:15:57.999Z</time></trkpt><trkpt lat="43.84555571037818" lon="10.289366963814018"><ele>0.0</ele><time>2026-03-29T15:15:58.999Z</time></trkpt><trkpt lat="43.845819153032544" lon="10.289200965122232"><ele>0.0</ele><time>2026-03-29T15:15:59.999Z</time></trkpt><trkpt lat="43.84608546303478" lon="10.289038246254577"><ele>-0.5</ele><time>2026-03-29T15:16:00.999Z</time></trkpt><trkpt lat="43.84635332456122" lon="10.288875686146268"><ele>-1.0</ele><time>2026-03-29T15:16:01.999Z</time></trkpt><trkpt lat="43.84661997772665" lon="10.288712285917054"><ele>-1.0</ele><time>2026-03-29T15:16:02.999Z</time></trkpt><trkpt lat="43.84688773989161" lon="10.288548415942907"><ele>-1.0</ele><time>2026-03-29T15:16:03.999Z</time></trkpt><trkpt lat="43.84715723723647" lon="10.288384816279168"><ele>-1.0</ele><time>2026-03-29T15:16:04.999Z</time></trkpt><trkpt lat="43.84742636221812" lon="10.288221214597389"><ele>-1.0</ele><time>2026-03-29T15:16:05.999Z</time></trkpt><trkpt lat="43.847694401119156" lon="10.288059790000892"><ele>-0.5</ele><time>2026-03-29T15:16:06.999Z</time></trkpt><trkpt lat="43.847964894537405" lon="10.287897370739763"><ele>0.0</ele><time>2026-03-29T15:16:07.999Z</time></trkpt><trkpt lat="43.84823612248379" lon="10.287735450539271"><ele>0.0</ele><time>2026-03-29T15:16:08.999Z</time></trkpt><trkpt lat="43.84850765377242" lon="10.287570824752677"><ele>0.0</ele><time>2026-03-29T15:16:09.999Z</time></trkpt><trkpt lat="43.84877626742415" lon="10.287406677426015"><ele>0.5</ele><time>2026-03-29T15:16:10.999Z</time></trkpt><trkpt lat="43.849047262424136" lon="10.28723655223016"><ele>1.0</ele><time>2026-03-29T15:16:11.999Z</time></trkpt><trkpt lat="43.849313248780426" lon="10.287068768052732"><ele>0.0</ele><time>2026-03-29T15:16:12.999Z</time></trkpt><trkpt lat="43.84958160878518" lon="10.286900065146211"><ele>-1.0</ele><time>2026-03-29T15:16:13.999Z</time></trkpt><trkpt lat="43.849849367538916" lon="10.286721282831506"><ele>-1.0</ele><time>2026-03-29T15:16:14.999Z</time></trkpt><trkpt lat="43.85011971613767" lon="10.286556800971294"><ele>-1.0</ele><time>2026-03-29T15:16:15.999Z</time></trkpt><trkpt lat="43.85038613597084" lon="10.286385618011323"><ele>-0.5</ele><time>2026-03-29T15:16:16.999Z</time></trkpt><trkpt lat="43.850656018556805" lon="10.286215625834817"><ele>0.0</ele><time>2026-03-29T15:16:17.999Z</time></trkpt><trkpt lat="43.85092417142496" lon="10.286053534515426"><ele>0.0</ele><time>2026-03-29T15:16:18.999Z</time></trkpt><trkpt lat="43.85119329934797" lon="10.28588894129499"><ele>0.0</ele><time>2026-03-29T15:16:19.999Z</time></trkpt><trkpt lat="43.85146478514389" lon="10.285720448327062"><ele>-1.0</ele><time>2026-03-29T15:16:20.999Z</time></trkpt><trkpt lat="43.852104489355725" lon="10.285592314642066"><ele>-1.0</ele><time>2026-03-29T15:16:22.999Z</time></trkpt><trkpt lat="43.85241260900109" lon="10.285403859421628"><ele>-1.0</ele><time>2026-03-29T15:16:23.999Z</time></trkpt><trkpt lat="43.852730549806324" lon="10.285207002130123"><ele>-1.0</ele><time>2026-03-29T15:16:24.999Z</time></trkpt><trkpt lat="43.85305676619475" lon="10.285001462788454"><ele>-1.0</ele><time>2026-03-29T15:16:25.999Z</time></trkpt><trkpt lat="43.853383134431965" lon="10.284800267045869"><ele>-0.5</ele><time>2026-03-29T15:16:26.999Z</time></trkpt><trkpt lat="43.853724048940364" lon="10.284588650086462"><ele>0.0</ele><time>2026-03-29T15:16:28Z</time></trkpt><trkpt lat="43.854073806705905" lon="10.284373615077426"><ele>-0.5</ele><time>2026-03-29T15:16:29Z</time></trkpt><trkpt lat="43.854427794957424" lon="10.284155650764834"><ele>-1.0</ele><time>2026-03-29T15:16:30Z</time></trkpt><trkpt lat="43.85476897698924" lon="10.283947410365988"><ele>-0.5</ele><time>2026-03-29T15:16:31Z</time></trkpt><trkpt lat="43.85508250440982" lon="10.283756157721173"><ele>0.0</ele><time>2026-03-29T15:16:32Z</time></trkpt><trkpt lat="43.855393185826735" lon="10.283567452438648"><ele>0.0</ele><time>2026-03-29T15:16:33Z</time></trkpt><trkpt lat="43.855695322759914" lon="10.28338171804482"><ele>0.0</ele><time>2026-03-29T15:16:34Z</time></trkpt><trkpt lat="43.855992116589775" lon="10.283200243712296"><ele>0.0</ele><time>2026-03-29T15:16:35Z</time></trkpt><trkpt lat="43.85628021401069" lon="10.283022850566852"><ele>0.0</ele><time>2026-03-29T15:16:36Z</time></trkpt><trkpt lat="43.85656808147174" lon="10.282854417608604"><ele>-0.5</ele><time>2026-03-29T15:16:37Z</time></trkpt><trkpt lat="43.85685254148965" lon="10.282687978919133"><ele>-1.0</ele><time>2026-03-29T15:16:38Z</time></trkpt><trkpt lat="43.857135823221874" lon="10.282523774300268"><ele>-1.0</ele><time>2026-03-29T15:16:39Z</time></trkpt><trkpt lat="43.85741528724032" lon="10.282372314437824"><ele>-1.0</ele><time>2026-03-29T15:16:40Z</time></trkpt><trkpt lat="43.85769823799555" lon="10.282213063210868"><ele>0.0</ele><time>2026-03-29T15:16:41Z</time></trkpt><trkpt lat="43.85797151095489" lon="10.282067795844828"><ele>1.0</ele><time>2026-03-29T15:16:42Z</time></trkpt><trkpt lat="43.85824952329883" lon="10.281935465595069"><ele>2.0</ele><time>2026-03-29T15:16:43Z</time></trkpt><trkpt lat="43.85853447679807" lon="10.28180286829246"><ele>3.0</ele><time>2026-03-29T15:16:44Z</time></trkpt><trkpt lat="43.85880961546583" lon="10.28167775040914"><ele>3.0</ele><time>2026-03-29T15:16:45Z</time></trkpt><trkpt lat="43.85911181500655" lon="10.281543596876134"><ele>3.0</ele><time>2026-03-29T15:16:46Z</time></trkpt><trkpt lat="43.8594065844865" lon="10.281526342302818"><ele>2.0</ele><time>2026-03-29T15:16:47Z</time></trkpt><trkpt lat="43.85967984669901" lon="10.281399602768248"><ele>1.0</ele><time>2026-03-29T15:16:48Z</time></trkpt><trkpt lat="43.85995894548227" lon="10.281276376852764"><ele>1.0</ele><time>2026-03-29T15:16:49Z</time></trkpt><trkpt lat="43.86023879349073" lon="10.281152238071542"><ele>1.0</ele><time>2026-03-29T15:16:50Z</time></trkpt><trkpt lat="43.86051700470458" lon="10.281028962153313"><ele>1.0</ele><time>2026-03-29T15:16:51Z</time></trkpt><trkpt lat="43.86079704451966" lon="10.28090354680887"><ele>1.0</ele><time>2026-03-29T15:16:52Z</time></trkpt><trkpt lat="43.86107342616493" lon="10.280778311413362"><ele>1.0</ele><time>2026-03-29T15:16:53Z</time></trkpt><trkpt lat="43.8613502297058" lon="10.280652884798606"><ele>1.0</ele><time>2026-03-29T15:16:54Z</time></trkpt><trkpt lat="43.86162833513573" lon="10.280526560389719"><ele>1.5</ele><time>2026-03-29T15:16:55Z</time></trkpt><trkpt lat="43.86190952431062" lon="10.280396822094058"><ele>2.0</ele><time>2026-03-29T15:16:56Z</time></trkpt><trkpt lat="43.86217837324942" lon="10.280264034407125"><ele>2.0</ele><time>2026-03-29T15:16:57Z</time></trkpt><trkpt lat="43.862454590144324" lon="10.280138909189178"><ele>2.0</ele><time>2026-03-29T15:16:58Z</time></trkpt><trkpt lat="43.862711578771034" lon="10.28002074269103"><ele>1.5</ele><time>2026-03-29T15:16:59Z</time></trkpt><trkpt lat="43.86295200922422" lon="10.279914089203764"><ele>1.0</ele><time>2026-03-29T15:17:00Z</time></trkpt><trkpt lat="43.86315219072063" lon="10.279850846490621"><ele>3.0</ele><time>2026-03-29T15:17:01Z</time></trkpt><trkpt lat="43.86382402616352" lon="10.278895056479401"><ele>3.0</ele><time>2026-03-29T15:17:04Z</time></trkpt><trkpt lat="43.864070872624254" lon="10.278767059979243"><ele>3.0</ele><time>2026-03-29T15:17:05Z</time></trkpt><trkpt lat="43.86431948461686" lon="10.2786355953882"><ele>3.5</ele><time>2026-03-29T15:17:06Z</time></trkpt><trkpt lat="43.864571078211114" lon="10.278501243782175"><ele>4.0</ele><time>2026-03-29T15:17:07Z</time></trkpt><trkpt lat="43.864825559044846" lon="10.278366424401478"><ele>4.0</ele><time>2026-03-29T15:17:08Z</time></trkpt><trkpt lat="43.86508280392147" lon="10.278232680960333"><ele>4.0</ele><time>2026-03-29T15:17:09Z</time></trkpt><trkpt lat="43.86534448791614" lon="10.278097260948758"><ele>2.5</ele><time>2026-03-29T15:17:10Z</time></trkpt><trkpt lat="43.865607793568756" lon="10.27796072375273"><ele>1.0</ele><time>2026-03-29T15:17:11Z</time></trkpt><trkpt lat="43.865872987837875" lon="10.277825373722349"><ele>0.5</ele><time>2026-03-29T15:17:12Z</time></trkpt><trkpt lat="43.86614054919042" lon="10.27769051131183"><ele>0.0</ele><time>2026-03-29T15:17:13Z</time></trkpt><trkpt lat="43.86640865208844" lon="10.27755585930066"><ele>0.0</ele><time>2026-03-29T15:17:14Z</time></trkpt><trkpt lat="43.866675920929595" lon="10.277424407608672"><ele>0.0</ele><time>2026-03-29T15:17:15Z</time></trkpt><trkpt lat="43.86695028199431" lon="10.277290582141283"><ele>0.5</ele><time>2026-03-29T15:17:16Z</time></trkpt><trkpt lat="43.86722427059398" lon="10.277156152757433"><ele>1.0</ele><time>2026-03-29T15:17:17Z</time></trkpt><trkpt lat="43.867499552430225" lon="10.277023103814997"><ele>-0.5</ele><time>2026-03-29T15:17:18Z</time></trkpt><trkpt lat="43.86777746347649" lon="10.276891770088039"><ele>-2.0</ele><time>2026-03-29T15:17:19Z</time></trkpt><trkpt lat="43.86805836133514" lon="10.276757522360592"><ele>-2.0</ele><time>2026-03-29T15:17:20Z</time></trkpt><trkpt lat="43.868336759651" lon="10.276621613619525"><ele>-2.0</ele><time>2026-03-29T15:17:21Z</time></trkpt><trkpt lat="43.868610755255" lon="10.276482128031937"><ele>-1.5</ele><time>2026-03-29T15:17:22Z</time></trkpt><trkpt lat="43.868882976653026" lon="10.27633608300403"><ele>-1.0</ele><time>2026-03-29T15:17:23Z</time></trkpt><trkpt lat="43.86915583513184" lon="10.276183615090572"><ele>0.5</ele><time>2026-03-29T15:17:24Z</time></trkpt><trkpt lat="43.8694259056821" lon="10.276029255020973"><ele>2.0</ele><time>2026-03-29T15:17:25Z</time></trkpt><trkpt lat="43.86969254036163" lon="10.2758709213628"><ele>2.0</ele><time>2026-03-29T15:17:26Z</time></trkpt><trkpt lat="43.869955540299785" lon="10.275712703282107"><ele>2.0</ele><time>2026-03-29T15:17:27Z</time></trkpt><trkpt lat="43.87021780259903" lon="10.275552542148967"><ele>1.5</ele><time>2026-03-29T15:17:28Z</time></trkpt><trkpt lat="43.87047613035538" lon="10.275388443549405"><ele>1.0</ele><time>2026-03-29T15:17:29Z</time></trkpt><trkpt lat="43.87073195405934" lon="10.275218498209291"><ele>1.0</ele><time>2026-03-29T15:17:30Z</time></trkpt><trkpt lat="43.87098652715386" lon="10.275045074748816"><ele>1.0</ele><time>2026-03-29T15:17:31Z</time></trkpt><trkpt lat="43.87123939846835" lon="10.274868636581154"><ele>0.5</ele><time>2026-03-29T15:17:32Z</time></trkpt><trkpt lat="43.87149114282266" lon="10.274689779790073"><ele>0.0</ele><time>2026-03-29T15:17:33Z</time></trkpt><trkpt lat="43.871742325154614" lon="10.274510443171176"><ele>0.5</ele><time>2026-03-29T15:17:34Z</time></trkpt><trkpt lat="43.87199221192137" lon="10.274330602095155"><ele>1.0</ele><time>2026-03-29T15:17:35Z</time></trkpt><trkpt lat="43.8722430909429" lon="10.274150487441197"><ele>1.0</ele><time>2026-03-29T15:17:36Z</time></trkpt><trkpt lat="43.872495814858574" lon="10.273969725720255"><ele>1.0</ele><time>2026-03-29T15:17:37Z</time></trkpt><trkpt lat="43.87274851624635" lon="10.273786739774216"><ele>0.5</ele><time>2026-03-29T15:17:38Z</time></trkpt><trkpt lat="43.873003067431746" lon="10.273602498468316"><ele>0.0</ele><time>2026-03-29T15:17:39Z</time></trkpt><trkpt lat="43.87325701420008" lon="10.273417746796861"><ele>-0.5</ele><time>2026-03-29T15:17:40Z</time></trkpt><trkpt lat="43.873512751372246" lon="10.273234813555677"><ele>-1.0</ele><time>2026-03-29T15:17:41Z</time></trkpt><trkpt lat="43.87376866865745" lon="10.273054012307156"><ele>-0.5</ele><time>2026-03-29T15:17:42Z</time></trkpt><trkpt lat="43.87402365638848" lon="10.272869362650667"><ele>0.0</ele><time>2026-03-29T15:17:43Z</time></trkpt><trkpt lat="43.87427879385281" lon="10.272684734949172"><ele>0.0</ele><time>2026-03-29T15:17:43.999Z</time></trkpt><trkpt lat="43.87453485997126" lon="10.272499274324382"><ele>0.0</ele><time>2026-03-29T15:17:44.999Z</time></trkpt><trkpt lat="43.87479185431895" lon="10.272314919175365"><ele>-0.5</ele><time>2026-03-29T15:17:45.999Z</time></trkpt><trkpt lat="43.87505240442088" lon="10.272129216131194"><ele>-1.0</ele><time>2026-03-29T15:17:46.999Z</time></trkpt><trkpt lat="43.87531011957477" lon="10.271940986061368"><ele>-1.0</ele><time>2026-03-29T15:17:47.999Z</time></trkpt><trkpt lat="43.87556967872713" lon="10.271751675593851"><ele>-1.0</ele><time>2026-03-29T15:17:48.999Z</time></trkpt><trkpt lat="43.87582805289145" lon="10.271563975732134"><ele>0.0</ele><time>2026-03-29T15:17:49.999Z</time></trkpt><trkpt lat="43.87608698829933" lon="10.271377364284454"><ele>1.0</ele><time>2026-03-29T15:17:50.999Z</time></trkpt><trkpt lat="43.87634527313567" lon="10.271190917720094"><ele>1.0</ele><time>2026-03-29T15:17:51.999Z</time></trkpt><trkpt lat="43.87660232725799" lon="10.271005853565095"><ele>1.0</ele><time>2026-03-29T15:17:52.999Z</time></trkpt><trkpt lat="43.8768597989091" lon="10.270820440766439"><ele>1.0</ele><time>2026-03-29T15:17:53.999Z</time></trkpt><trkpt lat="43.87711622809961" lon="10.270635799352227"><ele>1.0</ele><time>2026-03-29T15:17:54.999Z</time></trkpt><trkpt lat="43.87737086781704" lon="10.27045122710911"><ele>-0.5</ele><time>2026-03-29T15:17:55.999Z</time></trkpt><trkpt lat="43.877625140658076" lon="10.270266567968505"><ele>-2.0</ele><time>2026-03-29T15:17:56.999Z</time></trkpt><trkpt lat="43.877889479934275" lon="10.270074873825909"><ele>-2.0</ele><time>2026-03-29T15:17:57.999Z</time></trkpt><trkpt lat="43.8781385161032" lon="10.269896206410182"><ele>-2.0</ele><time>2026-03-29T15:17:58.999Z</time></trkpt><trkpt lat="43.87839083770956" lon="10.269716003671551"><ele>-1.5</ele><time>2026-03-29T15:17:59.999Z</time></trkpt><trkpt lat="43.878640849817295" lon="10.269535264515598"><ele>-1.0</ele><time>2026-03-29T15:18:00.999Z</time></trkpt><trkpt lat="43.87888907128832" lon="10.269354854510592"><ele>-1.0</ele><time>2026-03-29T15:18:01.999Z</time></trkpt><trkpt lat="43.879139413422074" lon="10.269175993636479"><ele>-1.0</ele><time>2026-03-29T15:18:02.999Z</time></trkpt><trkpt lat="43.87939051107008" lon="10.268995928809973"><ele>0.0</ele><time>2026-03-29T15:18:03.999Z</time></trkpt><trkpt lat="43.879641043182616" lon="10.26881358201912"><ele>1.0</ele><time>2026-03-29T15:18:04.999Z</time></trkpt><trkpt lat="43.879889286004314" lon="10.268631202311003"><ele>1.0</ele><time>2026-03-29T15:18:05.999Z</time></trkpt><trkpt lat="43.88013869826665" lon="10.268450265149758"><ele>1.0</ele><time>2026-03-29T15:18:06.999Z</time></trkpt><trkpt lat="43.88039084558612" lon="10.268267660538491"><ele>1.0</ele><time>2026-03-29T15:18:07.999Z</time></trkpt><trkpt lat="43.880645907845384" lon="10.268082542871376"><ele>1.0</ele><time>2026-03-29T15:18:08.999Z</time></trkpt><trkpt lat="43.88090180489645" lon="10.267896757866476"><ele>0.5</ele><time>2026-03-29T15:18:09.999Z</time></trkpt><trkpt lat="43.88116098031448" lon="10.267710943203028"><ele>0.0</ele><time>2026-03-29T15:18:10.999Z</time></trkpt><trkpt lat="43.881419697982714" lon="10.267524313065302"><ele>0.0</ele><time>2026-03-29T15:18:11.999Z</time></trkpt><trkpt lat="43.88167798128353" lon="10.26733727373568"><ele>0.0</ele><time>2026-03-29T15:18:12.999Z</time></trkpt><trkpt lat="43.8819388032581" lon="10.267150483057652"><ele>0.5</ele><time>2026-03-29T15:18:13.999Z</time></trkpt><trkpt lat="43.88220061450774" lon="10.266964119283863"><ele>1.0</ele><time>2026-03-29T15:18:14.999Z</time></trkpt><trkpt lat="43.882460577595225" lon="10.266774275645698"><ele>1.0</ele><time>2026-03-29T15:18:15.999Z</time></trkpt><trkpt lat="43.882720997466514" lon="10.266584091743994"><ele>1.0</ele><time>2026-03-29T15:18:16.999Z</time></trkpt><trkpt lat="43.88298247559249" lon="10.266393645671057"><ele>0.5</ele><time>2026-03-29T15:18:17.999Z</time></trkpt><trkpt lat="43.88324629609236" lon="10.266200711962314"><ele>0.0</ele><time>2026-03-29T15:18:18.999Z</time></trkpt><trkpt lat="43.883508941598464" lon="10.26600802626557"><ele>-0.5</ele><time>2026-03-29T15:18:19.999Z</time></trkpt><trkpt lat="43.88377347115115" lon="10.265815736235215"><ele>-1.0</ele><time>2026-03-29T15:18:20.999Z</time></trkpt><trkpt lat="43.884038277402034" lon="10.265621796572967"><ele>-1.0</ele><time>2026-03-29T15:18:21.999Z</time></trkpt><trkpt lat="43.88430279966136" lon="10.265422718441897"><ele>-1.0</ele><time>2026-03-29T15:18:22.999Z</time></trkpt><trkpt lat="43.88457038378126" lon="10.265231189323746"><ele>-1.0</ele><time>2026-03-29T15:18:23.999Z</time></trkpt><trkpt lat="43.88483873515587" lon="10.265038630589373"><ele>-1.0</ele><time>2026-03-29T15:18:24.999Z</time></trkpt><trkpt lat="43.8851088481703" lon="10.26484629436611"><ele>-0.5</ele><time>2026-03-29T15:18:25.999Z</time></trkpt><trkpt lat="43.88537809175814" lon="10.264653200436932"><ele>0.0</ele><time>2026-03-29T15:18:26.999Z</time></trkpt><trkpt lat="43.885646284594976" lon="10.264458629264896"><ele>0.0</ele><time>2026-03-29T15:18:27.999Z</time></trkpt><trkpt lat="43.8859107903763" lon="10.26426813772259"><ele>0.0</ele><time>2026-03-29T15:18:28.999Z</time></trkpt><trkpt lat="43.886177604866965" lon="10.264080915655242"><ele>-1.0</ele><time>2026-03-29T15:18:29.999Z</time></trkpt><trkpt lat="43.88644364944317" lon="10.263894981121272"><ele>-2.0</ele><time>2026-03-29T15:18:30.999Z</time></trkpt><trkpt lat="43.88671001542606" lon="10.263706887954909"><ele>-1.5</ele><time>2026-03-29T15:18:31.999Z</time></trkpt><trkpt lat="43.886972451916975" lon="10.263519099333719"><ele>-1.0</ele><time>2026-03-29T15:18:32.999Z</time></trkpt><trkpt lat="43.88723558704344" lon="10.263330982198118"><ele>-1.0</ele><time>2026-03-29T15:18:34Z</time></trkpt><trkpt lat="43.88749549317724" lon="10.263142426719602"><ele>-1.0</ele><time>2026-03-29T15:18:35Z</time></trkpt><trkpt lat="43.88775791827201" lon="10.26295231277196"><ele>-1.0</ele><time>2026-03-29T15:18:36Z</time></trkpt><trkpt lat="43.88801766451538" lon="10.262764915458938"><ele>-1.0</ele><time>2026-03-29T15:18:37Z</time></trkpt><trkpt lat="43.888276709824346" lon="10.26257893740277"><ele>-1.0</ele><time>2026-03-29T15:18:38Z</time></trkpt><trkpt lat="43.888529060505306" lon="10.262390196351621"><ele>-1.0</ele><time>2026-03-29T15:18:39Z</time></trkpt><trkpt lat="43.88879307196389" lon="10.262207457384545"><ele>-1.0</ele><time>2026-03-29T15:18:40Z</time></trkpt><trkpt lat="43.889054973616766" lon="10.262022516510491"><ele>-1.0</ele><time>2026-03-29T15:18:41Z</time></trkpt><trkpt lat="43.88931419258056" lon="10.261836392275244"><ele>-0.5</ele><time>2026-03-29T15:18:42Z</time></trkpt><trkpt lat="43.88957220428791" lon="10.261649953761403"><ele>0.0</ele><time>2026-03-29T15:18:43Z</time></trkpt><trkpt lat="43.88983033334278" lon="10.261461663744587"><ele>-0.5</ele><time>2026-03-29T15:18:44Z</time></trkpt><trkpt lat="43.890084082465265" lon="10.261275797112217"><ele>-1.0</ele><time>2026-03-29T15:18:45Z</time></trkpt><trkpt lat="43.89034371110723" lon="10.26109151019906"><ele>0.0</ele><time>2026-03-29T15:18:46Z</time></trkpt><trkpt lat="43.89059646007899" lon="10.260903658042247"><ele>1.0</ele><time>2026-03-29T15:18:47Z</time></trkpt><trkpt lat="43.89083760255636" lon="10.260719758513016"><ele>0.0</ele><time>2026-03-29T15:18:48Z</time></trkpt><trkpt lat="43.891064086136666" lon="10.260552424363153"><ele>-1.0</ele><time>2026-03-29T15:18:49Z</time></trkpt><trkpt lat="43.891296083301505" lon="10.26038463323288"><ele>-1.0</ele><time>2026-03-29T15:18:50Z</time></trkpt><trkpt lat="43.89151862477249" lon="10.260223262992872"><ele>-1.0</ele><time>2026-03-29T15:18:51Z</time></trkpt><trkpt lat="43.89174130374298" lon="10.260057372550964"><ele>-0.5</ele><time>2026-03-29T15:18:52Z</time></trkpt><trkpt lat="43.891972017288" lon="10.259881157260303"><ele>0.0</ele><time>2026-03-29T15:18:53Z</time></trkpt><trkpt lat="43.892202748463795" lon="10.25970723031396"><ele>0.0</ele><time>2026-03-29T15:18:54Z</time></trkpt><trkpt lat="43.892441273385536" lon="10.259529581610352"><ele>0.0</ele><time>2026-03-29T15:18:55Z</time></trkpt><trkpt lat="43.892686806962026" lon="10.259351345042099"><ele>0.5</ele><time>2026-03-29T15:18:56Z</time></trkpt><trkpt lat="43.89293422259493" lon="10.259176349124917"><ele>1.0</ele><time>2026-03-29T15:18:57Z</time></trkpt><trkpt lat="43.893169076471374" lon="10.259013693484825"><ele>0.5</ele><time>2026-03-29T15:18:58Z</time></trkpt><trkpt lat="43.89338668153265" lon="10.258861616996855"><ele>0.0</ele><time>2026-03-29T15:18:59Z</time></trkpt><trkpt lat="43.89360783924601" lon="10.258702936860463"><ele>0.0</ele><time>2026-03-29T15:19:00Z</time></trkpt><trkpt lat="43.893827155259466" lon="10.258535634285062"><ele>0.0</ele><time>2026-03-29T15:19:01Z</time></trkpt><trkpt lat="43.89404425204195" lon="10.25835823250187"><ele>0.0</ele><time>2026-03-29T15:19:02Z</time></trkpt><trkpt lat="43.89425101925697" lon="10.258179522148547"><ele>0.0</ele><time>2026-03-29T15:19:03Z</time></trkpt><trkpt lat="43.89445001594414" lon="10.258003767794083"><ele>0.0</ele><time>2026-03-29T15:19:04Z</time></trkpt><trkpt lat="43.89464937323288" lon="10.257823557440572"><ele>0.0</ele><time>2026-03-29T15:19:05Z</time></trkpt><trkpt lat="43.89484865050718" lon="10.2576386563323"><ele>0.0</ele><time>2026-03-29T15:19:06Z</time></trkpt><trkpt lat="43.89504745725827" lon="10.25744691964845"><ele>0.0</ele><time>2026-03-29T15:19:07Z</time></trkpt><trkpt lat="43.895246677985064" lon="10.25725105717275"><ele>-0.5</ele><time>2026-03-29T15:19:08Z</time></trkpt><trkpt lat="43.89544109640084" lon="10.257048830931195"><ele>-1.0</ele><time>2026-03-29T15:19:09Z</time></trkpt><trkpt lat="43.89562004146958" lon="10.256858862290281"><ele>-1.0</ele><time>2026-03-29T15:19:10Z</time></trkpt><trkpt lat="43.89579018730607" lon="10.256673277209167"><ele>-1.0</ele><time>2026-03-29T15:19:11Z</time></trkpt><trkpt lat="43.89596029525708" lon="10.25648519511557"><ele>-1.0</ele><time>2026-03-29T15:19:12Z</time></trkpt><trkpt lat="43.896119598867564" lon="10.256299521077901"><ele>0.0</ele><time>2026-03-29T15:19:13Z</time></trkpt><trkpt lat="43.896275947383224" lon="10.256117898694782"><ele>1.0</ele><time>2026-03-29T15:19:14Z</time></trkpt><trkpt lat="43.896438731573305" lon="10.255929483196338"><ele>2.0</ele><time>2026-03-29T15:19:15Z</time></trkpt><trkpt lat="43.896602436526216" lon="10.255738346511174"><ele>1.0</ele><time>2026-03-29T15:19:16Z</time></trkpt><trkpt lat="43.8967875590129" lon="10.255529741502748"><ele>0.0</ele><time>2026-03-29T15:19:17Z</time></trkpt><trkpt lat="43.89699636310997" lon="10.255306870328603"><ele>0.0</ele><time>2026-03-29T15:19:18Z</time></trkpt><trkpt lat="43.897204371099676" lon="10.255068688763826"><ele>0.0</ele><time>2026-03-29T15:19:19Z</time></trkpt><trkpt lat="43.89742414651056" lon="10.254818210133745"><ele>-0.5</ele><time>2026-03-29T15:19:20Z</time></trkpt><trkpt lat="43.8976562660301" lon="10.254556370030631"><ele>-1.0</ele><time>2026-03-29T15:19:21Z</time></trkpt><trkpt lat="43.897886158493584" lon="10.254289659942756"><ele>-1.0</ele><time>2026-03-29T15:19:22Z</time></trkpt><trkpt lat="43.89809567627126" lon="10.254055229485722"><ele>-1.0</ele><time>2026-03-29T15:19:23Z</time></trkpt><trkpt lat="43.89830550783662" lon="10.25382265713019"><ele>1.0</ele><time>2026-03-29T15:19:24Z</time></trkpt><trkpt lat="43.89851241380445" lon="10.253588544080655"><ele>3.0</ele><time>2026-03-29T15:19:25Z</time></trkpt><trkpt lat="43.89871700572212" lon="10.253356751809907"><ele>3.0</ele><time>2026-03-29T15:19:26Z</time></trkpt><trkpt lat="43.89891748968103" lon="10.253126245158377"><ele>3.0</ele><time>2026-03-29T15:19:27Z</time></trkpt><trkpt lat="43.899119177773514" lon="10.252899247659416"><ele>3.0</ele><time>2026-03-29T15:19:28Z</time></trkpt><trkpt lat="43.89932121485105" lon="10.252671596259509"><ele>3.0</ele><time>2026-03-29T15:19:29Z</time></trkpt><trkpt lat="43.89952281073693" lon="10.2524443976566"><ele>3.0</ele><time>2026-03-29T15:19:30Z</time></trkpt><trkpt lat="43.89972646931323" lon="10.252218405858036"><ele>3.0</ele><time>2026-03-29T15:19:31Z</time></trkpt><trkpt lat="43.89992971151535" lon="10.251991971779171"><ele>2.5</ele><time>2026-03-29T15:19:32Z</time></trkpt><trkpt lat="43.900131923568516" lon="10.251765790420079"><ele>2.0</ele><time>2026-03-29T15:19:33Z</time></trkpt><trkpt lat="43.90033109152857" lon="10.25154262918043"><ele>3.0</ele><time>2026-03-29T15:19:34Z</time></trkpt><trkpt lat="43.90053061252078" lon="10.25131644396369"><ele>4.0</ele><time>2026-03-29T15:19:35Z</time></trkpt><trkpt lat="43.90073048099375" lon="10.25108714870368"><ele>3.5</ele><time>2026-03-29T15:19:36Z</time></trkpt><trkpt lat="43.90092891650571" lon="10.250856163339128"><ele>3.0</ele><time>2026-03-29T15:19:37Z</time></trkpt><trkpt lat="43.90113103075071" lon="10.250627041253015"><ele>3.0</ele><time>2026-03-29T15:19:38Z</time></trkpt><trkpt lat="43.901332779342425" lon="10.250396252822027"><ele>3.0</ele><time>2026-03-29T15:19:39Z</time></trkpt><trkpt lat="43.90153647727761" lon="10.250167043102614"><ele>3.0</ele><time>2026-03-29T15:19:40Z</time></trkpt><trkpt lat="43.90173926426103" lon="10.249935486620936"><ele>3.0</ele><time>2026-03-29T15:19:41Z</time></trkpt><trkpt lat="43.90194471255026" lon="10.249699481553494"><ele>3.0</ele><time>2026-03-29T15:19:42Z</time></trkpt><trkpt lat="43.90214938096211" lon="10.249466276068345"><ele>3.0</ele><time>2026-03-29T15:19:43Z</time></trkpt><trkpt lat="43.902355600376005" lon="10.249235725798917"><ele>3.0</ele><time>2026-03-29T15:19:44Z</time></trkpt><trkpt lat="43.90256328303653" lon="10.24900336178843"><ele>3.0</ele><time>2026-03-29T15:19:45Z</time></trkpt><trkpt lat="43.902771280569624" lon="10.248764833623303"><ele>3.0</ele><time>2026-03-29T15:19:46Z</time></trkpt><trkpt lat="43.90297789279424" lon="10.248526122468636"><ele>3.0</ele><time>2026-03-29T15:19:46.999Z</time></trkpt><trkpt lat="43.90318740431668" lon="10.248289480010088"><ele>2.5</ele><time>2026-03-29T15:19:47.999Z</time></trkpt><trkpt lat="43.90339542127429" lon="10.248056370316672"><ele>2.0</ele><time>2026-03-29T15:19:48.999Z</time></trkpt><trkpt lat="43.90360250069605" lon="10.247823675259006"><ele>1.5</ele><time>2026-03-29T15:19:49.999Z</time></trkpt><trkpt lat="43.903812596695154" lon="10.24758934345449"><ele>1.0</ele><time>2026-03-29T15:19:50.999Z</time></trkpt><trkpt lat="43.90401948936992" lon="10.247353173174776"><ele>1.0</ele><time>2026-03-29T15:19:51.999Z</time></trkpt><trkpt lat="43.90422429500368" lon="10.247119566846608"><ele>1.0</ele><time>2026-03-29T15:19:52.999Z</time></trkpt><trkpt lat="43.90443026448028" lon="10.246886900891315"><ele>1.0</ele><time>2026-03-29T15:19:53.999Z</time></trkpt><trkpt lat="43.90463734743941" lon="10.246653722762481"><ele>1.0</ele><time>2026-03-29T15:19:54.999Z</time></trkpt><trkpt lat="43.904844711028204" lon="10.246418770979698"><ele>1.0</ele><time>2026-03-29T15:19:55.999Z</time></trkpt><trkpt lat="43.90505245876924" lon="10.246184658707751"><ele>1.0</ele><time>2026-03-29T15:19:56.999Z</time></trkpt><trkpt lat="43.905261916621036" lon="10.245948302921292"><ele>1.0</ele><time>2026-03-29T15:19:57.999Z</time></trkpt><trkpt lat="43.90546895307436" lon="10.245714397760699"><ele>1.0</ele><time>2026-03-29T15:19:58.999Z</time></trkpt><trkpt lat="43.90567803000985" lon="10.245478709699213"><ele>1.0</ele><time>2026-03-29T15:19:59.999Z</time></trkpt><trkpt lat="43.905883216626385" lon="10.24524608099728"><ele>1.0</ele><time>2026-03-29T15:20:00.999Z</time></trkpt><trkpt lat="43.90609068689555" lon="10.24501291009089"><ele>1.0</ele><time>2026-03-29T15:20:01.999Z</time></trkpt><trkpt lat="43.906297358672674" lon="10.244782042409037"><ele>1.0</ele><time>2026-03-29T15:20:02.999Z</time></trkpt><trkpt lat="43.906501818181574" lon="10.24455269256524"><ele>1.0</ele><time>2026-03-29T15:20:03.999Z</time></trkpt><trkpt lat="43.906707172686836" lon="10.244318244870268"><ele>1.0</ele><time>2026-03-29T15:20:04.999Z</time></trkpt><trkpt lat="43.90691255631192" lon="10.24408507270548"><ele>1.5</ele><time>2026-03-29T15:20:05.999Z</time></trkpt><trkpt lat="43.9071166719714" lon="10.24385419302313"><ele>2.0</ele><time>2026-03-29T15:20:06.999Z</time></trkpt><trkpt lat="43.90732142390885" lon="10.24361996288523"><ele>2.0</ele><time>2026-03-29T15:20:07.999Z</time></trkpt><trkpt lat="43.90752578583684" lon="10.243385872611071"><ele>2.0</ele><time>2026-03-29T15:20:08.999Z</time></trkpt><trkpt lat="43.90773111460443" lon="10.243153750289904"><ele>2.0</ele><time>2026-03-29T15:20:09.999Z</time></trkpt><trkpt lat="43.90793935013659" lon="10.242919765830584"><ele>2.0</ele><time>2026-03-29T15:20:10.999Z</time></trkpt><trkpt lat="43.908148834879825" lon="10.242689257954565"><ele>2.0</ele><time>2026-03-29T15:20:11.999Z</time></trkpt><trkpt lat="43.90835986383201" lon="10.242459086695982"><ele>2.0</ele><time>2026-03-29T15:20:12.999Z</time></trkpt><trkpt lat="43.90857538964807" lon="10.242228297103308"><ele>2.0</ele><time>2026-03-29T15:20:13.999Z</time></trkpt><trkpt lat="43.908794831807626" lon="10.242004111552516"><ele>2.0</ele><time>2026-03-29T15:20:14.999Z</time></trkpt><trkpt lat="43.90901449850152" lon="10.241780462160685"><ele>1.0</ele><time>2026-03-29T15:20:15.999Z</time></trkpt><trkpt lat="43.90924326646459" lon="10.241561094555834"><ele>0.0</ele><time>2026-03-29T15:20:16.999Z</time></trkpt><trkpt lat="43.909468078185114" lon="10.241340621211808"><ele>0.0</ele><time>2026-03-29T15:20:17.999Z</time></trkpt><trkpt lat="43.90969560592462" lon="10.241122417389505"><ele>0.0</ele><time>2026-03-29T15:20:18.999Z</time></trkpt><trkpt lat="43.90992272664388" lon="10.240902473373227"><ele>0.5</ele><time>2026-03-29T15:20:19.999Z</time></trkpt><trkpt lat="43.91015052559868" lon="10.24068246079487"><ele>1.0</ele><time>2026-03-29T15:20:20.999Z</time></trkpt><trkpt lat="43.910381400553106" lon="10.240459509113947"><ele>1.0</ele><time>2026-03-29T15:20:21.999Z</time></trkpt><trkpt lat="43.91061146733836" lon="10.24023619750441"><ele>1.0</ele><time>2026-03-29T15:20:22.999Z</time></trkpt><trkpt lat="43.9108431340468" lon="10.240011205032287"><ele>1.5</ele><time>2026-03-29T15:20:23.999Z</time></trkpt><trkpt lat="43.91107396252984" lon="10.23978377968643"><ele>2.0</ele><time>2026-03-29T15:20:24.999Z</time></trkpt><trkpt lat="43.911304841360426" lon="10.239557216590729"><ele>2.0</ele><time>2026-03-29T15:20:25.999Z</time></trkpt><trkpt lat="43.911536801701146" lon="10.239331112847212"><ele>2.0</ele><time>2026-03-29T15:20:26.999Z</time></trkpt><trkpt lat="43.91175274573046" lon="10.239122245458327"><ele>1.0</ele><time>2026-03-29T15:20:27.999Z</time></trkpt><trkpt lat="43.9119663931423" lon="10.238916573708668"><ele>0.0</ele><time>2026-03-29T15:20:28.999Z</time></trkpt><trkpt lat="43.91218239519509" lon="10.238703794093935"><ele>0.0</ele><time>2026-03-29T15:20:29.999Z</time></trkpt><trkpt lat="43.91239924290358" lon="10.238485633718762"><ele>0.0</ele><time>2026-03-29T15:20:30.999Z</time></trkpt><trkpt lat="43.91261444985651" lon="10.238263754527868"><ele>1.0</ele><time>2026-03-29T15:20:31.999Z</time></trkpt><trkpt lat="43.91283393785741" lon="10.238038426230576"><ele>2.0</ele><time>2026-03-29T15:20:32.999Z</time></trkpt><trkpt lat="43.91305623315818" lon="10.237815335898345"><ele>2.0</ele><time>2026-03-29T15:20:33.999Z</time></trkpt><trkpt lat="43.91327997668325" lon="10.237595031520128"><ele>2.0</ele><time>2026-03-29T15:20:34.999Z</time></trkpt><trkpt lat="43.91350844680274" lon="10.237376848103025"><ele>1.5</ele><time>2026-03-29T15:20:35.999Z</time></trkpt><trkpt lat="43.91373841914022" lon="10.237155308205992"><ele>1.0</ele><time>2026-03-29T15:20:36.999Z</time></trkpt><trkpt lat="43.913966709434995" lon="10.23692975918961"><ele>1.0</ele><time>2026-03-29T15:20:37.999Z</time></trkpt><trkpt lat="43.91419201106692" lon="10.236707531022518"><ele>1.0</ele><time>2026-03-29T15:20:38.999Z</time></trkpt><trkpt lat="43.91442422156004" lon="10.236483457335623"><ele>1.0</ele><time>2026-03-29T15:20:40Z</time></trkpt><trkpt lat="43.91465150031302" lon="10.236259603414881"><ele>1.0</ele><time>2026-03-29T15:20:41Z</time></trkpt><trkpt lat="43.9148751572493" lon="10.236039023595252"><ele>0.5</ele><time>2026-03-29T15:20:42Z</time></trkpt><trkpt lat="43.915104570094336" lon="10.235815184822146"><ele>0.0</ele><time>2026-03-29T15:20:43Z</time></trkpt><trkpt lat="43.915334843828575" lon="10.235589576504735"><ele>0.0</ele><time>2026-03-29T15:20:44Z</time></trkpt><trkpt lat="43.91557344598709" lon="10.235358521378911"><ele>0.0</ele><time>2026-03-29T15:20:45Z</time></trkpt><trkpt lat="43.915816089623206" lon="10.235126255932926"><ele>-0.5</ele><time>2026-03-29T15:20:46Z</time></trkpt><trkpt lat="43.916065354178826" lon="10.234899585691815"><ele>-1.0</ele><time>2026-03-29T15:20:47Z</time></trkpt><trkpt lat="43.916311165485396" lon="10.234675639632954"><ele>-1.0</ele><time>2026-03-29T15:20:48Z</time></trkpt><trkpt lat="43.916536560601585" lon="10.234466692405032"><ele>-1.0</ele><time>2026-03-29T15:20:49Z</time></trkpt><trkpt lat="43.91675781916488" lon="10.23425048694695"><ele>-1.0</ele><time>2026-03-29T15:20:50Z</time></trkpt><trkpt lat="43.916983707062265" lon="10.234029095844924"><ele>-1.0</ele><time>2026-03-29T15:20:51Z</time></trkpt><trkpt lat="43.91720748978396" lon="10.23380961033398"><ele>-1.0</ele><time>2026-03-29T15:20:52Z</time></trkpt><trkpt lat="43.91743250887855" lon="10.233592794086942"><ele>-1.0</ele><time>2026-03-29T15:20:53Z</time></trkpt><trkpt lat="43.917656973313306" lon="10.233375125983162"><ele>-1.5</ele><time>2026-03-29T15:20:54Z</time></trkpt><trkpt lat="43.917881899949975" lon="10.233156378996508"><ele>-2.0</ele><time>2026-03-29T15:20:55Z</time></trkpt><trkpt lat="43.918107343873714" lon="10.232935400019885"><ele>-1.0</ele><time>2026-03-29T15:20:56Z</time></trkpt><trkpt lat="43.918333590883044" lon="10.232715097880972"><ele>0.0</ele><time>2026-03-29T15:20:57Z</time></trkpt><trkpt lat="43.91855959493652" lon="10.232496584126999"><ele>0.5</ele><time>2026-03-29T15:20:58Z</time></trkpt><trkpt lat="43.91878388899454" lon="10.232279518978343"><ele>1.0</ele><time>2026-03-29T15:20:59Z</time></trkpt><trkpt lat="43.91900929569424" lon="10.232058611291837"><ele>0.5</ele><time>2026-03-29T15:21:00Z</time></trkpt><trkpt lat="43.91923499658172" lon="10.23183927402241"><ele>0.0</ele><time>2026-03-29T15:21:01Z</time></trkpt><trkpt lat="43.919459465321985" lon="10.231617353625508"><ele>0.0</ele><time>2026-03-29T15:21:02Z</time></trkpt><trkpt lat="43.9196846359126" lon="10.231397444816839"><ele>0.0</ele><time>2026-03-29T15:21:03Z</time></trkpt><trkpt lat="43.91990844040838" lon="10.231179873009236"><ele>0.0</ele><time>2026-03-29T15:21:04Z</time></trkpt><trkpt lat="43.92013206519331" lon="10.230962704412041"><ele>0.0</ele><time>2026-03-29T15:21:05Z</time></trkpt><trkpt lat="43.92035639351241" lon="10.230746303417433"><ele>0.5</ele><time>2026-03-29T15:21:06Z</time></trkpt><trkpt lat="43.92058033612245" lon="10.230530741279372"><ele>1.0</ele><time>2026-03-29T15:21:07Z</time></trkpt><trkpt lat="43.92080104964868" lon="10.230317498604222"><ele>1.0</ele><time>2026-03-29T15:21:08Z</time></trkpt><trkpt lat="43.921020381449566" lon="10.23010109188783"><ele>1.0</ele><time>2026-03-29T15:21:09Z</time></trkpt><trkpt lat="43.92123971763678" lon="10.229880954542512"><ele>0.5</ele><time>2026-03-29T15:21:10Z</time></trkpt><trkpt lat="43.92145974981678" lon="10.229661681828953"><ele>0.0</ele><time>2026-03-29T15:21:11Z</time></trkpt><trkpt lat="43.92168343683966" lon="10.229446067745426"><ele>-0.5</ele><time>2026-03-29T15:21:12Z</time></trkpt><trkpt lat="43.92190554170057" lon="10.229229346411039"><ele>-1.0</ele><time>2026-03-29T15:21:13Z</time></trkpt><trkpt lat="43.92212909034128" lon="10.229013088598313"><ele>-0.5</ele><time>2026-03-29T15:21:14Z</time></trkpt><trkpt lat="43.92235602400572" lon="10.228795619375365"><ele>0.0</ele><time>2026-03-29T15:21:15Z</time></trkpt><trkpt lat="43.92258261116301" lon="10.228574958588808"><ele>0.0</ele><time>2026-03-29T15:21:16Z</time></trkpt><trkpt lat="43.922811640635686" lon="10.22835186521453"><ele>0.0</ele><time>2026-03-29T15:21:17Z</time></trkpt><trkpt lat="43.92304233082802" lon="10.228132889037411"><ele>0.0</ele><time>2026-03-29T15:21:18Z</time></trkpt><trkpt lat="43.92327728658945" lon="10.227916260193286"><ele>0.0</ele><time>2026-03-29T15:21:19Z</time></trkpt><trkpt lat="43.92351130342981" lon="10.227701531030524"><ele>0.5</ele><time>2026-03-29T15:21:20Z</time></trkpt><trkpt lat="43.9237466466094" lon="10.227487387121077"><ele>1.0</ele><time>2026-03-29T15:21:21Z</time></trkpt><trkpt lat="43.92398571911205" lon="10.227276506021695"><ele>2.0</ele><time>2026-03-29T15:21:22Z</time></trkpt><trkpt lat="43.9242248092162" lon="10.227064544969707"><ele>3.0</ele><time>2026-03-29T15:21:23Z</time></trkpt><trkpt lat="43.92446359973524" lon="10.226856149445231"><ele>3.0</ele><time>2026-03-29T15:21:24Z</time></trkpt><trkpt lat="43.92469168079717" lon="10.22665945927688"><ele>3.0</ele><time>2026-03-29T15:21:25Z</time></trkpt><trkpt lat="43.92490881665508" lon="10.22647265555458"><ele>2.5</ele><time>2026-03-29T15:21:26Z</time></trkpt><trkpt lat="43.92513266189397" lon="10.226283427442432"><ele>2.0</ele><time>2026-03-29T15:21:27Z</time></trkpt><trkpt lat="43.92536072211416" lon="10.22609467507613"><ele>2.0</ele><time>2026-03-29T15:21:28Z</time></trkpt><trkpt lat="43.92559219924959" lon="10.22590878803272"><ele>2.0</ele><time>2026-03-29T15:21:29Z</time></trkpt><trkpt lat="43.92582411288293" lon="10.225722546481958"><ele>2.5</ele><time>2026-03-29T15:21:30Z</time></trkpt><trkpt lat="43.92606073303347" lon="10.225537501073187"><ele>3.0</ele><time>2026-03-29T15:21:31Z</time></trkpt><trkpt lat="43.92629604278824" lon="10.22535392685694"><ele>3.0</ele><time>2026-03-29T15:21:32Z</time></trkpt><trkpt lat="43.92653440080624" lon="10.225171169470032"><ele>3.0</ele><time>2026-03-29T15:21:33Z</time></trkpt><trkpt lat="43.926774101999015" lon="10.224988082752303"><ele>2.0</ele><time>2026-03-29T15:21:34Z</time></trkpt><trkpt lat="43.92701465978963" lon="10.224805950918809"><ele>1.0</ele><time>2026-03-29T15:21:35Z</time></trkpt><trkpt lat="43.927257812168854" lon="10.224622276432445"><ele>1.0</ele><time>2026-03-29T15:21:36Z</time></trkpt><trkpt lat="43.92750111210822" lon="10.224437634728991"><ele>1.0</ele><time>2026-03-29T15:21:37Z</time></trkpt><trkpt lat="43.9277423939075" lon="10.224253436745654"><ele>1.5</ele><time>2026-03-29T15:21:38Z</time></trkpt><trkpt lat="43.92798848868107" lon="10.224069437239939"><ele>2.0</ele><time>2026-03-29T15:21:39Z</time></trkpt><trkpt lat="43.92823736607133" lon="10.223886200873922"><ele>2.0</ele><time>2026-03-29T15:21:40Z</time></trkpt><trkpt lat="43.92848922636703" lon="10.223706199141091"><ele>2.0</ele><time>2026-03-29T15:21:41Z</time></trkpt><trkpt lat="43.92875965359145" lon="10.223519079628273"><ele>2.0</ele><time>2026-03-29T15:21:42Z</time></trkpt><trkpt lat="43.92903887202724" lon="10.223325554008653"><ele>2.0</ele><time>2026-03-29T15:21:43Z</time></trkpt><trkpt lat="43.92932435455042" lon="10.223125515108023"><ele>2.0</ele><time>2026-03-29T15:21:44Z</time></trkpt><trkpt lat="43.92961394542699" lon="10.222918780231174"><ele>2.0</ele><time>2026-03-29T15:21:45Z</time></trkpt><trkpt lat="43.92990755258694" lon="10.222709792616534"><ele>2.0</ele><time>2026-03-29T15:21:46Z</time></trkpt><trkpt lat="43.93020506343363" lon="10.222499633901675"><ele>2.0</ele><time>2026-03-29T15:21:47Z</time></trkpt><trkpt lat="43.93050706958273" lon="10.222290763722215"><ele>2.0</ele><time>2026-03-29T15:21:48Z</time></trkpt><trkpt lat="43.93080489814447" lon="10.222088192908297"><ele>2.0</ele><time>2026-03-29T15:21:49Z</time></trkpt><trkpt lat="43.931078018119756" lon="10.22190518717027"><ele>2.0</ele><time>2026-03-29T15:21:50Z</time></trkpt><trkpt lat="43.93133856450732" lon="10.221733085053076"><ele>2.0</ele><time>2026-03-29T15:21:51Z</time></trkpt><trkpt lat="43.93159720967178" lon="10.221559653553317"><ele>1.5</ele><time>2026-03-29T15:21:52Z</time></trkpt><trkpt lat="43.93185468250282" lon="10.221387770742657"><ele>1.0</ele><time>2026-03-29T15:21:53Z</time></trkpt><trkpt lat="43.93211208525856" lon="10.22121459044723"><ele>1.0</ele><time>2026-03-29T15:21:53.999Z</time></trkpt><trkpt lat="43.932364682554514" lon="10.221039727293624"><ele>1.0</ele><time>2026-03-29T15:21:54.999Z</time></trkpt><trkpt lat="43.93261831895508" lon="10.220860916667464"><ele>1.0</ele><time>2026-03-29T15:21:55.999Z</time></trkpt><trkpt lat="43.932869987275424" lon="10.22068267226462"><ele>1.0</ele><time>2026-03-29T15:21:56.999Z</time></trkpt><trkpt lat="43.933121563844296" lon="10.22050706392162"><ele>1.0</ele><time>2026-03-29T15:21:57.999Z</time></trkpt><trkpt lat="43.93337339883792" lon="10.220332142625761"><ele>1.0</ele><time>2026-03-29T15:21:58.999Z</time></trkpt><trkpt lat="43.93362247845449" lon="10.220159861491219"><ele>1.0</ele><time>2026-03-29T15:21:59.999Z</time></trkpt><trkpt lat="43.9338757263714" lon="10.219984517288458"><ele>1.0</ele><time>2026-03-29T15:22:00.999Z</time></trkpt><trkpt lat="43.93412883211874" lon="10.219806364652223"><ele>0.0</ele><time>2026-03-29T15:22:01.999Z</time></trkpt><trkpt lat="43.934382361152224" lon="10.21962805425496"><ele>-1.0</ele><time>2026-03-29T15:22:02.999Z</time></trkpt><trkpt lat="43.9346360433406" lon="10.21944813938964"><ele>-1.0</ele><time>2026-03-29T15:22:03.999Z</time></trkpt><trkpt lat="43.93489317349" lon="10.219267347844971"><ele>-1.0</ele><time>2026-03-29T15:22:04.999Z</time></trkpt><trkpt lat="43.93515010859548" lon="10.21908659857972"><ele>0.0</ele><time>2026-03-29T15:22:05.999Z</time></trkpt><trkpt lat="43.93540722849087" lon="10.218905753788297"><ele>1.0</ele><time>2026-03-29T15:22:06.999Z</time></trkpt><trkpt lat="43.93566514010992" lon="10.218727309989744"><ele>0.5</ele><time>2026-03-29T15:22:07.999Z</time></trkpt><trkpt lat="43.935923916355456" lon="10.218549443943699"><ele>0.0</ele><time>2026-03-29T15:22:08.999Z</time></trkpt><trkpt lat="43.93618222511149" lon="10.218368387629285"><ele>0.0</ele><time>2026-03-29T15:22:09.999Z</time></trkpt><trkpt lat="43.93643509121228" lon="10.218194962712488"><ele>0.0</ele><time>2026-03-29T15:22:10.999Z</time></trkpt><trkpt lat="43.93669483667361" lon="10.218002223132924"><ele>0.0</ele><time>2026-03-29T15:22:11.999Z</time></trkpt><trkpt lat="43.936954571326375" lon="10.217821539244206"><ele>0.0</ele><time>2026-03-29T15:22:12.999Z</time></trkpt><trkpt lat="43.93721245676292" lon="10.21764235120081"><ele>0.0</ele><time>2026-03-29T15:22:13.999Z</time></trkpt><trkpt lat="43.93746999428963" lon="10.217464884109825"><ele>0.0</ele><time>2026-03-29T15:22:14.999Z</time></trkpt><trkpt lat="43.93772937745522" lon="10.217281971249681"><ele>0.5</ele><time>2026-03-29T15:22:15.999Z</time></trkpt><trkpt lat="43.93798797045387" lon="10.21710095889223"><ele>1.0</ele><time>2026-03-29T15:22:16.999Z</time></trkpt><trkpt lat="43.93824565247851" lon="10.216920091071014"><ele>0.5</ele><time>2026-03-29T15:22:17.999Z</time></trkpt><trkpt lat="43.93850142362966" lon="10.216743231499274"><ele>0.0</ele><time>2026-03-29T15:22:18.999Z</time></trkpt><trkpt lat="43.93876109608291" lon="10.21656319677183"><ele>1.0</ele><time>2026-03-29T15:22:19.999Z</time></trkpt><trkpt lat="43.93901729712394" lon="10.216384413122713"><ele>2.0</ele><time>2026-03-29T15:22:20.999Z</time></trkpt><trkpt lat="43.93927454742738" lon="10.216203759796578"><ele>2.0</ele><time>2026-03-29T15:22:21.999Z</time></trkpt><trkpt lat="43.939528578478836" lon="10.216024271631653"><ele>2.0</ele><time>2026-03-29T15:22:22.999Z</time></trkpt><trkpt lat="43.939782725245564" lon="10.21584596102884"><ele>2.0</ele><time>2026-03-29T15:22:23.999Z</time></trkpt><trkpt lat="43.94003663608918" lon="10.215670515574663"><ele>2.0</ele><time>2026-03-29T15:22:24.999Z</time></trkpt><trkpt lat="43.94029150276276" lon="10.215495359656533"><ele>1.5</ele><time>2026-03-29T15:22:25.999Z</time></trkpt><trkpt lat="43.94054458850335" lon="10.21532056840519"><ele>1.0</ele><time>2026-03-29T15:22:26.999Z</time></trkpt><trkpt lat="43.94079705792632" lon="10.21514436965756"><ele>1.5</ele><time>2026-03-29T15:22:27.999Z</time></trkpt><trkpt lat="43.94104893149438" lon="10.214968820933322"><ele>2.0</ele><time>2026-03-29T15:22:28.999Z</time></trkpt><trkpt lat="43.94130086221328" lon="10.21479147179794"><ele>2.5</ele><time>2026-03-29T15:22:29.999Z</time></trkpt><trkpt lat="43.94155406133794" lon="10.214611605197975"><ele>3.0</ele><time>2026-03-29T15:22:30.999Z</time></trkpt><trkpt lat="43.94180687827588" lon="10.214431481050562"><ele>3.5</ele><time>2026-03-29T15:22:31.999Z</time></trkpt><trkpt lat="43.94206217913923" lon="10.214250682461458"><ele>4.0</ele><time>2026-03-29T15:22:32.999Z</time></trkpt><trkpt lat="43.94231656686228" lon="10.214069692509396"><ele>4.5</ele><time>2026-03-29T15:22:33.999Z</time></trkpt><trkpt lat="43.94257219455045" lon="10.213894461220645"><ele>5.0</ele><time>2026-03-29T15:22:34.999Z</time></trkpt><trkpt lat="43.94283057015169" lon="10.21371679372646"><ele>5.0</ele><time>2026-03-29T15:22:35.999Z</time></trkpt><trkpt lat="43.94308391988265" lon="10.213540318214108"><ele>5.0</ele><time>2026-03-29T15:22:36.999Z</time></trkpt><trkpt lat="43.94334133456246" lon="10.213361192235924"><ele>4.0</ele><time>2026-03-29T15:22:37.999Z</time></trkpt><trkpt lat="43.94359743484591" lon="10.213182887775133"><ele>3.0</ele><time>2026-03-29T15:22:38.999Z</time></trkpt><trkpt lat="43.94385349646274" lon="10.21300271252868"><ele>3.0</ele><time>2026-03-29T15:22:39.999Z</time></trkpt><trkpt lat="43.94411182774713" lon="10.212819168309958"><ele>3.0</ele><time>2026-03-29T15:22:40.999Z</time></trkpt><trkpt lat="43.94437084254937" lon="10.212633841966397"><ele>3.0</ele><time>2026-03-29T15:22:41.999Z</time></trkpt><trkpt lat="43.94462516868424" lon="10.212443689031296"><ele>3.0</ele><time>2026-03-29T15:22:42.999Z</time></trkpt><trkpt lat="43.944874474208866" lon="10.212244373432814"><ele>4.0</ele><time>2026-03-29T15:22:43.999Z</time></trkpt><trkpt lat="43.94512269740114" lon="10.21204338600185"><ele>5.0</ele><time>2026-03-29T15:22:45Z</time></trkpt><trkpt lat="43.94536701835322" lon="10.21183586014297"><ele>5.0</ele><time>2026-03-29T15:22:46Z</time></trkpt><trkpt lat="43.94560992324454" lon="10.211621705556123"><ele>5.0</ele><time>2026-03-29T15:22:47Z</time></trkpt><trkpt lat="43.945849350550745" lon="10.211407989448807"><ele>5.0</ele><time>2026-03-29T15:22:48Z</time></trkpt><trkpt lat="43.946085594401474" lon="10.211187307542287"><ele>5.0</ele><time>2026-03-29T15:22:49Z</time></trkpt><trkpt lat="43.946319906201325" lon="10.210958931614734"><ele>5.0</ele><time>2026-03-29T15:22:50Z</time></trkpt><trkpt lat="43.9465519475863" lon="10.210723886354758"><ele>5.0</ele><time>2026-03-29T15:22:51Z</time></trkpt><trkpt lat="43.94678115378391" lon="10.210484740408686"><ele>5.0</ele><time>2026-03-29T15:22:52Z</time></trkpt><trkpt lat="43.94700903749679" lon="10.210238084548896"><ele>5.0</ele><time>2026-03-29T15:22:53Z</time></trkpt><trkpt lat="43.94723375020108" lon="10.209989867587728"><ele>4.5</ele><time>2026-03-29T15:22:54Z</time></trkpt><trkpt lat="43.94745873104044" lon="10.209736797725297"><ele>4.0</ele><time>2026-03-29T15:22:55Z</time></trkpt><trkpt lat="43.94768366340636" lon="10.209482579157129"><ele>4.0</ele><time>2026-03-29T15:22:56Z</time></trkpt><trkpt lat="43.94790927161412" lon="10.209233312881233"><ele>4.0</ele><time>2026-03-29T15:22:57Z</time></trkpt><trkpt lat="43.948137198912825" lon="10.208978776178192"><ele>4.0</ele><time>2026-03-29T15:22:58Z</time></trkpt><trkpt lat="43.94836516554982" lon="10.208725620444271"><ele>4.0</ele><time>2026-03-29T15:22:59Z</time></trkpt><trkpt lat="43.94859351837552" lon="10.208470623734046"><ele>3.5</ele><time>2026-03-29T15:23:00Z</time></trkpt><trkpt lat="43.948821957446064" lon="10.208213842261687"><ele>3.0</ele><time>2026-03-29T15:23:01Z</time></trkpt><trkpt lat="43.94905234718074" lon="10.207956576036953"><ele>3.0</ele><time>2026-03-29T15:23:02Z</time></trkpt><trkpt lat="43.949283784855574" lon="10.207699985447244"><ele>3.0</ele><time>2026-03-29T15:23:03Z</time></trkpt><trkpt lat="43.949515168981414" lon="10.207443966291029"><ele>2.5</ele><time>2026-03-29T15:23:04Z</time></trkpt><trkpt lat="43.94974629048213" lon="10.207186918028421"><ele>2.0</ele><time>2026-03-29T15:23:05Z</time></trkpt><trkpt lat="43.949975836816485" lon="10.20692702221641"><ele>2.0</ele><time>2026-03-29T15:23:06Z</time></trkpt><trkpt lat="43.950204955246555" lon="10.206667418076139"><ele>2.0</ele><time>2026-03-29T15:23:07Z</time></trkpt><trkpt lat="43.95043411505046" lon="10.206410222951087"><ele>2.0</ele><time>2026-03-29T15:23:08Z</time></trkpt><trkpt lat="43.950663601809225" lon="10.206151818063075"><ele>2.0</ele><time>2026-03-29T15:23:09Z</time></trkpt><trkpt lat="43.95089156891823" lon="10.205892059493117"><ele>2.0</ele><time>2026-03-29T15:23:10Z</time></trkpt><trkpt lat="43.95112134873227" lon="10.205633863565442"><ele>2.0</ele><time>2026-03-29T15:23:11Z</time></trkpt><trkpt lat="43.95134868859294" lon="10.205378373397306"><ele>2.0</ele><time>2026-03-29T15:23:12Z</time></trkpt><trkpt lat="43.95157398781393" lon="10.205124568380024"><ele>2.0</ele><time>2026-03-29T15:23:13Z</time></trkpt><trkpt lat="43.95180241277628" lon="10.204871596753431"><ele>3.0</ele><time>2026-03-29T15:23:14Z</time></trkpt><trkpt lat="43.9520341541964" lon="10.20461828806357"><ele>4.0</ele><time>2026-03-29T15:23:15Z</time></trkpt><trkpt lat="43.95226346863246" lon="10.20436468532076"><ele>4.0</ele><time>2026-03-29T15:23:16Z</time></trkpt><trkpt lat="43.952491090522294" lon="10.204111570683084"><ele>4.0</ele><time>2026-03-29T15:23:17Z</time></trkpt><trkpt lat="43.952717628353795" lon="10.203858313281016"><ele>3.0</ele><time>2026-03-29T15:23:18Z</time></trkpt><trkpt lat="43.95294714891843" lon="10.203599410142152"><ele>2.0</ele><time>2026-03-29T15:23:19Z</time></trkpt><trkpt lat="43.95317309571894" lon="10.20334553122734"><ele>2.5</ele><time>2026-03-29T15:23:20Z</time></trkpt><trkpt lat="43.953395688800015" lon="10.203096829599907"><ele>3.0</ele><time>2026-03-29T15:23:21Z</time></trkpt><trkpt lat="43.95361940284908" lon="10.202846347339536"><ele>3.0</ele><time>2026-03-29T15:23:22Z</time></trkpt><trkpt lat="43.95384282395977" lon="10.202596567628092"><ele>3.0</ele><time>2026-03-29T15:23:23Z</time></trkpt><trkpt lat="43.95406530163467" lon="10.202347092145086"><ele>2.0</ele><time>2026-03-29T15:23:24Z</time></trkpt><trkpt lat="43.954286544163644" lon="10.202097886759175"><ele>1.0</ele><time>2026-03-29T15:23:25Z</time></trkpt><trkpt lat="43.95451022818993" lon="10.2018438289584"><ele>1.0</ele><time>2026-03-29T15:23:26Z</time></trkpt><trkpt lat="43.95473355137734" lon="10.201593695238701"><ele>1.0</ele><time>2026-03-29T15:23:27Z</time></trkpt><trkpt lat="43.95495924310952" lon="10.201342253844409"><ele>2.0</ele><time>2026-03-29T15:23:28Z</time></trkpt><trkpt lat="43.955181407353805" lon="10.201090778906385"><ele>3.0</ele><time>2026-03-29T15:23:29Z</time></trkpt><trkpt lat="43.95540433130718" lon="10.200842814720241"><ele>3.5</ele><time>2026-03-29T15:23:30Z</time></trkpt><trkpt lat="43.95562896064599" lon="10.200596829014296"><ele>4.0</ele><time>2026-03-29T15:23:31Z</time></trkpt><trkpt lat="43.95585401613269" lon="10.200350601237"><ele>3.0</ele><time>2026-03-29T15:23:32Z</time></trkpt><trkpt lat="43.95607811309822" lon="10.200099705143161"><ele>2.0</ele><time>2026-03-29T15:23:33Z</time></trkpt><trkpt lat="43.956302742443356" lon="10.19984838200724"><ele>2.0</ele><time>2026-03-29T15:23:34Z</time></trkpt><trkpt lat="43.95652683131787" lon="10.199598246246781"><ele>2.0</ele><time>2026-03-29T15:23:35Z</time></trkpt><trkpt lat="43.956753755861996" lon="10.199345049402224"><ele>2.0</ele><time>2026-03-29T15:23:36Z</time></trkpt><trkpt lat="43.95697877568775" lon="10.199093835152185"><ele>2.0</ele><time>2026-03-29T15:23:37Z</time></trkpt><trkpt lat="43.95720493162774" lon="10.198840186840709"><ele>2.5</ele><time>2026-03-29T15:23:38Z</time></trkpt><trkpt lat="43.95743261650408" lon="10.198584311770846"><ele>3.0</ele><time>2026-03-29T15:23:39Z</time></trkpt><trkpt lat="43.95766308045116" lon="10.198328234921846"><ele>3.0</ele><time>2026-03-29T15:23:40Z</time></trkpt><trkpt lat="43.957891418797644" lon="10.198073524543842"><ele>3.0</ele><time>2026-03-29T15:23:41Z</time></trkpt><trkpt lat="43.95812027491088" lon="10.19781860159993"><ele>3.0</ele><time>2026-03-29T15:23:42Z</time></trkpt><trkpt lat="43.95835067315199" lon="10.197565709321795"><ele>3.0</ele><time>2026-03-29T15:23:43Z</time></trkpt><trkpt lat="43.958575063528656" lon="10.197311947294919"><ele>3.5</ele><time>2026-03-29T15:23:44Z</time></trkpt><trkpt lat="43.9588039532974" lon="10.197058795859851"><ele>4.0</ele><time>2026-03-29T15:23:45Z</time></trkpt><trkpt lat="43.95903536836577" lon="10.196804386076137"><ele>3.5</ele><time>2026-03-29T15:23:46Z</time></trkpt><trkpt lat="43.959266608962366" lon="10.196549678665814"><ele>3.0</ele><time>2026-03-29T15:23:47Z</time></trkpt><trkpt lat="43.95949594781366" lon="10.196289991516442"><ele>3.0</ele><time>2026-03-29T15:23:48Z</time></trkpt><trkpt lat="43.95972373554287" lon="10.196034437873696"><ele>3.0</ele><time>2026-03-29T15:23:49Z</time></trkpt><trkpt lat="43.95994690984583" lon="10.195777778214811"><ele>2.5</ele><time>2026-03-29T15:23:50Z</time></trkpt><trkpt lat="43.96017728672992" lon="10.195522802994992"><ele>2.0</ele><time>2026-03-29T15:23:51Z</time></trkpt><trkpt lat="43.96040568969751" lon="10.195267905743755"><ele>2.0</ele><time>2026-03-29T15:23:52Z</time></trkpt><trkpt lat="43.960636379560434" lon="10.195010385972584"><ele>2.0</ele><time>2026-03-29T15:23:53Z</time></trkpt><trkpt lat="43.96086802330358" lon="10.194751017732889"><ele>2.0</ele><time>2026-03-29T15:23:54Z</time></trkpt><trkpt lat="43.96109795640438" lon="10.19449101145409"><ele>2.0</ele><time>2026-03-29T15:23:55Z</time></trkpt><trkpt lat="43.961326821269815" lon="10.194231752558194"><ele>2.0</ele><time>2026-03-29T15:23:56Z</time></trkpt><trkpt lat="43.961557955657284" lon="10.193973193971296"><ele>2.0</ele><time>2026-03-29T15:23:57Z</time></trkpt><trkpt lat="43.96178991500255" lon="10.19371681228971"><ele>2.0</ele><time>2026-03-29T15:23:58Z</time></trkpt><trkpt lat="43.96202267250129" lon="10.193458045149429"><ele>2.0</ele><time>2026-03-29T15:23:59Z</time></trkpt><trkpt lat="43.96225211547425" lon="10.193198843700381"><ele>2.0</ele><time>2026-03-29T15:24:00Z</time></trkpt><trkpt lat="43.96248054886176" lon="10.192940970066578"><ele>2.0</ele><time>2026-03-29T15:24:00.999Z</time></trkpt><trkpt lat="43.96271046923451" lon="10.192684098921204"><ele>2.0</ele><time>2026-03-29T15:24:01.999Z</time></trkpt><trkpt lat="43.962939704220815" lon="10.192427693179607"><ele>2.0</ele><time>2026-03-29T15:24:02.999Z</time></trkpt><trkpt lat="43.96316460746586" lon="10.192169560980604"><ele>2.5</ele><time>2026-03-29T15:24:03.999Z</time></trkpt><trkpt lat="43.96338918760146" lon="10.19191279266368"><ele>3.0</ele><time>2026-03-29T15:24:04.999Z</time></trkpt><trkpt lat="43.96361358137731" lon="10.191656728912271"><ele>2.5</ele><time>2026-03-29T15:24:05.999Z</time></trkpt><trkpt lat="43.963840817380536" lon="10.191406213753396"><ele>2.0</ele><time>2026-03-29T15:24:06.999Z</time></trkpt><trkpt lat="43.96406576569294" lon="10.191155448664762"><ele>2.0</ele><time>2026-03-29T15:24:07.999Z</time></trkpt><trkpt lat="43.96429191827504" lon="10.190905614916236"><ele>2.0</ele><time>2026-03-29T15:24:08.999Z</time></trkpt><trkpt lat="43.964523336988535" lon="10.190646053233776"><ele>1.0</ele><time>2026-03-29T15:24:09.999Z</time></trkpt><trkpt lat="43.964762555974566" lon="10.190387619898683"><ele>0.0</ele><time>2026-03-29T15:24:10.999Z</time></trkpt><trkpt lat="43.96499285376263" lon="10.190135654250993"><ele>0.5</ele><time>2026-03-29T15:24:11.999Z</time></trkpt><trkpt lat="43.96522133803815" lon="10.189882545074997"><ele>1.0</ele><time>2026-03-29T15:24:12.999Z</time></trkpt><trkpt lat="43.96544733374775" lon="10.189631068263925"><ele>1.0</ele><time>2026-03-29T15:24:13.999Z</time></trkpt><trkpt lat="43.96567295329979" lon="10.189379803804304"><ele>1.0</ele><time>2026-03-29T15:24:14.999Z</time></trkpt><trkpt lat="43.965897639729384" lon="10.189129442124031"><ele>2.0</ele><time>2026-03-29T15:24:15.999Z</time></trkpt><trkpt lat="43.966124355817584" lon="10.188877745669712"><ele>3.0</ele><time>2026-03-29T15:24:16.999Z</time></trkpt><trkpt lat="43.966351056572684" lon="10.188624555448733"><ele>3.0</ele><time>2026-03-29T15:24:17.999Z</time></trkpt><trkpt lat="43.96657901405396" lon="10.188370257337027"><ele>3.0</ele><time>2026-03-29T15:24:18.999Z</time></trkpt><trkpt lat="43.96680576113124" lon="10.188115587772106"><ele>3.5</ele><time>2026-03-29T15:24:19.999Z</time></trkpt><trkpt lat="43.9670322806891" lon="10.187860576177165"><ele>4.0</ele><time>2026-03-29T15:24:20.999Z</time></trkpt><trkpt lat="43.96725851129178" lon="10.18760578041924"><ele>4.0</ele><time>2026-03-29T15:24:21.999Z</time></trkpt><trkpt lat="43.96748850368575" lon="10.18734980587691"><ele>4.0</ele><time>2026-03-29T15:24:22.999Z</time></trkpt><trkpt lat="43.96771695711682" lon="10.18709223310198"><ele>5.0</ele><time>2026-03-29T15:24:23.999Z</time></trkpt><trkpt lat="43.96794294659161" lon="10.186829192250086"><ele>6.0</ele><time>2026-03-29T15:24:24.999Z</time></trkpt><trkpt lat="43.968164997582086" lon="10.1865640239979"><ele>5.5</ele><time>2026-03-29T15:24:25.999Z</time></trkpt><trkpt lat="43.96838419804411" lon="10.186291405165406"><ele>5.0</ele><time>2026-03-29T15:24:26.999Z</time></trkpt><trkpt lat="43.968595935213884" lon="10.186014309252883"><ele>5.0</ele><time>2026-03-29T15:24:27.999Z</time></trkpt><trkpt lat="43.96880690510814" lon="10.185730544531337"><ele>5.0</ele><time>2026-03-29T15:24:28.999Z</time></trkpt><trkpt lat="43.96901692294046" lon="10.185442902418178"><ele>6.0</ele><time>2026-03-29T15:24:29.999Z</time></trkpt><trkpt lat="43.96922442042197" lon="10.185149584953647"><ele>7.0</ele><time>2026-03-29T15:24:30.999Z</time></trkpt><trkpt lat="43.969428136210475" lon="10.184848716709833"><ele>6.5</ele><time>2026-03-29T15:24:31.999Z</time></trkpt><trkpt lat="43.969622388753756" lon="10.184540058006284"><ele>6.0</ele><time>2026-03-29T15:24:32.999Z</time></trkpt><trkpt lat="43.969792782961996" lon="10.184242872464377"><ele>5.5</ele><time>2026-03-29T15:24:33.999Z</time></trkpt><trkpt lat="43.96996585169635" lon="10.183959687574305"><ele>5.0</ele><time>2026-03-29T15:24:34.999Z</time></trkpt><trkpt lat="43.97015109258381" lon="10.183654546274754"><ele>5.5</ele><time>2026-03-29T15:24:35.999Z</time></trkpt><trkpt lat="43.97034032132994" lon="10.183327492000101"><ele>6.0</ele><time>2026-03-29T15:24:36.999Z</time></trkpt><trkpt lat="43.97053763350995" lon="10.1829814497556"><ele>6.0</ele><time>2026-03-29T15:24:37.999Z</time></trkpt><trkpt lat="43.97074195937132" lon="10.182624044559985"><ele>6.0</ele><time>2026-03-29T15:24:38.999Z</time></trkpt><trkpt lat="43.970955990198924" lon="10.182248213084542"><ele>5.0</ele><time>2026-03-29T15:24:39.999Z</time></trkpt><trkpt lat="43.97116021803851" lon="10.181907351147892"><ele>4.0</ele><time>2026-03-29T15:24:40.999Z</time></trkpt><trkpt lat="43.97135632231562" lon="10.181556489676828"><ele>3.5</ele><time>2026-03-29T15:24:41.999Z</time></trkpt><trkpt lat="43.97154812166695" lon="10.181229624877455"><ele>3.0</ele><time>2026-03-29T15:24:42.999Z</time></trkpt><trkpt lat="43.971736175508354" lon="10.180909853032153"><ele>4.0</ele><time>2026-03-29T15:24:43.999Z</time></trkpt><trkpt lat="43.971921006649175" lon="10.180592887866343"><ele>5.0</ele><time>2026-03-29T15:24:44.999Z</time></trkpt><trkpt lat="43.97210450669277" lon="10.180275374959681"><ele>5.0</ele><time>2026-03-29T15:24:45.999Z</time></trkpt><trkpt lat="43.97228502412709" lon="10.179958797065552"><ele>5.0</ele><time>2026-03-29T15:24:46.999Z</time></trkpt><trkpt lat="43.97246462425643" lon="10.179640540671485"><ele>4.5</ele><time>2026-03-29T15:24:47.999Z</time></trkpt><trkpt lat="43.972645946328086" lon="10.179323521816482"><ele>4.0</ele><time>2026-03-29T15:24:48.999Z</time></trkpt><trkpt lat="43.97282704802148" lon="10.179008215790722"><ele>4.0</ele><time>2026-03-29T15:24:49.999Z</time></trkpt><trkpt lat="43.973005050679596" lon="10.17869526441519"><ele>4.0</ele><time>2026-03-29T15:24:51Z</time></trkpt><trkpt lat="43.97318358760499" lon="10.178384435612717"><ele>3.5</ele><time>2026-03-29T15:24:52Z</time></trkpt><trkpt lat="43.973360538627475" lon="10.178073828876332"><ele>3.0</ele><time>2026-03-29T15:24:53Z</time></trkpt><trkpt lat="43.97353712382556" lon="10.177759736941912"><ele>3.0</ele><time>2026-03-29T15:24:54Z</time></trkpt><trkpt lat="43.973714727780454" lon="10.17744478847417"><ele>3.0</ele><time>2026-03-29T15:24:55Z</time></trkpt><trkpt lat="43.973893405582" lon="10.177131356075117"><ele>2.5</ele><time>2026-03-29T15:24:56Z</time></trkpt><trkpt lat="43.974073807484864" lon="10.176819305142578"><ele>2.0</ele><time>2026-03-29T15:24:57Z</time></trkpt><trkpt lat="43.97425483454036" lon="10.17650787972768"><ele>2.0</ele><time>2026-03-29T15:24:58Z</time></trkpt><trkpt lat="43.97443787181897" lon="10.176199536260501"><ele>2.0</ele><time>2026-03-29T15:24:59Z</time></trkpt><trkpt lat="43.97462421462728" lon="10.175892882299156"><ele>1.0</ele><time>2026-03-29T15:25:00Z</time></trkpt><trkpt lat="43.97481293639606" lon="10.175590584518073"><ele>0.0</ele><time>2026-03-29T15:25:01Z</time></trkpt><trkpt lat="43.97500301621677" lon="10.17528771375956"><ele>1.0</ele><time>2026-03-29T15:25:02Z</time></trkpt><trkpt lat="43.97519428417368" lon="10.174987619183213"><ele>2.0</ele><time>2026-03-29T15:25:03Z</time></trkpt><trkpt lat="43.97538615921499" lon="10.174689226199035"><ele>2.5</ele><time>2026-03-29T15:25:04Z</time></trkpt><trkpt lat="43.97557923495027" lon="10.174386816232586"><ele>3.0</ele><time>2026-03-29T15:25:05Z</time></trkpt><trkpt lat="43.97577307506791" lon="10.17408276859279"><ele>2.0</ele><time>2026-03-29T15:25:06Z</time></trkpt><trkpt lat="43.97596836878697" lon="10.173779659268334"><ele>1.0</ele><time>2026-03-29T15:25:07Z</time></trkpt><trkpt lat="43.976167273034385" lon="10.173479084019815"><ele>2.0</ele><time>2026-03-29T15:25:08Z</time></trkpt><trkpt lat="43.976368200424076" lon="10.17318375426272"><ele>3.0</ele><time>2026-03-29T15:25:09Z</time></trkpt><trkpt lat="43.97657002715276" lon="10.172891376980528"><ele>2.5</ele><time>2026-03-29T15:25:10Z</time></trkpt><trkpt lat="43.9767719532857" lon="10.17259886290842"><ele>2.0</ele><time>2026-03-29T15:25:11Z</time></trkpt><trkpt lat="43.97697195434218" lon="10.172307040251667"><ele>2.0</ele><time>2026-03-29T15:25:12Z</time></trkpt><trkpt lat="43.9771739748566" lon="10.172016100654066"><ele>2.0</ele><time>2026-03-29T15:25:13Z</time></trkpt><trkpt lat="43.97737866064248" lon="10.171724568880002"><ele>2.0</ele><time>2026-03-29T15:25:14Z</time></trkpt><trkpt lat="43.97758152717332" lon="10.171434788532494"><ele>2.0</ele><time>2026-03-29T15:25:15Z</time></trkpt><trkpt lat="43.977786659044185" lon="10.171143530179643"><ele>2.0</ele><time>2026-03-29T15:25:16Z</time></trkpt><trkpt lat="43.977991126030574" lon="10.170852655570782"><ele>2.0</ele><time>2026-03-29T15:25:17Z</time></trkpt><trkpt lat="43.97819359622829" lon="10.170561549153069"><ele>3.0</ele><time>2026-03-29T15:25:18Z</time></trkpt><trkpt lat="43.978397406014096" lon="10.17026895428462"><ele>4.0</ele><time>2026-03-29T15:25:19Z</time></trkpt><trkpt lat="43.978601334482796" lon="10.169975470361972"><ele>3.5</ele><time>2026-03-29T15:25:20Z</time></trkpt><trkpt lat="43.97880323879254" lon="10.1696799708793"><ele>3.0</ele><time>2026-03-29T15:25:21Z</time></trkpt><trkpt lat="43.97900526573772" lon="10.169382966457533"><ele>2.5</ele><time>2026-03-29T15:25:22Z</time></trkpt><trkpt lat="43.97920930796038" lon="10.16908547185636"><ele>2.0</ele><time>2026-03-29T15:25:23Z</time></trkpt><trkpt lat="43.97941289456703" lon="10.168791025412439"><ele>2.0</ele><time>2026-03-29T15:25:24Z</time></trkpt><trkpt lat="43.97961617864496" lon="10.168498044578637"><ele>2.0</ele><time>2026-03-29T15:25:25Z</time></trkpt><trkpt lat="43.979819614141604" lon="10.168202481281764"><ele>3.5</ele><time>2026-03-29T15:25:26Z</time></trkpt><trkpt lat="43.980022756446196" lon="10.167905336629737"><ele>5.0</ele><time>2026-03-29T15:25:27Z</time></trkpt><trkpt lat="43.9802245201154" lon="10.167613196960584"><ele>4.0</ele><time>2026-03-29T15:25:28Z</time></trkpt><trkpt lat="43.98042682050808" lon="10.167322601462118"><ele>3.0</ele><time>2026-03-29T15:25:29Z</time></trkpt><trkpt lat="43.98062898877661" lon="10.16703482882398"><ele>3.0</ele><time>2026-03-29T15:25:30Z</time></trkpt><trkpt lat="43.980831296488915" lon="10.166745696833265"><ele>3.0</ele><time>2026-03-29T15:25:31Z</time></trkpt><trkpt lat="43.98103161249087" lon="10.16645839795736"><ele>3.5</ele><time>2026-03-29T15:25:32Z</time></trkpt><trkpt lat="43.981235437953735" lon="10.166167105402177"><ele>4.0</ele><time>2026-03-29T15:25:33Z</time></trkpt><trkpt lat="43.98144018334" lon="10.165877893287249"><ele>4.0</ele><time>2026-03-29T15:25:34Z</time></trkpt><trkpt lat="43.981646351455346" lon="10.165585336166929"><ele>4.0</ele><time>2026-03-29T15:25:35Z</time></trkpt><trkpt lat="43.981850680908295" lon="10.165291333366435"><ele>3.5</ele><time>2026-03-29T15:25:36Z</time></trkpt><trkpt lat="43.98205568138433" lon="10.164995086453246"><ele>3.0</ele><time>2026-03-29T15:25:37Z</time></trkpt><trkpt lat="43.982260464966075" lon="10.164697580302457"><ele>4.0</ele><time>2026-03-29T15:25:38Z</time></trkpt><trkpt lat="43.98245686128168" lon="10.164411536704135"><ele>5.0</ele><time>2026-03-29T15:25:39Z</time></trkpt><trkpt lat="43.982645793612534" lon="10.164139956084213"><ele>3.5</ele><time>2026-03-29T15:25:40Z</time></trkpt><trkpt lat="43.98283035174549" lon="10.163876887264976"><ele>2.0</ele><time>2026-03-29T15:25:41Z</time></trkpt><trkpt lat="43.98302378470391" lon="10.163603289928712"><ele>2.0</ele><time>2026-03-29T15:25:42Z</time></trkpt><trkpt lat="43.9832168083105" lon="10.163328892261418"><ele>2.0</ele><time>2026-03-29T15:25:43Z</time></trkpt><trkpt lat="43.98340297627017" lon="10.163062481185483"><ele>2.0</ele><time>2026-03-29T15:25:44Z</time></trkpt><trkpt lat="43.98358196952232" lon="10.162804602268587"><ele>2.0</ele><time>2026-03-29T15:25:45Z</time></trkpt><trkpt lat="43.98376800204498" lon="10.162527530675892"><ele>2.0</ele><time>2026-03-29T15:25:46Z</time></trkpt><trkpt lat="43.98396348952514" lon="10.162231996852176"><ele>2.0</ele><time>2026-03-29T15:25:47Z</time></trkpt><trkpt lat="43.98415630678655" lon="10.161942878789763"><ele>1.0</ele><time>2026-03-29T15:25:48Z</time></trkpt><trkpt lat="43.984332126689154" lon="10.161674311063372"><ele>0.0</ele><time>2026-03-29T15:25:49Z</time></trkpt><trkpt lat="43.98451768024713" lon="10.161398771923173"><ele>0.0</ele><time>2026-03-29T15:25:50Z</time></trkpt><trkpt lat="43.984721094733295" lon="10.161107002639037"><ele>0.0</ele><time>2026-03-29T15:25:51Z</time></trkpt><trkpt lat="43.984943335622994" lon="10.160787880704468"><ele>0.0</ele><time>2026-03-29T15:25:52Z</time></trkpt><trkpt lat="43.985153761453525" lon="10.160481314241594"><ele>0.0</ele><time>2026-03-29T15:25:53Z</time></trkpt><trkpt lat="43.98535256163431" lon="10.16019557000001"><ele>0.0</ele><time>2026-03-29T15:25:54Z</time></trkpt><trkpt lat="43.98555288328411" lon="10.159904640900299"><ele>0.0</ele><time>2026-03-29T15:25:55Z</time></trkpt><trkpt lat="43.985756657633054" lon="10.159608901982534"><ele>0.5</ele><time>2026-03-29T15:25:56Z</time></trkpt><trkpt lat="43.98596693956322" lon="10.159311262666312"><ele>1.0</ele><time>2026-03-29T15:25:57Z</time></trkpt><trkpt lat="43.98617878304177" lon="10.15901437712449"><ele>1.0</ele><time>2026-03-29T15:25:58Z</time></trkpt><trkpt lat="43.98639366643661" lon="10.158719540537508"><ele>1.0</ele><time>2026-03-29T15:25:59Z</time></trkpt><trkpt lat="43.986605358746694" lon="10.158427257293406"><ele>0.5</ele><time>2026-03-29T15:26:00Z</time></trkpt><trkpt lat="43.986808026899325" lon="10.158126320251478"><ele>0.0</ele><time>2026-03-29T15:26:01Z</time></trkpt><trkpt lat="43.98702561735312" lon="10.157828397641536"><ele>0.0</ele><time>2026-03-29T15:26:02Z</time></trkpt><trkpt lat="43.9872361348489" lon="10.157528056398144"><ele>0.0</ele><time>2026-03-29T15:26:03Z</time></trkpt><trkpt lat="43.9874430721546" lon="10.15722672115196"><ele>0.5</ele><time>2026-03-29T15:26:04Z</time></trkpt><trkpt lat="43.98764953451258" lon="10.156922790479326"><ele>1.0</ele><time>2026-03-29T15:26:04.999Z</time></trkpt><trkpt lat="43.987852920614586" lon="10.156623584816478"><ele>1.0</ele><time>2026-03-29T15:26:05.999Z</time></trkpt><trkpt lat="43.98805067044695" lon="10.156340341854502"><ele>1.0</ele><time>2026-03-29T15:26:06.999Z</time></trkpt><trkpt lat="43.98823457478525" lon="10.156074803824074"><ele>1.0</ele><time>2026-03-29T15:26:07.999Z</time></trkpt><trkpt lat="43.98842880103353" lon="10.155793422871566"><ele>1.0</ele><time>2026-03-29T15:26:08.999Z</time></trkpt><trkpt lat="43.988621353148" lon="10.155519104255609"><ele>1.0</ele><time>2026-03-29T15:26:09.999Z</time></trkpt><trkpt lat="43.98881450319404" lon="10.155242303697618"><ele>1.0</ele><time>2026-03-29T15:26:10.999Z</time></trkpt><trkpt lat="43.98900644397866" lon="10.154965115396385"><ele>1.5</ele><time>2026-03-29T15:26:11.999Z</time></trkpt><trkpt lat="43.98920197209911" lon="10.154684174275472"><ele>2.0</ele><time>2026-03-29T15:26:12.999Z</time></trkpt><trkpt lat="43.98939779524895" lon="10.15440368502931"><ele>2.0</ele><time>2026-03-29T15:26:13.999Z</time></trkpt><trkpt lat="43.989592674724705" lon="10.154123737350323"><ele>2.0</ele><time>2026-03-29T15:26:14.999Z</time></trkpt><trkpt lat="43.989787709260206" lon="10.153842020150115"><ele>2.0</ele><time>2026-03-29T15:26:15.999Z</time></trkpt><trkpt lat="43.98997942884634" lon="10.153564933861064"><ele>2.0</ele><time>2026-03-29T15:26:16.999Z</time></trkpt><trkpt lat="43.99016055240202" lon="10.153306156349682"><ele>3.0</ele><time>2026-03-29T15:26:17.999Z</time></trkpt><trkpt lat="43.990331720866735" lon="10.15305733914242"><ele>4.0</ele><time>2026-03-29T15:26:18.999Z</time></trkpt><trkpt lat="43.99050508233602" lon="10.15280856169395"><ele>4.0</ele><time>2026-03-29T15:26:19.999Z</time></trkpt><trkpt lat="43.990688963282025" lon="10.152552393923282"><ele>4.0</ele><time>2026-03-29T15:26:20.999Z</time></trkpt><trkpt lat="43.99088067426745" lon="10.152291252583261"><ele>4.0</ele><time>2026-03-29T15:26:21.999Z</time></trkpt><trkpt lat="43.99108193810732" lon="10.152033810286039"><ele>4.0</ele><time>2026-03-29T15:26:22.999Z</time></trkpt><trkpt lat="43.99129787767986" lon="10.15177039437041"><ele>4.0</ele><time>2026-03-29T15:26:23.999Z</time></trkpt><trkpt lat="43.99153002610467" lon="10.151502420529711"><ele>4.0</ele><time>2026-03-29T15:26:24.999Z</time></trkpt><trkpt lat="43.991771848017784" lon="10.151243248283663"><ele>4.0</ele><time>2026-03-29T15:26:25.999Z</time></trkpt><trkpt lat="43.992017528663425" lon="10.150990822382175"><ele>4.0</ele><time>2026-03-29T15:26:26.999Z</time></trkpt><trkpt lat="43.992274060226194" lon="10.150739571780042"><ele>4.0</ele><time>2026-03-29T15:26:27.999Z</time></trkpt><trkpt lat="43.99253789428282" lon="10.150490076526774"><ele>4.0</ele><time>2026-03-29T15:26:28.999Z</time></trkpt><trkpt lat="43.992809809256116" lon="10.150247944673303"><ele>4.0</ele><time>2026-03-29T15:26:29.999Z</time></trkpt><trkpt lat="43.993088689365194" lon="10.150011930376555"><ele>4.0</ele><time>2026-03-29T15:26:30.999Z</time></trkpt><trkpt lat="43.99337580087214" lon="10.149789563307992"><ele>4.5</ele><time>2026-03-29T15:26:31.999Z</time></trkpt><trkpt lat="43.99366994082239" lon="10.14957240615653"><ele>5.0</ele><time>2026-03-29T15:26:32.999Z</time></trkpt><trkpt lat="43.99397221225527" lon="10.149358961304769"><ele>4.5</ele><time>2026-03-29T15:26:33.999Z</time></trkpt><trkpt lat="43.99428434368203" lon="10.149150028766021"><ele>4.0</ele><time>2026-03-29T15:26:34.999Z</time></trkpt><trkpt lat="43.994601137428795" lon="10.14894358617474"><ele>4.0</ele><time>2026-03-29T15:26:35.999Z</time></trkpt><trkpt lat="43.99492002124036" lon="10.148737113461971"><ele>4.0</ele><time>2026-03-29T15:26:36.999Z</time></trkpt><trkpt lat="43.99523735510888" lon="10.148531507287933"><ele>4.0</ele><time>2026-03-29T15:26:37.999Z</time></trkpt><trkpt lat="43.99555693787487" lon="10.148325967526828"><ele>4.0</ele><time>2026-03-29T15:26:38.999Z</time></trkpt><trkpt lat="43.995860226850915" lon="10.148133479943604"><ele>3.5</ele><time>2026-03-29T15:26:39.999Z</time></trkpt><trkpt lat="43.99615241916237" lon="10.14794522599677"><ele>3.0</ele><time>2026-03-29T15:26:40.999Z</time></trkpt><trkpt lat="43.99644372915419" lon="10.147764725851998"><ele>4.5</ele><time>2026-03-29T15:26:41.999Z</time></trkpt><trkpt lat="43.99673197231238" lon="10.147585980845387"><ele>6.0</ele><time>2026-03-29T15:26:42.999Z</time></trkpt><trkpt lat="43.9970154570209" lon="10.14740858803499"><ele>5.0</ele><time>2026-03-29T15:26:43.999Z</time></trkpt><trkpt lat="43.997296945937734" lon="10.147232108474178"><ele>4.0</ele><time>2026-03-29T15:26:44.999Z</time></trkpt><trkpt lat="43.99755730780169" lon="10.147066555415785"><ele>3.5</ele><time>2026-03-29T15:26:45.999Z</time></trkpt><trkpt lat="43.99780257963488" lon="10.146910016359117"><ele>3.0</ele><time>2026-03-29T15:26:46.999Z</time></trkpt><trkpt lat="43.99805030134283" lon="10.14675187840246"><ele>3.0</ele><time>2026-03-29T15:26:47.999Z</time></trkpt><trkpt lat="43.99829774553453" lon="10.14659341210535"><ele>3.0</ele><time>2026-03-29T15:26:48.999Z</time></trkpt><trkpt lat="43.998544776032674" lon="10.146431099818331"><ele>3.0</ele><time>2026-03-29T15:26:49.999Z</time></trkpt><trkpt lat="43.99878861339725" lon="10.146264152698922"><ele>3.0</ele><time>2026-03-29T15:26:50.999Z</time></trkpt><trkpt lat="43.9990307592681" lon="10.146091175555963"><ele>3.5</ele><time>2026-03-29T15:26:51.999Z</time></trkpt><trkpt lat="43.999269245035165" lon="10.145913307879875"><ele>4.0</ele><time>2026-03-29T15:26:52.999Z</time></trkpt><trkpt lat="43.99950130168612" lon="10.145727215797104"><ele>3.5</ele><time>2026-03-29T15:26:53.999Z</time></trkpt><trkpt lat="43.9997301570116" lon="10.145532036723713"><ele>3.0</ele><time>2026-03-29T15:26:54.999Z</time></trkpt><trkpt lat="43.9999543639411" lon="10.145333273023939"><ele>3.0</ele><time>2026-03-29T15:26:55.999Z</time></trkpt><trkpt lat="44.00017630015296" lon="10.145130494973792"><ele>3.0</ele><time>2026-03-29T15:26:57Z</time></trkpt><trkpt lat="44.000393833676526" lon="10.144925923241665"><ele>2.5</ele><time>2026-03-29T15:26:58Z</time></trkpt><trkpt lat="44.000602307165224" lon="10.144711359019466"><ele>2.0</ele><time>2026-03-29T15:26:59Z</time></trkpt><trkpt lat="44.00081769843137" lon="10.144489351104385"><ele>2.0</ele><time>2026-03-29T15:27:00Z</time></trkpt><trkpt lat="44.00103588124329" lon="10.144255590461842"><ele>2.0</ele><time>2026-03-29T15:27:01Z</time></trkpt><trkpt lat="44.0012481090827" lon="10.144013108037031"><ele>2.0</ele><time>2026-03-29T15:27:02Z</time></trkpt><trkpt lat="44.00145932754251" lon="10.143767073886591"><ele>2.0</ele><time>2026-03-29T15:27:03Z</time></trkpt><trkpt lat="44.00166809005199" lon="10.143513896448"><ele>2.5</ele><time>2026-03-29T15:27:04Z</time></trkpt><trkpt lat="44.001874349009654" lon="10.14325313166361"><ele>3.0</ele><time>2026-03-29T15:27:05Z</time></trkpt><trkpt lat="44.00207605423107" lon="10.14298566205854"><ele>2.0</ele><time>2026-03-29T15:27:06Z</time></trkpt><trkpt lat="44.00227357121325" lon="10.14270894317218"><ele>1.0</ele><time>2026-03-29T15:27:07Z</time></trkpt><trkpt lat="44.002467133470816" lon="10.142426799641262"><ele>1.5</ele><time>2026-03-29T15:27:08Z</time></trkpt><trkpt lat="44.00266074378742" lon="10.142142508165257"><ele>2.0</ele><time>2026-03-29T15:27:09Z</time></trkpt><trkpt lat="44.002855431880235" lon="10.141857727293702"><ele>2.0</ele><time>2026-03-29T15:27:10Z</time></trkpt><trkpt lat="44.00305285079848" lon="10.141569165898677"><ele>2.0</ele><time>2026-03-29T15:27:11Z</time></trkpt><trkpt lat="44.00325180344648" lon="10.141282519903653"><ele>2.5</ele><time>2026-03-29T15:27:12Z</time></trkpt><trkpt lat="44.00344973250997" lon="10.140998045302384"><ele>3.0</ele><time>2026-03-29T15:27:13Z</time></trkpt><trkpt lat="44.003647474852926" lon="10.140710950072755"><ele>3.0</ele><time>2026-03-29T15:27:14Z</time></trkpt><trkpt lat="44.0038448439979" lon="10.140422159043032"><ele>3.0</ele><time>2026-03-29T15:27:15Z</time></trkpt><trkpt lat="44.00404511727635" lon="10.140134549829204"><ele>1.5</ele><time>2026-03-29T15:27:16Z</time></trkpt><trkpt lat="44.004244029471515" lon="10.139851524188584"><ele>0.0</ele><time>2026-03-29T15:27:17Z</time></trkpt><trkpt lat="44.00444178815828" lon="10.139564698215237"><ele>0.0</ele><time>2026-03-29T15:27:18Z</time></trkpt><trkpt lat="44.00463957758069" lon="10.139276619789975"><ele>0.0</ele><time>2026-03-29T15:27:19Z</time></trkpt><trkpt lat="44.00483503033221" lon="10.138990093214653"><ele>1.5</ele><time>2026-03-29T15:27:20Z</time></trkpt><trkpt lat="44.005030651097414" lon="10.138706657677634"><ele>3.0</ele><time>2026-03-29T15:27:21Z</time></trkpt><trkpt lat="44.005225875926904" lon="10.138424192953963"><ele>3.0</ele><time>2026-03-29T15:27:22Z</time></trkpt><trkpt lat="44.00542054265108" lon="10.138142705462952"><ele>3.0</ele><time>2026-03-29T15:27:23Z</time></trkpt><trkpt lat="44.00561483878425" lon="10.137862617212214"><ele>3.0</ele><time>2026-03-29T15:27:24Z</time></trkpt><trkpt lat="44.005807850609784" lon="10.137579532082437"><ele>3.0</ele><time>2026-03-29T15:27:25Z</time></trkpt><trkpt lat="44.00600207929205" lon="10.137297497353474"><ele>3.0</ele><time>2026-03-29T15:27:26Z</time></trkpt><trkpt lat="44.00619761833605" lon="10.137018052222432"><ele>3.0</ele><time>2026-03-29T15:27:27Z</time></trkpt><trkpt lat="44.006392949666854" lon="10.136738393890344"><ele>2.5</ele><time>2026-03-29T15:27:28Z</time></trkpt><trkpt lat="44.00658647691115" lon="10.136460695103843"><ele>2.0</ele><time>2026-03-29T15:27:29Z</time></trkpt><trkpt lat="44.006780046002845" lon="10.136184237391928"><ele>2.0</ele><time>2026-03-29T15:27:30Z</time></trkpt><trkpt lat="44.00697352224" lon="10.135906815849866"><ele>2.0</ele><time>2026-03-29T15:27:31Z</time></trkpt><trkpt lat="44.00716847994353" lon="10.135629227026037"><ele>2.0</ele><time>2026-03-29T15:27:32Z</time></trkpt><trkpt lat="44.007359455129965" lon="10.13534796599394"><ele>2.0</ele><time>2026-03-29T15:27:33Z</time></trkpt><trkpt lat="44.00755086232649" lon="10.135067706579179"><ele>2.5</ele><time>2026-03-29T15:27:34Z</time></trkpt><trkpt lat="44.00774116609758" lon="10.134788781261134"><ele>3.0</ele><time>2026-03-29T15:27:35Z</time></trkpt><trkpt lat="44.00793088744994" lon="10.13451404452952"><ele>3.0</ele><time>2026-03-29T15:27:36Z</time></trkpt><trkpt lat="44.00811983530817" lon="10.134239968608213"><ele>3.0</ele><time>2026-03-29T15:27:37Z</time></trkpt><trkpt lat="44.008299558920406" lon="10.133985818785753"><ele>2.5</ele><time>2026-03-29T15:27:38Z</time></trkpt><trkpt lat="44.008480258784765" lon="10.133722150422614"><ele>2.0</ele><time>2026-03-29T15:27:39Z</time></trkpt><trkpt lat="44.00866608761623" lon="10.133453653829234"><ele>2.0</ele><time>2026-03-29T15:27:40Z</time></trkpt><trkpt lat="44.00883988150879" lon="10.133204892941619"><ele>2.0</ele><time>2026-03-29T15:27:41Z</time></trkpt><trkpt lat="44.00901023879005" lon="10.132960366190835"><ele>2.0</ele><time>2026-03-29T15:27:42Z</time></trkpt><trkpt lat="44.009184338604996" lon="10.13270758560485"><ele>2.0</ele><time>2026-03-29T15:27:43Z</time></trkpt><trkpt lat="44.00936024942737" lon="10.132452323742253"><ele>2.0</ele><time>2026-03-29T15:27:44Z</time></trkpt><trkpt lat="44.00953766295095" lon="10.132196247799774"><ele>2.0</ele><time>2026-03-29T15:27:45Z</time></trkpt><trkpt lat="44.00970501925858" lon="10.131953743023292"><ele>2.0</ele><time>2026-03-29T15:27:46Z</time></trkpt><trkpt lat="44.00987009243734" lon="10.131717825126483"><ele>2.0</ele><time>2026-03-29T15:27:47Z</time></trkpt><trkpt lat="44.01003357530051" lon="10.131480693195346"><ele>3.0</ele><time>2026-03-29T15:27:48Z</time></trkpt><trkpt lat="44.0101960147785" lon="10.131244371174267"><ele>4.0</ele><time>2026-03-29T15:27:49Z</time></trkpt><trkpt lat="44.01035798611967" lon="10.13100522129155"><ele>4.0</ele><time>2026-03-29T15:27:50Z</time></trkpt><trkpt lat="44.01051972307033" lon="10.130770112514849"><ele>4.0</ele><time>2026-03-29T15:27:51Z</time></trkpt><trkpt lat="44.010675176676635" lon="10.130545965163922"><ele>4.5</ele><time>2026-03-29T15:27:52Z</time></trkpt><trkpt lat="44.01083259600187" lon="10.130319464762357"><ele>5.0</ele><time>2026-03-29T15:27:53Z</time></trkpt><trkpt lat="44.01099244593817" lon="10.13009089505935"><ele>4.5</ele><time>2026-03-29T15:27:54Z</time></trkpt><trkpt lat="44.01115301458179" lon="10.129855102988778"><ele>4.0</ele><time>2026-03-29T15:27:55Z</time></trkpt><trkpt lat="44.01131485410845" lon="10.12961587484392"><ele>4.0</ele><time>2026-03-29T15:27:56Z</time></trkpt><trkpt lat="44.01146629771677" lon="10.129396430086963"><ele>4.0</ele><time>2026-03-29T15:27:57Z</time></trkpt><trkpt lat="44.011619749279504" lon="10.129166164883037"><ele>4.0</ele><time>2026-03-29T15:27:58Z</time></trkpt><trkpt lat="44.01177342586707" lon="10.12893168332561"><ele>3.5</ele><time>2026-03-29T15:27:59Z</time></trkpt><trkpt lat="44.01192523018878" lon="10.128689556447602"><ele>3.0</ele><time>2026-03-29T15:28:00Z</time></trkpt><trkpt lat="44.01207917981548" lon="10.12844384083344"><ele>2.3333333333333335</ele><time>2026-03-29T15:28:01Z</time></trkpt><trkpt lat="44.012223007561126" lon="10.128204198709858"><ele>1.6666666666666665</ele><time>2026-03-29T15:28:02Z</time></trkpt><trkpt lat="44.01236326746208" lon="10.1279632969352"><ele>1.0</ele><time>2026-03-29T15:28:03Z</time></trkpt><trkpt lat="44.01250342106706" lon="10.127714073464821"><ele>2.0</ele><time>2026-03-29T15:28:04Z</time></trkpt><trkpt lat="44.01264572111432" lon="10.127461270691438"><ele>3.0</ele><time>2026-03-29T15:28:05Z</time></trkpt><trkpt lat="44.01278712004976" lon="10.127203886067738"><ele>3.0</ele><time>2026-03-29T15:28:06Z</time></trkpt><trkpt lat="44.012925448164815" lon="10.126938804708841"><ele>3.0</ele><time>2026-03-29T15:28:07Z</time></trkpt><trkpt lat="44.01305484368689" lon="10.126682857578338"><ele>3.0</ele><time>2026-03-29T15:28:08Z</time></trkpt><trkpt lat="44.01317907464366" lon="10.12643723945416"><ele>3.0</ele><time>2026-03-29T15:28:08.999Z</time></trkpt><trkpt lat="44.013307050014355" lon="10.126181804239373"><ele>3.0</ele><time>2026-03-29T15:28:09.999Z</time></trkpt><trkpt lat="44.01343758075409" lon="10.125921628435133"><ele>2.5</ele><time>2026-03-29T15:28:10.999Z</time></trkpt><trkpt lat="44.01357136183102" lon="10.12565776653215"><ele>2.0</ele><time>2026-03-29T15:28:11.999Z</time></trkpt><trkpt lat="44.0137063718059" lon="10.1253929671522"><ele>2.0</ele><time>2026-03-29T15:28:12.999Z</time></trkpt><trkpt lat="44.01383836988133" lon="10.125131213642389"><ele>2.0</ele><time>2026-03-29T15:28:13.999Z</time></trkpt><trkpt lat="44.01396963585617" lon="10.124869836472543"><ele>2.0</ele><time>2026-03-29T15:28:14.999Z</time></trkpt><trkpt lat="44.01410887608172" lon="10.124590271256631"><ele>2.0</ele><time>2026-03-29T15:28:15.999Z</time></trkpt><trkpt lat="44.01425458114831" lon="10.124303609182324"><ele>2.5</ele><time>2026-03-29T15:28:16.999Z</time></trkpt><trkpt lat="44.01440074566311" lon="10.124015073218914"><ele>3.0</ele><time>2026-03-29T15:28:17.999Z</time></trkpt><trkpt lat="44.01454336004538" lon="10.123732312676688"><ele>3.0</ele><time>2026-03-29T15:28:18.999Z</time></trkpt><trkpt lat="44.01468013356477" lon="10.12346152850969"><ele>3.0</ele><time>2026-03-29T15:28:19.999Z</time></trkpt><trkpt lat="44.014817509751865" lon="10.123187655979061"><ele>2.5</ele><time>2026-03-29T15:28:20.999Z</time></trkpt><trkpt lat="44.01495527300531" lon="10.122910306765478"><ele>2.0</ele><time>2026-03-29T15:28:21.999Z</time></trkpt><trkpt lat="44.01509382940762" lon="10.122632000770421"><ele>2.5</ele><time>2026-03-29T15:28:22.999Z</time></trkpt><trkpt lat="44.01523190769782" lon="10.12235499271438"><ele>3.0</ele><time>2026-03-29T15:28:23.999Z</time></trkpt><trkpt lat="44.01536991568842" lon="10.122077537351679"><ele>3.0</ele><time>2026-03-29T15:28:24.999Z</time></trkpt><trkpt lat="44.01550749929475" lon="10.121803613224996"><ele>3.0</ele><time>2026-03-29T15:28:25.999Z</time></trkpt><trkpt lat="44.01563751763394" lon="10.121544633618766"><ele>3.0</ele><time>2026-03-29T15:28:26.999Z</time></trkpt><trkpt lat="44.01576462892953" lon="10.121290394783776"><ele>3.0</ele><time>2026-03-29T15:28:27.999Z</time></trkpt><trkpt lat="44.01589572294372" lon="10.121034842438949"><ele>3.0</ele><time>2026-03-29T15:28:28.999Z</time></trkpt><trkpt lat="44.01602509362272" lon="10.1207751320644"><ele>5.0</ele><time>2026-03-29T15:28:29.999Z</time></trkpt><trkpt lat="44.01615527759267" lon="10.120515803072353"><ele>7.0</ele><time>2026-03-29T15:28:30.999Z</time></trkpt><trkpt lat="44.01628511857563" lon="10.120256916319905"><ele>7.0</ele><time>2026-03-29T15:28:31.999Z</time></trkpt><trkpt lat="44.016416894116624" lon="10.11999519529216"><ele>7.0</ele><time>2026-03-29T15:28:32.999Z</time></trkpt><trkpt lat="44.01654824398448" lon="10.11973486500045"><ele>7.5</ele><time>2026-03-29T15:28:33.999Z</time></trkpt><trkpt lat="44.016681101095585" lon="10.11947190829179"><ele>8.0</ele><time>2026-03-29T15:28:34.999Z</time></trkpt><trkpt lat="44.01681329884085" lon="10.119209166676182"><ele>7.0</ele><time>2026-03-29T15:28:35.999Z</time></trkpt><trkpt lat="44.01694627013297" lon="10.118944319779558"><ele>6.0</ele><time>2026-03-29T15:28:36.999Z</time></trkpt><trkpt lat="44.017078196130306" lon="10.11868186942106"><ele>6.0</ele><time>2026-03-29T15:28:37.999Z</time></trkpt><trkpt lat="44.01721102100791" lon="10.118417550392241"><ele>6.0</ele><time>2026-03-29T15:28:38.999Z</time></trkpt><trkpt lat="44.017344805820294" lon="10.118152677826151"><ele>6.5</ele><time>2026-03-29T15:28:39.999Z</time></trkpt><trkpt lat="44.01747936438613" lon="10.117887429951827"><ele>7.0</ele><time>2026-03-29T15:28:40.999Z</time></trkpt><trkpt lat="44.01760796664004" lon="10.11763209534079"><ele>7.0</ele><time>2026-03-29T15:28:41.999Z</time></trkpt><trkpt lat="44.01773875947818" lon="10.117371706389612"><ele>7.0</ele><time>2026-03-29T15:28:42.999Z</time></trkpt><trkpt lat="44.01787013847641" lon="10.1171104154514"><ele>7.0</ele><time>2026-03-29T15:28:43.999Z</time></trkpt><trkpt lat="44.01800308523009" lon="10.116845140482763"><ele>7.0</ele><time>2026-03-29T15:28:44.999Z</time></trkpt><trkpt lat="44.01813860102766" lon="10.116578418474134"><ele>7.0</ele><time>2026-03-29T15:28:45.999Z</time></trkpt><trkpt lat="44.018274799237545" lon="10.11630894306836"><ele>7.0</ele><time>2026-03-29T15:28:46.999Z</time></trkpt><trkpt lat="44.01841053268044" lon="10.116035862224962"><ele>7.333333333333334</ele><time>2026-03-29T15:28:47.999Z</time></trkpt><trkpt lat="44.01853825304128" lon="10.1157752235061"><ele>7.666666666666666</ele><time>2026-03-29T15:28:48.999Z</time></trkpt><trkpt lat="44.01866027900927" lon="10.115526120077456"><ele>8.0</ele><time>2026-03-29T15:28:49.999Z</time></trkpt><trkpt lat="44.01878022270034" lon="10.11526857027005"><ele>7.333333333333333</ele><time>2026-03-29T15:28:50.999Z</time></trkpt><trkpt lat="44.01889814350938" lon="10.115005187299168"><ele>6.666666666666666</ele><time>2026-03-29T15:28:51.999Z</time></trkpt><trkpt lat="44.019011427644955" lon="10.114735667434811"><ele>6.0</ele><time>2026-03-29T15:28:52.999Z</time></trkpt><trkpt lat="44.019122760471795" lon="10.114463965624239"><ele>6.0</ele><time>2026-03-29T15:28:53.999Z</time></trkpt><trkpt lat="44.019231317913736" lon="10.114184187503197"><ele>6.0</ele><time>2026-03-29T15:28:54.999Z</time></trkpt><trkpt lat="44.01933698116697" lon="10.11390249008786"><ele>6.0</ele><time>2026-03-29T15:28:55.999Z</time></trkpt><trkpt lat="44.01944314508556" lon="10.113612644701211"><ele>6.0</ele><time>2026-03-29T15:28:56.999Z</time></trkpt><trkpt lat="44.019548537452245" lon="10.113315292548682"><ele>5.5</ele><time>2026-03-29T15:28:57.999Z</time></trkpt><trkpt lat="44.01965089056816" lon="10.113013926981417"><ele>5.0</ele><time>2026-03-29T15:28:58.999Z</time></trkpt><trkpt lat="44.01974875211802" lon="10.112706802684192"><ele>5.0</ele><time>2026-03-29T15:28:59.999Z</time></trkpt><trkpt lat="44.01984045397064" lon="10.112412671749176"><ele>5.0</ele><time>2026-03-29T15:29:00.999Z</time></trkpt><trkpt lat="44.019926976310195" lon="10.112120843592693"><ele>4.5</ele><time>2026-03-29T15:29:01.999Z</time></trkpt><trkpt lat="44.02000933559641" lon="10.111820899631264"><ele>4.0</ele><time>2026-03-29T15:29:03Z</time></trkpt><trkpt lat="44.02008994232397" lon="10.111515794474254"><ele>3.5</ele><time>2026-03-29T15:29:04Z</time></trkpt><trkpt lat="44.020165966838746" lon="10.111202208658472"><ele>3.0</ele><time>2026-03-29T15:29:05Z</time></trkpt><trkpt lat="44.02023695706216" lon="10.11089170773845"><ele>3.0</ele><time>2026-03-29T15:29:06Z</time></trkpt><trkpt lat="44.02030323605763" lon="10.110595745258903"><ele>3.0</ele><time>2026-03-29T15:29:07Z</time></trkpt><trkpt lat="44.02036714572308" lon="10.110301285257671"><ele>3.0</ele><time>2026-03-29T15:29:08Z</time></trkpt><trkpt lat="44.02042783609583" lon="10.110005611094516"><ele>3.5</ele><time>2026-03-29T15:29:09Z</time></trkpt><trkpt lat="44.02049123908914" lon="10.109705045283725"><ele>4.0</ele><time>2026-03-29T15:29:10Z</time></trkpt><trkpt lat="44.02056041156311" lon="10.10940127985641"><ele>4.0</ele><time>2026-03-29T15:29:11Z</time></trkpt><trkpt lat="44.02063785672143" lon="10.109084370655745"><ele>4.0</ele><time>2026-03-29T15:29:12Z</time></trkpt><trkpt lat="44.02071024197988" lon="10.10876902168772"><ele>4.0</ele><time>2026-03-29T15:29:13Z</time></trkpt><trkpt lat="44.020780340722396" lon="10.108447880910374"><ele>4.0</ele><time>2026-03-29T15:29:14Z</time></trkpt><trkpt lat="44.02085089981991" lon="10.108123552757954"><ele>4.0</ele><time>2026-03-29T15:29:15Z</time></trkpt><trkpt lat="44.020922673670086" lon="10.107793194997226"><ele>4.0</ele><time>2026-03-29T15:29:16Z</time></trkpt><trkpt lat="44.02099514843515" lon="10.107461338714257"><ele>4.0</ele><time>2026-03-29T15:29:17Z</time></trkpt><trkpt lat="44.021066457209024" lon="10.107129383256748"><ele>4.0</ele><time>2026-03-29T15:29:18Z</time></trkpt><trkpt lat="44.02114099431396" lon="10.106794803578165"><ele>4.0</ele><time>2026-03-29T15:29:19Z</time></trkpt><trkpt lat="44.02121705376619" lon="10.106455766165357"><ele>4.0</ele><time>2026-03-29T15:29:20Z</time></trkpt><trkpt lat="44.02129232575504" lon="10.106118380517225"><ele>4.0</ele><time>2026-03-29T15:29:21Z</time></trkpt><trkpt lat="44.02136786077253" lon="10.105778025482559"><ele>4.0</ele><time>2026-03-29T15:29:22Z</time></trkpt><trkpt lat="44.02144081680056" lon="10.105426289192726"><ele>4.0</ele><time>2026-03-29T15:29:23Z</time></trkpt><trkpt lat="44.0215116143583" lon="10.10505863771645"><ele>4.0</ele><time>2026-03-29T15:29:24Z</time></trkpt><trkpt lat="44.02159441733954" lon="10.104686812992618"><ele>3.5</ele><time>2026-03-29T15:29:25Z</time></trkpt><trkpt lat="44.02166655628665" lon="10.104326945200892"><ele>3.0</ele><time>2026-03-29T15:29:26Z</time></trkpt><trkpt lat="44.02174440918019" lon="10.103982942373595"><ele>3.0</ele><time>2026-03-29T15:29:27Z</time></trkpt><trkpt lat="44.021835772328124" lon="10.103633205690576"><ele>3.0</ele><time>2026-03-29T15:29:28Z</time></trkpt><trkpt lat="44.02193822120069" lon="10.103287634255574"><ele>2.5</ele><time>2026-03-29T15:29:29Z</time></trkpt><trkpt lat="44.02204556268932" lon="10.102945236043597"><ele>2.0</ele><time>2026-03-29T15:29:30Z</time></trkpt><trkpt lat="44.02215880598358" lon="10.102601345485509"><ele>2.5</ele><time>2026-03-29T15:29:31Z</time></trkpt><trkpt lat="44.022277960092715" lon="10.102259483012967"><ele>3.0</ele><time>2026-03-29T15:29:32Z</time></trkpt><trkpt lat="44.02240286199238" lon="10.101920113389548"><ele>2.5</ele><time>2026-03-29T15:29:33Z</time></trkpt><trkpt lat="44.02253382807519" lon="10.101575293000632"><ele>2.0</ele><time>2026-03-29T15:29:34Z</time></trkpt><trkpt lat="44.022670283336886" lon="10.101231551634916"><ele>2.0</ele><time>2026-03-29T15:29:35Z</time></trkpt><trkpt lat="44.02281515688167" lon="10.100879956101961"><ele>2.0</ele><time>2026-03-29T15:29:36Z</time></trkpt><trkpt lat="44.022968175817326" lon="10.100527140610767"><ele>2.0</ele><time>2026-03-29T15:29:37Z</time></trkpt><trkpt lat="44.02313202598782" lon="10.100167103396796"><ele>2.0</ele><time>2026-03-29T15:29:38Z</time></trkpt><trkpt lat="44.02329281115879" lon="10.099830713767869"><ele>4.5</ele><time>2026-03-29T15:29:39Z</time></trkpt><trkpt lat="44.02344949030653" lon="10.099519206216867"><ele>7.0</ele><time>2026-03-29T15:29:40Z</time></trkpt><trkpt lat="44.02360210431865" lon="10.09922676826058"><ele>5.5</ele><time>2026-03-29T15:29:41Z</time></trkpt><trkpt lat="44.023745109428056" lon="10.098949323039959"><ele>4.0</ele><time>2026-03-29T15:29:42Z</time></trkpt><trkpt lat="44.02389955053856" lon="10.098671575138908"><ele>4.0</ele><time>2026-03-29T15:29:43Z</time></trkpt><trkpt lat="44.02405996644704" lon="10.098396754779927"><ele>4.0</ele><time>2026-03-29T15:29:44Z</time></trkpt><trkpt lat="44.024223712677625" lon="10.09812439939631"><ele>3.0</ele><time>2026-03-29T15:29:45Z</time></trkpt><trkpt lat="44.02439264533734" lon="10.097855711406332"><ele>2.0</ele><time>2026-03-29T15:29:46Z</time></trkpt><trkpt lat="44.024566990883045" lon="10.097589563181534"><ele>2.0</ele><time>2026-03-29T15:29:47Z</time></trkpt><trkpt lat="44.02474464386721" lon="10.09732302109683"><ele>2.0</ele><time>2026-03-29T15:29:48Z</time></trkpt><trkpt lat="44.024921840043454" lon="10.09705397667669"><ele>2.0</ele><time>2026-03-29T15:29:49Z</time></trkpt><trkpt lat="44.02509804978852" lon="10.096781529038083"><ele>2.0</ele><time>2026-03-29T15:29:50Z</time></trkpt><trkpt lat="44.02527437642964" lon="10.096507546279076"><ele>2.0</ele><time>2026-03-29T15:29:51Z</time></trkpt><trkpt lat="44.02545304729655" lon="10.096231373691275"><ele>2.0</ele><time>2026-03-29T15:29:52Z</time></trkpt><trkpt lat="44.02563297405387" lon="10.095955277231207"><ele>3.0</ele><time>2026-03-29T15:29:53Z</time></trkpt><trkpt lat="44.025814449404386" lon="10.095678745475034"><ele>4.0</ele><time>2026-03-29T15:29:54Z</time></trkpt><trkpt lat="44.02599596489722" lon="10.095400477866262"><ele>4.0</ele><time>2026-03-29T15:29:55Z</time></trkpt><trkpt lat="44.02617613133209" lon="10.095124323396197"><ele>4.0</ele><time>2026-03-29T15:29:56Z</time></trkpt><trkpt lat="44.02635919516291" lon="10.094844999734844"><ele>3.5</ele><time>2026-03-29T15:29:57Z</time></trkpt><trkpt lat="44.02654158658166" lon="10.094568096029057"><ele>3.0</ele><time>2026-03-29T15:29:58Z</time></trkpt><trkpt lat="44.026714473416355" lon="10.094302512087646"><ele>3.0</ele><time>2026-03-29T15:29:59Z</time></trkpt><trkpt lat="44.0268788364746" lon="10.094052200636067"><ele>3.0</ele><time>2026-03-29T15:30:00Z</time></trkpt><trkpt lat="44.0270475925384" lon="10.093794982151989"><ele>3.0</ele><time>2026-03-29T15:30:01Z</time></trkpt><trkpt lat="44.02721506222679" lon="10.093536682177072"><ele>3.0</ele><time>2026-03-29T15:30:02Z</time></trkpt><trkpt lat="44.027379414577645" lon="10.093282188434987"><ele>4.5</ele><time>2026-03-29T15:30:03Z</time></trkpt><trkpt lat="44.027537001194446" lon="10.093039692604735"><ele>6.0</ele><time>2026-03-29T15:30:04Z</time></trkpt><trkpt lat="44.027694742304924" lon="10.092795711658418"><ele>6.0</ele><time>2026-03-29T15:30:05Z</time></trkpt><trkpt lat="44.02785538409351" lon="10.092551219228541"><ele>6.0</ele><time>2026-03-29T15:30:06Z</time></trkpt><trkpt lat="44.02800887998427" lon="10.09231869739785"><ele>5.5</ele><time>2026-03-29T15:30:07Z</time></trkpt><trkpt lat="44.02815984365845" lon="10.092088218660434"><ele>5.0</ele><time>2026-03-29T15:30:08Z</time></trkpt><trkpt lat="44.02831335052871" lon="10.091851202911561"><ele>5.5</ele><time>2026-03-29T15:30:09Z</time></trkpt><trkpt lat="44.02846953896559" lon="10.091610949698925"><ele>6.0</ele><time>2026-03-29T15:30:10Z</time></trkpt><trkpt lat="44.02862798190752" lon="10.091367592218266"><ele>6.0</ele><time>2026-03-29T15:30:11Z</time></trkpt><trkpt lat="44.02878580915143" lon="10.09112082621543"><ele>6.0</ele><time>2026-03-29T15:30:12Z</time></trkpt><trkpt lat="44.028945547471416" lon="10.090872195909036"><ele>6.0</ele><time>2026-03-29T15:30:13Z</time></trkpt><trkpt lat="44.02911000117843" lon="10.090610411022809"><ele>6.0</ele><time>2026-03-29T15:30:14Z</time></trkpt><trkpt lat="44.02928131674183" lon="10.090334740696038"><ele>6.0</ele><time>2026-03-29T15:30:14.999Z</time></trkpt><trkpt lat="44.029454600410304" lon="10.090058413838754"><ele>6.0</ele><time>2026-03-29T15:30:15.999Z</time></trkpt><trkpt lat="44.02963526500971" lon="10.089770094838471"><ele>5.5</ele><time>2026-03-29T15:30:16.999Z</time></trkpt><trkpt lat="44.029822414826036" lon="10.089476459100524"><ele>5.0</ele><time>2026-03-29T15:30:17.999Z</time></trkpt><trkpt lat="44.030014519269656" lon="10.089174688085656"><ele>3.5</ele><time>2026-03-29T15:30:18.999Z</time></trkpt><trkpt lat="44.03020833156215" lon="10.08886545576187"><ele>2.0</ele><time>2026-03-29T15:30:19.999Z</time></trkpt><trkpt lat="44.03040640306783" lon="10.088543264142066"><ele>1.5</ele><time>2026-03-29T15:30:20.999Z</time></trkpt><trkpt lat="44.030599392552254" lon="10.088210877747802"><ele>1.0</ele><time>2026-03-29T15:30:21.999Z</time></trkpt><trkpt lat="44.03078861389377" lon="10.087864316083131"><ele>1.0</ele><time>2026-03-29T15:30:22.999Z</time></trkpt><trkpt lat="44.0309603811852" lon="10.087521817679955"><ele>1.0</ele><time>2026-03-29T15:30:23.999Z</time></trkpt><trkpt lat="44.03111885113688" lon="10.087195138390305"><ele>1.5</ele><time>2026-03-29T15:30:24.999Z</time></trkpt><trkpt lat="44.03127187017289" lon="10.086867614558738"><ele>2.0</ele><time>2026-03-29T15:30:25.999Z</time></trkpt><trkpt lat="44.031425946248625" lon="10.086532853460357"><ele>2.0</ele><time>2026-03-29T15:30:26.999Z</time></trkpt><trkpt lat="44.03157725015948" lon="10.086191545693685"><ele>2.0</ele><time>2026-03-29T15:30:27.999Z</time></trkpt><trkpt lat="44.03172006535624" lon="10.08584765007004"><ele>3.5</ele><time>2026-03-29T15:30:28.999Z</time></trkpt><trkpt lat="44.03185559145026" lon="10.085499031735177"><ele>5.0</ele><time>2026-03-29T15:30:29.999Z</time></trkpt><trkpt lat="44.03198483091077" lon="10.085161719596533"><ele>4.0</ele><time>2026-03-29T15:30:30.999Z</time></trkpt><trkpt lat="44.03209341901245" lon="10.084834754962309"><ele>3.0</ele><time>2026-03-29T15:30:31.999Z</time></trkpt><trkpt lat="44.032206378216465" lon="10.084529729400652"><ele>3.0</ele><time>2026-03-29T15:30:32.999Z</time></trkpt><trkpt lat="44.032312935140276" lon="10.084225326520963"><ele>3.0</ele><time>2026-03-29T15:30:33.999Z</time></trkpt><trkpt lat="44.032415022224555" lon="10.083901273246664"><ele>3.0</ele><time>2026-03-29T15:30:34.999Z</time></trkpt><trkpt lat="44.03251542442434" lon="10.083566790448227"><ele>3.0</ele><time>2026-03-29T15:30:35.999Z</time></trkpt><trkpt lat="44.032612455201594" lon="10.083227268216884"><ele>4.0</ele><time>2026-03-29T15:30:36.999Z</time></trkpt><trkpt lat="44.03270571652889" lon="10.082881137851352"><ele>5.0</ele><time>2026-03-29T15:30:37.999Z</time></trkpt><trkpt lat="44.032790844896724" lon="10.08253362588518"><ele>4.5</ele><time>2026-03-29T15:30:38.999Z</time></trkpt><trkpt lat="44.03286883617699" lon="10.082181477740335"><ele>4.0</ele><time>2026-03-29T15:30:39.999Z</time></trkpt><trkpt lat="44.032943082671316" lon="10.081826373547575"><ele>3.0</ele><time>2026-03-29T15:30:40.999Z</time></trkpt><trkpt lat="44.033013387121805" lon="10.081468510459803"><ele>2.0</ele><time>2026-03-29T15:30:41.999Z</time></trkpt><trkpt lat="44.03307675889596" lon="10.081109490154814"><ele>2.5</ele><time>2026-03-29T15:30:42.999Z</time></trkpt><trkpt lat="44.033137338287005" lon="10.080749964518837"><ele>3.0</ele><time>2026-03-29T15:30:43.999Z</time></trkpt><trkpt lat="44.0331923977449" lon="10.080387838371685"><ele>3.0</ele><time>2026-03-29T15:30:44.999Z</time></trkpt><trkpt lat="44.03324084033042" lon="10.080025794888668"><ele>3.0</ele><time>2026-03-29T15:30:45.999Z</time></trkpt><trkpt lat="44.03329253084819" lon="10.079667357940664"><ele>3.0</ele><time>2026-03-29T15:30:46.999Z</time></trkpt><trkpt lat="44.03334049832226" lon="10.079320310552587"><ele>3.0</ele><time>2026-03-29T15:30:47.999Z</time></trkpt><trkpt lat="44.03338750734298" lon="10.078999663531208"><ele>2.5</ele><time>2026-03-29T15:30:48.999Z</time></trkpt><trkpt lat="44.03343256223038" lon="10.078694204198724"><ele>2.0</ele><time>2026-03-29T15:30:49.999Z</time></trkpt><trkpt lat="44.03348257510244" lon="10.07837429731026"><ele>2.0</ele><time>2026-03-29T15:30:50.999Z</time></trkpt><trkpt lat="44.0335305575961" lon="10.078049629798327"><ele>2.0</ele><time>2026-03-29T15:30:51.999Z</time></trkpt><trkpt lat="44.03357714359269" lon="10.077714579466733"><ele>2.5</ele><time>2026-03-29T15:30:52.999Z</time></trkpt><trkpt lat="44.03362342206819" lon="10.077383545803363"><ele>3.0</ele><time>2026-03-29T15:30:53.999Z</time></trkpt><trkpt lat="44.03366785750158" lon="10.077044588471956"><ele>3.0</ele><time>2026-03-29T15:30:54.999Z</time></trkpt><trkpt lat="44.03371245294863" lon="10.076707499254526"><ele>3.0</ele><time>2026-03-29T15:30:55.999Z</time></trkpt><trkpt lat="44.03375683756605" lon="10.076396026705831"><ele>3.0</ele><time>2026-03-29T15:30:56.999Z</time></trkpt><trkpt lat="44.03380178793048" lon="10.076099541039996"><ele>3.0</ele><time>2026-03-29T15:30:57.999Z</time></trkpt><trkpt lat="44.03384565433112" lon="10.075798573956785"><ele>3.0</ele><time>2026-03-29T15:30:58.999Z</time></trkpt><trkpt lat="44.03388977634589" lon="10.075494748774222"><ele>3.0</ele><time>2026-03-29T15:30:59.999Z</time></trkpt><trkpt lat="44.03393058884168" lon="10.07519034932157"><ele>3.0</ele><time>2026-03-29T15:31:00.999Z</time></trkpt><trkpt lat="44.033981182248304" lon="10.074883764510508"><ele>3.0</ele><time>2026-03-29T15:31:01.999Z</time></trkpt><trkpt lat="44.03403750719341" lon="10.074586845620045"><ele>2.6666666666666665</ele><time>2026-03-29T15:31:02.999Z</time></trkpt><trkpt lat="44.03408948326371" lon="10.074312136164053"><ele>2.333333333333333</ele><time>2026-03-29T15:31:03.999Z</time></trkpt><trkpt lat="44.034143858095945" lon="10.074033024161267"><ele>2.0</ele><time>2026-03-29T15:31:04.999Z</time></trkpt><trkpt lat="44.034203448177216" lon="10.073744166216434"><ele>2.0</ele><time>2026-03-29T15:31:05.999Z</time></trkpt><trkpt lat="44.03426669801522" lon="10.073447536489654"><ele>2.0</ele><time>2026-03-29T15:31:06.999Z</time></trkpt><trkpt lat="44.03433053657984" lon="10.073169308853958"><ele>2.0</ele><time>2026-03-29T15:31:07.999Z</time></trkpt><trkpt lat="44.03439844688971" lon="10.072895316303185"><ele>2.0</ele><time>2026-03-29T15:31:09Z</time></trkpt><trkpt lat="44.034472007256404" lon="10.07261815812002"><ele>2.0</ele><time>2026-03-29T15:31:10Z</time></trkpt><trkpt lat="44.0345446789199" lon="10.072357955180015"><ele>2.0</ele><time>2026-03-29T15:31:11Z</time></trkpt><trkpt lat="44.03462146366191" lon="10.072099119340567"><ele>2.333333333333333</ele><time>2026-03-29T15:31:12Z</time></trkpt><trkpt lat="44.03470094973792" lon="10.071836135716723"><ele>2.6666666666666665</ele><time>2026-03-29T15:31:13Z</time></trkpt><trkpt lat="44.03478619604519" lon="10.071562621395838"><ele>3.0</ele><time>2026-03-29T15:31:14Z</time></trkpt><trkpt lat="44.03487435274816" lon="10.0712839585887"><ele>3.0</ele><time>2026-03-29T15:31:15Z</time></trkpt><trkpt lat="44.034962520784944" lon="10.071013523854216"><ele>3.0</ele><time>2026-03-29T15:31:16Z</time></trkpt><trkpt lat="44.0350494092249" lon="10.070768498102604"><ele>3.0</ele><time>2026-03-29T15:31:17Z</time></trkpt><trkpt lat="44.0351409512882" lon="10.070532067389856"><ele>3.0</ele><time>2026-03-29T15:31:18Z</time></trkpt><trkpt lat="44.03524258094832" lon="10.070278513626695"><ele>3.0</ele><time>2026-03-29T15:31:19Z</time></trkpt><trkpt lat="44.03534686190742" lon="10.070015996085324"><ele>3.0</ele><time>2026-03-29T15:31:20Z</time></trkpt><trkpt lat="44.03545404965405" lon="10.069746838694007"><ele>3.0</ele><time>2026-03-29T15:31:21Z</time></trkpt><trkpt lat="44.035565730274456" lon="10.069467463629161"><ele>3.0</ele><time>2026-03-29T15:31:22Z</time></trkpt><trkpt lat="44.035690563829725" lon="10.069172184817816"><ele>3.0</ele><time>2026-03-29T15:31:23Z</time></trkpt><trkpt lat="44.03581798349083" lon="10.068869331575575"><ele>3.0</ele><time>2026-03-29T15:31:24Z</time></trkpt><trkpt lat="44.0359543431222" lon="10.068560117103413"><ele>4.0</ele><time>2026-03-29T15:31:25Z</time></trkpt><trkpt lat="44.03609907231278" lon="10.06823735538903"><ele>5.0</ele><time>2026-03-29T15:31:26Z</time></trkpt><trkpt lat="44.03624750622222" lon="10.067896667417015"><ele>5.0</ele><time>2026-03-29T15:31:27Z</time></trkpt><trkpt lat="44.03640757508443" lon="10.067530640887586"><ele>5.0</ele><time>2026-03-29T15:31:28Z</time></trkpt><trkpt lat="44.03657499326362" lon="10.06715517765194"><ele>4.0</ele><time>2026-03-29T15:31:29Z</time></trkpt><trkpt lat="44.036752068335296" lon="10.066778537633414"><ele>3.0</ele><time>2026-03-29T15:31:30Z</time></trkpt><trkpt lat="44.03690986346825" lon="10.066419092376467"><ele>3.0</ele><time>2026-03-29T15:31:31Z</time></trkpt><trkpt lat="44.03705844578336" lon="10.066091645133119"><ele>3.0</ele><time>2026-03-29T15:31:32Z</time></trkpt><trkpt lat="44.03721111219184" lon="10.065752067122014"><ele>3.5</ele><time>2026-03-29T15:31:33Z</time></trkpt><trkpt lat="44.03737244031211" lon="10.06538466848652"><ele>4.0</ele><time>2026-03-29T15:31:34Z</time></trkpt><trkpt lat="44.037541642599315" lon="10.065002925389825"><ele>3.5</ele><time>2026-03-29T15:31:35Z</time></trkpt><trkpt lat="44.03771679729463" lon="10.064607567270075"><ele>3.0</ele><time>2026-03-29T15:31:36Z</time></trkpt><trkpt lat="44.03788399243839" lon="10.064231687077575"><ele>3.0</ele><time>2026-03-29T15:31:37Z</time></trkpt><trkpt lat="44.0380382805329" lon="10.063886546697116"><ele>3.0</ele><time>2026-03-29T15:31:38Z</time></trkpt><trkpt lat="44.038195226478976" lon="10.063533805557253"><ele>3.5</ele><time>2026-03-29T15:31:39Z</time></trkpt><trkpt lat="44.03834698746799" lon="10.063184088440142"><ele>4.0</ele><time>2026-03-29T15:31:40Z</time></trkpt><trkpt lat="44.03850065993317" lon="10.06283242272186"><ele>4.0</ele><time>2026-03-29T15:31:41Z</time></trkpt><trkpt lat="44.03865740511418" lon="10.062479191251692"><ele>4.0</ele><time>2026-03-29T15:31:42Z</time></trkpt><trkpt lat="44.0388146861491" lon="10.062125022456936"><ele>4.0</ele><time>2026-03-29T15:31:43Z</time></trkpt><trkpt lat="44.03897191693947" lon="10.061768799754066"><ele>4.0</ele><time>2026-03-29T15:31:44Z</time></trkpt><trkpt lat="44.03912879731738" lon="10.061414738725729"><ele>4.5</ele><time>2026-03-29T15:31:45Z</time></trkpt><trkpt lat="44.039286784281586" lon="10.061057309138276"><ele>5.0</ele><time>2026-03-29T15:31:46Z</time></trkpt><trkpt lat="44.039444189799724" lon="10.060701131625068"><ele>5.0</ele><time>2026-03-29T15:31:47Z</time></trkpt><trkpt lat="44.0396020394123" lon="10.060341859454317"><ele>5.0</ele><time>2026-03-29T15:31:48Z</time></trkpt><trkpt lat="44.0397607262975" lon="10.05998106000818"><ele>4.5</ele><time>2026-03-29T15:31:49Z</time></trkpt><trkpt lat="44.03992054735282" lon="10.059620056094072"><ele>4.0</ele><time>2026-03-29T15:31:50Z</time></trkpt><trkpt lat="44.04007955948783" lon="10.059260216790017"><ele>4.5</ele><time>2026-03-29T15:31:51Z</time></trkpt><trkpt lat="44.04023976175669" lon="10.058897518781775"><ele>5.0</ele><time>2026-03-29T15:31:52Z</time></trkpt><trkpt lat="44.04040059028731" lon="10.058535570166523"><ele>4.0</ele><time>2026-03-29T15:31:53Z</time></trkpt><trkpt lat="44.04056016876057" lon="10.058173409305637"><ele>3.0</ele><time>2026-03-29T15:31:54Z</time></trkpt><trkpt lat="44.04072174965954" lon="10.05780758953034"><ele>3.0</ele><time>2026-03-29T15:31:55Z</time></trkpt><trkpt lat="44.04088213572875" lon="10.057443063053324"><ele>3.0</ele><time>2026-03-29T15:31:56Z</time></trkpt><trkpt lat="44.041044757192346" lon="10.057078773283633"><ele>3.0</ele><time>2026-03-29T15:31:57Z</time></trkpt><trkpt lat="44.04120646271938" lon="10.056709935780415"><ele>3.0</ele><time>2026-03-29T15:31:58Z</time></trkpt><trkpt lat="44.04136680420122" lon="10.056337461010871"><ele>3.0</ele><time>2026-03-29T15:31:59Z</time></trkpt><trkpt lat="44.04152861140017" lon="10.05596625663876"><ele>3.0</ele><time>2026-03-29T15:32:00Z</time></trkpt><trkpt lat="44.04169469987379" lon="10.055593235685437"><ele>3.0</ele><time>2026-03-29T15:32:01Z</time></trkpt><trkpt lat="44.04185828028411" lon="10.055224358079496"><ele>3.0</ele><time>2026-03-29T15:32:02Z</time></trkpt><trkpt lat="44.04202159511993" lon="10.05485495360069"><ele>3.0</ele><time>2026-03-29T15:32:03Z</time></trkpt><trkpt lat="44.04218311303407" lon="10.05448835087217"><ele>3.0</ele><time>2026-03-29T15:32:04Z</time></trkpt><trkpt lat="44.04234511399047" lon="10.054123242258337"><ele>3.5</ele><time>2026-03-29T15:32:05Z</time></trkpt><trkpt lat="44.042506371253566" lon="10.05376059701325"><ele>4.0</ele><time>2026-03-29T15:32:06Z</time></trkpt><trkpt lat="44.042668909584556" lon="10.053395062188807"><ele>5.0</ele><time>2026-03-29T15:32:07Z</time></trkpt><trkpt lat="44.042830723617215" lon="10.053029213236485"><ele>6.0</ele><time>2026-03-29T15:32:08Z</time></trkpt><trkpt lat="44.04299095785323" lon="10.052667117411952"><ele>6.5</ele><time>2026-03-29T15:32:09Z</time></trkpt><trkpt lat="44.043153712112606" lon="10.052305938229212"><ele>7.0</ele><time>2026-03-29T15:32:10Z</time></trkpt><trkpt lat="44.043321960501984" lon="10.051949290479985"><ele>6.0</ele><time>2026-03-29T15:32:11Z</time></trkpt><trkpt lat="44.04349809808394" lon="10.051600850724247"><ele>5.0</ele><time>2026-03-29T15:32:12Z</time></trkpt><trkpt lat="44.04367770687698" lon="10.051259265221285"><ele>5.0</ele><time>2026-03-29T15:32:13Z</time></trkpt><trkpt lat="44.04385573794516" lon="10.050930057383773"><ele>5.0</ele><time>2026-03-29T15:32:14Z</time></trkpt><trkpt lat="44.04402423659193" lon="10.050611973477805"><ele>5.0</ele><time>2026-03-29T15:32:15Z</time></trkpt><trkpt lat="44.04419073840652" lon="10.050286272280633"><ele>5.0</ele><time>2026-03-29T15:32:16Z</time></trkpt><trkpt lat="44.04435832737391" lon="10.049954123493404"><ele>4.5</ele><time>2026-03-29T15:32:17Z</time></trkpt><trkpt lat="44.04452868822017" lon="10.049624748984831"><ele>4.0</ele><time>2026-03-29T15:32:18Z</time></trkpt><trkpt lat="44.044701616615406" lon="10.049298550348992"><ele>4.0</ele><time>2026-03-29T15:32:19Z</time></trkpt><trkpt lat="44.04487906951288" lon="10.048971768860683"><ele>4.0</ele><time>2026-03-29T15:32:20Z</time></trkpt><trkpt lat="44.0450529012911" lon="10.048642011620423"><ele>4.5</ele><time>2026-03-29T15:32:21Z</time></trkpt><trkpt lat="44.04522563023395" lon="10.048310515518127"><ele>5.0</ele><time>2026-03-29T15:32:22Z</time></trkpt><trkpt lat="44.04539826752807" lon="10.047973962952994"><ele>5.0</ele><time>2026-03-29T15:32:22.999Z</time></trkpt><trkpt lat="44.045576080034806" lon="10.047644602667932"><ele>5.0</ele><time>2026-03-29T15:32:23.999Z</time></trkpt><trkpt lat="44.045753626317115" lon="10.047309119884433"><ele>4.5</ele><time>2026-03-29T15:32:24.999Z</time></trkpt><trkpt lat="44.045930268977585" lon="10.046974387184921"><ele>4.0</ele><time>2026-03-29T15:32:25.999Z</time></trkpt><trkpt lat="44.04611092861259" lon="10.046639037361917"><ele>3.5</ele><time>2026-03-29T15:32:26.999Z</time></trkpt><trkpt lat="44.04629683231235" lon="10.046307567055367"><ele>3.0</ele><time>2026-03-29T15:32:27.999Z</time></trkpt><trkpt lat="44.04648341058123" lon="10.045981252178818"><ele>4.0</ele><time>2026-03-29T15:32:28.999Z</time></trkpt><trkpt lat="44.04666818904432" lon="10.045649235900381"><ele>5.0</ele><time>2026-03-29T15:32:29.999Z</time></trkpt><trkpt lat="44.04684940911415" lon="10.045313681437545"><ele>5.0</ele><time>2026-03-29T15:32:30.999Z</time></trkpt><trkpt lat="44.04702923384641" lon="10.044975722552092"><ele>5.0</ele><time>2026-03-29T15:32:31.999Z</time></trkpt><trkpt lat="44.04720576399767" lon="10.04463600058012"><ele>5.0</ele><time>2026-03-29T15:32:32.999Z</time></trkpt><trkpt lat="44.047381468520534" lon="10.044296788534115"><ele>5.0</ele><time>2026-03-29T15:32:33.999Z</time></trkpt><trkpt lat="44.047558823330085" lon="10.043961945744186"><ele>5.0</ele><time>2026-03-29T15:32:34.999Z</time></trkpt><trkpt lat="44.047739927744374" lon="10.04362568838855"><ele>5.0</ele><time>2026-03-29T15:32:35.999Z</time></trkpt><trkpt lat="44.04791904716473" lon="10.043289398847973"><ele>5.5</ele><time>2026-03-29T15:32:36.999Z</time></trkpt><trkpt lat="44.04809704887504" lon="10.042953532393094"><ele>6.0</ele><time>2026-03-29T15:32:37.999Z</time></trkpt><trkpt lat="44.048275191819165" lon="10.042614366505092"><ele>5.0</ele><time>2026-03-29T15:32:38.999Z</time></trkpt><trkpt lat="44.048454071622565" lon="10.042277621528262"><ele>4.0</ele><time>2026-03-29T15:32:39.999Z</time></trkpt><trkpt lat="44.04863364919945" lon="10.041941352288756"><ele>3.5</ele><time>2026-03-29T15:32:40.999Z</time></trkpt><trkpt lat="44.04881100129687" lon="10.041604491233485"><ele>3.0</ele><time>2026-03-29T15:32:41.999Z</time></trkpt><trkpt lat="44.048988369538215" lon="10.041265333683345"><ele>3.0</ele><time>2026-03-29T15:32:42.999Z</time></trkpt><trkpt lat="44.04916752132797" lon="10.04092686127576"><ele>3.0</ele><time>2026-03-29T15:32:43.999Z</time></trkpt><trkpt lat="44.049346756901144" lon="10.04058948668349"><ele>2.0</ele><time>2026-03-29T15:32:44.999Z</time></trkpt><trkpt lat="44.049525947799374" lon="10.040252957059408"><ele>1.0</ele><time>2026-03-29T15:32:45.999Z</time></trkpt><trkpt lat="44.049707685472406" lon="10.039917733517164"><ele>1.0</ele><time>2026-03-29T15:32:46.999Z</time></trkpt><trkpt lat="44.049884846483614" lon="10.039576042367033"><ele>1.0</ele><time>2026-03-29T15:32:47.999Z</time></trkpt><trkpt lat="44.050064709550625" lon="10.039245687442264"><ele>1.5</ele><time>2026-03-29T15:32:48.999Z</time></trkpt><trkpt lat="44.050243259468104" lon="10.038916875815437"><ele>2.0</ele><time>2026-03-29T15:32:49.999Z</time></trkpt><trkpt lat="44.05042499225514" lon="10.038579573079074"><ele>2.0</ele><time>2026-03-29T15:32:50.999Z</time></trkpt><trkpt lat="44.05060583538133" lon="10.038248834156985"><ele>2.0</ele><time>2026-03-29T15:32:51.999Z</time></trkpt><trkpt lat="44.05078485432181" lon="10.037916967952237"><ele>2.0</ele><time>2026-03-29T15:32:52.999Z</time></trkpt><trkpt lat="44.050958596446414" lon="10.037586023018157"><ele>2.0</ele><time>2026-03-29T15:32:53.999Z</time></trkpt><trkpt lat="44.05113632949459" lon="10.037255401727059"><ele>2.0</ele><time>2026-03-29T15:32:54.999Z</time></trkpt><trkpt lat="44.05131003387462" lon="10.036921608719917"><ele>2.0</ele><time>2026-03-29T15:32:55.999Z</time></trkpt><trkpt lat="44.05147732011333" lon="10.036584042698081"><ele>1.0</ele><time>2026-03-29T15:32:56.999Z</time></trkpt><trkpt lat="44.0516395209213" lon="10.036241995893429"><ele>0.0</ele><time>2026-03-29T15:32:57.999Z</time></trkpt><trkpt lat="44.0517969416244" lon="10.035897198643758"><ele>0.0</ele><time>2026-03-29T15:32:58.999Z</time></trkpt><trkpt lat="44.051950254144856" lon="10.03555115377288"><ele>0.0</ele><time>2026-03-29T15:32:59.999Z</time></trkpt><trkpt lat="44.052101935569624" lon="10.035203680274167"><ele>0.5</ele><time>2026-03-29T15:33:00.999Z</time></trkpt><trkpt lat="44.052249394579796" lon="10.034856081610474"><ele>1.0</ele><time>2026-03-29T15:33:01.999Z</time></trkpt><trkpt lat="44.0523912854376" lon="10.034503179779424"><ele>1.5</ele><time>2026-03-29T15:33:02.999Z</time></trkpt><trkpt lat="44.052530251545974" lon="10.034148820098329"><ele>2.0</ele><time>2026-03-29T15:33:03.999Z</time></trkpt><trkpt lat="44.052664128153616" lon="10.033789460497271"><ele>2.0</ele><time>2026-03-29T15:33:04.999Z</time></trkpt><trkpt lat="44.052791267121336" lon="10.03342418602415"><ele>2.0</ele><time>2026-03-29T15:33:05.999Z</time></trkpt><trkpt lat="44.05291464424443" lon="10.033059485957466"><ele>2.5</ele><time>2026-03-29T15:33:06.999Z</time></trkpt><trkpt lat="44.053034741054226" lon="10.032692418870298"><ele>3.0</ele><time>2026-03-29T15:33:07.999Z</time></trkpt><trkpt lat="44.05315489897627" lon="10.032328598657115"><ele>3.0</ele><time>2026-03-29T15:33:08.999Z</time></trkpt><trkpt lat="44.05326728592075" lon="10.03194968222999"><ele>3.0</ele><time>2026-03-29T15:33:09.999Z</time></trkpt><trkpt lat="44.053376226817484" lon="10.03157195354904"><ele>3.0</ele><time>2026-03-29T15:33:10.999Z</time></trkpt><trkpt lat="44.05348395294798" lon="10.031196578735212"><ele>3.0</ele><time>2026-03-29T15:33:11.999Z</time></trkpt><trkpt lat="44.05359412799224" lon="10.030820085531461"><ele>3.0</ele><time>2026-03-29T15:33:12.999Z</time></trkpt><trkpt lat="44.05370704780285" lon="10.030441016024493"><ele>3.0</ele><time>2026-03-29T15:33:13.999Z</time></trkpt><trkpt lat="44.05381715854629" lon="10.030067395710102"><ele>3.0</ele><time>2026-03-29T15:33:15Z</time></trkpt><trkpt lat="44.05392631923475" lon="10.029692961453474"><ele>3.0</ele><time>2026-03-29T15:33:16Z</time></trkpt><trkpt lat="44.054033290035186" lon="10.02932049026882"><ele>2.5</ele><time>2026-03-29T15:33:17Z</time></trkpt><trkpt lat="44.05413559928616" lon="10.028966914382957"><ele>2.0</ele><time>2026-03-29T15:33:18Z</time></trkpt><trkpt lat="44.05422863206511" lon="10.028640700436942"><ele>2.0</ele><time>2026-03-29T15:33:19Z</time></trkpt><trkpt lat="44.05431966615741" lon="10.02832731315605"><ele>2.0</ele><time>2026-03-29T15:33:20Z</time></trkpt><trkpt lat="44.054417712142175" lon="10.027994452046386"><ele>2.0</ele><time>2026-03-29T15:33:21Z</time></trkpt><trkpt lat="44.054522065655526" lon="10.027635126117564"><ele>2.0</ele><time>2026-03-29T15:33:22Z</time></trkpt><trkpt lat="44.05462990663431" lon="10.027262698014813"><ele>1.5</ele><time>2026-03-29T15:33:23Z</time></trkpt><trkpt lat="44.05472854637971" lon="10.02692605439496"><ele>1.0</ele><time>2026-03-29T15:33:24Z</time></trkpt><trkpt lat="44.054823709221914" lon="10.026603792433825"><ele>2.0</ele><time>2026-03-29T15:33:25Z</time></trkpt><trkpt lat="44.054916429051296" lon="10.026286836460814"><ele>3.0</ele><time>2026-03-29T15:33:26Z</time></trkpt><trkpt lat="44.055001325463905" lon="10.02599372835693"><ele>3.0</ele><time>2026-03-29T15:33:27Z</time></trkpt><trkpt lat="44.05508120314676" lon="10.025710851555296"><ele>3.0</ele><time>2026-03-29T15:33:28Z</time></trkpt><trkpt lat="44.05516341818962" lon="10.025425864432831"><ele>3.0</ele><time>2026-03-29T15:33:29Z</time></trkpt><trkpt lat="44.05525037818982" lon="10.025128503549977"><ele>3.0</ele><time>2026-03-29T15:33:30Z</time></trkpt><trkpt lat="44.05534146303666" lon="10.024816875162939"><ele>3.0</ele><time>2026-03-29T15:33:31Z</time></trkpt><trkpt lat="44.055434304158894" lon="10.024490557477911"><ele>3.0</ele><time>2026-03-29T15:33:32Z</time></trkpt><trkpt lat="44.05553344509686" lon="10.024149737552065"><ele>3.0</ele><time>2026-03-29T15:33:33Z</time></trkpt><trkpt lat="44.055631657609794" lon="10.02381619397154"><ele>2.5</ele><time>2026-03-29T15:33:34Z</time></trkpt><trkpt lat="44.05572023318923" lon="10.023514418804723"><ele>2.0</ele><time>2026-03-29T15:33:35Z</time></trkpt><trkpt lat="44.05580505412829" lon="10.023225935077505"><ele>2.0</ele><time>2026-03-29T15:33:36Z</time></trkpt><trkpt lat="44.055885998948675" lon="10.022944702571783"><ele>2.0</ele><time>2026-03-29T15:33:37Z</time></trkpt><trkpt lat="44.05596969323675" lon="10.022648467718978"><ele>2.0</ele><time>2026-03-29T15:33:38Z</time></trkpt><trkpt lat="44.0560574633646" lon="10.022333987161144"><ele>1.5</ele><time>2026-03-29T15:33:39Z</time></trkpt><trkpt lat="44.05614917782108" lon="10.021988400912967"><ele>1.0</ele><time>2026-03-29T15:33:40Z</time></trkpt><trkpt lat="44.05624902230802" lon="10.021612216874514"><ele>1.0</ele><time>2026-03-29T15:33:41Z</time></trkpt><trkpt lat="44.05636025378878" lon="10.021212375827194"><ele>1.0</ele><time>2026-03-29T15:33:42Z</time></trkpt><trkpt lat="44.056479982506836" lon="10.020798225041327"><ele>1.0</ele><time>2026-03-29T15:33:43Z</time></trkpt><trkpt lat="44.05660701419157" lon="10.020364738714726"><ele>1.0</ele><time>2026-03-29T15:33:44Z</time></trkpt><trkpt lat="44.05673784902164" lon="10.019915939376151"><ele>1.0</ele><time>2026-03-29T15:33:45Z</time></trkpt><trkpt lat="44.056873493544984" lon="10.019449796387482"><ele>1.0</ele><time>2026-03-29T15:33:46Z</time></trkpt><trkpt lat="44.05701433586267" lon="10.018969190720066"><ele>1.0</ele><time>2026-03-29T15:33:47Z</time></trkpt><trkpt lat="44.05715801444575" lon="10.01847890231656"><ele>1.0</ele><time>2026-03-29T15:33:48Z</time></trkpt><trkpt lat="44.05728951117393" lon="10.018023238350713"><ele>1.0</ele><time>2026-03-29T15:33:49Z</time></trkpt><trkpt lat="44.057413882402" lon="10.017596310105063"><ele>1.0</ele><time>2026-03-29T15:33:50Z</time></trkpt><trkpt lat="44.057537950810286" lon="10.017170876718431"><ele>1.0</ele><time>2026-03-29T15:33:51Z</time></trkpt><trkpt lat="44.057661641970384" lon="10.016744913682633"><ele>1.0</ele><time>2026-03-29T15:33:52Z</time></trkpt><trkpt lat="44.057783544423536" lon="10.016330413370785"><ele>1.0</ele><time>2026-03-29T15:33:53Z</time></trkpt><trkpt lat="44.05790484169618" lon="10.015919348823045"><ele>1.0</ele><time>2026-03-29T15:33:54Z</time></trkpt><trkpt lat="44.05802682204153" lon="10.015513381586326"><ele>1.0</ele><time>2026-03-29T15:33:55Z</time></trkpt><trkpt lat="44.058152584726585" lon="10.015109762213084"><ele>1.0</ele><time>2026-03-29T15:33:56Z</time></trkpt><trkpt lat="44.05827722983123" lon="10.014709176883951"><ele>0.5</ele><time>2026-03-29T15:33:57Z</time></trkpt><trkpt lat="44.05839826693916" lon="10.014310096953077"><ele>0.0</ele><time>2026-03-29T15:33:58Z</time></trkpt><trkpt lat="44.05851775664556" lon="10.013909546442235"><ele>-0.5</ele><time>2026-03-29T15:33:59Z</time></trkpt><trkpt lat="44.05863681000986" lon="10.01350977714497"><ele>-1.0</ele><time>2026-03-29T15:34:00Z</time></trkpt><trkpt lat="44.058759128440286" lon="10.013106806330406"><ele>-1.0</ele><time>2026-03-29T15:34:01Z</time></trkpt><trkpt lat="44.05888477117962" lon="10.01270798363275"><ele>-1.0</ele><time>2026-03-29T15:34:02Z</time></trkpt><trkpt lat="44.059016832197095" lon="10.012309349573476"><ele>1.0</ele><time>2026-03-29T15:34:03Z</time></trkpt><trkpt lat="44.059155867966425" lon="10.011914630782158"><ele>3.0</ele><time>2026-03-29T15:34:04Z</time></trkpt><trkpt lat="44.05930381046787" lon="10.011521522651243"><ele>3.5</ele><time>2026-03-29T15:34:05Z</time></trkpt><trkpt lat="44.05945977753993" lon="10.011132173462748"><ele>4.0</ele><time>2026-03-29T15:34:06Z</time></trkpt><trkpt lat="44.05962075851892" lon="10.01074424367005"><ele>4.0</ele><time>2026-03-29T15:34:07Z</time></trkpt><trkpt lat="44.05978724504049" lon="10.010350206093328"><ele>4.0</ele><time>2026-03-29T15:34:08Z</time></trkpt><trkpt lat="44.059960864172176" lon="10.009952592499713"><ele>3.0</ele><time>2026-03-29T15:34:09Z</time></trkpt><trkpt lat="44.06012700584784" lon="10.009591365873531"><ele>2.0</ele><time>2026-03-29T15:34:10Z</time></trkpt><trkpt lat="44.06028537481017" lon="10.009259450686942"><ele>3.0</ele><time>2026-03-29T15:34:11Z</time></trkpt><trkpt lat="44.06044467501561" lon="10.008939915589922"><ele>4.0</ele><time>2026-03-29T15:34:12Z</time></trkpt><trkpt lat="44.06060493542192" lon="10.008613392333409"><ele>4.0</ele><time>2026-03-29T15:34:13Z</time></trkpt><trkpt lat="44.06076760719633" lon="10.008282832578585"><ele>4.0</ele><time>2026-03-29T15:34:14Z</time></trkpt><trkpt lat="44.060936411414296" lon="10.007955587029555"><ele>4.0</ele><time>2026-03-29T15:34:15Z</time></trkpt><trkpt lat="44.06111569504622" lon="10.007635938634591"><ele>4.0</ele><time>2026-03-29T15:34:16Z</time></trkpt><trkpt lat="44.06130562917261" lon="10.007321215343142"><ele>4.0</ele><time>2026-03-29T15:34:17Z</time></trkpt><trkpt lat="44.0614934470617" lon="10.006999674629698"><ele>4.0</ele><time>2026-03-29T15:34:18Z</time></trkpt><trkpt lat="44.06168211963787" lon="10.00668545427623"><ele>3.5</ele><time>2026-03-29T15:34:19Z</time></trkpt><trkpt lat="44.06188062976716" lon="10.006358417540364"><ele>3.0</ele><time>2026-03-29T15:34:20Z</time></trkpt><trkpt lat="44.06207712985678" lon="10.006032356471472"><ele>3.5</ele><time>2026-03-29T15:34:21Z</time></trkpt><trkpt lat="44.06228028013256" lon="10.00570671669988"><ele>4.0</ele><time>2026-03-29T15:34:22Z</time></trkpt><trkpt lat="44.062485291143005" lon="10.00537793409694"><ele>2.5</ele><time>2026-03-29T15:34:23Z</time></trkpt><trkpt lat="44.06269147980706" lon="10.005047336729074"><ele>1.0</ele><time>2026-03-29T15:34:24Z</time></trkpt><trkpt lat="44.06290084248486" lon="10.004713154613158"><ele>1.0</ele><time>2026-03-29T15:34:24.999Z</time></trkpt><trkpt lat="44.06311302703293" lon="10.004377418013291"><ele>1.0</ele><time>2026-03-29T15:34:25.999Z</time></trkpt><trkpt lat="44.063323595821984" lon="10.004037339968528"><ele>0.5</ele><time>2026-03-29T15:34:26.999Z</time></trkpt><trkpt lat="44.06353219832965" lon="10.003695589720895"><ele>0.0</ele><time>2026-03-29T15:34:27.999Z</time></trkpt><trkpt lat="44.063740938718304" lon="10.003353358581242"><ele>-0.5</ele><time>2026-03-29T15:34:28.999Z</time></trkpt><trkpt lat="44.06395007245923" lon="10.003009004549758"><ele>-1.0</ele><time>2026-03-29T15:34:29.999Z</time></trkpt><trkpt lat="44.0641607348845" lon="10.002667873093927"><ele>0.0</ele><time>2026-03-29T15:34:30.999Z</time></trkpt><trkpt lat="44.064371364859085" lon="10.00232675843667"><ele>1.0</ele><time>2026-03-29T15:34:31.999Z</time></trkpt><trkpt lat="44.06458180871047" lon="10.001986492025372"><ele>1.0</ele><time>2026-03-29T15:34:32.999Z</time></trkpt><trkpt lat="44.06479184844067" lon="10.001643409861135"><ele>1.0</ele><time>2026-03-29T15:34:33.999Z</time></trkpt><trkpt lat="44.06499790284522" lon="10.001298240549152"><ele>1.0</ele><time>2026-03-29T15:34:34.999Z</time></trkpt><trkpt lat="44.065204678165706" lon="10.000956383297893"><ele>1.0</ele><time>2026-03-29T15:34:35.999Z</time></trkpt><trkpt lat="44.06540995359826" lon="10.000618219211923"><ele>0.5</ele><time>2026-03-29T15:34:36.999Z</time></trkpt><trkpt lat="44.06561432446815" lon="10.000279379498528"><ele>0.0</ele><time>2026-03-29T15:34:37.999Z</time></trkpt><trkpt lat="44.06582086199867" lon="9.99993959408433"><ele>1.5</ele><time>2026-03-29T15:34:38.999Z</time></trkpt><trkpt lat="44.06602232301388" lon="9.99960641093444"><ele>3.0</ele><time>2026-03-29T15:34:39.999Z</time></trkpt><trkpt lat="44.0662267927889" lon="9.999269652751703"><ele>2.5</ele><time>2026-03-29T15:34:40.999Z</time></trkpt><trkpt lat="44.06643192707633" lon="9.998931687504907"><ele>2.0</ele><time>2026-03-29T15:34:41.999Z</time></trkpt><trkpt lat="44.066634345628906" lon="9.998597777517585"><ele>3.0</ele><time>2026-03-29T15:34:42.999Z</time></trkpt><trkpt lat="44.06683735817895" lon="9.998260241102887"><ele>4.0</ele><time>2026-03-29T15:34:43.999Z</time></trkpt><trkpt lat="44.067040976189475" lon="9.997923845532894"><ele>4.0</ele><time>2026-03-29T15:34:44.999Z</time></trkpt><trkpt lat="44.06724473616951" lon="9.997590385632936"><ele>4.0</ele><time>2026-03-29T15:34:45.999Z</time></trkpt><trkpt lat="44.067447227766365" lon="9.997255691978937"><ele>3.0</ele><time>2026-03-29T15:34:46.999Z</time></trkpt><trkpt lat="44.06765166159651" lon="9.996924859824455"><ele>2.0</ele><time>2026-03-29T15:34:47.999Z</time></trkpt><trkpt lat="44.06785562577592" lon="9.996595484173772"><ele>1.5</ele><time>2026-03-29T15:34:48.999Z</time></trkpt><trkpt lat="44.06805692557053" lon="9.996262627298227"><ele>1.0</ele><time>2026-03-29T15:34:49.999Z</time></trkpt><trkpt lat="44.06825586517558" lon="9.995929348055585"><ele>2.0</ele><time>2026-03-29T15:34:50.999Z</time></trkpt><trkpt lat="44.06845727850145" lon="9.995597901798465"><ele>3.0</ele><time>2026-03-29T15:34:51.999Z</time></trkpt><trkpt lat="44.06865688647457" lon="9.99526956029918"><ele>1.5</ele><time>2026-03-29T15:34:52.999Z</time></trkpt><trkpt lat="44.06885569203891" lon="9.994939104217533"><ele>0.0</ele><time>2026-03-29T15:34:53.999Z</time></trkpt><trkpt lat="44.069052355737675" lon="9.994609622499869"><ele>1.0</ele><time>2026-03-29T15:34:54.999Z</time></trkpt><trkpt lat="44.06924996519458" lon="9.99427910556248"><ele>2.0</ele><time>2026-03-29T15:34:55.999Z</time></trkpt><trkpt lat="44.06944889147938" lon="9.9939484987154"><ele>2.0</ele><time>2026-03-29T15:34:56.999Z</time></trkpt><trkpt lat="44.069647441037844" lon="9.993618084155486"><ele>2.0</ele><time>2026-03-29T15:34:57.999Z</time></trkpt><trkpt lat="44.069846474374835" lon="9.993289125974979"><ele>2.5</ele><time>2026-03-29T15:34:58.999Z</time></trkpt><trkpt lat="44.07004675609875" lon="9.99296057112147"><ele>3.0</ele><time>2026-03-29T15:34:59.999Z</time></trkpt><trkpt lat="44.07024740623809" lon="9.992635889116038"><ele>2.5</ele><time>2026-03-29T15:35:00.999Z</time></trkpt><trkpt lat="44.070448912830926" lon="9.992311723782823"><ele>2.0</ele><time>2026-03-29T15:35:01.999Z</time></trkpt><trkpt lat="44.070649640851926" lon="9.991986644309423"><ele>2.0</ele><time>2026-03-29T15:35:02.999Z</time></trkpt><trkpt lat="44.07084888492368" lon="9.991659956623764"><ele>2.0</ele><time>2026-03-29T15:35:03.999Z</time></trkpt><trkpt lat="44.07104782946027" lon="9.991333483599002"><ele>2.0</ele><time>2026-03-29T15:35:04.999Z</time></trkpt><trkpt lat="44.071244424073704" lon="9.991005733145963"><ele>2.0</ele><time>2026-03-29T15:35:05.999Z</time></trkpt><trkpt lat="44.071441726874866" lon="9.990678271625107"><ele>2.0</ele><time>2026-03-29T15:35:06.999Z</time></trkpt><trkpt lat="44.071638174734964" lon="9.990351929949723"><ele>2.0</ele><time>2026-03-29T15:35:07.999Z</time></trkpt><trkpt lat="44.071836610961" lon="9.990028050010471"><ele>1.5</ele><time>2026-03-29T15:35:08.999Z</time></trkpt><trkpt lat="44.07203427893704" lon="9.989705800057944"><ele>1.0</ele><time>2026-03-29T15:35:09.999Z</time></trkpt><trkpt lat="44.072233264849956" lon="9.989383201016935"><ele>1.5</ele><time>2026-03-29T15:35:10.999Z</time></trkpt><trkpt lat="44.0724286116316" lon="9.98906024607515"><ele>2.0</ele><time>2026-03-29T15:35:11.999Z</time></trkpt><trkpt lat="44.07262508634984" lon="9.988734814927206"><ele>2.5</ele><time>2026-03-29T15:35:12.999Z</time></trkpt><trkpt lat="44.0728183217834" lon="9.98841093182312"><ele>3.0</ele><time>2026-03-29T15:35:13.999Z</time></trkpt><trkpt lat="44.07301631174641" lon="9.988088014437716"><ele>3.0</ele><time>2026-03-29T15:35:14.999Z</time></trkpt><trkpt lat="44.07321507790996" lon="9.987764977011071"><ele>3.0</ele><time>2026-03-29T15:35:15.999Z</time></trkpt><trkpt lat="44.07341606038212" lon="9.987438361891575"><ele>2.5</ele><time>2026-03-29T15:35:16.999Z</time></trkpt><trkpt lat="44.073613796218176" lon="9.98710895349112"><ele>2.0</ele><time>2026-03-29T15:35:17.999Z</time></trkpt><trkpt lat="44.073810509170286" lon="9.986782337792384"><ele>2.0</ele><time>2026-03-29T15:35:18.999Z</time></trkpt><trkpt lat="44.07401099763805" lon="9.986454029774423"><ele>2.0</ele><time>2026-03-29T15:35:19.999Z</time></trkpt><trkpt lat="44.07421195359505" lon="9.986123831637107"><ele>2.5</ele><time>2026-03-29T15:35:21Z</time></trkpt><trkpt lat="44.074412269149995" lon="9.98579468314025"><ele>3.0</ele><time>2026-03-29T15:35:22Z</time></trkpt><trkpt lat="44.074615487061656" lon="9.985461818439369"><ele>3.0</ele><time>2026-03-29T15:35:23Z</time></trkpt><trkpt lat="44.07481801456082" lon="9.985128808004928"><ele>3.0</ele><time>2026-03-29T15:35:24Z</time></trkpt><trkpt lat="44.07502121838391" lon="9.984790915806983"><ele>3.0</ele><time>2026-03-29T15:35:25Z</time></trkpt><trkpt lat="44.07522367836922" lon="9.984451060875633"><ele>3.0</ele><time>2026-03-29T15:35:26Z</time></trkpt><trkpt lat="44.07542814761964" lon="9.984110069304364"><ele>3.0</ele><time>2026-03-29T15:35:27Z</time></trkpt><trkpt lat="44.07563526736284" lon="9.98377006941623"><ele>3.0</ele><time>2026-03-29T15:35:28Z</time></trkpt><trkpt lat="44.07584705147627" lon="9.983436144715158"><ele>3.0</ele><time>2026-03-29T15:35:29Z</time></trkpt><trkpt lat="44.076059532872755" lon="9.983107961441528"><ele>3.0</ele><time>2026-03-29T15:35:30Z</time></trkpt><trkpt lat="44.076281660717775" lon="9.982791550536419"><ele>3.0</ele><time>2026-03-29T15:35:31Z</time></trkpt><trkpt lat="44.07650660448798" lon="9.98248140448712"><ele>3.0</ele><time>2026-03-29T15:35:32Z</time></trkpt><trkpt lat="44.07673303136423" lon="9.982175514395308"><ele>3.0</ele><time>2026-03-29T15:35:33Z</time></trkpt><trkpt lat="44.07696153214833" lon="9.981878226164582"><ele>3.0</ele><time>2026-03-29T15:35:34Z</time></trkpt><trkpt lat="44.07719746896153" lon="9.981584274992397"><ele>3.0</ele><time>2026-03-29T15:35:35Z</time></trkpt><trkpt lat="44.07743936199607" lon="9.981295495031933"><ele>3.0</ele><time>2026-03-29T15:35:36Z</time></trkpt><trkpt lat="44.07768179816211" lon="9.981013588229427"><ele>3.0</ele><time>2026-03-29T15:35:37Z</time></trkpt><trkpt lat="44.07792957167571" lon="9.98073583726092"><ele>3.0</ele><time>2026-03-29T15:35:38Z</time></trkpt><trkpt lat="44.07817862987435" lon="9.980461424286998"><ele>2.5</ele><time>2026-03-29T15:35:39Z</time></trkpt><trkpt lat="44.07843428406" lon="9.980193079319314"><ele>2.0</ele><time>2026-03-29T15:35:40Z</time></trkpt><trkpt lat="44.07868914333191" lon="9.979928854840946"><ele>1.5</ele><time>2026-03-29T15:35:41Z</time></trkpt><trkpt lat="44.078952834002656" lon="9.979672159212473"><ele>1.0</ele><time>2026-03-29T15:35:42Z</time></trkpt><trkpt lat="44.0792201548866" lon="9.979424933941566"><ele>1.5</ele><time>2026-03-29T15:35:43Z</time></trkpt><trkpt lat="44.07949250069383" lon="9.979192186914254"><ele>2.0</ele><time>2026-03-29T15:35:44Z</time></trkpt><trkpt lat="44.079764113141394" lon="9.978965308270785"><ele>2.5</ele><time>2026-03-29T15:35:45Z</time></trkpt><trkpt lat="44.08003661074263" lon="9.978742914284961"><ele>3.0</ele><time>2026-03-29T15:35:46Z</time></trkpt><trkpt lat="44.08031384830837" lon="9.978520378104077"><ele>3.0</ele><time>2026-03-29T15:35:47Z</time></trkpt><trkpt lat="44.0805867828177" lon="9.978306556019435"><ele>3.0</ele><time>2026-03-29T15:35:48Z</time></trkpt><trkpt lat="44.080862334719086" lon="9.97808849071111"><ele>3.0</ele><time>2026-03-29T15:35:49Z</time></trkpt><trkpt lat="44.08113554737113" lon="9.977867092825239"><ele>3.0</ele><time>2026-03-29T15:35:50Z</time></trkpt><trkpt lat="44.08140877005396" lon="9.97764323565648"><ele>2.5</ele><time>2026-03-29T15:35:51Z</time></trkpt><trkpt lat="44.08168354032969" lon="9.977421528305745"><ele>2.0</ele><time>2026-03-29T15:35:52Z</time></trkpt><trkpt lat="44.08195746744466" lon="9.977209008614837"><ele>2.0</ele><time>2026-03-29T15:35:53Z</time></trkpt><trkpt lat="44.08223049976423" lon="9.976991049207813"><ele>2.0</ele><time>2026-03-29T15:35:54Z</time></trkpt><trkpt lat="44.08250160370438" lon="9.976775870306192"><ele>2.5</ele><time>2026-03-29T15:35:55Z</time></trkpt><trkpt lat="44.08277135276235" lon="9.976561704616906"><ele>3.0</ele><time>2026-03-29T15:35:56Z</time></trkpt><trkpt lat="44.08304348431963" lon="9.976345952920717"><ele>3.0</ele><time>2026-03-29T15:35:57Z</time></trkpt><trkpt lat="44.0833141963839" lon="9.976134194226189"><ele>3.0</ele><time>2026-03-29T15:35:58Z</time></trkpt><trkpt lat="44.08358542819894" lon="9.975921469146638"><ele>3.5</ele><time>2026-03-29T15:35:59Z</time></trkpt><trkpt lat="44.08385762744662" lon="9.97570815790665"><ele>4.0</ele><time>2026-03-29T15:36:00Z</time></trkpt><trkpt lat="44.08412913750073" lon="9.975492664906142"><ele>2.5</ele><time>2026-03-29T15:36:01Z</time></trkpt><trkpt lat="44.084399940188995" lon="9.975278138573406"><ele>1.0</ele><time>2026-03-29T15:36:02Z</time></trkpt><trkpt lat="44.08467146414289" lon="9.97506652554991"><ele>2.0</ele><time>2026-03-29T15:36:03Z</time></trkpt><trkpt lat="44.08494125996833" lon="9.974850632962266"><ele>3.0</ele><time>2026-03-29T15:36:04Z</time></trkpt><trkpt lat="44.085211250806246" lon="9.974634233445808"><ele>3.0</ele><time>2026-03-29T15:36:05Z</time></trkpt><trkpt lat="44.0854805446278" lon="9.974421757882476"><ele>3.0</ele><time>2026-03-29T15:36:06Z</time></trkpt><trkpt lat="44.08575024422453" lon="9.97420539354909"><ele>2.0</ele><time>2026-03-29T15:36:07Z</time></trkpt><trkpt lat="44.08601811353097" lon="9.973992792992025"><ele>1.0</ele><time>2026-03-29T15:36:08Z</time></trkpt><trkpt lat="44.08628630983736" lon="9.973791381581592"><ele>1.0</ele><time>2026-03-29T15:36:09Z</time></trkpt><trkpt lat="44.086536692421696" lon="9.973608505699977"><ele>1.0</ele><time>2026-03-29T15:36:10Z</time></trkpt><trkpt lat="44.08676153621607" lon="9.97342009717159"><ele>2.5</ele><time>2026-03-29T15:36:11Z</time></trkpt><trkpt lat="44.08698132108963" lon="9.973242713465776"><ele>4.0</ele><time>2026-03-29T15:36:12Z</time></trkpt><trkpt lat="44.08718662738861" lon="9.973079204538266"><ele>4.0</ele><time>2026-03-29T15:36:13Z</time></trkpt><trkpt lat="44.087381472442324" lon="9.972925318976412"><ele>4.0</ele><time>2026-03-29T15:36:14Z</time></trkpt><trkpt lat="44.08756681680505" lon="9.972778183282736"><ele>4.0</ele><time>2026-03-29T15:36:15Z</time></trkpt><trkpt lat="44.08774707313406" lon="9.972631362493601"><ele>4.0</ele><time>2026-03-29T15:36:16Z</time></trkpt><trkpt lat="44.0879422654927" lon="9.97247374485828"><ele>4.0</ele><time>2026-03-29T15:36:17Z</time></trkpt><trkpt lat="44.088156407146506" lon="9.972306451061511"><ele>5.0</ele><time>2026-03-29T15:36:18Z</time></trkpt><trkpt lat="44.0883607807829" lon="9.972144441638768"><ele>6.0</ele><time>2026-03-29T15:36:19Z</time></trkpt><trkpt lat="44.08855079854439" lon="9.971992694515086"><ele>6.0</ele><time>2026-03-29T15:36:20Z</time></trkpt><trkpt lat="44.08873779091116" lon="9.971841352161759"><ele>6.0</ele><time>2026-03-29T15:36:21Z</time></trkpt><trkpt lat="44.08894054099753" lon="9.971671485527091"><ele>6.0</ele><time>2026-03-29T15:36:22Z</time></trkpt><trkpt lat="44.08916185342273" lon="9.971481966995858"><ele>6.0</ele><time>2026-03-29T15:36:23Z</time></trkpt><trkpt lat="44.089372556182255" lon="9.971297427972152"><ele>6.0</ele><time>2026-03-29T15:36:24Z</time></trkpt><trkpt lat="44.089569643034736" lon="9.971122364505078"><ele>6.0</ele><time>2026-03-29T15:36:25Z</time></trkpt><trkpt lat="44.08976279012274" lon="9.970947728681177"><ele>6.0</ele><time>2026-03-29T15:36:26Z</time></trkpt><trkpt lat="44.08996019553691" lon="9.970764736856543"><ele>6.0</ele><time>2026-03-29T15:36:27Z</time></trkpt><trkpt lat="44.09014879429981" lon="9.970585477944347"><ele>6.0</ele><time>2026-03-29T15:36:28Z</time></trkpt><trkpt lat="44.09034100411137" lon="9.970402272309345"><ele>6.0</ele><time>2026-03-29T15:36:29Z</time></trkpt><trkpt lat="44.090534633947385" lon="9.970212560350737"><ele>5.0</ele><time>2026-03-29T15:36:30Z</time></trkpt><trkpt lat="44.09073048475893" lon="9.970013881442181"><ele>4.0</ele><time>2026-03-29T15:36:31Z</time></trkpt><trkpt lat="44.0909271526795" lon="9.969808828157538"><ele>4.0</ele><time>2026-03-29T15:36:32Z</time></trkpt><trkpt lat="44.091125952737805" lon="9.969599506701146"><ele>4.0</ele><time>2026-03-29T15:36:33Z</time></trkpt><trkpt lat="44.09132757501398" lon="9.96938614944452"><ele>3.5</ele><time>2026-03-29T15:36:34Z</time></trkpt><trkpt lat="44.091520901010085" lon="9.9691789127637"><ele>3.0</ele><time>2026-03-29T15:36:35Z</time></trkpt><trkpt lat="44.09170184377699" lon="9.968979589279002"><ele>3.0</ele><time>2026-03-29T15:36:36Z</time></trkpt><trkpt lat="44.091874567358346" lon="9.968784903517534"><ele>3.0</ele><time>2026-03-29T15:36:37Z</time></trkpt><trkpt lat="44.09204809231279" lon="9.968586404745531"><ele>3.0</ele><time>2026-03-29T15:36:38Z</time></trkpt><trkpt lat="44.09221967519463" lon="9.96838894124186"><ele>3.0</ele><time>2026-03-29T15:36:39Z</time></trkpt><trkpt lat="44.09237819942428" lon="9.9682047591164"><ele>3.0</ele><time>2026-03-29T15:36:39.999Z</time></trkpt><trkpt lat="44.09252651105488" lon="9.968029099862488"><ele>3.0</ele><time>2026-03-29T15:36:40.999Z</time></trkpt><trkpt lat="44.09267441815929" lon="9.967849391754424"><ele>3.0</ele><time>2026-03-29T15:36:41.999Z</time></trkpt><trkpt lat="44.09282681177508" lon="9.967661066856875"><ele>3.0</ele><time>2026-03-29T15:36:42.999Z</time></trkpt><trkpt lat="44.09297816500903" lon="9.967468550447606"><ele>3.0</ele><time>2026-03-29T15:36:43.999Z</time></trkpt><trkpt lat="44.093132384412804" lon="9.967273544207902"><ele>3.333333333333333</ele><time>2026-03-29T15:36:44.999Z</time></trkpt><trkpt lat="44.093285554793745" lon="9.967076291076298"><ele>3.6666666666666665</ele><time>2026-03-29T15:36:45.999Z</time></trkpt><trkpt lat="44.093438474169176" lon="9.966877163058207"><ele>4.0</ele><time>2026-03-29T15:36:46.999Z</time></trkpt><trkpt lat="44.093591776129884" lon="9.966674580950682"><ele>4.333333333333333</ele><time>2026-03-29T15:36:47.999Z</time></trkpt><trkpt lat="44.093743958069275" lon="9.966469523689963"><ele>4.666666666666667</ele><time>2026-03-29T15:36:48.999Z</time></trkpt><trkpt lat="44.09389697625304" lon="9.966260058287737"><ele>5.0</ele><time>2026-03-29T15:36:49.999Z</time></trkpt><trkpt lat="44.094042817853044" lon="9.966057880046089"><ele>5.0</ele><time>2026-03-29T15:36:50.999Z</time></trkpt><trkpt lat="44.09418240659423" lon="9.96586289521494"><ele>5.0</ele><time>2026-03-29T15:36:51.999Z</time></trkpt><trkpt lat="44.0943225624963" lon="9.965664865400742"><ele>5.0</ele><time>2026-03-29T15:36:52.999Z</time></trkpt><trkpt lat="44.094462019574216" lon="9.96546421225586"><ele>5.0</ele><time>2026-03-29T15:36:53.999Z</time></trkpt><trkpt lat="44.094601870272584" lon="9.96525856219054"><ele>5.0</ele><time>2026-03-29T15:36:54.999Z</time></trkpt><trkpt lat="44.09473890123407" lon="9.96504802672453"><ele>5.0</ele><time>2026-03-29T15:36:55.999Z</time></trkpt><trkpt lat="44.094875092615055" lon="9.964833934221431"><ele>5.0</ele><time>2026-03-29T15:36:56.999Z</time></trkpt><trkpt lat="44.09501085057109" lon="9.96461565118013"><ele>5.0</ele><time>2026-03-29T15:36:57.999Z</time></trkpt><trkpt lat="44.095148730420185" lon="9.964394920350603"><ele>5.0</ele><time>2026-03-29T15:36:58.999Z</time></trkpt><trkpt lat="44.09527854435713" lon="9.96418137123415"><ele>5.0</ele><time>2026-03-29T15:36:59.999Z</time></trkpt><trkpt lat="44.0954080897809" lon="9.963970729470988"><ele>5.0</ele><time>2026-03-29T15:37:00.999Z</time></trkpt><trkpt lat="44.095542634155954" lon="9.963750181273884"><ele>5.0</ele><time>2026-03-29T15:37:01.999Z</time></trkpt><trkpt lat="44.095678137119144" lon="9.963523965446484"><ele>5.0</ele><time>2026-03-29T15:37:02.999Z</time></trkpt><trkpt lat="44.095816804121874" lon="9.963287040955208"><ele>5.0</ele><time>2026-03-29T15:37:03.999Z</time></trkpt><trkpt lat="44.09595077092188" lon="9.963050718848487"><ele>5.0</ele><time>2026-03-29T15:37:04.999Z</time></trkpt><trkpt lat="44.09607369400346" lon="9.96282761008569"><ele>5.0</ele><time>2026-03-29T15:37:05.999Z</time></trkpt><trkpt lat="44.096200773968754" lon="9.962603084105291"><ele>5.0</ele><time>2026-03-29T15:37:06.999Z</time></trkpt><trkpt lat="44.09633487398693" lon="9.962369058219728"><ele>5.0</ele><time>2026-03-29T15:37:07.999Z</time></trkpt><trkpt lat="44.096466275322236" lon="9.962130824646973"><ele>5.0</ele><time>2026-03-29T15:37:08.999Z</time></trkpt><trkpt lat="44.096586368473304" lon="9.961907259621698"><ele>5.0</ele><time>2026-03-29T15:37:09.999Z</time></trkpt><trkpt lat="44.096702681224485" lon="9.961687031522908"><ele>5.0</ele><time>2026-03-29T15:37:10.999Z</time></trkpt><trkpt lat="44.096817023695436" lon="9.961462145865298"><ele>5.0</ele><time>2026-03-29T15:37:11.999Z</time></trkpt><trkpt lat="44.096934221704814" lon="9.96123103098338"><ele>5.0</ele><time>2026-03-29T15:37:12.999Z</time></trkpt><trkpt lat="44.097053239294034" lon="9.96099371857584"><ele>5.0</ele><time>2026-03-29T15:37:13.999Z</time></trkpt><trkpt lat="44.09717383460481" lon="9.96074399260271"><ele>5.0</ele><time>2026-03-29T15:37:14.999Z</time></trkpt><trkpt lat="44.09729507706723" lon="9.960483745484273"><ele>5.0</ele><time>2026-03-29T15:37:15.999Z</time></trkpt><trkpt lat="44.09742257362365" lon="9.96020915428095"><ele>4.5</ele><time>2026-03-29T15:37:16.999Z</time></trkpt><trkpt lat="44.097563880528384" lon="9.959913775075107"><ele>4.0</ele><time>2026-03-29T15:37:17.999Z</time></trkpt><trkpt lat="44.09771662533189" lon="9.959596986542895"><ele>4.0</ele><time>2026-03-29T15:37:18.999Z</time></trkpt><trkpt lat="44.09788012784941" lon="9.959266325613171"><ele>4.0</ele><time>2026-03-29T15:37:19.999Z</time></trkpt><trkpt lat="44.098046812065505" lon="9.958924720412886"><ele>3.5</ele><time>2026-03-29T15:37:20.999Z</time></trkpt><trkpt lat="44.09822715854937" lon="9.958557300065003"><ele>3.0</ele><time>2026-03-29T15:37:21.999Z</time></trkpt><trkpt lat="44.09841045557803" lon="9.958183599402041"><ele>3.5</ele><time>2026-03-29T15:37:22.999Z</time></trkpt><trkpt lat="44.098579230454234" lon="9.957843912398152"><ele>4.0</ele><time>2026-03-29T15:37:23.999Z</time></trkpt><trkpt lat="44.09873910820333" lon="9.957509978666266"><ele>4.0</ele><time>2026-03-29T15:37:24.999Z</time></trkpt><trkpt lat="44.098905595415275" lon="9.957168347558625"><ele>4.0</ele><time>2026-03-29T15:37:25.999Z</time></trkpt><trkpt lat="44.09907255446022" lon="9.956829589373951"><ele>4.0</ele><time>2026-03-29T15:37:27Z</time></trkpt><trkpt lat="44.099238393809095" lon="9.956492554567202"><ele>4.0</ele><time>2026-03-29T15:37:28Z</time></trkpt><trkpt lat="44.09940215397196" lon="9.956155194897846"><ele>4.5</ele><time>2026-03-29T15:37:29Z</time></trkpt><trkpt lat="44.09956447418854" lon="9.955824510887435"><ele>5.0</ele><time>2026-03-29T15:37:30Z</time></trkpt><trkpt lat="44.099727862310125" lon="9.955493580051835"><ele>5.0</ele><time>2026-03-29T15:37:31Z</time></trkpt><trkpt lat="44.09989071053528" lon="9.955162686108684"><ele>5.0</ele><time>2026-03-29T15:37:32Z</time></trkpt><trkpt lat="44.10005252002795" lon="9.954833191195583"><ele>5.0</ele><time>2026-03-29T15:37:33Z</time></trkpt><trkpt lat="44.1002137020099" lon="9.954507045989901"><ele>5.0</ele><time>2026-03-29T15:37:34Z</time></trkpt><trkpt lat="44.100372787439085" lon="9.954189669132337"><ele>5.0</ele><time>2026-03-29T15:37:35Z</time></trkpt><trkpt lat="44.100524331581106" lon="9.953895821420689"><ele>5.0</ele><time>2026-03-29T15:37:36Z</time></trkpt><trkpt lat="44.10067794467877" lon="9.953594169610165"><ele>6.0</ele><time>2026-03-29T15:37:37Z</time></trkpt><trkpt lat="44.10083621619736" lon="9.953286130726983"><ele>7.0</ele><time>2026-03-29T15:37:38Z</time></trkpt><trkpt lat="44.10099714407921" lon="9.952973263313805"><ele>7.0</ele><time>2026-03-29T15:37:39Z</time></trkpt><trkpt lat="44.10115462878889" lon="9.952656280230268"><ele>7.0</ele><time>2026-03-29T15:37:40Z</time></trkpt><trkpt lat="44.1013197201161" lon="9.95233532968483"><ele>8.0</ele><time>2026-03-29T15:37:41Z</time></trkpt><trkpt lat="44.10147863036888" lon="9.952006380600533"><ele>9.0</ele><time>2026-03-29T15:37:42Z</time></trkpt><trkpt lat="44.10164062902737" lon="9.95167444765007"><ele>9.0</ele><time>2026-03-29T15:37:43Z</time></trkpt><trkpt lat="44.10180370514324" lon="9.951338606928468"><ele>9.0</ele><time>2026-03-29T15:37:44Z</time></trkpt><trkpt lat="44.10197150793149" lon="9.951005175839462"><ele>9.0</ele><time>2026-03-29T15:37:45Z</time></trkpt><trkpt lat="44.10214449407758" lon="9.950673219313625"><ele>9.0</ele><time>2026-03-29T15:37:46Z</time></trkpt><trkpt lat="44.10232135789138" lon="9.950344504601082"><ele>7.5</ele><time>2026-03-29T15:37:47Z</time></trkpt><trkpt lat="44.10250626331926" lon="9.950023546870968"><ele>6.0</ele><time>2026-03-29T15:37:48Z</time></trkpt><trkpt lat="44.10269712617536" lon="9.949705735368099"><ele>6.0</ele><time>2026-03-29T15:37:49Z</time></trkpt><trkpt lat="44.102894261588474" lon="9.94939554862993"><ele>6.0</ele><time>2026-03-29T15:37:50Z</time></trkpt><trkpt lat="44.103081717401864" lon="9.94912070159169"><ele>6.0</ele><time>2026-03-29T15:37:51Z</time></trkpt><trkpt lat="44.103266237251134" lon="9.94885360756744"><ele>6.0</ele><time>2026-03-29T15:37:52Z</time></trkpt><trkpt lat="44.10345252231043" lon="9.94858674874217"><ele>7.0</ele><time>2026-03-29T15:37:53Z</time></trkpt><trkpt lat="44.10364165478172" lon="9.948331622075662"><ele>8.0</ele><time>2026-03-29T15:37:54Z</time></trkpt><trkpt lat="44.103842624798936" lon="9.948085260590027"><ele>8.0</ele><time>2026-03-29T15:37:55Z</time></trkpt><trkpt lat="44.10405290875019" lon="9.94784274108534"><ele>8.0</ele><time>2026-03-29T15:37:56Z</time></trkpt><trkpt lat="44.10426946081642" lon="9.947593562864546"><ele>9.0</ele><time>2026-03-29T15:37:57Z</time></trkpt><trkpt lat="44.10449001240915" lon="9.947339806851867"><ele>10.0</ele><time>2026-03-29T15:37:58Z</time></trkpt><trkpt lat="44.10471933823698" lon="9.947085027496435"><ele>9.5</ele><time>2026-03-29T15:37:59Z</time></trkpt><trkpt lat="44.104952328672425" lon="9.946839537064315"><ele>9.0</ele><time>2026-03-29T15:38:00Z</time></trkpt><trkpt lat="44.10519143133347" lon="9.946601905802249"><ele>9.0</ele><time>2026-03-29T15:38:01Z</time></trkpt><trkpt lat="44.105438159659506" lon="9.946369986810788"><ele>9.0</ele><time>2026-03-29T15:38:02Z</time></trkpt><trkpt lat="44.10570201966031" lon="9.946134972222739"><ele>8.5</ele><time>2026-03-29T15:38:03Z</time></trkpt><trkpt lat="44.10597717248152" lon="9.945896568764606"><ele>8.0</ele><time>2026-03-29T15:38:04Z</time></trkpt><trkpt lat="44.10624966303459" lon="9.945668030638588"><ele>7.5</ele><time>2026-03-29T15:38:05Z</time></trkpt><trkpt lat="44.106498792874056" lon="9.945474217759225"><ele>7.0</ele><time>2026-03-29T15:38:06Z</time></trkpt><trkpt lat="44.10673714339258" lon="9.945299018699973"><ele>7.0</ele><time>2026-03-29T15:38:07Z</time></trkpt><trkpt lat="44.10697243617734" lon="9.945137078852609"><ele>7.0</ele><time>2026-03-29T15:38:08Z</time></trkpt><trkpt lat="44.107210148671655" lon="9.944977890331652"><ele>7.5</ele><time>2026-03-29T15:38:09Z</time></trkpt><trkpt lat="44.10744920951254" lon="9.944829669341114"><ele>8.0</ele><time>2026-03-29T15:38:10Z</time></trkpt><trkpt lat="44.107690642590676" lon="9.944684904675066"><ele>8.0</ele><time>2026-03-29T15:38:11Z</time></trkpt><trkpt lat="44.107928588401855" lon="9.944546830279675"><ele>8.0</ele><time>2026-03-29T15:38:12Z</time></trkpt><trkpt lat="44.10813944746596" lon="9.944424998100578"><ele>8.333333333333332</ele><time>2026-03-29T15:38:13Z</time></trkpt><trkpt lat="44.10831624740855" lon="9.944321864739848"><ele>8.666666666666666</ele><time>2026-03-29T15:38:14Z</time></trkpt><trkpt lat="44.10849493745729" lon="9.944216071547084"><ele>9.0</ele><time>2026-03-29T15:38:15Z</time></trkpt><trkpt lat="44.108685144587916" lon="9.94409590725706"><ele>9.0</ele><time>2026-03-29T15:38:16Z</time></trkpt><trkpt lat="44.10889085002675" lon="9.943963298803931"><ele>9.0</ele><time>2026-03-29T15:38:17Z</time></trkpt><trkpt lat="44.10911046302829" lon="9.943827246960057"><ele>9.5</ele><time>2026-03-29T15:38:18Z</time></trkpt><trkpt lat="44.109334358021016" lon="9.943687971196354"><ele>10.0</ele><time>2026-03-29T15:38:19Z</time></trkpt><trkpt lat="44.1095698094139" lon="9.943548677572412"><ele>10.0</ele><time>2026-03-29T15:38:20Z</time></trkpt><trkpt lat="44.1098133349956" lon="9.943404883868956"><ele>10.0</ele><time>2026-03-29T15:38:21Z</time></trkpt><trkpt lat="44.11004777650429" lon="9.943270652735523"><ele>11.0</ele><time>2026-03-29T15:38:22Z</time></trkpt><trkpt lat="44.11028286734185" lon="9.943135271009714"><ele>12.0</ele><time>2026-03-29T15:38:23Z</time></trkpt><trkpt lat="44.11052063449225" lon="9.942995077781639"><ele>11.0</ele><time>2026-03-29T15:38:24Z</time></trkpt><trkpt lat="44.11076631928808" lon="9.942850210517046"><ele>10.0</ele><time>2026-03-29T15:38:25Z</time></trkpt><trkpt lat="44.11101393877027" lon="9.942702553514449"><ele>10.0</ele><time>2026-03-29T15:38:26Z</time></trkpt><trkpt lat="44.111262666385514" lon="9.942556571109627"><ele>10.0</ele><time>2026-03-29T15:38:27Z</time></trkpt><trkpt lat="44.11150069104264" lon="9.942420202378194"><ele>10.0</ele><time>2026-03-29T15:38:28Z</time></trkpt><trkpt lat="44.11173740785943" lon="9.942281130459305"><ele>10.0</ele><time>2026-03-29T15:38:29Z</time></trkpt><trkpt lat="44.111979464317635" lon="9.942141302421005"><ele>10.0</ele><time>2026-03-29T15:38:30Z</time></trkpt><trkpt lat="44.11222733923219" lon="9.942010427495473"><ele>10.0</ele><time>2026-03-29T15:38:31Z</time></trkpt><trkpt lat="44.11247834399485" lon="9.941877223640034"><ele>9.0</ele><time>2026-03-29T15:38:32Z</time></trkpt><trkpt lat="44.11273012021363" lon="9.941739543927623"><ele>8.0</ele><time>2026-03-29T15:38:33Z</time></trkpt><trkpt lat="44.11298071630577" lon="9.94159447226643"><ele>8.0</ele><time>2026-03-29T15:38:34Z</time></trkpt><trkpt lat="44.113227129868434" lon="9.941449210945105"><ele>8.0</ele><time>2026-03-29T15:38:35Z</time></trkpt><trkpt lat="44.11347987068013" lon="9.941303338975098"><ele>8.0</ele><time>2026-03-29T15:38:36Z</time></trkpt><trkpt lat="44.11373269998436" lon="9.941155742860884"><ele>8.0</ele><time>2026-03-29T15:38:37Z</time></trkpt><trkpt lat="44.11398762228129" lon="9.941008990812648"><ele>7.0</ele><time>2026-03-29T15:38:38Z</time></trkpt><trkpt lat="44.1142459353006" lon="9.940859994864907"><ele>6.0</ele><time>2026-03-29T15:38:38.999Z</time></trkpt><trkpt lat="44.114504134359954" lon="9.94071220233579"><ele>6.0</ele><time>2026-03-29T15:38:39.999Z</time></trkpt><trkpt lat="44.11476381951747" lon="9.940560921960586"><ele>6.0</ele><time>2026-03-29T15:38:40.999Z</time></trkpt><trkpt lat="44.115027292325756" lon="9.94040561733533"><ele>6.5</ele><time>2026-03-29T15:38:41.999Z</time></trkpt><trkpt lat="44.115290421836505" lon="9.940248261517036"><ele>7.0</ele><time>2026-03-29T15:38:42.999Z</time></trkpt><trkpt lat="44.11555337391306" lon="9.940090143755384"><ele>8.0</ele><time>2026-03-29T15:38:43.999Z</time></trkpt><trkpt lat="44.115818163066145" lon="9.9399318819132"><ele>9.0</ele><time>2026-03-29T15:38:44.999Z</time></trkpt><trkpt lat="44.11608220454616" lon="9.939773695751493"><ele>9.0</ele><time>2026-03-29T15:38:45.999Z</time></trkpt><trkpt lat="44.11634874289435" lon="9.93961537984447"><ele>9.0</ele><time>2026-03-29T15:38:46.999Z</time></trkpt><trkpt lat="44.11661582060333" lon="9.939459058354199"><ele>9.0</ele><time>2026-03-29T15:38:47.999Z</time></trkpt><trkpt lat="44.11688483558914" lon="9.939303538979084"><ele>9.0</ele><time>2026-03-29T15:38:48.999Z</time></trkpt><trkpt lat="44.11715179827083" lon="9.939149757550597"><ele>9.5</ele><time>2026-03-29T15:38:49.999Z</time></trkpt><trkpt lat="44.11742258917517" lon="9.938994022368673"><ele>10.0</ele><time>2026-03-29T15:38:50.999Z</time></trkpt><trkpt lat="44.11769255687286" lon="9.93883741567935"><ele>10.0</ele><time>2026-03-29T15:38:51.999Z</time></trkpt><trkpt lat="44.11796052467089" lon="9.93867986039924"><ele>10.0</ele><time>2026-03-29T15:38:52.999Z</time></trkpt><trkpt lat="44.11822881926693" lon="9.938524050981513"><ele>10.0</ele><time>2026-03-29T15:38:53.999Z</time></trkpt><trkpt lat="44.1184998195266" lon="9.938363328872471"><ele>10.0</ele><time>2026-03-29T15:38:54.999Z</time></trkpt><trkpt lat="44.11876927670263" lon="9.938204508682357"><ele>10.0</ele><time>2026-03-29T15:38:55.999Z</time></trkpt><trkpt lat="44.11904056193344" lon="9.938043367132783"><ele>10.0</ele><time>2026-03-29T15:38:56.999Z</time></trkpt><trkpt lat="44.11930952691173" lon="9.937882616322389"><ele>10.5</ele><time>2026-03-29T15:38:57.999Z</time></trkpt><trkpt lat="44.11957979294545" lon="9.937721822827298"><ele>11.0</ele><time>2026-03-29T15:38:58.999Z</time></trkpt><trkpt lat="44.11985338683445" lon="9.937560886224176"><ele>10.0</ele><time>2026-03-29T15:38:59.999Z</time></trkpt><trkpt lat="44.120116127665995" lon="9.937390554998405"><ele>9.0</ele><time>2026-03-29T15:39:00.999Z</time></trkpt><trkpt lat="44.120379944877335" lon="9.937217765764881"><ele>9.0</ele><time>2026-03-29T15:39:01.999Z</time></trkpt><trkpt lat="44.120643248523216" lon="9.937036856077766"><ele>9.0</ele><time>2026-03-29T15:39:02.999Z</time></trkpt><trkpt lat="44.12090407009036" lon="9.936849521326181"><ele>8.5</ele><time>2026-03-29T15:39:03.999Z</time></trkpt><trkpt lat="44.121166845838545" lon="9.936657716748355"><ele>8.0</ele><time>2026-03-29T15:39:04.999Z</time></trkpt><trkpt lat="44.12142501777234" lon="9.93645768234005"><ele>8.5</ele><time>2026-03-29T15:39:05.999Z</time></trkpt><trkpt lat="44.121679534110804" lon="9.936251862043608"><ele>9.0</ele><time>2026-03-29T15:39:06.999Z</time></trkpt><trkpt lat="44.121933460129526" lon="9.936040181595455"><ele>9.0</ele><time>2026-03-29T15:39:07.999Z</time></trkpt><trkpt lat="44.12218541530995" lon="9.935825353488557"><ele>9.0</ele><time>2026-03-29T15:39:08.999Z</time></trkpt><trkpt lat="44.122432743804396" lon="9.935604607754952"><ele>9.0</ele><time>2026-03-29T15:39:09.999Z</time></trkpt><trkpt lat="44.12267782000124" lon="9.935373847108146"><ele>9.0</ele><time>2026-03-29T15:39:10.999Z</time></trkpt><trkpt lat="44.12292132717931" lon="9.93513611837183"><ele>9.0</ele><time>2026-03-29T15:39:11.999Z</time></trkpt><trkpt lat="44.12316377909837" lon="9.934894047302748"><ele>9.0</ele><time>2026-03-29T15:39:12.999Z</time></trkpt><trkpt lat="44.12340441218449" lon="9.934644428179979"><ele>9.5</ele><time>2026-03-29T15:39:13.999Z</time></trkpt><trkpt lat="44.12364256240985" lon="9.934391061566467"><ele>10.0</ele><time>2026-03-29T15:39:14.999Z</time></trkpt><trkpt lat="44.12387897098269" lon="9.934129044312213"><ele>10.5</ele><time>2026-03-29T15:39:15.999Z</time></trkpt><trkpt lat="44.12411375868567" lon="9.933859271068833"><ele>11.0</ele><time>2026-03-29T15:39:16.999Z</time></trkpt><trkpt lat="44.12434592113711" lon="9.933581130772826"><ele>11.0</ele><time>2026-03-29T15:39:17.999Z</time></trkpt><trkpt lat="44.12457482178124" lon="9.933298727200265"><ele>11.0</ele><time>2026-03-29T15:39:18.999Z</time></trkpt><trkpt lat="44.1248027266178" lon="9.933013439590983"><ele>10.5</ele><time>2026-03-29T15:39:19.999Z</time></trkpt><trkpt lat="44.125027831090094" lon="9.932728322123383"><ele>10.0</ele><time>2026-03-29T15:39:20.999Z</time></trkpt><trkpt lat="44.12525323384948" lon="9.932439234795114"><ele>9.5</ele><time>2026-03-29T15:39:21.999Z</time></trkpt><trkpt lat="44.12547827527858" lon="9.93215027801445"><ele>9.0</ele><time>2026-03-29T15:39:22.999Z</time></trkpt><trkpt lat="44.12570529357795" lon="9.931857715390985"><ele>10.5</ele><time>2026-03-29T15:39:23.999Z</time></trkpt><trkpt lat="44.12593580088476" lon="9.931566675109579"><ele>12.0</ele><time>2026-03-29T15:39:24.999Z</time></trkpt><trkpt lat="44.126164827418215" lon="9.93127562201683"><ele>12.0</ele><time>2026-03-29T15:39:25.999Z</time></trkpt><trkpt lat="44.12639194736119" lon="9.930983578737367"><ele>12.0</ele><time>2026-03-29T15:39:26.999Z</time></trkpt><trkpt lat="44.12662142885427" lon="9.930687016784606"><ele>12.5</ele><time>2026-03-29T15:39:27.999Z</time></trkpt><trkpt lat="44.126853127642455" lon="9.930388371947796"><ele>13.0</ele><time>2026-03-29T15:39:28.999Z</time></trkpt><trkpt lat="44.12708422734941" lon="9.93009970689608"><ele>12.0</ele><time>2026-03-29T15:39:29.999Z</time></trkpt><trkpt lat="44.127301994839364" lon="9.929825231676366"><ele>11.0</ele><time>2026-03-29T15:39:30.999Z</time></trkpt><trkpt lat="44.127512947510944" lon="9.929546999211174"><ele>11.0</ele><time>2026-03-29T15:39:31.999Z</time></trkpt><trkpt lat="44.127728754043105" lon="9.92927149914387"><ele>11.0</ele><time>2026-03-29T15:39:33Z</time></trkpt><trkpt lat="44.127943981171725" lon="9.929001453624297"><ele>11.0</ele><time>2026-03-29T15:39:34Z</time></trkpt><trkpt lat="44.12816090776544" lon="9.928725745260477"><ele>11.0</ele><time>2026-03-29T15:39:35Z</time></trkpt><trkpt lat="44.128377948826376" lon="9.928450049895496"><ele>11.5</ele><time>2026-03-29T15:39:36Z</time></trkpt><trkpt lat="44.128594399666746" lon="9.928172324405915"><ele>12.0</ele><time>2026-03-29T15:39:37Z</time></trkpt><trkpt lat="44.12881231420088" lon="9.92789022049694"><ele>12.0</ele><time>2026-03-29T15:39:38Z</time></trkpt><trkpt lat="44.12903273225566" lon="9.927602602872561"><ele>12.0</ele><time>2026-03-29T15:39:39Z</time></trkpt><trkpt lat="44.12925703149376" lon="9.927311694734998"><ele>12.0</ele><time>2026-03-29T15:39:40Z</time></trkpt><trkpt lat="44.129479201002866" lon="9.927020458669926"><ele>12.0</ele><time>2026-03-29T15:39:41Z</time></trkpt><trkpt lat="44.12970356186483" lon="9.926730186325488"><ele>12.0</ele><time>2026-03-29T15:39:42Z</time></trkpt><trkpt lat="44.129932834782615" lon="9.926439252981865"><ele>12.0</ele><time>2026-03-29T15:39:43Z</time></trkpt><trkpt lat="44.1301627800184" lon="9.926146075405633"><ele>11.5</ele><time>2026-03-29T15:39:44Z</time></trkpt><trkpt lat="44.13039157609966" lon="9.92585215405281"><ele>11.0</ele><time>2026-03-29T15:39:45Z</time></trkpt><trkpt lat="44.13062083405842" lon="9.925558760987071"><ele>11.0</ele><time>2026-03-29T15:39:46Z</time></trkpt><trkpt lat="44.13083703167838" lon="9.9252817192012"><ele>11.0</ele><time>2026-03-29T15:39:47Z</time></trkpt><trkpt lat="44.13104050177928" lon="9.925022966417199"><ele>11.5</ele><time>2026-03-29T15:39:48Z</time></trkpt><trkpt lat="44.13123364172254" lon="9.92477821940471"><ele>12.0</ele><time>2026-03-29T15:39:49Z</time></trkpt><trkpt lat="44.13142778711179" lon="9.924530472760294"><ele>12.5</ele><time>2026-03-29T15:39:50Z</time></trkpt><trkpt lat="44.13162183970957" lon="9.924279403642004"><ele>13.0</ele><time>2026-03-29T15:39:51Z</time></trkpt><trkpt lat="44.13181325090235" lon="9.924027774574936"><ele>13.0</ele><time>2026-03-29T15:39:52Z</time></trkpt><trkpt lat="44.13200328582099" lon="9.923777795731922"><ele>13.0</ele><time>2026-03-29T15:39:53Z</time></trkpt><trkpt lat="44.132194195713836" lon="9.923527585344361"><ele>12.5</ele><time>2026-03-29T15:39:54Z</time></trkpt><trkpt lat="44.13239060656061" lon="9.923276276956681"><ele>12.0</ele><time>2026-03-29T15:39:55Z</time></trkpt><trkpt lat="44.13258458600409" lon="9.923028889225355"><ele>12.0</ele><time>2026-03-29T15:39:56Z</time></trkpt><trkpt lat="44.132780207554134" lon="9.92278045541106"><ele>12.0</ele><time>2026-03-29T15:39:57Z</time></trkpt><trkpt lat="44.13297438155278" lon="9.922528874099449"><ele>11.5</ele><time>2026-03-29T15:39:58Z</time></trkpt><trkpt lat="44.13317014830087" lon="9.922275424261338"><ele>11.0</ele><time>2026-03-29T15:39:59Z</time></trkpt><trkpt lat="44.133367958317805" lon="9.922023106357976"><ele>11.0</ele><time>2026-03-29T15:40:00Z</time></trkpt><trkpt lat="44.13356349221459" lon="9.92177633236735"><ele>11.0</ele><time>2026-03-29T15:40:01Z</time></trkpt><trkpt lat="44.133757663064586" lon="9.92153042364382"><ele>10.5</ele><time>2026-03-29T15:40:02Z</time></trkpt><trkpt lat="44.133940828667185" lon="9.921296338619113"><ele>10.0</ele><time>2026-03-29T15:40:03Z</time></trkpt><trkpt lat="44.134109796256496" lon="9.921082229662806"><ele>9.666666666666668</ele><time>2026-03-29T15:40:04Z</time></trkpt><trkpt lat="44.134272243958144" lon="9.920876347591499"><ele>9.333333333333334</ele><time>2026-03-29T15:40:05Z</time></trkpt><trkpt lat="44.13443807790332" lon="9.920662732450195"><ele>9.0</ele><time>2026-03-29T15:40:06Z</time></trkpt><trkpt lat="44.13460577426595" lon="9.920446795022913"><ele>9.0</ele><time>2026-03-29T15:40:07Z</time></trkpt><trkpt lat="44.134764527382394" lon="9.920243499075985"><ele>9.0</ele><time>2026-03-29T15:40:08Z</time></trkpt><trkpt lat="44.134914323840405" lon="9.92005073721326"><ele>9.0</ele><time>2026-03-29T15:40:09Z</time></trkpt><trkpt lat="44.135064088261714" lon="9.919860739622399"><ele>10.666666666666668</ele><time>2026-03-29T15:40:10Z</time></trkpt><trkpt lat="44.13520200732764" lon="9.919688728471803"><ele>12.333333333333334</ele><time>2026-03-29T15:40:11Z</time></trkpt><trkpt lat="44.1353300217866" lon="9.919525806889448"><ele>14.0</ele><time>2026-03-29T15:40:12Z</time></trkpt><trkpt lat="44.13546540896579" lon="9.91935899019269"><ele>14.0</ele><time>2026-03-29T15:40:13Z</time></trkpt><trkpt lat="44.135588934854226" lon="9.919204074394212"><ele>14.0</ele><time>2026-03-29T15:40:14Z</time></trkpt><trkpt lat="44.13570478656482" lon="9.919055877345581"><ele>14.0</ele><time>2026-03-29T15:40:15Z</time></trkpt><trkpt lat="44.13582643342428" lon="9.918903896644194"><ele>12.75</ele><time>2026-03-29T15:40:16Z</time></trkpt><trkpt lat="44.13593915452277" lon="9.918764576064007"><ele>11.5</ele><time>2026-03-29T15:40:17Z</time></trkpt><trkpt lat="44.136048257819766" lon="9.918635344383025"><ele>10.25</ele><time>2026-03-29T15:40:18Z</time></trkpt><trkpt lat="44.13615596899934" lon="9.918513866750516"><ele>9.0</ele><time>2026-03-29T15:40:19Z</time></trkpt><trkpt lat="44.13625573729897" lon="9.918407766078223"><ele>9.5</ele><time>2026-03-29T15:40:20Z</time></trkpt><trkpt lat="44.136351086279774" lon="9.918326278253165"><ele>10.0</ele><time>2026-03-29T15:40:21Z</time></trkpt><trkpt lat="44.1364493115798" lon="9.918259936080414"><ele>10.5</ele><time>2026-03-29T15:40:22Z</time></trkpt><trkpt lat="44.13655876512722" lon="9.918209746056826"><ele>11.0</ele><time>2026-03-29T15:40:23Z</time></trkpt><trkpt lat="44.13667067556214" lon="9.918154245704448"><ele>11.200000000000001</ele><time>2026-03-29T15:40:24Z</time></trkpt><trkpt lat="44.13675888369195" lon="9.918095889958806"><ele>11.4</ele><time>2026-03-29T15:40:25Z</time></trkpt><trkpt lat="44.136838602569114" lon="9.91798283192705"><ele>11.6</ele><time>2026-03-29T15:40:27Z</time></trkpt><trkpt lat="44.13692106761077" lon="9.917840190733067"><ele>11.8</ele><time>2026-03-29T15:40:29Z</time></trkpt><trkpt lat="44.13698624958422" lon="9.917774584519707"><ele>12.0</ele><time>2026-03-29T15:40:30Z</time></trkpt><trkpt lat="44.13704977255927" lon="9.917720059901056"><ele>12.0</ele><time>2026-03-29T15:40:31Z</time></trkpt><trkpt lat="44.137153272447776" lon="9.917625370959955"><ele>12.0</ele><time>2026-03-29T15:40:33Z</time></trkpt><trkpt lat="44.137206579293725" lon="9.917570198226755"><ele>12.0</ele><time>2026-03-29T15:40:34Z</time></trkpt><trkpt lat="44.1372953259192" lon="9.917439220456032"><ele>12.0</ele><time>2026-03-29T15:40:36Z</time></trkpt><trkpt lat="44.13734143441831" lon="9.917359851267717"><ele>12.0</ele><time>2026-03-29T15:40:37Z</time></trkpt><trkpt lat="44.13740404348301" lon="9.917278162300724"><ele>12.333333333333334</ele><time>2026-03-29T15:40:39Z</time></trkpt><trkpt lat="44.13746442911843" lon="9.917201956947821"><ele>12.666666666666668</ele><time>2026-03-29T15:40:40.999Z</time></trkpt><trkpt lat="44.13751959742563" lon="9.917121493080568"><ele>13.0</ele><time>2026-03-29T15:40:42.999Z</time></trkpt><trkpt lat="44.13759995854964" lon="9.917038812288041"><ele>13.333333333333334</ele><time>2026-03-29T15:40:44.999Z</time></trkpt><trkpt lat="44.13769059492405" lon="9.91706244691024"><ele>13.666666666666668</ele><time>2026-03-29T15:40:46.999Z</time></trkpt><trkpt lat="44.13770688341263" lon="9.917177803212772"><ele>14.0</ele><time>2026-03-29T15:40:49.999Z</time></trkpt><trkpt lat="44.137650650930006" lon="9.917251691703155"><ele>14.000000000000002</ele><time>2026-03-29T15:40:51.999Z</time></trkpt><trkpt lat="44.13757316771987" lon="9.91731612448825"><ele>14.0</ele><time>2026-03-29T15:40:53.999Z</time></trkpt><trkpt lat="44.13753085000685" lon="9.91738452352581"><ele>14.0</ele><time>2026-03-29T15:40:57.999Z</time></trkpt><trkpt lat="44.13757854801243" lon="9.917327269733569"><ele>14.0</ele><time>2026-03-29T15:48:09.999Z</time></trkpt><trkpt lat="44.13764359126184" lon="9.917246866460996"><ele>14.000000000000002</ele><time>2026-03-29T15:48:13.999Z</time></trkpt><trkpt lat="44.13770306945814" lon="9.917124870021906"><ele>14.0</ele><time>2026-03-29T15:48:15.999Z</time></trkpt><trkpt lat="44.13769114320095" lon="9.917018903468676"><ele>14.0</ele><time>2026-03-29T15:48:17.999Z</time></trkpt><trkpt lat="44.13766805736497" lon="9.916933355856914"><ele>14.0</ele><time>2026-03-29T15:48:19.999Z</time></trkpt><trkpt lat="44.137733021700605" lon="9.916802759034764"><ele>14.0</ele><time>2026-03-29T15:48:21.999Z</time></trkpt><trkpt lat="44.13777542238089" lon="9.916737020327329"><ele>14.0</ele><time>2026-03-29T15:48:22.999Z</time></trkpt><trkpt lat="44.137817950686056" lon="9.916667681659252"><ele>14.0</ele><time>2026-03-29T15:48:23.999Z</time></trkpt><trkpt lat="44.13786197237779" lon="9.916596005804887"><ele>14.0</ele><time>2026-03-29T15:48:24.999Z</time></trkpt><trkpt lat="44.13790782177901" lon="9.91652352849342"><ele>14.0</ele><time>2026-03-29T15:48:25.999Z</time></trkpt><trkpt lat="44.137972265073216" lon="9.916450299953565"><ele>14.0</ele><time>2026-03-29T15:48:26.999Z</time></trkpt><trkpt lat="44.138040358764066" lon="9.916378710370422"><ele>13.999999999999998</ele><time>2026-03-29T15:48:27.999Z</time></trkpt><trkpt lat="44.13811145322758" lon="9.91631084153504"><ele>13.999999999999998</ele><time>2026-03-29T15:48:28.999Z</time></trkpt><trkpt lat="44.1381873093003" lon="9.916243832015361"><ele>14.0</ele><time>2026-03-29T15:48:29.999Z</time></trkpt><trkpt lat="44.13826454451955" lon="9.916164997466238"><ele>14.0</ele><time>2026-03-29T15:48:30.999Z</time></trkpt><trkpt lat="44.13833655476444" lon="9.916079050684706"><ele>14.0</ele><time>2026-03-29T15:48:31.999Z</time></trkpt><trkpt lat="44.13838949621122" lon="9.915991856697635"><ele>13.999999999999998</ele><time>2026-03-29T15:48:32.999Z</time></trkpt><trkpt lat="44.13843465955476" lon="9.915885017771238"><ele>13.999999999999998</ele><time>2026-03-29T15:48:33.999Z</time></trkpt><trkpt lat="44.13847971799172" lon="9.915759366966421"><ele>14.0</ele><time>2026-03-29T15:48:34.999Z</time></trkpt><trkpt lat="44.13852366102115" lon="9.91562342644345"><ele>14.0</ele><time>2026-03-29T15:48:35.999Z</time></trkpt><trkpt lat="44.138572441476214" lon="9.915483134149401"><ele>14.0</ele><time>2026-03-29T15:48:36.999Z</time></trkpt><trkpt lat="44.13863181358721" lon="9.9153447057254"><ele>14.0</ele><time>2026-03-29T15:48:37.999Z</time></trkpt><trkpt lat="44.138700634643335" lon="9.91522091658476"><ele>14.0</ele><time>2026-03-29T15:48:38.999Z</time></trkpt><trkpt lat="44.138785283025065" lon="9.915091669758501"><ele>14.0</ele><time>2026-03-29T15:48:39.999Z</time></trkpt><trkpt lat="44.13888284579001" lon="9.914963535436025"><ele>14.0</ele><time>2026-03-29T15:48:40.999Z</time></trkpt><trkpt lat="44.138990416733066" lon="9.914835432064223"><ele>14.0</ele><time>2026-03-29T15:48:41.999Z</time></trkpt><trkpt lat="44.139088101254266" lon="9.9147164819264"><ele>14.0</ele><time>2026-03-29T15:48:42.999Z</time></trkpt><trkpt lat="44.13919372934684" lon="9.914591491572214"><ele>14.0</ele><time>2026-03-29T15:48:43.999Z</time></trkpt><trkpt lat="44.1393087802141" lon="9.914459320210465"><ele>14.0</ele><time>2026-03-29T15:48:44.999Z</time></trkpt><trkpt lat="44.13943655684134" lon="9.914312490710147"><ele>14.0</ele><time>2026-03-29T15:48:45.999Z</time></trkpt><trkpt lat="44.139572281915854" lon="9.914151304650751"><ele>14.0</ele><time>2026-03-29T15:48:46.999Z</time></trkpt><trkpt lat="44.13970530077995" lon="9.913997964030186"><ele>14.0</ele><time>2026-03-29T15:48:47.999Z</time></trkpt><trkpt lat="44.13983991169202" lon="9.913843773563336"><ele>14.0</ele><time>2026-03-29T15:48:48.999Z</time></trkpt><trkpt lat="44.13997943853594" lon="9.913685051443437"><ele>14.0</ele><time>2026-03-29T15:48:49.999Z</time></trkpt><trkpt lat="44.140127114355856" lon="9.913523991111393"><ele>14.666666666666668</ele><time>2026-03-29T15:48:50.999Z</time></trkpt><trkpt lat="44.14028410978401" lon="9.913357967808878"><ele>15.333333333333332</ele><time>2026-03-29T15:48:51.999Z</time></trkpt><trkpt lat="44.1404510865891" lon="9.913188627365342"><ele>16.0</ele><time>2026-03-29T15:48:52.999Z</time></trkpt><trkpt lat="44.14061840472173" lon="9.913024719684838"><ele>15.666666666666666</ele><time>2026-03-29T15:48:53.999Z</time></trkpt><trkpt lat="44.14079875489527" lon="9.912860120419381"><ele>15.333333333333332</ele><time>2026-03-29T15:48:54.999Z</time></trkpt><trkpt lat="44.14097324124795" lon="9.912700457056738"><ele>15.0</ele><time>2026-03-29T15:48:55.999Z</time></trkpt><trkpt lat="44.141150900880554" lon="9.912542229785675"><ele>15.0</ele><time>2026-03-29T15:48:56.999Z</time></trkpt><trkpt lat="44.14132534214496" lon="9.912383097442188"><ele>15.0</ele><time>2026-03-29T15:48:57.999Z</time></trkpt><trkpt lat="44.14150675692605" lon="9.91222671724495"><ele>15.0</ele><time>2026-03-29T15:48:58.999Z</time></trkpt><trkpt lat="44.141690699582306" lon="9.912072360655706"><ele>14.666666666666668</ele><time>2026-03-29T15:48:59.999Z</time></trkpt><trkpt lat="44.14187419070489" lon="9.911923906400355"><ele>14.333333333333334</ele><time>2026-03-29T15:49:00.999Z</time></trkpt><trkpt lat="44.1420613723627" lon="9.91178148850427"><ele>14.0</ele><time>2026-03-29T15:49:01.999Z</time></trkpt><trkpt lat="44.142249152325405" lon="9.91163569485587"><ele>15.333333333333334</ele><time>2026-03-29T15:49:02.999Z</time></trkpt><trkpt lat="44.1424330028077" lon="9.911491506792"><ele>16.666666666666668</ele><time>2026-03-29T15:49:03.999Z</time></trkpt><trkpt lat="44.14260950777694" lon="9.91136449390313"><ele>18.0</ele><time>2026-03-29T15:49:04.999Z</time></trkpt><trkpt lat="44.14278532344985" lon="9.911241060421832"><ele>18.0</ele><time>2026-03-29T15:49:05.999Z</time></trkpt><trkpt lat="44.143034696175285" lon="9.911015042228811"><ele>18.0</ele><time>2026-03-29T15:49:06.999Z</time></trkpt><trkpt lat="44.143233746247155" lon="9.910861855229564"><ele>19.0</ele><time>2026-03-29T15:49:07.999Z</time></trkpt><trkpt lat="44.14342818978964" lon="9.910710666459872"><ele>20.0</ele><time>2026-03-29T15:49:08.999Z</time></trkpt><trkpt lat="44.143626770192576" lon="9.910550825668974"><ele>20.0</ele><time>2026-03-29T15:49:09.999Z</time></trkpt><trkpt lat="44.143828469412355" lon="9.91038934654238"><ele>20.0</ele><time>2026-03-29T15:49:10.999Z</time></trkpt><trkpt lat="44.14403043320795" lon="9.910225507979277"><ele>18.0</ele><time>2026-03-29T15:49:11.999Z</time></trkpt><trkpt lat="44.144233692808065" lon="9.910063887043743"><ele>16.0</ele><time>2026-03-29T15:49:12.999Z</time></trkpt><trkpt lat="44.14443749012031" lon="9.909905942065553"><ele>16.0</ele><time>2026-03-29T15:49:13.999Z</time></trkpt><trkpt lat="44.14464300638958" lon="9.909741040028507"><ele>16.0</ele><time>2026-03-29T15:49:14.999Z</time></trkpt><trkpt lat="44.14485153599065" lon="9.90958098948723"><ele>15.5</ele><time>2026-03-29T15:49:15.999Z</time></trkpt><trkpt lat="44.14506095121024" lon="9.909418234417126"><ele>15.0</ele><time>2026-03-29T15:49:16.999Z</time></trkpt><trkpt lat="44.14526809600107" lon="9.909256202508885"><ele>15.0</ele><time>2026-03-29T15:49:17.999Z</time></trkpt><trkpt lat="44.14547809408411" lon="9.909091424670397"><ele>15.0</ele><time>2026-03-29T15:49:18.999Z</time></trkpt><trkpt lat="44.145688022014795" lon="9.908926744680866"><ele>13.5</ele><time>2026-03-29T15:49:19.999Z</time></trkpt><trkpt lat="44.145898245450404" lon="9.908760711639335"><ele>12.0</ele><time>2026-03-29T15:49:20.999Z</time></trkpt><trkpt lat="44.14610889738636" lon="9.908596410242877"><ele>12.0</ele><time>2026-03-29T15:49:21.999Z</time></trkpt><trkpt lat="44.14632313590793" lon="9.90843458514665"><ele>12.0</ele><time>2026-03-29T15:49:22.999Z</time></trkpt><trkpt lat="44.14654194290458" lon="9.908269153606058"><ele>13.0</ele><time>2026-03-29T15:49:23.999Z</time></trkpt><trkpt lat="44.14674855713364" lon="9.908112722312561"><ele>14.0</ele><time>2026-03-29T15:49:24.999Z</time></trkpt><trkpt lat="44.146935293155536" lon="9.907960955348372"><ele>14.0</ele><time>2026-03-29T15:49:25.999Z</time></trkpt><trkpt lat="44.147133744940746" lon="9.907811896561848"><ele>14.0</ele><time>2026-03-29T15:49:26.999Z</time></trkpt><trkpt lat="44.14733562672047" lon="9.907656206329623"><ele>14.5</ele><time>2026-03-29T15:49:27.999Z</time></trkpt><trkpt lat="44.14754322516755" lon="9.907494756908259"><ele>15.0</ele><time>2026-03-29T15:49:28.999Z</time></trkpt><trkpt lat="44.14775529468917" lon="9.907325895740176"><ele>15.0</ele><time>2026-03-29T15:49:29.999Z</time></trkpt><trkpt lat="44.1479723649325" lon="9.907156624529613"><ele>15.0</ele><time>2026-03-29T15:49:30.999Z</time></trkpt><trkpt lat="44.1481924448157" lon="9.906990494439965"><ele>15.0</ele><time>2026-03-29T15:49:31.999Z</time></trkpt><trkpt lat="44.148415409714914" lon="9.906821796292009"><ele>15.0</ele><time>2026-03-29T15:49:32.999Z</time></trkpt><trkpt lat="44.148638649098956" lon="9.906650493257578"><ele>15.0</ele><time>2026-03-29T15:49:33.999Z</time></trkpt><trkpt lat="44.148861996185786" lon="9.906476984449403"><ele>15.0</ele><time>2026-03-29T15:49:34.999Z</time></trkpt><trkpt lat="44.1490850225347" lon="9.906298339074926"><ele>14.5</ele><time>2026-03-29T15:49:35.999Z</time></trkpt><trkpt lat="44.1493102126717" lon="9.906125191985462"><ele>14.0</ele><time>2026-03-29T15:49:36.999Z</time></trkpt><trkpt lat="44.14953616653185" lon="9.905944955123585"><ele>14.5</ele><time>2026-03-29T15:49:37.999Z</time></trkpt><trkpt lat="44.14976104365061" lon="9.905773567281413"><ele>15.0</ele><time>2026-03-29T15:49:38.999Z</time></trkpt><trkpt lat="44.14998545109062" lon="9.905601649955633"><ele>16.0</ele><time>2026-03-29T15:49:39.999Z</time></trkpt><trkpt lat="44.1502097355851" lon="9.905422429773836"><ele>17.0</ele><time>2026-03-29T15:49:40.999Z</time></trkpt><trkpt lat="44.15043183771677" lon="9.905246165519536"><ele>17.5</ele><time>2026-03-29T15:49:41.999Z</time></trkpt><trkpt lat="44.150652661499834" lon="9.905069508863612"><ele>18.0</ele><time>2026-03-29T15:49:42.999Z</time></trkpt><trkpt lat="44.15087331409567" lon="9.904893516103705"><ele>18.0</ele><time>2026-03-29T15:49:43.999Z</time></trkpt><trkpt lat="44.15109390572994" lon="9.904721841208742"><ele>18.0</ele><time>2026-03-29T15:49:44.999Z</time></trkpt><trkpt lat="44.151315866262095" lon="9.904552336826931"><ele>18.0</ele><time>2026-03-29T15:49:45.999Z</time></trkpt><trkpt lat="44.15153905900105" lon="9.904380654800619"><ele>18.0</ele><time>2026-03-29T15:49:46.999Z</time></trkpt><trkpt lat="44.15175944142093" lon="9.904205223260284"><ele>21.0</ele><time>2026-03-29T15:49:47.999Z</time></trkpt><trkpt lat="44.151976163096556" lon="9.90403140023704"><ele>24.0</ele><time>2026-03-29T15:49:48.999Z</time></trkpt><trkpt lat="44.15219048317201" lon="9.903857215844846"><ele>21.5</ele><time>2026-03-29T15:49:49.999Z</time></trkpt><trkpt lat="44.15240389758769" lon="9.903674665403404"><ele>19.0</ele><time>2026-03-29T15:49:50.999Z</time></trkpt><trkpt lat="44.15261725588565" lon="9.903488032418384"><ele>19.5</ele><time>2026-03-29T15:49:51.999Z</time></trkpt><trkpt lat="44.15282489481925" lon="9.90329400227006"><ele>20.0</ele><time>2026-03-29T15:49:52.999Z</time></trkpt><trkpt lat="44.1530320496467" lon="9.903095335283734"><ele>20.0</ele><time>2026-03-29T15:49:53.999Z</time></trkpt><trkpt lat="44.15323638994577" lon="9.902891836160869"><ele>20.0</ele><time>2026-03-29T15:49:54.999Z</time></trkpt><trkpt lat="44.153435232170914" lon="9.902677118373791"><ele>21.0</ele><time>2026-03-29T15:49:55.999Z</time></trkpt><trkpt lat="44.15363095760498" lon="9.90246277406334"><ele>22.0</ele><time>2026-03-29T15:49:56.999Z</time></trkpt><trkpt lat="44.15382541403782" lon="9.902248492578662"><ele>22.0</ele><time>2026-03-29T15:49:57.999Z</time></trkpt><trkpt lat="44.1540174408058" lon="9.90202979999172"><ele>22.0</ele><time>2026-03-29T15:49:58.999Z</time></trkpt><trkpt lat="44.15420567072196" lon="9.901803115326375"><ele>23.0</ele><time>2026-03-29T15:49:59.999Z</time></trkpt><trkpt lat="44.15439299629471" lon="9.901569541995284"><ele>24.0</ele><time>2026-03-29T15:50:00.999Z</time></trkpt><trkpt lat="44.15457618911204" lon="9.901336822085224"><ele>24.0</ele><time>2026-03-29T15:50:01.999Z</time></trkpt><trkpt lat="44.154755495799016" lon="9.901097727415367"><ele>24.0</ele><time>2026-03-29T15:50:02.999Z</time></trkpt><trkpt lat="44.154934113911764" lon="9.900851242514658"><ele>24.5</ele><time>2026-03-29T15:50:03.999Z</time></trkpt><trkpt lat="44.15511178588088" lon="9.900597311697727"><ele>25.0</ele><time>2026-03-29T15:50:04.999Z</time></trkpt><trkpt lat="44.15528690820445" lon="9.900341931762538"><ele>23.5</ele><time>2026-03-29T15:50:05.999Z</time></trkpt><trkpt lat="44.15545761848071" lon="9.900077721741798"><ele>22.0</ele><time>2026-03-29T15:50:06.999Z</time></trkpt><trkpt lat="44.15562525674785" lon="9.89980829210668"><ele>22.0</ele><time>2026-03-29T15:50:07.999Z</time></trkpt><trkpt lat="44.15578769360008" lon="9.899532916266907"><ele>22.0</ele><time>2026-03-29T15:50:08.999Z</time></trkpt><trkpt lat="44.1559500366204" lon="9.89925150782051"><ele>22.0</ele><time>2026-03-29T15:50:09.999Z</time></trkpt><trkpt lat="44.15611351729593" lon="9.898971519763592"><ele>22.0</ele><time>2026-03-29T15:50:10.999Z</time></trkpt><trkpt lat="44.15626590262742" lon="9.898697877152522"><ele>22.0</ele><time>2026-03-29T15:50:11.999Z</time></trkpt><trkpt lat="44.15639829980417" lon="9.898437044504195"><ele>22.0</ele><time>2026-03-29T15:50:12.999Z</time></trkpt><trkpt lat="44.156522027322275" lon="9.898189457201608"><ele>22.0</ele><time>2026-03-29T15:50:13.999Z</time></trkpt><trkpt lat="44.1566484402469" lon="9.897939021352125"><ele>22.333333333333332</ele><time>2026-03-29T15:50:14.999Z</time></trkpt><trkpt lat="44.15677563784442" lon="9.89767648523042"><ele>22.666666666666668</ele><time>2026-03-29T15:50:15.999Z</time></trkpt><trkpt lat="44.156890401507674" lon="9.897426213280815"><ele>23.0</ele><time>2026-03-29T15:50:16.999Z</time></trkpt><trkpt lat="44.15700483673153" lon="9.897174227223735"><ele>23.0</ele><time>2026-03-29T15:50:17.999Z</time></trkpt><trkpt lat="44.15711916012249" lon="9.896914288621199"><ele>23.0</ele><time>2026-03-29T15:50:18.999Z</time></trkpt><trkpt lat="44.157233626523556" lon="9.896641381095057"><ele>23.0</ele><time>2026-03-29T15:50:19.999Z</time></trkpt><trkpt lat="44.15734418396798" lon="9.896359375959115"><ele>23.0</ele><time>2026-03-29T15:50:20.999Z</time></trkpt><trkpt lat="44.15745676811509" lon="9.896073845937838"><ele>23.0</ele><time>2026-03-29T15:50:21.999Z</time></trkpt><trkpt lat="44.15756670219777" lon="9.895784735347538"><ele>23.5</ele><time>2026-03-29T15:50:22.999Z</time></trkpt><trkpt lat="44.15767700661404" lon="9.89549061834636"><ele>24.0</ele><time>2026-03-29T15:50:23.999Z</time></trkpt><trkpt lat="44.15778481043659" lon="9.895195564051402"><ele>23.666666666666668</ele><time>2026-03-29T15:50:24.999Z</time></trkpt><trkpt lat="44.15789548049315" lon="9.894916990863095"><ele>23.333333333333336</ele><time>2026-03-29T15:50:25.999Z</time></trkpt><trkpt lat="44.15800290467538" lon="9.894650844206797"><ele>23.0</ele><time>2026-03-29T15:50:26.999Z</time></trkpt><trkpt lat="44.15810636276732" lon="9.894383084851885"><ele>22.5</ele><time>2026-03-29T15:50:27.999Z</time></trkpt><trkpt lat="44.158213470797136" lon="9.894103216705183"><ele>22.0</ele><time>2026-03-29T15:50:28.999Z</time></trkpt><trkpt lat="44.15832179842072" lon="9.893825671839998"><ele>22.0</ele><time>2026-03-29T15:50:29.999Z</time></trkpt><trkpt lat="44.15842992220157" lon="9.893547450413166"><ele>22.0</ele><time>2026-03-29T15:50:30.999Z</time></trkpt><trkpt lat="44.15853934718781" lon="9.893264580250081"><ele>21.5</ele><time>2026-03-29T15:50:31.999Z</time></trkpt><trkpt lat="44.158647870888686" lon="9.89298067172881"><ele>21.0</ele><time>2026-03-29T15:50:32.999Z</time></trkpt><trkpt lat="44.15875787407172" lon="9.892696176872406"><ele>20.666666666666668</ele><time>2026-03-29T15:50:33.999Z</time></trkpt><trkpt lat="44.15886714633752" lon="9.892412774528733"><ele>20.333333333333336</ele><time>2026-03-29T15:50:35Z</time></trkpt><trkpt lat="44.15896787299535" lon="9.892146886529662"><ele>20.0</ele><time>2026-03-29T15:50:36Z</time></trkpt><trkpt lat="44.15906861305753" lon="9.891883920810749"><ele>20.666666666666668</ele><time>2026-03-29T15:50:37Z</time></trkpt><trkpt lat="44.159166513493254" lon="9.891633555025559"><ele>21.333333333333332</ele><time>2026-03-29T15:50:38Z</time></trkpt><trkpt lat="44.15925747281947" lon="9.891378402920921"><ele>22.0</ele><time>2026-03-29T15:50:39Z</time></trkpt><trkpt lat="44.15935417690504" lon="9.891118489884398"><ele>21.666666666666664</ele><time>2026-03-29T15:50:40Z</time></trkpt><trkpt lat="44.15945757687098" lon="9.890850605597402"><ele>21.333333333333332</ele><time>2026-03-29T15:50:41Z</time></trkpt><trkpt lat="44.159563131150364" lon="9.890567990273443"><ele>21.0</ele><time>2026-03-29T15:50:42Z</time></trkpt><trkpt lat="44.15967319616437" lon="9.890268297680464"><ele>21.5</ele><time>2026-03-29T15:50:43Z</time></trkpt><trkpt lat="44.159788478502996" lon="9.889955674632395"><ele>22.0</ele><time>2026-03-29T15:50:44Z</time></trkpt><trkpt lat="44.1599110927775" lon="9.889631412372974"><ele>22.5</ele><time>2026-03-29T15:50:45Z</time></trkpt><trkpt lat="44.160035290050274" lon="9.889301861782608"><ele>23.0</ele><time>2026-03-29T15:50:46Z</time></trkpt><trkpt lat="44.16016242962071" lon="9.88895697780949"><ele>23.0</ele><time>2026-03-29T15:50:47Z</time></trkpt><trkpt lat="44.16029608572858" lon="9.88860818402561"><ele>23.0</ele><time>2026-03-29T15:50:48Z</time></trkpt><trkpt lat="44.160436344447376" lon="9.888249304261453"><ele>21.5</ele><time>2026-03-29T15:50:49Z</time></trkpt><trkpt lat="44.16056990415384" lon="9.887901774994273"><ele>20.0</ele><time>2026-03-29T15:50:50Z</time></trkpt><trkpt lat="44.160695333674006" lon="9.887579372397223"><ele>21.0</ele><time>2026-03-29T15:50:51Z</time></trkpt><trkpt lat="44.16082506289383" lon="9.887254521655462"><ele>22.0</ele><time>2026-03-29T15:50:52Z</time></trkpt><trkpt lat="44.16095773027208" lon="9.886922906424099"><ele>21.5</ele><time>2026-03-29T15:50:53Z</time></trkpt><trkpt lat="44.16109210620448" lon="9.886589140672571"><ele>21.0</ele><time>2026-03-29T15:50:54Z</time></trkpt><trkpt lat="44.16122883064809" lon="9.886256570919224"><ele>21.5</ele><time>2026-03-29T15:50:55Z</time></trkpt><trkpt lat="44.161361089317225" lon="9.885921661959962"><ele>22.0</ele><time>2026-03-29T15:50:56Z</time></trkpt><trkpt lat="44.16149516058864" lon="9.8855835903823"><ele>21.5</ele><time>2026-03-29T15:50:57Z</time></trkpt><trkpt lat="44.16163131702639" lon="9.885247638379132"><ele>21.0</ele><time>2026-03-29T15:50:58Z</time></trkpt><trkpt lat="44.16177080294904" lon="9.884913696921044"><ele>21.0</ele><time>2026-03-29T15:50:59Z</time></trkpt><trkpt lat="44.16191487468003" lon="9.884577673983507"><ele>21.0</ele><time>2026-03-29T15:51:00Z</time></trkpt><trkpt lat="44.16206265919888" lon="9.884248120059876"><ele>21.0</ele><time>2026-03-29T15:51:01Z</time></trkpt><trkpt lat="44.16221361677472" lon="9.883915745149741"><ele>21.0</ele><time>2026-03-29T15:51:02Z</time></trkpt><trkpt lat="44.16236202503625" lon="9.883587815645269"><ele>21.0</ele><time>2026-03-29T15:51:03Z</time></trkpt><trkpt lat="44.16251751853516" lon="9.883258164621873"><ele>21.0</ele><time>2026-03-29T15:51:04Z</time></trkpt><trkpt lat="44.162677844552164" lon="9.882924568933115"><ele>22.0</ele><time>2026-03-29T15:51:05Z</time></trkpt><trkpt lat="44.162838858678846" lon="9.88259569249286"><ele>23.0</ele><time>2026-03-29T15:51:06Z</time></trkpt><trkpt lat="44.16299104053148" lon="9.882285706326114"><ele>23.0</ele><time>2026-03-29T15:51:07Z</time></trkpt><trkpt lat="44.16313821219726" lon="9.882002775706866"><ele>23.0</ele><time>2026-03-29T15:51:08Z</time></trkpt><trkpt lat="44.16328774476535" lon="9.881714559718857"><ele>23.0</ele><time>2026-03-29T15:51:09Z</time></trkpt><trkpt lat="44.16344300421851" lon="9.88142374628223"><ele>23.0</ele><time>2026-03-29T15:51:10Z</time></trkpt><trkpt lat="44.16360184889957" lon="9.881129471360403"><ele>22.5</ele><time>2026-03-29T15:51:11Z</time></trkpt><trkpt lat="44.16377680808859" lon="9.88082903765348"><ele>22.0</ele><time>2026-03-29T15:51:12Z</time></trkpt><trkpt lat="44.16393820268065" lon="9.880540256974763"><ele>22.5</ele><time>2026-03-29T15:51:13Z</time></trkpt><trkpt lat="44.164107948813054" lon="9.88025063466863"><ele>23.0</ele><time>2026-03-29T15:51:14Z</time></trkpt><trkpt lat="44.16428217302283" lon="9.87995973880194"><ele>23.0</ele><time>2026-03-29T15:51:15Z</time></trkpt><trkpt lat="44.16445824292397" lon="9.879667969860158"><ele>23.0</ele><time>2026-03-29T15:51:16Z</time></trkpt><trkpt lat="44.164636203900145" lon="9.879381727539565"><ele>23.0</ele><time>2026-03-29T15:51:17Z</time></trkpt><trkpt lat="44.16481676869401" lon="9.879095254542824"><ele>23.0</ele><time>2026-03-29T15:51:18Z</time></trkpt><trkpt lat="44.16499698290803" lon="9.87880891115774"><ele>23.0</ele><time>2026-03-29T15:51:19Z</time></trkpt><trkpt lat="44.165180756272754" lon="9.878522227582021"><ele>23.0</ele><time>2026-03-29T15:51:20Z</time></trkpt><trkpt lat="44.16536686989192" lon="9.878244355654587"><ele>23.0</ele><time>2026-03-29T15:51:21Z</time></trkpt><trkpt lat="44.165557489451494" lon="9.877966657659707"><ele>23.0</ele><time>2026-03-29T15:51:22Z</time></trkpt><trkpt lat="44.16575050776042" lon="9.87768988930721"><ele>24.0</ele><time>2026-03-29T15:51:23Z</time></trkpt><trkpt lat="44.165945718235854" lon="9.877418067686927"><ele>25.0</ele><time>2026-03-29T15:51:24Z</time></trkpt><trkpt lat="44.166142677227654" lon="9.877145250103462"><ele>25.0</ele><time>2026-03-29T15:51:25Z</time></trkpt><trkpt lat="44.16634017305394" lon="9.876880843623153"><ele>25.0</ele><time>2026-03-29T15:51:26Z</time></trkpt><trkpt lat="44.166525159763445" lon="9.876636163585163"><ele>25.0</ele><time>2026-03-29T15:51:27Z</time></trkpt><trkpt lat="44.166708983902254" lon="9.87640159195616"><ele>25.0</ele><time>2026-03-29T15:51:28Z</time></trkpt><trkpt lat="44.16689549377746" lon="9.876165598637002"><ele>24.0</ele><time>2026-03-29T15:51:29Z</time></trkpt><trkpt lat="44.16708572561916" lon="9.875931045075376"><ele>23.0</ele><time>2026-03-29T15:51:30Z</time></trkpt><trkpt lat="44.16727584567964" lon="9.875699635248727"><ele>23.5</ele><time>2026-03-29T15:51:31Z</time></trkpt><trkpt lat="44.16746743931485" lon="9.875470703918852"><ele>24.0</ele><time>2026-03-29T15:51:32Z</time></trkpt><trkpt lat="44.16765982051801" lon="9.875241963036343"><ele>24.0</ele><time>2026-03-29T15:51:33Z</time></trkpt><trkpt lat="44.16785020265723" lon="9.875017581403146"><ele>24.0</ele><time>2026-03-29T15:51:34Z</time></trkpt><trkpt lat="44.16804645840839" lon="9.87479466576938"><ele>25.5</ele><time>2026-03-29T15:51:35Z</time></trkpt><trkpt lat="44.168242493055104" lon="9.87457658530059"><ele>27.0</ele><time>2026-03-29T15:51:36Z</time></trkpt><trkpt lat="44.168442004995974" lon="9.874360996754499"><ele>26.5</ele><time>2026-03-29T15:51:37Z</time></trkpt><trkpt lat="44.168644730736084" lon="9.874144196615322"><ele>26.0</ele><time>2026-03-29T15:51:38Z</time></trkpt><trkpt lat="44.16884756776409" lon="9.873927303920391"><ele>26.0</ele><time>2026-03-29T15:51:39Z</time></trkpt><trkpt lat="44.16905225830424" lon="9.873712889107926"><ele>26.0</ele><time>2026-03-29T15:51:40Z</time></trkpt><trkpt lat="44.16925967126249" lon="9.87349900338116"><ele>26.0</ele><time>2026-03-29T15:51:41Z</time></trkpt><trkpt lat="44.16947055956301" lon="9.873288138107839"><ele>26.0</ele><time>2026-03-29T15:51:42Z</time></trkpt><trkpt lat="44.16968547443889" lon="9.87308209052335"><ele>25.5</ele><time>2026-03-29T15:51:43Z</time></trkpt><trkpt lat="44.16989919827791" lon="9.872883794974399"><ele>25.0</ele><time>2026-03-29T15:51:44Z</time></trkpt><trkpt lat="44.1701176816046" lon="9.87268378816869"><ele>25.5</ele><time>2026-03-29T15:51:45Z</time></trkpt><trkpt lat="44.17033598952948" lon="9.872487437985352"><ele>26.0</ele><time>2026-03-29T15:51:46Z</time></trkpt><trkpt lat="44.17055746282921" lon="9.872291289099438"><ele>26.0</ele><time>2026-03-29T15:51:47Z</time></trkpt><trkpt lat="44.17078089461385" lon="9.87209615566475"><ele>26.0</ele><time>2026-03-29T15:51:48Z</time></trkpt><trkpt lat="44.17100555013844" lon="9.871904116723035"><ele>26.0</ele><time>2026-03-29T15:51:49Z</time></trkpt><trkpt lat="44.171234235193616" lon="9.871713796668391"><ele>26.0</ele><time>2026-03-29T15:51:50Z</time></trkpt><trkpt lat="44.17146227710267" lon="9.8715248735208"><ele>26.0</ele><time>2026-03-29T15:51:51Z</time></trkpt><trkpt lat="44.171693863327306" lon="9.871340714409042"><ele>26.0</ele><time>2026-03-29T15:51:52Z</time></trkpt><trkpt lat="44.17192495604651" lon="9.871162324838757"><ele>26.0</ele><time>2026-03-29T15:51:53Z</time></trkpt><trkpt lat="44.172161692092295" lon="9.87098586877199"><ele>26.0</ele><time>2026-03-29T15:51:54Z</time></trkpt><trkpt lat="44.17240011557301" lon="9.870809286589115"><ele>26.0</ele><time>2026-03-29T15:51:55Z</time></trkpt><trkpt lat="44.17263847816223" lon="9.870635901654643"><ele>26.0</ele><time>2026-03-29T15:51:56Z</time></trkpt><trkpt lat="44.17287519002844" lon="9.870461713555935"><ele>26.0</ele><time>2026-03-29T15:51:57Z</time></trkpt><trkpt lat="44.17311462765637" lon="9.870287192464332"><ele>26.0</ele><time>2026-03-29T15:51:58Z</time></trkpt><trkpt lat="44.17335681541076" lon="9.870114677108058"><ele>26.0</ele><time>2026-03-29T15:51:59Z</time></trkpt><trkpt lat="44.17359927922784" lon="9.869945998911835"><ele>26.0</ele><time>2026-03-29T15:52:00Z</time></trkpt><trkpt lat="44.17383890857868" lon="9.869773353170325"><ele>26.5</ele><time>2026-03-29T15:52:01Z</time></trkpt><trkpt lat="44.17408074555049" lon="9.869602598346518"><ele>27.0</ele><time>2026-03-29T15:52:02Z</time></trkpt><trkpt lat="44.17432057968302" lon="9.869429717391123"><ele>27.0</ele><time>2026-03-29T15:52:03Z</time></trkpt><trkpt lat="44.174560293440194" lon="9.869258976486801"><ele>27.0</ele><time>2026-03-29T15:52:04Z</time></trkpt><trkpt lat="44.17479965186382" lon="9.869088607556135"><ele>28.0</ele><time>2026-03-29T15:52:05Z</time></trkpt><trkpt lat="44.17503945087136" lon="9.868919312188421"><ele>29.0</ele><time>2026-03-29T15:52:06Z</time></trkpt><trkpt lat="44.17528186556069" lon="9.868750123019513"><ele>29.0</ele><time>2026-03-29T15:52:07Z</time></trkpt><trkpt lat="44.17552218126634" lon="9.868580772120035"><ele>29.0</ele><time>2026-03-29T15:52:08Z</time></trkpt><trkpt lat="44.17576365243475" lon="9.868409719220175"><ele>29.0</ele><time>2026-03-29T15:52:09Z</time></trkpt><trkpt lat="44.17600504879" lon="9.868236428727617"><ele>29.0</ele><time>2026-03-29T15:52:10Z</time></trkpt><trkpt lat="44.176244313322336" lon="9.868065037415173"><ele>29.0</ele><time>2026-03-29T15:52:11Z</time></trkpt><trkpt lat="44.176484078236705" lon="9.867891370183782"><ele>29.0</ele><time>2026-03-29T15:52:12Z</time></trkpt><trkpt lat="44.176725601956065" lon="9.867718454156874"><ele>29.0</ele><time>2026-03-29T15:52:13Z</time></trkpt><trkpt lat="44.17696742823614" lon="9.86754697728045"><ele>29.0</ele><time>2026-03-29T15:52:14Z</time></trkpt><trkpt lat="44.17720873302" lon="9.867378357799021"><ele>29.5</ele><time>2026-03-29T15:52:15Z</time></trkpt><trkpt lat="44.17745254108776" lon="9.867204247690491"><ele>30.0</ele><time>2026-03-29T15:52:16Z</time></trkpt><trkpt lat="44.17769269800108" lon="9.867031019596945"><ele>30.0</ele><time>2026-03-29T15:52:17Z</time></trkpt><trkpt lat="44.17793099208924" lon="9.866854291441735"><ele>30.0</ele><time>2026-03-29T15:52:18Z</time></trkpt><trkpt lat="44.17817090408136" lon="9.86668099739228"><ele>30.5</ele><time>2026-03-29T15:52:19Z</time></trkpt><trkpt lat="44.17840820812773" lon="9.866508650251692"><ele>31.0</ele><time>2026-03-29T15:52:20Z</time></trkpt><trkpt lat="44.17864997939005" lon="9.866335936070353"><ele>31.0</ele><time>2026-03-29T15:52:21Z</time></trkpt><trkpt lat="44.17889088424252" lon="9.866169142661796"><ele>31.0</ele><time>2026-03-29T15:52:22Z</time></trkpt><trkpt lat="44.17913444105608" lon="9.865998320975919"><ele>33.0</ele><time>2026-03-29T15:52:23Z</time></trkpt><trkpt lat="44.179374978051214" lon="9.865827141528827"><ele>35.0</ele><time>2026-03-29T15:52:24Z</time></trkpt><trkpt lat="44.17962138177548" lon="9.865656882396715"><ele>34.0</ele><time>2026-03-29T15:52:25Z</time></trkpt><trkpt lat="44.17986249640378" lon="9.865484060741341"><ele>33.0</ele><time>2026-03-29T15:52:26Z</time></trkpt><trkpt lat="44.18010384670814" lon="9.865310679023052"><ele>33.0</ele><time>2026-03-29T15:52:27Z</time></trkpt><trkpt lat="44.1803479018524" lon="9.865137066463632"><ele>33.0</ele><time>2026-03-29T15:52:28Z</time></trkpt><trkpt lat="44.18059151059184" lon="9.864967076515713"><ele>35.5</ele><time>2026-03-29T15:52:29Z</time></trkpt><trkpt lat="44.18083591767629" lon="9.864788839140775"><ele>38.0</ele><time>2026-03-29T15:52:30Z</time></trkpt><trkpt lat="44.18108007804706" lon="9.864610583947984"><ele>38.0</ele><time>2026-03-29T15:52:31Z</time></trkpt><trkpt lat="44.181322618161495" lon="9.86444124527626"><ele>38.0</ele><time>2026-03-29T15:52:32Z</time></trkpt><trkpt lat="44.18157291699138" lon="9.864267225281242"><ele>37.0</ele><time>2026-03-29T15:52:33Z</time></trkpt><trkpt lat="44.18182324591694" lon="9.864101357094537"><ele>36.0</ele><time>2026-03-29T15:52:34Z</time></trkpt><trkpt lat="44.182078348332844" lon="9.863940602072187"><ele>36.0</ele><time>2026-03-29T15:52:35Z</time></trkpt><trkpt lat="44.18233415715606" lon="9.86378452253164"><ele>36.0</ele><time>2026-03-29T15:52:36Z</time></trkpt><trkpt lat="44.182590982768204" lon="9.863630809303476"><ele>36.0</ele><time>2026-03-29T15:52:37Z</time></trkpt><trkpt lat="44.182855304122086" lon="9.863488849543549"><ele>36.0</ele><time>2026-03-29T15:52:38Z</time></trkpt><trkpt lat="44.1831214015164" lon="9.863345802503424"><ele>41.0</ele><time>2026-03-29T15:52:39Z</time></trkpt><trkpt lat="44.18338965238803" lon="9.863210990094364"><ele>46.0</ele><time>2026-03-29T15:52:40Z</time></trkpt><trkpt lat="44.183660118476396" lon="9.863081408551475"><ele>46.0</ele><time>2026-03-29T15:52:41Z</time></trkpt><trkpt lat="44.183936082873736" lon="9.862957851111512"><ele>46.0</ele><time>2026-03-29T15:52:42Z</time></trkpt><trkpt lat="44.184210697748114" lon="9.862834799593806"><ele>49.5</ele><time>2026-03-29T15:52:43Z</time></trkpt><trkpt lat="44.184484540983476" lon="9.862711396541124"><ele>53.0</ele><time>2026-03-29T15:52:44Z</time></trkpt><trkpt lat="44.1847591555165" lon="9.86259061435626"><ele>43.5</ele><time>2026-03-29T15:52:45Z</time></trkpt><trkpt lat="44.18502237941659" lon="9.86247388985636"><ele>34.0</ele><time>2026-03-29T15:52:46Z</time></trkpt><trkpt lat="44.18527350194242" lon="9.862357382467303"><ele>34.0</ele><time>2026-03-29T15:52:47Z</time></trkpt><trkpt lat="44.185531585206455" lon="9.862246693456422"><ele>34.0</ele><time>2026-03-29T15:52:48Z</time></trkpt><trkpt lat="44.18579473038966" lon="9.862132712997417"><ele>34.5</ele><time>2026-03-29T15:52:49Z</time></trkpt><trkpt lat="44.18605752242695" lon="9.862016697081573"><ele>35.0</ele><time>2026-03-29T15:52:50Z</time></trkpt><trkpt lat="44.18631764436415" lon="9.86189995047923"><ele>34.5</ele><time>2026-03-29T15:52:51Z</time></trkpt><trkpt lat="44.18657893967916" lon="9.861782889629797"><ele>34.0</ele><time>2026-03-29T15:52:52Z</time></trkpt><trkpt lat="44.186841038815615" lon="9.86166707493542"><ele>34.0</ele><time>2026-03-29T15:52:53Z</time></trkpt><trkpt lat="44.18710582440748" lon="9.861551388509055"><ele>34.0</ele><time>2026-03-29T15:52:54Z</time></trkpt><trkpt lat="44.1873696827337" lon="9.861432776151963"><ele>34.5</ele><time>2026-03-29T15:52:55Z</time></trkpt><trkpt lat="44.18763125420483" lon="9.861315284370496"><ele>35.0</ele><time>2026-03-29T15:52:56Z</time></trkpt><trkpt lat="44.187897036559605" lon="9.861201559610997"><ele>35.0</ele><time>2026-03-29T15:52:57Z</time></trkpt><trkpt lat="44.188156659796626" lon="9.861084856190944"><ele>35.0</ele><time>2026-03-29T15:52:58Z</time></trkpt><trkpt lat="44.18841358841665" lon="9.860967555362919"><ele>36.0</ele><time>2026-03-29T15:52:59Z</time></trkpt><trkpt lat="44.18867266396768" lon="9.860850720081686"><ele>37.0</ele><time>2026-03-29T15:53:00Z</time></trkpt><trkpt lat="44.18892918714883" lon="9.860735275285867"><ele>36.0</ele><time>2026-03-29T15:53:01Z</time></trkpt><trkpt lat="44.18918433309801" lon="9.860622573807097"><ele>35.0</ele><time>2026-03-29T15:53:02Z</time></trkpt><trkpt lat="44.189436397449796" lon="9.860511193772108"><ele>35.0</ele><time>2026-03-29T15:53:03Z</time></trkpt><trkpt lat="44.189691743188774" lon="9.860392798124707"><ele>35.0</ele><time>2026-03-29T15:53:04Z</time></trkpt><trkpt lat="44.189941933298975" lon="9.860277818187315"><ele>35.5</ele><time>2026-03-29T15:53:05Z</time></trkpt><trkpt lat="44.19019662327998" lon="9.860165846687202"><ele>36.0</ele><time>2026-03-29T15:53:06Z</time></trkpt><trkpt lat="44.190447386943376" lon="9.860053401006406"><ele>37.0</ele><time>2026-03-29T15:53:07Z</time></trkpt><trkpt lat="44.190701335819305" lon="9.85994227784448"><ele>38.0</ele><time>2026-03-29T15:53:08Z</time></trkpt><trkpt lat="44.19095173846934" lon="9.859831519017442"><ele>38.0</ele><time>2026-03-29T15:53:09Z</time></trkpt><trkpt lat="44.191205033346236" lon="9.859721906925683"><ele>38.0</ele><time>2026-03-29T15:53:10Z</time></trkpt><trkpt lat="44.19145952362849" lon="9.859611196504797"><ele>38.5</ele><time>2026-03-29T15:53:11Z</time></trkpt><trkpt lat="44.191711160084715" lon="9.859497021647533"><ele>39.0</ele><time>2026-03-29T15:53:12Z</time></trkpt><trkpt lat="44.19196478755221" lon="9.859383342642802"><ele>39.0</ele><time>2026-03-29T15:53:13Z</time></trkpt><trkpt lat="44.192217248503006" lon="9.859271813673164"><ele>39.0</ele><time>2026-03-29T15:53:14Z</time></trkpt><trkpt lat="44.19246842306373" lon="9.85915990019526"><ele>39.0</ele><time>2026-03-29T15:53:15Z</time></trkpt><trkpt lat="44.192720892593265" lon="9.859047196954528"><ele>39.0</ele><time>2026-03-29T15:53:16Z</time></trkpt><trkpt lat="44.192974160571715" lon="9.858932731066137"><ele>41.0</ele><time>2026-03-29T15:53:17Z</time></trkpt><trkpt lat="44.19323048600607" lon="9.858819286874441"><ele>43.0</ele><time>2026-03-29T15:53:18Z</time></trkpt><trkpt lat="44.1934855419175" lon="9.858706764152963"><ele>43.0</ele><time>2026-03-29T15:53:19Z</time></trkpt><trkpt lat="44.19373986565245" lon="9.85859419362268"><ele>43.0</ele><time>2026-03-29T15:53:20Z</time></trkpt><trkpt lat="44.193993465347916" lon="9.858483083546876"><ele>43.5</ele><time>2026-03-29T15:53:21Z</time></trkpt><trkpt lat="44.1942534434807" lon="9.858369405071963"><ele>44.0</ele><time>2026-03-29T15:53:22Z</time></trkpt><trkpt lat="44.194513225146316" lon="9.858254782715331"><ele>44.0</ele><time>2026-03-29T15:53:23Z</time></trkpt><trkpt lat="44.1947727218213" lon="9.858135896715572"><ele>44.0</ele><time>2026-03-29T15:53:24Z</time></trkpt><trkpt lat="44.19501962426317" lon="9.858022698931233"><ele>43.0</ele><time>2026-03-29T15:53:25Z</time></trkpt><trkpt lat="44.19525403293841" lon="9.857918005131374"><ele>42.0</ele><time>2026-03-29T15:53:26Z</time></trkpt><trkpt lat="44.19548032443005" lon="9.857808508913095"><ele>43.0</ele><time>2026-03-29T15:53:27Z</time></trkpt><trkpt lat="44.195713712927606" lon="9.8576775711433"><ele>44.0</ele><time>2026-03-29T15:53:28Z</time></trkpt><trkpt lat="44.19594628221656" lon="9.85752972775841"><ele>44.0</ele><time>2026-03-29T15:53:29Z</time></trkpt><trkpt lat="44.1961667770631" lon="9.857363952360076"><ele>44.0</ele><time>2026-03-29T15:53:30Z</time></trkpt><trkpt lat="44.19638309842255" lon="9.857180609801397"><ele>45.0</ele><time>2026-03-29T15:53:31Z</time></trkpt><trkpt lat="44.19659236804307" lon="9.856980136558356"><ele>46.0</ele><time>2026-03-29T15:53:32Z</time></trkpt><trkpt lat="44.19679524172786" lon="9.856759627031735"><ele>44.0</ele><time>2026-03-29T15:53:33Z</time></trkpt><trkpt lat="44.19699563251344" lon="9.856525254625035"><ele>42.0</ele><time>2026-03-29T15:53:34Z</time></trkpt><trkpt lat="44.19718674803572" lon="9.85627846263049"><ele>42.5</ele><time>2026-03-29T15:53:35Z</time></trkpt><trkpt lat="44.19736611287369" lon="9.856014916490183"><ele>43.0</ele><time>2026-03-29T15:53:36Z</time></trkpt><trkpt lat="44.197537177661125" lon="9.85572958284481"><ele>43.0</ele><time>2026-03-29T15:53:37Z</time></trkpt><trkpt lat="44.19769817358444" lon="9.855434082463542"><ele>43.0</ele><time>2026-03-29T15:53:38Z</time></trkpt><trkpt lat="44.19784995624538" lon="9.85512581312613"><ele>43.0</ele><time>2026-03-29T15:53:39Z</time></trkpt><trkpt lat="44.197980187540075" lon="9.854824429055554"><ele>43.0</ele><time>2026-03-29T15:53:40Z</time></trkpt><trkpt lat="44.19808839066757" lon="9.854519115497274"><ele>45.0</ele><time>2026-03-29T15:53:41Z</time></trkpt><trkpt lat="44.19819321220041" lon="9.85419535585156"><ele>47.0</ele><time>2026-03-29T15:53:42Z</time></trkpt><trkpt lat="44.198290230526545" lon="9.853860537210068"><ele>47.0</ele><time>2026-03-29T15:53:43Z</time></trkpt><trkpt lat="44.198373763418374" lon="9.853516531283761"><ele>47.0</ele><time>2026-03-29T15:53:44Z</time></trkpt><trkpt lat="44.19844244238834" lon="9.85316230156891"><ele>45.0</ele><time>2026-03-29T15:53:45Z</time></trkpt><trkpt lat="44.19849718407802" lon="9.852802486311422"><ele>43.0</ele><time>2026-03-29T15:53:46Z</time></trkpt><trkpt lat="44.19854529286721" lon="9.852430539597792"><ele>42.5</ele><time>2026-03-29T15:53:47Z</time></trkpt><trkpt lat="44.19858775187827" lon="9.852055693899786"><ele>42.0</ele><time>2026-03-29T15:53:48Z</time></trkpt><trkpt lat="44.19862792419224" lon="9.851677277224907"><ele>41.0</ele><time>2026-03-29T15:53:49Z</time></trkpt><trkpt lat="44.19867146477053" lon="9.851292638815828"><ele>40.0</ele><time>2026-03-29T15:53:50Z</time></trkpt><trkpt lat="44.1987143350445" lon="9.85091062736077"><ele>38.5</ele><time>2026-03-29T15:53:51Z</time></trkpt><trkpt lat="44.198761388272594" lon="9.850523618668127"><ele>37.0</ele><time>2026-03-29T15:53:52Z</time></trkpt><trkpt lat="44.198807914690974" lon="9.850137011974745"><ele>37.5</ele><time>2026-03-29T15:53:53Z</time></trkpt><trkpt lat="44.198852437869384" lon="9.849741390127347"><ele>38.0</ele><time>2026-03-29T15:53:54Z</time></trkpt><trkpt lat="44.19889945810598" lon="9.849346751956647"><ele>38.0</ele><time>2026-03-29T15:53:55Z</time></trkpt><trkpt lat="44.19894355573108" lon="9.848978030348265"><ele>38.0</ele><time>2026-03-29T15:53:56Z</time></trkpt><trkpt lat="44.198982442606166" lon="9.848635626948283"><ele>44.5</ele><time>2026-03-29T15:53:57Z</time></trkpt><trkpt lat="44.19902609887587" lon="9.848285615442565"><ele>51.0</ele><time>2026-03-29T15:53:58Z</time></trkpt><trkpt lat="44.19906829645593" lon="9.847919287323608"><ele>50.0</ele><time>2026-03-29T15:53:59Z</time></trkpt><trkpt lat="44.199112650567855" lon="9.847540433500065"><ele>49.0</ele><time>2026-03-29T15:54:00Z</time></trkpt><trkpt lat="44.199157729496385" lon="9.847147066788148"><ele>47.5</ele><time>2026-03-29T15:54:01Z</time></trkpt><trkpt lat="44.19920221325726" lon="9.846743667000114"><ele>46.0</ele><time>2026-03-29T15:54:02Z</time></trkpt><trkpt lat="44.19924554433023" lon="9.846356620696106"><ele>46.0</ele><time>2026-03-29T15:54:03Z</time></trkpt><trkpt lat="44.199290091261" lon="9.845993176887392"><ele>46.0</ele><time>2026-03-29T15:54:04Z</time></trkpt><trkpt lat="44.199327699226245" lon="9.845658269868723"><ele>45.5</ele><time>2026-03-29T15:54:05Z</time></trkpt><trkpt lat="44.19936703929079" lon="9.845317617149073"><ele>45.0</ele><time>2026-03-29T15:54:06Z</time></trkpt><trkpt lat="44.199408404654996" lon="9.84497028725568"><ele>45.0</ele><time>2026-03-29T15:54:07Z</time></trkpt><trkpt lat="44.19944982894969" lon="9.844615969863774"><ele>45.0</ele><time>2026-03-29T15:54:08Z</time></trkpt><trkpt lat="44.199491336245586" lon="9.844253936741518"><ele>45.0</ele><time>2026-03-29T15:54:09Z</time></trkpt><trkpt lat="44.199531272744515" lon="9.84388822450238"><ele>45.0</ele><time>2026-03-29T15:54:10Z</time></trkpt><trkpt lat="44.19957207458361" lon="9.84352078398201"><ele>44.0</ele><time>2026-03-29T15:54:11Z</time></trkpt><trkpt lat="44.19961620176612" lon="9.843138065047526"><ele>43.0</ele><time>2026-03-29T15:54:12Z</time></trkpt><trkpt lat="44.199660469915884" lon="9.842756912251696"><ele>42.5</ele><time>2026-03-29T15:54:13Z</time></trkpt><trkpt lat="44.19970123871656" lon="9.842364981522355"><ele>42.0</ele><time>2026-03-29T15:54:14Z</time></trkpt><trkpt lat="44.199733081563544" lon="9.84197352165947"><ele>43.0</ele><time>2026-03-29T15:54:15Z</time></trkpt><trkpt lat="44.199758570618805" lon="9.841574827557992"><ele>44.0</ele><time>2026-03-29T15:54:16Z</time></trkpt><trkpt lat="44.19977391141388" lon="9.841166532025095"><ele>44.0</ele><time>2026-03-29T15:54:17Z</time></trkpt><trkpt lat="44.19978067992567" lon="9.840752757490437"><ele>44.0</ele><time>2026-03-29T15:54:18Z</time></trkpt><trkpt lat="44.1997804858229" lon="9.840335068052465"><ele>43.5</ele><time>2026-03-29T15:54:19Z</time></trkpt><trkpt lat="44.199779213230315" lon="9.83991133870866"><ele>43.0</ele><time>2026-03-29T15:54:20Z</time></trkpt><trkpt lat="44.199778970737704" lon="9.839483279169349"><ele>43.5</ele><time>2026-03-29T15:54:21Z</time></trkpt><trkpt lat="44.19976988827461" lon="9.839056330472385"><ele>44.0</ele><time>2026-03-29T15:54:22Z</time></trkpt><trkpt lat="44.19975256697761" lon="9.838610652592838"><ele>43.5</ele><time>2026-03-29T15:54:23Z</time></trkpt><trkpt lat="44.19972623447864" lon="9.838147323648034"><ele>43.0</ele><time>2026-03-29T15:54:24Z</time></trkpt><trkpt lat="44.199689157926656" lon="9.837671001961873"><ele>44.0</ele><time>2026-03-29T15:54:25Z</time></trkpt><trkpt lat="44.19965688365284" lon="9.837179466898796"><ele>45.0</ele><time>2026-03-29T15:54:26Z</time></trkpt><trkpt lat="44.1996278182585" lon="9.83667558039646"><ele>45.0</ele><time>2026-03-29T15:54:27Z</time></trkpt><trkpt lat="44.19959849789963" lon="9.836166322495362"><ele>45.0</ele><time>2026-03-29T15:54:28Z</time></trkpt><trkpt lat="44.19957012089581" lon="9.835652057332439"><ele>45.0</ele><time>2026-03-29T15:54:29Z</time></trkpt><trkpt lat="44.19953630948497" lon="9.835130874924424"><ele>45.0</ele><time>2026-03-29T15:54:30Z</time></trkpt><trkpt lat="44.19949867032013" lon="9.8346023502954"><ele>45.5</ele><time>2026-03-29T15:54:31Z</time></trkpt><trkpt lat="44.19947514051268" lon="9.834124808101693"><ele>46.0</ele><time>2026-03-29T15:54:32Z</time></trkpt><trkpt lat="44.19943696112474" lon="9.833667026610431"><ele>47.0</ele><time>2026-03-29T15:54:33Z</time></trkpt><trkpt lat="44.19941023075555" lon="9.833199995327625"><ele>48.0</ele><time>2026-03-29T15:54:34Z</time></trkpt><trkpt lat="44.19938004399213" lon="9.832743671159125"><ele>49.0</ele><time>2026-03-29T15:54:35Z</time></trkpt><trkpt lat="44.1993508613589" lon="9.83229083301434"><ele>50.0</ele><time>2026-03-29T15:54:36Z</time></trkpt><trkpt lat="44.19932485622045" lon="9.83183920919073"><ele>51.5</ele><time>2026-03-29T15:54:37Z</time></trkpt><trkpt lat="44.19929892145901" lon="9.831389634454801"><ele>53.0</ele><time>2026-03-29T15:54:38Z</time></trkpt><trkpt lat="44.19927250310201" lon="9.830938016916003"><ele>53.0</ele><time>2026-03-29T15:54:39Z</time></trkpt><trkpt lat="44.19924286897535" lon="9.83048586292642"><ele>53.0</ele><time>2026-03-29T15:54:40Z</time></trkpt><trkpt lat="44.19921086192482" lon="9.830049519468306"><ele>53.0</ele><time>2026-03-29T15:54:41Z</time></trkpt><trkpt lat="44.199182280289186" lon="9.82960350499629"><ele>53.0</ele><time>2026-03-29T15:54:42Z</time></trkpt><trkpt lat="44.19915232766002" lon="9.82915811593296"><ele>53.5</ele><time>2026-03-29T15:54:43Z</time></trkpt><trkpt lat="44.19912367536074" lon="9.828712050115177"><ele>54.0</ele><time>2026-03-29T15:54:44Z</time></trkpt><trkpt lat="44.19909549128949" lon="9.828266600548805"><ele>54.5</ele><time>2026-03-29T15:54:45Z</time></trkpt><trkpt lat="44.199066921769514" lon="9.827823808436772"><ele>55.0</ele><time>2026-03-29T15:54:46Z</time></trkpt><trkpt lat="44.19903974354235" lon="9.82738058391715"><ele>54.0</ele><time>2026-03-29T15:54:47Z</time></trkpt><trkpt lat="44.19901246720134" lon="9.826936316992368"><ele>53.0</ele><time>2026-03-29T15:54:48Z</time></trkpt><trkpt lat="44.19898349948995" lon="9.826495392990163"><ele>53.0</ele><time>2026-03-29T15:54:49Z</time></trkpt><trkpt lat="44.198955582854694" lon="9.82605356770345"><ele>53.0</ele><time>2026-03-29T15:54:50Z</time></trkpt><trkpt lat="44.19892835370805" lon="9.825611539179006"><ele>52.0</ele><time>2026-03-29T15:54:51Z</time></trkpt><trkpt lat="44.19889919658414" lon="9.82516989450786"><ele>51.0</ele><time>2026-03-29T15:54:52Z</time></trkpt><trkpt lat="44.19887124141217" lon="9.824729749085298"><ele>50.5</ele><time>2026-03-29T15:54:53Z</time></trkpt><trkpt lat="44.19883961971992" lon="9.824282431111422"><ele>50.0</ele><time>2026-03-29T15:54:54Z</time></trkpt><trkpt lat="44.198810614193796" lon="9.823827299619243"><ele>50.0</ele><time>2026-03-29T15:54:55Z</time></trkpt><trkpt lat="44.1987792341393" lon="9.823368235505509"><ele>50.0</ele><time>2026-03-29T15:54:56Z</time></trkpt><trkpt lat="44.19874868342024" lon="9.822907200846924"><ele>51.0</ele><time>2026-03-29T15:54:57Z</time></trkpt><trkpt lat="44.19871933387375" lon="9.822444558090323"><ele>52.0</ele><time>2026-03-29T15:54:58Z</time></trkpt><trkpt lat="44.19868764301642" lon="9.82197796919393"><ele>51.5</ele><time>2026-03-29T15:54:59Z</time></trkpt><trkpt lat="44.19865885643347" lon="9.821512924545436"><ele>51.0</ele><time>2026-03-29T15:55:00Z</time></trkpt><trkpt lat="44.198631963865985" lon="9.821044375291343"><ele>51.5</ele><time>2026-03-29T15:55:01Z</time></trkpt><trkpt lat="44.19859979187105" lon="9.820576052454863"><ele>52.0</ele><time>2026-03-29T15:55:02Z</time></trkpt><trkpt lat="44.19857303305922" lon="9.820107996437672"><ele>53.5</ele><time>2026-03-29T15:55:03Z</time></trkpt><trkpt lat="44.19854666595944" lon="9.81963752629528"><ele>55.0</ele><time>2026-03-29T15:55:04Z</time></trkpt><trkpt lat="44.1985168100223" lon="9.819166890242254"><ele>54.5</ele><time>2026-03-29T15:55:05Z</time></trkpt><trkpt lat="44.19848645726943" lon="9.818690421574347"><ele>54.0</ele><time>2026-03-29T15:55:06Z</time></trkpt><trkpt lat="44.19846449732561" lon="9.818227578092442"><ele>54.0</ele><time>2026-03-29T15:55:07Z</time></trkpt><trkpt lat="44.19843780817963" lon="9.817812311543353"><ele>54.0</ele><time>2026-03-29T15:55:08Z</time></trkpt><trkpt lat="44.198409624118405" lon="9.817403919196622"><ele>53.5</ele><time>2026-03-29T15:55:09Z</time></trkpt><trkpt lat="44.198386191205174" lon="9.816997033528418"><ele>53.0</ele><time>2026-03-29T15:55:10Z</time></trkpt><trkpt lat="44.19835996385673" lon="9.816587642101736"><ele>53.0</ele><time>2026-03-29T15:55:11Z</time></trkpt><trkpt lat="44.19834129711359" lon="9.816187614380897"><ele>53.0</ele><time>2026-03-29T15:55:12Z</time></trkpt><trkpt lat="44.19832240800282" lon="9.815812371647887"><ele>52.5</ele><time>2026-03-29T15:55:13Z</time></trkpt><trkpt lat="44.19830101220428" lon="9.815430194265245"><ele>52.0</ele><time>2026-03-29T15:55:14Z</time></trkpt><trkpt lat="44.198278007157455" lon="9.815040501875355"><ele>51.5</ele><time>2026-03-29T15:55:15Z</time></trkpt><trkpt lat="44.19826076989147" lon="9.814641661071823"><ele>51.0</ele><time>2026-03-29T15:55:16Z</time></trkpt><trkpt lat="44.19824847048448" lon="9.814243862527439"><ele>51.0</ele><time>2026-03-29T15:55:17Z</time></trkpt><trkpt lat="44.19825182010313" lon="9.813846368046228"><ele>51.0</ele><time>2026-03-29T15:55:18Z</time></trkpt><trkpt lat="44.19827481956561" lon="9.813462439618487"><ele>51.5</ele><time>2026-03-29T15:55:19Z</time></trkpt><trkpt lat="44.19831516452994" lon="9.813108301659444"><ele>52.0</ele><time>2026-03-29T15:55:20Z</time></trkpt><trkpt lat="44.19837354251216" lon="9.812758962821063"><ele>53.0</ele><time>2026-03-29T15:55:21Z</time></trkpt><trkpt lat="44.198449938324316" lon="9.812408394246056"><ele>54.0</ele><time>2026-03-29T15:55:22Z</time></trkpt><trkpt lat="44.19853989594962" lon="9.812057636173337"><ele>54.0</ele><time>2026-03-29T15:55:23Z</time></trkpt><trkpt lat="44.198636407088365" lon="9.811737506963583"><ele>54.0</ele><time>2026-03-29T15:55:24Z</time></trkpt><trkpt lat="44.19873716384688" lon="9.811445290818833"><ele>54.0</ele><time>2026-03-29T15:55:25Z</time></trkpt><trkpt lat="44.19885157139419" lon="9.811150653986097"><ele>54.0</ele><time>2026-03-29T15:55:26Z</time></trkpt><trkpt lat="44.19898030140564" lon="9.810851766415555"><ele>55.5</ele><time>2026-03-29T15:55:27Z</time></trkpt><trkpt lat="44.19912448162318" lon="9.810551812230866"><ele>57.0</ele><time>2026-03-29T15:55:28Z</time></trkpt><trkpt lat="44.19927622365887" lon="9.81025342048247"><ele>57.5</ele><time>2026-03-29T15:55:29Z</time></trkpt><trkpt lat="44.199434166302375" lon="9.80994473253481"><ele>58.0</ele><time>2026-03-29T15:55:30Z</time></trkpt><trkpt lat="44.19959093929034" lon="9.809621404459772"><ele>57.0</ele><time>2026-03-29T15:55:31Z</time></trkpt><trkpt lat="44.19975794304985" lon="9.809281054475083"><ele>56.0</ele><time>2026-03-29T15:55:32Z</time></trkpt><trkpt lat="44.19992943387444" lon="9.808935227504014"><ele>56.5</ele><time>2026-03-29T15:55:33Z</time></trkpt><trkpt lat="44.200101547246874" lon="9.808604033314566"><ele>57.0</ele><time>2026-03-29T15:55:34Z</time></trkpt><trkpt lat="44.20025268780453" lon="9.808284395291908"><ele>57.0</ele><time>2026-03-29T15:55:35Z</time></trkpt><trkpt lat="44.20040347146887" lon="9.807983100626194"><ele>57.0</ele><time>2026-03-29T15:55:36Z</time></trkpt><trkpt lat="44.20055977608525" lon="9.807681935279136"><ele>61.0</ele><time>2026-03-29T15:55:37Z</time></trkpt><trkpt lat="44.200710925126515" lon="9.807371621027317"><ele>65.0</ele><time>2026-03-29T15:55:38Z</time></trkpt><trkpt lat="44.20086106671628" lon="9.80706582792791"><ele>61.5</ele><time>2026-03-29T15:55:39Z</time></trkpt><trkpt lat="44.201012689587785" lon="9.806753364895288"><ele>58.0</ele><time>2026-03-29T15:55:40Z</time></trkpt><trkpt lat="44.201164583900216" lon="9.806442944049254"><ele>58.0</ele><time>2026-03-29T15:55:41Z</time></trkpt><trkpt lat="44.201315532478" lon="9.806131395187489"><ele>58.0</ele><time>2026-03-29T15:55:42Z</time></trkpt><trkpt lat="44.201468572254676" lon="9.805820463238998"><ele>59.5</ele><time>2026-03-29T15:55:43Z</time></trkpt><trkpt lat="44.201612896565294" lon="9.80552664672238"><ele>61.0</ele><time>2026-03-29T15:55:44Z</time></trkpt><trkpt lat="44.20175954777631" lon="9.805234855055572"><ele>59.5</ele><time>2026-03-29T15:55:45Z</time></trkpt><trkpt lat="44.20190817638321" lon="9.804942122134635"><ele>58.0</ele><time>2026-03-29T15:55:46Z</time></trkpt><trkpt lat="44.20205754616877" lon="9.804648933634324"><ele>58.0</ele><time>2026-03-29T15:55:47Z</time></trkpt><trkpt lat="44.20220438348657" lon="9.804352483684013"><ele>58.0</ele><time>2026-03-29T15:55:48Z</time></trkpt><trkpt lat="44.20235304615934" lon="9.8040508608263"><ele>58.5</ele><time>2026-03-29T15:55:49Z</time></trkpt><trkpt lat="44.20250466973581" lon="9.803746286157745"><ele>59.0</ele><time>2026-03-29T15:55:50Z</time></trkpt><trkpt lat="44.20265406449827" lon="9.80344091038908"><ele>57.5</ele><time>2026-03-29T15:55:51Z</time></trkpt><trkpt lat="44.20280258037697" lon="9.803137214678332"><ele>56.0</ele><time>2026-03-29T15:55:52Z</time></trkpt><trkpt lat="44.20295667403494" lon="9.802833990620316"><ele>55.5</ele><time>2026-03-29T15:55:53Z</time></trkpt><trkpt lat="44.20310727172545" lon="9.80252794545633"><ele>55.0</ele><time>2026-03-29T15:55:54Z</time></trkpt><trkpt lat="44.20325760959046" lon="9.802220508376962"><ele>54.5</ele><time>2026-03-29T15:55:55Z</time></trkpt><trkpt lat="44.20340939555916" lon="9.801910541504448"><ele>54.0</ele><time>2026-03-29T15:55:56Z</time></trkpt><trkpt lat="44.20356258806219" lon="9.80159998210235"><ele>54.0</ele><time>2026-03-29T15:55:57Z</time></trkpt><trkpt lat="44.203715594048" lon="9.801292922078938"><ele>54.0</ele><time>2026-03-29T15:55:58Z</time></trkpt><trkpt lat="44.20387161999439" lon="9.800981435745813"><ele>54.5</ele><time>2026-03-29T15:55:59Z</time></trkpt><trkpt lat="44.20402879043049" lon="9.800672197801676"><ele>55.0</ele><time>2026-03-29T15:56:00Z</time></trkpt><trkpt lat="44.20418738485725" lon="9.800364919707489"><ele>54.0</ele><time>2026-03-29T15:56:01Z</time></trkpt><trkpt lat="44.204336075900564" lon="9.800071654419636"><ele>53.0</ele><time>2026-03-29T15:56:02Z</time></trkpt><trkpt lat="44.20447052958119" lon="9.799783875185394"><ele>53.0</ele><time>2026-03-29T15:56:03Z</time></trkpt><trkpt lat="44.20460550084232" lon="9.79949195525695"><ele>53.0</ele><time>2026-03-29T15:56:04Z</time></trkpt><trkpt lat="44.20473480803841" lon="9.799203162941582"><ele>54.5</ele><time>2026-03-29T15:56:05Z</time></trkpt><trkpt lat="44.20485187865142" lon="9.798927012409685"><ele>56.0</ele><time>2026-03-29T15:56:06Z</time></trkpt><trkpt lat="44.20495532853443" lon="9.798654222392052"><ele>56.0</ele><time>2026-03-29T15:56:07Z</time></trkpt><trkpt lat="44.20504964020607" lon="9.798369005738607"><ele>56.0</ele><time>2026-03-29T15:56:08Z</time></trkpt><trkpt lat="44.20513381716745" lon="9.79807478436225"><ele>56.0</ele><time>2026-03-29T15:56:09Z</time></trkpt><trkpt lat="44.20520885498927" lon="9.797773426626573"><ele>56.0</ele><time>2026-03-29T15:56:10Z</time></trkpt><trkpt lat="44.20527180439923" lon="9.797460002680106"><ele>56.0</ele><time>2026-03-29T15:56:11Z</time></trkpt><trkpt lat="44.20532257140029" lon="9.797126950509192"><ele>56.0</ele><time>2026-03-29T15:56:12Z</time></trkpt><trkpt lat="44.205361322285775" lon="9.7968119815373"><ele>56.5</ele><time>2026-03-29T15:56:13Z</time></trkpt><trkpt lat="44.20538771920628" lon="9.796485748517659"><ele>57.0</ele><time>2026-03-29T15:56:14Z</time></trkpt><trkpt lat="44.20540028758499" lon="9.796148121719716"><ele>57.0</ele><time>2026-03-29T15:56:15Z</time></trkpt><trkpt lat="44.205412409575565" lon="9.795804926104502"><ele>57.0</ele><time>2026-03-29T15:56:16Z</time></trkpt><trkpt lat="44.205420068873146" lon="9.795446268378093"><ele>56.5</ele><time>2026-03-29T15:56:17Z</time></trkpt><trkpt lat="44.20543131918593" lon="9.795084737380913"><ele>56.0</ele><time>2026-03-29T15:56:18Z</time></trkpt><trkpt lat="44.20544166315158" lon="9.79471692195615"><ele>56.0</ele><time>2026-03-29T15:56:19Z</time></trkpt><trkpt lat="44.20545251801253" lon="9.794340160879587"><ele>56.0</ele><time>2026-03-29T15:56:20Z</time></trkpt><trkpt lat="44.205467134080735" lon="9.793955759362435"><ele>56.0</ele><time>2026-03-29T15:56:21.001Z</time></trkpt><trkpt lat="44.20548217216984" lon="9.793564503468366"><ele>56.0</ele><time>2026-03-29T15:56:22.001Z</time></trkpt><trkpt lat="44.205495402560395" lon="9.793188179968766"><ele>56.0</ele><time>2026-03-29T15:56:23.001Z</time></trkpt><trkpt lat="44.205509331238225" lon="9.79283591590995"><ele>56.0</ele><time>2026-03-29T15:56:24.001Z</time></trkpt><trkpt lat="44.20552529150956" lon="9.792478333807166"><ele>57.0</ele><time>2026-03-29T15:56:25.001Z</time></trkpt><trkpt lat="44.205540779172395" lon="9.792114050937881"><ele>58.0</ele><time>2026-03-29T15:56:26.001Z</time></trkpt><trkpt lat="44.20555626856754" lon="9.791749092268503"><ele>58.5</ele><time>2026-03-29T15:56:27.001Z</time></trkpt><trkpt lat="44.20557134948114" lon="9.791382583460557"><ele>59.0</ele><time>2026-03-29T15:56:28.001Z</time></trkpt><trkpt lat="44.20559044492201" lon="9.791012383023267"><ele>60.0</ele><time>2026-03-29T15:56:29.001Z</time></trkpt><trkpt lat="44.2056094777029" lon="9.790643274039903"><ele>61.0</ele><time>2026-03-29T15:56:30.001Z</time></trkpt><trkpt lat="44.20562586239779" lon="9.790277306575925"><ele>62.5</ele><time>2026-03-29T15:56:31.001Z</time></trkpt><trkpt lat="44.20564115409086" lon="9.789906776702198"><ele>64.0</ele><time>2026-03-29T15:56:32.001Z</time></trkpt><trkpt lat="44.20565685100904" lon="9.78953461388232"><ele>66.0</ele><time>2026-03-29T15:56:33.001Z</time></trkpt><trkpt lat="44.205671314062535" lon="9.789163005036723"><ele>68.0</ele><time>2026-03-29T15:56:34.001Z</time></trkpt><trkpt lat="44.20568624610635" lon="9.788793095579054"><ele>67.5</ele><time>2026-03-29T15:56:35.001Z</time></trkpt><trkpt lat="44.20570193592596" lon="9.7884194406133"><ele>67.0</ele><time>2026-03-29T15:56:36.001Z</time></trkpt><trkpt lat="44.205719358824396" lon="9.788047357847839"><ele>68.0</ele><time>2026-03-29T15:56:37.001Z</time></trkpt><trkpt lat="44.205733825822946" lon="9.787674074283677"><ele>69.0</ele><time>2026-03-29T15:56:38.001Z</time></trkpt><trkpt lat="44.20574837878634" lon="9.787297842206797"><ele>69.0</ele><time>2026-03-29T15:56:39.001Z</time></trkpt><trkpt lat="44.20576194886123" lon="9.786920015282785"><ele>69.0</ele><time>2026-03-29T15:56:40.001Z</time></trkpt><trkpt lat="44.20577720561275" lon="9.786544302409949"><ele>70.0</ele><time>2026-03-29T15:56:41.001Z</time></trkpt><trkpt lat="44.20579170255073" lon="9.786169138059456"><ele>71.0</ele><time>2026-03-29T15:56:42.001Z</time></trkpt><trkpt lat="44.2058075485271" lon="9.785792694668135"><ele>71.5</ele><time>2026-03-29T15:56:43.001Z</time></trkpt><trkpt lat="44.20582194187185" lon="9.785416599482454"><ele>72.0</ele><time>2026-03-29T15:56:44Z</time></trkpt><trkpt lat="44.2058375925098" lon="9.785042446922375"><ele>73.5</ele><time>2026-03-29T15:56:45Z</time></trkpt><trkpt lat="44.205858721648475" lon="9.784665269760245"><ele>75.0</ele><time>2026-03-29T15:56:46Z</time></trkpt><trkpt lat="44.205884139442254" lon="9.784287216544628"><ele>76.5</ele><time>2026-03-29T15:56:47Z</time></trkpt><trkpt lat="44.20591673547873" lon="9.783919486243189"><ele>78.0</ele><time>2026-03-29T15:56:48Z</time></trkpt><trkpt lat="44.20595138084144" lon="9.783557393194151"><ele>80.0</ele><time>2026-03-29T15:56:49Z</time></trkpt><trkpt lat="44.20598803048297" lon="9.783188860895871"><ele>82.0</ele><time>2026-03-29T15:56:50Z</time></trkpt><trkpt lat="44.20603029128302" lon="9.782820429567755"><ele>84.5</ele><time>2026-03-29T15:56:51Z</time></trkpt><trkpt lat="44.20607617899904" lon="9.782454467573052"><ele>87.0</ele><time>2026-03-29T15:56:52Z</time></trkpt><trkpt lat="44.20612882667285" lon="9.782090709306656"><ele>93.0</ele><time>2026-03-29T15:56:53Z</time></trkpt><trkpt lat="44.206190850903056" lon="9.781731700117085"><ele>99.0</ele><time>2026-03-29T15:56:54Z</time></trkpt><trkpt lat="44.206250554324114" lon="9.781369170098253"><ele>108.0</ele><time>2026-03-29T15:56:55Z</time></trkpt><trkpt lat="44.206313583575046" lon="9.781013494529452"><ele>117.0</ele><time>2026-03-29T15:56:56Z</time></trkpt><trkpt lat="44.20637488855676" lon="9.780654420171757"><ele>117.0</ele><time>2026-03-29T15:56:57Z</time></trkpt><trkpt lat="44.206446441899715" lon="9.780293587049567"><ele>117.0</ele><time>2026-03-29T15:56:58Z</time></trkpt><trkpt lat="44.20651864976715" lon="9.77991966216156"><ele>132.0</ele><time>2026-03-29T15:56:59.021Z</time></trkpt><trkpt lat="44.20658863633152" lon="9.779551973018314"><ele>147.0</ele><time>2026-03-29T15:57:00.017Z</time></trkpt><trkpt lat="44.20665725584717" lon="9.779151545415568"><ele>162.5</ele><time>2026-03-29T15:57:01.017Z</time></trkpt><trkpt lat="44.206726338518365" lon="9.778790308785394"><ele>178.0</ele><time>2026-03-29T15:57:02.019Z</time></trkpt><trkpt lat="44.21413786247765" lon="9.765763012701427"><ele>146.0</ele><time>2026-03-29T15:57:44Z</time></trkpt><trkpt lat="44.21433471903256" lon="9.76546836915453"><ele>114.0</ele><time>2026-03-29T15:57:45Z</time></trkpt><trkpt lat="44.21449970830427" lon="9.765136158106499"><ele>119.5</ele><time>2026-03-29T15:57:46Z</time></trkpt><trkpt lat="44.21468982795962" lon="9.764849406352408"><ele>125.0</ele><time>2026-03-29T15:57:47Z</time></trkpt><trkpt lat="44.21488598423966" lon="9.764566166850981"><ele>112.5</ele><time>2026-03-29T15:57:48Z</time></trkpt><trkpt lat="44.21507908155426" lon="9.76428253636862"><ele>100.0</ele><time>2026-03-29T15:57:49Z</time></trkpt><trkpt lat="44.21526950820748" lon="9.763997270459706"><ele>100.0</ele><time>2026-03-29T15:57:50Z</time></trkpt><trkpt lat="44.21545958855615" lon="9.763706822805368"><ele>100.0</ele><time>2026-03-29T15:57:51Z</time></trkpt><trkpt lat="44.215647385323976" lon="9.763419163016257"><ele>108.0</ele><time>2026-03-29T15:57:52Z</time></trkpt><trkpt lat="44.215839775708496" lon="9.76313357562756"><ele>116.0</ele><time>2026-03-29T15:57:53Z</time></trkpt><trkpt lat="44.21603285059576" lon="9.762843564859436"><ele>118.5</ele><time>2026-03-29T15:57:54Z</time></trkpt><trkpt lat="44.216229949506996" lon="9.762542066194369"><ele>121.0</ele><time>2026-03-29T15:57:55Z</time></trkpt><trkpt lat="44.21643971867205" lon="9.762233337176344"><ele>149.5</ele><time>2026-03-29T15:57:56.019Z</time></trkpt><trkpt lat="44.21663751415388" lon="9.761931339562578"><ele>178.0</ele><time>2026-03-29T15:57:57.016Z</time></trkpt><trkpt lat="44.21683360278976" lon="9.761630507798223"><ele>184.0</ele><time>2026-03-29T15:57:58.015Z</time></trkpt><trkpt lat="44.2170269827769" lon="9.761328503656179"><ele>190.0</ele><time>2026-03-29T15:57:59.019Z</time></trkpt><trkpt lat="44.21899695454531" lon="9.758322853916404"><ele>105.0</ele><time>2026-03-29T15:58:03.126Z</time></trkpt><trkpt lat="44.21964121055251" lon="9.757404411220696"><ele>105.5</ele><time>2026-03-29T15:58:11Z</time></trkpt><trkpt lat="44.2198617092637" lon="9.75707435018822"><ele>106.0</ele><time>2026-03-29T15:58:12Z</time></trkpt><trkpt lat="44.2200666662099" lon="9.75674100398988"><ele>100.0</ele><time>2026-03-29T15:58:13Z</time></trkpt><trkpt lat="44.22029196925232" lon="9.756428974769639"><ele>94.0</ele><time>2026-03-29T15:58:14Z</time></trkpt><trkpt lat="44.22052511318216" lon="9.75612525271467"><ele>91.5</ele><time>2026-03-29T15:58:15Z</time></trkpt><trkpt lat="44.220768336669565" lon="9.755838949184758"><ele>89.0</ele><time>2026-03-29T15:58:16Z</time></trkpt><trkpt lat="44.22101277984446" lon="9.755556690107957"><ele>89.0</ele><time>2026-03-29T15:58:17Z</time></trkpt><trkpt lat="44.22125955224347" lon="9.755294623818042"><ele>89.0</ele><time>2026-03-29T15:58:18Z</time></trkpt><trkpt lat="44.221500472454906" lon="9.755022951211844"><ele>86.0</ele><time>2026-03-29T15:58:19Z</time></trkpt><trkpt lat="44.22173963216961" lon="9.754753893069466"><ele>83.0</ele><time>2026-03-29T15:58:20Z</time></trkpt><trkpt lat="44.22197265919123" lon="9.75448452246143"><ele>86.5</ele><time>2026-03-29T15:58:21Z</time></trkpt><trkpt lat="44.22220834550686" lon="9.75421550849225"><ele>90.0</ele><time>2026-03-29T15:58:22Z</time></trkpt><trkpt lat="44.2224387452399" lon="9.75394665577187"><ele>90.0</ele><time>2026-03-29T15:58:23Z</time></trkpt><trkpt lat="44.22265281847848" lon="9.75368865992787"><ele>90.0</ele><time>2026-03-29T15:58:24Z</time></trkpt><trkpt lat="44.22284826573428" lon="9.75343754104443"><ele>88.5</ele><time>2026-03-29T15:58:25Z</time></trkpt><trkpt lat="44.22303790233957" lon="9.753161695717703"><ele>87.0</ele><time>2026-03-29T15:58:26Z</time></trkpt><trkpt lat="44.223216897226266" lon="9.752867631477299"><ele>89.0</ele><time>2026-03-29T15:58:27.001Z</time></trkpt><trkpt lat="44.22338697437722" lon="9.752559123509466"><ele>91.0</ele><time>2026-03-29T15:58:28.001Z</time></trkpt><trkpt lat="44.22354825427719" lon="9.752239946306322"><ele>91.0</ele><time>2026-03-29T15:58:29.001Z</time></trkpt><trkpt lat="44.223698731867906" lon="9.75190963357122"><ele>91.0</ele><time>2026-03-29T15:58:30.001Z</time></trkpt><trkpt lat="44.22383492918333" lon="9.751567869759757"><ele>89.0</ele><time>2026-03-29T15:58:31.001Z</time></trkpt><trkpt lat="44.22394391608907" lon="9.75123936591737"><ele>87.0</ele><time>2026-03-29T15:58:32.001Z</time></trkpt><trkpt lat="44.224043664901004" lon="9.750926441671323"><ele>87.0</ele><time>2026-03-29T15:58:33.001Z</time></trkpt><trkpt lat="44.22413818591747" lon="9.750598174841295"><ele>87.0</ele><time>2026-03-29T15:58:34.001Z</time></trkpt><trkpt lat="44.224226677125756" lon="9.750257041617795"><ele>88.5</ele><time>2026-03-29T15:58:35.001Z</time></trkpt><trkpt lat="44.224301273202684" lon="9.74990720035717"><ele>90.0</ele><time>2026-03-29T15:58:36.001Z</time></trkpt><trkpt lat="44.224365418829755" lon="9.749541328442996"><ele>89.5</ele><time>2026-03-29T15:58:37.001Z</time></trkpt><trkpt lat="44.224430857654106" lon="9.749159962096993"><ele>89.0</ele><time>2026-03-29T15:58:38.001Z</time></trkpt><trkpt lat="44.22449893322892" lon="9.748770736878278"><ele>89.0</ele><time>2026-03-29T15:58:39.001Z</time></trkpt><trkpt lat="44.224570515763936" lon="9.748373334794795"><ele>89.0</ele><time>2026-03-29T15:58:40.001Z</time></trkpt><trkpt lat="44.22464604918096" lon="9.747967601999925"><ele>89.0</ele><time>2026-03-29T15:58:41.001Z</time></trkpt><trkpt lat="44.22472180262104" lon="9.747559901916292"><ele>89.0</ele><time>2026-03-29T15:58:42.001Z</time></trkpt><trkpt lat="44.224796366319595" lon="9.747149735097"><ele>87.5</ele><time>2026-03-29T15:58:43.001Z</time></trkpt><trkpt lat="44.22486893300121" lon="9.746750969911393"><ele>86.0</ele><time>2026-03-29T15:58:44.001Z</time></trkpt><trkpt lat="44.22493554874834" lon="9.746387743535372"><ele>87.5</ele><time>2026-03-29T15:58:45.001Z</time></trkpt><trkpt lat="44.224997755321375" lon="9.746039795906555"><ele>89.0</ele><time>2026-03-29T15:58:46.001Z</time></trkpt><trkpt lat="44.2250529009466" lon="9.745692023076641"><ele>89.0</ele><time>2026-03-29T15:58:47.001Z</time></trkpt><trkpt lat="44.22509516833836" lon="9.745337189088362"><ele>89.0</ele><time>2026-03-29T15:58:48.001Z</time></trkpt><trkpt lat="44.22512195100802" lon="9.744976630371479"><ele>89.0</ele><time>2026-03-29T15:58:49.001Z</time></trkpt><trkpt lat="44.225135406870606" lon="9.744611161971912"><ele>89.0</ele><time>2026-03-29T15:58:50Z</time></trkpt><trkpt lat="44.22513536309114" lon="9.744246588720026"><ele>89.0</ele><time>2026-03-29T15:58:51Z</time></trkpt><trkpt lat="44.22512186061483" lon="9.743883968597936"><ele>89.0</ele><time>2026-03-29T15:58:52Z</time></trkpt><trkpt lat="44.22509441511104" lon="9.743518444629526"><ele>88.5</ele><time>2026-03-29T15:58:53Z</time></trkpt><trkpt lat="44.22505063667966" lon="9.743157053800019"><ele>88.0</ele><time>2026-03-29T15:58:54Z</time></trkpt><trkpt lat="44.224995398397276" lon="9.742798600424956"><ele>90.0</ele><time>2026-03-29T15:58:55Z</time></trkpt><trkpt lat="44.224925696914475" lon="9.742445826705605"><ele>92.0</ele><time>2026-03-29T15:58:56Z</time></trkpt><trkpt lat="44.224843924546704" lon="9.742094816295769"><ele>90.5</ele><time>2026-03-29T15:58:57Z</time></trkpt><trkpt lat="44.22475569444071" lon="9.741745244899443"><ele>89.0</ele><time>2026-03-29T15:58:58Z</time></trkpt><trkpt lat="44.22466896404111" lon="9.74139363850782"><ele>89.5</ele><time>2026-03-29T15:58:59Z</time></trkpt><trkpt lat="44.22458460130869" lon="9.741034434280463"><ele>90.0</ele><time>2026-03-29T15:59:00Z</time></trkpt><trkpt lat="44.2245023737129" lon="9.740673400589634"><ele>90.0</ele><time>2026-03-29T15:59:01Z</time></trkpt><trkpt lat="44.224419367138296" lon="9.740310754067458"><ele>90.0</ele><time>2026-03-29T15:59:02Z</time></trkpt><trkpt lat="44.22433215172179" lon="9.739946114913494"><ele>90.5</ele><time>2026-03-29T15:59:03Z</time></trkpt><trkpt lat="44.22424615514887" lon="9.739580023725146"><ele>91.0</ele><time>2026-03-29T15:59:04Z</time></trkpt><trkpt lat="44.22416326295745" lon="9.739215190121755"><ele>91.0</ele><time>2026-03-29T15:59:05Z</time></trkpt><trkpt lat="44.22409256365099" lon="9.738865027905687"><ele>91.0</ele><time>2026-03-29T15:59:06Z</time></trkpt><trkpt lat="44.22403859938486" lon="9.738534700786765"><ele>91.5</ele><time>2026-03-29T15:59:07Z</time></trkpt><trkpt lat="44.22399990727321" lon="9.738194394182601"><ele>92.0</ele><time>2026-03-29T15:59:08Z</time></trkpt><trkpt lat="44.2239732398736" lon="9.737840588318196"><ele>91.0</ele><time>2026-03-29T15:59:09Z</time></trkpt><trkpt lat="44.22396295972578" lon="9.737485022905869"><ele>90.0</ele><time>2026-03-29T15:59:10Z</time></trkpt><trkpt lat="44.22396111312381" lon="9.737126080106714"><ele>90.5</ele><time>2026-03-29T15:59:11Z</time></trkpt><trkpt lat="44.22397110459469" lon="9.736762703767102"><ele>91.0</ele><time>2026-03-29T15:59:12Z</time></trkpt><trkpt lat="44.22399811330455" lon="9.73639938534813"><ele>96.0</ele><time>2026-03-29T15:59:13Z</time></trkpt><trkpt lat="44.22403978507249" lon="9.736032992672149"><ele>101.0</ele><time>2026-03-29T15:59:14Z</time></trkpt><trkpt lat="44.22409413575471" lon="9.735684571668969"><ele>101.0</ele><time>2026-03-29T15:59:15Z</time></trkpt><trkpt lat="44.224158690090114" lon="9.735372235341178"><ele>101.0</ele><time>2026-03-29T15:59:16Z</time></trkpt><trkpt lat="44.22423581913508" lon="9.735069894201851"><ele>100.5</ele><time>2026-03-29T15:59:17Z</time></trkpt><trkpt lat="44.22432571312539" lon="9.734764231492756"><ele>100.0</ele><time>2026-03-29T15:59:18Z</time></trkpt><trkpt lat="44.22443050983244" lon="9.734452027586762"><ele>99.0</ele><time>2026-03-29T15:59:19Z</time></trkpt><trkpt lat="44.22454582131836" lon="9.734148915559867"><ele>98.0</ele><time>2026-03-29T15:59:20Z</time></trkpt><trkpt lat="44.22467108367317" lon="9.733847680578487"><ele>100.0</ele><time>2026-03-29T15:59:21Z</time></trkpt><trkpt lat="44.224812952829765" lon="9.73355163410636"><ele>102.0</ele><time>2026-03-29T15:59:22Z</time></trkpt><trkpt lat="44.2249643538012" lon="9.73326696041561"><ele>102.0</ele><time>2026-03-29T15:59:23Z</time></trkpt><trkpt lat="44.22512418448052" lon="9.732986818433579"><ele>102.0</ele><time>2026-03-29T15:59:24Z</time></trkpt><trkpt lat="44.22528964583293" lon="9.732710032849988"><ele>101.0</ele><time>2026-03-29T15:59:25Z</time></trkpt><trkpt lat="44.22545600119006" lon="9.732427451371702"><ele>100.0</ele><time>2026-03-29T15:59:26Z</time></trkpt><trkpt lat="44.225619029054606" lon="9.732140594138404"><ele>101.5</ele><time>2026-03-29T15:59:27Z</time></trkpt><trkpt lat="44.22578062372181" lon="9.731847076400358"><ele>103.0</ele><time>2026-03-29T15:59:28Z</time></trkpt><trkpt lat="44.22594553029508" lon="9.731553011543959"><ele>103.0</ele><time>2026-03-29T15:59:29Z</time></trkpt><trkpt lat="44.226115689699036" lon="9.731259558814754"><ele>103.0</ele><time>2026-03-29T15:59:30Z</time></trkpt><trkpt lat="44.22645504704186" lon="9.730666753990846"><ele>105.0</ele><time>2026-03-29T15:59:32Z</time></trkpt><trkpt lat="44.22662021356243" lon="9.730365570779671"><ele>107.0</ele><time>2026-03-29T15:59:33Z</time></trkpt><trkpt lat="44.226787123256756" lon="9.730068259177347"><ele>107.0</ele><time>2026-03-29T15:59:34Z</time></trkpt><trkpt lat="44.226953869220566" lon="9.72976618246489"><ele>107.0</ele><time>2026-03-29T15:59:35Z</time></trkpt><trkpt lat="44.22712407074686" lon="9.729465498562506"><ele>105.5</ele><time>2026-03-29T15:59:36Z</time></trkpt><trkpt lat="44.22729341482439" lon="9.729163980195535"><ele>104.0</ele><time>2026-03-29T15:59:37Z</time></trkpt><trkpt lat="44.22745987157346" lon="9.728867324236482"><ele>103.5</ele><time>2026-03-29T15:59:38Z</time></trkpt><trkpt lat="44.22763091661454" lon="9.728571739682572"><ele>103.0</ele><time>2026-03-29T15:59:39Z</time></trkpt><trkpt lat="44.22780512878444" lon="9.728274509377158"><ele>102.5</ele><time>2026-03-29T15:59:40Z</time></trkpt><trkpt lat="44.227977694042515" lon="9.727975931251361"><ele>102.0</ele><time>2026-03-29T15:59:41Z</time></trkpt><trkpt lat="44.228148681574716" lon="9.727673999039371"><ele>103.0</ele><time>2026-03-29T15:59:42Z</time></trkpt><trkpt lat="44.22832002159503" lon="9.727370150026845"><ele>104.0</ele><time>2026-03-29T15:59:43Z</time></trkpt><trkpt lat="44.22849276515098" lon="9.72706942883559"><ele>103.5</ele><time>2026-03-29T15:59:44Z</time></trkpt><trkpt lat="44.22866010735078" lon="9.726779500632295"><ele>103.0</ele><time>2026-03-29T15:59:45Z</time></trkpt><trkpt lat="44.22881667436498" lon="9.726501965406246"><ele>103.0</ele><time>2026-03-29T15:59:46Z</time></trkpt><trkpt lat="44.22897210723197" lon="9.726225170050258"><ele>103.0</ele><time>2026-03-29T15:59:47Z</time></trkpt><trkpt lat="44.2291299185764" lon="9.725947003577968"><ele>102.5</ele><time>2026-03-29T15:59:48Z</time></trkpt><trkpt lat="44.229285602277365" lon="9.725668781143392"><ele>102.0</ele><time>2026-03-29T15:59:49Z</time></trkpt><trkpt lat="44.22944471874661" lon="9.725390217079932"><ele>102.0</ele><time>2026-03-29T15:59:50Z</time></trkpt><trkpt lat="44.22960096600376" lon="9.725118442135384"><ele>102.0</ele><time>2026-03-29T15:59:51Z</time></trkpt><trkpt lat="44.22974865963117" lon="9.724864321651435"><ele>102.0</ele><time>2026-03-29T15:59:52Z</time></trkpt><trkpt lat="44.22989095003453" lon="9.724621358008148"><ele>102.0</ele><time>2026-03-29T15:59:53Z</time></trkpt><trkpt lat="44.230037991995715" lon="9.724361965464647"><ele>102.0</ele><time>2026-03-29T15:59:54Z</time></trkpt><trkpt lat="44.23018956736318" lon="9.724098554176193"><ele>102.0</ele><time>2026-03-29T15:59:55Z</time></trkpt><trkpt lat="44.230346970469526" lon="9.723825162659995"><ele>102.0</ele><time>2026-03-29T15:59:56Z</time></trkpt><trkpt lat="44.23050710150033" lon="9.72354453568917"><ele>102.0</ele><time>2026-03-29T15:59:57Z</time></trkpt><trkpt lat="44.23067165689197" lon="9.723259934727265"><ele>102.0</ele><time>2026-03-29T15:59:58Z</time></trkpt><trkpt lat="44.23083913481933" lon="9.722966799783054"><ele>102.0</ele><time>2026-03-29T15:59:59Z</time></trkpt><trkpt lat="44.23101050457849" lon="9.722664756144596"><ele>101.5</ele><time>2026-03-29T16:00:00Z</time></trkpt><trkpt lat="44.231184431241104" lon="9.722359029206789"><ele>101.0</ele><time>2026-03-29T16:00:01Z</time></trkpt><trkpt lat="44.23135797937426" lon="9.722050470893336"><ele>101.5</ele><time>2026-03-29T16:00:02Z</time></trkpt><trkpt lat="44.231531127692" lon="9.721740568906466"><ele>102.0</ele><time>2026-03-29T16:00:03Z</time></trkpt><trkpt lat="44.23170572890502" lon="9.721426676180787"><ele>102.0</ele><time>2026-03-29T16:00:04Z</time></trkpt><trkpt lat="44.23186600994205" lon="9.7211442646082"><ele>102.0</ele><time>2026-03-29T16:00:05Z</time></trkpt><trkpt lat="44.232019246876746" lon="9.72087588298723"><ele>102.0</ele><time>2026-03-29T16:00:06Z</time></trkpt><trkpt lat="44.2321746865479" lon="9.720604271615063"><ele>102.0</ele><time>2026-03-29T16:00:07Z</time></trkpt><trkpt lat="44.23233852716582" lon="9.720319129405006"><ele>103.0</ele><time>2026-03-29T16:00:08Z</time></trkpt><trkpt lat="44.23250324721325" lon="9.72003346591217"><ele>104.0</ele><time>2026-03-29T16:00:09Z</time></trkpt><trkpt lat="44.2326683840324" lon="9.719745266882725"><ele>104.0</ele><time>2026-03-29T16:00:10Z</time></trkpt><trkpt lat="44.23282179099432" lon="9.719474428958879"><ele>104.0</ele><time>2026-03-29T16:00:11Z</time></trkpt><trkpt lat="44.23297083286711" lon="9.719213500161645"><ele>104.5</ele><time>2026-03-29T16:00:12Z</time></trkpt><trkpt lat="44.233123986583784" lon="9.718942644853088"><ele>105.0</ele><time>2026-03-29T16:00:13Z</time></trkpt><trkpt lat="44.23327805009948" lon="9.718667888417135"><ele>106.5</ele><time>2026-03-29T16:00:14Z</time></trkpt><trkpt lat="44.2334236336964" lon="9.718413036431105"><ele>108.0</ele><time>2026-03-29T16:00:15Z</time></trkpt><trkpt lat="44.233561165327025" lon="9.718173679668338"><ele>108.0</ele><time>2026-03-29T16:00:16Z</time></trkpt><trkpt lat="44.23370235093329" lon="9.71792440990754"><ele>108.0</ele><time>2026-03-29T16:00:17Z</time></trkpt><trkpt lat="44.233844641251316" lon="9.71767111666475"><ele>108.5</ele><time>2026-03-29T16:00:18Z</time></trkpt><trkpt lat="44.233986588812854" lon="9.717420468900507"><ele>109.0</ele><time>2026-03-29T16:00:19Z</time></trkpt><trkpt lat="44.23413139660325" lon="9.717167889198668"><ele>109.0</ele><time>2026-03-29T16:00:20Z</time></trkpt><trkpt lat="44.23426639173316" lon="9.716936427983494"><ele>109.0</ele><time>2026-03-29T16:00:21Z</time></trkpt><trkpt lat="44.23439814426155" lon="9.716707775875763"><ele>109.0</ele><time>2026-03-29T16:00:22Z</time></trkpt><trkpt lat="44.234523272280995" lon="9.716482089244147"><ele>109.0</ele><time>2026-03-29T16:00:23Z</time></trkpt><trkpt lat="44.234638566269886" lon="9.716267492249235"><ele>109.0</ele><time>2026-03-29T16:00:24Z</time></trkpt><trkpt lat="44.234750947912616" lon="9.716056652233055"><ele>109.0</ele><time>2026-03-29T16:00:25Z</time></trkpt><trkpt lat="44.23486262029605" lon="9.715832568052768"><ele>111.66666666666667</ele><time>2026-03-29T16:00:26Z</time></trkpt><trkpt lat="44.23497185024451" lon="9.715597948277386"><ele>114.33333333333334</ele><time>2026-03-29T16:00:27Z</time></trkpt><trkpt lat="44.235081552656" lon="9.715355245303199"><ele>117.0</ele><time>2026-03-29T16:00:28Z</time></trkpt><trkpt lat="44.235194780009365" lon="9.71510384070923"><ele>118.0</ele><time>2026-03-29T16:00:29Z</time></trkpt><trkpt lat="44.235308390488996" lon="9.714846725089608"><ele>119.0</ele><time>2026-03-29T16:00:30Z</time></trkpt><trkpt lat="44.23542182969957" lon="9.714577641770235"><ele>120.0</ele><time>2026-03-29T16:00:31Z</time></trkpt><trkpt lat="44.235531257446546" lon="9.71430627917281"><ele>120.0</ele><time>2026-03-29T16:00:32Z</time></trkpt><trkpt lat="44.2356340137539" lon="9.714033557447978"><ele>120.0</ele><time>2026-03-29T16:00:33.001Z</time></trkpt><trkpt lat="44.23572519953655" lon="9.713780523490097"><ele>120.0</ele><time>2026-03-29T16:00:34.001Z</time></trkpt><trkpt lat="44.23581499345385" lon="9.713520890005114"><ele>118.66666666666666</ele><time>2026-03-29T16:00:35.001Z</time></trkpt><trkpt lat="44.23590491653947" lon="9.713250749942212"><ele>117.33333333333333</ele><time>2026-03-29T16:00:36.001Z</time></trkpt><trkpt lat="44.235991776595775" lon="9.712972589304316"><ele>116.0</ele><time>2026-03-29T16:00:37.001Z</time></trkpt><trkpt lat="44.236083735883774" lon="9.712690518328271"><ele>116.0</ele><time>2026-03-29T16:00:38.001Z</time></trkpt><trkpt lat="44.23616657770579" lon="9.712403168475566"><ele>116.0</ele><time>2026-03-29T16:00:39.001Z</time></trkpt><trkpt lat="44.23624862507331" lon="9.712109403744572"><ele>116.0</ele><time>2026-03-29T16:00:40.001Z</time></trkpt><trkpt lat="44.23632101063539" lon="9.711832022765877"><ele>113.66666666666666</ele><time>2026-03-29T16:00:41.001Z</time></trkpt><trkpt lat="44.23638931373349" lon="9.711570752661771"><ele>111.33333333333334</ele><time>2026-03-29T16:00:42.001Z</time></trkpt><trkpt lat="44.23645104598579" lon="9.711290492843016"><ele>109.0</ele><time>2026-03-29T16:00:43.001Z</time></trkpt><trkpt lat="44.23650856581685" lon="9.711002776479136"><ele>109.0</ele><time>2026-03-29T16:00:44.001Z</time></trkpt><trkpt lat="44.236558699855586" lon="9.710711534538042"><ele>109.0</ele><time>2026-03-29T16:00:45.001Z</time></trkpt><trkpt lat="44.236608160148755" lon="9.710422997998844"><ele>109.0</ele><time>2026-03-29T16:00:46.001Z</time></trkpt><trkpt lat="44.23665794084288" lon="9.710133508670863"><ele>109.0</ele><time>2026-03-29T16:00:47.001Z</time></trkpt><trkpt lat="44.23670550363422" lon="9.709870856594579"><ele>109.0</ele><time>2026-03-29T16:00:48.001Z</time></trkpt><trkpt lat="44.23674715247395" lon="9.709618335418403"><ele>109.0</ele><time>2026-03-29T16:00:49Z</time></trkpt><trkpt lat="44.23678694353554" lon="9.709384248461593"><ele>113.33333333333334</ele><time>2026-03-29T16:00:50Z</time></trkpt><trkpt lat="44.236823484353444" lon="9.709154233892004"><ele>117.66666666666666</ele><time>2026-03-29T16:00:51Z</time></trkpt><trkpt lat="44.236856251525154" lon="9.708941667783295"><ele>122.0</ele><time>2026-03-29T16:00:52Z</time></trkpt><trkpt lat="44.23688617820164" lon="9.70875391313379"><ele>122.0</ele><time>2026-03-29T16:00:53Z</time></trkpt><trkpt lat="44.236914957561005" lon="9.708578575900109"><ele>122.0</ele><time>2026-03-29T16:00:54Z</time></trkpt><trkpt lat="44.236941337285366" lon="9.70841314304929"><ele>122.0</ele><time>2026-03-29T16:00:55Z</time></trkpt><trkpt lat="44.236967156137034" lon="9.70826531701536"><ele>122.0</ele><time>2026-03-29T16:00:56Z</time></trkpt><trkpt lat="44.236988172319414" lon="9.708135614115085"><ele>124.6</ele><time>2026-03-29T16:00:57Z</time></trkpt><trkpt lat="44.23701034679869" lon="9.708012300733758"><ele>127.19999999999999</ele><time>2026-03-29T16:00:58Z</time></trkpt><trkpt lat="44.2370123085063" lon="9.707866851294499"><ele>129.8</ele><time>2026-03-29T16:00:59Z</time></trkpt><trkpt lat="44.237009685761066" lon="9.707734488479607"><ele>132.4</ele><time>2026-03-29T16:01:00Z</time></trkpt><trkpt lat="44.23701425004222" lon="9.707591532487365"><ele>135.0</ele><time>2026-03-29T16:01:01Z</time></trkpt><trkpt lat="44.237041750228734" lon="9.707429995581945"><ele>137.25</ele><time>2026-03-29T16:01:02Z</time></trkpt><trkpt lat="44.23706902498094" lon="9.707269782859878"><ele>139.5</ele><time>2026-03-29T16:01:03Z</time></trkpt><trkpt lat="44.2370954487115" lon="9.707114569070221"><ele>141.75</ele><time>2026-03-29T16:01:04Z</time></trkpt><trkpt lat="44.23712543334607" lon="9.706938305124297"><ele>144.0</ele><time>2026-03-29T16:01:05Z</time></trkpt><trkpt lat="44.23716093329799" lon="9.706729738974293"><ele>147.5</ele><time>2026-03-29T16:01:06Z</time></trkpt><trkpt lat="44.237196453878916" lon="9.706526898604789"><ele>151.0</ele><time>2026-03-29T16:01:07Z</time></trkpt><trkpt lat="44.23722768821144" lon="9.706348534851628"><ele>154.5</ele><time>2026-03-29T16:01:08Z</time></trkpt><trkpt lat="44.237260117847335" lon="9.706163345422464"><ele>158.0</ele><time>2026-03-29T16:01:09.014Z</time></trkpt><trkpt lat="44.23729225278361" lon="9.705980747704139"><ele>166.25</ele><time>2026-03-29T16:01:10.014Z</time></trkpt><trkpt lat="44.237324137857826" lon="9.70579967956007"><ele>174.5</ele><time>2026-03-29T16:01:11.013Z</time></trkpt><trkpt lat="44.23735463544644" lon="9.705626489863597"><ele>182.75</ele><time>2026-03-29T16:01:12.014Z</time></trkpt><trkpt lat="44.23738617848948" lon="9.7054473637788"><ele>191.0</ele><time>2026-03-29T16:01:13.013Z</time></trkpt><trkpt lat="44.23787168372555" lon="9.702710110123238"><ele>212.0</ele><time>2026-03-29T16:01:16.124Z</time></trkpt><trkpt lat="44.23723105345316" lon="9.697922067725749"><ele>213.5</ele><time>2026-03-29T16:01:46Z</time></trkpt><trkpt lat="44.237221016979156" lon="9.697732817181045"><ele>215.0</ele><time>2026-03-29T16:01:47Z</time></trkpt><trkpt lat="44.23678757460132" lon="9.699142704680373"><ele>214.0</ele><time>2026-03-29T16:01:48Z</time></trkpt><trkpt lat="44.23678643020728" lon="9.698919435026845"><ele>213.0</ele><time>2026-03-29T16:01:49Z</time></trkpt><trkpt lat="44.23680180718317" lon="9.698642405222706"><ele>212.0</ele><time>2026-03-29T16:01:50Z</time></trkpt><trkpt lat="44.23680992169195" lon="9.698413156430934"><ele>212.0</ele><time>2026-03-29T16:01:51Z</time></trkpt><trkpt lat="44.2368300580135" lon="9.698190235046921"><ele>212.0</ele><time>2026-03-29T16:01:52Z</time></trkpt><trkpt lat="44.23687550773159" lon="9.697931129718398"><ele>212.0</ele><time>2026-03-29T16:01:53Z</time></trkpt><trkpt lat="44.2368804031878" lon="9.697700076580487"><ele>213.0</ele><time>2026-03-29T16:01:54Z</time></trkpt><trkpt lat="44.23691152282876" lon="9.697479515844238"><ele>214.0</ele><time>2026-03-29T16:01:55Z</time></trkpt><trkpt lat="44.236949641408415" lon="9.697266017009921"><ele>215.0</ele><time>2026-03-29T16:01:56Z</time></trkpt><trkpt lat="44.23700121255499" lon="9.697032882815732"><ele>216.33333333333334</ele><time>2026-03-29T16:01:57Z</time></trkpt><trkpt lat="44.23705048561442" lon="9.696811952819449"><ele>217.66666666666669</ele><time>2026-03-29T16:01:58Z</time></trkpt><trkpt lat="44.23708079126998" lon="9.69662432601332"><ele>219.0</ele><time>2026-03-29T16:01:59Z</time></trkpt><trkpt lat="44.237128167805686" lon="9.696411539516461"><ele>219.0</ele><time>2026-03-29T16:02:00Z</time></trkpt><trkpt lat="44.2372303723164" lon="9.696098382553629"><ele>219.0</ele><time>2026-03-29T16:02:01Z</time></trkpt><trkpt lat="44.237297855812926" lon="9.695855020307443"><ele>219.0</ele><time>2026-03-29T16:02:02Z</time></trkpt><trkpt lat="44.23738183621697" lon="9.69561427763702"><ele>200.0</ele><time>2026-03-29T16:02:03Z</time></trkpt><trkpt lat="44.237457912659" lon="9.695392475552966"><ele>181.0</ele><time>2026-03-29T16:02:04Z</time></trkpt><trkpt lat="44.237622005702534" lon="9.694989993227317"><ele>181.0</ele><time>2026-03-29T16:02:05Z</time></trkpt><trkpt lat="44.23775668519386" lon="9.694679295000352"><ele>181.0</ele><time>2026-03-29T16:02:06Z</time></trkpt><trkpt lat="44.23788135095343" lon="9.69437147751536"><ele>189.0</ele><time>2026-03-29T16:02:07Z</time></trkpt><trkpt lat="44.23802289964533" lon="9.693884303687657"><ele>197.0</ele><time>2026-03-29T16:02:08Z</time></trkpt><trkpt lat="44.23811286996756" lon="9.693616082179636"><ele>193.33333333333334</ele><time>2026-03-29T16:02:09Z</time></trkpt><trkpt lat="44.238197725565115" lon="9.693424742166016"><ele>189.66666666666669</ele><time>2026-03-29T16:02:10Z</time></trkpt><trkpt lat="44.238280872660624" lon="9.693248405472437"><ele>186.0</ele><time>2026-03-29T16:02:11Z</time></trkpt><trkpt lat="44.23837006015553" lon="9.693064515261817"><ele>186.0</ele><time>2026-03-29T16:02:12Z</time></trkpt><trkpt lat="44.238462383848606" lon="9.692879553195015"><ele>186.0</ele><time>2026-03-29T16:02:13Z</time></trkpt><trkpt lat="44.23855584263285" lon="9.692695202376727"><ele>186.0</ele><time>2026-03-29T16:02:14Z</time></trkpt><trkpt lat="44.238657303870674" lon="9.692499446516559"><ele>194.0</ele><time>2026-03-29T16:02:15Z</time></trkpt><trkpt lat="44.238756425172625" lon="9.692310415597571"><ele>202.0</ele><time>2026-03-29T16:02:16Z</time></trkpt><trkpt lat="44.23885575270426" lon="9.692116045629923"><ele>210.0</ele><time>2026-03-29T16:02:17.021Z</time></trkpt><trkpt lat="44.23895234979649" lon="9.691928002913631"><ele>213.33333333333331</ele><time>2026-03-29T16:02:18.02Z</time></trkpt><trkpt lat="44.23904006632664" lon="9.691762172224005"><ele>216.66666666666666</ele><time>2026-03-29T16:02:19.02Z</time></trkpt><trkpt lat="44.239131076828045" lon="9.69158689951867"><ele>220.0</ele><time>2026-03-29T16:02:20.017Z</time></trkpt><trkpt lat="44.23923745750994" lon="9.691377168229137"><ele>220.0</ele><time>2026-03-29T16:02:21.02Z</time></trkpt><trkpt lat="44.23933432078899" lon="9.691189575441143"><ele>220.0</ele><time>2026-03-29T16:02:22.02Z</time></trkpt><trkpt lat="44.24100483771809" lon="9.685071855792483"><ele>214.0</ele><time>2026-03-29T16:02:49.999Z</time></trkpt><trkpt lat="44.240986264569145" lon="9.6848623861646"><ele>208.0</ele><time>2026-03-29T16:02:50.999Z</time></trkpt><trkpt lat="44.24093230843022" lon="9.684638303015026"><ele>202.0</ele><time>2026-03-29T16:02:51.999Z</time></trkpt><trkpt lat="44.24090525464409" lon="9.684442215301084"><ele>201.5</ele><time>2026-03-29T16:02:52.999Z</time></trkpt><trkpt lat="44.240879004924665" lon="9.684250499585715"><ele>201.0</ele><time>2026-03-29T16:02:53.999Z</time></trkpt><trkpt lat="44.240850384418074" lon="9.684078939502836"><ele>200.5</ele><time>2026-03-29T16:02:54.999Z</time></trkpt><trkpt lat="44.24082018177907" lon="9.6839101927887"><ele>200.0</ele><time>2026-03-29T16:02:56Z</time></trkpt><trkpt lat="44.240789509068556" lon="9.683728251839726"><ele>199.25</ele><time>2026-03-29T16:02:57Z</time></trkpt><trkpt lat="44.240754815278315" lon="9.683548210604728"><ele>198.5</ele><time>2026-03-29T16:02:58Z</time></trkpt><trkpt lat="44.24072116453354" lon="9.68336121645141"><ele>197.75</ele><time>2026-03-29T16:02:59Z</time></trkpt><trkpt lat="44.240689733433065" lon="9.683190625075467"><ele>197.0</ele><time>2026-03-29T16:03:00Z</time></trkpt><trkpt lat="44.24066234164478" lon="9.683029387755207"><ele>203.25</ele><time>2026-03-29T16:03:01Z</time></trkpt><trkpt lat="44.24063104447062" lon="9.682874598333694"><ele>209.5</ele><time>2026-03-29T16:03:02Z</time></trkpt><trkpt lat="44.24060362490031" lon="9.682710702343538"><ele>215.75</ele><time>2026-03-29T16:03:03Z</time></trkpt><trkpt lat="44.24058701974717" lon="9.682544397751297"><ele>222.0</ele><time>2026-03-29T16:03:04Z</time></trkpt><trkpt lat="44.240577687906864" lon="9.682371406743902"><ele>222.0</ele><time>2026-03-29T16:03:05Z</time></trkpt><trkpt lat="44.24056189832137" lon="9.682184024261366"><ele>222.0</ele><time>2026-03-29T16:03:06Z</time></trkpt><trkpt lat="44.24053542952175" lon="9.68198724273772"><ele>222.0</ele><time>2026-03-29T16:03:07Z</time></trkpt><trkpt lat="44.24049619400509" lon="9.681786421320405"><ele>222.0</ele><time>2026-03-29T16:03:08Z</time></trkpt><trkpt lat="44.2404558833651" lon="9.681577383368651"><ele>220.33333333333331</ele><time>2026-03-29T16:03:09Z</time></trkpt><trkpt lat="44.240418855616724" lon="9.681359320352577"><ele>218.66666666666666</ele><time>2026-03-29T16:03:10Z</time></trkpt><trkpt lat="44.24037804516695" lon="9.681136925010934"><ele>217.0</ele><time>2026-03-29T16:03:11Z</time></trkpt><trkpt lat="44.2403428603039" lon="9.680906920545812"><ele>217.0</ele><time>2026-03-29T16:03:12Z</time></trkpt><trkpt lat="44.24030037561898" lon="9.680665323049153"><ele>217.0</ele><time>2026-03-29T16:03:13Z</time></trkpt><trkpt lat="44.240244416891585" lon="9.680416534194432"><ele>217.0</ele><time>2026-03-29T16:03:14Z</time></trkpt><trkpt lat="44.24019038500056" lon="9.680177260037212"><ele>216.0</ele><time>2026-03-29T16:03:15Z</time></trkpt><trkpt lat="44.240136813977365" lon="9.679954318835362"><ele>215.0</ele><time>2026-03-29T16:03:16Z</time></trkpt><trkpt lat="44.24008082271365" lon="9.67972550450677"><ele>214.0</ele><time>2026-03-29T16:03:17Z</time></trkpt><trkpt lat="44.24002256411749" lon="9.679490423008374"><ele>208.33333333333331</ele><time>2026-03-29T16:03:18Z</time></trkpt><trkpt lat="44.239957781740394" lon="9.679260321221987"><ele>202.66666666666669</ele><time>2026-03-29T16:03:19Z</time></trkpt><trkpt lat="44.239891753664395" lon="9.679019669579025"><ele>197.0</ele><time>2026-03-29T16:03:20Z</time></trkpt><trkpt lat="44.239820765186714" lon="9.678781256104013"><ele>208.33333333333334</ele><time>2026-03-29T16:03:21Z</time></trkpt><trkpt lat="44.23974584407271" lon="9.678536143040718"><ele>219.66666666666669</ele><time>2026-03-29T16:03:22Z</time></trkpt><trkpt lat="44.23966864737312" lon="9.678292612186889"><ele>231.0</ele><time>2026-03-29T16:03:23Z</time></trkpt><trkpt lat="44.23959410177154" lon="9.678044610844537"><ele>231.0</ele><time>2026-03-29T16:03:24Z</time></trkpt><trkpt lat="44.23951761098707" lon="9.67779443229803"><ele>231.0</ele><time>2026-03-29T16:03:25Z</time></trkpt><trkpt lat="44.23944103305009" lon="9.677543908727332"><ele>231.0</ele><time>2026-03-29T16:03:26Z</time></trkpt><trkpt lat="44.23936251316039" lon="9.67728159904922"><ele>232.33333333333331</ele><time>2026-03-29T16:03:27Z</time></trkpt><trkpt lat="44.239286119339035" lon="9.677011166308526"><ele>233.66666666666666</ele><time>2026-03-29T16:03:28Z</time></trkpt><trkpt lat="44.23921296086782" lon="9.676725778856266"><ele>235.0</ele><time>2026-03-29T16:03:29Z</time></trkpt><trkpt lat="44.23914209754362" lon="9.676426859008396"><ele>237.66666666666666</ele><time>2026-03-29T16:03:30.02Z</time></trkpt><trkpt lat="44.23908108691255" lon="9.676155041716791"><ele>240.33333333333331</ele><time>2026-03-29T16:03:31.023Z</time></trkpt><trkpt lat="44.23902605279689" lon="9.675895973799713"><ele>243.0</ele><time>2026-03-29T16:03:32.019Z</time></trkpt><trkpt lat="44.23898102451843" lon="9.67564386341058"><ele>259.0</ele><time>2026-03-29T16:03:33.017Z</time></trkpt><trkpt lat="44.238940166770476" lon="9.67538533429265"><ele>275.0</ele><time>2026-03-29T16:03:34.02Z</time></trkpt><trkpt lat="44.2388017889397" lon="9.672044358797741"><ele>220.0</ele><time>2026-03-29T16:03:48.516Z</time></trkpt><trkpt lat="44.23848791983373" lon="9.667575890207353"><ele>220.0</ele><time>2026-03-29T16:03:57Z</time></trkpt><trkpt lat="44.23843883819896" lon="9.66724334794872"><ele>220.0</ele><time>2026-03-29T16:03:58Z</time></trkpt><trkpt lat="44.23837272186943" lon="9.666917494673473"><ele>215.5</ele><time>2026-03-29T16:03:59Z</time></trkpt><trkpt lat="44.23829424062505" lon="9.666598543675695"><ele>211.0</ele><time>2026-03-29T16:04:00Z</time></trkpt><trkpt lat="44.23821680102658" lon="9.666275449342194"><ele>219.0</ele><time>2026-03-29T16:04:01Z</time></trkpt><trkpt lat="44.23812072230009" lon="9.665936950372076"><ele>227.0</ele><time>2026-03-29T16:04:02Z</time></trkpt><trkpt lat="44.23800447864283" lon="9.66560328944089"><ele>220.5</ele><time>2026-03-29T16:04:03Z</time></trkpt><trkpt lat="44.237883964539684" lon="9.66526931728664"><ele>214.0</ele><time>2026-03-29T16:04:04Z</time></trkpt><trkpt lat="44.23776228522345" lon="9.664936867223014"><ele>214.0</ele><time>2026-03-29T16:04:05Z</time></trkpt><trkpt lat="44.237626477254025" lon="9.66459640488483"><ele>214.0</ele><time>2026-03-29T16:04:06Z</time></trkpt><trkpt lat="44.237484513155025" lon="9.664251955111125"><ele>206.5</ele><time>2026-03-29T16:04:07Z</time></trkpt><trkpt lat="44.23734286622454" lon="9.663890721793582"><ele>199.0</ele><time>2026-03-29T16:04:08Z</time></trkpt><trkpt lat="44.237205017700425" lon="9.663533616949195"><ele>198.0</ele><time>2026-03-29T16:04:09Z</time></trkpt><trkpt lat="44.237064176783534" lon="9.663185205681634"><ele>197.0</ele><time>2026-03-29T16:04:10Z</time></trkpt><trkpt lat="44.236932245600144" lon="9.662852193393443"><ele>198.0</ele><time>2026-03-29T16:04:11Z</time></trkpt><trkpt lat="44.23682012414799" lon="9.662557921980525"><ele>199.0</ele><time>2026-03-29T16:04:12Z</time></trkpt><trkpt lat="44.23672387748791" lon="9.662281566373277"><ele>199.0</ele><time>2026-03-29T16:04:13Z</time></trkpt><trkpt lat="44.23661806684984" lon="9.661965147013234"><ele>199.0</ele><time>2026-03-29T16:04:14Z</time></trkpt><trkpt lat="44.23648697730544" lon="9.661635161295386"><ele>213.0</ele><time>2026-03-29T16:04:15Z</time></trkpt><trkpt lat="44.23638162723104" lon="9.661303303725669"><ele>227.0</ele><time>2026-03-29T16:04:16Z</time></trkpt><trkpt lat="44.236285724790214" lon="9.660958807700139"><ele>227.0</ele><time>2026-03-29T16:04:17Z</time></trkpt><trkpt lat="44.23619650335918" lon="9.660610736418317"><ele>227.0</ele><time>2026-03-29T16:04:18Z</time></trkpt><trkpt lat="44.23609999545822" lon="9.660273238507418"><ele>232.5</ele><time>2026-03-29T16:04:19Z</time></trkpt><trkpt lat="44.23600195883079" lon="9.659929289902443"><ele>238.0</ele><time>2026-03-29T16:04:20.016Z</time></trkpt><trkpt lat="44.23575005474616" lon="9.658738426571803"><ele>249.5</ele><time>2026-03-29T16:04:23.016Z</time></trkpt><trkpt lat="44.235697487841115" lon="9.658354180987441"><ele>261.0</ele><time>2026-03-29T16:04:24.019Z</time></trkpt><trkpt lat="44.235586005048695" lon="9.655521921245281"><ele>211.0</ele><time>2026-03-29T16:04:27.121Z</time></trkpt><trkpt lat="44.235671181272934" lon="9.654386546471764"><ele>211.0</ele><time>2026-03-29T16:04:33.999Z</time></trkpt><trkpt lat="44.235688891212305" lon="9.6540221309187"><ele>211.0</ele><time>2026-03-29T16:04:34.999Z</time></trkpt><trkpt lat="44.23570653288916" lon="9.653668180535536"><ele>211.0</ele><time>2026-03-29T16:04:35.999Z</time></trkpt><trkpt lat="44.23573379997798" lon="9.65332453225559"><ele>211.0</ele><time>2026-03-29T16:04:36.999Z</time></trkpt><trkpt lat="44.23577182267759" lon="9.652978431078996"><ele>212.5</ele><time>2026-03-29T16:04:37.999Z</time></trkpt><trkpt lat="44.23582203431522" lon="9.652642923278615"><ele>214.0</ele><time>2026-03-29T16:04:38.999Z</time></trkpt><trkpt lat="44.23587562405907" lon="9.652305484190835"><ele>214.0</ele><time>2026-03-29T16:04:39.999Z</time></trkpt><trkpt lat="44.235932572199594" lon="9.651967212684854"><ele>214.0</ele><time>2026-03-29T16:04:40.999Z</time></trkpt><trkpt lat="44.23598267859761" lon="9.651628466851253"><ele>217.0</ele><time>2026-03-29T16:04:41.999Z</time></trkpt><trkpt lat="44.23603659225389" lon="9.651289161931318"><ele>220.0</ele><time>2026-03-29T16:04:42.999Z</time></trkpt><trkpt lat="44.236081273920604" lon="9.650949376738719"><ele>222.5</ele><time>2026-03-29T16:04:43.999Z</time></trkpt><trkpt lat="44.2361156725377" lon="9.650606813554077"><ele>225.0</ele><time>2026-03-29T16:04:44.999Z</time></trkpt><trkpt lat="44.23613847504619" lon="9.650259997534823"><ele>231.0</ele><time>2026-03-29T16:04:45.999Z</time></trkpt><trkpt lat="44.23615172633115" lon="9.649913496856332"><ele>237.0</ele><time>2026-03-29T16:04:46.999Z</time></trkpt><trkpt lat="44.23615387438391" lon="9.649569940816894"><ele>238.0</ele><time>2026-03-29T16:04:47.999Z</time></trkpt><trkpt lat="44.236143540045006" lon="9.649229795619268"><ele>239.0</ele><time>2026-03-29T16:04:48.999Z</time></trkpt><trkpt lat="44.236126687056945" lon="9.64889261814313"><ele>238.5</ele><time>2026-03-29T16:04:49.999Z</time></trkpt><trkpt lat="44.236096796739155" lon="9.648557830496356"><ele>238.0</ele><time>2026-03-29T16:04:50.999Z</time></trkpt><trkpt lat="44.23605551990572" lon="9.648228754764578"><ele>238.0</ele><time>2026-03-29T16:04:51.999Z</time></trkpt><trkpt lat="44.23599880463177" lon="9.647878597967"><ele>238.0</ele><time>2026-03-29T16:04:52.999Z</time></trkpt><trkpt lat="44.235928427347666" lon="9.647497567370769"><ele>236.0</ele><time>2026-03-29T16:04:53.999Z</time></trkpt><trkpt lat="44.23584609971562" lon="9.64710730806799"><ele>234.0</ele><time>2026-03-29T16:04:54.999Z</time></trkpt><trkpt lat="44.2357616142366" lon="9.64675729519931"><ele>243.5</ele><time>2026-03-29T16:04:55.999Z</time></trkpt><trkpt lat="44.23568158632873" lon="9.64642658804771"><ele>253.0</ele><time>2026-03-29T16:04:56.999Z</time></trkpt><trkpt lat="44.23558157816869" lon="9.646090548546095"><ele>290.0</ele><time>2026-03-29T16:04:57.999Z</time></trkpt><trkpt lat="44.2354770685799" lon="9.64574150769707"><ele>327.0</ele><time>2026-03-29T16:04:59.02Z</time></trkpt><trkpt lat="44.235362481667956" lon="9.645410371082725"><ele>321.0</ele><time>2026-03-29T16:05:00.02Z</time></trkpt><trkpt lat="44.235237548068504" lon="9.645089899307107"><ele>315.0</ele><time>2026-03-29T16:05:01.02Z</time></trkpt><trkpt lat="44.23510618515423" lon="9.644757470827079"><ele>302.5</ele><time>2026-03-29T16:05:02.017Z</time></trkpt><trkpt lat="44.23497613913783" lon="9.644428379191579"><ele>290.0</ele><time>2026-03-29T16:05:03.019Z</time></trkpt><trkpt lat="44.234234606888364" lon="9.642682559797207"><ele>269.0</ele><time>2026-03-29T16:05:07.999Z</time></trkpt><trkpt lat="44.234125191372165" lon="9.642402001136473"><ele>248.0</ele><time>2026-03-29T16:05:08.999Z</time></trkpt><trkpt lat="44.23403471027216" lon="9.64216019620661"><ele>227.0</ele><time>2026-03-29T16:05:09.999Z</time></trkpt><trkpt lat="44.23397569898244" lon="9.641996172437139"><ele>225.5</ele><time>2026-03-29T16:05:11Z</time></trkpt><trkpt lat="44.23392762597247" lon="9.641824956869504"><ele>224.0</ele><time>2026-03-29T16:05:12Z</time></trkpt><trkpt lat="44.23386890556796" lon="9.641658387881561"><ele>222.5</ele><time>2026-03-29T16:05:13Z</time></trkpt><trkpt lat="44.23379602705454" lon="9.641471993568821"><ele>221.0</ele><time>2026-03-29T16:05:14Z</time></trkpt><trkpt lat="44.23374336212428" lon="9.641293002414521"><ele>217.0</ele><time>2026-03-29T16:05:15Z</time></trkpt><trkpt lat="44.233693711158956" lon="9.641109192841776"><ele>213.0</ele><time>2026-03-29T16:05:16Z</time></trkpt><trkpt lat="44.233646171468315" lon="9.64094229538384"><ele>209.0</ele><time>2026-03-29T16:05:17Z</time></trkpt><trkpt lat="44.23360348291118" lon="9.640781325478118"><ele>205.0</ele><time>2026-03-29T16:05:18Z</time></trkpt><trkpt lat="44.233560289113726" lon="9.640626308474763"><ele>205.0</ele><time>2026-03-29T16:05:19Z</time></trkpt><trkpt lat="44.233513947003345" lon="9.640458600627596"><ele>205.0</ele><time>2026-03-29T16:05:20Z</time></trkpt><trkpt lat="44.23347287260353" lon="9.640290094955498"><ele>205.0</ele><time>2026-03-29T16:05:21Z</time></trkpt><trkpt lat="44.23343372380604" lon="9.640125677335014"><ele>205.0</ele><time>2026-03-29T16:05:22Z</time></trkpt><trkpt lat="44.23339529536438" lon="9.63997526628997"><ele>205.75</ele><time>2026-03-29T16:05:23Z</time></trkpt><trkpt lat="44.23335988752106" lon="9.639803694549048"><ele>206.5</ele><time>2026-03-29T16:05:24Z</time></trkpt><trkpt lat="44.233323288893885" lon="9.639628995591288"><ele>207.25</ele><time>2026-03-29T16:05:25Z</time></trkpt><trkpt lat="44.23328422924493" lon="9.639459169280386"><ele>208.0</ele><time>2026-03-29T16:05:26Z</time></trkpt><trkpt lat="44.23325697432056" lon="9.639305943198943"><ele>210.75</ele><time>2026-03-29T16:05:27Z</time></trkpt><trkpt lat="44.23322933601922" lon="9.639162241793548"><ele>213.5</ele><time>2026-03-29T16:05:28Z</time></trkpt><trkpt lat="44.23320008560359" lon="9.63901503836299"><ele>216.25</ele><time>2026-03-29T16:05:29Z</time></trkpt><trkpt lat="44.233167580369106" lon="9.638855781573705"><ele>219.0</ele><time>2026-03-29T16:05:30Z</time></trkpt><trkpt lat="44.23313635379696" lon="9.638695462699022"><ele>224.25</ele><time>2026-03-29T16:05:31Z</time></trkpt><trkpt lat="44.2331049340212" lon="9.638521323149128"><ele>229.5</ele><time>2026-03-29T16:05:32Z</time></trkpt><trkpt lat="44.23307047552672" lon="9.63834030497824"><ele>234.75</ele><time>2026-03-29T16:05:33Z</time></trkpt><trkpt lat="44.233039304325956" lon="9.638174668832267"><ele>240.0</ele><time>2026-03-29T16:05:34Z</time></trkpt><trkpt lat="44.233008150449024" lon="9.638022608063903"><ele>240.0</ele><time>2026-03-29T16:05:35Z</time></trkpt><trkpt lat="44.23297747866876" lon="9.637870082129316"><ele>240.0</ele><time>2026-03-29T16:05:36Z</time></trkpt><trkpt lat="44.23294621104963" lon="9.637709797344375"><ele>240.0</ele><time>2026-03-29T16:05:37Z</time></trkpt><trkpt lat="44.23291659531783" lon="9.637552759601213"><ele>240.0</ele><time>2026-03-29T16:05:38Z</time></trkpt><trkpt lat="44.2328862372335" lon="9.637408172255935"><ele>243.0</ele><time>2026-03-29T16:05:39Z</time></trkpt><trkpt lat="44.23286336522544" lon="9.637274921443767"><ele>246.0</ele><time>2026-03-29T16:05:40Z</time></trkpt><trkpt lat="44.23283160411733" lon="9.637161407774299"><ele>249.0</ele><time>2026-03-29T16:05:41Z</time></trkpt><trkpt lat="44.232797565652525" lon="9.637056284846137"><ele>252.0</ele><time>2026-03-29T16:05:42Z</time></trkpt><trkpt lat="44.23276056731256" lon="9.636948433153915"><ele>255.0</ele><time>2026-03-29T16:05:43Z</time></trkpt><trkpt lat="44.232717219252926" lon="9.636835428448796"><ele>258.0</ele><time>2026-03-29T16:05:44Z</time></trkpt><trkpt lat="44.2326883840816" lon="9.636702653661672"><ele>260.0</ele><time>2026-03-29T16:05:45Z</time></trkpt><trkpt lat="44.232664732991026" lon="9.636561513405175"><ele>262.0</ele><time>2026-03-29T16:05:46Z</time></trkpt><trkpt lat="44.23263046356292" lon="9.636405807291792"><ele>264.0</ele><time>2026-03-29T16:05:47Z</time></trkpt><trkpt lat="44.23259436162363" lon="9.636241843170307"><ele>266.0</ele><time>2026-03-29T16:05:48Z</time></trkpt><trkpt lat="44.2325524509278" lon="9.636061961960023"><ele>266.0</ele><time>2026-03-29T16:05:49Z</time></trkpt><trkpt lat="44.23251182307847" lon="9.635872604252077"><ele>266.0</ele><time>2026-03-29T16:05:50Z</time></trkpt><trkpt lat="44.23246480898372" lon="9.63569390183374"><ele>266.0</ele><time>2026-03-29T16:05:51Z</time></trkpt><trkpt lat="44.23242343817263" lon="9.635522221069248"><ele>266.0</ele><time>2026-03-29T16:05:52Z</time></trkpt><trkpt lat="44.232376449314685" lon="9.63534494218766"><ele>264.75</ele><time>2026-03-29T16:05:53Z</time></trkpt><trkpt lat="44.23233075386069" lon="9.635165746619"><ele>263.5</ele><time>2026-03-29T16:05:54Z</time></trkpt><trkpt lat="44.23228198874689" lon="9.635002861110843"><ele>262.25</ele><time>2026-03-29T16:05:55Z</time></trkpt><trkpt lat="44.232236224565085" lon="9.634838727246512"><ele>261.0</ele><time>2026-03-29T16:05:56Z</time></trkpt><trkpt lat="44.232192328614325" lon="9.634679334157896"><ele>266.75</ele><time>2026-03-29T16:05:57Z</time></trkpt><trkpt lat="44.2321445843144" lon="9.6345107510732"><ele>272.5</ele><time>2026-03-29T16:05:58Z</time></trkpt><trkpt lat="44.23209332927644" lon="9.634337233005159"><ele>278.25</ele><time>2026-03-29T16:05:59Z</time></trkpt><trkpt lat="44.23204072165037" lon="9.634165186963642"><ele>284.0</ele><time>2026-03-29T16:06:00Z</time></trkpt><trkpt lat="44.23198751585335" lon="9.633984967866214"><ele>284.0</ele><time>2026-03-29T16:06:01Z</time></trkpt><trkpt lat="44.23194046887045" lon="9.633824400828491"><ele>284.0</ele><time>2026-03-29T16:06:02Z</time></trkpt><trkpt lat="44.23189157156896" lon="9.633676386682405"><ele>284.0</ele><time>2026-03-29T16:06:03Z</time></trkpt><trkpt lat="44.23184508595268" lon="9.633531377315666"><ele>284.0</ele><time>2026-03-29T16:06:04Z</time></trkpt><trkpt lat="44.231796512019606" lon="9.633389193702765"><ele>282.25</ele><time>2026-03-29T16:06:05Z</time></trkpt><trkpt lat="44.231748587905415" lon="9.633240102597421"><ele>280.5</ele><time>2026-03-29T16:06:06Z</time></trkpt><trkpt lat="44.23169602190831" lon="9.633088672796443"><ele>278.75</ele><time>2026-03-29T16:06:07Z</time></trkpt><trkpt lat="44.23164903385019" lon="9.632950855874"><ele>277.0</ele><time>2026-03-29T16:06:08Z</time></trkpt><trkpt lat="44.231602307053336" lon="9.63281496282823"><ele>275.4</ele><time>2026-03-29T16:06:09Z</time></trkpt><trkpt lat="44.23155433265156" lon="9.632682095295584"><ele>273.79999999999995</ele><time>2026-03-29T16:06:10Z</time></trkpt><trkpt lat="44.23150597470087" lon="9.632544470368613"><ele>272.2</ele><time>2026-03-29T16:06:11Z</time></trkpt><trkpt lat="44.23145870279578" lon="9.632412728477087"><ele>270.59999999999997</ele><time>2026-03-29T16:06:12Z</time></trkpt><trkpt lat="44.23141038527682" lon="9.632272952636677"><ele>269.0</ele><time>2026-03-29T16:06:13Z</time></trkpt><trkpt lat="44.231357476962714" lon="9.632141850601716"><ele>277.0</ele><time>2026-03-29T16:06:14Z</time></trkpt><trkpt lat="44.231304387737396" lon="9.632005401876835"><ele>285.0</ele><time>2026-03-29T16:06:15Z</time></trkpt><trkpt lat="44.23124675372622" lon="9.63186045744857"><ele>293.0</ele><time>2026-03-29T16:06:16Z</time></trkpt><trkpt lat="44.23118616275266" lon="9.631708628125141"><ele>301.0</ele><time>2026-03-29T16:06:17Z</time></trkpt><trkpt lat="44.23112352679467" lon="9.63154703056223"><ele>301.0</ele><time>2026-03-29T16:06:18Z</time></trkpt><trkpt lat="44.23105546323802" lon="9.631376111805698"><ele>301.0</ele><time>2026-03-29T16:06:19Z</time></trkpt><trkpt lat="44.230985820818354" lon="9.631194300339402"><ele>301.0</ele><time>2026-03-29T16:06:20Z</time></trkpt><trkpt lat="44.23091376806879" lon="9.6310068107354"><ele>301.0</ele><time>2026-03-29T16:06:21Z</time></trkpt><trkpt lat="44.23083485977734" lon="9.630818855817092"><ele>302.3333333333333</ele><time>2026-03-29T16:06:22Z</time></trkpt><trkpt lat="44.23076169957661" lon="9.630636168098352"><ele>303.6666666666667</ele><time>2026-03-29T16:06:23Z</time></trkpt><trkpt lat="44.230685442624946" lon="9.630450447974924"><ele>305.0</ele><time>2026-03-29T16:06:24Z</time></trkpt><trkpt lat="44.23060855057019" lon="9.630260043084059"><ele>305.0</ele><time>2026-03-29T16:06:25Z</time></trkpt><trkpt lat="44.230532323158904" lon="9.630062297838627"><ele>305.0</ele><time>2026-03-29T16:06:26Z</time></trkpt><trkpt lat="44.23045662806254" lon="9.629873193881894"><ele>305.0</ele><time>2026-03-29T16:06:27Z</time></trkpt><trkpt lat="44.23038740781075" lon="9.629699937724595"><ele>305.0</ele><time>2026-03-29T16:06:28Z</time></trkpt><trkpt lat="44.23032679386037" lon="9.629535267692479"><ele>305.0</ele><time>2026-03-29T16:06:29Z</time></trkpt><trkpt lat="44.23026373262313" lon="9.629372083716833"><ele>305.0</ele><time>2026-03-29T16:06:29.999Z</time></trkpt><trkpt lat="44.230201201072546" lon="9.629207193378148"><ele>305.0</ele><time>2026-03-29T16:06:30.999Z</time></trkpt><trkpt lat="44.23013993881629" lon="9.62903820512304"><ele>301.5</ele><time>2026-03-29T16:06:31.999Z</time></trkpt><trkpt lat="44.23008028424876" lon="9.628864601531024"><ele>298.0</ele><time>2026-03-29T16:06:32.999Z</time></trkpt><trkpt lat="44.23001795267379" lon="9.628690440912928"><ele>294.5</ele><time>2026-03-29T16:06:33.999Z</time></trkpt><trkpt lat="44.22995951354175" lon="9.628498040114952"><ele>291.0</ele><time>2026-03-29T16:06:34.999Z</time></trkpt><trkpt lat="44.22990097468661" lon="9.628296376052596"><ele>287.3333333333333</ele><time>2026-03-29T16:06:35.999Z</time></trkpt><trkpt lat="44.229840784352554" lon="9.628072873475402"><ele>283.66666666666663</ele><time>2026-03-29T16:06:36.999Z</time></trkpt><trkpt lat="44.22977595045987" lon="9.627836390157347"><ele>280.0</ele><time>2026-03-29T16:06:37.999Z</time></trkpt><trkpt lat="44.22972622262188" lon="9.62760214201219"><ele>289.5</ele><time>2026-03-29T16:06:38.999Z</time></trkpt><trkpt lat="44.22967348016604" lon="9.627406272748866"><ele>299.0</ele><time>2026-03-29T16:06:39.999Z</time></trkpt><trkpt lat="44.229633884284105" lon="9.627208102166515"><ele>308.5</ele><time>2026-03-29T16:06:40.999Z</time></trkpt><trkpt lat="44.229597941762755" lon="9.627018152438481"><ele>318.0</ele><time>2026-03-29T16:06:41.999Z</time></trkpt><trkpt lat="44.22956550597719" lon="9.626825731932755"><ele>318.0</ele><time>2026-03-29T16:06:42.999Z</time></trkpt><trkpt lat="44.22953351457516" lon="9.6266270589021"><ele>318.0</ele><time>2026-03-29T16:06:43.999Z</time></trkpt><trkpt lat="44.22950451859463" lon="9.62641948922128"><ele>318.0</ele><time>2026-03-29T16:06:44.999Z</time></trkpt><trkpt lat="44.22947969604757" lon="9.626201705430084"><ele>317.0</ele><time>2026-03-29T16:06:45.999Z</time></trkpt><trkpt lat="44.229455750004355" lon="9.625975430240642"><ele>316.0</ele><time>2026-03-29T16:06:46.999Z</time></trkpt><trkpt lat="44.22943661645561" lon="9.625741381491379"><ele>315.0</ele><time>2026-03-29T16:06:47.999Z</time></trkpt><trkpt lat="44.229424370591666" lon="9.625510733817272"><ele>312.3333333333333</ele><time>2026-03-29T16:06:48.999Z</time></trkpt><trkpt lat="44.229416236233135" lon="9.625296388749586"><ele>309.66666666666663</ele><time>2026-03-29T16:06:49.999Z</time></trkpt><trkpt lat="44.229409315220515" lon="9.625075920690952"><ele>307.0</ele><time>2026-03-29T16:06:50.999Z</time></trkpt><trkpt lat="44.2294013620964" lon="9.624851630897705"><ele>307.0</ele><time>2026-03-29T16:06:51.999Z</time></trkpt><trkpt lat="44.229398272385154" lon="9.624626949803183"><ele>307.0</ele><time>2026-03-29T16:06:52.999Z</time></trkpt><trkpt lat="44.229396062270695" lon="9.624397169020163"><ele>307.0</ele><time>2026-03-29T16:06:53.999Z</time></trkpt><trkpt lat="44.22938811171542" lon="9.624164249157742"><ele>301.3333333333333</ele><time>2026-03-29T16:06:54.999Z</time></trkpt><trkpt lat="44.22937995082674" lon="9.623927258647145"><ele>295.6666666666667</ele><time>2026-03-29T16:06:55.999Z</time></trkpt><trkpt lat="44.22937029385748" lon="9.623698450415102"><ele>290.0</ele><time>2026-03-29T16:06:56.999Z</time></trkpt><trkpt lat="44.2293563557594" lon="9.623485883769735"><ele>290.0</ele><time>2026-03-29T16:06:57.999Z</time></trkpt><trkpt lat="44.2293412551492" lon="9.623275490370856"><ele>290.0</ele><time>2026-03-29T16:06:58.999Z</time></trkpt><trkpt lat="44.229321574334094" lon="9.623064185064083"><ele>290.0</ele><time>2026-03-29T16:06:59.999Z</time></trkpt><trkpt lat="44.22930072820809" lon="9.622853169776452"><ele>293.33333333333337</ele><time>2026-03-29T16:07:00.999Z</time></trkpt><trkpt lat="44.2292797588255" lon="9.622642995383812"><ele>296.6666666666667</ele><time>2026-03-29T16:07:01.999Z</time></trkpt><trkpt lat="44.229250797223244" lon="9.622434317024904"><ele>300.0</ele><time>2026-03-29T16:07:02.999Z</time></trkpt><trkpt lat="44.229219123447145" lon="9.622218121399582"><ele>300.0</ele><time>2026-03-29T16:07:03.999Z</time></trkpt><trkpt lat="44.229182356515004" lon="9.62200093088872"><ele>300.0</ele><time>2026-03-29T16:07:04.999Z</time></trkpt><trkpt lat="44.229143804263764" lon="9.621777342274278"><ele>300.0</ele><time>2026-03-29T16:07:05.999Z</time></trkpt><trkpt lat="44.229098477128744" lon="9.62155240144311"><ele>298.6666666666667</ele><time>2026-03-29T16:07:06.999Z</time></trkpt><trkpt lat="44.22904764395826" lon="9.621321902244462"><ele>297.33333333333337</ele><time>2026-03-29T16:07:07.999Z</time></trkpt><trkpt lat="44.22899255899156" lon="9.62108942613933"><ele>296.0</ele><time>2026-03-29T16:07:08.999Z</time></trkpt><trkpt lat="44.228936057090124" lon="9.620874477284145"><ele>302.25</ele><time>2026-03-29T16:07:09.999Z</time></trkpt><trkpt lat="44.22888323033374" lon="9.620678717053996"><ele>308.5</ele><time>2026-03-29T16:07:10.999Z</time></trkpt><trkpt lat="44.22884280282845" lon="9.620485696320404"><ele>314.75</ele><time>2026-03-29T16:07:11.999Z</time></trkpt><trkpt lat="44.22877425860966" lon="9.620307457335686"><ele>321.0</ele><time>2026-03-29T16:07:12.999Z</time></trkpt><trkpt lat="44.22872640132481" lon="9.620131822239372"><ele>321.0</ele><time>2026-03-29T16:07:13.999Z</time></trkpt><trkpt lat="44.22867981608326" lon="9.619971609781983"><ele>321.0</ele><time>2026-03-29T16:07:14.999Z</time></trkpt><trkpt lat="44.22863020736599" lon="9.619813996488755"><ele>321.0</ele><time>2026-03-29T16:07:15.999Z</time></trkpt><trkpt lat="44.22858002166847" lon="9.619655539259908"><ele>321.0</ele><time>2026-03-29T16:07:17Z</time></trkpt><trkpt lat="44.228535748587824" lon="9.61950835375747"><ele>320.0</ele><time>2026-03-29T16:07:18Z</time></trkpt><trkpt lat="44.22849637600603" lon="9.619369734239372"><ele>319.0</ele><time>2026-03-29T16:07:19Z</time></trkpt><trkpt lat="44.22846027961554" lon="9.619223202666165"><ele>318.0</ele><time>2026-03-29T16:07:20Z</time></trkpt><trkpt lat="44.22843053574473" lon="9.619074707401973"><ele>317.0</ele><time>2026-03-29T16:07:21Z</time></trkpt><trkpt lat="44.22839843022294" lon="9.618916083492243"><ele>316.0</ele><time>2026-03-29T16:07:22Z</time></trkpt><trkpt lat="44.228353138275374" lon="9.618732670144452"><ele>312.0</ele><time>2026-03-29T16:07:23Z</time></trkpt><trkpt lat="44.22829347031382" lon="9.618526027915076"><ele>308.0</ele><time>2026-03-29T16:07:24Z</time></trkpt><trkpt lat="44.2282247838501" lon="9.618283517965079"><ele>304.0</ele><time>2026-03-29T16:07:25Z</time></trkpt><trkpt lat="44.22815529627138" lon="9.618014144191731"><ele>308.0</ele><time>2026-03-29T16:07:26Z</time></trkpt><trkpt lat="44.22809655963168" lon="9.617750395179385"><ele>312.0</ele><time>2026-03-29T16:07:27Z</time></trkpt><trkpt lat="44.22803693562537" lon="9.61747196635247"><ele>316.0</ele><time>2026-03-29T16:07:28Z</time></trkpt><trkpt lat="44.227983264964465" lon="9.617175293349217"><ele>311.5</ele><time>2026-03-29T16:07:29Z</time></trkpt><trkpt lat="44.2279354792468" lon="9.616861716465523"><ele>307.0</ele><time>2026-03-29T16:07:30Z</time></trkpt><trkpt lat="44.2278929425323" lon="9.616543221642015"><ele>307.0</ele><time>2026-03-29T16:07:31Z</time></trkpt><trkpt lat="44.22785731323489" lon="9.616216249286762"><ele>307.0</ele><time>2026-03-29T16:07:32Z</time></trkpt><trkpt lat="44.22782897722836" lon="9.615880941682649"><ele>312.5</ele><time>2026-03-29T16:07:33Z</time></trkpt><trkpt lat="44.227808712460046" lon="9.615537474924828"><ele>318.0</ele><time>2026-03-29T16:07:34Z</time></trkpt><trkpt lat="44.227797734243055" lon="9.615198433073678"><ele>330.5</ele><time>2026-03-29T16:07:35Z</time></trkpt><trkpt lat="44.227798299903014" lon="9.614869997413068"><ele>343.0</ele><time>2026-03-29T16:07:36Z</time></trkpt><trkpt lat="44.227805666023905" lon="9.61451675780666"><ele>356.0</ele><time>2026-03-29T16:07:37Z</time></trkpt><trkpt lat="44.22782436301755" lon="9.614146064500567"><ele>369.0</ele><time>2026-03-29T16:07:38.017Z</time></trkpt><trkpt lat="44.22785212956841" lon="9.613784893866304"><ele>383.5</ele><time>2026-03-29T16:07:39.02Z</time></trkpt><trkpt lat="44.22788542311957" lon="9.613449338768778"><ele>398.0</ele><time>2026-03-29T16:07:40.016Z</time></trkpt><trkpt lat="44.2279229277414" lon="9.613132301754812"><ele>408.5</ele><time>2026-03-29T16:07:41.019Z</time></trkpt><trkpt lat="44.22796485713431" lon="9.612822177085468"><ele>419.0</ele><time>2026-03-29T16:07:42.017Z</time></trkpt><trkpt lat="44.22915156934804" lon="9.610167983928331"><ele>374.5</ele><time>2026-03-29T16:07:51Z</time></trkpt><trkpt lat="44.229275810377054" lon="9.60986296790535"><ele>330.0</ele><time>2026-03-29T16:07:52Z</time></trkpt><trkpt lat="44.229120476235224" lon="9.609467410869115"><ele>321.5</ele><time>2026-03-29T16:07:53Z</time></trkpt><trkpt lat="44.22927137281151" lon="9.609174751671532"><ele>313.0</ele><time>2026-03-29T16:07:54Z</time></trkpt><trkpt lat="44.22941268175797" lon="9.608898787985785"><ele>319.5</ele><time>2026-03-29T16:07:55Z</time></trkpt><trkpt lat="44.22955428391274" lon="9.608635450013185"><ele>326.0</ele><time>2026-03-29T16:07:56Z</time></trkpt><trkpt lat="44.2296993216594" lon="9.608379099902898"><ele>321.0</ele><time>2026-03-29T16:07:57Z</time></trkpt><trkpt lat="44.22984230875445" lon="9.608119028304772"><ele>316.0</ele><time>2026-03-29T16:07:58Z</time></trkpt><trkpt lat="44.2299882511871" lon="9.607859839298191"><ele>324.0</ele><time>2026-03-29T16:07:59Z</time></trkpt><trkpt lat="44.230138816549015" lon="9.607599135467515"><ele>332.0</ele><time>2026-03-29T16:08:00Z</time></trkpt><trkpt lat="44.2302907966749" lon="9.607334727843524"><ele>332.0</ele><time>2026-03-29T16:08:01Z</time></trkpt><trkpt lat="44.23043925449341" lon="9.607066435055302"><ele>332.0</ele><time>2026-03-29T16:08:02Z</time></trkpt><trkpt lat="44.23058878718407" lon="9.60679655642917"><ele>319.5</ele><time>2026-03-29T16:08:03Z</time></trkpt><trkpt lat="44.230740124523315" lon="9.606523061953194"><ele>307.0</ele><time>2026-03-29T16:08:04Z</time></trkpt><trkpt lat="44.23088508684775" lon="9.606259190950093"><ele>308.3333333333333</ele><time>2026-03-29T16:08:05Z</time></trkpt><trkpt lat="44.23101958825091" lon="9.606020081303248"><ele>309.6666666666667</ele><time>2026-03-29T16:08:06Z</time></trkpt><trkpt lat="44.231148174395585" lon="9.60579526108533"><ele>311.0</ele><time>2026-03-29T16:08:07Z</time></trkpt><trkpt lat="44.23127242205944" lon="9.6055742093357"><ele>311.0</ele><time>2026-03-29T16:08:08Z</time></trkpt><trkpt lat="44.23140783832117" lon="9.60534766569114"><ele>311.0</ele><time>2026-03-29T16:08:09Z</time></trkpt><trkpt lat="44.23154780030668" lon="9.605108881840412"><ele>311.0</ele><time>2026-03-29T16:08:10Z</time></trkpt><trkpt lat="44.23168974489842" lon="9.604869091740419"><ele>322.0</ele><time>2026-03-29T16:08:11Z</time></trkpt><trkpt lat="44.23183463538673" lon="9.604632731440141"><ele>333.0</ele><time>2026-03-29T16:08:12Z</time></trkpt><trkpt lat="44.231988157959606" lon="9.604397879145628"><ele>334.5</ele><time>2026-03-29T16:08:13Z</time></trkpt><trkpt lat="44.232152426444095" lon="9.604167764563265"><ele>336.0</ele><time>2026-03-29T16:08:14Z</time></trkpt><trkpt lat="44.232315975309895" lon="9.603950345920468"><ele>336.0</ele><time>2026-03-29T16:08:15Z</time></trkpt><trkpt lat="44.23247410381421" lon="9.603758934258748"><ele>336.0</ele><time>2026-03-29T16:08:16Z</time></trkpt><trkpt lat="44.23262724682491" lon="9.603584085690986"><ele>336.0</ele><time>2026-03-29T16:08:17Z</time></trkpt><trkpt lat="44.23278314416528" lon="9.603417987973664"><ele>340.6666666666667</ele><time>2026-03-29T16:08:18Z</time></trkpt><trkpt lat="44.232949833085655" lon="9.603246375819161"><ele>345.33333333333337</ele><time>2026-03-29T16:08:19Z</time></trkpt><trkpt lat="44.23312237263242" lon="9.603069441028822"><ele>350.0</ele><time>2026-03-29T16:08:20Z</time></trkpt><trkpt lat="44.233307739235364" lon="9.602889806949742"><ele>355.5</ele><time>2026-03-29T16:08:21Z</time></trkpt><trkpt lat="44.233497880585475" lon="9.602706927376735"><ele>361.0</ele><time>2026-03-29T16:08:22Z</time></trkpt><trkpt lat="44.233688428007596" lon="9.602518292695933"><ele>361.0</ele><time>2026-03-29T16:08:23Z</time></trkpt><trkpt lat="44.23388046163729" lon="9.602327171671567"><ele>361.0</ele><time>2026-03-29T16:08:24.017Z</time></trkpt><trkpt lat="44.23407067701192" lon="9.602141543048287"><ele>380.5</ele><time>2026-03-29T16:08:25.018Z</time></trkpt><trkpt lat="44.234260720883455" lon="9.601951443574459"><ele>400.0</ele><time>2026-03-29T16:08:26.017Z</time></trkpt><trkpt lat="44.23445355361981" lon="9.601757558620566"><ele>351.0</ele><time>2026-03-29T16:08:27.019Z</time></trkpt><trkpt lat="44.235918950330685" lon="9.600489316517114"><ele>351.0</ele><time>2026-03-29T16:08:35.999Z</time></trkpt><trkpt lat="44.236083487956364" lon="9.600336398234221"><ele>351.0</ele><time>2026-03-29T16:08:36.999Z</time></trkpt><trkpt lat="44.23623058320965" lon="9.600211950153621"><ele>351.0</ele><time>2026-03-29T16:08:37.999Z</time></trkpt><trkpt lat="44.23638215165503" lon="9.60004400898153"><ele>347.0</ele><time>2026-03-29T16:08:38.999Z</time></trkpt><trkpt lat="44.23653795363765" lon="9.599877209340942"><ele>343.0</ele><time>2026-03-29T16:08:39.999Z</time></trkpt><trkpt lat="44.23669120957164" lon="9.599713471446703"><ele>339.0</ele><time>2026-03-29T16:08:40.999Z</time></trkpt><trkpt lat="44.23684357743083" lon="9.599531385474524"><ele>343.6666666666667</ele><time>2026-03-29T16:08:41.999Z</time></trkpt><trkpt lat="44.23699497237181" lon="9.599347815954143"><ele>348.33333333333337</ele><time>2026-03-29T16:08:42.999Z</time></trkpt><trkpt lat="44.23714158487179" lon="9.599159754668651"><ele>353.0</ele><time>2026-03-29T16:08:43.999Z</time></trkpt><trkpt lat="44.23728813288203" lon="9.59894746681471"><ele>348.33333333333337</ele><time>2026-03-29T16:08:44.999Z</time></trkpt><trkpt lat="44.2374399184074" lon="9.598734151240384"><ele>343.6666666666667</ele><time>2026-03-29T16:08:45.999Z</time></trkpt><trkpt lat="44.237590697299865" lon="9.598504905625157"><ele>339.0</ele><time>2026-03-29T16:08:46.999Z</time></trkpt><trkpt lat="44.237731732614265" lon="9.598264343994586"><ele>339.0</ele><time>2026-03-29T16:08:47.999Z</time></trkpt><trkpt lat="44.2378604378923" lon="9.59803915786017"><ele>339.0</ele><time>2026-03-29T16:08:48.999Z</time></trkpt><trkpt lat="44.23798045647603" lon="9.597828331872645"><ele>339.0</ele><time>2026-03-29T16:08:49.999Z</time></trkpt><trkpt lat="44.238089619876824" lon="9.59760740951565"><ele>334.5</ele><time>2026-03-29T16:08:50.999Z</time></trkpt><trkpt lat="44.23821350941968" lon="9.597339567361818"><ele>330.0</ele><time>2026-03-29T16:08:51.999Z</time></trkpt><trkpt lat="44.238333825585876" lon="9.597067935725004"><ele>333.5</ele><time>2026-03-29T16:08:52.999Z</time></trkpt><trkpt lat="44.23845257847767" lon="9.596775307297735"><ele>337.0</ele><time>2026-03-29T16:08:53.999Z</time></trkpt><trkpt lat="44.238586372640576" lon="9.59645847224578"><ele>338.5</ele><time>2026-03-29T16:08:54.999Z</time></trkpt><trkpt lat="44.238703651796996" lon="9.5961398217054"><ele>340.0</ele><time>2026-03-29T16:08:55.999Z</time></trkpt><trkpt lat="44.238810259510984" lon="9.595746674530925"><ele>340.0</ele><time>2026-03-29T16:08:56.999Z</time></trkpt><trkpt lat="44.23892581797378" lon="9.59538892638817"><ele>340.0</ele><time>2026-03-29T16:08:57.999Z</time></trkpt><trkpt lat="44.239041911220376" lon="9.595019466990161"><ele>343.0</ele><time>2026-03-29T16:08:58.999Z</time></trkpt><trkpt lat="44.23915147130301" lon="9.594644780750746"><ele>346.0</ele><time>2026-03-29T16:08:59.999Z</time></trkpt><trkpt lat="44.239244774845105" lon="9.59427866686809"><ele>346.5</ele><time>2026-03-29T16:09:00.999Z</time></trkpt><trkpt lat="44.23931563745478" lon="9.593930179646858"><ele>347.0</ele><time>2026-03-29T16:09:01.999Z</time></trkpt><trkpt lat="44.23937438664972" lon="9.593596981476955"><ele>350.0</ele><time>2026-03-29T16:09:02.999Z</time></trkpt><trkpt lat="44.239425368748286" lon="9.593250950407954"><ele>353.0</ele><time>2026-03-29T16:09:03.999Z</time></trkpt><trkpt lat="44.239469209182275" lon="9.59289774718655"><ele>363.5</ele><time>2026-03-29T16:09:04.999Z</time></trkpt><trkpt lat="44.23950284660314" lon="9.592541061938322"><ele>374.0</ele><time>2026-03-29T16:09:05.999Z</time></trkpt><trkpt lat="44.23954410857021" lon="9.592201735911106"><ele>389.5</ele><time>2026-03-29T16:09:06.999Z</time></trkpt><trkpt lat="44.23958249618828" lon="9.591859824918963"><ele>405.0</ele><time>2026-03-29T16:09:07.999Z</time></trkpt><trkpt lat="44.239623102511985" lon="9.59150965802486"><ele>414.0</ele><time>2026-03-29T16:09:09.02Z</time></trkpt><trkpt lat="44.23966323126368" lon="9.59116750031488"><ele>423.0</ele><time>2026-03-29T16:09:10.016Z</time></trkpt><trkpt lat="44.239702629139266" lon="9.590821646364352"><ele>423.0</ele><time>2026-03-29T16:09:11.018Z</time></trkpt><trkpt lat="44.23973983234861" lon="9.590475020308638"><ele>423.0</ele><time>2026-03-29T16:09:12.015Z</time></trkpt><trkpt lat="44.23967437822766" lon="9.571301853293154"><ele>379.5</ele><time>2026-03-29T16:10:00.999Z</time></trkpt><trkpt lat="44.2398112667033" lon="9.570934851379542"><ele>336.0</ele><time>2026-03-29T16:10:01.999Z</time></trkpt><trkpt lat="44.23993017455293" lon="9.570549610882464"><ele>328.5</ele><time>2026-03-29T16:10:02.999Z</time></trkpt><trkpt lat="44.240082879272755" lon="9.570190107255542"><ele>321.0</ele><time>2026-03-29T16:10:03.999Z</time></trkpt><trkpt lat="44.24024269170113" lon="9.569833888038765"><ele>316.5</ele><time>2026-03-29T16:10:04.999Z</time></trkpt><trkpt lat="44.240408792844555" lon="9.569490175288704"><ele>312.0</ele><time>2026-03-29T16:10:05.999Z</time></trkpt><trkpt lat="44.24058636779123" lon="9.569143817756265"><ele>317.0</ele><time>2026-03-29T16:10:07Z</time></trkpt><trkpt lat="44.2407711638144" lon="9.568809444943291"><ele>322.0</ele><time>2026-03-29T16:10:08Z</time></trkpt><trkpt lat="44.24096870546442" lon="9.568479322852596"><ele>322.0</ele><time>2026-03-29T16:10:09Z</time></trkpt><trkpt lat="44.241170362176256" lon="9.568141825804611"><ele>322.0</ele><time>2026-03-29T16:10:10Z</time></trkpt><trkpt lat="44.24136921536115" lon="9.567808484244633"><ele>337.5</ele><time>2026-03-29T16:10:11Z</time></trkpt><trkpt lat="44.24154782902025" lon="9.567506559338915"><ele>353.0</ele><time>2026-03-29T16:10:12Z</time></trkpt><trkpt lat="44.241710471845956" lon="9.567214047171445"><ele>369.0</ele><time>2026-03-29T16:10:13Z</time></trkpt><trkpt lat="44.24187323334936" lon="9.566907204471924"><ele>385.0</ele><time>2026-03-29T16:10:14.02Z</time></trkpt><trkpt lat="44.242033641719665" lon="9.566601036418605"><ele>385.0</ele><time>2026-03-29T16:10:15.016Z</time></trkpt><trkpt lat="44.24219816357849" lon="9.566299285487009"><ele>385.0</ele><time>2026-03-29T16:10:16.02Z</time></trkpt><trkpt lat="44.24232835138246" lon="9.56596783214069"><ele>394.5</ele><time>2026-03-29T16:10:17.017Z</time></trkpt><trkpt lat="44.24244759276883" lon="9.565632106504358"><ele>404.0</ele><time>2026-03-29T16:10:18.02Z</time></trkpt><trkpt lat="44.24292338804943" lon="9.562893619672975"><ele>327.0</ele><time>2026-03-29T16:10:21.118Z</time></trkpt><trkpt lat="44.24296226356574" lon="9.561296207839215"><ele>312.0</ele><time>2026-03-29T16:10:29Z</time></trkpt><trkpt lat="44.24294891457333" lon="9.560918234130117"><ele>297.0</ele><time>2026-03-29T16:10:30Z</time></trkpt><trkpt lat="44.242890141269314" lon="9.560531216238608"><ele>286.5</ele><time>2026-03-29T16:10:31Z</time></trkpt><trkpt lat="44.24284778705275" lon="9.5601627805822"><ele>276.0</ele><time>2026-03-29T16:10:32Z</time></trkpt><trkpt lat="44.24280096490787" lon="9.559786014419538"><ele>273.5</ele><time>2026-03-29T16:10:33Z</time></trkpt><trkpt lat="44.2427565640403" lon="9.55940494549501"><ele>271.0</ele><time>2026-03-29T16:10:34Z</time></trkpt><trkpt lat="44.2427092839493" lon="9.559022271232243"><ele>283.0</ele><time>2026-03-29T16:10:35Z</time></trkpt><trkpt lat="44.24266357167115" lon="9.558639204311879"><ele>295.0</ele><time>2026-03-29T16:10:36Z</time></trkpt><trkpt lat="44.24261853488373" lon="9.55825443688163"><ele>295.0</ele><time>2026-03-29T16:10:37Z</time></trkpt><trkpt lat="44.24257259074823" lon="9.557876467047892"><ele>295.0</ele><time>2026-03-29T16:10:38Z</time></trkpt><trkpt lat="44.24252666366161" lon="9.557499524675295"><ele>308.0</ele><time>2026-03-29T16:10:39Z</time></trkpt><trkpt lat="44.24248336613188" lon="9.557123715866606"><ele>321.0</ele><time>2026-03-29T16:10:40Z</time></trkpt><trkpt lat="44.24243794027209" lon="9.556743589936985"><ele>341.0</ele><time>2026-03-29T16:10:41Z</time></trkpt><trkpt lat="44.24238863629439" lon="9.556353187892809"><ele>361.0</ele><time>2026-03-29T16:10:42Z</time></trkpt><trkpt lat="44.24233706291331" lon="9.555959044159291"><ele>374.0</ele><time>2026-03-29T16:10:43.02Z</time></trkpt><trkpt lat="44.24228868944566" lon="9.555566973163371"><ele>387.0</ele><time>2026-03-29T16:10:44.019Z</time></trkpt><trkpt lat="44.24223856743821" lon="9.55514645613782"><ele>376.5</ele><time>2026-03-29T16:10:45.02Z</time></trkpt><trkpt lat="44.242189605143196" lon="9.554731627439566"><ele>366.0</ele><time>2026-03-29T16:10:46.019Z</time></trkpt><trkpt lat="44.242111290853856" lon="9.551933450620252"><ele>362.0</ele><time>2026-03-29T16:10:49.118Z</time></trkpt><trkpt lat="44.242230751855004" lon="9.550693140547187"><ele>331.0</ele><time>2026-03-29T16:10:50.118Z</time></trkpt><trkpt lat="44.24243947070646" lon="9.549475955909005"><ele>312.0</ele><time>2026-03-29T16:10:51.118Z</time></trkpt><trkpt lat="44.242731803138035" lon="9.548464352273893"><ele>312.0</ele><time>2026-03-29T16:11:01Z</time></trkpt><trkpt lat="44.24282408172318" lon="9.548098527951755"><ele>312.0</ele><time>2026-03-29T16:11:02Z</time></trkpt><trkpt lat="44.242931419265126" lon="9.54770766255545"><ele>314.5</ele><time>2026-03-29T16:11:03Z</time></trkpt><trkpt lat="44.24305825812867" lon="9.54736221742324"><ele>317.0</ele><time>2026-03-29T16:11:04Z</time></trkpt><trkpt lat="44.24318861655782" lon="9.547018615354578"><ele>317.0</ele><time>2026-03-29T16:11:05Z</time></trkpt><trkpt lat="44.2433258316603" lon="9.546683023242572"><ele>317.0</ele><time>2026-03-29T16:11:06Z</time></trkpt><trkpt lat="44.2434690153781" lon="9.546353756920452"><ele>312.0</ele><time>2026-03-29T16:11:07Z</time></trkpt><trkpt lat="44.243609698855366" lon="9.546025816967"><ele>307.0</ele><time>2026-03-29T16:11:08Z</time></trkpt><trkpt lat="44.2437485284076" lon="9.545703593377425"><ele>307.0</ele><time>2026-03-29T16:11:09Z</time></trkpt><trkpt lat="44.243891205709865" lon="9.545386331016541"><ele>307.0</ele><time>2026-03-29T16:11:10Z</time></trkpt><trkpt lat="44.24403038645589" lon="9.54506702622875"><ele>304.5</ele><time>2026-03-29T16:11:11Z</time></trkpt><trkpt lat="44.24417462993722" lon="9.54475004959538"><ele>302.0</ele><time>2026-03-29T16:11:12Z</time></trkpt><trkpt lat="44.24431473391217" lon="9.544431114176408"><ele>291.5</ele><time>2026-03-29T16:11:13Z</time></trkpt><trkpt lat="44.24445226257585" lon="9.544108662772683"><ele>281.0</ele><time>2026-03-29T16:11:14Z</time></trkpt><trkpt lat="44.24458089560222" lon="9.54377743563853"><ele>282.0</ele><time>2026-03-29T16:11:15Z</time></trkpt><trkpt lat="44.244700970396224" lon="9.543438639409011"><ele>283.0</ele><time>2026-03-29T16:11:15.999Z</time></trkpt><trkpt lat="44.24481220399719" lon="9.543091946434826"><ele>277.0</ele><time>2026-03-29T16:11:16.999Z</time></trkpt><trkpt lat="44.24491259012973" lon="9.542739575722397"><ele>271.0</ele><time>2026-03-29T16:11:17.999Z</time></trkpt><trkpt lat="44.24500907703301" lon="9.54237256536677"><ele>271.0</ele><time>2026-03-29T16:11:18.999Z</time></trkpt><trkpt lat="44.2450983399149" lon="9.541994754338122"><ele>271.0</ele><time>2026-03-29T16:11:19.999Z</time></trkpt><trkpt lat="44.24518137175832" lon="9.541607219746004"><ele>279.5</ele><time>2026-03-29T16:11:20.999Z</time></trkpt><trkpt lat="44.245258524669765" lon="9.541205739503752"><ele>288.0</ele><time>2026-03-29T16:11:21.999Z</time></trkpt><trkpt lat="44.24532721245146" lon="9.540796607142823"><ele>288.5</ele><time>2026-03-29T16:11:22.999Z</time></trkpt><trkpt lat="44.24539854790202" lon="9.540381445579634"><ele>289.0</ele><time>2026-03-29T16:11:23.999Z</time></trkpt><trkpt lat="44.24547298741011" lon="9.539965586468938"><ele>285.5</ele><time>2026-03-29T16:11:24.999Z</time></trkpt><trkpt lat="44.245545606811426" lon="9.539548734925585"><ele>282.0</ele><time>2026-03-29T16:11:25.999Z</time></trkpt><trkpt lat="44.24561622314594" lon="9.539127705506798"><ele>299.5</ele><time>2026-03-29T16:11:26.999Z</time></trkpt><trkpt lat="44.245692304413915" lon="9.538708145070643"><ele>317.0</ele><time>2026-03-29T16:11:27.999Z</time></trkpt><trkpt lat="44.24576690870864" lon="9.53828927062008"><ele>327.0</ele><time>2026-03-29T16:11:28.999Z</time></trkpt><trkpt lat="44.245834646324134" lon="9.537867573850606"><ele>337.0</ele><time>2026-03-29T16:11:29.999Z</time></trkpt><trkpt lat="44.24589386695308" lon="9.537440043942496"><ele>352.5</ele><time>2026-03-29T16:11:30.999Z</time></trkpt><trkpt lat="44.24595473647515" lon="9.537016646234868"><ele>368.0</ele><time>2026-03-29T16:11:31.999Z</time></trkpt><trkpt lat="44.24601194839538" lon="9.536589247090202"><ele>385.0</ele><time>2026-03-29T16:11:33.016Z</time></trkpt><trkpt lat="44.24607557496741" lon="9.536176757393722"><ele>402.0</ele><time>2026-03-29T16:11:34.017Z</time></trkpt><trkpt lat="44.24613871913294" lon="9.535770795047759"><ele>421.0</ele><time>2026-03-29T16:11:35.02Z</time></trkpt><trkpt lat="44.24620009934599" lon="9.535350187886252"><ele>440.0</ele><time>2026-03-29T16:11:36.017Z</time></trkpt><trkpt lat="44.24663026978272" lon="9.532601768992114"><ele>519.0</ele><time>2026-03-29T16:11:39.118Z</time></trkpt><trkpt lat="44.246843125754765" lon="9.531257466473953"><ele>573.0</ele><time>2026-03-29T16:11:40.118Z</time></trkpt><trkpt lat="44.2470532375641" lon="9.52991104067289"><ele>577.0</ele><time>2026-03-29T16:11:41.118Z</time></trkpt><trkpt lat="44.247267727755" lon="9.528567575401325"><ele>527.0</ele><time>2026-03-29T16:11:42.117Z</time></trkpt><trkpt lat="44.24747507538232" lon="9.527221289702432"><ele>449.0</ele><time>2026-03-29T16:11:43.117Z</time></trkpt><trkpt lat="44.24767703621114" lon="9.525871866542332"><ele>394.0</ele><time>2026-03-29T16:11:44.118Z</time></trkpt><trkpt lat="44.24791962946527" lon="9.524538085782524"><ele>362.0</ele><time>2026-03-29T16:11:45.117Z</time></trkpt><trkpt lat="44.24824963157962" lon="9.523239429626484"><ele>351.0</ele><time>2026-03-29T16:11:46.118Z</time></trkpt><trkpt lat="44.24869248091044" lon="9.522008192432054"><ele>280.0</ele><time>2026-03-29T16:11:47.118Z</time></trkpt><trkpt lat="44.24921634170364" lon="9.520842705215168"><ele>268.0</ele><time>2026-03-29T16:11:48.117Z</time></trkpt><trkpt lat="44.249515528831864" lon="9.520336193972751"><ele>268.0</ele><time>2026-03-29T16:12:11.999Z</time></trkpt><trkpt lat="44.249696654026955" lon="9.519992031721092"><ele>268.0</ele><time>2026-03-29T16:12:12.999Z</time></trkpt><trkpt lat="44.249888369625346" lon="9.51965794918514"><ele>267.5</ele><time>2026-03-29T16:12:13.999Z</time></trkpt><trkpt lat="44.250072942779575" lon="9.519305698597528"><ele>267.0</ele><time>2026-03-29T16:12:14.999Z</time></trkpt><trkpt lat="44.25023709081177" lon="9.518981132965203"><ele>260.0</ele><time>2026-03-29T16:12:15.999Z</time></trkpt><trkpt lat="44.25039712584107" lon="9.518669444006237"><ele>253.0</ele><time>2026-03-29T16:12:16.999Z</time></trkpt><trkpt lat="44.25055428139992" lon="9.518372452849693"><ele>251.0</ele><time>2026-03-29T16:12:18Z</time></trkpt><trkpt lat="44.25071104063557" lon="9.518073967634502"><ele>249.0</ele><time>2026-03-29T16:12:19Z</time></trkpt><trkpt lat="44.25087126803546" lon="9.51777121540558"><ele>249.0</ele><time>2026-03-29T16:12:20Z</time></trkpt><trkpt lat="44.25102801521515" lon="9.517471471913534"><ele>249.0</ele><time>2026-03-29T16:12:21Z</time></trkpt><trkpt lat="44.25118158175363" lon="9.51717052219314"><ele>246.0</ele><time>2026-03-29T16:12:22Z</time></trkpt><trkpt lat="44.25132948381755" lon="9.516879275286671"><ele>243.0</ele><time>2026-03-29T16:12:23Z</time></trkpt><trkpt lat="44.25147593040821" lon="9.51659193406413"><ele>243.0</ele><time>2026-03-29T16:12:24Z</time></trkpt><trkpt lat="44.2516249744106" lon="9.516307961968751"><ele>243.0</ele><time>2026-03-29T16:12:25Z</time></trkpt><trkpt lat="44.25178410328399" lon="9.516010146351633"><ele>240.0</ele><time>2026-03-29T16:12:26Z</time></trkpt><trkpt lat="44.2519479106153" lon="9.515692992847114"><ele>237.0</ele><time>2026-03-29T16:12:27Z</time></trkpt><trkpt lat="44.2521015804111" lon="9.515391647227712"><ele>234.0</ele><time>2026-03-29T16:12:28Z</time></trkpt><trkpt lat="44.25224626122095" lon="9.515089543567555"><ele>231.0</ele><time>2026-03-29T16:12:29Z</time></trkpt><trkpt lat="44.25238577599432" lon="9.514769685149458"><ele>238.0</ele><time>2026-03-29T16:12:30Z</time></trkpt><trkpt lat="44.25252351060372" lon="9.51443840634289"><ele>245.0</ele><time>2026-03-29T16:12:31Z</time></trkpt><trkpt lat="44.25266510979535" lon="9.51410336498098"><ele>245.0</ele><time>2026-03-29T16:12:32Z</time></trkpt><trkpt lat="44.252809109962136" lon="9.513761451974208"><ele>245.0</ele><time>2026-03-29T16:12:33Z</time></trkpt><trkpt lat="44.25295289492232" lon="9.513410429343123"><ele>246.0</ele><time>2026-03-29T16:12:34Z</time></trkpt><trkpt lat="44.253088934750906" lon="9.513049768741325"><ele>247.0</ele><time>2026-03-29T16:12:35Z</time></trkpt><trkpt lat="44.253222665276866" lon="9.512682029795398"><ele>257.5</ele><time>2026-03-29T16:12:36Z</time></trkpt><trkpt lat="44.25335005917137" lon="9.512312715866495"><ele>268.0</ele><time>2026-03-29T16:12:37Z</time></trkpt><trkpt lat="44.25347969619769" lon="9.511935761705006"><ele>276.5</ele><time>2026-03-29T16:12:38.015Z</time></trkpt><trkpt lat="44.25360751850847" lon="9.511566480584378"><ele>285.0</ele><time>2026-03-29T16:12:39.015Z</time></trkpt><trkpt lat="44.2537349805363" lon="9.511192695283606"><ele>289.0</ele><time>2026-03-29T16:12:40.02Z</time></trkpt><trkpt lat="44.25386498735221" lon="9.510812955585589"><ele>293.0</ele><time>2026-03-29T16:12:41.019Z</time></trkpt><trkpt lat="44.25394603057715" lon="9.510420091642839"><ele>226.0</ele><time>2026-03-29T16:12:42.019Z</time></trkpt><trkpt lat="44.25435410816618" lon="9.507714556538973"><ele>226.0</ele><time>2026-03-29T16:12:48Z</time></trkpt><trkpt lat="44.254419204483256" lon="9.507273379395782"><ele>226.0</ele><time>2026-03-29T16:12:49Z</time></trkpt><trkpt lat="44.25447071902704" lon="9.50682681898273"><ele>228.0</ele><time>2026-03-29T16:12:50Z</time></trkpt><trkpt lat="44.254530583797084" lon="9.506393582601913"><ele>230.0</ele><time>2026-03-29T16:12:51Z</time></trkpt><trkpt lat="44.2545989769482" lon="9.5059601689761"><ele>225.5</ele><time>2026-03-29T16:12:52Z</time></trkpt><trkpt lat="44.25465990132028" lon="9.505540109038481"><ele>221.0</ele><time>2026-03-29T16:12:53Z</time></trkpt><trkpt lat="44.25471313852971" lon="9.505190906548611"><ele>215.5</ele><time>2026-03-29T16:12:54Z</time></trkpt><trkpt lat="44.25477052441349" lon="9.504812316520663"><ele>210.0</ele><time>2026-03-29T16:12:55Z</time></trkpt><trkpt lat="44.254813758430764" lon="9.504435222377884"><ele>223.5</ele><time>2026-03-29T16:12:56Z</time></trkpt><trkpt lat="44.25485159800562" lon="9.504073651240702"><ele>237.0</ele><time>2026-03-29T16:12:57Z</time></trkpt><trkpt lat="44.25488256618795" lon="9.503730633120803"><ele>246.0</ele><time>2026-03-29T16:12:58Z</time></trkpt><trkpt lat="44.254916104359495" lon="9.503415208602952"><ele>255.0</ele><time>2026-03-29T16:12:59Z</time></trkpt><trkpt lat="44.254961425932024" lon="9.503021497775872"><ele>269.0</ele><time>2026-03-29T16:13:00Z</time></trkpt><trkpt lat="44.25499199097193" lon="9.502655665508895"><ele>283.0</ele><time>2026-03-29T16:13:01.017Z</time></trkpt><trkpt lat="44.25502621099747" lon="9.502293430376312"><ele>295.0</ele><time>2026-03-29T16:13:02.018Z</time></trkpt><trkpt lat="44.25506109289437" lon="9.501922747938144"><ele>307.0</ele><time>2026-03-29T16:13:03.022Z</time></trkpt><trkpt lat="44.25509504493264" lon="9.50155097696382"><ele>216.0</ele><time>2026-03-29T16:13:04.019Z</time></trkpt><trkpt lat="44.25545980825557" lon="9.497743251244163"><ele>216.0</ele><time>2026-03-29T16:13:15.335Z</time></trkpt><trkpt lat="44.2550190864543" lon="9.497304903352164"><ele>215.0</ele><time>2026-03-29T16:13:16Z</time></trkpt><trkpt lat="44.255009407252025" lon="9.496939285083853"><ele>214.0</ele><time>2026-03-29T16:13:17Z</time></trkpt><trkpt lat="44.25497912663896" lon="9.496604100251968"><ele>214.0</ele><time>2026-03-29T16:13:18Z</time></trkpt><trkpt lat="44.25495326180258" lon="9.496286388774006"><ele>214.0</ele><time>2026-03-29T16:13:19Z</time></trkpt><trkpt lat="44.25494661853989" lon="9.495956086425977"><ele>210.0</ele><time>2026-03-29T16:13:20Z</time></trkpt><trkpt lat="44.25493509341699" lon="9.495613853190957"><ele>206.0</ele><time>2026-03-29T16:13:21Z</time></trkpt><trkpt lat="44.25492495098439" lon="9.495260939481234"><ele>206.0</ele><time>2026-03-29T16:13:22Z</time></trkpt><trkpt lat="44.25491610931939" lon="9.494909421155933"><ele>206.0</ele><time>2026-03-29T16:13:23Z</time></trkpt><trkpt lat="44.254909278071054" lon="9.494555453530884"><ele>218.0</ele><time>2026-03-29T16:13:24Z</time></trkpt><trkpt lat="44.25489776272844" lon="9.494192915125662"><ele>230.0</ele><time>2026-03-29T16:13:25Z</time></trkpt><trkpt lat="44.25487249158059" lon="9.493829634007893"><ele>231.0</ele><time>2026-03-29T16:13:26Z</time></trkpt><trkpt lat="44.254856761200486" lon="9.493470591610706"><ele>232.0</ele><time>2026-03-29T16:13:26.999Z</time></trkpt><trkpt lat="44.254854404459465" lon="9.493092744155193"><ele>221.5</ele><time>2026-03-29T16:13:28.016Z</time></trkpt><trkpt lat="44.25484823296604" lon="9.492718671422118"><ele>211.0</ele><time>2026-03-29T16:13:29.018Z</time></trkpt><trkpt lat="44.25483320589424" lon="9.492325812459208"><ele>205.5</ele><time>2026-03-29T16:13:30.016Z</time></trkpt><trkpt lat="44.25481491592471" lon="9.491955231306779"><ele>200.0</ele><time>2026-03-29T16:13:30.999Z</time></trkpt><trkpt lat="44.254858528325684" lon="9.49163295024781"><ele>200.0</ele><time>2026-03-29T16:13:31.999Z</time></trkpt><trkpt lat="44.254878432092134" lon="9.49126791618171"><ele>200.0</ele><time>2026-03-29T16:13:32.999Z</time></trkpt><trkpt lat="44.254903587967156" lon="9.490903656765909"><ele>201.0</ele><time>2026-03-29T16:13:33.999Z</time></trkpt><trkpt lat="44.25494170825652" lon="9.49054015310806"><ele>202.0</ele><time>2026-03-29T16:13:34.999Z</time></trkpt><trkpt lat="44.25500463764466" lon="9.490179806931414"><ele>196.5</ele><time>2026-03-29T16:13:35.999Z</time></trkpt><trkpt lat="44.255090924492215" lon="9.489827167757396"><ele>191.0</ele><time>2026-03-29T16:13:36.999Z</time></trkpt><trkpt lat="44.25517399082247" lon="9.489499649668689"><ele>184.0</ele><time>2026-03-29T16:13:37.999Z</time></trkpt><trkpt lat="44.255261732768744" lon="9.48917095235803"><ele>177.0</ele><time>2026-03-29T16:13:38.999Z</time></trkpt><trkpt lat="44.25536448959849" lon="9.488843681039132"><ele>181.5</ele><time>2026-03-29T16:13:39.999Z</time></trkpt><trkpt lat="44.255475080390006" lon="9.488520542853779"><ele>186.0</ele><time>2026-03-29T16:13:40.999Z</time></trkpt><trkpt lat="44.25559920439387" lon="9.48820116913707"><ele>212.0</ele><time>2026-03-29T16:13:41.999Z</time></trkpt><trkpt lat="44.255742267721445" lon="9.487893943389425"><ele>238.0</ele><time>2026-03-29T16:13:42.999Z</time></trkpt><trkpt lat="44.255902655873506" lon="9.487583679897728"><ele>238.0</ele><time>2026-03-29T16:13:43.999Z</time></trkpt><trkpt lat="44.25607376548167" lon="9.487268286887321"><ele>238.0</ele><time>2026-03-29T16:13:45.02Z</time></trkpt><trkpt lat="44.25625030711458" lon="9.486976398713061"><ele>243.5</ele><time>2026-03-29T16:13:46.017Z</time></trkpt><trkpt lat="44.25644865434453" lon="9.486698737131768"><ele>249.0</ele><time>2026-03-29T16:13:47.017Z</time></trkpt><trkpt lat="44.25665503003062" lon="9.486430475659986"><ele>267.0</ele><time>2026-03-29T16:13:48.016Z</time></trkpt><trkpt lat="44.2568488979853" lon="9.486162798314675"><ele>285.0</ele><time>2026-03-29T16:13:49.017Z</time></trkpt><trkpt lat="44.25704438090075" lon="9.485895841170077"><ele>174.0</ele><time>2026-03-29T16:13:50.017Z</time></trkpt><trkpt lat="44.261871124658974" lon="9.484211113312732"><ele>174.0</ele><time>2026-03-29T16:14:08.999Z</time></trkpt><trkpt lat="44.26213061158721" lon="9.484157551289607"><ele>174.0</ele><time>2026-03-29T16:14:09.999Z</time></trkpt><trkpt lat="44.262369911116515" lon="9.48407936099263"><ele>170.0</ele><time>2026-03-29T16:14:10.999Z</time></trkpt><trkpt lat="44.26261556324381" lon="9.483981939373148"><ele>166.0</ele><time>2026-03-29T16:14:11.999Z</time></trkpt><trkpt lat="44.26286076917794" lon="9.48387860250622"><ele>168.0</ele><time>2026-03-29T16:14:12.999Z</time></trkpt><trkpt lat="44.26310970143401" lon="9.48375686041748"><ele>170.0</ele><time>2026-03-29T16:14:13.999Z</time></trkpt><trkpt lat="44.26335467774656" lon="9.483605782784572"><ele>170.0</ele><time>2026-03-29T16:14:14.999Z</time></trkpt><trkpt lat="44.2635973882478" lon="9.483454109594781"><ele>170.0</ele><time>2026-03-29T16:14:15.999Z</time></trkpt><trkpt lat="44.26383514424779" lon="9.483278925555787"><ele>159.0</ele><time>2026-03-29T16:14:16.999Z</time></trkpt><trkpt lat="44.264063942010026" lon="9.48308207946532"><ele>148.0</ele><time>2026-03-29T16:14:17.999Z</time></trkpt><trkpt lat="44.26427692017688" lon="9.482864647152576"><ele>148.0</ele><time>2026-03-29T16:14:18.999Z</time></trkpt><trkpt lat="44.26449062420654" lon="9.482634437423682"><ele>148.0</ele><time>2026-03-29T16:14:19.999Z</time></trkpt><trkpt lat="44.26470360893679" lon="9.482411936792065"><ele>138.5</ele><time>2026-03-29T16:14:20.999Z</time></trkpt><trkpt lat="44.26491261172689" lon="9.482191741891516"><ele>129.0</ele><time>2026-03-29T16:14:21.999Z</time></trkpt><trkpt lat="44.265118151509036" lon="9.481973950157247"><ele>129.0</ele><time>2026-03-29T16:14:22.999Z</time></trkpt><trkpt lat="44.26532009518129" lon="9.481735222317832"><ele>129.0</ele><time>2026-03-29T16:14:24Z</time></trkpt><trkpt lat="44.26553145190892" lon="9.48150737393604"><ele>127.0</ele><time>2026-03-29T16:14:25Z</time></trkpt><trkpt lat="44.26574182289264" lon="9.481274938187275"><ele>125.0</ele><time>2026-03-29T16:14:26Z</time></trkpt><trkpt lat="44.26595506623152" lon="9.481045510538197"><ele>136.5</ele><time>2026-03-29T16:14:27Z</time></trkpt><trkpt lat="44.26616727140769" lon="9.480812024992819"><ele>148.0</ele><time>2026-03-29T16:14:28Z</time></trkpt><trkpt lat="44.26637588874291" lon="9.480572736576802"><ele>147.5</ele><time>2026-03-29T16:14:29Z</time></trkpt><trkpt lat="44.26658196396104" lon="9.480323428729939"><ele>147.0</ele><time>2026-03-29T16:14:30Z</time></trkpt><trkpt lat="44.26678234504837" lon="9.480061001110448"><ele>147.0</ele><time>2026-03-29T16:14:31Z</time></trkpt><trkpt lat="44.26698241512516" lon="9.479792264898505"><ele>147.0</ele><time>2026-03-29T16:14:32Z</time></trkpt><trkpt lat="44.26717750544492" lon="9.479516765594465"><ele>140.0</ele><time>2026-03-29T16:14:33Z</time></trkpt><trkpt lat="44.26737239080252" lon="9.479234318653305"><ele>133.0</ele><time>2026-03-29T16:14:34Z</time></trkpt><trkpt lat="44.267564614095235" lon="9.478945678508053"><ele>143.0</ele><time>2026-03-29T16:14:35Z</time></trkpt><trkpt lat="44.267754672061244" lon="9.47864873554357"><ele>153.0</ele><time>2026-03-29T16:14:36Z</time></trkpt><trkpt lat="44.26793703858281" lon="9.478342572271213"><ele>147.5</ele><time>2026-03-29T16:14:37Z</time></trkpt><trkpt lat="44.26811965189867" lon="9.478034081232554"><ele>142.0</ele><time>2026-03-29T16:14:38Z</time></trkpt><trkpt lat="44.26829889593222" lon="9.477722109781531"><ele>142.0</ele><time>2026-03-29T16:14:39Z</time></trkpt><trkpt lat="44.26847482448897" lon="9.477405400938757"><ele>142.0</ele><time>2026-03-29T16:14:40Z</time></trkpt><trkpt lat="44.26863785990108" lon="9.477092792371025"><ele>157.5</ele><time>2026-03-29T16:14:41Z</time></trkpt><trkpt lat="44.26879977002201" lon="9.476776144261272"><ele>173.0</ele><time>2026-03-29T16:14:42Z</time></trkpt><trkpt lat="44.26896573971476" lon="9.476449871065638"><ele>183.5</ele><time>2026-03-29T16:14:43.019Z</time></trkpt><trkpt lat="44.269130075323716" lon="9.47613051335368"><ele>194.0</ele><time>2026-03-29T16:14:44.019Z</time></trkpt><trkpt lat="44.269294570745025" lon="9.475804213297284"><ele>194.0</ele><time>2026-03-29T16:14:45.02Z</time></trkpt><trkpt lat="44.26943650656151" lon="9.47546092134964"><ele>194.0</ele><time>2026-03-29T16:14:46.02Z</time></trkpt><trkpt lat="44.26958349041253" lon="9.47512884797302"><ele>175.0</ele><time>2026-03-29T16:14:47.018Z</time></trkpt><trkpt lat="44.27054150331996" lon="9.472629007190163"><ele>128.0</ele><time>2026-03-29T16:14:50.116Z</time></trkpt><trkpt lat="44.2708371" lon="9.4715776"><ele>115.0</ele><time>2026-03-29T16:14:51.115Z</time></trkpt><trkpt lat="44.27096699834267" lon="9.470995031306026"><ele>102.0</ele><time>2026-03-29T16:14:57Z</time></trkpt><trkpt lat="44.2710498983566" lon="9.470606109265216"><ele>102.5</ele><time>2026-03-29T16:14:58Z</time></trkpt><trkpt lat="44.27108101631249" lon="9.47021496033008"><ele>103.0</ele><time>2026-03-29T16:14:59Z</time></trkpt><trkpt lat="44.27112559935688" lon="9.469814451658092"><ele>113.5</ele><time>2026-03-29T16:15:00Z</time></trkpt><trkpt lat="44.2711573611038" lon="9.469418065038488"><ele>124.0</ele><time>2026-03-29T16:15:01Z</time></trkpt><trkpt lat="44.27117838307818" lon="9.469017628935687"><ele>126.5</ele><time>2026-03-29T16:15:02Z</time></trkpt><trkpt lat="44.2711913379312" lon="9.468617886630565"><ele>129.0</ele><time>2026-03-29T16:15:03Z</time></trkpt><trkpt lat="44.27119001931114" lon="9.46821978852512"><ele>123.5</ele><time>2026-03-29T16:15:04Z</time></trkpt><trkpt lat="44.271174835475996" lon="9.467818472480573"><ele>118.0</ele><time>2026-03-29T16:15:05Z</time></trkpt><trkpt lat="44.27114941596576" lon="9.4674158850166"><ele>113.5</ele><time>2026-03-29T16:15:06Z</time></trkpt><trkpt lat="44.27111755374722" lon="9.46701387959791"><ele>109.0</ele><time>2026-03-29T16:15:07Z</time></trkpt><trkpt lat="44.27107281234742" lon="9.466615463103512"><ele>108.5</ele><time>2026-03-29T16:15:08Z</time></trkpt><trkpt lat="44.27101613015797" lon="9.466216557193045"><ele>108.0</ele><time>2026-03-29T16:15:09Z</time></trkpt><trkpt lat="44.27095469104405" lon="9.465817250750415"><ele>109.5</ele><time>2026-03-29T16:15:10Z</time></trkpt><trkpt lat="44.270890430437966" lon="9.465410503275706"><ele>111.0</ele><time>2026-03-29T16:15:11Z</time></trkpt><trkpt lat="44.27082435830495" lon="9.464999927363413"><ele>116.0</ele><time>2026-03-29T16:15:12Z</time></trkpt><trkpt lat="44.27075524730953" lon="9.464591498903204"><ele>121.0</ele><time>2026-03-29T16:15:13Z</time></trkpt><trkpt lat="44.27069464645898" lon="9.46420797811478"><ele>121.0</ele><time>2026-03-29T16:15:14Z</time></trkpt><trkpt lat="44.27064012890356" lon="9.463837322555337"><ele>121.0</ele><time>2026-03-29T16:15:15Z</time></trkpt><trkpt lat="44.27058437600893" lon="9.463461293818359"><ele>124.0</ele><time>2026-03-29T16:15:16Z</time></trkpt><trkpt lat="44.270526368793355" lon="9.463100908872095"><ele>127.0</ele><time>2026-03-29T16:15:17Z</time></trkpt><trkpt lat="44.27047194280055" lon="9.462758528379885"><ele>115.0</ele><time>2026-03-29T16:15:18Z</time></trkpt><trkpt lat="44.27041831766217" lon="9.462426391539147"><ele>103.0</ele><time>2026-03-29T16:15:19Z</time></trkpt><trkpt lat="44.27036463134558" lon="9.462089652238948"><ele>93.5</ele><time>2026-03-29T16:15:20Z</time></trkpt><trkpt lat="44.270312436983204" lon="9.46175043651123"><ele>84.0</ele><time>2026-03-29T16:15:21Z</time></trkpt><trkpt lat="44.270258175279814" lon="9.461405642787952"><ele>77.0</ele><time>2026-03-29T16:15:22Z</time></trkpt><trkpt lat="44.270206060034184" lon="9.461061749096995"><ele>70.0</ele><time>2026-03-29T16:15:23Z</time></trkpt><trkpt lat="44.27015268668052" lon="9.460728576608068"><ele>64.5</ele><time>2026-03-29T16:15:24Z</time></trkpt><trkpt lat="44.27009826260203" lon="9.460404335012722"><ele>59.0</ele><time>2026-03-29T16:15:25Z</time></trkpt><trkpt lat="44.27004451983892" lon="9.460080837451644"><ele>59.0</ele><time>2026-03-29T16:15:26Z</time></trkpt><trkpt lat="44.26999267765638" lon="9.459765568323842"><ele>59.0</ele><time>2026-03-29T16:15:27Z</time></trkpt><trkpt lat="44.26994556397922" lon="9.45946799759442"><ele>55.333333333333336</ele><time>2026-03-29T16:15:28Z</time></trkpt><trkpt lat="44.26989951194872" lon="9.459186682041334"><ele>51.66666666666667</ele><time>2026-03-29T16:15:29Z</time></trkpt><trkpt lat="44.26985430082607" lon="9.458906167607614"><ele>48.0</ele><time>2026-03-29T16:15:30Z</time></trkpt><trkpt lat="44.26980928289112" lon="9.45863247290544"><ele>52.66666666666667</ele><time>2026-03-29T16:15:31Z</time></trkpt><trkpt lat="44.26977169607906" lon="9.458372422935053"><ele>57.333333333333336</ele><time>2026-03-29T16:15:32Z</time></trkpt><trkpt lat="44.269735478371075" lon="9.458128721862796"><ele>62.0</ele><time>2026-03-29T16:15:32.999Z</time></trkpt><trkpt lat="44.269701355935595" lon="9.457888721070475"><ele>68.66666666666667</ele><time>2026-03-29T16:15:33.999Z</time></trkpt><trkpt lat="44.26966526469682" lon="9.457653135133084"><ele>75.33333333333333</ele><time>2026-03-29T16:15:34.999Z</time></trkpt><trkpt lat="44.26962870682613" lon="9.457431719895164"><ele>82.0</ele><time>2026-03-29T16:15:35.999Z</time></trkpt><trkpt lat="44.26959259141016" lon="9.457219730164583"><ele>85.0</ele><time>2026-03-29T16:15:36.999Z</time></trkpt><trkpt lat="44.269560813388125" lon="9.457014512381532"><ele>88.0</ele><time>2026-03-29T16:15:37.999Z</time></trkpt><trkpt lat="44.26953065164875" lon="9.45682547816033"><ele>91.0</ele><time>2026-03-29T16:15:38.999Z</time></trkpt><trkpt lat="44.269496537737595" lon="9.456668305839527"><ele>94.0</ele><time>2026-03-29T16:15:39.999Z</time></trkpt><trkpt lat="44.26945388242832" lon="9.456521001785337"><ele>94.0</ele><time>2026-03-29T16:15:40.999Z</time></trkpt><trkpt lat="44.26940829456535" lon="9.456378027579929"><ele>94.0</ele><time>2026-03-29T16:15:41.999Z</time></trkpt><trkpt lat="44.26935726840523" lon="9.456213874887183"><ele>94.0</ele><time>2026-03-29T16:15:42.999Z</time></trkpt><trkpt lat="44.26934257438363" lon="9.456030619328432"><ele>94.0</ele><time>2026-03-29T16:15:43.999Z</time></trkpt><trkpt lat="44.26931112500462" lon="9.455830176034118"><ele>92.66666666666666</ele><time>2026-03-29T16:15:44.999Z</time></trkpt><trkpt lat="44.26927596627539" lon="9.455604870504992"><ele>91.33333333333333</ele><time>2026-03-29T16:15:45.999Z</time></trkpt><trkpt lat="44.26924150638991" lon="9.455387929219635"><ele>90.0</ele><time>2026-03-29T16:15:46.999Z</time></trkpt><trkpt lat="44.26920485505151" lon="9.455164720438383"><ele>87.0</ele><time>2026-03-29T16:15:47.999Z</time></trkpt><trkpt lat="44.269169143250714" lon="9.454947233581237"><ele>84.0</ele><time>2026-03-29T16:15:48.999Z</time></trkpt><trkpt lat="44.26913509411477" lon="9.454739853017278"><ele>81.0</ele><time>2026-03-29T16:15:49.999Z</time></trkpt><trkpt lat="44.26910059808099" lon="9.45452971828308"><ele>80.66666666666667</ele><time>2026-03-29T16:15:50.999Z</time></trkpt><trkpt lat="44.269064314674104" lon="9.454300993714208"><ele>80.33333333333334</ele><time>2026-03-29T16:15:51.999Z</time></trkpt><trkpt lat="44.26902704059809" lon="9.454063680332636"><ele>80.0</ele><time>2026-03-29T16:15:52.999Z</time></trkpt><trkpt lat="44.2689906625972" lon="9.453831979244933"><ele>82.33333333333334</ele><time>2026-03-29T16:15:53.999Z</time></trkpt><trkpt lat="44.26895110067977" lon="9.453579951679757"><ele>84.66666666666667</ele><time>2026-03-29T16:15:54.999Z</time></trkpt><trkpt lat="44.268913617869835" lon="9.453341168932127"><ele>87.0</ele><time>2026-03-29T16:15:55.999Z</time></trkpt><trkpt lat="44.26887514038799" lon="9.453096049806067"><ele>93.66666666666666</ele><time>2026-03-29T16:15:57.02Z</time></trkpt><trkpt lat="44.26883570649337" lon="9.45284483748095"><ele>100.33333333333333</ele><time>2026-03-29T16:15:58.016Z</time></trkpt><trkpt lat="44.26879287843017" lon="9.452572002929829"><ele>107.0</ele><time>2026-03-29T16:15:59.021Z</time></trkpt><trkpt lat="44.26875234380891" lon="9.452313778485891"><ele>100.0</ele><time>2026-03-29T16:16:00.019Z</time></trkpt><trkpt lat="44.26870595678588" lon="9.452020005286656"><ele>93.0</ele><time>2026-03-29T16:16:01.019Z</time></trkpt><trkpt lat="44.26866110882575" lon="9.451736828430198"><ele>86.0</ele><time>2026-03-29T16:16:02.02Z</time></trkpt><trkpt lat="44.26852162994876" lon="9.450856136267578"><ele>80.0</ele><time>2026-03-29T16:16:05.999Z</time></trkpt><trkpt lat="44.26848403801114" lon="9.45061181237612"><ele>74.0</ele><time>2026-03-29T16:16:06.999Z</time></trkpt><trkpt lat="44.26844133988982" lon="9.45033608811733"><ele>68.0</ele><time>2026-03-29T16:16:07.999Z</time></trkpt><trkpt lat="44.268398902582085" lon="9.450067017680595"><ele>61.0</ele><time>2026-03-29T16:16:08.999Z</time></trkpt><trkpt lat="44.26835259006457" lon="9.449778836738743"><ele>54.0</ele><time>2026-03-29T16:16:09.999Z</time></trkpt><trkpt lat="44.26831065163322" lon="9.449515700050531"><ele>47.0</ele><time>2026-03-29T16:16:10.999Z</time></trkpt><trkpt lat="44.268278063839425" lon="9.449299321750011"><ele>43.33333333333333</ele><time>2026-03-29T16:16:11.999Z</time></trkpt><trkpt lat="44.268239879489414" lon="9.449024969334673"><ele>39.666666666666664</ele><time>2026-03-29T16:16:12.999Z</time></trkpt><trkpt lat="44.26821009484656" lon="9.44876798589962"><ele>36.0</ele><time>2026-03-29T16:16:13.999Z</time></trkpt><trkpt lat="44.26818818842169" lon="9.448525777858622"><ele>36.0</ele><time>2026-03-29T16:16:14.999Z</time></trkpt><trkpt lat="44.26817049348644" lon="9.448289025246646"><ele>36.0</ele><time>2026-03-29T16:16:15.999Z</time></trkpt><trkpt lat="44.26816052982776" lon="9.448050633288412"><ele>36.0</ele><time>2026-03-29T16:16:16.999Z</time></trkpt><trkpt lat="44.268155831108885" lon="9.447824689263257"><ele>39.666666666666664</ele><time>2026-03-29T16:16:17.999Z</time></trkpt><trkpt lat="44.268154558845026" lon="9.447603676952562"><ele>43.33333333333333</ele><time>2026-03-29T16:16:18.999Z</time></trkpt><trkpt lat="44.26815751950934" lon="9.447390933366213"><ele>47.0</ele><time>2026-03-29T16:16:19.999Z</time></trkpt><trkpt lat="44.26816503677411" lon="9.447174035864565"><ele>49.666666666666664</ele><time>2026-03-29T16:16:20.999Z</time></trkpt><trkpt lat="44.2681784207086" lon="9.44694267364889"><ele>52.33333333333333</ele><time>2026-03-29T16:16:21.999Z</time></trkpt><trkpt lat="44.268196270231655" lon="9.44671564941724"><ele>55.0</ele><time>2026-03-29T16:16:22.999Z</time></trkpt><trkpt lat="44.26820121457706" lon="9.446501652600329"><ele>55.0</ele><time>2026-03-29T16:16:23.999Z</time></trkpt><trkpt lat="44.26823178906247" lon="9.446306359628492"><ele>55.0</ele><time>2026-03-29T16:16:24.999Z</time></trkpt><trkpt lat="44.268262801495176" lon="9.446123894148556"><ele>55.0</ele><time>2026-03-29T16:16:25.999Z</time></trkpt><trkpt lat="44.268298696264715" lon="9.445955416185832"><ele>55.0</ele><time>2026-03-29T16:16:26.999Z</time></trkpt><trkpt lat="44.26832921462018" lon="9.445791613328145"><ele>57.0</ele><time>2026-03-29T16:16:27.999Z</time></trkpt><trkpt lat="44.26836331016154" lon="9.44562046428032"><ele>59.0</ele><time>2026-03-29T16:16:28.999Z</time></trkpt><trkpt lat="44.268399241515155" lon="9.445444301683052"><ele>61.0</ele><time>2026-03-29T16:16:30Z</time></trkpt><trkpt lat="44.26843582311856" lon="9.445260316811767"><ele>63.0</ele><time>2026-03-29T16:16:31Z</time></trkpt><trkpt lat="44.268471084742785" lon="9.445083141739753"><ele>66.25</ele><time>2026-03-29T16:16:32Z</time></trkpt><trkpt lat="44.26850708421128" lon="9.444920500045406"><ele>69.5</ele><time>2026-03-29T16:16:33Z</time></trkpt><trkpt lat="44.26854196221343" lon="9.444766942037392"><ele>72.75</ele><time>2026-03-29T16:16:34Z</time></trkpt><trkpt lat="44.26857068836986" lon="9.444617332785718"><ele>76.0</ele><time>2026-03-29T16:16:35Z</time></trkpt><trkpt lat="44.268595992313955" lon="9.444464190831212"><ele>76.75</ele><time>2026-03-29T16:16:36Z</time></trkpt><trkpt lat="44.26862095031914" lon="9.444308550507833"><ele>77.5</ele><time>2026-03-29T16:16:37Z</time></trkpt><trkpt lat="44.26864628326184" lon="9.444143853490393"><ele>78.25</ele><time>2026-03-29T16:16:38Z</time></trkpt><trkpt lat="44.268672339161306" lon="9.443969683093863"><ele>79.0</ele><time>2026-03-29T16:16:39Z</time></trkpt><trkpt lat="44.268697693754305" lon="9.44379291740732"><ele>79.5</ele><time>2026-03-29T16:16:40Z</time></trkpt><trkpt lat="44.268722602944095" lon="9.44360727077911"><ele>80.0</ele><time>2026-03-29T16:16:41Z</time></trkpt><trkpt lat="44.26874624282049" lon="9.443437645238147"><ele>80.5</ele><time>2026-03-29T16:16:42Z</time></trkpt><trkpt lat="44.268766362532496" lon="9.4432668392934"><ele>81.0</ele><time>2026-03-29T16:16:43Z</time></trkpt><trkpt lat="44.26878173548073" lon="9.443093275088733"><ele>78.25</ele><time>2026-03-29T16:16:44Z</time></trkpt><trkpt lat="44.26879054058579" lon="9.442919952216128"><ele>75.5</ele><time>2026-03-29T16:16:45Z</time></trkpt><trkpt lat="44.26879864723923" lon="9.44274342331642"><ele>72.75</ele><time>2026-03-29T16:16:46Z</time></trkpt><trkpt lat="44.268807430088714" lon="9.442565652866413"><ele>70.0</ele><time>2026-03-29T16:16:47Z</time></trkpt><trkpt lat="44.26881452195115" lon="9.442384423122967"><ele>70.0</ele><time>2026-03-29T16:16:48Z</time></trkpt><trkpt lat="44.268814837491284" lon="9.442200914390723"><ele>70.0</ele><time>2026-03-29T16:16:49Z</time></trkpt><trkpt lat="44.26881225445039" lon="9.442010430563807"><ele>70.0</ele><time>2026-03-29T16:16:50Z</time></trkpt><trkpt lat="44.26880888777373" lon="9.441815916473296"><ele>70.0</ele><time>2026-03-29T16:16:51Z</time></trkpt><trkpt lat="44.26880720118802" lon="9.44161981976186"><ele>62.5</ele><time>2026-03-29T16:16:52Z</time></trkpt><trkpt lat="44.26880255156184" lon="9.4414202533565"><ele>55.0</ele><time>2026-03-29T16:16:53Z</time></trkpt><trkpt lat="44.26879381658867" lon="9.441219092250662"><ele>47.5</ele><time>2026-03-29T16:16:54Z</time></trkpt><trkpt lat="44.26878137561831" lon="9.441014562114804"><ele>40.0</ele><time>2026-03-29T16:16:55Z</time></trkpt><trkpt lat="44.26876518216324" lon="9.440812691339136"><ele>38.5</ele><time>2026-03-29T16:16:56Z</time></trkpt><trkpt lat="44.26874642713145" lon="9.440622215193125"><ele>37.0</ele><time>2026-03-29T16:16:57Z</time></trkpt><trkpt lat="44.268728492381605" lon="9.440435673362224"><ele>35.5</ele><time>2026-03-29T16:16:58Z</time></trkpt><trkpt lat="44.26870717464603" lon="9.440246310537605"><ele>34.0</ele><time>2026-03-29T16:16:59Z</time></trkpt><trkpt lat="44.2686819031351" lon="9.440053185526"><ele>39.75</ele><time>2026-03-29T16:17:00Z</time></trkpt><trkpt lat="44.26865695393582" lon="9.439862784326126"><ele>45.5</ele><time>2026-03-29T16:17:01Z</time></trkpt><trkpt lat="44.26863192174269" lon="9.439683668387072"><ele>51.25</ele><time>2026-03-29T16:17:02Z</time></trkpt><trkpt lat="44.26860306993686" lon="9.43950882113138"><ele>57.0</ele><time>2026-03-29T16:17:03Z</time></trkpt><trkpt lat="44.26857102286384" lon="9.439322726593002"><ele>56.25</ele><time>2026-03-29T16:17:04Z</time></trkpt><trkpt lat="44.268542794814294" lon="9.43914329820759"><ele>55.5</ele><time>2026-03-29T16:17:05Z</time></trkpt><trkpt lat="44.26851637950379" lon="9.438968424226205"><ele>54.75</ele><time>2026-03-29T16:17:06Z</time></trkpt><trkpt lat="44.268493255297685" lon="9.438790514061104"><ele>54.0</ele><time>2026-03-29T16:17:07Z</time></trkpt><trkpt lat="44.26847148139548" lon="9.438596456764284"><ele>54.0</ele><time>2026-03-29T16:17:08Z</time></trkpt><trkpt lat="44.26844760004688" lon="9.43841606297544"><ele>54.0</ele><time>2026-03-29T16:17:09Z</time></trkpt><trkpt lat="44.26842425567874" lon="9.438242088982125"><ele>54.0</ele><time>2026-03-29T16:17:10Z</time></trkpt><trkpt lat="44.26840188726975" lon="9.438074335459717"><ele>54.0</ele><time>2026-03-29T16:17:11Z</time></trkpt><trkpt lat="44.268378944214724" lon="9.437906565127099"><ele>52.25</ele><time>2026-03-29T16:17:12Z</time></trkpt><trkpt lat="44.26835558292717" lon="9.437733835339044"><ele>50.5</ele><time>2026-03-29T16:17:13Z</time></trkpt><trkpt lat="44.2683317769158" lon="9.437557134779926"><ele>48.75</ele><time>2026-03-29T16:17:14Z</time></trkpt><trkpt lat="44.268307642105626" lon="9.437392852154941"><ele>47.0</ele><time>2026-03-29T16:17:15Z</time></trkpt><trkpt lat="44.26828520313295" lon="9.437234959825563"><ele>45.25</ele><time>2026-03-29T16:17:16Z</time></trkpt><trkpt lat="44.26826244319967" lon="9.437073364540415"><ele>43.5</ele><time>2026-03-29T16:17:17Z</time></trkpt><trkpt lat="44.268240402727066" lon="9.436910287045556"><ele>41.75</ele><time>2026-03-29T16:17:18Z</time></trkpt><trkpt lat="44.26821730926569" lon="9.436743204758919"><ele>40.0</ele><time>2026-03-29T16:17:19Z</time></trkpt><trkpt lat="44.26819343676943" lon="9.436588029066899"><ele>40.0</ele><time>2026-03-29T16:17:20Z</time></trkpt><trkpt lat="44.26817022280653" lon="9.43643414781319"><ele>40.0</ele><time>2026-03-29T16:17:21Z</time></trkpt><trkpt lat="44.26814973345161" lon="9.43627785595954"><ele>40.0</ele><time>2026-03-29T16:17:22Z</time></trkpt><trkpt lat="44.26813245339321" lon="9.436117988918971"><ele>40.0</ele><time>2026-03-29T16:17:23Z</time></trkpt><trkpt lat="44.268123006844256" lon="9.435953126295795"><ele>38.25</ele><time>2026-03-29T16:17:24Z</time></trkpt><trkpt lat="44.26811880417564" lon="9.435767153217485"><ele>36.5</ele><time>2026-03-29T16:17:25Z</time></trkpt><trkpt lat="44.26811162330994" lon="9.435559656228802"><ele>34.75</ele><time>2026-03-29T16:17:26Z</time></trkpt><trkpt lat="44.26809554837129" lon="9.435330890516896"><ele>33.0</ele><time>2026-03-29T16:17:27Z</time></trkpt><trkpt lat="44.26806603067511" lon="9.435088644780514"><ele>38.33333333333333</ele><time>2026-03-29T16:17:28Z</time></trkpt><trkpt lat="44.2680362178141" lon="9.434845562300318"><ele>43.666666666666664</ele><time>2026-03-29T16:17:29Z</time></trkpt><trkpt lat="44.26800273206498" lon="9.43459546810794"><ele>49.0</ele><time>2026-03-29T16:17:30Z</time></trkpt><trkpt lat="44.2679611401672" lon="9.4343334008552"><ele>49.0</ele><time>2026-03-29T16:17:31Z</time></trkpt><trkpt lat="44.267919921856425" lon="9.434051365222794"><ele>49.0</ele><time>2026-03-29T16:17:32Z</time></trkpt><trkpt lat="44.2678841715016" lon="9.433750602610706"><ele>49.0</ele><time>2026-03-29T16:17:33Z</time></trkpt><trkpt lat="44.26785127156574" lon="9.433433667191304"><ele>47.5</ele><time>2026-03-29T16:17:34Z</time></trkpt><trkpt lat="44.26782674424619" lon="9.433095807692032"><ele>46.0</ele><time>2026-03-29T16:17:34.999Z</time></trkpt><trkpt lat="44.26781923113741" lon="9.432753372590426"><ele>45.66666666666667</ele><time>2026-03-29T16:17:35.999Z</time></trkpt><trkpt lat="44.26782005605779" lon="9.432432995499127"><ele>45.333333333333336</ele><time>2026-03-29T16:17:36.999Z</time></trkpt><trkpt lat="44.26783036589251" lon="9.4321276761916"><ele>45.0</ele><time>2026-03-29T16:17:37.999Z</time></trkpt><trkpt lat="44.267845289340784" lon="9.431832131894977"><ele>45.0</ele><time>2026-03-29T16:17:38.999Z</time></trkpt><trkpt lat="44.26787038719285" lon="9.431551427738642"><ele>45.0</ele><time>2026-03-29T16:17:39.999Z</time></trkpt><trkpt lat="44.2679009539439" lon="9.431271553638588"><ele>45.0</ele><time>2026-03-29T16:17:40.999Z</time></trkpt><trkpt lat="44.26794170266414" lon="9.430982180185177"><ele>45.0</ele><time>2026-03-29T16:17:41.999Z</time></trkpt><trkpt lat="44.267995373429265" lon="9.430688019364576"><ele>45.0</ele><time>2026-03-29T16:17:42.999Z</time></trkpt><trkpt lat="44.26805929038998" lon="9.430385789689"><ele>45.0</ele><time>2026-03-29T16:17:43.999Z</time></trkpt><trkpt lat="44.268132965931464" lon="9.430083030192984"><ele>36.0</ele><time>2026-03-29T16:17:44.999Z</time></trkpt><trkpt lat="44.26821362526747" lon="9.429783394469357"><ele>27.0</ele><time>2026-03-29T16:17:45.999Z</time></trkpt><trkpt lat="44.26829708125024" lon="9.429504187428929"><ele>18.0</ele><time>2026-03-29T16:17:46.999Z</time></trkpt><trkpt lat="44.268387079296346" lon="9.429230731392755"><ele>18.0</ele><time>2026-03-29T16:17:47.999Z</time></trkpt><trkpt lat="44.26848914997741" lon="9.428952668116436"><ele>18.0</ele><time>2026-03-29T16:17:48.999Z</time></trkpt><trkpt lat="44.268604465007726" lon="9.428671855169313"><ele>16.0</ele><time>2026-03-29T16:17:49.999Z</time></trkpt><trkpt lat="44.268733926133" lon="9.428399002413038"><ele>14.0</ele><time>2026-03-29T16:17:50.999Z</time></trkpt><trkpt lat="44.26886537972545" lon="9.428138175899713"><ele>13.5</ele><time>2026-03-29T16:17:51.999Z</time></trkpt><trkpt lat="44.26900401253519" lon="9.427888932490108"><ele>13.0</ele><time>2026-03-29T16:17:52.999Z</time></trkpt><trkpt lat="44.269150120541354" lon="9.427642524669372"><ele>13.0</ele><time>2026-03-29T16:17:53.999Z</time></trkpt><trkpt lat="44.26930705282431" lon="9.427395689784134"><ele>13.0</ele><time>2026-03-29T16:17:54.999Z</time></trkpt><trkpt lat="44.26947519777695" lon="9.427151139805806"><ele>12.5</ele><time>2026-03-29T16:17:55.999Z</time></trkpt><trkpt lat="44.26965246376454" lon="9.426914800928406"><ele>12.0</ele><time>2026-03-29T16:17:56.999Z</time></trkpt><trkpt lat="44.26984535314257" lon="9.426688075108924"><ele>12.0</ele><time>2026-03-29T16:17:57.999Z</time></trkpt><trkpt lat="44.270044382581425" lon="9.426470243386337"><ele>12.0</ele><time>2026-03-29T16:17:58.999Z</time></trkpt><trkpt lat="44.270246733566466" lon="9.426252737911874"><ele>12.0</ele><time>2026-03-29T16:17:59.999Z</time></trkpt><trkpt lat="44.27045116608725" lon="9.426032866771415"><ele>12.0</ele><time>2026-03-29T16:18:00.999Z</time></trkpt><trkpt lat="44.27066098462985" lon="9.425815048205942"><ele>14.0</ele><time>2026-03-29T16:18:01.999Z</time></trkpt><trkpt lat="44.27087354932058" lon="9.425594271387352"><ele>16.0</ele><time>2026-03-29T16:18:02.999Z</time></trkpt><trkpt lat="44.27108832193425" lon="9.42537246136296"><ele>16.0</ele><time>2026-03-29T16:18:03.999Z</time></trkpt><trkpt lat="44.27130892997902" lon="9.425149112303622"><ele>16.0</ele><time>2026-03-29T16:18:04.999Z</time></trkpt><trkpt lat="44.27153128936232" lon="9.42492384146362"><ele>16.5</ele><time>2026-03-29T16:18:05.999Z</time></trkpt><trkpt lat="44.27175239372614" lon="9.424694771695673"><ele>17.0</ele><time>2026-03-29T16:18:06.999Z</time></trkpt><trkpt lat="44.27197269720292" lon="9.4244584732728"><ele>17.0</ele><time>2026-03-29T16:18:07.999Z</time></trkpt><trkpt lat="44.27218106037151" lon="9.424227687172595"><ele>17.0</ele><time>2026-03-29T16:18:08.999Z</time></trkpt><trkpt lat="44.27237136999116" lon="9.424008540416242"><ele>20.5</ele><time>2026-03-29T16:18:09.999Z</time></trkpt><trkpt lat="44.27255267380807" lon="9.423798435963613"><ele>24.0</ele><time>2026-03-29T16:18:10.999Z</time></trkpt><trkpt lat="44.272723890823634" lon="9.423595679268594"><ele>24.0</ele><time>2026-03-29T16:18:11.999Z</time></trkpt><trkpt lat="44.27288807398536" lon="9.423393617326544"><ele>24.0</ele><time>2026-03-29T16:18:12.999Z</time></trkpt><trkpt lat="44.27305942903951" lon="9.423180446572648"><ele>24.0</ele><time>2026-03-29T16:18:13.999Z</time></trkpt><trkpt lat="44.273235625716076" lon="9.42296216930747"><ele>25.0</ele><time>2026-03-29T16:18:14.999Z</time></trkpt><trkpt lat="44.27341610550851" lon="9.4227458414013"><ele>26.0</ele><time>2026-03-29T16:18:15.999Z</time></trkpt><trkpt lat="44.2735817615586" lon="9.422548954282384"><ele>26.0</ele><time>2026-03-29T16:18:16.999Z</time></trkpt><trkpt lat="44.2737417361223" lon="9.422352334369489"><ele>26.0</ele><time>2026-03-29T16:18:17.999Z</time></trkpt><trkpt lat="44.27390719274709" lon="9.422144169418608"><ele>26.0</ele><time>2026-03-29T16:18:18.999Z</time></trkpt><trkpt lat="44.27408436559134" lon="9.421923091235005"><ele>21.5</ele><time>2026-03-29T16:18:19.999Z</time></trkpt><trkpt lat="44.27427084232404" lon="9.421671159275189"><ele>17.0</ele><time>2026-03-29T16:18:20.999Z</time></trkpt><trkpt lat="44.274483200081896" lon="9.421442269957891"><ele>17.0</ele><time>2026-03-29T16:18:21.999Z</time></trkpt><trkpt lat="44.274668909193075" lon="9.421233135590166"><ele>17.0</ele><time>2026-03-29T16:18:22.999Z</time></trkpt><trkpt lat="44.274848125771534" lon="9.4210294359416"><ele>17.0</ele><time>2026-03-29T16:18:23.999Z</time></trkpt><trkpt lat="44.275019946398416" lon="9.420831346887011"><ele>17.0</ele><time>2026-03-29T16:18:24.999Z</time></trkpt><trkpt lat="44.27518203516044" lon="9.420641413511197"><ele>17.0</ele><time>2026-03-29T16:18:25.999Z</time></trkpt><trkpt lat="44.27533120468546" lon="9.420466143276062"><ele>17.0</ele><time>2026-03-29T16:18:26.999Z</time></trkpt><trkpt lat="44.2754715785993" lon="9.420301821434867"><ele>17.0</ele><time>2026-03-29T16:18:27.999Z</time></trkpt><trkpt lat="44.27561758996338" lon="9.42013012838853"><ele>17.0</ele><time>2026-03-29T16:18:28.999Z</time></trkpt><trkpt lat="44.275774522436016" lon="9.41994966796419"><ele>17.0</ele><time>2026-03-29T16:18:29.999Z</time></trkpt><trkpt lat="44.27594290381774" lon="9.419752882780786"><ele>17.0</ele><time>2026-03-29T16:18:30.999Z</time></trkpt><trkpt lat="44.27611561193639" lon="9.419549372080697"><ele>17.0</ele><time>2026-03-29T16:18:31.999Z</time></trkpt><trkpt lat="44.27627790101737" lon="9.419360066743387"><ele>16.666666666666668</ele><time>2026-03-29T16:18:32.999Z</time></trkpt><trkpt lat="44.27642086343045" lon="9.419192117472278"><ele>16.333333333333332</ele><time>2026-03-29T16:18:33.999Z</time></trkpt><trkpt lat="44.27654314941564" lon="9.419048093193695"><ele>16.0</ele><time>2026-03-29T16:18:34.999Z</time></trkpt><trkpt lat="44.27664667638201" lon="9.41892038228669"><ele>15.25</ele><time>2026-03-29T16:18:36Z</time></trkpt><trkpt lat="44.27674071260452" lon="9.418802550602603"><ele>14.5</ele><time>2026-03-29T16:18:37Z</time></trkpt><trkpt lat="44.27683477289832" lon="9.418688090243986"><ele>13.75</ele><time>2026-03-29T16:18:38Z</time></trkpt><trkpt lat="44.2769149266284" lon="9.418585601956908"><ele>13.0</ele><time>2026-03-29T16:18:39Z</time></trkpt><trkpt lat="44.27700178749577" lon="9.418481838599524"><ele>13.0</ele><time>2026-03-29T16:18:40Z</time></trkpt><trkpt lat="44.27707965972713" lon="9.418392844042414"><ele>13.0</ele><time>2026-03-29T16:18:41Z</time></trkpt><trkpt lat="44.27714727099462" lon="9.418311693683501"><ele>13.0</ele><time>2026-03-29T16:18:42Z</time></trkpt><trkpt lat="44.277218141310485" lon="9.418229931397814"><ele>13.0</ele><time>2026-03-29T16:18:43Z</time></trkpt><trkpt lat="44.27729055388145" lon="9.418142464094393"><ele>13.0</ele><time>2026-03-29T16:18:44Z</time></trkpt><trkpt lat="44.277369551658076" lon="9.418045083213848"><ele>13.8</ele><time>2026-03-29T16:18:45Z</time></trkpt><trkpt lat="44.27745637608548" lon="9.41794507926722"><ele>14.600000000000001</ele><time>2026-03-29T16:18:46Z</time></trkpt><trkpt lat="44.27754724914237" lon="9.417838189112032"><ele>15.399999999999999</ele><time>2026-03-29T16:18:47Z</time></trkpt><trkpt lat="44.27761725777395" lon="9.41775363030733"><ele>16.2</ele><time>2026-03-29T16:18:48Z</time></trkpt><trkpt lat="44.277680272010656" lon="9.417681435482185"><ele>17.0</ele><time>2026-03-29T16:18:49Z</time></trkpt><trkpt lat="44.27773794164277" lon="9.417613831051483"><ele>17.0</ele><time>2026-03-29T16:18:50Z</time></trkpt><trkpt lat="44.27779944042989" lon="9.41754222631422"><ele>17.0</ele><time>2026-03-29T16:18:51Z</time></trkpt><trkpt lat="44.27786400252933" lon="9.417463377075656"><ele>17.0</ele><time>2026-03-29T16:18:52Z</time></trkpt><trkpt lat="44.27793631343207" lon="9.417378934081318"><ele>17.0</ele><time>2026-03-29T16:18:53Z</time></trkpt><trkpt lat="44.27801428256123" lon="9.417293408746284"><ele>17.0</ele><time>2026-03-29T16:18:54Z</time></trkpt><trkpt lat="44.27808638853106" lon="9.417203695647341"><ele>19.8</ele><time>2026-03-29T16:18:55Z</time></trkpt><trkpt lat="44.27815136983595" lon="9.417129816891626"><ele>22.6</ele><time>2026-03-29T16:18:56Z</time></trkpt><trkpt lat="44.27821839853436" lon="9.417050198479421"><ele>25.400000000000002</ele><time>2026-03-29T16:18:57Z</time></trkpt><trkpt lat="44.27828692127751" lon="9.416975699124482"><ele>28.2</ele><time>2026-03-29T16:18:58Z</time></trkpt><trkpt lat="44.27837329431698" lon="9.41687091479511"><ele>31.0</ele><time>2026-03-29T16:19:00Z</time></trkpt><trkpt lat="44.278469811150444" lon="9.416759234540121"><ele>31.000000000000004</ele><time>2026-03-29T16:19:02Z</time></trkpt><trkpt lat="44.27853010907416" lon="9.41668655103403"><ele>31.0</ele><time>2026-03-29T16:19:03Z</time></trkpt><trkpt lat="44.27860141175558" lon="9.416602832842507"><ele>31.0</ele><time>2026-03-29T16:19:04Z</time></trkpt><trkpt lat="44.27866467703595" lon="9.416532459572576"><ele>31.0</ele><time>2026-03-29T16:19:05Z</time></trkpt><trkpt lat="44.2787181610231" lon="9.416471261687782"><ele>31.000000000000004</ele><time>2026-03-29T16:19:06Z</time></trkpt><trkpt lat="44.27877967575295" lon="9.416399254755229"><ele>31.0</ele><time>2026-03-29T16:19:07Z</time></trkpt><trkpt lat="44.27884991304367" lon="9.416314157197528"><ele>31.666666666666668</ele><time>2026-03-29T16:19:08Z</time></trkpt><trkpt lat="44.27892690450631" lon="9.416215621369819"><ele>32.333333333333336</ele><time>2026-03-29T16:19:09Z</time></trkpt><trkpt lat="44.27899452941111" lon="9.41611366705822"><ele>33.0</ele><time>2026-03-29T16:19:10Z</time></trkpt><trkpt lat="44.27904728382828" lon="9.416031934566673"><ele>33.666666666666664</ele><time>2026-03-29T16:19:11Z</time></trkpt><trkpt lat="44.279090706021904" lon="9.415962477364767"><ele>34.33333333333333</ele><time>2026-03-29T16:19:12Z</time></trkpt><trkpt lat="44.27913175944607" lon="9.41589418431391"><ele>35.0</ele><time>2026-03-29T16:19:13Z</time></trkpt><trkpt lat="44.27916974000428" lon="9.415823039578873"><ele>35.0</ele><time>2026-03-29T16:19:14Z</time></trkpt><trkpt lat="44.27921002587369" lon="9.415751391033007"><ele>35.0</ele><time>2026-03-29T16:19:15Z</time></trkpt><trkpt lat="44.27926356858973" lon="9.415657845757766"><ele>35.0</ele><time>2026-03-29T16:19:17Z</time></trkpt><trkpt lat="44.27931568638661" lon="9.41556065850359"><ele>35.0</ele><time>2026-03-29T16:19:22Z</time></trkpt><trkpt lat="44.279397138020876" lon="9.415470810894616"><ele>35.0</ele><time>2026-03-29T16:19:27Z</time></trkpt><trkpt lat="44.279461432052486" lon="9.415333958001096"><ele>39.0</ele><time>2026-03-29T16:19:29Z</time></trkpt><trkpt lat="44.27949868104619" lon="9.415250753296766"><ele>43.0</ele><time>2026-03-29T16:19:30Z</time></trkpt><trkpt lat="44.27954220954016" lon="9.41513950494017"><ele>47.0</ele><time>2026-03-29T16:19:31Z</time></trkpt><trkpt lat="44.279603875146336" lon="9.4149699929038"><ele>51.0</ele><time>2026-03-29T16:19:32Z</time></trkpt><trkpt lat="44.27967247868233" lon="9.414793130496987"><ele>55.0</ele><time>2026-03-29T16:19:33Z</time></trkpt><trkpt lat="44.279727865399884" lon="9.414646915913481"><ele>53.0</ele><time>2026-03-29T16:19:34Z</time></trkpt><trkpt lat="44.27977416520348" lon="9.414518544759403"><ele>51.0</ele><time>2026-03-29T16:19:35Z</time></trkpt><trkpt lat="44.2798123188075" lon="9.41440798652207"><ele>49.0</ele><time>2026-03-29T16:19:36Z</time></trkpt><trkpt lat="44.279843092987385" lon="9.414312655322824"><ele>47.0</ele><time>2026-03-29T16:19:37Z</time></trkpt><trkpt lat="44.279880739358596" lon="9.414203729729051"><ele>45.0</ele><time>2026-03-29T16:19:38Z</time></trkpt><trkpt lat="44.27994442631726" lon="9.414077337943874"><ele>45.0</ele><time>2026-03-29T16:19:39Z</time></trkpt><trkpt lat="44.28003271022975" lon="9.413914022821546"><ele>45.0</ele><time>2026-03-29T16:19:40Z</time></trkpt><trkpt lat="44.28008252672329" lon="9.413802276406798"><ele>45.0</ele><time>2026-03-29T16:19:40.999Z</time></trkpt><trkpt lat="44.28012426507761" lon="9.413711597391899"><ele>45.0</ele><time>2026-03-29T16:19:41.999Z</time></trkpt><trkpt lat="44.280158955642996" lon="9.413635449724264"><ele>45.0</ele><time>2026-03-29T16:19:42.999Z</time></trkpt><trkpt lat="44.280215964328676" lon="9.413510600898647"><ele>42.0</ele><time>2026-03-29T16:19:44.999Z</time></trkpt><trkpt lat="44.28025052522553" lon="9.41343184761162"><ele>39.0</ele><time>2026-03-29T16:19:46.999Z</time></trkpt><trkpt lat="44.28030178606449" lon="9.413311158892922"><ele>36.0</ele><time>2026-03-29T16:19:49.999Z</time></trkpt><trkpt lat="44.280354112374205" lon="9.413178462036774"><ele>33.0</ele><time>2026-03-29T16:19:51.999Z</time></trkpt><trkpt lat="44.28039213096852" lon="9.413093337893056"><ele>30.0</ele><time>2026-03-29T16:19:52.999Z</time></trkpt><trkpt lat="44.2804462533973" lon="9.413005048437428"><ele>27.0</ele><time>2026-03-29T16:19:53.999Z</time></trkpt><trkpt lat="44.280501083599304" lon="9.412897998432214"><ele>26.5</ele><time>2026-03-29T16:19:54.999Z</time></trkpt><trkpt lat="44.280550778294646" lon="9.412778821772237"><ele>26.0</ele><time>2026-03-29T16:19:55.999Z</time></trkpt><trkpt lat="44.280605232256704" lon="9.412645445676388"><ele>25.5</ele><time>2026-03-29T16:19:56.999Z</time></trkpt><trkpt lat="44.28066900422597" lon="9.412498402955567"><ele>25.0</ele><time>2026-03-29T16:19:57.999Z</time></trkpt><trkpt lat="44.280740476662345" lon="9.412334313123484"><ele>30.0</ele><time>2026-03-29T16:19:58.999Z</time></trkpt><trkpt lat="44.28081857817001" lon="9.412155729437274"><ele>35.0</ele><time>2026-03-29T16:19:59.999Z</time></trkpt><trkpt lat="44.28090676671402" lon="9.41196046591273"><ele>40.0</ele><time>2026-03-29T16:20:00.999Z</time></trkpt><trkpt lat="44.280985533980044" lon="9.411793129491256"><ele>40.0</ele><time>2026-03-29T16:20:01.999Z</time></trkpt><trkpt lat="44.28105761614106" lon="9.411645994132924"><ele>40.0</ele><time>2026-03-29T16:20:02.999Z</time></trkpt><trkpt lat="44.281124276731106" lon="9.411516165596113"><ele>40.0</ele><time>2026-03-29T16:20:03.999Z</time></trkpt><trkpt lat="44.28118681807932" lon="9.41140453608988"><ele>40.0</ele><time>2026-03-29T16:20:04.999Z</time></trkpt><trkpt lat="44.28124336909039" lon="9.411308739171183"><ele>40.0</ele><time>2026-03-29T16:20:05.999Z</time></trkpt><trkpt lat="44.28129656314395" lon="9.411223539505928"><ele>38.833333333333336</ele><time>2026-03-29T16:20:06.999Z</time></trkpt><trkpt lat="44.28134841505235" lon="9.411139673670537"><ele>37.66666666666667</ele><time>2026-03-29T16:20:07.999Z</time></trkpt><trkpt lat="44.28140025116163" lon="9.411059497367383"><ele>36.5</ele><time>2026-03-29T16:20:08.999Z</time></trkpt><trkpt lat="44.281452287048864" lon="9.4109802849757"><ele>35.333333333333336</ele><time>2026-03-29T16:20:09.999Z</time></trkpt><trkpt lat="44.28150733844875" lon="9.41090309420112"><ele>34.166666666666664</ele><time>2026-03-29T16:20:10.999Z</time></trkpt><trkpt lat="44.28155551455382" lon="9.410837525737534"><ele>33.0</ele><time>2026-03-29T16:20:11.999Z</time></trkpt><trkpt lat="44.28162906860252" lon="9.410732933499647"><ele>34.833333333333336</ele><time>2026-03-29T16:20:13.999Z</time></trkpt><trkpt lat="44.281691796604726" lon="9.410661729145962"><ele>36.666666666666664</ele><time>2026-03-29T16:20:15.999Z</time></trkpt><trkpt lat="44.28174520952493" lon="9.41060531858685"><ele>38.5</ele><time>2026-03-29T16:20:17.999Z</time></trkpt><trkpt lat="44.281795514496025" lon="9.410545615770523"><ele>40.33333333333333</ele><time>2026-03-29T16:20:20.999Z</time></trkpt><trkpt lat="44.2818554488903" lon="9.410480809814336"><ele>42.166666666666664</ele><time>2026-03-29T16:20:23.999Z</time></trkpt><trkpt lat="44.28193251461888" lon="9.410395954991026"><ele>44.0</ele><time>2026-03-29T16:20:25.999Z</time></trkpt><trkpt lat="44.28198832334562" lon="9.410344072127883"><ele>44.0</ele><time>2026-03-29T16:20:27.999Z</time></trkpt><trkpt lat="44.28203669116784" lon="9.410278868775237"><ele>44.0</ele><time>2026-03-29T16:20:30.999Z</time></trkpt><trkpt lat="44.28209566249352" lon="9.410205953460087"><ele>44.0</ele><time>2026-03-29T16:20:33.999Z</time></trkpt><trkpt lat="44.28216671621748" lon="9.410107054732064"><ele>44.0</ele><time>2026-03-29T16:20:36.999Z</time></trkpt><trkpt lat="44.282235239216035" lon="9.410027766430886"><ele>44.0</ele><time>2026-03-29T16:20:38.999Z</time></trkpt><trkpt lat="44.28234891412869" lon="9.409931845806263"><ele>44.33333333333333</ele><time>2026-03-29T16:20:40.999Z</time></trkpt><trkpt lat="44.2824129084915" lon="9.409868355696052"><ele>44.666666666666664</ele><time>2026-03-29T16:20:42Z</time></trkpt><trkpt lat="44.2824646744867" lon="9.40981329940748"><ele>45.0</ele><time>2026-03-29T16:20:43Z</time></trkpt><trkpt lat="44.282547580195384" lon="9.409716821445686"><ele>45.333333333333336</ele><time>2026-03-29T16:20:45Z</time></trkpt><trkpt lat="44.282599082525735" lon="9.409645129222662"><ele>45.66666666666667</ele><time>2026-03-29T16:20:47Z</time></trkpt><trkpt lat="44.28266186634045" lon="9.409568864793574"><ele>46.0</ele><time>2026-03-29T16:20:49Z</time></trkpt><trkpt lat="44.28271821898569" lon="9.409508547893244"><ele>46.0</ele><time>2026-03-29T16:20:51Z</time></trkpt><trkpt lat="44.28278319543923" lon="9.40943080839136"><ele>46.0</ele><time>2026-03-29T16:20:53Z</time></trkpt><trkpt lat="44.28285954810685" lon="9.409339462394847"><ele>46.0</ele><time>2026-03-29T16:20:55Z</time></trkpt><trkpt lat="44.28294846275117" lon="9.409223796078296"><ele>46.0</ele><time>2026-03-29T16:20:57Z</time></trkpt><trkpt lat="44.28303428126453" lon="9.409116854548943"><ele>46.0</ele><time>2026-03-29T16:20:59Z</time></trkpt><trkpt lat="44.28310995102751" lon="9.409014902251865"><ele>48.16666666666667</ele><time>2026-03-29T16:21:01Z</time></trkpt><trkpt lat="44.28316596396927" lon="9.408943871903626"><ele>50.333333333333336</ele><time>2026-03-29T16:21:03Z</time></trkpt><trkpt lat="44.28322398144227" lon="9.408860001333913"><ele>52.5</ele><time>2026-03-29T16:21:05Z</time></trkpt><trkpt lat="44.28328166335337" lon="9.408767707172911"><ele>54.66666666666667</ele><time>2026-03-29T16:21:07Z</time></trkpt><trkpt lat="44.2833387509194" lon="9.408673311905615"><ele>56.833333333333336</ele><time>2026-03-29T16:21:09Z</time></trkpt><trkpt lat="44.28339776122121" lon="9.40856567388454"><ele>59.0</ele><time>2026-03-29T16:21:11Z</time></trkpt><trkpt lat="44.2834707690339" lon="9.408433385979956"><ele>59.0</ele><time>2026-03-29T16:21:13Z</time></trkpt><trkpt lat="44.28351412197821" lon="9.408354903683241"><ele>59.0</ele><time>2026-03-29T16:21:14Z</time></trkpt><trkpt lat="44.28355669298897" lon="9.408268332034716"><ele>59.0</ele><time>2026-03-29T16:21:15Z</time></trkpt><trkpt lat="44.28359618362204" lon="9.408184888621685"><ele>59.0</ele><time>2026-03-29T16:21:16Z</time></trkpt><trkpt lat="44.28363391645907" lon="9.408098423416668"><ele>59.0</ele><time>2026-03-29T16:21:17Z</time></trkpt><trkpt lat="44.28367402452792" lon="9.40800377117878"><ele>59.0</ele><time>2026-03-29T16:21:18Z</time></trkpt><trkpt lat="44.283712752142385" lon="9.407908099082313"><ele>59.0</ele><time>2026-03-29T16:21:19Z</time></trkpt><trkpt lat="44.283750855625584" lon="9.407808079251346"><ele>58.50000000000001</ele><time>2026-03-29T16:21:20Z</time></trkpt><trkpt lat="44.28378908590334" lon="9.407700386856725"><ele>58.0</ele><time>2026-03-29T16:21:21Z</time></trkpt><trkpt lat="44.28382765082811" lon="9.407588468980242"><ele>57.5</ele><time>2026-03-29T16:21:22Z</time></trkpt><trkpt lat="44.28386587787005" lon="9.407468103579037"><ele>57.0</ele><time>2026-03-29T16:21:23Z</time></trkpt><trkpt lat="44.28390200279636" lon="9.407350015956085"><ele>56.50000000000001</ele><time>2026-03-29T16:21:24Z</time></trkpt><trkpt lat="44.28393006762774" lon="9.407255667834319"><ele>56.0</ele><time>2026-03-29T16:21:25Z</time></trkpt><trkpt lat="44.28395686005571" lon="9.407163790901683"><ele>60.8</ele><time>2026-03-29T16:21:26Z</time></trkpt><trkpt lat="44.283992722567696" lon="9.407025156567045"><ele>65.6</ele><time>2026-03-29T16:21:28Z</time></trkpt><trkpt lat="44.28402068687711" lon="9.4069050079112"><ele>70.4</ele><time>2026-03-29T16:21:30Z</time></trkpt><trkpt lat="44.284048696548325" lon="9.406781256957222"><ele>75.2</ele><time>2026-03-29T16:21:32Z</time></trkpt><trkpt lat="44.28407167185794" lon="9.406672640523569"><ele>80.0</ele><time>2026-03-29T16:21:34Z</time></trkpt><trkpt lat="44.284094210541" lon="9.406561361223664"><ele>80.0</ele><time>2026-03-29T16:21:37Z</time></trkpt><trkpt lat="44.28411203487749" lon="9.406450239874959"><ele>80.0</ele><time>2026-03-29T16:21:40Z</time></trkpt><trkpt lat="44.28412692516524" lon="9.406361688880777"><ele>80.0</ele><time>2026-03-29T16:21:41.999Z</time></trkpt><trkpt lat="44.28414567987584" lon="9.406226314167435"><ele>80.0</ele><time>2026-03-29T16:21:43.999Z</time></trkpt><trkpt lat="44.28416833082462" lon="9.406050107299428"><ele>80.0</ele><time>2026-03-29T16:21:45.999Z</time></trkpt><trkpt lat="44.28418007389112" lon="9.405936778985172"><ele>79.33333333333334</ele><time>2026-03-29T16:21:46.999Z</time></trkpt><trkpt lat="44.284192012581514" lon="9.405828412722023"><ele>78.66666666666667</ele><time>2026-03-29T16:21:47.999Z</time></trkpt><trkpt lat="44.284206465744326" lon="9.405708716440675"><ele>78.0</ele><time>2026-03-29T16:21:48.999Z</time></trkpt><trkpt lat="44.284218274954576" lon="9.405582791470747"><ele>77.33333333333333</ele><time>2026-03-29T16:21:49.999Z</time></trkpt><trkpt lat="44.28422903755142" lon="9.405451224533383"><ele>76.66666666666666</ele><time>2026-03-29T16:21:50.999Z</time></trkpt><trkpt lat="44.284239764667035" lon="9.405344155078891"><ele>76.0</ele><time>2026-03-29T16:21:51.999Z</time></trkpt><trkpt lat="44.28425404804542" lon="9.405229204423117"><ele>73.6</ele><time>2026-03-29T16:21:52.999Z</time></trkpt><trkpt lat="44.2842663436192" lon="9.405107276714972"><ele>71.19999999999999</ele><time>2026-03-29T16:21:53.999Z</time></trkpt><trkpt lat="44.28427917553816" lon="9.40497776291612"><ele>68.80000000000001</ele><time>2026-03-29T16:21:54.999Z</time></trkpt><trkpt lat="44.28429340478218" lon="9.40483568418439"><ele>66.4</ele><time>2026-03-29T16:21:55.999Z</time></trkpt><trkpt lat="44.28430913673282" lon="9.40468582193747"><ele>64.0</ele><time>2026-03-29T16:21:56.999Z</time></trkpt><trkpt lat="44.284324412419586" lon="9.404561170080243"><ele>64.0</ele><time>2026-03-29T16:21:57.999Z</time></trkpt><trkpt lat="44.284337094728926" lon="9.404452130523032"><ele>63.99999999999999</ele><time>2026-03-29T16:21:58.999Z</time></trkpt><trkpt lat="44.28434631637872" lon="9.40435629482378"><ele>64.0</ele><time>2026-03-29T16:21:59.999Z</time></trkpt><trkpt lat="44.284359124704515" lon="9.404256652521305"><ele>64.0</ele><time>2026-03-29T16:22:00.999Z</time></trkpt><trkpt lat="44.284369609395156" lon="9.404153873810628"><ele>63.99999999999999</ele><time>2026-03-29T16:22:01.999Z</time></trkpt><trkpt lat="44.28438172068369" lon="9.404047594061515"><ele>64.0</ele><time>2026-03-29T16:22:02.999Z</time></trkpt><trkpt lat="44.284393427784394" lon="9.403943478505768"><ele>64.0</ele><time>2026-03-29T16:22:03.999Z</time></trkpt><trkpt lat="44.28440451538119" lon="9.403835004982568"><ele>66.60000000000001</ele><time>2026-03-29T16:22:04.999Z</time></trkpt><trkpt lat="44.28441687610155" lon="9.403724010419154"><ele>69.2</ele><time>2026-03-29T16:22:05.999Z</time></trkpt><trkpt lat="44.28442455173269" lon="9.403600706566122"><ele>71.80000000000001</ele><time>2026-03-29T16:22:06.999Z</time></trkpt><trkpt lat="44.28443021451924" lon="9.403471644552837"><ele>74.4</ele><time>2026-03-29T16:22:07.999Z</time></trkpt><trkpt lat="44.284430927811755" lon="9.403333382062668"><ele>77.0</ele><time>2026-03-29T16:22:08.999Z</time></trkpt><trkpt lat="44.284435755379114" lon="9.403186178486783"><ele>77.0</ele><time>2026-03-29T16:22:09.999Z</time></trkpt><trkpt lat="44.28444909306487" lon="9.403019775566733"><ele>77.0</ele><time>2026-03-29T16:22:10.999Z</time></trkpt><trkpt lat="44.28446649641862" lon="9.402845807322972"><ele>77.0</ele><time>2026-03-29T16:22:11.999Z</time></trkpt><trkpt lat="44.28448203558672" lon="9.402669619917798"><ele>77.0</ele><time>2026-03-29T16:22:12.999Z</time></trkpt><trkpt lat="44.28449918839536" lon="9.402495577538806"><ele>76.0</ele><time>2026-03-29T16:22:13.999Z</time></trkpt><trkpt lat="44.28451683131464" lon="9.402343420109293"><ele>75.0</ele><time>2026-03-29T16:22:14.999Z</time></trkpt><trkpt lat="44.28452964558611" lon="9.402184385037872"><ele>74.0</ele><time>2026-03-29T16:22:15.999Z</time></trkpt><trkpt lat="44.28454627365886" lon="9.402020154975828"><ele>73.0</ele><time>2026-03-29T16:22:16.999Z</time></trkpt><trkpt lat="44.28456440425833" lon="9.401842823295878"><ele>73.75</ele><time>2026-03-29T16:22:17.999Z</time></trkpt><trkpt lat="44.28458463749007" lon="9.401653673333904"><ele>74.5</ele><time>2026-03-29T16:22:18.999Z</time></trkpt><trkpt lat="44.28460740155824" lon="9.401454351005151"><ele>75.25</ele><time>2026-03-29T16:22:19.999Z</time></trkpt><trkpt lat="44.28462808797495" lon="9.401247975304234"><ele>76.0</ele><time>2026-03-29T16:22:20.999Z</time></trkpt><trkpt lat="44.2846488092126" lon="9.401040073420132"><ele>76.0</ele><time>2026-03-29T16:22:21.999Z</time></trkpt><trkpt lat="44.2846688413596" lon="9.400846899186158"><ele>76.0</ele><time>2026-03-29T16:22:22.999Z</time></trkpt><trkpt lat="44.28468768770184" lon="9.400671345779465"><ele>76.0</ele><time>2026-03-29T16:22:23.999Z</time></trkpt><trkpt lat="44.2847057022364" lon="9.40049714476269"><ele>76.0</ele><time>2026-03-29T16:22:24.999Z</time></trkpt><trkpt lat="44.284723673212916" lon="9.400324791801292"><ele>77.75</ele><time>2026-03-29T16:22:25.999Z</time></trkpt><trkpt lat="44.28474343492266" lon="9.400151600242127"><ele>79.5</ele><time>2026-03-29T16:22:26.999Z</time></trkpt><trkpt lat="44.28476245105535" lon="9.399979448627647"><ele>81.25</ele><time>2026-03-29T16:22:27.999Z</time></trkpt><trkpt lat="44.28478072800002" lon="9.399805634807295"><ele>83.0</ele><time>2026-03-29T16:22:28.999Z</time></trkpt><trkpt lat="44.28479997390462" lon="9.39963643881154"><ele>87.5</ele><time>2026-03-29T16:22:29.999Z</time></trkpt><trkpt lat="44.28481833184657" lon="9.399464901227196"><ele>92.0</ele><time>2026-03-29T16:22:30.999Z</time></trkpt><trkpt lat="44.28483555921695" lon="9.399287705228858"><ele>96.5</ele><time>2026-03-29T16:22:31.999Z</time></trkpt><trkpt lat="44.28485534106854" lon="9.399100206599226"><ele>101.0</ele><time>2026-03-29T16:22:32.999Z</time></trkpt><trkpt lat="44.284874868804174" lon="9.398907773059639"><ele>104.0</ele><time>2026-03-29T16:22:33.999Z</time></trkpt><trkpt lat="44.28489664240124" lon="9.39870563235932"><ele>107.0</ele><time>2026-03-29T16:22:34.999Z</time></trkpt><trkpt lat="44.2849476357619" lon="9.398501498569853"><ele>110.0</ele><time>2026-03-29T16:22:35.999Z</time></trkpt><trkpt lat="44.28499273189715" lon="9.398283644528334"><ele>110.0</ele><time>2026-03-29T16:22:36.999Z</time></trkpt><trkpt lat="44.28504066763546" lon="9.398080426062316"><ele>110.0</ele><time>2026-03-29T16:22:37.999Z</time></trkpt><trkpt lat="44.28509601346381" lon="9.397861073270088"><ele>110.0</ele><time>2026-03-29T16:22:38.999Z</time></trkpt><trkpt lat="44.28516210004312" lon="9.397624927589051"><ele>116.66666666666666</ele><time>2026-03-29T16:22:40.019Z</time></trkpt><trkpt lat="44.28523708750955" lon="9.397375084887464"><ele>123.33333333333334</ele><time>2026-03-29T16:22:41.018Z</time></trkpt><trkpt lat="44.28530875017258" lon="9.397151541762039"><ele>130.0</ele><time>2026-03-29T16:22:42.016Z</time></trkpt><trkpt lat="44.28538330565089" lon="9.39693569647107"><ele>136.0</ele><time>2026-03-29T16:22:43.021Z</time></trkpt><trkpt lat="44.28545489284605" lon="9.396741552534131"><ele>142.0</ele><time>2026-03-29T16:22:44.02Z</time></trkpt><trkpt lat="44.28584303245347" lon="9.395493529745746"><ele>128.66666666666669</ele><time>2026-03-29T16:22:49.999Z</time></trkpt><trkpt lat="44.285953217363954" lon="9.395306624407128"><ele>115.33333333333334</ele><time>2026-03-29T16:22:50.999Z</time></trkpt><trkpt lat="44.286081579066874" lon="9.395117509061931"><ele>102.0</ele><time>2026-03-29T16:22:51.999Z</time></trkpt><trkpt lat="44.286283998266235" lon="9.395066143070778"><ele>102.0</ele><time>2026-03-29T16:22:52.999Z</time></trkpt><trkpt lat="44.286400393151425" lon="9.3948884281354"><ele>102.0</ele><time>2026-03-29T16:22:53.999Z</time></trkpt><trkpt lat="44.28653709211352" lon="9.394688717059461"><ele>102.0</ele><time>2026-03-29T16:22:54.999Z</time></trkpt><trkpt lat="44.286680354136365" lon="9.394482560977574"><ele>131.5</ele><time>2026-03-29T16:22:56.019Z</time></trkpt><trkpt lat="44.28683831741253" lon="9.394255672759092"><ele>161.0</ele><time>2026-03-29T16:22:57.02Z</time></trkpt><trkpt lat="44.28699952460383" lon="9.394024124906176"><ele>158.5</ele><time>2026-03-29T16:22:58.018Z</time></trkpt><trkpt lat="44.28716906568183" lon="9.39378060657843"><ele>156.0</ele><time>2026-03-29T16:22:59.019Z</time></trkpt><trkpt lat="44.287325092971194" lon="9.393556499020209"><ele>257.0</ele><time>2026-03-29T16:23:00.022Z</time></trkpt><trkpt lat="44.28947291745693" lon="9.390603188995936"><ele>215.0</ele><time>2026-03-29T16:23:04.111Z</time></trkpt><trkpt lat="44.2899193" lon="9.3899614"><ele>171.0</ele><time>2026-03-29T16:23:05.111Z</time></trkpt><trkpt lat="44.29060680017812" lon="9.388968611541456"><ele>148.0</ele><time>2026-03-29T16:23:18.112Z</time></trkpt><trkpt lat="44.29129412447607" lon="9.3879767616071"><ele>104.0</ele><time>2026-03-29T16:23:19.112Z</time></trkpt><trkpt lat="44.291620133485914" lon="9.387153536090056"><ele>104.0</ele><time>2026-03-29T16:23:35Z</time></trkpt><trkpt lat="44.29174630238357" lon="9.386975709035996"><ele>104.0</ele><time>2026-03-29T16:23:36Z</time></trkpt><trkpt lat="44.29187002642988" lon="9.386812419018641"><ele>104.0</ele><time>2026-03-29T16:23:37Z</time></trkpt><trkpt lat="44.29205656603732" lon="9.386748140324631"><ele>104.0</ele><time>2026-03-29T16:23:38Z</time></trkpt><trkpt lat="44.29215863353873" lon="9.38660123334258"><ele>104.0</ele><time>2026-03-29T16:23:39Z</time></trkpt><trkpt lat="44.292272647712" lon="9.386437131526176"><ele>104.0</ele><time>2026-03-29T16:23:40Z</time></trkpt><trkpt lat="44.29238963714088" lon="9.386267340272472"><ele>100.33333333333333</ele><time>2026-03-29T16:23:41Z</time></trkpt><trkpt lat="44.29250848913971" lon="9.386091713971005"><ele>96.66666666666666</ele><time>2026-03-29T16:23:42Z</time></trkpt><trkpt lat="44.292626666693664" lon="9.385916366936572"><ele>93.0</ele><time>2026-03-29T16:23:43Z</time></trkpt><trkpt lat="44.29276271532076" lon="9.385754730342024"><ele>93.0</ele><time>2026-03-29T16:23:44Z</time></trkpt><trkpt lat="44.292901103890685" lon="9.385595828758495"><ele>93.0</ele><time>2026-03-29T16:23:45Z</time></trkpt><trkpt lat="44.29304327042803" lon="9.385429470747603"><ele>93.0</ele><time>2026-03-29T16:23:46Z</time></trkpt><trkpt lat="44.29318828262839" lon="9.385268718713096"><ele>95.33333333333334</ele><time>2026-03-29T16:23:47Z</time></trkpt><trkpt lat="44.29333426661795" lon="9.385113572675957"><ele>97.66666666666667</ele><time>2026-03-29T16:23:48Z</time></trkpt><trkpt lat="44.29348027148084" lon="9.384976126799792"><ele>100.0</ele><time>2026-03-29T16:23:49Z</time></trkpt><trkpt lat="44.293613637210846" lon="9.384857662879341"><ele>100.0</ele><time>2026-03-29T16:23:50Z</time></trkpt><trkpt lat="44.29375814601694" lon="9.384738804071105"><ele>100.0</ele><time>2026-03-29T16:23:51Z</time></trkpt><trkpt lat="44.29392027221918" lon="9.384611466419463"><ele>100.0</ele><time>2026-03-29T16:23:52Z</time></trkpt><trkpt lat="44.29408342611085" lon="9.38449874053831"><ele>100.0</ele><time>2026-03-29T16:23:53Z</time></trkpt><trkpt lat="44.2942421550476" lon="9.384395856816461"><ele>100.0</ele><time>2026-03-29T16:23:54Z</time></trkpt><trkpt lat="44.29440952301738" lon="9.384299639584532"><ele>100.0</ele><time>2026-03-29T16:23:55Z</time></trkpt><trkpt lat="44.2945842955269" lon="9.384200446992411"><ele>98.0</ele><time>2026-03-29T16:23:56Z</time></trkpt><trkpt lat="44.29476773211269" lon="9.384113554632377"><ele>96.0</ele><time>2026-03-29T16:23:57Z</time></trkpt><trkpt lat="44.29492642101071" lon="9.384023479303053"><ele>94.0</ele><time>2026-03-29T16:23:58Z</time></trkpt><trkpt lat="44.2951059374822" lon="9.38394713774936"><ele>94.0</ele><time>2026-03-29T16:23:59Z</time></trkpt><trkpt lat="44.295297284770626" lon="9.383897856100619"><ele>94.0</ele><time>2026-03-29T16:24:00Z</time></trkpt><trkpt lat="44.295483921615165" lon="9.383845496940099"><ele>94.0</ele><time>2026-03-29T16:24:01Z</time></trkpt><trkpt lat="44.29567806350694" lon="9.38379756199569"><ele>85.33333333333333</ele><time>2026-03-29T16:24:02Z</time></trkpt><trkpt lat="44.295867693845146" lon="9.38376382044809"><ele>76.66666666666667</ele><time>2026-03-29T16:24:03Z</time></trkpt><trkpt lat="44.296052582841675" lon="9.383737793043386"><ele>68.0</ele><time>2026-03-29T16:24:04Z</time></trkpt><trkpt lat="44.29622664604783" lon="9.38372053028281"><ele>68.0</ele><time>2026-03-29T16:24:05Z</time></trkpt><trkpt lat="44.29640788958665" lon="9.383707741516696"><ele>68.0</ele><time>2026-03-29T16:24:06Z</time></trkpt><trkpt lat="44.296591064719564" lon="9.383707615613966"><ele>68.0</ele><time>2026-03-29T16:24:07Z</time></trkpt><trkpt lat="44.29678333329041" lon="9.383717747976837"><ele>67.66666666666667</ele><time>2026-03-29T16:24:08Z</time></trkpt><trkpt lat="44.29696679318465" lon="9.383732762793851"><ele>67.33333333333333</ele><time>2026-03-29T16:24:09Z</time></trkpt><trkpt lat="44.29715451222733" lon="9.383756905737709"><ele>67.0</ele><time>2026-03-29T16:24:10Z</time></trkpt><trkpt lat="44.29734664210493" lon="9.38378586759356"><ele>70.66666666666666</ele><time>2026-03-29T16:24:11Z</time></trkpt><trkpt lat="44.297532503429565" lon="9.38381327083524"><ele>74.33333333333333</ele><time>2026-03-29T16:24:12Z</time></trkpt><trkpt lat="44.297705528998726" lon="9.383842920834764"><ele>78.0</ele><time>2026-03-29T16:24:13Z</time></trkpt><trkpt lat="44.29787284890552" lon="9.383874892481483"><ele>86.33333333333334</ele><time>2026-03-29T16:24:14Z</time></trkpt><trkpt lat="44.29802776859585" lon="9.383897175021403"><ele>94.66666666666667</ele><time>2026-03-29T16:24:15Z</time></trkpt><trkpt lat="44.2981762892194" lon="9.383911696236595"><ele>103.0</ele><time>2026-03-29T16:24:16Z</time></trkpt><trkpt lat="44.29833642832815" lon="9.38393662980114"><ele>105.33333333333334</ele><time>2026-03-29T16:24:17Z</time></trkpt><trkpt lat="44.29849565746294" lon="9.38396617774319"><ele>107.66666666666666</ele><time>2026-03-29T16:24:18Z</time></trkpt><trkpt lat="44.298656364753114" lon="9.38398837054691"><ele>110.0</ele><time>2026-03-29T16:24:19Z</time></trkpt><trkpt lat="44.29881695051854" lon="9.38400240968385"><ele>108.33333333333333</ele><time>2026-03-29T16:24:20Z</time></trkpt><trkpt lat="44.29898362243326" lon="9.384024702393917"><ele>106.66666666666666</ele><time>2026-03-29T16:24:21Z</time></trkpt><trkpt lat="44.29915252633104" lon="9.384048999492778"><ele>105.0</ele><time>2026-03-29T16:24:22Z</time></trkpt><trkpt lat="44.29932248892747" lon="9.3840739897338"><ele>105.0</ele><time>2026-03-29T16:24:23Z</time></trkpt><trkpt lat="44.29948342164013" lon="9.384085543931533"><ele>105.0</ele><time>2026-03-29T16:24:24Z</time></trkpt><trkpt lat="44.299632923769984" lon="9.384089092180362"><ele>105.0</ele><time>2026-03-29T16:24:25Z</time></trkpt><trkpt lat="44.299784461774514" lon="9.384085444489862"><ele>104.66666666666666</ele><time>2026-03-29T16:24:26Z</time></trkpt><trkpt lat="44.29994805823328" lon="9.384068063758397"><ele>104.33333333333333</ele><time>2026-03-29T16:24:27Z</time></trkpt><trkpt lat="44.30011586026217" lon="9.384038826155551"><ele>104.0</ele><time>2026-03-29T16:24:28Z</time></trkpt><trkpt lat="44.30028937685838" lon="9.38402081817475"><ele>104.0</ele><time>2026-03-29T16:24:29Z</time></trkpt><trkpt lat="44.30046482490351" lon="9.383970510951354"><ele>104.0</ele><time>2026-03-29T16:24:30Z</time></trkpt><trkpt lat="44.300637946917654" lon="9.383908003519055"><ele>104.0</ele><time>2026-03-29T16:24:31Z</time></trkpt><trkpt lat="44.30081610556464" lon="9.383825969704526"><ele>98.33333333333333</ele><time>2026-03-29T16:24:32Z</time></trkpt><trkpt lat="44.30099554852501" lon="9.383734877972824"><ele>92.66666666666666</ele><time>2026-03-29T16:24:33Z</time></trkpt><trkpt lat="44.30117098152873" lon="9.3836235259628"><ele>87.0</ele><time>2026-03-29T16:24:34Z</time></trkpt><trkpt lat="44.301340858526494" lon="9.383507344301368"><ele>93.33333333333334</ele><time>2026-03-29T16:24:35Z</time></trkpt><trkpt lat="44.30150922354674" lon="9.383370806818585"><ele>99.66666666666667</ele><time>2026-03-29T16:24:36Z</time></trkpt><trkpt lat="44.30167260973483" lon="9.383224016108588"><ele>106.0</ele><time>2026-03-29T16:24:37Z</time></trkpt><trkpt lat="44.30181994678117" lon="9.383078709299362"><ele>103.0</ele><time>2026-03-29T16:24:37.999Z</time></trkpt><trkpt lat="44.301953959212966" lon="9.38292749267458"><ele>100.0</ele><time>2026-03-29T16:24:38.999Z</time></trkpt><trkpt lat="44.302080682881225" lon="9.382769725905739"><ele>97.0</ele><time>2026-03-29T16:24:39.999Z</time></trkpt><trkpt lat="44.302212380747996" lon="9.382588804857958"><ele>99.66666666666667</ele><time>2026-03-29T16:24:40.999Z</time></trkpt><trkpt lat="44.302331212971744" lon="9.382408327572128"><ele>102.33333333333334</ele><time>2026-03-29T16:24:41.999Z</time></trkpt><trkpt lat="44.30245249563813" lon="9.382209492006035"><ele>105.0</ele><time>2026-03-29T16:24:42.999Z</time></trkpt><trkpt lat="44.30255810358099" lon="9.382012239699963"><ele>106.66666666666666</ele><time>2026-03-29T16:24:43.999Z</time></trkpt><trkpt lat="44.30264757418305" lon="9.381826741991512"><ele>108.33333333333333</ele><time>2026-03-29T16:24:44.999Z</time></trkpt><trkpt lat="44.3027251600991" lon="9.38164661177131"><ele>110.0</ele><time>2026-03-29T16:24:45.999Z</time></trkpt><trkpt lat="44.30279451567132" lon="9.38146940510578"><ele>116.0</ele><time>2026-03-29T16:24:46.999Z</time></trkpt><trkpt lat="44.302856656302495" lon="9.381293217203314"><ele>122.0</ele><time>2026-03-29T16:24:47.999Z</time></trkpt><trkpt lat="44.30291391948418" lon="9.381110617829695"><ele>128.0</ele><time>2026-03-29T16:24:48.999Z</time></trkpt><trkpt lat="44.30296798580516" lon="9.380921689467632"><ele>134.0</ele><time>2026-03-29T16:24:49.999Z</time></trkpt><trkpt lat="44.303018429154584" lon="9.380727232002865"><ele>134.0</ele><time>2026-03-29T16:24:51.02Z</time></trkpt><trkpt lat="44.30306686811417" lon="9.380533303564057"><ele>134.0</ele><time>2026-03-29T16:24:52.017Z</time></trkpt><trkpt lat="44.30311997913316" lon="9.380320863129231"><ele>134.0</ele><time>2026-03-29T16:24:53.021Z</time></trkpt><trkpt lat="44.303173595863996" lon="9.380112015185993"><ele>142.0</ele><time>2026-03-29T16:24:54.02Z</time></trkpt><trkpt lat="44.30322083482753" lon="9.379928009829646"><ele>150.0</ele><time>2026-03-29T16:24:55.021Z</time></trkpt><trkpt lat="44.30326739584422" lon="9.379746462616746"><ele>158.0</ele><time>2026-03-29T16:24:56.021Z</time></trkpt><trkpt lat="44.30399995924282" lon="9.377118954901738"><ele>100.0</ele><time>2026-03-29T16:24:59.11Z</time></trkpt><trkpt lat="44.30670785256131" lon="9.367260681473992"><ele>101.33333333333334</ele><time>2026-03-29T16:25:47.999Z</time></trkpt><trkpt lat="44.30682415948821" lon="9.367042198712907"><ele>102.66666666666666</ele><time>2026-03-29T16:25:48.999Z</time></trkpt><trkpt lat="44.3069113311415" lon="9.36682149445789"><ele>104.0</ele><time>2026-03-29T16:25:49.999Z</time></trkpt><trkpt lat="44.307064501727204" lon="9.366696052003276"><ele>104.0</ele><time>2026-03-29T16:25:50.999Z</time></trkpt><trkpt lat="44.30715513726423" lon="9.366512909018313"><ele>104.0</ele><time>2026-03-29T16:25:51.999Z</time></trkpt><trkpt lat="44.30724524874071" lon="9.366339009202811"><ele>104.0</ele><time>2026-03-29T16:25:52.999Z</time></trkpt><trkpt lat="44.307333727458534" lon="9.36617318992384"><ele>97.0</ele><time>2026-03-29T16:25:54Z</time></trkpt><trkpt lat="44.30743323415957" lon="9.365991168179479"><ele>90.0</ele><time>2026-03-29T16:25:55Z</time></trkpt><trkpt lat="44.30752994198214" lon="9.36581599942008"><ele>83.0</ele><time>2026-03-29T16:25:56Z</time></trkpt><trkpt lat="44.307641621336295" lon="9.365618421904504"><ele>86.33333333333334</ele><time>2026-03-29T16:25:57Z</time></trkpt><trkpt lat="44.30774760699934" lon="9.365434471542189"><ele>89.66666666666667</ele><time>2026-03-29T16:25:58Z</time></trkpt><trkpt lat="44.30784595143437" lon="9.365263783509112"><ele>93.0</ele><time>2026-03-29T16:25:59Z</time></trkpt><trkpt lat="44.307940555191976" lon="9.365099587712836"><ele>93.0</ele><time>2026-03-29T16:26:00Z</time></trkpt><trkpt lat="44.308043549177455" lon="9.364920829785527"><ele>93.0</ele><time>2026-03-29T16:26:01Z</time></trkpt><trkpt lat="44.308154842682875" lon="9.364733739399917"><ele>93.0</ele><time>2026-03-29T16:26:02Z</time></trkpt><trkpt lat="44.308265724989504" lon="9.36454890961823"><ele>85.33333333333333</ele><time>2026-03-29T16:26:03Z</time></trkpt><trkpt lat="44.30837501322644" lon="9.364366737091528"><ele>77.66666666666666</ele><time>2026-03-29T16:26:04Z</time></trkpt><trkpt lat="44.308480453664146" lon="9.364190978328349"><ele>70.0</ele><time>2026-03-29T16:26:05Z</time></trkpt><trkpt lat="44.30858239745618" lon="9.364036399793928"><ele>70.0</ele><time>2026-03-29T16:26:06Z</time></trkpt><trkpt lat="44.3086962799192" lon="9.363869168173295"><ele>70.0</ele><time>2026-03-29T16:26:07Z</time></trkpt><trkpt lat="44.30881438299449" lon="9.36369573874863"><ele>70.0</ele><time>2026-03-29T16:26:08Z</time></trkpt><trkpt lat="44.30893619724595" lon="9.363516859750229"><ele>67.0</ele><time>2026-03-29T16:26:09Z</time></trkpt><trkpt lat="44.30905136402119" lon="9.363346650877633"><ele>64.0</ele><time>2026-03-29T16:26:10Z</time></trkpt><trkpt lat="44.30916515289236" lon="9.36318200016376"><ele>61.0</ele><time>2026-03-29T16:26:11Z</time></trkpt><trkpt lat="44.309290421472134" lon="9.363004769169214"><ele>58.0</ele><time>2026-03-29T16:26:12Z</time></trkpt><trkpt lat="44.30941657529078" lon="9.362826285679663"><ele>55.0</ele><time>2026-03-29T16:26:13Z</time></trkpt><trkpt lat="44.30954342852173" lon="9.362646812691258"><ele>52.0</ele><time>2026-03-29T16:26:14Z</time></trkpt><trkpt lat="44.30966515572154" lon="9.36247398741986"><ele>52.666666666666664</ele><time>2026-03-29T16:26:15Z</time></trkpt><trkpt lat="44.30978537348131" lon="9.362299864247124"><ele>53.33333333333333</ele><time>2026-03-29T16:26:16Z</time></trkpt><trkpt lat="44.30990691174807" lon="9.362125721195238"><ele>54.0</ele><time>2026-03-29T16:26:17Z</time></trkpt><trkpt lat="44.310029859399194" lon="9.361949558850831"><ele>54.0</ele><time>2026-03-29T16:26:18Z</time></trkpt><trkpt lat="44.31015272157211" lon="9.361776216605973"><ele>54.0</ele><time>2026-03-29T16:26:19Z</time></trkpt><trkpt lat="44.31027581799658" lon="9.361605786563944"><ele>54.0</ele><time>2026-03-29T16:26:20Z</time></trkpt><trkpt lat="44.310396851399766" lon="9.361437385505186"><ele>54.0</ele><time>2026-03-29T16:26:21Z</time></trkpt><trkpt lat="44.310521779272115" lon="9.361260832502357"><ele>54.0</ele><time>2026-03-29T16:26:22Z</time></trkpt><trkpt lat="44.31063842856285" lon="9.361095962555135"><ele>54.0</ele><time>2026-03-29T16:26:23Z</time></trkpt><trkpt lat="44.31075176268812" lon="9.36093450865024"><ele>55.33333333333333</ele><time>2026-03-29T16:26:24Z</time></trkpt><trkpt lat="44.310859667531325" lon="9.360780789249162"><ele>56.666666666666664</ele><time>2026-03-29T16:26:25Z</time></trkpt><trkpt lat="44.31096659391514" lon="9.360628417213988"><ele>58.0</ele><time>2026-03-29T16:26:26Z</time></trkpt><trkpt lat="44.311087677701266" lon="9.360475362800829"><ele>61.666666666666664</ele><time>2026-03-29T16:26:27Z</time></trkpt><trkpt lat="44.311220692003744" lon="9.36033376128548"><ele>65.33333333333333</ele><time>2026-03-29T16:26:28Z</time></trkpt><trkpt lat="44.311358752866916" lon="9.360161388898362"><ele>69.0</ele><time>2026-03-29T16:26:29Z</time></trkpt><trkpt lat="44.31150128991539" lon="9.35997075902727"><ele>60.333333333333336</ele><time>2026-03-29T16:26:30Z</time></trkpt><trkpt lat="44.31164900877745" lon="9.359762572307895"><ele>51.66666666666667</ele><time>2026-03-29T16:26:31Z</time></trkpt><trkpt lat="44.31180321888491" lon="9.359542458611925"><ele>43.0</ele><time>2026-03-29T16:26:32Z</time></trkpt><trkpt lat="44.31196269477833" lon="9.359311775183297"><ele>42.5</ele><time>2026-03-29T16:26:33Z</time></trkpt><trkpt lat="44.312127346641134" lon="9.35907070986543"><ele>42.0</ele><time>2026-03-29T16:26:34Z</time></trkpt><trkpt lat="44.3123037956276" lon="9.358824349191528"><ele>39.5</ele><time>2026-03-29T16:26:35Z</time></trkpt><trkpt lat="44.31248244162967" lon="9.358564463271858"><ele>37.0</ele><time>2026-03-29T16:26:36Z</time></trkpt><trkpt lat="44.31265590702082" lon="9.358316477010243"><ele>37.0</ele><time>2026-03-29T16:26:37Z</time></trkpt><trkpt lat="44.31283988109714" lon="9.358051621957744"><ele>37.0</ele><time>2026-03-29T16:26:38Z</time></trkpt><trkpt lat="44.313019455125854" lon="9.357786516113473"><ele>48.0</ele><time>2026-03-29T16:26:39Z</time></trkpt><trkpt lat="44.313198549505515" lon="9.35753457527378"><ele>59.0</ele><time>2026-03-29T16:26:40Z</time></trkpt><trkpt lat="44.31338693371011" lon="9.357274081546748"><ele>58.0</ele><time>2026-03-29T16:26:41Z</time></trkpt><trkpt lat="44.31358057537417" lon="9.357008048299239"><ele>57.0</ele><time>2026-03-29T16:26:42Z</time></trkpt><trkpt lat="44.31379090072523" lon="9.356730038656698"><ele>57.0</ele><time>2026-03-29T16:26:43.021Z</time></trkpt><trkpt lat="44.31400644375674" lon="9.356449607474977"><ele>57.0</ele><time>2026-03-29T16:26:44.02Z</time></trkpt><trkpt lat="44.31422314830284" lon="9.356166248877622"><ele>57.0</ele><time>2026-03-29T16:26:45.018Z</time></trkpt><trkpt lat="44.31443367951156" lon="9.35588656295026"><ele>57.0</ele><time>2026-03-29T16:26:46.02Z</time></trkpt><trkpt lat="44.31464314216628" lon="9.355605828476557"><ele>47.5</ele><time>2026-03-29T16:26:47Z</time></trkpt><trkpt lat="44.31487373568088" lon="9.355336389360001"><ele>38.0</ele><time>2026-03-29T16:26:48Z</time></trkpt><trkpt lat="44.31507827806469" lon="9.354958362704245"><ele>37.5</ele><time>2026-03-29T16:26:49Z</time></trkpt><trkpt lat="44.31525531983244" lon="9.35469453677423"><ele>37.0</ele><time>2026-03-29T16:26:50Z</time></trkpt><trkpt lat="44.315424885849175" lon="9.354449523561845"><ele>34.0</ele><time>2026-03-29T16:26:51Z</time></trkpt><trkpt lat="44.31558690235558" lon="9.35421830702531"><ele>31.0</ele><time>2026-03-29T16:26:52Z</time></trkpt><trkpt lat="44.31574653108502" lon="9.353984993266055"><ele>31.0</ele><time>2026-03-29T16:26:53Z</time></trkpt><trkpt lat="44.315910347570394" lon="9.353747279656098"><ele>31.0</ele><time>2026-03-29T16:26:54Z</time></trkpt><trkpt lat="44.316064312356104" lon="9.353500083429646"><ele>31.0</ele><time>2026-03-29T16:26:55Z</time></trkpt><trkpt lat="44.316198435378794" lon="9.353258963036097"><ele>31.0</ele><time>2026-03-29T16:26:56Z</time></trkpt><trkpt lat="44.31632886259526" lon="9.353019039859362"><ele>31.0</ele><time>2026-03-29T16:26:57Z</time></trkpt><trkpt lat="44.316453972035234" lon="9.352770994126665"><ele>33.5</ele><time>2026-03-29T16:26:58Z</time></trkpt><trkpt lat="44.31657959449707" lon="9.3525080809978"><ele>36.0</ele><time>2026-03-29T16:26:59Z</time></trkpt><trkpt lat="44.316702028214465" lon="9.352232395974621"><ele>34.0</ele><time>2026-03-29T16:27:00Z</time></trkpt><trkpt lat="44.31682273392498" lon="9.351945679214122"><ele>32.0</ele><time>2026-03-29T16:27:01Z</time></trkpt><trkpt lat="44.31694443107342" lon="9.351650619914825"><ele>30.5</ele><time>2026-03-29T16:27:02Z</time></trkpt><trkpt lat="44.317076106483746" lon="9.3513553053473"><ele>29.0</ele><time>2026-03-29T16:27:03Z</time></trkpt><trkpt lat="44.317209066159265" lon="9.351054687924231"><ele>35.0</ele><time>2026-03-29T16:27:04Z</time></trkpt><trkpt lat="44.3173415615971" lon="9.350752222499812"><ele>41.0</ele><time>2026-03-29T16:27:05Z</time></trkpt><trkpt lat="44.31747523970461" lon="9.350451517829482"><ele>42.5</ele><time>2026-03-29T16:27:06Z</time></trkpt><trkpt lat="44.31761019249594" lon="9.350146514373803"><ele>44.0</ele><time>2026-03-29T16:27:07Z</time></trkpt><trkpt lat="44.31775069708451" lon="9.349834740614899"><ele>44.0</ele><time>2026-03-29T16:27:08Z</time></trkpt><trkpt lat="44.31789602418963" lon="9.349521985904993"><ele>44.0</ele><time>2026-03-29T16:27:09Z</time></trkpt><trkpt lat="44.31803663914604" lon="9.349188861051077"><ele>39.5</ele><time>2026-03-29T16:27:10Z</time></trkpt><trkpt lat="44.318175400122875" lon="9.348879442186712"><ele>35.0</ele><time>2026-03-29T16:27:11Z</time></trkpt><trkpt lat="44.318308836956504" lon="9.348555232072693"><ele>35.0</ele><time>2026-03-29T16:27:12Z</time></trkpt><trkpt lat="44.31843680924393" lon="9.348210164694997"><ele>35.0</ele><time>2026-03-29T16:27:12.999Z</time></trkpt><trkpt lat="44.31856137839751" lon="9.347862304569517"><ele>31.0</ele><time>2026-03-29T16:27:13.999Z</time></trkpt><trkpt lat="44.318686069220966" lon="9.347513076880036"><ele>27.0</ele><time>2026-03-29T16:27:14.999Z</time></trkpt><trkpt lat="44.31881142448461" lon="9.347169602304216"><ele>17.0</ele><time>2026-03-29T16:27:15.999Z</time></trkpt><trkpt lat="44.318937138263" lon="9.346817596617383"><ele>7.0</ele><time>2026-03-29T16:27:16.999Z</time></trkpt><trkpt lat="44.31906568878794" lon="9.346466954960938"><ele>7.0</ele><time>2026-03-29T16:27:17.999Z</time></trkpt><trkpt lat="44.3191961377456" lon="9.346116293025153"><ele>7.0</ele><time>2026-03-29T16:27:18.999Z</time></trkpt><trkpt lat="44.31932542946717" lon="9.345757784733326"><ele>7.0</ele><time>2026-03-29T16:27:19.999Z</time></trkpt><trkpt lat="44.31945386060499" lon="9.345402229230945"><ele>7.0</ele><time>2026-03-29T16:27:20.999Z</time></trkpt><trkpt lat="44.31958435123729" lon="9.345040388432865"><ele>7.5</ele><time>2026-03-29T16:27:21.999Z</time></trkpt><trkpt lat="44.31971519560831" lon="9.344677638273305"><ele>8.0</ele><time>2026-03-29T16:27:22.999Z</time></trkpt><trkpt lat="44.31984627748087" lon="9.344311997890737"><ele>8.0</ele><time>2026-03-29T16:27:23.999Z</time></trkpt><trkpt lat="44.31998223945683" lon="9.343942358909441"><ele>8.0</ele><time>2026-03-29T16:27:24.999Z</time></trkpt><trkpt lat="44.320121102373776" lon="9.343571089141694"><ele>8.0</ele><time>2026-03-29T16:27:25.999Z</time></trkpt><trkpt lat="44.32026032505241" lon="9.34319132650419"><ele>8.0</ele><time>2026-03-29T16:27:26.999Z</time></trkpt><trkpt lat="44.32040124241939" lon="9.342801744583793"><ele>8.0</ele><time>2026-03-29T16:27:27.999Z</time></trkpt><trkpt lat="44.32054698777336" lon="9.342399399104705"><ele>8.0</ele><time>2026-03-29T16:27:28.999Z</time></trkpt><trkpt lat="44.32069853118462" lon="9.341979763975356"><ele>9.0</ele><time>2026-03-29T16:27:29.999Z</time></trkpt><trkpt lat="44.3208575623894" lon="9.341546896643363"><ele>10.0</ele><time>2026-03-29T16:27:30.999Z</time></trkpt><trkpt lat="44.32101884130089" lon="9.341104706870217"><ele>15.0</ele><time>2026-03-29T16:27:31.999Z</time></trkpt><trkpt lat="44.32118236117" lon="9.340657703673124"><ele>20.0</ele><time>2026-03-29T16:27:32.999Z</time></trkpt><trkpt lat="44.32134742783766" lon="9.340212733903805"><ele>31.5</ele><time>2026-03-29T16:27:33.999Z</time></trkpt><trkpt lat="44.32149653971394" lon="9.339808189942682"><ele>43.0</ele><time>2026-03-29T16:27:34.999Z</time></trkpt><trkpt lat="44.321638542169055" lon="9.33943772002659"><ele>43.0</ele><time>2026-03-29T16:27:35.999Z</time></trkpt><trkpt lat="44.32178251915866" lon="9.339077477555607"><ele>43.0</ele><time>2026-03-29T16:27:36.999Z</time></trkpt><trkpt lat="44.32192927774299" lon="9.338718461974397"><ele>45.0</ele><time>2026-03-29T16:27:37.999Z</time></trkpt><trkpt lat="44.3220788005469" lon="9.338360877609276"><ele>47.0</ele><time>2026-03-29T16:27:38.999Z</time></trkpt><trkpt lat="44.322228313675126" lon="9.338003700557717"><ele>60.0</ele><time>2026-03-29T16:27:39.999Z</time></trkpt><trkpt lat="44.32238301713632" lon="9.337636495568328"><ele>73.0</ele><time>2026-03-29T16:27:40.999Z</time></trkpt><trkpt lat="44.32253368825047" lon="9.337266339093398"><ele>65.0</ele><time>2026-03-29T16:27:42.017Z</time></trkpt><trkpt lat="44.32268374766467" lon="9.336902278459595"><ele>57.0</ele><time>2026-03-29T16:27:43.016Z</time></trkpt><trkpt lat="44.322835302561536" lon="9.336534697675157"><ele>55.0</ele><time>2026-03-29T16:27:44.017Z</time></trkpt><trkpt lat="44.32301038558057" lon="9.336174081078797"><ele>53.0</ele><time>2026-03-29T16:27:44.999Z</time></trkpt><trkpt lat="44.32323960984741" lon="9.33559619669519"><ele>50.0</ele><time>2026-03-29T16:27:45.999Z</time></trkpt><trkpt lat="44.323393531494695" lon="9.33523675875807"><ele>47.0</ele><time>2026-03-29T16:27:46.999Z</time></trkpt><trkpt lat="44.32353821228374" lon="9.334911874416118"><ele>48.0</ele><time>2026-03-29T16:27:47.999Z</time></trkpt><trkpt lat="44.323662631593415" lon="9.334595889627535"><ele>49.0</ele><time>2026-03-29T16:27:48.999Z</time></trkpt><trkpt lat="44.323788446782515" lon="9.334304964994633"><ele>60.0</ele><time>2026-03-29T16:27:49.999Z</time></trkpt><trkpt lat="44.32391047589348" lon="9.334015496516198"><ele>71.0</ele><time>2026-03-29T16:27:50.999Z</time></trkpt><trkpt lat="44.32404682381421" lon="9.333701275680303"><ele>74.0</ele><time>2026-03-29T16:27:51.999Z</time></trkpt><trkpt lat="44.324172411501465" lon="9.333388628380911"><ele>77.0</ele><time>2026-03-29T16:27:52.999Z</time></trkpt><trkpt lat="44.324300338225335" lon="9.333111270646087"><ele>85.5</ele><time>2026-03-29T16:27:53.999Z</time></trkpt><trkpt lat="44.32442565107912" lon="9.332846504285223"><ele>94.0</ele><time>2026-03-29T16:27:54.999Z</time></trkpt><trkpt lat="44.32455271185228" lon="9.332566906530927"><ele>94.0</ele><time>2026-03-29T16:27:56.021Z</time></trkpt><trkpt lat="44.324677564842204" lon="9.332302071338544"><ele>94.0</ele><time>2026-03-29T16:27:57.02Z</time></trkpt><trkpt lat="44.32480001859148" lon="9.332015168731605"><ele>109.0</ele><time>2026-03-29T16:27:58.019Z</time></trkpt><trkpt lat="44.324927957816435" lon="9.3317638951648"><ele>124.0</ele><time>2026-03-29T16:27:59.019Z</time></trkpt><trkpt lat="44.32563913524554" lon="9.328361777597413"><ele>80.5</ele><time>2026-03-29T16:28:07.999Z</time></trkpt><trkpt lat="44.325670835097505" lon="9.327994635768695"><ele>37.0</ele><time>2026-03-29T16:28:08.999Z</time></trkpt><trkpt lat="44.32576989486902" lon="9.327621371614569"><ele>37.0</ele><time>2026-03-29T16:28:09.999Z</time></trkpt><trkpt lat="44.3258337755517" lon="9.327241440291704"><ele>37.0</ele><time>2026-03-29T16:28:10.999Z</time></trkpt><trkpt lat="44.32590050885289" lon="9.32685471286311"><ele>37.5</ele><time>2026-03-29T16:28:12Z</time></trkpt><trkpt lat="44.325969485073436" lon="9.326468015739078"><ele>38.0</ele><time>2026-03-29T16:28:13Z</time></trkpt><trkpt lat="44.32604077635196" lon="9.32608143556671"><ele>41.0</ele><time>2026-03-29T16:28:14Z</time></trkpt><trkpt lat="44.32610735641366" lon="9.325693120812527"><ele>44.0</ele><time>2026-03-29T16:28:15Z</time></trkpt><trkpt lat="44.32617770222197" lon="9.32529985119224"><ele>45.5</ele><time>2026-03-29T16:28:16Z</time></trkpt><trkpt lat="44.326251600251744" lon="9.32490696879794"><ele>47.0</ele><time>2026-03-29T16:28:17Z</time></trkpt><trkpt lat="44.32632168396403" lon="9.324504437153715"><ele>44.0</ele><time>2026-03-29T16:28:18Z</time></trkpt><trkpt lat="44.32638870052701" lon="9.324106026666778"><ele>41.0</ele><time>2026-03-29T16:28:19Z</time></trkpt><trkpt lat="44.326458349183795" lon="9.3237059329171"><ele>41.0</ele><time>2026-03-29T16:28:20Z</time></trkpt><trkpt lat="44.32653041912098" lon="9.323309567461331"><ele>41.0</ele><time>2026-03-29T16:28:21Z</time></trkpt><trkpt lat="44.326603688174494" lon="9.32291201817592"><ele>34.5</ele><time>2026-03-29T16:28:22Z</time></trkpt><trkpt lat="44.32668286441948" lon="9.322536296179887"><ele>28.0</ele><time>2026-03-29T16:28:23Z</time></trkpt><trkpt lat="44.3267628916644" lon="9.32219077019569"><ele>22.0</ele><time>2026-03-29T16:28:24Z</time></trkpt><trkpt lat="44.32685163133328" lon="9.32185629125616"><ele>16.0</ele><time>2026-03-29T16:28:25Z</time></trkpt><trkpt lat="44.32695424405808" lon="9.321522308595057"><ele>12.0</ele><time>2026-03-29T16:28:26Z</time></trkpt><trkpt lat="44.32707104130962" lon="9.32118686692411"><ele>8.0</ele><time>2026-03-29T16:28:27Z</time></trkpt><trkpt lat="44.327196135215345" lon="9.320861057619402"><ele>12.0</ele><time>2026-03-29T16:28:28Z</time></trkpt><trkpt lat="44.3273323516528" lon="9.320538311999677"><ele>16.0</ele><time>2026-03-29T16:28:29Z</time></trkpt><trkpt lat="44.32747317690989" lon="9.320225075314085"><ele>16.0</ele><time>2026-03-29T16:28:30Z</time></trkpt><trkpt lat="44.327620975093716" lon="9.319911767751337"><ele>16.0</ele><time>2026-03-29T16:28:31Z</time></trkpt><trkpt lat="44.3277650493714" lon="9.319602249130089"><ele>18.0</ele><time>2026-03-29T16:28:32Z</time></trkpt><trkpt lat="44.32790527258723" lon="9.319292333387912"><ele>20.0</ele><time>2026-03-29T16:28:33Z</time></trkpt><trkpt lat="44.328044411913424" lon="9.318976667304995"><ele>29.5</ele><time>2026-03-29T16:28:34Z</time></trkpt><trkpt lat="44.32818453938309" lon="9.318664575888759"><ele>39.0</ele><time>2026-03-29T16:28:35Z</time></trkpt><trkpt lat="44.328321786829754" lon="9.31834959853498"><ele>48.0</ele><time>2026-03-29T16:28:36Z</time></trkpt><trkpt lat="44.32845132150249" lon="9.318031709369988"><ele>57.0</ele><time>2026-03-29T16:28:37Z</time></trkpt><trkpt lat="44.328572035971156" lon="9.317710133787902"><ele>57.0</ele><time>2026-03-29T16:28:38Z</time></trkpt><trkpt lat="44.32868134552412" lon="9.31738714853757"><ele>57.0</ele><time>2026-03-29T16:28:39Z</time></trkpt><trkpt lat="44.32877093374237" lon="9.31709151264422"><ele>62.0</ele><time>2026-03-29T16:28:40Z</time></trkpt><trkpt lat="44.32885477814343" lon="9.316807480408237"><ele>67.0</ele><time>2026-03-29T16:28:41Z</time></trkpt><trkpt lat="44.328938750093116" lon="9.316517329576545"><ele>72.0</ele><time>2026-03-29T16:28:42.014Z</time></trkpt><trkpt lat="44.32902039924046" lon="9.316232331401393"><ele>71.66666666666667</ele><time>2026-03-29T16:28:43.014Z</time></trkpt><trkpt lat="44.329100629531766" lon="9.315954883159247"><ele>71.33333333333334</ele><time>2026-03-29T16:28:44.014Z</time></trkpt><trkpt lat="44.32917984109649" lon="9.315683445614253"><ele>71.0</ele><time>2026-03-29T16:28:45.013Z</time></trkpt><trkpt lat="44.329255514188745" lon="9.315428346278052"><ele>71.0</ele><time>2026-03-29T16:28:46.014Z</time></trkpt><trkpt lat="44.32933801304318" lon="9.315146428162045"><ele>71.0</ele><time>2026-03-29T16:28:47.014Z</time></trkpt><trkpt lat="44.32958747264401" lon="9.314361233272882"><ele>73.5</ele><time>2026-03-29T16:28:48Z</time></trkpt><trkpt lat="44.32969315977651" lon="9.313972442565383"><ele>76.0</ele><time>2026-03-29T16:28:49Z</time></trkpt><trkpt lat="44.32979756757122" lon="9.313582054022628"><ele>71.0</ele><time>2026-03-29T16:28:50Z</time></trkpt><trkpt lat="44.32991340598394" lon="9.313223865636013"><ele>66.0</ele><time>2026-03-29T16:28:51Z</time></trkpt><trkpt lat="44.330026141981726" lon="9.312858862134247"><ele>66.0</ele><time>2026-03-29T16:28:52Z</time></trkpt><trkpt lat="44.33010250479131" lon="9.3125456593154"><ele>66.0</ele><time>2026-03-29T16:28:53Z</time></trkpt><trkpt lat="44.33019284903788" lon="9.31218447385405"><ele>72.5</ele><time>2026-03-29T16:28:54Z</time></trkpt><trkpt lat="44.3302845389538" lon="9.311812824674938"><ele>79.0</ele><time>2026-03-29T16:28:55Z</time></trkpt><trkpt lat="44.33037704554292" lon="9.311441420163838"><ele>78.5</ele><time>2026-03-29T16:28:56Z</time></trkpt><trkpt lat="44.330463241872096" lon="9.311062077233611"><ele>78.0</ele><time>2026-03-29T16:28:57Z</time></trkpt><trkpt lat="44.33054625424556" lon="9.310683191488275"><ele>66.5</ele><time>2026-03-29T16:28:58Z</time></trkpt><trkpt lat="44.330626275957755" lon="9.31029504587055"><ele>55.0</ele><time>2026-03-29T16:28:59Z</time></trkpt><trkpt lat="44.33070627618536" lon="9.309910150995654"><ele>64.5</ele><time>2026-03-29T16:29:00Z</time></trkpt><trkpt lat="44.330786508346634" lon="9.309520238086563"><ele>74.0</ele><time>2026-03-29T16:29:01Z</time></trkpt><trkpt lat="44.33086838956838" lon="9.3091331717568"><ele>83.5</ele><time>2026-03-29T16:29:02Z</time></trkpt><trkpt lat="44.3309490697458" lon="9.30875152374852"><ele>93.0</ele><time>2026-03-29T16:29:03Z</time></trkpt><trkpt lat="44.33101594895503" lon="9.308407163496907"><ele>93.0</ele><time>2026-03-29T16:29:04Z</time></trkpt><trkpt lat="44.331077947701765" lon="9.308089284096239"><ele>93.0</ele><time>2026-03-29T16:29:05Z</time></trkpt><trkpt lat="44.33113028365431" lon="9.307783215555666"><ele>97.5</ele><time>2026-03-29T16:29:06Z</time></trkpt><trkpt lat="44.33117009205992" lon="9.307466584852962"><ele>102.0</ele><time>2026-03-29T16:29:07Z</time></trkpt><trkpt lat="44.33119631848196" lon="9.307141269831703"><ele>106.0</ele><time>2026-03-29T16:29:08Z</time></trkpt><trkpt lat="44.33120852471441" lon="9.306800862649688"><ele>110.0</ele><time>2026-03-29T16:29:09Z</time></trkpt><trkpt lat="44.3311975389861" lon="9.30645365685723"><ele>110.0</ele><time>2026-03-29T16:29:10Z</time></trkpt><trkpt lat="44.33117510270064" lon="9.306099414882478"><ele>110.0</ele><time>2026-03-29T16:29:11Z</time></trkpt><trkpt lat="44.33113947306743" lon="9.305739479442341"><ele>107.0</ele><time>2026-03-29T16:29:12Z</time></trkpt><trkpt lat="44.33110013097161" lon="9.305371103924273"><ele>104.0</ele><time>2026-03-29T16:29:13Z</time></trkpt><trkpt lat="44.33106543992543" lon="9.305000358745302"><ele>103.0</ele><time>2026-03-29T16:29:14Z</time></trkpt><trkpt lat="44.331038751105005" lon="9.304622006830384"><ele>102.0</ele><time>2026-03-29T16:29:15Z</time></trkpt><trkpt lat="44.3310134835245" lon="9.30423679441772"><ele>105.0</ele><time>2026-03-29T16:29:16Z</time></trkpt><trkpt lat="44.331015943662806" lon="9.303859636511968"><ele>108.0</ele><time>2026-03-29T16:29:17Z</time></trkpt><trkpt lat="44.33103737174255" lon="9.303477267227793"><ele>108.0</ele><time>2026-03-29T16:29:18Z</time></trkpt><trkpt lat="44.331074186143695" lon="9.30308392561125"><ele>108.0</ele><time>2026-03-29T16:29:19Z</time></trkpt><trkpt lat="44.33110323061625" lon="9.302718198800799"><ele>109.0</ele><time>2026-03-29T16:29:19.999Z</time></trkpt><trkpt lat="44.331123422690126" lon="9.3023885489372"><ele>110.0</ele><time>2026-03-29T16:29:20.999Z</time></trkpt><trkpt lat="44.331136256529824" lon="9.30207784438664"><ele>110.0</ele><time>2026-03-29T16:29:21.999Z</time></trkpt><trkpt lat="44.331135566475986" lon="9.3017634972011"><ele>110.0</ele><time>2026-03-29T16:29:22.999Z</time></trkpt><trkpt lat="44.33111943632657" lon="9.301450704765315"><ele>110.0</ele><time>2026-03-29T16:29:23.999Z</time></trkpt><trkpt lat="44.33108935676693" lon="9.301143113061892"><ele>108.33333333333333</ele><time>2026-03-29T16:29:24.999Z</time></trkpt><trkpt lat="44.3310580697648" lon="9.300841958366949"><ele>106.66666666666666</ele><time>2026-03-29T16:29:25.999Z</time></trkpt><trkpt lat="44.33101956678392" lon="9.300538440023951"><ele>105.0</ele><time>2026-03-29T16:29:26.999Z</time></trkpt><trkpt lat="44.330984456019166" lon="9.300234014267991"><ele>105.0</ele><time>2026-03-29T16:29:27.999Z</time></trkpt><trkpt lat="44.3309599419784" lon="9.299930437972675"><ele>105.0</ele><time>2026-03-29T16:29:28.999Z</time></trkpt><trkpt lat="44.33094130413166" lon="9.299614874272313"><ele>105.0</ele><time>2026-03-29T16:29:29.999Z</time></trkpt><trkpt lat="44.33093619723962" lon="9.2992985266428"><ele>108.5</ele><time>2026-03-29T16:29:30.999Z</time></trkpt><trkpt lat="44.33094162684747" lon="9.298977631697339"><ele>112.0</ele><time>2026-03-29T16:29:31.999Z</time></trkpt><trkpt lat="44.33096299206402" lon="9.298661011349392"><ele>120.5</ele><time>2026-03-29T16:29:32.999Z</time></trkpt><trkpt lat="44.33099248216168" lon="9.298339512401657"><ele>129.0</ele><time>2026-03-29T16:29:33.999Z</time></trkpt><trkpt lat="44.331034749027395" lon="9.29802394071873"><ele>133.0</ele><time>2026-03-29T16:29:34.999Z</time></trkpt><trkpt lat="44.331093625722055" lon="9.297707408903578"><ele>137.0</ele><time>2026-03-29T16:29:35.999Z</time></trkpt><trkpt lat="44.33116163248083" lon="9.297390637180959"><ele>141.0</ele><time>2026-03-29T16:29:36.999Z</time></trkpt><trkpt lat="44.331242657478214" lon="9.297079092608298"><ele>145.0</ele><time>2026-03-29T16:29:37.999Z</time></trkpt><trkpt lat="44.33133325951765" lon="9.29677916741201"><ele>134.66666666666669</ele><time>2026-03-29T16:29:38.999Z</time></trkpt><trkpt lat="44.331415385410146" lon="9.29650899201217"><ele>124.33333333333334</ele><time>2026-03-29T16:29:39.999Z</time></trkpt><trkpt lat="44.331503407112955" lon="9.296226278620145"><ele>114.0</ele><time>2026-03-29T16:29:40.999Z</time></trkpt><trkpt lat="44.331590841067054" lon="9.295933438948627"><ele>114.0</ele><time>2026-03-29T16:29:41.999Z</time></trkpt><trkpt lat="44.3316817348783" lon="9.295630859664131"><ele>114.0</ele><time>2026-03-29T16:29:42.999Z</time></trkpt><trkpt lat="44.33178184891852" lon="9.295325734725548"><ele>123.5</ele><time>2026-03-29T16:29:43.999Z</time></trkpt><trkpt lat="44.33189829244219" lon="9.295018604980067"><ele>133.0</ele><time>2026-03-29T16:29:44.999Z</time></trkpt><trkpt lat="44.33202658918213" lon="9.294717920119732"><ele>127.0</ele><time>2026-03-29T16:29:45.999Z</time></trkpt><trkpt lat="44.33216132204806" lon="9.294434010376973"><ele>121.0</ele><time>2026-03-29T16:29:46.999Z</time></trkpt><trkpt lat="44.33229802001471" lon="9.294193025356904"><ele>121.0</ele><time>2026-03-29T16:29:47.999Z</time></trkpt><trkpt lat="44.332441669814415" lon="9.293964752472254"><ele>121.0</ele><time>2026-03-29T16:29:48.999Z</time></trkpt><trkpt lat="44.33260005583413" lon="9.293740474405919"><ele>121.0</ele><time>2026-03-29T16:29:49.999Z</time></trkpt><trkpt lat="44.332766404734194" lon="9.293523326366332"><ele>122.5</ele><time>2026-03-29T16:29:50.999Z</time></trkpt><trkpt lat="44.33294122098758" lon="9.293312897788528"><ele>124.0</ele><time>2026-03-29T16:29:51.999Z</time></trkpt><trkpt lat="44.33312376387087" lon="9.293116349076461"><ele>130.0</ele><time>2026-03-29T16:29:52.999Z</time></trkpt><trkpt lat="44.33330899382091" lon="9.29293090949686"><ele>136.0</ele><time>2026-03-29T16:29:53.999Z</time></trkpt><trkpt lat="44.33347915831001" lon="9.29276806620013"><ele>142.0</ele><time>2026-03-29T16:29:54.999Z</time></trkpt><trkpt lat="44.33364889570281" lon="9.292621189884022"><ele>142.0</ele><time>2026-03-29T16:29:55.999Z</time></trkpt><trkpt lat="44.33382675718555" lon="9.292468713042474"><ele>142.0</ele><time>2026-03-29T16:29:56.999Z</time></trkpt><trkpt lat="44.334004009028824" lon="9.292314595167115"><ele>142.0</ele><time>2026-03-29T16:29:57.999Z</time></trkpt><trkpt lat="44.33418405103598" lon="9.292155245167292"><ele>143.0</ele><time>2026-03-29T16:29:58.999Z</time></trkpt><trkpt lat="44.334365314527076" lon="9.29198456710838"><ele>144.0</ele><time>2026-03-29T16:29:59.999Z</time></trkpt><trkpt lat="44.334540696397106" lon="9.291814244422815"><ele>145.0</ele><time>2026-03-29T16:30:00.999Z</time></trkpt><trkpt lat="44.334722078319224" lon="9.291634057478104"><ele>145.0</ele><time>2026-03-29T16:30:01.999Z</time></trkpt><trkpt lat="44.33489673889574" lon="9.291450205484619"><ele>145.0</ele><time>2026-03-29T16:30:02.999Z</time></trkpt><trkpt lat="44.335075787225605" lon="9.291247874115987"><ele>145.0</ele><time>2026-03-29T16:30:03.999Z</time></trkpt><trkpt lat="44.33524441213776" lon="9.291041462217752"><ele>152.0</ele><time>2026-03-29T16:30:04.999Z</time></trkpt><trkpt lat="44.33541604864818" lon="9.290806704456985"><ele>159.0</ele><time>2026-03-29T16:30:05.999Z</time></trkpt><trkpt lat="44.33559115311993" lon="9.290549662112413"><ele>168.0</ele><time>2026-03-29T16:30:06.999Z</time></trkpt><trkpt lat="44.33576236084778" lon="9.29029792874254"><ele>177.0</ele><time>2026-03-29T16:30:07.999Z</time></trkpt><trkpt lat="44.335933224043316" lon="9.290042892655409"><ele>177.0</ele><time>2026-03-29T16:30:08.999Z</time></trkpt><trkpt lat="44.33610733314122" lon="9.289787416358113"><ele>177.0</ele><time>2026-03-29T16:30:10.016Z</time></trkpt><trkpt lat="44.33627957824383" lon="9.289533108955638"><ele>193.0</ele><time>2026-03-29T16:30:11.021Z</time></trkpt><trkpt lat="44.33645243871912" lon="9.289278775039174"><ele>209.0</ele><time>2026-03-29T16:30:12.02Z</time></trkpt><trkpt lat="44.33661958434487" lon="9.289016737691844"><ele>232.0</ele><time>2026-03-29T16:30:13.019Z</time></trkpt><trkpt lat="44.33678682831091" lon="9.288746406590949"><ele>255.0</ele><time>2026-03-29T16:30:14.017Z</time></trkpt><trkpt lat="44.33695862713005" lon="9.288476592356192"><ele>127.0</ele><time>2026-03-29T16:30:15.021Z</time></trkpt><trkpt lat="44.34336308859693" lon="9.27526426502436"><ele>127.0</ele><time>2026-03-29T16:30:50.999Z</time></trkpt><trkpt lat="44.343493544040896" lon="9.274919085848847"><ele>127.0</ele><time>2026-03-29T16:30:51.999Z</time></trkpt><trkpt lat="44.34361327859439" lon="9.274553148138407"><ele>115.0</ele><time>2026-03-29T16:30:52.999Z</time></trkpt><trkpt lat="44.34374230860233" lon="9.274204016094794"><ele>103.0</ele><time>2026-03-29T16:30:53.999Z</time></trkpt><trkpt lat="44.34386501528392" lon="9.273862697233787"><ele>85.0</ele><time>2026-03-29T16:30:54.999Z</time></trkpt><trkpt lat="44.343996348481355" lon="9.273513765861523"><ele>67.0</ele><time>2026-03-29T16:30:55.999Z</time></trkpt><trkpt lat="44.34412729053001" lon="9.27316578254499"><ele>77.5</ele><time>2026-03-29T16:30:57Z</time></trkpt><trkpt lat="44.34425483787102" lon="9.27281940209371"><ele>88.0</ele><time>2026-03-29T16:30:58Z</time></trkpt><trkpt lat="44.34438147633793" lon="9.272468949161928"><ele>101.0</ele><time>2026-03-29T16:30:59Z</time></trkpt><trkpt lat="44.34451034295657" lon="9.272121660023814"><ele>114.0</ele><time>2026-03-29T16:31:00Z</time></trkpt><trkpt lat="44.34464022295281" lon="9.2717800914725"><ele>130.5</ele><time>2026-03-29T16:31:01Z</time></trkpt><trkpt lat="44.34475542722114" lon="9.27147166263224"><ele>147.0</ele><time>2026-03-29T16:31:02Z</time></trkpt><trkpt lat="44.34486144294066" lon="9.271174778792105"><ele>166.5</ele><time>2026-03-29T16:31:03Z</time></trkpt><trkpt lat="44.344958620056396" lon="9.27086582838499"><ele>186.0</ele><time>2026-03-29T16:31:04.02Z</time></trkpt><trkpt lat="44.345057682151754" lon="9.27055441680614"><ele>199.5</ele><time>2026-03-29T16:31:05.021Z</time></trkpt><trkpt lat="44.3451370317086" lon="9.270245422657124"><ele>213.0</ele><time>2026-03-29T16:31:06.019Z</time></trkpt><trkpt lat="44.34520044259936" lon="9.269949091753894"><ele>222.0</ele><time>2026-03-29T16:31:07.021Z</time></trkpt><trkpt lat="44.3452695522754" lon="9.269627742628996"><ele>231.0</ele><time>2026-03-29T16:31:08.019Z</time></trkpt><trkpt lat="44.34578663095429" lon="9.266898738224919"><ele>321.0</ele><time>2026-03-29T16:31:11.108Z</time></trkpt><trkpt lat="44.34606902021405" lon="9.265576890664947"><ele>305.0</ele><time>2026-03-29T16:31:12.107Z</time></trkpt><trkpt lat="44.34635308222747" lon="9.264256779808031"><ele>351.0</ele><time>2026-03-29T16:31:13.106Z</time></trkpt><trkpt lat="44.34663725259173" lon="9.262935353938513"><ele>339.0</ele><time>2026-03-29T16:31:14.106Z</time></trkpt><trkpt lat="44.3469216317754" lon="9.261612598196422"><ele>320.0</ele><time>2026-03-29T16:31:15.107Z</time></trkpt><trkpt lat="44.347206593045556" lon="9.260291796424603"><ele>326.0</ele><time>2026-03-29T16:31:16.107Z</time></trkpt><trkpt lat="44.347491361756006" lon="9.2589716202859"><ele>275.0</ele><time>2026-03-29T16:31:17.106Z</time></trkpt><trkpt lat="44.34777586560973" lon="9.257649744025864"><ele>188.0</ele><time>2026-03-29T16:31:18.107Z</time></trkpt><trkpt lat="44.34806077594987" lon="9.256329164972366"><ele>154.0</ele><time>2026-03-29T16:31:19.106Z</time></trkpt><trkpt lat="44.34834268861801" lon="9.25500675115257"><ele>108.0</ele><time>2026-03-29T16:31:20.106Z</time></trkpt><trkpt lat="44.348608902696846" lon="9.253775579863463"><ele>108.0</ele><time>2026-03-29T16:31:49Z</time></trkpt><trkpt lat="44.34868101229169" lon="9.253429045799582"><ele>108.0</ele><time>2026-03-29T16:31:50Z</time></trkpt><trkpt lat="44.348711482633554" lon="9.25304292210476"><ele>103.0</ele><time>2026-03-29T16:31:51Z</time></trkpt><trkpt lat="44.34874909600569" lon="9.252685311230328"><ele>98.0</ele><time>2026-03-29T16:31:52Z</time></trkpt><trkpt lat="44.34878891663574" lon="9.252321454875723"><ele>96.0</ele><time>2026-03-29T16:31:53Z</time></trkpt><trkpt lat="44.34882259877778" lon="9.251951230959254"><ele>94.0</ele><time>2026-03-29T16:31:54Z</time></trkpt><trkpt lat="44.34886311601395" lon="9.251590593522085"><ele>111.0</ele><time>2026-03-29T16:31:55Z</time></trkpt><trkpt lat="44.348893912558" lon="9.251233494986867"><ele>128.0</ele><time>2026-03-29T16:31:56Z</time></trkpt><trkpt lat="44.34892387446313" lon="9.2508740903602"><ele>124.0</ele><time>2026-03-29T16:31:57Z</time></trkpt><trkpt lat="44.34895970713079" lon="9.25053833723237"><ele>120.0</ele><time>2026-03-29T16:31:58Z</time></trkpt><trkpt lat="44.34900008917195" lon="9.250226163119105"><ele>120.0</ele><time>2026-03-29T16:31:59Z</time></trkpt><trkpt lat="44.34905974897516" lon="9.249921213781382"><ele>120.0</ele><time>2026-03-29T16:32:00Z</time></trkpt><trkpt lat="44.34913360462538" lon="9.249634459147018"><ele>120.0</ele><time>2026-03-29T16:32:01Z</time></trkpt><trkpt lat="44.349220955919996" lon="9.249352173181526"><ele>116.33333333333334</ele><time>2026-03-29T16:32:02Z</time></trkpt><trkpt lat="44.349324471945806" lon="9.24908818886478"><ele>112.66666666666667</ele><time>2026-03-29T16:32:03Z</time></trkpt><trkpt lat="44.34943207613138" lon="9.248846155115343"><ele>109.0</ele><time>2026-03-29T16:32:04Z</time></trkpt><trkpt lat="44.34954776222792" lon="9.248605723696588"><ele>105.0</ele><time>2026-03-29T16:32:05Z</time></trkpt><trkpt lat="44.349680923457626" lon="9.248353628160038"><ele>101.0</ele><time>2026-03-29T16:32:06Z</time></trkpt><trkpt lat="44.34983559082342" lon="9.248122176617297"><ele>99.5</ele><time>2026-03-29T16:32:06.999Z</time></trkpt><trkpt lat="44.350009832368414" lon="9.247911493281428"><ele>98.0</ele><time>2026-03-29T16:32:07.999Z</time></trkpt><trkpt lat="44.35019153616641" lon="9.247688041223526"><ele>98.0</ele><time>2026-03-29T16:32:08.999Z</time></trkpt><trkpt lat="44.35037311399733" lon="9.247456351077739"><ele>98.0</ele><time>2026-03-29T16:32:09.999Z</time></trkpt><trkpt lat="44.35056025306524" lon="9.247211264253416"><ele>114.5</ele><time>2026-03-29T16:32:10.999Z</time></trkpt><trkpt lat="44.35074527146127" lon="9.246968310808148"><ele>131.0</ele><time>2026-03-29T16:32:11.999Z</time></trkpt><trkpt lat="44.35096189852847" lon="9.246695359112973"><ele>131.5</ele><time>2026-03-29T16:32:12.999Z</time></trkpt><trkpt lat="44.35119125984434" lon="9.24641909498503"><ele>132.0</ele><time>2026-03-29T16:32:13.999Z</time></trkpt><trkpt lat="44.351428677976756" lon="9.246147495764493"><ele>132.0</ele><time>2026-03-29T16:32:15.016Z</time></trkpt><trkpt lat="44.351645181971" lon="9.245851660878662"><ele>132.0</ele><time>2026-03-29T16:32:16.019Z</time></trkpt><trkpt lat="44.35186476655306" lon="9.245563825071704"><ele>120.5</ele><time>2026-03-29T16:32:17.018Z</time></trkpt><trkpt lat="44.352091170381314" lon="9.245268453269238"><ele>109.0</ele><time>2026-03-29T16:32:18.02Z</time></trkpt><trkpt lat="44.35233074344052" lon="9.244955901051735"><ele>77.0</ele><time>2026-03-29T16:32:19.016Z</time></trkpt><trkpt lat="44.35284230862218" lon="9.244215264925028"><ele>77.0</ele><time>2026-03-29T16:32:21.999Z</time></trkpt><trkpt lat="44.35302697147312" lon="9.243967203149081"><ele>77.0</ele><time>2026-03-29T16:32:22.999Z</time></trkpt><trkpt lat="44.35321257980196" lon="9.243731578773646"><ele>58.5</ele><time>2026-03-29T16:32:23.999Z</time></trkpt><trkpt lat="44.35339379549034" lon="9.243484429719828"><ele>40.0</ele><time>2026-03-29T16:32:24.999Z</time></trkpt><trkpt lat="44.35357977701629" lon="9.243237491332057"><ele>47.0</ele><time>2026-03-29T16:32:25.999Z</time></trkpt><trkpt lat="44.35376981862298" lon="9.24298368601742"><ele>54.0</ele><time>2026-03-29T16:32:26.999Z</time></trkpt><trkpt lat="44.353955413532795" lon="9.242728323609706"><ele>68.5</ele><time>2026-03-29T16:32:27.999Z</time></trkpt><trkpt lat="44.35415118269483" lon="9.242473702536367"><ele>83.0</ele><time>2026-03-29T16:32:28.999Z</time></trkpt><trkpt lat="44.35434274054191" lon="9.242219395897841"><ele>97.5</ele><time>2026-03-29T16:32:29.999Z</time></trkpt><trkpt lat="44.35453451890978" lon="9.24196642925024"><ele>112.0</ele><time>2026-03-29T16:32:30.999Z</time></trkpt><trkpt lat="44.35472632567532" lon="9.241712319343433"><ele>129.0</ele><time>2026-03-29T16:32:31.999Z</time></trkpt><trkpt lat="44.35492115318361" lon="9.241452176374933"><ele>146.0</ele><time>2026-03-29T16:32:33.015Z</time></trkpt><trkpt lat="44.35511208144811" lon="9.24119505403166"><ele>146.0</ele><time>2026-03-29T16:32:34.015Z</time></trkpt><trkpt lat="44.35530613131961" lon="9.240928762680186"><ele>146.0</ele><time>2026-03-29T16:32:35.015Z</time></trkpt><trkpt lat="44.355504147409356" lon="9.240644006084889"><ele>136.5</ele><time>2026-03-29T16:32:36.018Z</time></trkpt><trkpt lat="44.355690352793694" lon="9.240393592921967"><ele>127.0</ele><time>2026-03-29T16:32:37.022Z</time></trkpt><trkpt lat="44.35767281760284" lon="9.237770076142827"><ele>82.0</ele><time>2026-03-29T16:32:48.159Z</time></trkpt><trkpt lat="44.35852414932508" lon="9.236536016696352"><ele>71.66666666666666</ele><time>2026-03-29T16:32:51.999Z</time></trkpt><trkpt lat="44.35866763119326" lon="9.236304170774204"><ele>61.33333333333333</ele><time>2026-03-29T16:32:52.999Z</time></trkpt><trkpt lat="44.35878480440802" lon="9.236069868538513"><ele>51.0</ele><time>2026-03-29T16:32:53.999Z</time></trkpt><trkpt lat="44.358903871386524" lon="9.235832281200457"><ele>40.0</ele><time>2026-03-29T16:32:54.999Z</time></trkpt><trkpt lat="44.359020775357" lon="9.23556952906941"><ele>29.0</ele><time>2026-03-29T16:32:55.999Z</time></trkpt><trkpt lat="44.35913514773666" lon="9.235274182328475"><ele>29.0</ele><time>2026-03-29T16:32:56.999Z</time></trkpt><trkpt lat="44.35923457462991" lon="9.234962261559703"><ele>29.0</ele><time>2026-03-29T16:32:57.999Z</time></trkpt><trkpt lat="44.35931541553064" lon="9.234638737533706"><ele>35.5</ele><time>2026-03-29T16:32:58.999Z</time></trkpt><trkpt lat="44.359393378336314" lon="9.234317029730319"><ele>42.0</ele><time>2026-03-29T16:32:59.999Z</time></trkpt><trkpt lat="44.3594586744701" lon="9.233970153902577"><ele>58.5</ele><time>2026-03-29T16:33:00.999Z</time></trkpt><trkpt lat="44.35951498161572" lon="9.233613449421053"><ele>75.0</ele><time>2026-03-29T16:33:01.999Z</time></trkpt><trkpt lat="44.35954556222638" lon="9.233247431359157"><ele>96.5</ele><time>2026-03-29T16:33:03Z</time></trkpt><trkpt lat="44.35957143054724" lon="9.232916018824913"><ele>118.0</ele><time>2026-03-29T16:33:04Z</time></trkpt><trkpt lat="44.35958621627623" lon="9.232588183455126"><ele>132.5</ele><time>2026-03-29T16:33:05Z</time></trkpt><trkpt lat="44.35958542654496" lon="9.232238384077325"><ele>147.0</ele><time>2026-03-29T16:33:06.019Z</time></trkpt><trkpt lat="44.35957059520243" lon="9.231885165133573"><ele>147.0</ele><time>2026-03-29T16:33:07.02Z</time></trkpt><trkpt lat="44.359549440957316" lon="9.23156032535842"><ele>147.0</ele><time>2026-03-29T16:33:08.018Z</time></trkpt><trkpt lat="44.359513523474604" lon="9.231219895069191"><ele>143.5</ele><time>2026-03-29T16:33:09.016Z</time></trkpt><trkpt lat="44.35948658804366" lon="9.230917395373957"><ele>140.0</ele><time>2026-03-29T16:33:10.02Z</time></trkpt><trkpt lat="44.359448186060945" lon="9.230586682182038"><ele>84.0</ele><time>2026-03-29T16:33:11.02Z</time></trkpt><trkpt lat="44.35896977320719" lon="9.228061242037665"><ele>84.0</ele><time>2026-03-29T16:33:16Z</time></trkpt><trkpt lat="44.35889496745969" lon="9.227633876853558"><ele>84.0</ele><time>2026-03-29T16:33:17Z</time></trkpt><trkpt lat="44.358809112591416" lon="9.227226730929354"><ele>71.5</ele><time>2026-03-29T16:33:18Z</time></trkpt><trkpt lat="44.358728083689755" lon="9.226817713327675"><ele>59.0</ele><time>2026-03-29T16:33:19.02Z</time></trkpt><trkpt lat="44.358306345571165" lon="9.224292319276579"><ele>49.0</ele><time>2026-03-29T16:33:25Z</time></trkpt><trkpt lat="44.35823179567724" lon="9.223866420623212"><ele>39.0</ele><time>2026-03-29T16:33:26Z</time></trkpt><trkpt lat="44.358160260850866" lon="9.223437727032687"><ele>43.0</ele><time>2026-03-29T16:33:27Z</time></trkpt><trkpt lat="44.35808881853765" lon="9.223002907538683"><ele>47.0</ele><time>2026-03-29T16:33:28Z</time></trkpt><trkpt lat="44.35801114350419" lon="9.222563921200276"><ele>49.0</ele><time>2026-03-29T16:33:29Z</time></trkpt><trkpt lat="44.357944470546556" lon="9.22212620938747"><ele>51.0</ele><time>2026-03-29T16:33:30Z</time></trkpt><trkpt lat="44.35787524668795" lon="9.221683488534875"><ele>49.0</ele><time>2026-03-29T16:33:31Z</time></trkpt><trkpt lat="44.357803107355785" lon="9.221246971564668"><ele>47.0</ele><time>2026-03-29T16:33:32Z</time></trkpt><trkpt lat="44.35772977304625" lon="9.220810866795892"><ele>44.5</ele><time>2026-03-29T16:33:33Z</time></trkpt><trkpt lat="44.35766074805124" lon="9.220368051233821"><ele>42.0</ele><time>2026-03-29T16:33:34Z</time></trkpt><trkpt lat="44.357603751563396" lon="9.219938636973318"><ele>38.0</ele><time>2026-03-29T16:33:35Z</time></trkpt><trkpt lat="44.35755975699793" lon="9.219563657660839"><ele>34.0</ele><time>2026-03-29T16:33:36Z</time></trkpt><trkpt lat="44.35754798216085" lon="9.219170227778573"><ele>32.5</ele><time>2026-03-29T16:33:37Z</time></trkpt><trkpt lat="44.35754736351657" lon="9.218775786099359"><ele>31.0</ele><time>2026-03-29T16:33:38Z</time></trkpt><trkpt lat="44.35755383430213" lon="9.218409462440079"><ele>35.5</ele><time>2026-03-29T16:33:39Z</time></trkpt><trkpt lat="44.357585684411916" lon="9.21804748946104"><ele>40.0</ele><time>2026-03-29T16:33:40Z</time></trkpt><trkpt lat="44.35761114866745" lon="9.217685775982996"><ele>49.0</ele><time>2026-03-29T16:33:41Z</time></trkpt><trkpt lat="44.35764972632918" lon="9.21730093448505"><ele>58.0</ele><time>2026-03-29T16:33:42Z</time></trkpt><trkpt lat="44.357681075681974" lon="9.216888971973004"><ele>59.5</ele><time>2026-03-29T16:33:43Z</time></trkpt><trkpt lat="44.3577009168749" lon="9.216483547663522"><ele>61.0</ele><time>2026-03-29T16:33:44Z</time></trkpt><trkpt lat="44.35772753761043" lon="9.216065701194315"><ele>61.0</ele><time>2026-03-29T16:33:45.019Z</time></trkpt><trkpt lat="44.357750159898565" lon="9.215657789904283"><ele>61.0</ele><time>2026-03-29T16:33:46.016Z</time></trkpt><trkpt lat="44.35777636959548" lon="9.215235915866081"><ele>53.0</ele><time>2026-03-29T16:33:47.02Z</time></trkpt><trkpt lat="44.35780443127614" lon="9.214829492053818"><ele>45.0</ele><time>2026-03-29T16:33:48.017Z</time></trkpt><trkpt lat="44.357900954824274" lon="9.214050890886424"><ele>28.5</ele><time>2026-03-29T16:33:50Z</time></trkpt><trkpt lat="44.357940155497815" lon="9.213629195623463"><ele>12.0</ele><time>2026-03-29T16:33:51Z</time></trkpt><trkpt lat="44.35801368649121" lon="9.21321088605639"><ele>14.5</ele><time>2026-03-29T16:33:52Z</time></trkpt><trkpt lat="44.358061424500264" lon="9.21282999840984"><ele>17.0</ele><time>2026-03-29T16:33:53Z</time></trkpt><trkpt lat="44.35811939640984" lon="9.212438397739446"><ele>19.5</ele><time>2026-03-29T16:33:54Z</time></trkpt><trkpt lat="44.3581814021432" lon="9.21205950794889"><ele>22.0</ele><time>2026-03-29T16:33:55Z</time></trkpt><trkpt lat="44.358251801201874" lon="9.211684120726959"><ele>25.0</ele><time>2026-03-29T16:33:56Z</time></trkpt><trkpt lat="44.35834751275829" lon="9.211316750189214"><ele>28.0</ele><time>2026-03-29T16:33:57Z</time></trkpt><trkpt lat="44.358429793360884" lon="9.210954588225063"><ele>25.0</ele><time>2026-03-29T16:33:58Z</time></trkpt><trkpt lat="44.3585406663183" lon="9.210602229500854"><ele>22.0</ele><time>2026-03-29T16:33:59Z</time></trkpt><trkpt lat="44.358656466061234" lon="9.210247623604625"><ele>22.0</ele><time>2026-03-29T16:34:00Z</time></trkpt><trkpt lat="44.358740543772306" lon="9.20988628393"><ele>22.0</ele><time>2026-03-29T16:34:01Z</time></trkpt><trkpt lat="44.358844495685894" lon="9.209531557828837"><ele>25.5</ele><time>2026-03-29T16:34:02Z</time></trkpt><trkpt lat="44.358948676046495" lon="9.209178190220246"><ele>29.0</ele><time>2026-03-29T16:34:03Z</time></trkpt><trkpt lat="44.359054878063944" lon="9.208832740285459"><ele>29.0</ele><time>2026-03-29T16:34:04Z</time></trkpt><trkpt lat="44.35916100071552" lon="9.208488846917447"><ele>29.0</ele><time>2026-03-29T16:34:05Z</time></trkpt><trkpt lat="44.35926275673579" lon="9.208142545166309"><ele>33.0</ele><time>2026-03-29T16:34:06Z</time></trkpt><trkpt lat="44.35936931293321" lon="9.207789363818653"><ele>37.0</ele><time>2026-03-29T16:34:07Z</time></trkpt><trkpt lat="44.35948160730192" lon="9.207424686602362"><ele>37.0</ele><time>2026-03-29T16:34:08Z</time></trkpt><trkpt lat="44.35961311068202" lon="9.207039920363586"><ele>37.0</ele><time>2026-03-29T16:34:09Z</time></trkpt><trkpt lat="44.35972466219038" lon="9.206637993753903"><ele>40.5</ele><time>2026-03-29T16:34:10Z</time></trkpt><trkpt lat="44.35984039942521" lon="9.20622487706017"><ele>44.0</ele><time>2026-03-29T16:34:11Z</time></trkpt><trkpt lat="44.35996291929395" lon="9.205808246956781"><ele>46.5</ele><time>2026-03-29T16:34:12Z</time></trkpt><trkpt lat="44.36007896154144" lon="9.205406404889445"><ele>49.0</ele><time>2026-03-29T16:34:13Z</time></trkpt><trkpt lat="44.36018088935657" lon="9.20502273163422"><ele>47.5</ele><time>2026-03-29T16:34:14Z</time></trkpt><trkpt lat="44.36026680649199" lon="9.204634388426248"><ele>46.0</ele><time>2026-03-29T16:34:15Z</time></trkpt><trkpt lat="44.36033048432152" lon="9.204239350927153"><ele>46.0</ele><time>2026-03-29T16:34:16Z</time></trkpt><trkpt lat="44.360383341068996" lon="9.203849471995543"><ele>46.0</ele><time>2026-03-29T16:34:17Z</time></trkpt><trkpt lat="44.360415188662735" lon="9.203453811741845"><ele>47.5</ele><time>2026-03-29T16:34:18Z</time></trkpt><trkpt lat="44.36044178737173" lon="9.203063068117237"><ele>49.0</ele><time>2026-03-29T16:34:19Z</time></trkpt><trkpt lat="44.36047528276855" lon="9.202655829748556"><ele>50.0</ele><time>2026-03-29T16:34:20Z</time></trkpt><trkpt lat="44.360487422822516" lon="9.202243127617875"><ele>51.0</ele><time>2026-03-29T16:34:20.999Z</time></trkpt><trkpt lat="44.36049264737188" lon="9.201908349171926"><ele>51.0</ele><time>2026-03-29T16:34:21.999Z</time></trkpt><trkpt lat="44.360508780135994" lon="9.201645854013684"><ele>51.0</ele><time>2026-03-29T16:34:22.999Z</time></trkpt><trkpt lat="44.36052301645204" lon="9.201419396724727"><ele>51.0</ele><time>2026-03-29T16:34:23.999Z</time></trkpt><trkpt lat="44.36053540411339" lon="9.201179314660653"><ele>59.0</ele><time>2026-03-29T16:34:24.999Z</time></trkpt><trkpt lat="44.36055650907809" lon="9.200906596376145"><ele>67.0</ele><time>2026-03-29T16:34:25.999Z</time></trkpt><trkpt lat="44.36056840648482" lon="9.200615759874548"><ele>75.0</ele><time>2026-03-29T16:34:26.999Z</time></trkpt><trkpt lat="44.3605764510119" lon="9.2003391584056"><ele>75.33333333333333</ele><time>2026-03-29T16:34:27.999Z</time></trkpt><trkpt lat="44.36059239298912" lon="9.200085688312559"><ele>75.66666666666666</ele><time>2026-03-29T16:34:28.999Z</time></trkpt><trkpt lat="44.3606058179283" lon="9.199841655285256"><ele>76.0</ele><time>2026-03-29T16:34:29.999Z</time></trkpt><trkpt lat="44.36062599161198" lon="9.19956561652222"><ele>76.33333333333333</ele><time>2026-03-29T16:34:30.999Z</time></trkpt><trkpt lat="44.36065867984522" lon="9.199272342398942"><ele>76.66666666666667</ele><time>2026-03-29T16:34:31.999Z</time></trkpt><trkpt lat="44.360697005667625" lon="9.198969330724163"><ele>77.0</ele><time>2026-03-29T16:34:32.999Z</time></trkpt><trkpt lat="44.360747655434814" lon="9.19865072927609"><ele>77.0</ele><time>2026-03-29T16:34:33.999Z</time></trkpt><trkpt lat="44.36082521178217" lon="9.19832262173431"><ele>77.0</ele><time>2026-03-29T16:34:34.999Z</time></trkpt><trkpt lat="44.36089687699972" lon="9.197970263111042"><ele>73.0</ele><time>2026-03-29T16:34:35.999Z</time></trkpt><trkpt lat="44.3609808532354" lon="9.197618517577633"><ele>69.0</ele><time>2026-03-29T16:34:36.999Z</time></trkpt><trkpt lat="44.36106436591628" lon="9.197287599911155"><ele>67.0</ele><time>2026-03-29T16:34:37.999Z</time></trkpt><trkpt lat="44.3611404297131" lon="9.19697141837691"><ele>65.0</ele><time>2026-03-29T16:34:38.999Z</time></trkpt><trkpt lat="44.36121310430214" lon="9.19664963151965"><ele>66.0</ele><time>2026-03-29T16:34:39.999Z</time></trkpt><trkpt lat="44.36127322030304" lon="9.196332892521243"><ele>67.0</ele><time>2026-03-29T16:34:40.999Z</time></trkpt><trkpt lat="44.36131852465753" lon="9.196012136582715"><ele>67.0</ele><time>2026-03-29T16:34:41.999Z</time></trkpt><trkpt lat="44.3613580546108" lon="9.195688617136243"><ele>67.0</ele><time>2026-03-29T16:34:42.999Z</time></trkpt><trkpt lat="44.36139743224872" lon="9.195349368909172"><ele>76.33333333333333</ele><time>2026-03-29T16:34:43.999Z</time></trkpt><trkpt lat="44.36143006053356" lon="9.19504193205641"><ele>85.66666666666667</ele><time>2026-03-29T16:34:44.999Z</time></trkpt><trkpt lat="44.36146187109892" lon="9.19475040742021"><ele>95.0</ele><time>2026-03-29T16:34:45.999Z</time></trkpt><trkpt lat="44.36147934927152" lon="9.194461235695128"><ele>100.0</ele><time>2026-03-29T16:34:46.999Z</time></trkpt><trkpt lat="44.36149913523421" lon="9.194148501345826"><ele>105.0</ele><time>2026-03-29T16:34:47.999Z</time></trkpt><trkpt lat="44.36152660503824" lon="9.19381975663124"><ele>105.0</ele><time>2026-03-29T16:34:48.999Z</time></trkpt><trkpt lat="44.36155821063806" lon="9.19347374688729"><ele>105.0</ele><time>2026-03-29T16:34:50.016Z</time></trkpt><trkpt lat="44.361588110476575" lon="9.193139371600592"><ele>96.66666666666667</ele><time>2026-03-29T16:34:51.022Z</time></trkpt><trkpt lat="44.36161557761949" lon="9.192809782551894"><ele>88.33333333333334</ele><time>2026-03-29T16:34:51.999Z</time></trkpt><trkpt lat="44.3617066844438" lon="9.192820928459682"><ele>80.0</ele><time>2026-03-29T16:34:52.999Z</time></trkpt><trkpt lat="44.361764057115" lon="9.192591840100887"><ele>80.0</ele><time>2026-03-29T16:34:53.999Z</time></trkpt><trkpt lat="44.361808880433706" lon="9.192358756877672"><ele>80.0</ele><time>2026-03-29T16:34:54.999Z</time></trkpt><trkpt lat="44.361846625113685" lon="9.192120193942781"><ele>80.0</ele><time>2026-03-29T16:34:55.999Z</time></trkpt><trkpt lat="44.36188571565127" lon="9.191875545440467"><ele>79.0</ele><time>2026-03-29T16:34:56.999Z</time></trkpt><trkpt lat="44.36191968310773" lon="9.191623858645537"><ele>78.0</ele><time>2026-03-29T16:34:57.999Z</time></trkpt><trkpt lat="44.361958109403716" lon="9.191369136360139"><ele>77.0</ele><time>2026-03-29T16:34:58.999Z</time></trkpt><trkpt lat="44.36200264357631" lon="9.191112772467854"><ele>77.0</ele><time>2026-03-29T16:34:59.999Z</time></trkpt><trkpt lat="44.36204534855684" lon="9.190856808395404"><ele>77.0</ele><time>2026-03-29T16:35:00.999Z</time></trkpt><trkpt lat="44.362092573587084" lon="9.190598833217098"><ele>77.0</ele><time>2026-03-29T16:35:01.999Z</time></trkpt><trkpt lat="44.36213710099667" lon="9.19033477844378"><ele>76.33333333333334</ele><time>2026-03-29T16:35:02.999Z</time></trkpt><trkpt lat="44.36218464528994" lon="9.190069549346957"><ele>75.66666666666667</ele><time>2026-03-29T16:35:03.999Z</time></trkpt><trkpt lat="44.362231636320566" lon="9.189806077016042"><ele>75.0</ele><time>2026-03-29T16:35:04.999Z</time></trkpt><trkpt lat="44.36227656461675" lon="9.18954562282654"><ele>85.0</ele><time>2026-03-29T16:35:05.999Z</time></trkpt><trkpt lat="44.36232244103996" lon="9.189281999858673"><ele>95.0</ele><time>2026-03-29T16:35:06.999Z</time></trkpt><trkpt lat="44.36236772174891" lon="9.18902043282083"><ele>105.0</ele><time>2026-03-29T16:35:07.999Z</time></trkpt><trkpt lat="44.36241064744855" lon="9.188753260887948"><ele>105.0</ele><time>2026-03-29T16:35:09Z</time></trkpt><trkpt lat="44.36245676839556" lon="9.188488802273824"><ele>105.0</ele><time>2026-03-29T16:35:10Z</time></trkpt><trkpt lat="44.36250452112311" lon="9.18823068320134"><ele>105.0</ele><time>2026-03-29T16:35:11Z</time></trkpt><trkpt lat="44.3625468915203" lon="9.187992128712082"><ele>104.33333333333334</ele><time>2026-03-29T16:35:12Z</time></trkpt><trkpt lat="44.36259051057989" lon="9.18776335673153"><ele>103.66666666666667</ele><time>2026-03-29T16:35:13Z</time></trkpt><trkpt lat="44.36263525440548" lon="9.187517320276402"><ele>103.0</ele><time>2026-03-29T16:35:14Z</time></trkpt><trkpt lat="44.36268134793838" lon="9.18725811767585"><ele>102.66666666666667</ele><time>2026-03-29T16:35:15Z</time></trkpt><trkpt lat="44.36273032270816" lon="9.187010863210881"><ele>102.33333333333334</ele><time>2026-03-29T16:35:16Z</time></trkpt><trkpt lat="44.362764143944" lon="9.186790126524496"><ele>102.0</ele><time>2026-03-29T16:35:17Z</time></trkpt><trkpt lat="44.362817792224334" lon="9.18653365515545"><ele>103.66666666666666</ele><time>2026-03-29T16:35:18Z</time></trkpt><trkpt lat="44.36290709472428" lon="9.18628338834811"><ele>105.33333333333333</ele><time>2026-03-29T16:35:19Z</time></trkpt><trkpt lat="44.36295620885147" lon="9.186083068111747"><ele>107.0</ele><time>2026-03-29T16:35:20Z</time></trkpt><trkpt lat="44.363025551787715" lon="9.185863499369038"><ele>111.33333333333333</ele><time>2026-03-29T16:35:21Z</time></trkpt><trkpt lat="44.36311863859605" lon="9.185635746030314"><ele>115.66666666666666</ele><time>2026-03-29T16:35:22Z</time></trkpt><trkpt lat="44.36321649961308" lon="9.185418498229131"><ele>120.0</ele><time>2026-03-29T16:35:23Z</time></trkpt><trkpt lat="44.36332761661092" lon="9.185193955438294"><ele>120.0</ele><time>2026-03-29T16:35:24Z</time></trkpt><trkpt lat="44.36342828591252" lon="9.184992719146202"><ele>120.0</ele><time>2026-03-29T16:35:25Z</time></trkpt><trkpt lat="44.36352386686711" lon="9.184808388478023"><ele>120.0</ele><time>2026-03-29T16:35:26Z</time></trkpt><trkpt lat="44.363625020420734" lon="9.184624752931366"><ele>121.0</ele><time>2026-03-29T16:35:27Z</time></trkpt><trkpt lat="44.36371977855993" lon="9.184437234981491"><ele>122.0</ele><time>2026-03-29T16:35:28Z</time></trkpt><trkpt lat="44.363819572607824" lon="9.18424304002127"><ele>123.0</ele><time>2026-03-29T16:35:29Z</time></trkpt><trkpt lat="44.36391192760913" lon="9.18405197604507"><ele>126.33333333333334</ele><time>2026-03-29T16:35:30Z</time></trkpt><trkpt lat="44.36401048571814" lon="9.183855339346316"><ele>129.66666666666669</ele><time>2026-03-29T16:35:31Z</time></trkpt><trkpt lat="44.36410215502632" lon="9.183651174577651"><ele>133.0</ele><time>2026-03-29T16:35:32Z</time></trkpt><trkpt lat="44.36419059063804" lon="9.183442556017898"><ele>133.0</ele><time>2026-03-29T16:35:33Z</time></trkpt><trkpt lat="44.36427236720163" lon="9.183228102081559"><ele>133.0</ele><time>2026-03-29T16:35:34Z</time></trkpt><trkpt lat="44.36433884099769" lon="9.183009527520309"><ele>133.0</ele><time>2026-03-29T16:35:35Z</time></trkpt><trkpt lat="44.36440289941287" lon="9.18278201433379"><ele>141.33333333333334</ele><time>2026-03-29T16:35:36Z</time></trkpt><trkpt lat="44.36445937758559" lon="9.1825746236375"><ele>149.66666666666666</ele><time>2026-03-29T16:35:37Z</time></trkpt><trkpt lat="44.36449941364107" lon="9.182369522457325"><ele>158.0</ele><time>2026-03-29T16:35:38Z</time></trkpt><trkpt lat="44.36454605526507" lon="9.182164267223506"><ele>172.33333333333331</ele><time>2026-03-29T16:35:39Z</time></trkpt><trkpt lat="44.36459562748453" lon="9.181948048185856"><ele>186.66666666666666</ele><time>2026-03-29T16:35:40.02Z</time></trkpt><trkpt lat="44.36464189409029" lon="9.181734622934773"><ele>201.0</ele><time>2026-03-29T16:35:41.022Z</time></trkpt><trkpt lat="44.36469338407133" lon="9.181525825741739"><ele>204.66666666666669</ele><time>2026-03-29T16:35:42.018Z</time></trkpt><trkpt lat="44.36475942351269" lon="9.181296458535124"><ele>208.33333333333334</ele><time>2026-03-29T16:35:43.018Z</time></trkpt><trkpt lat="44.364810664639315" lon="9.181091186334886"><ele>212.0</ele><time>2026-03-29T16:35:44.02Z</time></trkpt><trkpt lat="44.36485800527394" lon="9.180886857449186"><ele>144.0</ele><time>2026-03-29T16:35:45.02Z</time></trkpt><trkpt lat="44.36889813751389" lon="9.160857489341089"><ele>139.66666666666666</ele><time>2026-03-29T16:36:48.999Z</time></trkpt><trkpt lat="44.368955827289795" lon="9.160552544437087"><ele>135.33333333333331</ele><time>2026-03-29T16:36:49.999Z</time></trkpt><trkpt lat="44.369020486651564" lon="9.160257805824502"><ele>131.0</ele><time>2026-03-29T16:36:50.999Z</time></trkpt><trkpt lat="44.36906505272741" lon="9.1599488944613"><ele>125.5</ele><time>2026-03-29T16:36:51.999Z</time></trkpt><trkpt lat="44.36910959581504" lon="9.159625714546843"><ele>120.0</ele><time>2026-03-29T16:36:52.999Z</time></trkpt><trkpt lat="44.36915249387583" lon="9.159286107363961"><ele>117.5</ele><time>2026-03-29T16:36:53.999Z</time></trkpt><trkpt lat="44.36919823572733" lon="9.15893376244952"><ele>115.0</ele><time>2026-03-29T16:36:54.999Z</time></trkpt><trkpt lat="44.36925401503087" lon="9.158565388766414"><ele>109.0</ele><time>2026-03-29T16:36:55.999Z</time></trkpt><trkpt lat="44.36931855388063" lon="9.158183165215457"><ele>103.0</ele><time>2026-03-29T16:36:56.999Z</time></trkpt><trkpt lat="44.369378302298344" lon="9.157802102842124"><ele>103.0</ele><time>2026-03-29T16:36:57.999Z</time></trkpt><trkpt lat="44.36943625640943" lon="9.157408303701555"><ele>103.0</ele><time>2026-03-29T16:36:58.999Z</time></trkpt><trkpt lat="44.36949270764024" lon="9.157015983241633"><ele>94.0</ele><time>2026-03-29T16:36:59.999Z</time></trkpt><trkpt lat="44.36955367858665" lon="9.156656765606716"><ele>85.0</ele><time>2026-03-29T16:37:00.999Z</time></trkpt><trkpt lat="44.36962684027749" lon="9.156320793150783"><ele>96.0</ele><time>2026-03-29T16:37:01.999Z</time></trkpt><trkpt lat="44.36971632492954" lon="9.156008809213855"><ele>107.0</ele><time>2026-03-29T16:37:02.999Z</time></trkpt><trkpt lat="44.36982316392243" lon="9.155696944748064"><ele>107.0</ele><time>2026-03-29T16:37:03.999Z</time></trkpt><trkpt lat="44.369946322892105" lon="9.155398773867814"><ele>107.0</ele><time>2026-03-29T16:37:04.999Z</time></trkpt><trkpt lat="44.37008431570045" lon="9.155116699627749"><ele>100.5</ele><time>2026-03-29T16:37:05.999Z</time></trkpt><trkpt lat="44.370229861544416" lon="9.154864558957694"><ele>94.0</ele><time>2026-03-29T16:37:06.999Z</time></trkpt><trkpt lat="44.370387868141684" lon="9.154615317319504"><ele>103.0</ele><time>2026-03-29T16:37:07.999Z</time></trkpt><trkpt lat="44.37056297610411" lon="9.15437456507345"><ele>112.0</ele><time>2026-03-29T16:37:08.999Z</time></trkpt><trkpt lat="44.37075277603148" lon="9.154151040459299"><ele>96.0</ele><time>2026-03-29T16:37:09.999Z</time></trkpt><trkpt lat="44.37094465314181" lon="9.153951844971486"><ele>80.0</ele><time>2026-03-29T16:37:10.999Z</time></trkpt><trkpt lat="44.37113138236378" lon="9.153776629785435"><ele>80.0</ele><time>2026-03-29T16:37:11.999Z</time></trkpt><trkpt lat="44.37133353009928" lon="9.153620652330192"><ele>80.0</ele><time>2026-03-29T16:37:12.999Z</time></trkpt><trkpt lat="44.37154455408515" lon="9.153461446069837"><ele>83.5</ele><time>2026-03-29T16:37:13.999Z</time></trkpt><trkpt lat="44.37175995924646" lon="9.15330657401762"><ele>87.0</ele><time>2026-03-29T16:37:15Z</time></trkpt><trkpt lat="44.37197804982618" lon="9.153145461614118"><ele>72.5</ele><time>2026-03-29T16:37:16Z</time></trkpt><trkpt lat="44.37219599629351" lon="9.152979779001168"><ele>58.0</ele><time>2026-03-29T16:37:17Z</time></trkpt><trkpt lat="44.37241291206311" lon="9.152803635117051"><ele>58.0</ele><time>2026-03-29T16:37:18Z</time></trkpt><trkpt lat="44.3726257327107" lon="9.152611387053938"><ele>58.0</ele><time>2026-03-29T16:37:19Z</time></trkpt><trkpt lat="44.37282054256838" lon="9.152416464389132"><ele>48.33333333333333</ele><time>2026-03-29T16:37:20Z</time></trkpt><trkpt lat="44.372997821533495" lon="9.152228427885417"><ele>38.666666666666664</ele><time>2026-03-29T16:37:21Z</time></trkpt><trkpt lat="44.37316971603556" lon="9.152032479649533"><ele>29.0</ele><time>2026-03-29T16:37:22Z</time></trkpt><trkpt lat="44.37334053943599" lon="9.151817292847989"><ele>29.0</ele><time>2026-03-29T16:37:23Z</time></trkpt><trkpt lat="44.37350806342847" lon="9.151595978693178"><ele>29.0</ele><time>2026-03-29T16:37:24Z</time></trkpt><trkpt lat="44.37367454815699" lon="9.151360694477498"><ele>27.0</ele><time>2026-03-29T16:37:25Z</time></trkpt><trkpt lat="44.37383335961484" lon="9.151112577389773"><ele>25.0</ele><time>2026-03-29T16:37:26Z</time></trkpt><trkpt lat="44.373987479242714" lon="9.150862524776318"><ele>28.5</ele><time>2026-03-29T16:37:27Z</time></trkpt><trkpt lat="44.37413902866331" lon="9.150602260780671"><ele>32.0</ele><time>2026-03-29T16:37:28Z</time></trkpt><trkpt lat="44.374277797127675" lon="9.15033204400226"><ele>32.0</ele><time>2026-03-29T16:37:29Z</time></trkpt><trkpt lat="44.37441058987381" lon="9.150052511322649"><ele>32.0</ele><time>2026-03-29T16:37:30Z</time></trkpt><trkpt lat="44.374538449974644" lon="9.149769173581383"><ele>42.0</ele><time>2026-03-29T16:37:31Z</time></trkpt><trkpt lat="44.374665626579" lon="9.14947671632537"><ele>52.0</ele><time>2026-03-29T16:37:32Z</time></trkpt><trkpt lat="44.37478569274491" lon="9.149181521283607"><ele>71.5</ele><time>2026-03-29T16:37:33Z</time></trkpt><trkpt lat="44.37490892988569" lon="9.14888855620105"><ele>91.0</ele><time>2026-03-29T16:37:34Z</time></trkpt><trkpt lat="44.375040551196726" lon="9.148597168182711"><ele>91.0</ele><time>2026-03-29T16:37:35Z</time></trkpt><trkpt lat="44.375179914522185" lon="9.148301463607371"><ele>91.0</ele><time>2026-03-29T16:37:36Z</time></trkpt><trkpt lat="44.37532597690711" lon="9.14800159698074"><ele>84.5</ele><time>2026-03-29T16:37:37Z</time></trkpt><trkpt lat="44.375480219304606" lon="9.147698501340352"><ele>78.0</ele><time>2026-03-29T16:37:38Z</time></trkpt><trkpt lat="44.37564524194452" lon="9.147389703576852"><ele>88.5</ele><time>2026-03-29T16:37:39Z</time></trkpt><trkpt lat="44.375817105996084" lon="9.147083293031034"><ele>99.0</ele><time>2026-03-29T16:37:40Z</time></trkpt><trkpt lat="44.375993928083304" lon="9.146782821245178"><ele>115.5</ele><time>2026-03-29T16:37:41Z</time></trkpt><trkpt lat="44.37615959615261" lon="9.146516718991"><ele>132.0</ele><time>2026-03-29T16:37:42Z</time></trkpt><trkpt lat="44.376301882029345" lon="9.146258877576274"><ele>109.5</ele><time>2026-03-29T16:37:43Z</time></trkpt><trkpt lat="44.37643827967922" lon="9.146003992052568"><ele>87.0</ele><time>2026-03-29T16:37:44Z</time></trkpt><trkpt lat="44.37656956726726" lon="9.145737656498289"><ele>99.5</ele><time>2026-03-29T16:37:45Z</time></trkpt><trkpt lat="44.37669335330056" lon="9.145467710788587"><ele>112.0</ele><time>2026-03-29T16:37:46Z</time></trkpt><trkpt lat="44.376808097983755" lon="9.145190318707286"><ele>112.0</ele><time>2026-03-29T16:37:47Z</time></trkpt><trkpt lat="44.37691043490926" lon="9.144905565794447"><ele>112.0</ele><time>2026-03-29T16:37:48Z</time></trkpt><trkpt lat="44.377003084524375" lon="9.144610070270456"><ele>115.0</ele><time>2026-03-29T16:37:49Z</time></trkpt><trkpt lat="44.377087078105525" lon="9.144304977257507"><ele>118.0</ele><time>2026-03-29T16:37:50Z</time></trkpt><trkpt lat="44.37716082195072" lon="9.143985403091452"><ele>115.0</ele><time>2026-03-29T16:37:51Z</time></trkpt><trkpt lat="44.37722243657339" lon="9.143664513199257"><ele>112.0</ele><time>2026-03-29T16:37:52Z</time></trkpt><trkpt lat="44.377267273132375" lon="9.143371461090775"><ele>116.33333333333334</ele><time>2026-03-29T16:37:53Z</time></trkpt><trkpt lat="44.37730216647019" lon="9.14310542457278"><ele>120.66666666666666</ele><time>2026-03-29T16:37:54Z</time></trkpt><trkpt lat="44.37731990643509" lon="9.142881983376231"><ele>125.0</ele><time>2026-03-29T16:37:55Z</time></trkpt><trkpt lat="44.377337970711444" lon="9.142701907247748"><ele>125.0</ele><time>2026-03-29T16:37:56Z</time></trkpt><trkpt lat="44.37735196701938" lon="9.142509963003409"><ele>125.0</ele><time>2026-03-29T16:37:57Z</time></trkpt><trkpt lat="44.37736550013949" lon="9.142332872196615"><ele>125.0</ele><time>2026-03-29T16:37:58Z</time></trkpt><trkpt lat="44.37738681595927" lon="9.142153411440468"><ele>125.0</ele><time>2026-03-29T16:37:59Z</time></trkpt><trkpt lat="44.37740713542886" lon="9.141949685977352"><ele>132.33333333333331</ele><time>2026-03-29T16:38:00Z</time></trkpt><trkpt lat="44.377432259165495" lon="9.141732264085919"><ele>139.66666666666666</ele><time>2026-03-29T16:38:01Z</time></trkpt><trkpt lat="44.377457159584196" lon="9.141539207004481"><ele>147.0</ele><time>2026-03-29T16:38:02Z</time></trkpt><trkpt lat="44.377484174999296" lon="9.14132352241545"><ele>152.0</ele><time>2026-03-29T16:38:03.027Z</time></trkpt><trkpt lat="44.377515720464025" lon="9.141094802313432"><ele>157.0</ele><time>2026-03-29T16:38:04.02Z</time></trkpt><trkpt lat="44.377548933636334" lon="9.140855249372235"><ele>162.0</ele><time>2026-03-29T16:38:05.02Z</time></trkpt><trkpt lat="44.37758136712052" lon="9.140607466232211"><ele>163.0</ele><time>2026-03-29T16:38:06.017Z</time></trkpt><trkpt lat="44.377614543365695" lon="9.140349527835905"><ele>164.0</ele><time>2026-03-29T16:38:07.021Z</time></trkpt><trkpt lat="44.37952085867932" lon="9.117523217582253"><ele>162.5</ele><time>2026-03-29T16:39:03.999Z</time></trkpt><trkpt lat="44.3795323952209" lon="9.11711142151434"><ele>161.0</ele><time>2026-03-29T16:39:04.999Z</time></trkpt><trkpt lat="44.37957422645497" lon="9.116734911264098"><ele>161.0</ele><time>2026-03-29T16:39:05.999Z</time></trkpt><trkpt lat="44.37959336426538" lon="9.116367736513315"><ele>161.0</ele><time>2026-03-29T16:39:06.999Z</time></trkpt><trkpt lat="44.37961917252758" lon="9.1159947513258"><ele>163.5</ele><time>2026-03-29T16:39:07.999Z</time></trkpt><trkpt lat="44.37964857248961" lon="9.115620835995534"><ele>166.0</ele><time>2026-03-29T16:39:08.999Z</time></trkpt><trkpt lat="44.37967847075306" lon="9.11524135397562"><ele>144.5</ele><time>2026-03-29T16:39:09.999Z</time></trkpt><trkpt lat="44.37970552650133" lon="9.114861884739122"><ele>123.0</ele><time>2026-03-29T16:39:10.999Z</time></trkpt><trkpt lat="44.379731362440644" lon="9.114481864714174"><ele>123.0</ele><time>2026-03-29T16:39:11.999Z</time></trkpt><trkpt lat="44.379759119610796" lon="9.114125372360242"><ele>123.0</ele><time>2026-03-29T16:39:12.999Z</time></trkpt><trkpt lat="44.37978769682546" lon="9.11379033155024"><ele>123.5</ele><time>2026-03-29T16:39:13.999Z</time></trkpt><trkpt lat="44.37981246140747" lon="9.113454468128936"><ele>124.0</ele><time>2026-03-29T16:39:14.999Z</time></trkpt><trkpt lat="44.37984151353893" lon="9.113110875886559"><ele>124.0</ele><time>2026-03-29T16:39:15.999Z</time></trkpt><trkpt lat="44.3798700212972" lon="9.11276105967595"><ele>124.0</ele><time>2026-03-29T16:39:16.999Z</time></trkpt><trkpt lat="44.37990342549544" lon="9.112403807798497"><ele>124.0</ele><time>2026-03-29T16:39:17.999Z</time></trkpt><trkpt lat="44.3799348391493" lon="9.112043515725569"><ele>124.0</ele><time>2026-03-29T16:39:18.999Z</time></trkpt><trkpt lat="44.379965705892" lon="9.111682481611611"><ele>110.0</ele><time>2026-03-29T16:39:19.999Z</time></trkpt><trkpt lat="44.37999607934999" lon="9.111315212123397"><ele>96.0</ele><time>2026-03-29T16:39:21Z</time></trkpt><trkpt lat="44.3800255416502" lon="9.110951100159284"><ele>78.5</ele><time>2026-03-29T16:39:22Z</time></trkpt><trkpt lat="44.38005743954588" lon="9.11059090928203"><ele>61.0</ele><time>2026-03-29T16:39:23Z</time></trkpt><trkpt lat="44.38007937982338" lon="9.110230311979082"><ele>49.0</ele><time>2026-03-29T16:39:24Z</time></trkpt><trkpt lat="44.38011487240701" lon="9.10987055245503"><ele>37.0</ele><time>2026-03-29T16:39:25Z</time></trkpt><trkpt lat="44.380146077325314" lon="9.109512633309983"><ele>37.0</ele><time>2026-03-29T16:39:26Z</time></trkpt><trkpt lat="44.380175143195764" lon="9.109154963364006"><ele>37.0</ele><time>2026-03-29T16:39:27Z</time></trkpt><trkpt lat="44.38020805520226" lon="9.108801103171999"><ele>40.0</ele><time>2026-03-29T16:39:28Z</time></trkpt><trkpt lat="44.38023802049647" lon="9.10844793233874"><ele>43.0</ele><time>2026-03-29T16:39:29Z</time></trkpt><trkpt lat="44.38026516640003" lon="9.108097715836811"><ele>57.0</ele><time>2026-03-29T16:39:30Z</time></trkpt><trkpt lat="44.38029394658405" lon="9.107758191721219"><ele>71.0</ele><time>2026-03-29T16:39:31Z</time></trkpt><trkpt lat="44.38031947029422" lon="9.107442736064101"><ele>81.33333333333334</ele><time>2026-03-29T16:39:32Z</time></trkpt><trkpt lat="44.38035450937449" lon="9.107139255958154"><ele>91.66666666666667</ele><time>2026-03-29T16:39:33Z</time></trkpt><trkpt lat="44.380410801328985" lon="9.10685617971201"><ele>102.0</ele><time>2026-03-29T16:39:34Z</time></trkpt><trkpt lat="44.38047563422221" lon="9.106573005085847"><ele>109.66666666666666</ele><time>2026-03-29T16:39:35Z</time></trkpt><trkpt lat="44.380557623385606" lon="9.106283625046249"><ele>117.33333333333333</ele><time>2026-03-29T16:39:36Z</time></trkpt><trkpt lat="44.38065459802287" lon="9.105999867919207"><ele>125.0</ele><time>2026-03-29T16:39:37Z</time></trkpt><trkpt lat="44.38076767880854" lon="9.10572180910246"><ele>133.5</ele><time>2026-03-29T16:39:38Z</time></trkpt><trkpt lat="44.38089354229735" lon="9.10545369956718"><ele>142.0</ele><time>2026-03-29T16:39:39Z</time></trkpt><trkpt lat="44.381032287201435" lon="9.105194659283049"><ele>142.0</ele><time>2026-03-29T16:39:40Z</time></trkpt><trkpt lat="44.38118010581457" lon="9.104943694858743"><ele>142.0</ele><time>2026-03-29T16:39:41Z</time></trkpt><trkpt lat="44.38133963679129" lon="9.104708942706697"><ele>138.5</ele><time>2026-03-29T16:39:42Z</time></trkpt><trkpt lat="44.38151283561403" lon="9.104489958917728"><ele>135.0</ele><time>2026-03-29T16:39:43Z</time></trkpt><trkpt lat="44.38169405420653" lon="9.104292701070683"><ele>135.0</ele><time>2026-03-29T16:39:44Z</time></trkpt><trkpt lat="44.38189144925313" lon="9.104101753586356"><ele>135.0</ele><time>2026-03-29T16:39:45Z</time></trkpt><trkpt lat="44.38210408456382" lon="9.10392130965095"><ele>141.5</ele><time>2026-03-29T16:39:46Z</time></trkpt><trkpt lat="44.382330843139215" lon="9.103739721159943"><ele>148.0</ele><time>2026-03-29T16:39:47Z</time></trkpt><trkpt lat="44.38257159787974" lon="9.103565733299622"><ele>148.0</ele><time>2026-03-29T16:39:48Z</time></trkpt><trkpt lat="44.382807702353865" lon="9.103363206018244"><ele>148.0</ele><time>2026-03-29T16:39:49Z</time></trkpt><trkpt lat="44.38302399141363" lon="9.103169772930258"><ele>152.0</ele><time>2026-03-29T16:39:50Z</time></trkpt><trkpt lat="44.38323330620311" lon="9.102987531927887"><ele>156.0</ele><time>2026-03-29T16:39:51Z</time></trkpt><trkpt lat="44.38342925965095" lon="9.102780128511723"><ele>156.0</ele><time>2026-03-29T16:39:52Z</time></trkpt><trkpt lat="44.383615950074024" lon="9.102565906293181"><ele>156.0</ele><time>2026-03-29T16:39:53Z</time></trkpt><trkpt lat="44.383805230019" lon="9.102343303635111"><ele>147.5</ele><time>2026-03-29T16:39:54Z</time></trkpt><trkpt lat="44.38398276876572" lon="9.102103965447663"><ele>139.0</ele><time>2026-03-29T16:39:55Z</time></trkpt><trkpt lat="44.38415803748777" lon="9.101847818396793"><ele>139.0</ele><time>2026-03-29T16:39:56Z</time></trkpt><trkpt lat="44.38433036007186" lon="9.101589584419152"><ele>139.0</ele><time>2026-03-29T16:39:57Z</time></trkpt><trkpt lat="44.384503436350755" lon="9.101325491850645"><ele>137.5</ele><time>2026-03-29T16:39:58Z</time></trkpt><trkpt lat="44.384674889530146" lon="9.101054129508352"><ele>136.0</ele><time>2026-03-29T16:39:59Z</time></trkpt><trkpt lat="44.38484920866636" lon="9.100779886543524"><ele>151.0</ele><time>2026-03-29T16:40:00Z</time></trkpt><trkpt lat="44.38502499088027" lon="9.100504985501706"><ele>166.0</ele><time>2026-03-29T16:40:01Z</time></trkpt><trkpt lat="44.38520387984051" lon="9.100222910034987"><ele>166.0</ele><time>2026-03-29T16:40:02Z</time></trkpt><trkpt lat="44.38537898684439" lon="9.099941983358185"><ele>166.0</ele><time>2026-03-29T16:40:03Z</time></trkpt><trkpt lat="44.3855511792672" lon="9.099667432787724"><ele>152.0</ele><time>2026-03-29T16:40:04Z</time></trkpt><trkpt lat="44.38570740735035" lon="9.099415232562356"><ele>138.0</ele><time>2026-03-29T16:40:05Z</time></trkpt><trkpt lat="44.385853603350114" lon="9.09917677860041"><ele>152.0</ele><time>2026-03-29T16:40:06Z</time></trkpt><trkpt lat="44.38598712070487" lon="9.098924247228398"><ele>166.0</ele><time>2026-03-29T16:40:07Z</time></trkpt><trkpt lat="44.38610918554062" lon="9.098647186655205"><ele>166.0</ele><time>2026-03-29T16:40:08Z</time></trkpt><trkpt lat="44.38622744853579" lon="9.098360734123053"><ele>166.0</ele><time>2026-03-29T16:40:09Z</time></trkpt><trkpt lat="44.38634518481751" lon="9.098055959996515"><ele>189.5</ele><time>2026-03-29T16:40:10Z</time></trkpt><trkpt lat="44.386457907008044" lon="9.097755986767973"><ele>213.0</ele><time>2026-03-29T16:40:11Z</time></trkpt><trkpt lat="44.38657417115146" lon="9.097440558531423"><ele>227.0</ele><time>2026-03-29T16:40:12.02Z</time></trkpt><trkpt lat="44.386666107928946" lon="9.09711866298031"><ele>241.0</ele><time>2026-03-29T16:40:13.02Z</time></trkpt><trkpt lat="44.3867455432535" lon="9.09678639402358"><ele>252.0</ele><time>2026-03-29T16:40:14.021Z</time></trkpt><trkpt lat="44.38681844667053" lon="9.096469615911213"><ele>263.0</ele><time>2026-03-29T16:40:15.018Z</time></trkpt><trkpt lat="44.386891717631684" lon="9.096151463837915"><ele>255.0</ele><time>2026-03-29T16:40:16.017Z</time></trkpt><trkpt lat="44.38745501211141" lon="9.093426762813312"><ele>330.0</ele><time>2026-03-29T16:40:19.101Z</time></trkpt><trkpt lat="44.387759241641824" lon="9.092112191648981"><ele>379.0</ele><time>2026-03-29T16:40:20.102Z</time></trkpt><trkpt lat="44.388069420200225" lon="9.090802133704614"><ele>445.0</ele><time>2026-03-29T16:40:21.101Z</time></trkpt><trkpt lat="44.38837535594574" lon="9.089489254132781"><ele>411.0</ele><time>2026-03-29T16:40:22.101Z</time></trkpt><trkpt lat="44.38868180993153" lon="9.088174946314426"><ele>358.0</ele><time>2026-03-29T16:40:23.103Z</time></trkpt><trkpt lat="44.38898697942919" lon="9.086863005459419"><ele>277.0</ele><time>2026-03-29T16:40:24.102Z</time></trkpt><trkpt lat="44.389264333655454" lon="9.085538789710224"><ele>241.0</ele><time>2026-03-29T16:40:25.101Z</time></trkpt><trkpt lat="44.38944526616402" lon="9.084182396624882"><ele>167.0</ele><time>2026-03-29T16:40:26.101Z</time></trkpt><trkpt lat="44.38951865194423" lon="9.082805053956356"><ele>140.0</ele><time>2026-03-29T16:40:27.102Z</time></trkpt><trkpt lat="44.38948736064545" lon="9.081783117734902"><ele>136.0</ele><time>2026-03-29T16:40:52.999Z</time></trkpt><trkpt lat="44.38949976916685" lon="9.081358573103078"><ele>132.0</ele><time>2026-03-29T16:40:53.999Z</time></trkpt><trkpt lat="44.38946960030715" lon="9.08092480598041"><ele>139.0</ele><time>2026-03-29T16:40:54.999Z</time></trkpt><trkpt lat="44.38945476098192" lon="9.080471283879373"><ele>146.0</ele><time>2026-03-29T16:40:55.999Z</time></trkpt><trkpt lat="44.38943390029741" lon="9.080025957305212"><ele>150.0</ele><time>2026-03-29T16:40:56.999Z</time></trkpt><trkpt lat="44.3894116563112" lon="9.079586910508421"><ele>154.0</ele><time>2026-03-29T16:40:57.999Z</time></trkpt><trkpt lat="44.38939171916387" lon="9.079139977457443"><ele>157.5</ele><time>2026-03-29T16:40:58.999Z</time></trkpt><trkpt lat="44.3893745156248" lon="9.078687881790101"><ele>161.0</ele><time>2026-03-29T16:40:59.999Z</time></trkpt><trkpt lat="44.38935367127835" lon="9.078248955807585"><ele>172.5</ele><time>2026-03-29T16:41:00.999Z</time></trkpt><trkpt lat="44.38933122900061" lon="9.077806649849869"><ele>184.0</ele><time>2026-03-29T16:41:01.999Z</time></trkpt><trkpt lat="44.38932381481569" lon="9.077337849632615"><ele>201.0</ele><time>2026-03-29T16:41:02.999Z</time></trkpt><trkpt lat="44.38932017474527" lon="9.076857366838338"><ele>218.0</ele><time>2026-03-29T16:41:03.999Z</time></trkpt><trkpt lat="44.38932144107894" lon="9.076367389557758"><ele>236.0</ele><time>2026-03-29T16:41:05.02Z</time></trkpt><trkpt lat="44.38929075984414" lon="9.07589999390287"><ele>254.0</ele><time>2026-03-29T16:41:06.016Z</time></trkpt><trkpt lat="44.38926799727072" lon="9.07542123198147"><ele>274.0</ele><time>2026-03-29T16:41:07.018Z</time></trkpt><trkpt lat="44.389245246623" lon="9.074942720709336"><ele>294.0</ele><time>2026-03-29T16:41:08.016Z</time></trkpt><trkpt lat="44.38898085887355" lon="9.070749740537295"><ele>164.0</ele><time>2026-03-29T16:41:12.102Z</time></trkpt><trkpt lat="44.38895552888921" lon="9.069996736952168"><ele>171.0</ele><time>2026-03-29T16:41:18.999Z</time></trkpt><trkpt lat="44.388956272292134" lon="9.069579829832824"><ele>178.0</ele><time>2026-03-29T16:41:19.999Z</time></trkpt><trkpt lat="44.38890561772216" lon="9.069240572747184"><ele>187.0</ele><time>2026-03-29T16:41:20.999Z</time></trkpt><trkpt lat="44.388883590454476" lon="9.068891066371544"><ele>196.0</ele><time>2026-03-29T16:41:21.999Z</time></trkpt><trkpt lat="44.388882939978735" lon="9.068567744580516"><ele>196.5</ele><time>2026-03-29T16:41:22.999Z</time></trkpt><trkpt lat="44.38887473236382" lon="9.068229568293832"><ele>197.0</ele><time>2026-03-29T16:41:23.999Z</time></trkpt><trkpt lat="44.38887818022636" lon="9.067891368118715"><ele>197.0</ele><time>2026-03-29T16:41:24.999Z</time></trkpt><trkpt lat="44.388907077186246" lon="9.067554711146544"><ele>197.0</ele><time>2026-03-29T16:41:25.999Z</time></trkpt><trkpt lat="44.38894082788397" lon="9.067236762549642"><ele>210.5</ele><time>2026-03-29T16:41:27Z</time></trkpt><trkpt lat="44.388981403333105" lon="9.066904694591184"><ele>224.0</ele><time>2026-03-29T16:41:28Z</time></trkpt><trkpt lat="44.38903440746493" lon="9.066557731637621"><ele>243.5</ele><time>2026-03-29T16:41:29Z</time></trkpt><trkpt lat="44.38909752453473" lon="9.066204627705297"><ele>263.0</ele><time>2026-03-29T16:41:30Z</time></trkpt><trkpt lat="44.3891778999952" lon="9.065831051234099"><ele>271.5</ele><time>2026-03-29T16:41:31.016Z</time></trkpt><trkpt lat="44.3892546132791" lon="9.065463948797046"><ele>280.0</ele><time>2026-03-29T16:41:32.019Z</time></trkpt><trkpt lat="44.38933666135488" lon="9.065081223064322"><ele>289.0</ele><time>2026-03-29T16:41:33.018Z</time></trkpt><trkpt lat="44.389419187410155" lon="9.064700028227188"><ele>298.0</ele><time>2026-03-29T16:41:34.015Z</time></trkpt><trkpt lat="44.390206391995505" lon="9.06103358112135"><ele>423.0</ele><time>2026-03-29T16:41:38.101Z</time></trkpt><trkpt lat="44.39041553387398" lon="9.060072704441092"><ele>464.0</ele><time>2026-03-29T16:41:39.101Z</time></trkpt><trkpt lat="44.39062474041174" lon="9.059112327657873"><ele>445.0</ele><time>2026-03-29T16:41:40.101Z</time></trkpt><trkpt lat="44.390834662313026" lon="9.058151951118383"><ele>430.0</ele><time>2026-03-29T16:41:41.101Z</time></trkpt><trkpt lat="44.39104458987009" lon="9.057191548704145"><ele>409.0</ele><time>2026-03-29T16:41:42.101Z</time></trkpt><trkpt lat="44.39125444546833" lon="9.056231121773884"><ele>362.0</ele><time>2026-03-29T16:41:43.101Z</time></trkpt><trkpt lat="44.39146313443359" lon="9.055270202067703"><ele>351.0</ele><time>2026-03-29T16:41:44.101Z</time></trkpt><trkpt lat="44.39167069114262" lon="9.054308556945792"><ele>336.0</ele><time>2026-03-29T16:41:45.101Z</time></trkpt><trkpt lat="44.39187844847463" lon="9.053346794862186"><ele>306.0</ele><time>2026-03-29T16:41:46.101Z</time></trkpt><trkpt lat="44.39208644926122" lon="9.052385191011949"><ele>255.0</ele><time>2026-03-29T16:41:47.102Z</time></trkpt><trkpt lat="44.39229438325337" lon="9.051424206542569"><ele>228.0</ele><time>2026-03-29T16:41:48.101Z</time></trkpt><trkpt lat="44.39250404547284" lon="9.050463460718904"><ele>215.0</ele><time>2026-03-29T16:41:49.101Z</time></trkpt><trkpt lat="44.39269165262532" lon="9.049494701542782"><ele>201.0</ele><time>2026-03-29T16:41:50.101Z</time></trkpt><trkpt lat="44.3928104294735" lon="9.04850505734327"><ele>184.0</ele><time>2026-03-29T16:41:51.101Z</time></trkpt><trkpt lat="44.3928592" lon="9.047503741730347"><ele>149.0</ele><time>2026-03-29T16:41:52.101Z</time></trkpt><trkpt lat="44.392644643275105" lon="9.045623902592382"><ele>149.0</ele><time>2026-03-29T16:42:09.776Z</time></trkpt><trkpt lat="44.39287528399787" lon="9.046121137225112"><ele>149.0</ele><time>2026-03-29T16:42:18Z</time></trkpt><trkpt lat="44.392822316904955" lon="9.045760338912523"><ele>149.0</ele><time>2026-03-29T16:42:19Z</time></trkpt><trkpt lat="44.392786110559335" lon="9.04536456902169"><ele>149.0</ele><time>2026-03-29T16:42:20Z</time></trkpt><trkpt lat="44.39276978438532" lon="9.044947086829955"><ele>134.5</ele><time>2026-03-29T16:42:21Z</time></trkpt><trkpt lat="44.392747907144376" lon="9.044566298758841"><ele>120.0</ele><time>2026-03-29T16:42:22Z</time></trkpt><trkpt lat="44.39272544286584" lon="9.044180080790529"><ele>103.5</ele><time>2026-03-29T16:42:23Z</time></trkpt><trkpt lat="44.39270328176857" lon="9.043796518350623"><ele>87.0</ele><time>2026-03-29T16:42:24Z</time></trkpt><trkpt lat="44.39268585086792" lon="9.043405328425324"><ele>76.5</ele><time>2026-03-29T16:42:25Z</time></trkpt><trkpt lat="44.39266610327421" lon="9.04301519344634"><ele>66.0</ele><time>2026-03-29T16:42:26Z</time></trkpt><trkpt lat="44.39264801825534" lon="9.042618033770774"><ele>62.5</ele><time>2026-03-29T16:42:27Z</time></trkpt><trkpt lat="44.392630665261414" lon="9.042221537398735"><ele>59.0</ele><time>2026-03-29T16:42:28Z</time></trkpt><trkpt lat="44.3926099286604" lon="9.041822229777503"><ele>65.0</ele><time>2026-03-29T16:42:29Z</time></trkpt><trkpt lat="44.39259029816497" lon="9.04142594236329"><ele>71.0</ele><time>2026-03-29T16:42:30Z</time></trkpt><trkpt lat="44.39257140167818" lon="9.04102207199336"><ele>95.5</ele><time>2026-03-29T16:42:31Z</time></trkpt><trkpt lat="44.392550872076484" lon="9.04062118220431"><ele>120.0</ele><time>2026-03-29T16:42:32Z</time></trkpt><trkpt lat="44.39253208578048" lon="9.04021415333029"><ele>131.0</ele><time>2026-03-29T16:42:33Z</time></trkpt><trkpt lat="44.39251560471557" lon="9.039804121545428"><ele>142.0</ele><time>2026-03-29T16:42:34Z</time></trkpt><trkpt lat="44.39249424925572" lon="9.039400581711929"><ele>149.5</ele><time>2026-03-29T16:42:35Z</time></trkpt><trkpt lat="44.39247585564774" lon="9.038992739903051"><ele>157.0</ele><time>2026-03-29T16:42:36Z</time></trkpt><trkpt lat="44.392466598968696" lon="9.038584325412067"><ele>173.5</ele><time>2026-03-29T16:42:37Z</time></trkpt><trkpt lat="44.39247392716769" lon="9.038170447475173"><ele>190.0</ele><time>2026-03-29T16:42:38Z</time></trkpt><trkpt lat="44.39248437010602" lon="9.037784453483935"><ele>192.5</ele><time>2026-03-29T16:42:39Z</time></trkpt><trkpt lat="44.39248985469133" lon="9.037423106802589"><ele>195.0</ele><time>2026-03-29T16:42:39.999Z</time></trkpt><trkpt lat="44.39249147768981" lon="9.037048542609298"><ele>195.0</ele><time>2026-03-29T16:42:40.999Z</time></trkpt><trkpt lat="44.39249425171359" lon="9.036673683001279"><ele>195.0</ele><time>2026-03-29T16:42:41.999Z</time></trkpt><trkpt lat="44.392497905414764" lon="9.036307613601739"><ele>186.0</ele><time>2026-03-29T16:42:42.999Z</time></trkpt><trkpt lat="44.392500708849404" lon="9.03592507729554"><ele>177.0</ele><time>2026-03-29T16:42:44.021Z</time></trkpt><trkpt lat="44.39247676804798" lon="9.035545249713216"><ele>165.5</ele><time>2026-03-29T16:42:45.02Z</time></trkpt><trkpt lat="44.39245875216329" lon="9.035164176333312"><ele>154.0</ele><time>2026-03-29T16:42:46.02Z</time></trkpt><trkpt lat="44.39244596992666" lon="9.034790128254487"><ele>154.0</ele><time>2026-03-29T16:42:46.999Z</time></trkpt><trkpt lat="44.392378537009364" lon="9.034179432241203"><ele>154.0</ele><time>2026-03-29T16:42:47.999Z</time></trkpt><trkpt lat="44.39239516786955" lon="9.033802974413804"><ele>162.0</ele><time>2026-03-29T16:42:48.999Z</time></trkpt><trkpt lat="44.392427338759205" lon="9.033413580269569"><ele>170.0</ele><time>2026-03-29T16:42:49.999Z</time></trkpt><trkpt lat="44.39245437070879" lon="9.033052377906875"><ele>185.0</ele><time>2026-03-29T16:42:50.999Z</time></trkpt><trkpt lat="44.392463629451875" lon="9.032709978424595"><ele>200.0</ele><time>2026-03-29T16:42:51.999Z</time></trkpt><trkpt lat="44.39248092420848" lon="9.032351682516282"><ele>213.5</ele><time>2026-03-29T16:42:52.999Z</time></trkpt><trkpt lat="44.39249887511293" lon="9.031988636606002"><ele>227.0</ele><time>2026-03-29T16:42:54.018Z</time></trkpt><trkpt lat="44.393288982440545" lon="9.027929218108593"><ele>352.0</ele><time>2026-03-29T16:42:58.1Z</time></trkpt><trkpt lat="44.39353219409994" lon="9.026590314787398"><ele>329.0</ele><time>2026-03-29T16:42:59.1Z</time></trkpt><trkpt lat="44.39377373241099" lon="9.025251392226956"><ele>228.0</ele><time>2026-03-29T16:43:00.1Z</time></trkpt><trkpt lat="44.39401508922137" lon="9.02391323126573"><ele>192.0</ele><time>2026-03-29T16:43:01.1Z</time></trkpt><trkpt lat="44.39425694840446" lon="9.022574455558985"><ele>144.0</ele><time>2026-03-29T16:43:02.1Z</time></trkpt><trkpt lat="44.39446294218711" lon="9.02159786783999"><ele>144.0</ele><time>2026-03-29T16:43:20.999Z</time></trkpt><trkpt lat="44.394507123927745" lon="9.021266984467262"><ele>144.0</ele><time>2026-03-29T16:43:21.999Z</time></trkpt><trkpt lat="44.39456891511856" lon="9.020939324649847"><ele>139.0</ele><time>2026-03-29T16:43:22.999Z</time></trkpt><trkpt lat="44.39462905766548" lon="9.020594986484456"><ele>134.0</ele><time>2026-03-29T16:43:23.999Z</time></trkpt><trkpt lat="44.394695273519375" lon="9.020249505052453"><ele>158.0</ele><time>2026-03-29T16:43:24.999Z</time></trkpt><trkpt lat="44.39476193866274" lon="9.01990153763637"><ele>182.0</ele><time>2026-03-29T16:43:25.999Z</time></trkpt><trkpt lat="44.3948295457886" lon="9.01954456094881"><ele>182.0</ele><time>2026-03-29T16:43:26.999Z</time></trkpt><trkpt lat="44.39489451058868" lon="9.019190211304956"><ele>182.0</ele><time>2026-03-29T16:43:27.999Z</time></trkpt><trkpt lat="44.394953091608976" lon="9.018848501905435"><ele>195.5</ele><time>2026-03-29T16:43:28.999Z</time></trkpt><trkpt lat="44.39501256924136" lon="9.018518150424494"><ele>209.0</ele><time>2026-03-29T16:43:29.999Z</time></trkpt><trkpt lat="44.39507385293747" lon="9.01818184352718"><ele>218.0</ele><time>2026-03-29T16:43:31.014Z</time></trkpt><trkpt lat="44.39513590033398" lon="9.017858348073172"><ele>227.0</ele><time>2026-03-29T16:43:32.019Z</time></trkpt><trkpt lat="44.39519996258913" lon="9.017539361522324"><ele>223.5</ele><time>2026-03-29T16:43:33.018Z</time></trkpt><trkpt lat="44.3952268432219" lon="9.01721414387887"><ele>220.0</ele><time>2026-03-29T16:43:34.018Z</time></trkpt><trkpt lat="44.39530611973665" lon="9.014843814083388"><ele>172.0</ele><time>2026-03-29T16:43:40.999Z</time></trkpt><trkpt lat="44.39532237279906" lon="9.014508460095692"><ele>124.0</ele><time>2026-03-29T16:43:41.999Z</time></trkpt><trkpt lat="44.39534661479966" lon="9.014155199899244"><ele>107.5</ele><time>2026-03-29T16:43:43Z</time></trkpt><trkpt lat="44.395366395323286" lon="9.01382087818059"><ele>91.0</ele><time>2026-03-29T16:43:44Z</time></trkpt><trkpt lat="44.395386388032094" lon="9.013494472741234"><ele>91.33333333333333</ele><time>2026-03-29T16:43:45Z</time></trkpt><trkpt lat="44.395401596244334" lon="9.013226481791543"><ele>91.66666666666667</ele><time>2026-03-29T16:43:46Z</time></trkpt><trkpt lat="44.395414232649834" lon="9.012946834624746"><ele>92.0</ele><time>2026-03-29T16:43:47Z</time></trkpt><trkpt lat="44.39542982125371" lon="9.012671034796867"><ele>97.33333333333334</ele><time>2026-03-29T16:43:48Z</time></trkpt><trkpt lat="44.39544526747986" lon="9.012402702757743"><ele>102.66666666666667</ele><time>2026-03-29T16:43:49Z</time></trkpt><trkpt lat="44.395460023600215" lon="9.012122714637721"><ele>108.0</ele><time>2026-03-29T16:43:50Z</time></trkpt><trkpt lat="44.39547315231075" lon="9.011866633320668"><ele>111.33333333333334</ele><time>2026-03-29T16:43:51Z</time></trkpt><trkpt lat="44.39548561893446" lon="9.011627993818275"><ele>114.66666666666667</ele><time>2026-03-29T16:43:52Z</time></trkpt><trkpt lat="44.39549657607249" lon="9.011405516236545"><ele>118.0</ele><time>2026-03-29T16:43:53Z</time></trkpt><trkpt lat="44.39551250263571" lon="9.011189974239036"><ele>127.33333333333334</ele><time>2026-03-29T16:43:54Z</time></trkpt><trkpt lat="44.3955363410602" lon="9.010962536137084"><ele>136.66666666666666</ele><time>2026-03-29T16:43:55Z</time></trkpt><trkpt lat="44.395573265252075" lon="9.01073265917321"><ele>146.0</ele><time>2026-03-29T16:43:56Z</time></trkpt><trkpt lat="44.39561828689109" lon="9.010520952399068"><ele>146.0</ele><time>2026-03-29T16:43:57Z</time></trkpt><trkpt lat="44.39566157363086" lon="9.010325070594824"><ele>146.0</ele><time>2026-03-29T16:43:58Z</time></trkpt><trkpt lat="44.39570353673495" lon="9.01013994996588"><ele>146.0</ele><time>2026-03-29T16:43:59Z</time></trkpt><trkpt lat="44.39575927013888" lon="9.00994883230705"><ele>146.0</ele><time>2026-03-29T16:44:00Z</time></trkpt><trkpt lat="44.39586189120184" lon="9.009748870296772"><ele>142.66666666666666</ele><time>2026-03-29T16:44:01Z</time></trkpt><trkpt lat="44.3959627620662" lon="9.0095469402686"><ele>139.33333333333334</ele><time>2026-03-29T16:44:02Z</time></trkpt><trkpt lat="44.39607043215286" lon="9.009371499555497"><ele>136.0</ele><time>2026-03-29T16:44:03Z</time></trkpt><trkpt lat="44.39615976260915" lon="9.009217283631576"><ele>136.5</ele><time>2026-03-29T16:44:04Z</time></trkpt><trkpt lat="44.39622536005258" lon="9.009090789665983"><ele>137.0</ele><time>2026-03-29T16:44:05Z</time></trkpt><trkpt lat="44.396301637703004" lon="9.008944191215154"><ele>137.5</ele><time>2026-03-29T16:44:06Z</time></trkpt><trkpt lat="44.396382445736506" lon="9.00878989328581"><ele>138.0</ele><time>2026-03-29T16:44:07Z</time></trkpt><trkpt lat="44.39645539882164" lon="9.008659045817746"><ele>138.0</ele><time>2026-03-29T16:44:08Z</time></trkpt><trkpt lat="44.3965034767164" lon="9.008549500402175"><ele>138.0</ele><time>2026-03-29T16:44:09Z</time></trkpt><trkpt lat="44.39656026068061" lon="9.008449767485594"><ele>138.0</ele><time>2026-03-29T16:44:10Z</time></trkpt><trkpt lat="44.396597634624634" lon="9.008345085898185"><ele>138.0</ele><time>2026-03-29T16:44:11Z</time></trkpt><trkpt lat="44.396614694736634" lon="9.008243852995523"><ele>138.0</ele><time>2026-03-29T16:44:12Z</time></trkpt><trkpt lat="44.39660304024337" lon="9.00813558807992"><ele>138.0</ele><time>2026-03-29T16:44:13Z</time></trkpt><trkpt lat="44.39657604235255" lon="9.008032850771352"><ele>136.16666666666666</ele><time>2026-03-29T16:44:14Z</time></trkpt><trkpt lat="44.39652619375015" lon="9.007947643154914"><ele>134.33333333333334</ele><time>2026-03-29T16:44:15Z</time></trkpt><trkpt lat="44.396470212086996" lon="9.007887241054567"><ele>132.5</ele><time>2026-03-29T16:44:16Z</time></trkpt><trkpt lat="44.39639846900832" lon="9.007849797702072"><ele>130.66666666666669</ele><time>2026-03-29T16:44:17Z</time></trkpt><trkpt lat="44.39631739455741" lon="9.007837449358547"><ele>128.83333333333334</ele><time>2026-03-29T16:44:18Z</time></trkpt><trkpt lat="44.39624592501184" lon="9.007862726710929"><ele>127.0</ele><time>2026-03-29T16:44:19Z</time></trkpt><trkpt lat="44.39618108945431" lon="9.00791477335309"><ele>127.6</ele><time>2026-03-29T16:44:20Z</time></trkpt><trkpt lat="44.396119128020665" lon="9.007999481831261"><ele>128.2</ele><time>2026-03-29T16:44:21Z</time></trkpt><trkpt lat="44.39606981818714" lon="9.008117785574234"><ele>128.8</ele><time>2026-03-29T16:44:22Z</time></trkpt><trkpt lat="44.39602553080213" lon="9.008261563802032"><ele>129.4</ele><time>2026-03-29T16:44:23Z</time></trkpt><trkpt lat="44.39597740360907" lon="9.008427269263459"><ele>130.0</ele><time>2026-03-29T16:44:24Z</time></trkpt><trkpt lat="44.3959367586747" lon="9.008573204173706"><ele>130.0</ele><time>2026-03-29T16:44:25Z</time></trkpt><trkpt lat="44.395896359478684" lon="9.008704919557934"><ele>130.0</ele><time>2026-03-29T16:44:26Z</time></trkpt><trkpt lat="44.39586153621105" lon="9.008815895272175"><ele>130.0</ele><time>2026-03-29T16:44:27Z</time></trkpt><trkpt lat="44.395828326195954" lon="9.008911552240285"><ele>130.0</ele><time>2026-03-29T16:44:28Z</time></trkpt><trkpt lat="44.39579752849978" lon="9.009002316002496"><ele>130.0</ele><time>2026-03-29T16:44:29Z</time></trkpt><trkpt lat="44.39576625225889" lon="9.009096335921214"><ele>130.0</ele><time>2026-03-29T16:44:30Z</time></trkpt><trkpt lat="44.395729886898664" lon="9.009199477884906"><ele>131.0</ele><time>2026-03-29T16:44:31Z</time></trkpt><trkpt lat="44.39567555764427" lon="9.009301095338305"><ele>132.0</ele><time>2026-03-29T16:44:32Z</time></trkpt><trkpt lat="44.395604782396255" lon="9.009372475331125"><ele>133.0</ele><time>2026-03-29T16:44:33Z</time></trkpt><trkpt lat="44.39553624628926" lon="9.009403127585006"><ele>134.0</ele><time>2026-03-29T16:44:34Z</time></trkpt><trkpt lat="44.39546119281853" lon="9.009397998854153"><ele>135.0</ele><time>2026-03-29T16:44:35Z</time></trkpt><trkpt lat="44.39537951005071" lon="9.009377831485386"><ele>136.0</ele><time>2026-03-29T16:44:36Z</time></trkpt><trkpt lat="44.395302080687486" lon="9.00936755820459"><ele>131.83333333333334</ele><time>2026-03-29T16:44:37Z</time></trkpt><trkpt lat="44.39523156923713" lon="9.009393239788759"><ele>127.66666666666667</ele><time>2026-03-29T16:44:38Z</time></trkpt><trkpt lat="44.39516430985776" lon="9.009431176377882"><ele>123.5</ele><time>2026-03-29T16:44:39Z</time></trkpt><trkpt lat="44.39510903273789" lon="9.009503619754113"><ele>119.33333333333334</ele><time>2026-03-29T16:44:40Z</time></trkpt><trkpt lat="44.39506043203419" lon="9.00960313034308"><ele>115.16666666666667</ele><time>2026-03-29T16:44:41Z</time></trkpt><trkpt lat="44.39503646633105" lon="9.009721569871177"><ele>111.0</ele><time>2026-03-29T16:44:42Z</time></trkpt><trkpt lat="44.39502977936693" lon="9.009856001043342"><ele>112.6</ele><time>2026-03-29T16:44:43Z</time></trkpt><trkpt lat="44.39503647818558" lon="9.009995924565894"><ele>114.19999999999999</ele><time>2026-03-29T16:44:44Z</time></trkpt><trkpt lat="44.39504417218465" lon="9.010146368304412"><ele>115.80000000000001</ele><time>2026-03-29T16:44:45Z</time></trkpt><trkpt lat="44.395048113472455" lon="9.010303775375334"><ele>117.4</ele><time>2026-03-29T16:44:46Z</time></trkpt><trkpt lat="44.39505541798068" lon="9.010470442133693"><ele>119.0</ele><time>2026-03-29T16:44:47Z</time></trkpt><trkpt lat="44.39506582885942" lon="9.010642885143547"><ele>119.0</ele><time>2026-03-29T16:44:48Z</time></trkpt><trkpt lat="44.39508832492892" lon="9.010821201439482"><ele>119.0</ele><time>2026-03-29T16:44:48.999Z</time></trkpt><trkpt lat="44.39512274338481" lon="9.01099444479433"><ele>119.0</ele><time>2026-03-29T16:44:49.999Z</time></trkpt><trkpt lat="44.39515687631731" lon="9.01115841923031"><ele>119.0</ele><time>2026-03-29T16:44:50.999Z</time></trkpt><trkpt lat="44.395199703986684" lon="9.011322367253817"><ele>118.75</ele><time>2026-03-29T16:44:51.999Z</time></trkpt><trkpt lat="44.395262650363186" lon="9.011489174177669"><ele>118.5</ele><time>2026-03-29T16:44:52.999Z</time></trkpt><trkpt lat="44.39534976789185" lon="9.011640322998518"><ele>118.25</ele><time>2026-03-29T16:44:53.999Z</time></trkpt><trkpt lat="44.395451406048835" lon="9.0117777031109"><ele>118.0</ele><time>2026-03-29T16:44:54.999Z</time></trkpt><trkpt lat="44.395562526771336" lon="9.011912301468454"><ele>126.33333333333334</ele><time>2026-03-29T16:44:55.999Z</time></trkpt><trkpt lat="44.39567515490353" lon="9.012064156109709"><ele>134.66666666666666</ele><time>2026-03-29T16:44:56.999Z</time></trkpt><trkpt lat="44.39579675640563" lon="9.012224160544731"><ele>143.0</ele><time>2026-03-29T16:44:57.999Z</time></trkpt><trkpt lat="44.39592301191539" lon="9.012393761908124"><ele>136.33333333333331</ele><time>2026-03-29T16:44:58.999Z</time></trkpt><trkpt lat="44.39602768349523" lon="9.012583251220292"><ele>129.66666666666666</ele><time>2026-03-29T16:44:59.999Z</time></trkpt><trkpt lat="44.396136372006076" lon="9.012738362136371"><ele>123.0</ele><time>2026-03-29T16:45:00.999Z</time></trkpt><trkpt lat="44.396238682338996" lon="9.01287231125975"><ele>123.0</ele><time>2026-03-29T16:45:01.999Z</time></trkpt><trkpt lat="44.396336304344054" lon="9.01299445473803"><ele>123.0</ele><time>2026-03-29T16:45:02.999Z</time></trkpt><trkpt lat="44.39644633557504" lon="9.013126774142359"><ele>123.0</ele><time>2026-03-29T16:45:03.999Z</time></trkpt><trkpt lat="44.39655998687167" lon="9.013261883082894"><ele>123.0</ele><time>2026-03-29T16:45:04.999Z</time></trkpt><trkpt lat="44.39666546260858" lon="9.01338557701954"><ele>123.0</ele><time>2026-03-29T16:45:05.999Z</time></trkpt><trkpt lat="44.39675578369419" lon="9.01349015467621"><ele>123.00000000000001</ele><time>2026-03-29T16:45:06.999Z</time></trkpt><trkpt lat="44.39683725016566" lon="9.013588926042225"><ele>123.00000000000001</ele><time>2026-03-29T16:45:07.999Z</time></trkpt><trkpt lat="44.39692576152834" lon="9.013670848133975"><ele>123.0</ele><time>2026-03-29T16:45:08.999Z</time></trkpt><trkpt lat="44.39698840599881" lon="9.013770844024261"><ele>123.0</ele><time>2026-03-29T16:45:09.999Z</time></trkpt><trkpt lat="44.397037371067285" lon="9.013869123559111"><ele>123.0</ele><time>2026-03-29T16:45:10.999Z</time></trkpt><trkpt lat="44.397083708867356" lon="9.01396894656914"><ele>123.00000000000001</ele><time>2026-03-29T16:45:11.999Z</time></trkpt><trkpt lat="44.39713760766415" lon="9.014069194330935"><ele>123.00000000000001</ele><time>2026-03-29T16:45:12.999Z</time></trkpt><trkpt lat="44.39719754547444" lon="9.014163672033863"><ele>123.0</ele><time>2026-03-29T16:45:13.999Z</time></trkpt><trkpt lat="44.39725497131161" lon="9.014249015913292"><ele>123.0</ele><time>2026-03-29T16:45:14.999Z</time></trkpt><trkpt lat="44.39734902726837" lon="9.014335470382226"><ele>123.2</ele><time>2026-03-29T16:45:16.999Z</time></trkpt><trkpt lat="44.397428642543105" lon="9.014389495780424"><ele>123.4</ele><time>2026-03-29T16:45:18.999Z</time></trkpt><trkpt lat="44.39750466658828" lon="9.014453818421426"><ele>123.60000000000001</ele><time>2026-03-29T16:46:33Z</time></trkpt><trkpt lat="44.3975994162941" lon="9.014541783075556"><ele>123.80000000000001</ele><time>2026-03-29T16:46:35Z</time></trkpt><trkpt lat="44.397662418466616" lon="9.014594711584978"><ele>124.0</ele><time>2026-03-29T16:46:36Z</time></trkpt><trkpt lat="44.397742306386334" lon="9.01465270046496"><ele>124.00000000000001</ele><time>2026-03-29T16:46:37Z</time></trkpt><trkpt lat="44.397831605823086" lon="9.014720426874378"><ele>124.0</ele><time>2026-03-29T16:46:38Z</time></trkpt><trkpt lat="44.39790997304186" lon="9.014777138130896"><ele>124.0</ele><time>2026-03-29T16:46:39Z</time></trkpt><trkpt lat="44.39796929397646" lon="9.014824100268315"><ele>124.0</ele><time>2026-03-29T16:46:40Z</time></trkpt><trkpt lat="44.39805672869812" lon="9.014939734515032"><ele>124.00000000000001</ele><time>2026-03-29T16:46:42Z</time></trkpt><trkpt lat="44.39807474684808" lon="9.015032789169945"><ele>124.0</ele><time>2026-03-29T16:46:43Z</time></trkpt><trkpt lat="44.39806974057284" lon="9.015135993178667"><ele>123.80000000000001</ele><time>2026-03-29T16:46:44Z</time></trkpt><trkpt lat="44.397987658589024" lon="9.015258989742394"><ele>123.60000000000001</ele><time>2026-03-29T16:46:46Z</time></trkpt><trkpt lat="44.397912919567716" lon="9.015297276268374"><ele>123.4</ele><time>2026-03-29T16:46:47Z</time></trkpt><trkpt lat="44.39782204956886" lon="9.015319442997678"><ele>123.2</ele><time>2026-03-29T16:46:48Z</time></trkpt><trkpt lat="44.39772961673334" lon="9.015298451226165"><ele>123.0</ele><time>2026-03-29T16:46:49Z</time></trkpt><trkpt lat="44.3976587415456" lon="9.015241444969663"><ele>123.0</ele><time>2026-03-29T16:46:50Z</time></trkpt><trkpt lat="44.39761224435674" lon="9.01517123218057"><ele>123.0</ele><time>2026-03-29T16:46:51Z</time></trkpt><trkpt lat="44.397554183234966" lon="9.015070373847395"><ele>123.0</ele><time>2026-03-29T16:46:52Z</time></trkpt><trkpt lat="44.397498417785336" lon="9.014958351019633"><ele>123.0</ele><time>2026-03-29T16:46:53Z</time></trkpt><trkpt lat="44.39745244404972" lon="9.014866130523336"><ele>123.0</ele><time>2026-03-29T16:46:54Z</time></trkpt><trkpt lat="44.39742243958249" lon="9.01474091123614"><ele>123.0</ele><time>2026-03-29T16:46:55.999Z</time></trkpt><trkpt lat="44.39739105337304" lon="9.014656367281573"><ele>123.0</ele><time>2026-03-29T16:49:02.999Z</time></trkpt><trkpt lat="44.397314837987025" lon="9.014606430633805"><ele>123.00000000000001</ele><time>2026-03-29T16:50:02Z</time></trkpt><trkpt lat="44.39721454547695" lon="9.014470786214664"><ele>123.00000000000001</ele><time>2026-03-29T16:50:04Z</time></trkpt><trkpt lat="44.397148548172254" lon="9.01436201937153"><ele>123.0</ele><time>2026-03-29T16:50:05Z</time></trkpt><trkpt lat="44.39709020247742" lon="9.01425781283418"><ele>123.0</ele><time>2026-03-29T16:50:06Z</time></trkpt><trkpt lat="44.397027561085075" lon="9.014143742443164"><ele>123.0</ele><time>2026-03-29T16:50:07Z</time></trkpt><trkpt lat="44.39695153038314" lon="9.014014534398404"><ele>123.0</ele><time>2026-03-29T16:50:08Z</time></trkpt><trkpt lat="44.396864160534996" lon="9.01387452478866"><ele>123.0</ele><time>2026-03-29T16:50:09Z</time></trkpt><trkpt lat="44.39678270287091" lon="9.013748921674177"><ele>123.0</ele><time>2026-03-29T16:50:10Z</time></trkpt><trkpt lat="44.39670259092731" lon="9.013640719268228"><ele>123.0</ele><time>2026-03-29T16:50:11Z</time></trkpt><trkpt lat="44.396619969808846" lon="9.013544151981868"><ele>123.00000000000001</ele><time>2026-03-29T16:50:12Z</time></trkpt><trkpt lat="44.39653992165126" lon="9.013459329438176"><ele>123.00000000000001</ele><time>2026-03-29T16:50:13Z</time></trkpt><trkpt lat="44.39644281722447" lon="9.013374205386443"><ele>123.0</ele><time>2026-03-29T16:50:14Z</time></trkpt><trkpt lat="44.396338617722286" lon="9.013283036703223"><ele>123.0</ele><time>2026-03-29T16:50:15Z</time></trkpt><trkpt lat="44.396220776210704" lon="9.013179945418372"><ele>123.0</ele><time>2026-03-29T16:50:16Z</time></trkpt><trkpt lat="44.3960940035864" lon="9.013058385899223"><ele>123.0</ele><time>2026-03-29T16:50:17Z</time></trkpt><trkpt lat="44.39598151440956" lon="9.012944029414445"><ele>123.0</ele><time>2026-03-29T16:50:18Z</time></trkpt><trkpt lat="44.395874584392374" lon="9.01283832475088"><ele>123.0</ele><time>2026-03-29T16:50:19Z</time></trkpt><trkpt lat="44.3957728351395" lon="9.012737428634448"><ele>123.0</ele><time>2026-03-29T16:50:20Z</time></trkpt><trkpt lat="44.395672960088795" lon="9.012646437767598"><ele>123.0</ele><time>2026-03-29T16:50:21Z</time></trkpt><trkpt lat="44.39557060680088" lon="9.01255477604847"><ele>123.0</ele><time>2026-03-29T16:50:22Z</time></trkpt><trkpt lat="44.39545181511695" lon="9.012453490198133"><ele>123.0</ele><time>2026-03-29T16:50:23Z</time></trkpt><trkpt lat="44.395348976797514" lon="9.012344738971588"><ele>119.25</ele><time>2026-03-29T16:50:24Z</time></trkpt><trkpt lat="44.39524945998521" lon="9.012244268884164"><ele>115.5</ele><time>2026-03-29T16:50:25Z</time></trkpt><trkpt lat="44.395159596732114" lon="9.012148560974072"><ele>111.75</ele><time>2026-03-29T16:50:26Z</time></trkpt><trkpt lat="44.39507524816921" lon="9.01205167445167"><ele>108.0</ele><time>2026-03-29T16:50:27Z</time></trkpt><trkpt lat="44.39496929402908" lon="9.011948345326164"><ele>108.0</ele><time>2026-03-29T16:50:28Z</time></trkpt><trkpt lat="44.39485762807923" lon="9.011821991228052"><ele>108.0</ele><time>2026-03-29T16:50:29Z</time></trkpt><trkpt lat="44.39476044501519" lon="9.011699341683839"><ele>108.0</ele><time>2026-03-29T16:50:30Z</time></trkpt><trkpt lat="44.39468061520066" lon="9.011583461021557"><ele>108.0</ele><time>2026-03-29T16:50:31Z</time></trkpt><trkpt lat="44.39460961640623" lon="9.011470163599862"><ele>102.75</ele><time>2026-03-29T16:50:32Z</time></trkpt><trkpt lat="44.39453519904131" lon="9.011357334990944"><ele>97.5</ele><time>2026-03-29T16:50:33Z</time></trkpt><trkpt lat="44.39446169022732" lon="9.01122767074054"><ele>92.25</ele><time>2026-03-29T16:50:34Z</time></trkpt><trkpt lat="44.39438756397849" lon="9.011084740966075"><ele>87.0</ele><time>2026-03-29T16:50:35Z</time></trkpt><trkpt lat="44.394319593959615" lon="9.01094508898306"><ele>89.25</ele><time>2026-03-29T16:50:36Z</time></trkpt><trkpt lat="44.39425256546602" lon="9.01080395257846"><ele>91.5</ele><time>2026-03-29T16:50:37Z</time></trkpt><trkpt lat="44.394182613094415" lon="9.010655068909797"><ele>93.75</ele><time>2026-03-29T16:50:38Z</time></trkpt><trkpt lat="44.39411407369521" lon="9.010500126960107"><ele>96.0</ele><time>2026-03-29T16:50:39Z</time></trkpt><trkpt lat="44.39403247979908" lon="9.010344618232986"><ele>96.0</ele><time>2026-03-29T16:50:40Z</time></trkpt><trkpt lat="44.39395885244892" lon="9.010187936503051"><ele>96.0</ele><time>2026-03-29T16:50:41Z</time></trkpt><trkpt lat="44.39388293475423" lon="9.01002630839955"><ele>96.0</ele><time>2026-03-29T16:50:42Z</time></trkpt><trkpt lat="44.39381436098967" lon="9.009877810010346"><ele>96.0</ele><time>2026-03-29T16:50:43Z</time></trkpt><trkpt lat="44.393749766010934" lon="9.009746110869237"><ele>91.39999999999999</ele><time>2026-03-29T16:50:44Z</time></trkpt><trkpt lat="44.39368981889585" lon="9.009626491441017"><ele>86.8</ele><time>2026-03-29T16:50:45Z</time></trkpt><trkpt lat="44.39363682301112" lon="9.00951358685228"><ele>82.19999999999999</ele><time>2026-03-29T16:50:46Z</time></trkpt><trkpt lat="44.3935905818278" lon="9.00940431639224"><ele>77.6</ele><time>2026-03-29T16:50:47Z</time></trkpt><trkpt lat="44.39354799127779" lon="9.009292834211974"><ele>73.0</ele><time>2026-03-29T16:50:48Z</time></trkpt><trkpt lat="44.39352504563633" lon="9.009182070550999"><ele>71.2</ele><time>2026-03-29T16:50:49Z</time></trkpt><trkpt lat="44.393513016816364" lon="9.009054915983171"><ele>69.4</ele><time>2026-03-29T16:50:50Z</time></trkpt><trkpt lat="44.393509032309204" lon="9.008916462419316"><ele>67.60000000000001</ele><time>2026-03-29T16:50:51Z</time></trkpt><trkpt lat="44.39352480785363" lon="9.008780898750674"><ele>65.8</ele><time>2026-03-29T16:50:52Z</time></trkpt><trkpt lat="44.39355722278837" lon="9.008647169843629"><ele>64.0</ele><time>2026-03-29T16:50:53Z</time></trkpt><trkpt lat="44.39360548520296" lon="9.008519314383351"><ele>64.0</ele><time>2026-03-29T16:50:54Z</time></trkpt><trkpt lat="44.393663216062734" lon="9.00838601670687"><ele>64.0</ele><time>2026-03-29T16:50:55Z</time></trkpt><trkpt lat="44.393719287051475" lon="9.00825417066568"><ele>64.0</ele><time>2026-03-29T16:50:56Z</time></trkpt><trkpt lat="44.39376569625176" lon="9.00813240398864"><ele>64.0</ele><time>2026-03-29T16:50:57Z</time></trkpt><trkpt lat="44.393803956012036" lon="9.008010720869779"><ele>64.0</ele><time>2026-03-29T16:50:58Z</time></trkpt><trkpt lat="44.39383030618202" lon="9.007885142499543"><ele>65.0</ele><time>2026-03-29T16:50:59Z</time></trkpt><trkpt lat="44.3938460632591" lon="9.00776913591906"><ele>66.0</ele><time>2026-03-29T16:51:00Z</time></trkpt><trkpt lat="44.39385302089015" lon="9.007659326125"><ele>67.0</ele><time>2026-03-29T16:51:01Z</time></trkpt><trkpt lat="44.393856442103434" lon="9.007549737627174"><ele>68.0</ele><time>2026-03-29T16:51:02Z</time></trkpt><trkpt lat="44.39385551079848" lon="9.007437250812727"><ele>69.0</ele><time>2026-03-29T16:51:03Z</time></trkpt><trkpt lat="44.393853412065184" lon="9.00731725854747"><ele>70.0</ele><time>2026-03-29T16:51:03.999Z</time></trkpt><trkpt lat="44.39384720383081" lon="9.007169737678742"><ele>70.0</ele><time>2026-03-29T16:51:04.999Z</time></trkpt><trkpt lat="44.39384059913069" lon="9.007029813562113"><ele>70.0</ele><time>2026-03-29T16:51:05.999Z</time></trkpt><trkpt lat="44.393830202574165" lon="9.00690391407456"><ele>70.0</ele><time>2026-03-29T16:51:06.999Z</time></trkpt><trkpt lat="44.39382702535878" lon="9.006789592322212"><ele>70.0</ele><time>2026-03-29T16:51:07.999Z</time></trkpt><trkpt lat="44.39384551923138" lon="9.00667961475921"><ele>70.0</ele><time>2026-03-29T16:51:08.999Z</time></trkpt><trkpt lat="44.393875398790264" lon="9.006567947448334"><ele>70.0</ele><time>2026-03-29T16:51:09.999Z</time></trkpt><trkpt lat="44.39392961270125" lon="9.006469867583418"><ele>68.0</ele><time>2026-03-29T16:51:10.999Z</time></trkpt><trkpt lat="44.39398769218856" lon="9.006361445378449"><ele>66.0</ele><time>2026-03-29T16:51:11.999Z</time></trkpt><trkpt lat="44.394048572805545" lon="9.006250238467278"><ele>64.0</ele><time>2026-03-29T16:51:12.999Z</time></trkpt><trkpt lat="44.39410654596731" lon="9.006144267660677"><ele>62.0</ele><time>2026-03-29T16:51:13.999Z</time></trkpt><trkpt lat="44.39415630063275" lon="9.006039292005859"><ele>60.0</ele><time>2026-03-29T16:51:14.999Z</time></trkpt><trkpt lat="44.39420474101963" lon="9.005940314442217"><ele>60.0</ele><time>2026-03-29T16:51:15.999Z</time></trkpt><trkpt lat="44.394251971211794" lon="9.005853282275012"><ele>60.0</ele><time>2026-03-29T16:51:16.999Z</time></trkpt><trkpt lat="44.3942994689057" lon="9.005773794801385"><ele>60.0</ele><time>2026-03-29T16:51:17.999Z</time></trkpt><trkpt lat="44.394347189603934" lon="9.00569637808642"><ele>60.0</ele><time>2026-03-29T16:51:18.999Z</time></trkpt><trkpt lat="44.39438909214768" lon="9.0056027805907"><ele>60.0</ele><time>2026-03-29T16:51:19.999Z</time></trkpt><trkpt lat="44.39442890759175" lon="9.005489700100846"><ele>60.0</ele><time>2026-03-29T16:51:20.999Z</time></trkpt><trkpt lat="44.39447561791875" lon="9.005356907995276"><ele>58.0</ele><time>2026-03-29T16:51:21.999Z</time></trkpt><trkpt lat="44.39451532032632" lon="9.00523493767394"><ele>56.0</ele><time>2026-03-29T16:51:22.999Z</time></trkpt><trkpt lat="44.394539409936904" lon="9.005125357670384"><ele>54.0</ele><time>2026-03-29T16:51:23.999Z</time></trkpt><trkpt lat="44.39455511305739" lon="9.00503256410545"><ele>52.0</ele><time>2026-03-29T16:51:24.999Z</time></trkpt><trkpt lat="44.394572832082694" lon="9.004947194851978"><ele>50.0</ele><time>2026-03-29T16:51:25.999Z</time></trkpt><trkpt lat="44.394594945955866" lon="9.004845158550676"><ele>48.0</ele><time>2026-03-29T16:51:26.999Z</time></trkpt><trkpt lat="44.39462476402054" lon="9.004724754280309"><ele>48.75</ele><time>2026-03-29T16:51:27.999Z</time></trkpt><trkpt lat="44.39465741139691" lon="9.004605701491567"><ele>49.5</ele><time>2026-03-29T16:51:28.999Z</time></trkpt><trkpt lat="44.39469831515738" lon="9.004466209009019"><ele>50.25</ele><time>2026-03-29T16:51:29.999Z</time></trkpt><trkpt lat="44.39473872128808" lon="9.00429939717922"><ele>51.0</ele><time>2026-03-29T16:51:30.999Z</time></trkpt><trkpt lat="44.39477341582717" lon="9.004126028291537"><ele>52.199999999999996</ele><time>2026-03-29T16:51:31.999Z</time></trkpt><trkpt lat="44.39479932993094" lon="9.003974042362772"><ele>53.4</ele><time>2026-03-29T16:51:32.999Z</time></trkpt><trkpt lat="44.39482053932904" lon="9.00384048358533"><ele>54.6</ele><time>2026-03-29T16:51:33.999Z</time></trkpt><trkpt lat="44.39484197780895" lon="9.003696261372134"><ele>55.8</ele><time>2026-03-29T16:51:34.999Z</time></trkpt><trkpt lat="44.39486411928584" lon="9.003545600788597"><ele>57.0</ele><time>2026-03-29T16:51:35.999Z</time></trkpt><trkpt lat="44.39488066058185" lon="9.003413719433793"><ele>57.0</ele><time>2026-03-29T16:51:36.999Z</time></trkpt><trkpt lat="44.39489529807331" lon="9.003284022163063"><ele>57.0</ele><time>2026-03-29T16:51:37.999Z</time></trkpt><trkpt lat="44.39490455740126" lon="9.003144070561701"><ele>57.0</ele><time>2026-03-29T16:51:38.999Z</time></trkpt><trkpt lat="44.394915147799324" lon="9.002992275555812"><ele>57.0</ele><time>2026-03-29T16:51:39.999Z</time></trkpt><trkpt lat="44.39492573341587" lon="9.00285203437601"><ele>57.0</ele><time>2026-03-29T16:51:40.999Z</time></trkpt><trkpt lat="44.39493865454223" lon="9.002721527766791"><ele>57.0</ele><time>2026-03-29T16:51:41.999Z</time></trkpt><trkpt lat="44.39494705779391" lon="9.00258638677127"><ele>57.0</ele><time>2026-03-29T16:51:42.999Z</time></trkpt><trkpt lat="44.394953208667516" lon="9.002442463463188"><ele>57.0</ele><time>2026-03-29T16:51:43.999Z</time></trkpt><trkpt lat="44.394955170419216" lon="9.002296461690792"><ele>57.0</ele><time>2026-03-29T16:51:44.999Z</time></trkpt><trkpt lat="44.39494067783912" lon="9.002180923227595"><ele>57.0</ele><time>2026-03-29T16:51:45.999Z</time></trkpt><trkpt lat="44.39492751808405" lon="9.002058018944206"><ele>56.333333333333336</ele><time>2026-03-29T16:51:46.999Z</time></trkpt><trkpt lat="44.39489467249841" lon="9.001944664905306"><ele>55.66666666666667</ele><time>2026-03-29T16:51:47.999Z</time></trkpt><trkpt lat="44.394851957301896" lon="9.001823755437403"><ele>55.0</ele><time>2026-03-29T16:51:48.999Z</time></trkpt><trkpt lat="44.394801156675115" lon="9.001707138097068"><ele>54.333333333333336</ele><time>2026-03-29T16:51:49.999Z</time></trkpt><trkpt lat="44.3947546089978" lon="9.001608668290999"><ele>53.66666666666667</ele><time>2026-03-29T16:51:50.999Z</time></trkpt><trkpt lat="44.39470905109363" lon="9.001516916915978"><ele>53.0</ele><time>2026-03-29T16:51:51.999Z</time></trkpt><trkpt lat="44.39465603547944" lon="9.001434152873452"><ele>52.16666666666667</ele><time>2026-03-29T16:51:52.999Z</time></trkpt><trkpt lat="44.39461667094529" lon="9.001357417991418"><ele>51.333333333333336</ele><time>2026-03-29T16:51:53.999Z</time></trkpt><trkpt lat="44.394560737639445" lon="9.001226751007215"><ele>50.5</ele><time>2026-03-29T16:51:55.999Z</time></trkpt><trkpt lat="44.39451871449807" lon="9.001134823329243"><ele>49.66666666666667</ele><time>2026-03-29T16:51:57.999Z</time></trkpt><trkpt lat="44.39446919351469" lon="9.001024885377053"><ele>48.833333333333336</ele><time>2026-03-29T16:51:59.999Z</time></trkpt><trkpt lat="44.394420382951516" lon="9.000916690244726"><ele>48.0</ele><time>2026-03-29T16:52:02.999Z</time></trkpt><trkpt lat="44.39439436741745" lon="9.000818003935384"><ele>48.0</ele><time>2026-03-29T16:52:19Z</time></trkpt><trkpt lat="44.394329214502164" lon="9.000664824759781"><ele>48.0</ele><time>2026-03-29T16:52:21Z</time></trkpt><trkpt lat="44.394300037007426" lon="9.000582603642851"><ele>48.0</ele><time>2026-03-29T16:52:22Z</time></trkpt><trkpt lat="44.394273684599284" lon="9.000480957210094"><ele>48.0</ele><time>2026-03-29T16:52:23Z</time></trkpt><trkpt lat="44.39424662678163" lon="9.000359177854383"><ele>48.0</ele><time>2026-03-29T16:52:24Z</time></trkpt><trkpt lat="44.3942183177719" lon="9.000218007752935"><ele>48.0</ele><time>2026-03-29T16:52:25Z</time></trkpt><trkpt lat="44.39419682379685" lon="9.000082991833917"><ele>48.0</ele><time>2026-03-29T16:52:26Z</time></trkpt><trkpt lat="44.39418399012484" lon="8.999937723580219"><ele>48.0</ele><time>2026-03-29T16:52:27Z</time></trkpt><trkpt lat="44.394177240519554" lon="8.99980537439333"><ele>48.0</ele><time>2026-03-29T16:52:28Z</time></trkpt><trkpt lat="44.39418013773246" lon="8.999667484402616"><ele>48.0</ele><time>2026-03-29T16:52:29Z</time></trkpt><trkpt lat="44.39419024026107" lon="8.99951705083872"><ele>48.0</ele><time>2026-03-29T16:52:30Z</time></trkpt><trkpt lat="44.3942029977835" lon="8.999359799187463"><ele>48.0</ele><time>2026-03-29T16:52:31Z</time></trkpt><trkpt lat="44.39421856280769" lon="8.999195032390311"><ele>48.0</ele><time>2026-03-29T16:52:32Z</time></trkpt><trkpt lat="44.39423712556906" lon="8.99903923144855"><ele>48.0</ele><time>2026-03-29T16:52:33Z</time></trkpt><trkpt lat="44.39425775125409" lon="8.998878060519813"><ele>46.0</ele><time>2026-03-29T16:52:34Z</time></trkpt><trkpt lat="44.394279760335124" lon="8.998710087520971"><ele>44.0</ele><time>2026-03-29T16:52:35Z</time></trkpt><trkpt lat="44.39430481106036" lon="8.998532926039612"><ele>42.0</ele><time>2026-03-29T16:52:36Z</time></trkpt><trkpt lat="44.39433167689891" lon="8.998344285774236"><ele>40.0</ele><time>2026-03-29T16:52:37Z</time></trkpt><trkpt lat="44.394359697977094" lon="8.998159771053599"><ele>39.5</ele><time>2026-03-29T16:52:38Z</time></trkpt><trkpt lat="44.394386928079314" lon="8.997989483582021"><ele>39.0</ele><time>2026-03-29T16:52:39Z</time></trkpt><trkpt lat="44.394412578754924" lon="8.997817748813"><ele>38.5</ele><time>2026-03-29T16:52:40Z</time></trkpt><trkpt lat="44.39443931316931" lon="8.997645800309666"><ele>38.0</ele><time>2026-03-29T16:52:41Z</time></trkpt><trkpt lat="44.39446365641411" lon="8.997469572563203"><ele>39.5</ele><time>2026-03-29T16:52:42Z</time></trkpt><trkpt lat="44.394488241395166" lon="8.997289379695477"><ele>41.0</ele><time>2026-03-29T16:52:43Z</time></trkpt><trkpt lat="44.394513891736864" lon="8.99712381500065"><ele>42.5</ele><time>2026-03-29T16:52:44Z</time></trkpt><trkpt lat="44.39453618979183" lon="8.996971954040292"><ele>44.0</ele><time>2026-03-29T16:52:45Z</time></trkpt><trkpt lat="44.394556952959746" lon="8.996831837760158"><ele>44.0</ele><time>2026-03-29T16:52:46Z</time></trkpt><trkpt lat="44.39458453488977" lon="8.996689833855266"><ele>44.0</ele><time>2026-03-29T16:52:47Z</time></trkpt><trkpt lat="44.394613020241074" lon="8.996550223992545"><ele>44.0</ele><time>2026-03-29T16:52:48Z</time></trkpt><trkpt lat="44.39464142656976" lon="8.996424118515895"><ele>44.0</ele><time>2026-03-29T16:52:49Z</time></trkpt><trkpt lat="44.3946741914957" lon="8.996291686207881"><ele>44.0</ele><time>2026-03-29T16:52:50Z</time></trkpt><trkpt lat="44.39470631165142" lon="8.99614660093435"><ele>46.75</ele><time>2026-03-29T16:52:51Z</time></trkpt><trkpt lat="44.39473524215249" lon="8.99598660774948"><ele>49.5</ele><time>2026-03-29T16:52:52Z</time></trkpt><trkpt lat="44.394760560604375" lon="8.995815308657304"><ele>52.25</ele><time>2026-03-29T16:52:53Z</time></trkpt><trkpt lat="44.39478730197337" lon="8.995629504168424"><ele>55.0</ele><time>2026-03-29T16:52:54Z</time></trkpt><trkpt lat="44.39481926799602" lon="8.995425043389625"><ele>55.0</ele><time>2026-03-29T16:52:55Z</time></trkpt><trkpt lat="44.39484976461798" lon="8.995227065074392"><ele>55.0</ele><time>2026-03-29T16:52:56Z</time></trkpt><trkpt lat="44.39487644285746" lon="8.995062165323288"><ele>55.0</ele><time>2026-03-29T16:52:57Z</time></trkpt><trkpt lat="44.39489875424987" lon="8.994917810017531"><ele>55.0</ele><time>2026-03-29T16:52:58Z</time></trkpt><trkpt lat="44.394918528662515" lon="8.99479032338899"><ele>55.0</ele><time>2026-03-29T16:52:59Z</time></trkpt><trkpt lat="44.39494021183499" lon="8.994658281816177"><ele>55.0</ele><time>2026-03-29T16:53:00Z</time></trkpt><trkpt lat="44.39498102842576" lon="8.994516623188664"><ele>55.0</ele><time>2026-03-29T16:53:01Z</time></trkpt><trkpt lat="44.39501650067356" lon="8.994364195926776"><ele>55.0</ele><time>2026-03-29T16:53:02Z</time></trkpt><trkpt lat="44.39507587611893" lon="8.99421561589881"><ele>55.0</ele><time>2026-03-29T16:53:03Z</time></trkpt><trkpt lat="44.39514328360875" lon="8.994092523913153"><ele>54.33333333333333</ele><time>2026-03-29T16:53:04Z</time></trkpt><trkpt lat="44.39520627811174" lon="8.993999443371479"><ele>53.666666666666664</ele><time>2026-03-29T16:53:05Z</time></trkpt><trkpt lat="44.39526711758294" lon="8.993930624981543"><ele>53.0</ele><time>2026-03-29T16:53:06Z</time></trkpt><trkpt lat="44.3953217399613" lon="8.993881320357996"><ele>52.33333333333333</ele><time>2026-03-29T16:53:07Z</time></trkpt><trkpt lat="44.39541080543671" lon="8.993822382207194"><ele>51.666666666666664</ele><time>2026-03-29T16:53:09Z</time></trkpt><trkpt lat="44.39544055905918" lon="8.993714836692904"><ele>51.0</ele><time>2026-03-29T16:53:10.999Z</time></trkpt><trkpt lat="44.395416844652836" lon="8.993603391211389"><ele>51.0</ele><time>2026-03-29T16:53:12.999Z</time></trkpt><trkpt lat="44.39537092151176" lon="8.993519061939764"><ele>51.0</ele><time>2026-03-29T16:53:14.999Z</time></trkpt><trkpt lat="44.395315406453015" lon="8.993456242789314"><ele>51.0</ele><time>2026-03-29T16:53:20.999Z</time></trkpt><trkpt lat="44.39521264582715" lon="8.993516117622809"><ele>51.0</ele><time>2026-03-29T16:53:24.999Z</time></trkpt><trkpt lat="44.395156435793865" lon="8.993598932178227"><ele>51.0</ele><time>2026-03-29T16:53:25.999Z</time></trkpt><trkpt lat="44.39509549694175" lon="8.993678923281971"><ele>51.0</ele><time>2026-03-29T16:53:26.999Z</time></trkpt><trkpt lat="44.39502810283674" lon="8.993765814728292"><ele>51.0</ele><time>2026-03-29T16:53:27.999Z</time></trkpt><trkpt lat="44.394962628312115" lon="8.993859098070988"><ele>51.0</ele><time>2026-03-29T16:53:28.999Z</time></trkpt><trkpt lat="44.39491189020094" lon="8.993942424841157"><ele>51.0</ele><time>2026-03-29T16:53:29.999Z</time></trkpt><trkpt lat="44.39487126378996" lon="8.9940230372374"><ele>51.0</ele><time>2026-03-29T16:53:30.999Z</time></trkpt><trkpt lat="44.39482919997513" lon="8.99410995871891"><ele>51.0</ele><time>2026-03-29T16:53:31.999Z</time></trkpt><trkpt lat="44.39479890380493" lon="8.994213700840124"><ele>51.0</ele><time>2026-03-29T16:53:32.999Z</time></trkpt><trkpt lat="44.394764262856874" lon="8.994315411113666"><ele>51.5</ele><time>2026-03-29T16:53:33.999Z</time></trkpt><trkpt lat="44.39473464197168" lon="8.99441024346393"><ele>52.0</ele><time>2026-03-29T16:53:34.999Z</time></trkpt><trkpt lat="44.39471126839427" lon="8.994501607421574"><ele>52.5</ele><time>2026-03-29T16:53:35.999Z</time></trkpt><trkpt lat="44.394689139647156" lon="8.99460649541152"><ele>53.0</ele><time>2026-03-29T16:53:36.999Z</time></trkpt><trkpt lat="44.394669346303225" lon="8.994721041487805"><ele>53.5</ele><time>2026-03-29T16:53:37.999Z</time></trkpt><trkpt lat="44.39465411044855" lon="8.994842028657953"><ele>54.0</ele><time>2026-03-29T16:53:38.999Z</time></trkpt><trkpt lat="44.39463768901231" lon="8.99495958811822"><ele>53.333333333333336</ele><time>2026-03-29T16:53:39.999Z</time></trkpt><trkpt lat="44.39462388833657" lon="8.995067092838289"><ele>52.66666666666667</ele><time>2026-03-29T16:53:40.999Z</time></trkpt><trkpt lat="44.394612566031974" lon="8.995167028194029"><ele>52.0</ele><time>2026-03-29T16:53:41.999Z</time></trkpt><trkpt lat="44.39460247085468" lon="8.995257450037188"><ele>51.333333333333336</ele><time>2026-03-29T16:53:42.999Z</time></trkpt><trkpt lat="44.394576672674845" lon="8.99541084957731"><ele>50.66666666666667</ele><time>2026-03-29T16:53:44.999Z</time></trkpt><trkpt lat="44.39455525706116" lon="8.9955771222866"><ele>50.0</ele><time>2026-03-29T16:53:46.999Z</time></trkpt><trkpt lat="44.394544462029046" lon="8.995676404751789"><ele>50.00000000000001</ele><time>2026-03-29T16:53:47.999Z</time></trkpt><trkpt lat="44.39452346717212" lon="8.995775236522281"><ele>50.0</ele><time>2026-03-29T16:53:48.999Z</time></trkpt><trkpt lat="44.39452622141315" lon="8.995883346763126"><ele>50.0</ele><time>2026-03-29T16:53:49.999Z</time></trkpt><trkpt lat="44.39451271137967" lon="8.99600664761261"><ele>50.0</ele><time>2026-03-29T16:53:50.999Z</time></trkpt><trkpt lat="44.39447822835961" lon="8.996134660855827"><ele>50.00000000000001</ele><time>2026-03-29T16:53:51.999Z</time></trkpt><trkpt lat="44.39445713886271" lon="8.99627170065368"><ele>50.0</ele><time>2026-03-29T16:53:52.999Z</time></trkpt><trkpt lat="44.394433028379204" lon="8.996428139983669"><ele>49.0</ele><time>2026-03-29T16:53:53.999Z</time></trkpt><trkpt lat="44.3944067872415" lon="8.99657433329716"><ele>48.0</ele><time>2026-03-29T16:53:54.999Z</time></trkpt><trkpt lat="44.3944009569162" lon="8.996707151729593"><ele>47.0</ele><time>2026-03-29T16:53:55.999Z</time></trkpt><trkpt lat="44.39440505321708" lon="8.996857952384788"><ele>46.0</ele><time>2026-03-29T16:53:56.999Z</time></trkpt><trkpt lat="44.3943952092854" lon="8.99702854400086"><ele>45.0</ele><time>2026-03-29T16:53:57.999Z</time></trkpt><trkpt lat="44.3943826747241" lon="8.997199017335273"><ele>44.75</ele><time>2026-03-29T16:53:58.999Z</time></trkpt><trkpt lat="44.39436432662783" lon="8.997384844175524"><ele>44.5</ele><time>2026-03-29T16:53:59.999Z</time></trkpt><trkpt lat="44.39434395456227" lon="8.997582818010619"><ele>44.25</ele><time>2026-03-29T16:54:00.999Z</time></trkpt><trkpt lat="44.394317745113284" lon="8.997769852622588"><ele>44.0</ele><time>2026-03-29T16:54:01.999Z</time></trkpt><trkpt lat="44.39429256928077" lon="8.997941333459545"><ele>43.0</ele><time>2026-03-29T16:54:02.999Z</time></trkpt><trkpt lat="44.39426728802874" lon="8.998127671669224"><ele>42.0</ele><time>2026-03-29T16:54:03.999Z</time></trkpt><trkpt lat="44.39423693496819" lon="8.998328415262751"><ele>41.0</ele><time>2026-03-29T16:54:04.999Z</time></trkpt><trkpt lat="44.39420904228526" lon="8.998517458654376"><ele>40.0</ele><time>2026-03-29T16:54:05.999Z</time></trkpt><trkpt lat="44.39417837970304" lon="8.998700493168663"><ele>40.0</ele><time>2026-03-29T16:54:06.999Z</time></trkpt><trkpt lat="44.394148959405925" lon="8.998891405608754"><ele>40.0</ele><time>2026-03-29T16:54:07.999Z</time></trkpt><trkpt lat="44.394117782679466" lon="8.999084923337614"><ele>40.0</ele><time>2026-03-29T16:54:08.999Z</time></trkpt><trkpt lat="44.394090497908806" lon="8.999267840564972"><ele>40.0</ele><time>2026-03-29T16:54:09.999Z</time></trkpt><trkpt lat="44.39407350093264" lon="8.999436483942118"><ele>42.0</ele><time>2026-03-29T16:54:10.999Z</time></trkpt><trkpt lat="44.39406583270285" lon="8.999609207019992"><ele>44.0</ele><time>2026-03-29T16:54:11.999Z</time></trkpt><trkpt lat="44.394071404401394" lon="8.99979931672322"><ele>46.0</ele><time>2026-03-29T16:54:13Z</time></trkpt><trkpt lat="44.39408679716012" lon="8.999985122788576"><ele>48.0</ele><time>2026-03-29T16:54:14Z</time></trkpt><trkpt lat="44.394100826751085" lon="9.000152573720111"><ele>48.0</ele><time>2026-03-29T16:54:15Z</time></trkpt><trkpt lat="44.394127628216225" lon="9.000283812283508"><ele>48.0</ele><time>2026-03-29T16:54:16Z</time></trkpt><trkpt lat="44.394155916122614" lon="9.000400882494509"><ele>48.0</ele><time>2026-03-29T16:54:17Z</time></trkpt><trkpt lat="44.39418196781005" lon="9.000501707929404"><ele>48.0</ele><time>2026-03-29T16:54:18Z</time></trkpt><trkpt lat="44.3942063159051" lon="9.000589646484183"><ele>48.0</ele><time>2026-03-29T16:54:19Z</time></trkpt><trkpt lat="44.394253446735405" lon="9.000709642845965"><ele>48.0</ele><time>2026-03-29T16:54:21Z</time></trkpt><trkpt lat="44.39427822393394" lon="9.000796336161669"><ele>47.75</ele><time>2026-03-29T16:54:24Z</time></trkpt><trkpt lat="44.394327511560434" lon="9.000962851001551"><ele>47.5</ele><time>2026-03-29T16:54:45Z</time></trkpt><trkpt lat="44.394378008394646" lon="9.001075514108607"><ele>47.25</ele><time>2026-03-29T16:54:46Z</time></trkpt><trkpt lat="44.39444181188489" lon="9.001208272279477"><ele>47.0</ele><time>2026-03-29T16:54:47Z</time></trkpt><trkpt lat="44.39450794672628" lon="9.001348257488166"><ele>47.0</ele><time>2026-03-29T16:54:48Z</time></trkpt><trkpt lat="44.39458547012071" lon="9.001506978343562"><ele>47.0</ele><time>2026-03-29T16:54:49Z</time></trkpt><trkpt lat="44.394668182977995" lon="9.001680077498905"><ele>47.0</ele><time>2026-03-29T16:54:50Z</time></trkpt><trkpt lat="44.394734453002485" lon="9.001848859055489"><ele>47.0</ele><time>2026-03-29T16:54:51Z</time></trkpt><trkpt lat="44.394781830231786" lon="9.002018918172228"><ele>48.25</ele><time>2026-03-29T16:54:52Z</time></trkpt><trkpt lat="44.39481036143604" lon="9.002204544892637"><ele>49.5</ele><time>2026-03-29T16:54:53Z</time></trkpt><trkpt lat="44.394820625738255" lon="9.002402644737536"><ele>50.75</ele><time>2026-03-29T16:54:54Z</time></trkpt><trkpt lat="44.39479801786806" lon="9.002591239792732"><ele>52.0</ele><time>2026-03-29T16:54:55Z</time></trkpt><trkpt lat="44.394765696797364" lon="9.002777488868"><ele>53.25</ele><time>2026-03-29T16:54:56Z</time></trkpt><trkpt lat="44.39475167814242" lon="9.002992941567593"><ele>54.5</ele><time>2026-03-29T16:54:57Z</time></trkpt><trkpt lat="44.39474950458561" lon="9.003201825648276"><ele>55.75</ele><time>2026-03-29T16:54:58Z</time></trkpt><trkpt lat="44.39474742169873" lon="9.003405050744101"><ele>57.0</ele><time>2026-03-29T16:54:59Z</time></trkpt><trkpt lat="44.39472978534441" lon="9.003602396363362"><ele>57.0</ele><time>2026-03-29T16:55:00Z</time></trkpt><trkpt lat="44.39470451261698" lon="9.003803575058248"><ele>57.0</ele><time>2026-03-29T16:55:01Z</time></trkpt><trkpt lat="44.39467051447669" lon="9.004008129705255"><ele>57.0</ele><time>2026-03-29T16:55:02Z</time></trkpt><trkpt lat="44.39462362108544" lon="9.004206763796544"><ele>57.0</ele><time>2026-03-29T16:55:03Z</time></trkpt><trkpt lat="44.39457806463066" lon="9.004393350713423"><ele>54.75</ele><time>2026-03-29T16:55:04Z</time></trkpt><trkpt lat="44.39452625346537" lon="9.00457182113511"><ele>52.5</ele><time>2026-03-29T16:55:05Z</time></trkpt><trkpt lat="44.39446787306021" lon="9.004756744439991"><ele>50.25</ele><time>2026-03-29T16:55:06Z</time></trkpt><trkpt lat="44.394405226391825" lon="9.00493314361391"><ele>48.0</ele><time>2026-03-29T16:55:07Z</time></trkpt><trkpt lat="44.394358824753056" lon="9.005104909490033"><ele>48.0</ele><time>2026-03-29T16:55:08Z</time></trkpt><trkpt lat="44.39429327802021" lon="9.005260964789011"><ele>48.0</ele><time>2026-03-29T16:55:09Z</time></trkpt><trkpt lat="44.39420110572747" lon="9.005396784742548"><ele>48.0</ele><time>2026-03-29T16:55:10Z</time></trkpt><trkpt lat="44.39412060912824" lon="9.005541371533432"><ele>48.0</ele><time>2026-03-29T16:55:11Z</time></trkpt><trkpt lat="44.39403574042712" lon="9.00568443809708"><ele>48.0</ele><time>2026-03-29T16:55:12Z</time></trkpt><trkpt lat="44.39394860961862" lon="9.00582593927606"><ele>48.0</ele><time>2026-03-29T16:55:13Z</time></trkpt><trkpt lat="44.3938649022375" lon="9.005971510408818"><ele>48.0</ele><time>2026-03-29T16:55:14Z</time></trkpt><trkpt lat="44.393785748935144" lon="9.006123256943022"><ele>48.0</ele><time>2026-03-29T16:55:15Z</time></trkpt><trkpt lat="44.39370518938822" lon="9.006270907545352"><ele>50.0</ele><time>2026-03-29T16:55:16Z</time></trkpt><trkpt lat="44.39362434993295" lon="9.006417014265537"><ele>52.0</ele><time>2026-03-29T16:55:17Z</time></trkpt><trkpt lat="44.393544140133564" lon="9.006569447871888"><ele>54.0</ele><time>2026-03-29T16:55:18Z</time></trkpt><trkpt lat="44.3934625082504" lon="9.006713095794364"><ele>56.0</ele><time>2026-03-29T16:55:19Z</time></trkpt><trkpt lat="44.39339774218921" lon="9.006894178832066"><ele>58.75</ele><time>2026-03-29T16:55:19.999Z</time></trkpt><trkpt lat="44.39331086884174" lon="9.007052166698408"><ele>61.5</ele><time>2026-03-29T16:55:20.999Z</time></trkpt><trkpt lat="44.393228154857376" lon="9.00720347153095"><ele>64.25</ele><time>2026-03-29T16:55:21.999Z</time></trkpt><trkpt lat="44.39315006322642" lon="9.007346690609767"><ele>67.0</ele><time>2026-03-29T16:55:22.999Z</time></trkpt><trkpt lat="44.39307962880216" lon="9.007478364858793"><ele>64.2</ele><time>2026-03-29T16:55:23.999Z</time></trkpt><trkpt lat="44.39300036156942" lon="9.007588090153336"><ele>61.400000000000006</ele><time>2026-03-29T16:55:24.999Z</time></trkpt><trkpt lat="44.392950804455836" lon="9.007719196839023"><ele>58.599999999999994</ele><time>2026-03-29T16:55:25.999Z</time></trkpt><trkpt lat="44.3928926756139" lon="9.00782782617252"><ele>55.8</ele><time>2026-03-29T16:55:26.999Z</time></trkpt><trkpt lat="44.3928188849808" lon="9.007937545304765"><ele>53.0</ele><time>2026-03-29T16:55:27.999Z</time></trkpt><trkpt lat="44.392747671955895" lon="9.008064010782984"><ele>53.0</ele><time>2026-03-29T16:55:28.999Z</time></trkpt><trkpt lat="44.3926867655167" lon="9.008163532765513"><ele>53.0</ele><time>2026-03-29T16:55:29.999Z</time></trkpt><trkpt lat="44.392648297904984" lon="9.008254081577794"><ele>53.0</ele><time>2026-03-29T16:55:30.999Z</time></trkpt><trkpt lat="44.39251675643308" lon="9.00828325305447"><ele>53.0</ele><time>2026-03-29T16:55:32.999Z</time></trkpt><trkpt lat="44.392444675570005" lon="9.008321263416423"><ele>53.0</ele><time>2026-03-29T16:55:34.999Z</time></trkpt><trkpt lat="44.392386587563685" lon="9.008377973617344"><ele>53.66666666666667</ele><time>2026-03-29T16:55:37.999Z</time></trkpt><trkpt lat="44.39236257032737" lon="9.008483567946216"><ele>54.333333333333336</ele><time>2026-03-29T16:55:40.999Z</time></trkpt><trkpt lat="44.39228611769409" lon="9.008470358818641"><ele>55.0</ele><time>2026-03-29T16:55:46.999Z</time></trkpt><trkpt lat="44.39222058779588" lon="9.008487567381245"><ele>55.66666666666667</ele><time>2026-03-29T17:11:15Z</time></trkpt><trkpt lat="44.39231255981417" lon="9.008548544360897"><ele>56.333333333333336</ele><time>2026-03-29T17:30:15Z</time></trkpt><trkpt lat="44.39230930974648" lon="9.008661875409073"><ele>57.0</ele><time>2026-03-29T17:30:18Z</time></trkpt><trkpt lat="44.39230928062632" lon="9.008753996390483"><ele>57.0</ele><time>2026-03-29T17:30:20Z</time></trkpt><trkpt lat="44.39225307943803" lon="9.008872503386863"><ele>56.99999999999999</ele><time>2026-03-29T17:30:22Z</time></trkpt><trkpt lat="44.392220422300625" lon="9.008951482946372"><ele>57.0</ele><time>2026-03-29T17:30:23Z</time></trkpt><trkpt lat="44.39219215936461" lon="9.009032596792899"><ele>57.0</ele><time>2026-03-29T17:30:24Z</time></trkpt><trkpt lat="44.392154751409564" lon="9.00911292712055"><ele>56.99999999999999</ele><time>2026-03-29T17:30:25Z</time></trkpt><trkpt lat="44.39211073785979" lon="9.00920176894488"><ele>57.0</ele><time>2026-03-29T17:30:26Z</time></trkpt><trkpt lat="44.39207255068917" lon="9.0092828649357"><ele>57.0</ele><time>2026-03-29T17:30:27Z</time></trkpt><trkpt lat="44.39203407666594" lon="9.00936716433918"><ele>55.666666666666664</ele><time>2026-03-29T17:30:28Z</time></trkpt><trkpt lat="44.39198634190594" lon="9.00946054266067"><ele>54.33333333333333</ele><time>2026-03-29T17:30:29Z</time></trkpt><trkpt lat="44.39195491151523" lon="9.009580250641232"><ele>53.0</ele><time>2026-03-29T17:30:30Z</time></trkpt><trkpt lat="44.39190110640625" lon="9.009688695671807"><ele>51.666666666666664</ele><time>2026-03-29T17:30:31Z</time></trkpt><trkpt lat="44.391850878239566" lon="9.009789313737011"><ele>50.33333333333333</ele><time>2026-03-29T17:30:32Z</time></trkpt><trkpt lat="44.39180185643303" lon="9.009888222459752"><ele>49.0</ele><time>2026-03-29T17:30:33Z</time></trkpt><trkpt lat="44.39174765482775" lon="9.009997582578807"><ele>48.0</ele><time>2026-03-29T17:30:34Z</time></trkpt><trkpt lat="44.391684217961135" lon="9.010123018756644"><ele>47.0</ele><time>2026-03-29T17:30:35Z</time></trkpt><trkpt lat="44.39162369634036" lon="9.010241277178773"><ele>46.0</ele><time>2026-03-29T17:30:36Z</time></trkpt><trkpt lat="44.39156707858872" lon="9.010346404587983"><ele>45.0</ele><time>2026-03-29T17:30:37Z</time></trkpt><trkpt lat="44.39149083212357" lon="9.010433049499062"><ele>44.0</ele><time>2026-03-29T17:30:38Z</time></trkpt><trkpt lat="44.39142326996812" lon="9.010532330434843"><ele>44.0</ele><time>2026-03-29T17:30:39Z</time></trkpt><trkpt lat="44.39135010872415" lon="9.010635053623254"><ele>44.0</ele><time>2026-03-29T17:30:40Z</time></trkpt><trkpt lat="44.391270777885445" lon="9.010714259610348"><ele>44.0</ele><time>2026-03-29T17:30:41Z</time></trkpt><trkpt lat="44.39119760585723" lon="9.01078940707076"><ele>44.0</ele><time>2026-03-29T17:30:42Z</time></trkpt><trkpt lat="44.39112369506787" lon="9.010874083999491"><ele>44.0</ele><time>2026-03-29T17:30:43Z</time></trkpt><trkpt lat="44.391042353682465" lon="9.010961903016925"><ele>45.2</ele><time>2026-03-29T17:30:44Z</time></trkpt><trkpt lat="44.3909483502065" lon="9.011057636475938"><ele>46.400000000000006</ele><time>2026-03-29T17:30:45Z</time></trkpt><trkpt lat="44.390874090222404" lon="9.01114457708038"><ele>47.6</ele><time>2026-03-29T17:30:46Z</time></trkpt><trkpt lat="44.39080806703505" lon="9.011224494626811"><ele>48.8</ele><time>2026-03-29T17:30:47Z</time></trkpt><trkpt lat="44.390742902438646" lon="9.011302881417357"><ele>50.0</ele><time>2026-03-29T17:30:48Z</time></trkpt><trkpt lat="44.39068228022055" lon="9.011346919407403"><ele>50.0</ele><time>2026-03-29T17:30:49Z</time></trkpt><trkpt lat="44.39063293929668" lon="9.011407015525567"><ele>50.0</ele><time>2026-03-29T17:30:53Z</time></trkpt><trkpt lat="44.3905190402606" lon="9.011513263013315"><ele>50.0</ele><time>2026-03-29T17:31:22.999Z</time></trkpt><trkpt lat="44.39040080607752" lon="9.011494083644624"><ele>50.0</ele><time>2026-03-29T17:31:24.999Z</time></trkpt><trkpt lat="44.39028665465365" lon="9.011500990052971"><ele>50.0</ele><time>2026-03-29T17:31:26.999Z</time></trkpt><trkpt lat="44.390229029730556" lon="9.011642293244863"><ele>49.333333333333336</ele><time>2026-03-29T17:31:28.999Z</time></trkpt><trkpt lat="44.390171421423254" lon="9.011768223092744"><ele>48.66666666666667</ele><time>2026-03-29T17:31:30.999Z</time></trkpt><trkpt lat="44.39013222272415" lon="9.01184551393316"><ele>48.0</ele><time>2026-03-29T17:31:31.999Z</time></trkpt><trkpt lat="44.39007992924563" lon="9.011921813960903"><ele>47.333333333333336</ele><time>2026-03-29T17:31:32.999Z</time></trkpt><trkpt lat="44.390020569047955" lon="9.01202833666373"><ele>46.66666666666667</ele><time>2026-03-29T17:31:34.999Z</time></trkpt><trkpt lat="44.38998763283804" lon="9.012140601779715"><ele>46.0</ele><time>2026-03-29T17:31:37.999Z</time></trkpt><trkpt lat="44.390058324231305" lon="9.012258157526626"><ele>46.0</ele><time>2026-03-29T17:31:39.999Z</time></trkpt><trkpt lat="44.390144964674896" lon="9.012364588744093"><ele>46.0</ele><time>2026-03-29T17:31:41.999Z</time></trkpt><trkpt lat="44.39020838355703" lon="9.01242289775636"><ele>46.0</ele><time>2026-03-29T17:31:43.999Z</time></trkpt><trkpt lat="44.39044025039651" lon="9.012231914477812"><ele>48.4</ele><time>2026-03-29T17:31:45.999Z</time></trkpt><trkpt lat="44.39052035561608" lon="9.012088819815633"><ele>50.8</ele><time>2026-03-29T17:31:46.999Z</time></trkpt><trkpt lat="44.39057532173877" lon="9.011970375719372"><ele>53.199999999999996</ele><time>2026-03-29T17:31:47.999Z</time></trkpt><trkpt lat="44.39062471711116" lon="9.011862636659624"><ele>55.599999999999994</ele><time>2026-03-29T17:31:48.999Z</time></trkpt><trkpt lat="44.39064435362154" lon="9.011766471997033"><ele>58.0</ele><time>2026-03-29T17:31:49.999Z</time></trkpt><trkpt lat="44.39064167737495" lon="9.011668247926357"><ele>56.666666666666664</ele><time>2026-03-29T17:31:51.999Z</time></trkpt><trkpt lat="44.390639516304304" lon="9.011575594667692"><ele>55.33333333333333</ele><time>2026-03-29T17:31:52.999Z</time></trkpt><trkpt lat="44.39069540808878" lon="9.011512320897513"><ele>54.0</ele><time>2026-03-29T17:31:54.999Z</time></trkpt><trkpt lat="44.390760132926815" lon="9.011443235544238"><ele>52.66666666666667</ele><time>2026-03-29T17:31:55.999Z</time></trkpt><trkpt lat="44.39084285061539" lon="9.011354422148585"><ele>51.333333333333336</ele><time>2026-03-29T17:31:56.999Z</time></trkpt><trkpt lat="44.39093339091318" lon="9.011274978912075"><ele>50.0</ele><time>2026-03-29T17:31:57.999Z</time></trkpt><trkpt lat="44.39101821553905" lon="9.011188154531713"><ele>50.0</ele><time>2026-03-29T17:31:58.999Z</time></trkpt><trkpt lat="44.391106249423046" lon="9.011092224264113"><ele>50.0</ele><time>2026-03-29T17:31:59.999Z</time></trkpt><trkpt lat="44.39119918612054" lon="9.01098470043667"><ele>50.0</ele><time>2026-03-29T17:32:01Z</time></trkpt><trkpt lat="44.39128363678141" lon="9.01087656649351"><ele>50.0</ele><time>2026-03-29T17:32:02Z</time></trkpt><trkpt lat="44.39138247585185" lon="9.010773644584818"><ele>48.5</ele><time>2026-03-29T17:32:03Z</time></trkpt><trkpt lat="44.39147979629949" lon="9.010665667535296"><ele>47.0</ele><time>2026-03-29T17:32:04Z</time></trkpt><trkpt lat="44.39157626644921" lon="9.010540996607554"><ele>45.5</ele><time>2026-03-29T17:32:05Z</time></trkpt><trkpt lat="44.39165430121521" lon="9.010418861919968"><ele>44.0</ele><time>2026-03-29T17:32:06Z</time></trkpt><trkpt lat="44.39172365962188" lon="9.01029937353605"><ele>44.0</ele><time>2026-03-29T17:32:07Z</time></trkpt><trkpt lat="44.39178653481101" lon="9.010182117828965"><ele>44.0</ele><time>2026-03-29T17:32:08Z</time></trkpt><trkpt lat="44.39184539720844" lon="9.010068929557983"><ele>44.0</ele><time>2026-03-29T17:32:09Z</time></trkpt><trkpt lat="44.39190353597929" lon="9.009955811133965"><ele>44.0</ele><time>2026-03-29T17:32:10Z</time></trkpt><trkpt lat="44.39196494838453" lon="9.00983413393406"><ele>44.0</ele><time>2026-03-29T17:32:11Z</time></trkpt><trkpt lat="44.39202210616723" lon="9.009706793788595"><ele>44.83333333333333</ele><time>2026-03-29T17:32:12Z</time></trkpt><trkpt lat="44.392083946587036" lon="9.009585623260794"><ele>45.666666666666664</ele><time>2026-03-29T17:32:13Z</time></trkpt><trkpt lat="44.39213753575232" lon="9.009481807505873"><ele>46.5</ele><time>2026-03-29T17:32:14Z</time></trkpt><trkpt lat="44.39218215815215" lon="9.009387207342495"><ele>47.33333333333333</ele><time>2026-03-29T17:32:15Z</time></trkpt><trkpt lat="44.39222387691078" lon="9.009304589955503"><ele>48.166666666666664</ele><time>2026-03-29T17:32:16Z</time></trkpt><trkpt lat="44.39226500458041" lon="9.009211051058383"><ele>49.0</ele><time>2026-03-29T17:32:17Z</time></trkpt><trkpt lat="44.39231509528773" lon="9.009120045721644"><ele>50.33333333333333</ele><time>2026-03-29T17:32:18Z</time></trkpt><trkpt lat="44.392365763667016" lon="9.009024948574549"><ele>51.666666666666664</ele><time>2026-03-29T17:32:19Z</time></trkpt><trkpt lat="44.39240734911944" lon="9.008932008398114"><ele>53.0</ele><time>2026-03-29T17:32:20Z</time></trkpt><trkpt lat="44.392451891433815" lon="9.00884988358861"><ele>54.33333333333333</ele><time>2026-03-29T17:32:21Z</time></trkpt><trkpt lat="44.39250135268515" lon="9.00875644752142"><ele>55.666666666666664</ele><time>2026-03-29T17:32:22Z</time></trkpt><trkpt lat="44.39255030066179" lon="9.008651150181018"><ele>57.0</ele><time>2026-03-29T17:32:23Z</time></trkpt><trkpt lat="44.3926111472941" lon="9.00854558612067"><ele>57.0</ele><time>2026-03-29T17:32:24Z</time></trkpt><trkpt lat="44.39266774707976" lon="9.008444574521581"><ele>57.0</ele><time>2026-03-29T17:32:25Z</time></trkpt><trkpt lat="44.3927240983712" lon="9.008346482493112"><ele>57.0</ele><time>2026-03-29T17:32:26Z</time></trkpt><trkpt lat="44.392782099176145" lon="9.00823994827681"><ele>57.0</ele><time>2026-03-29T17:32:27Z</time></trkpt><trkpt lat="44.39284589710592" lon="9.008130176201503"><ele>57.0</ele><time>2026-03-29T17:32:28Z</time></trkpt><trkpt lat="44.39291068914927" lon="9.00801144438174"><ele>56.0</ele><time>2026-03-29T17:32:29Z</time></trkpt><trkpt lat="44.39297162244428" lon="9.007894598481428"><ele>55.0</ele><time>2026-03-29T17:32:30Z</time></trkpt><trkpt lat="44.393042424951425" lon="9.007757686386364"><ele>54.0</ele><time>2026-03-29T17:32:31Z</time></trkpt><trkpt lat="44.39312604709322" lon="9.007600681398737"><ele>53.0</ele><time>2026-03-29T17:32:32Z</time></trkpt><trkpt lat="44.393202433309646" lon="9.007456456716277"><ele>56.5</ele><time>2026-03-29T17:32:33Z</time></trkpt><trkpt lat="44.39328172610909" lon="9.007311174679504"><ele>60.0</ele><time>2026-03-29T17:32:34Z</time></trkpt><trkpt lat="44.39336767120975" lon="9.007160240807401"><ele>63.5</ele><time>2026-03-29T17:32:35Z</time></trkpt><trkpt lat="44.39344259963758" lon="9.007022751183165"><ele>67.0</ele><time>2026-03-29T17:32:36Z</time></trkpt><trkpt lat="44.39350605799259" lon="9.00689040842081"><ele>67.0</ele><time>2026-03-29T17:32:37Z</time></trkpt><trkpt lat="44.393577157063575" lon="9.006759702625454"><ele>67.0</ele><time>2026-03-29T17:32:38Z</time></trkpt><trkpt lat="44.39365022725008" lon="9.00662896567535"><ele>67.0</ele><time>2026-03-29T17:32:39Z</time></trkpt><trkpt lat="44.393730526335155" lon="9.006491001195995"><ele>67.0</ele><time>2026-03-29T17:32:40Z</time></trkpt><trkpt lat="44.393799274900466" lon="9.006365084546946"><ele>65.25</ele><time>2026-03-29T17:32:41Z</time></trkpt><trkpt lat="44.39386847990533" lon="9.006238271018495"><ele>63.5</ele><time>2026-03-29T17:32:42Z</time></trkpt><trkpt lat="44.39395139398905" lon="9.006094444193291"><ele>61.75</ele><time>2026-03-29T17:32:43Z</time></trkpt><trkpt lat="44.39403083445867" lon="9.005959524245553"><ele>60.0</ele><time>2026-03-29T17:32:44Z</time></trkpt><trkpt lat="44.39410279380864" lon="9.005834923242853"><ele>57.6</ele><time>2026-03-29T17:32:45Z</time></trkpt><trkpt lat="44.39416809689878" lon="9.00572280266359"><ele>55.2</ele><time>2026-03-29T17:32:46Z</time></trkpt><trkpt lat="44.394225728789664" lon="9.00560795081108"><ele>52.8</ele><time>2026-03-29T17:32:47Z</time></trkpt><trkpt lat="44.39429471102012" lon="9.005488214492589"><ele>50.4</ele><time>2026-03-29T17:32:48Z</time></trkpt><trkpt lat="44.39435994959154" lon="9.005357506562966"><ele>48.0</ele><time>2026-03-29T17:32:49Z</time></trkpt><trkpt lat="44.39442339919741" lon="9.005209842591505"><ele>48.0</ele><time>2026-03-29T17:32:50Z</time></trkpt><trkpt lat="44.39448663645543" lon="9.005048562026138"><ele>48.0</ele><time>2026-03-29T17:32:51Z</time></trkpt><trkpt lat="44.394538350144074" lon="9.004894917420398"><ele>48.0</ele><time>2026-03-29T17:32:52Z</time></trkpt><trkpt lat="44.394584984617964" lon="9.004746482048706"><ele>48.0</ele><time>2026-03-29T17:32:53Z</time></trkpt><trkpt lat="44.394634606273904" lon="9.004594149311792"><ele>48.75</ele><time>2026-03-29T17:32:54Z</time></trkpt><trkpt lat="44.39468649164362" lon="9.0044316190079"><ele>49.5</ele><time>2026-03-29T17:32:55Z</time></trkpt><trkpt lat="44.39473296221462" lon="9.004254449751876"><ele>50.25</ele><time>2026-03-29T17:32:56Z</time></trkpt><trkpt lat="44.39476935143926" lon="9.004087747701348"><ele>51.0</ele><time>2026-03-29T17:32:57Z</time></trkpt><trkpt lat="44.39480593085174" lon="9.003929702388277"><ele>52.5</ele><time>2026-03-29T17:32:58Z</time></trkpt><trkpt lat="44.3948390287312" lon="9.00375928811655"><ele>54.0</ele><time>2026-03-29T17:32:59Z</time></trkpt><trkpt lat="44.394868742090146" lon="9.003571513350478"><ele>55.5</ele><time>2026-03-29T17:33:00Z</time></trkpt><trkpt lat="44.39488995614837" lon="9.003395998958466"><ele>57.0</ele><time>2026-03-29T17:33:01Z</time></trkpt><trkpt lat="44.39490685044524" lon="9.003232713450037"><ele>57.0</ele><time>2026-03-29T17:33:02Z</time></trkpt><trkpt lat="44.39492549201309" lon="9.0030553013575"><ele>57.0</ele><time>2026-03-29T17:33:03Z</time></trkpt><trkpt lat="44.394940204341836" lon="9.002879064775104"><ele>57.0</ele><time>2026-03-29T17:33:04Z</time></trkpt><trkpt lat="44.39495207059737" lon="9.002721611065946"><ele>57.0</ele><time>2026-03-29T17:33:05Z</time></trkpt><trkpt lat="44.39496063877383" lon="9.002573028566024"><ele>56.166666666666664</ele><time>2026-03-29T17:33:06Z</time></trkpt><trkpt lat="44.39496942590068" lon="9.002433625812227"><ele>55.33333333333333</ele><time>2026-03-29T17:33:07Z</time></trkpt><trkpt lat="44.39497370231012" lon="9.00231255607561"><ele>54.5</ele><time>2026-03-29T17:33:07.999Z</time></trkpt><trkpt lat="44.394967131231674" lon="9.002199143695417"><ele>53.666666666666664</ele><time>2026-03-29T17:33:08.999Z</time></trkpt><trkpt lat="44.39495151227082" lon="9.002080604183204"><ele>52.83333333333333</ele><time>2026-03-29T17:33:09.999Z</time></trkpt><trkpt lat="44.394915612175495" lon="9.001985275807773"><ele>52.0</ele><time>2026-03-29T17:33:10.999Z</time></trkpt><trkpt lat="44.39487441451151" lon="9.001883205280272"><ele>52.0</ele><time>2026-03-29T17:33:11.999Z</time></trkpt><trkpt lat="44.394816878885315" lon="9.001764440532106"><ele>52.0</ele><time>2026-03-29T17:33:12.999Z</time></trkpt><trkpt lat="44.39474991942289" lon="9.001656048983195"><ele>52.0</ele><time>2026-03-29T17:33:13.999Z</time></trkpt><trkpt lat="44.39468519702128" lon="9.001534857482651"><ele>52.0</ele><time>2026-03-29T17:33:14.999Z</time></trkpt><trkpt lat="44.394615111462" lon="9.001398804080578"><ele>52.0</ele><time>2026-03-29T17:33:15.999Z</time></trkpt><trkpt lat="44.39453732324179" lon="9.001253028489275"><ele>51.0</ele><time>2026-03-29T17:33:16.999Z</time></trkpt><trkpt lat="44.39446346916491" lon="9.001104449457282"><ele>50.0</ele><time>2026-03-29T17:33:17.999Z</time></trkpt><trkpt lat="44.394398252448134" lon="9.000962802832767"><ele>49.0</ele><time>2026-03-29T17:33:18.999Z</time></trkpt><trkpt lat="44.394338191348034" lon="9.000806076612358"><ele>48.0</ele><time>2026-03-29T17:33:19.999Z</time></trkpt><trkpt lat="44.39428343351695" lon="9.00062853096571"><ele>48.0</ele><time>2026-03-29T17:33:20.999Z</time></trkpt><trkpt lat="44.394240091603955" lon="9.000453364082064"><ele>48.0</ele><time>2026-03-29T17:33:21.999Z</time></trkpt><trkpt lat="44.39420573517775" lon="9.000275784610853"><ele>48.0</ele><time>2026-03-29T17:33:22.999Z</time></trkpt><trkpt lat="44.39417948187875" lon="9.000098302185446"><ele>48.0</ele><time>2026-03-29T17:33:23.999Z</time></trkpt><trkpt lat="44.39416437472579" lon="8.999919739367723"><ele>48.0</ele><time>2026-03-29T17:33:24.999Z</time></trkpt><trkpt lat="44.39415983642444" lon="8.999727919843927"><ele>48.0</ele><time>2026-03-29T17:33:25.999Z</time></trkpt><trkpt lat="44.394159471114165" lon="8.999525018376854"><ele>48.0</ele><time>2026-03-29T17:33:26.999Z</time></trkpt><trkpt lat="44.39416716888419" lon="8.999320690650679"><ele>48.0</ele><time>2026-03-29T17:33:27.999Z</time></trkpt><trkpt lat="44.39418853353492" lon="8.999115579863428"><ele>46.0</ele><time>2026-03-29T17:33:28.999Z</time></trkpt><trkpt lat="44.39421716400224" lon="8.998916070923833"><ele>44.0</ele><time>2026-03-29T17:33:29.999Z</time></trkpt><trkpt lat="44.39424652666106" lon="8.998727341121453"><ele>42.0</ele><time>2026-03-29T17:33:30.999Z</time></trkpt><trkpt lat="44.39427643085644" lon="8.998535673273501"><ele>40.0</ele><time>2026-03-29T17:33:31.999Z</time></trkpt><trkpt lat="44.39430601866765" lon="8.998340711109282"><ele>39.5</ele><time>2026-03-29T17:33:32.999Z</time></trkpt><trkpt lat="44.39433387481044" lon="8.99815689663895"><ele>39.0</ele><time>2026-03-29T17:33:33.999Z</time></trkpt><trkpt lat="44.39435864743575" lon="8.997978714578231"><ele>38.5</ele><time>2026-03-29T17:33:34.999Z</time></trkpt><trkpt lat="44.39438758506056" lon="8.997794953371058"><ele>38.0</ele><time>2026-03-29T17:33:35.999Z</time></trkpt><trkpt lat="44.3944133036601" lon="8.997608578306112"><ele>39.5</ele><time>2026-03-29T17:33:36.999Z</time></trkpt><trkpt lat="44.394439576568665" lon="8.997438843453464"><ele>41.0</ele><time>2026-03-29T17:33:37.999Z</time></trkpt><trkpt lat="44.39446315489335" lon="8.997279804732678"><ele>42.5</ele><time>2026-03-29T17:33:38.999Z</time></trkpt><trkpt lat="44.39448927081622" lon="8.997128122328787"><ele>44.0</ele><time>2026-03-29T17:33:39.999Z</time></trkpt><trkpt lat="44.39451275163649" lon="8.996990313664213"><ele>44.0</ele><time>2026-03-29T17:33:40.999Z</time></trkpt><trkpt lat="44.39453037587958" lon="8.99686198220315"><ele>44.0</ele><time>2026-03-29T17:33:41.999Z</time></trkpt><trkpt lat="44.39454704008038" lon="8.996744869464328"><ele>44.0</ele><time>2026-03-29T17:33:42.999Z</time></trkpt><trkpt lat="44.39455967730787" lon="8.996641142589402"><ele>44.0</ele><time>2026-03-29T17:33:43.999Z</time></trkpt><trkpt lat="44.39458264410568" lon="8.996507519780147"><ele>44.0</ele><time>2026-03-29T17:33:45.999Z</time></trkpt><trkpt lat="44.39460217634585" lon="8.99637314261844"><ele>44.2</ele><time>2026-03-29T17:33:58.999Z</time></trkpt><trkpt lat="44.39462435530049" lon="8.996210702427279"><ele>44.400000000000006</ele><time>2026-03-29T17:34:00.999Z</time></trkpt><trkpt lat="44.39464344147429" lon="8.996094651539053"><ele>44.6</ele><time>2026-03-29T17:34:01.999Z</time></trkpt><trkpt lat="44.394665643738804" lon="8.99597363080206"><ele>44.8</ele><time>2026-03-29T17:34:02.999Z</time></trkpt><trkpt lat="44.39468625158779" lon="8.99584091928295"><ele>45.0</ele><time>2026-03-29T17:34:03.999Z</time></trkpt><trkpt lat="44.3947062184722" lon="8.995703372460202"><ele>47.75</ele><time>2026-03-29T17:34:04.999Z</time></trkpt><trkpt lat="44.39472475779704" lon="8.995559433543587"><ele>50.5</ele><time>2026-03-29T17:34:05.999Z</time></trkpt><trkpt lat="44.39474587737172" lon="8.995409011184565"><ele>53.25</ele><time>2026-03-29T17:34:07Z</time></trkpt><trkpt lat="44.394764021746084" lon="8.995247519671883"><ele>56.0</ele><time>2026-03-29T17:34:08Z</time></trkpt><trkpt lat="44.3947881654303" lon="8.995077635614095"><ele>55.75</ele><time>2026-03-29T17:34:09Z</time></trkpt><trkpt lat="44.39481146121639" lon="8.994900984285191"><ele>55.5</ele><time>2026-03-29T17:34:10Z</time></trkpt><trkpt lat="44.39483631403218" lon="8.994729720207049"><ele>55.25</ele><time>2026-03-29T17:34:11Z</time></trkpt><trkpt lat="44.394868554668676" lon="8.994550884950037"><ele>55.0</ele><time>2026-03-29T17:34:12Z</time></trkpt><trkpt lat="44.3949058860807" lon="8.994369544496458"><ele>55.0</ele><time>2026-03-29T17:34:13Z</time></trkpt><trkpt lat="44.39496264230733" lon="8.994210574064294"><ele>55.0</ele><time>2026-03-29T17:34:14Z</time></trkpt><trkpt lat="44.39503829943958" lon="8.994055878845575"><ele>55.0</ele><time>2026-03-29T17:34:15Z</time></trkpt><trkpt lat="44.3951243994144" lon="8.993923490602306"><ele>55.0</ele><time>2026-03-29T17:34:16Z</time></trkpt><trkpt lat="44.39522723816499" lon="8.993797030101371"><ele>54.0</ele><time>2026-03-29T17:34:17Z</time></trkpt><trkpt lat="44.39533603071434" lon="8.993692874492744"><ele>53.0</ele><time>2026-03-29T17:34:18Z</time></trkpt><trkpt lat="44.39544025950071" lon="8.99361283516057"><ele>52.0</ele><time>2026-03-29T17:34:19Z</time></trkpt><trkpt lat="44.395555820189074" lon="8.993546414323005"><ele>51.0</ele><time>2026-03-29T17:34:20Z</time></trkpt><trkpt lat="44.39567505152838" lon="8.993485093080844"><ele>51.0</ele><time>2026-03-29T17:34:21Z</time></trkpt><trkpt lat="44.395795874441845" lon="8.993442644403236"><ele>51.0</ele><time>2026-03-29T17:34:22Z</time></trkpt><trkpt lat="44.395920078164146" lon="8.993418031670105"><ele>51.0</ele><time>2026-03-29T17:34:23Z</time></trkpt><trkpt lat="44.39604685842535" lon="8.993421046995271"><ele>51.0</ele><time>2026-03-29T17:34:24Z</time></trkpt><trkpt lat="44.396181127584995" lon="8.993434149704516"><ele>51.0</ele><time>2026-03-29T17:34:25Z</time></trkpt><trkpt lat="44.396312492942116" lon="8.993465521615787"><ele>51.0</ele><time>2026-03-29T17:34:26Z</time></trkpt><trkpt lat="44.39644109031474" lon="8.993480972699423"><ele>51.0</ele><time>2026-03-29T17:34:27Z</time></trkpt><trkpt lat="44.396574232043136" lon="8.993495758409733"><ele>51.0</ele><time>2026-03-29T17:34:28Z</time></trkpt><trkpt lat="44.396705167081805" lon="8.993512082496332"><ele>51.5</ele><time>2026-03-29T17:34:29Z</time></trkpt><trkpt lat="44.39684490920887" lon="8.993534438708984"><ele>52.0</ele><time>2026-03-29T17:34:30Z</time></trkpt><trkpt lat="44.39698535639876" lon="8.993550573401034"><ele>52.5</ele><time>2026-03-29T17:34:31Z</time></trkpt><trkpt lat="44.397130655263915" lon="8.99357808686491"><ele>53.0</ele><time>2026-03-29T17:34:32Z</time></trkpt><trkpt lat="44.397272758638735" lon="8.993602809356295"><ele>52.0</ele><time>2026-03-29T17:34:33Z</time></trkpt><trkpt lat="44.39740647240085" lon="8.99362722347767"><ele>51.0</ele><time>2026-03-29T17:34:34Z</time></trkpt><trkpt lat="44.39753150569057" lon="8.993651431564315"><ele>50.0</ele><time>2026-03-29T17:34:35Z</time></trkpt><trkpt lat="44.39764692750261" lon="8.99367179811175"><ele>49.0</ele><time>2026-03-29T17:34:36Z</time></trkpt><trkpt lat="44.39776344665711" lon="8.993686253672982"><ele>49.0</ele><time>2026-03-29T17:34:37Z</time></trkpt><trkpt lat="44.397883912693814" lon="8.993690700236693"><ele>49.0</ele><time>2026-03-29T17:34:38Z</time></trkpt><trkpt lat="44.3979915050129" lon="8.99367395121913"><ele>49.0</ele><time>2026-03-29T17:34:39Z</time></trkpt><trkpt lat="44.39809258763848" lon="8.993634302108926"><ele>49.0</ele><time>2026-03-29T17:34:40Z</time></trkpt><trkpt lat="44.39819189108222" lon="8.993586353070889"><ele>49.0</ele><time>2026-03-29T17:34:41Z</time></trkpt><trkpt lat="44.39829373759425" lon="8.99352050801656"><ele>49.400000000000006</ele><time>2026-03-29T17:34:42Z</time></trkpt><trkpt lat="44.39837957062615" lon="8.993451782243966"><ele>49.8</ele><time>2026-03-29T17:34:43Z</time></trkpt><trkpt lat="44.398444971955264" lon="8.99337555075795"><ele>50.2</ele><time>2026-03-29T17:34:44Z</time></trkpt><trkpt lat="44.398515120461454" lon="8.993278704609905"><ele>50.599999999999994</ele><time>2026-03-29T17:34:45Z</time></trkpt><trkpt lat="44.39858025496264" lon="8.993163104627568"><ele>51.0</ele><time>2026-03-29T17:34:46Z</time></trkpt><trkpt lat="44.39863575724686" lon="8.993042346662348"><ele>48.0</ele><time>2026-03-29T17:34:47Z</time></trkpt><trkpt lat="44.398687090139816" lon="8.992908779893698"><ele>45.0</ele><time>2026-03-29T17:34:48Z</time></trkpt><trkpt lat="44.3987310748659" lon="8.99275520443323"><ele>42.0</ele><time>2026-03-29T17:34:49Z</time></trkpt><trkpt lat="44.398757778118764" lon="8.992583611944019"><ele>39.0</ele><time>2026-03-29T17:34:50Z</time></trkpt><trkpt lat="44.39877476343428" lon="8.992425832755824"><ele>39.75</ele><time>2026-03-29T17:34:51Z</time></trkpt><trkpt lat="44.398792733597006" lon="8.992277694002441"><ele>40.5</ele><time>2026-03-29T17:34:52Z</time></trkpt><trkpt lat="44.39880665447558" lon="8.992119566473965"><ele>41.25</ele><time>2026-03-29T17:34:53Z</time></trkpt><trkpt lat="44.39882258223955" lon="8.991961003770772"><ele>42.0</ele><time>2026-03-29T17:34:54Z</time></trkpt><trkpt lat="44.398841182226924" lon="8.99179505992619"><ele>42.75</ele><time>2026-03-29T17:34:55Z</time></trkpt><trkpt lat="44.39885862536456" lon="8.991619308490515"><ele>43.5</ele><time>2026-03-29T17:34:56Z</time></trkpt><trkpt lat="44.39887040468526" lon="8.991431369195183"><ele>44.25</ele><time>2026-03-29T17:34:57Z</time></trkpt><trkpt lat="44.398876426071574" lon="8.991255810677439"><ele>45.0</ele><time>2026-03-29T17:34:58Z</time></trkpt><trkpt lat="44.39888050587157" lon="8.99108936024507"><ele>45.0</ele><time>2026-03-29T17:34:59Z</time></trkpt><trkpt lat="44.398873958980644" lon="8.990902141773402"><ele>45.0</ele><time>2026-03-29T17:35:00Z</time></trkpt><trkpt lat="44.398892766635214" lon="8.990716583086785"><ele>45.0</ele><time>2026-03-29T17:35:01Z</time></trkpt><trkpt lat="44.39892269429482" lon="8.99052503655694"><ele>45.0</ele><time>2026-03-29T17:35:02Z</time></trkpt><trkpt lat="44.398964045117026" lon="8.990355739516401"><ele>44.75</ele><time>2026-03-29T17:35:03Z</time></trkpt><trkpt lat="44.3990102982303" lon="8.990201092502177"><ele>44.5</ele><time>2026-03-29T17:35:04Z</time></trkpt><trkpt lat="44.39906656406954" lon="8.990064523769338"><ele>44.25</ele><time>2026-03-29T17:35:05Z</time></trkpt><trkpt lat="44.399133424978835" lon="8.989939614749092"><ele>44.0</ele><time>2026-03-29T17:35:05.999Z</time></trkpt><trkpt lat="44.39920824589741" lon="8.989812451175435"><ele>43.33333333333333</ele><time>2026-03-29T17:35:06.999Z</time></trkpt><trkpt lat="44.39927948880878" lon="8.989694934953084"><ele>42.666666666666664</ele><time>2026-03-29T17:35:07.999Z</time></trkpt><trkpt lat="44.399345563712" lon="8.989602433083885"><ele>42.0</ele><time>2026-03-29T17:35:08.999Z</time></trkpt><trkpt lat="44.3994020988722" lon="8.98952966879672"><ele>41.333333333333336</ele><time>2026-03-29T17:35:09.999Z</time></trkpt><trkpt lat="44.39945540738839" lon="8.989460813828408"><ele>40.66666666666667</ele><time>2026-03-29T17:35:10.999Z</time></trkpt><trkpt lat="44.39950816489103" lon="8.98938623529594"><ele>40.0</ele><time>2026-03-29T17:35:11.999Z</time></trkpt><trkpt lat="44.39956051686468" lon="8.989295702700577"><ele>40.0</ele><time>2026-03-29T17:35:12.999Z</time></trkpt><trkpt lat="44.399607670736636" lon="8.989226406142825"><ele>40.0</ele><time>2026-03-29T17:35:13.999Z</time></trkpt><trkpt lat="44.39968329759918" lon="8.98911855184255"><ele>40.0</ele><time>2026-03-29T17:35:15.999Z</time></trkpt><trkpt lat="44.39972949703441" lon="8.989053796231408"><ele>40.0</ele><time>2026-03-29T17:35:16.999Z</time></trkpt><trkpt lat="44.39977303480606" lon="8.98898924451022"><ele>40.0</ele><time>2026-03-29T17:35:17.999Z</time></trkpt><trkpt lat="44.39982668463552" lon="8.988899465057408"><ele>40.0</ele><time>2026-03-29T17:35:18.999Z</time></trkpt><trkpt lat="44.399881708270556" lon="8.98880071853196"><ele>39.0</ele><time>2026-03-29T17:35:19.999Z</time></trkpt><trkpt lat="44.399954579298274" lon="8.988694395439756"><ele>38.0</ele><time>2026-03-29T17:35:20.999Z</time></trkpt><trkpt lat="44.4000290298855" lon="8.98858503458917"><ele>37.0</ele><time>2026-03-29T17:35:21.999Z</time></trkpt><trkpt lat="44.400090774747476" lon="8.9884949089564"><ele>36.0</ele><time>2026-03-29T17:35:22.999Z</time></trkpt><trkpt lat="44.40017546003108" lon="8.988399827976012"><ele>35.0</ele><time>2026-03-29T17:35:23.999Z</time></trkpt><trkpt lat="44.40027183289125" lon="8.988314178381735"><ele>35.0</ele><time>2026-03-29T17:35:24.999Z</time></trkpt><trkpt lat="44.40037055491955" lon="8.988259400580976"><ele>35.0</ele><time>2026-03-29T17:35:25.999Z</time></trkpt><trkpt lat="44.400472066064246" lon="8.98821993036909"><ele>35.0</ele><time>2026-03-29T17:35:26.999Z</time></trkpt><trkpt lat="44.400578156277206" lon="8.988175309459521"><ele>35.0</ele><time>2026-03-29T17:35:27.999Z</time></trkpt><trkpt lat="44.400692296006504" lon="8.98811795892013"><ele>35.0</ele><time>2026-03-29T17:35:28.999Z</time></trkpt><trkpt lat="44.40081075794487" lon="8.988056508158474"><ele>36.6</ele><time>2026-03-29T17:35:29.999Z</time></trkpt><trkpt lat="44.40092214795413" lon="8.988004101228428"><ele>38.2</ele><time>2026-03-29T17:35:30.999Z</time></trkpt><trkpt lat="44.401028822716356" lon="8.987960895290945"><ele>39.8</ele><time>2026-03-29T17:35:31.999Z</time></trkpt><trkpt lat="44.40112796606003" lon="8.987907458892495"><ele>41.4</ele><time>2026-03-29T17:35:32.999Z</time></trkpt><trkpt lat="44.40121779690353" lon="8.987847183011684"><ele>43.0</ele><time>2026-03-29T17:35:33.999Z</time></trkpt><trkpt lat="44.4012975417451" lon="8.987798641128306"><ele>43.4</ele><time>2026-03-29T17:35:34.999Z</time></trkpt><trkpt lat="44.40136098741515" lon="8.98774467957247"><ele>43.8</ele><time>2026-03-29T17:35:35.999Z</time></trkpt><trkpt lat="44.40145116257886" lon="8.987635956237856"><ele>44.2</ele><time>2026-03-29T17:35:37.999Z</time></trkpt><trkpt lat="44.40151767098524" lon="8.987550571892095"><ele>44.6</ele><time>2026-03-29T17:35:38.999Z</time></trkpt><trkpt lat="44.401585881847495" lon="8.987431072707283"><ele>45.0</ele><time>2026-03-29T17:35:39.999Z</time></trkpt><trkpt lat="44.401648574243964" lon="8.987309013969716"><ele>41.25</ele><time>2026-03-29T17:35:40.999Z</time></trkpt><trkpt lat="44.40171357493999" lon="8.987153912578771"><ele>37.5</ele><time>2026-03-29T17:35:41.999Z</time></trkpt><trkpt lat="44.40178442322187" lon="8.986986075831625"><ele>33.75</ele><time>2026-03-29T17:35:42.999Z</time></trkpt><trkpt lat="44.401852294361866" lon="8.986825473963282"><ele>30.0</ele><time>2026-03-29T17:35:43.999Z</time></trkpt><trkpt lat="44.401915738933134" lon="8.986676271247942"><ele>27.75</ele><time>2026-03-29T17:35:44.999Z</time></trkpt><trkpt lat="44.40197693420059" lon="8.986524617391497"><ele>25.5</ele><time>2026-03-29T17:35:45.999Z</time></trkpt><trkpt lat="44.40204023497393" lon="8.9863709132254"><ele>23.25</ele><time>2026-03-29T17:35:46.999Z</time></trkpt><trkpt lat="44.40210517752646" lon="8.986210422877052"><ele>21.0</ele><time>2026-03-29T17:35:47.999Z</time></trkpt><trkpt lat="44.402172052944834" lon="8.986045724041974"><ele>21.0</ele><time>2026-03-29T17:35:48.999Z</time></trkpt><trkpt lat="44.4022370675501" lon="8.985886305726373"><ele>21.0</ele><time>2026-03-29T17:35:49.999Z</time></trkpt><trkpt lat="44.40229662554905" lon="8.985736023733429"><ele>21.0</ele><time>2026-03-29T17:35:50.999Z</time></trkpt><trkpt lat="44.40235897826382" lon="8.985586046960387"><ele>21.0</ele><time>2026-03-29T17:35:51.999Z</time></trkpt><trkpt lat="44.402420262920415" lon="8.985431542982335"><ele>23.0</ele><time>2026-03-29T17:35:52.999Z</time></trkpt><trkpt lat="44.40248264493316" lon="8.98527765459302"><ele>25.0</ele><time>2026-03-29T17:35:53.999Z</time></trkpt><trkpt lat="44.4025385123005" lon="8.985142007738068"><ele>27.0</ele><time>2026-03-29T17:35:54.999Z</time></trkpt><trkpt lat="44.40258734594266" lon="8.98502465507667"><ele>29.0</ele><time>2026-03-29T17:35:55.999Z</time></trkpt><trkpt lat="44.402634680239956" lon="8.984923474540345"><ele>31.0</ele><time>2026-03-29T17:35:56.999Z</time></trkpt><trkpt lat="44.402665423301855" lon="8.984830201916301"><ele>32.16666666666667</ele><time>2026-03-29T17:35:57.999Z</time></trkpt><trkpt lat="44.40270129857601" lon="8.984725539111677"><ele>33.333333333333336</ele><time>2026-03-29T17:35:58.999Z</time></trkpt><trkpt lat="44.40273222000192" lon="8.98462236572994"><ele>34.5</ele><time>2026-03-29T17:35:59.999Z</time></trkpt><trkpt lat="44.40278598387141" lon="8.98447482733258"><ele>35.666666666666664</ele><time>2026-03-29T17:36:01.999Z</time></trkpt><trkpt lat="44.40282922966543" lon="8.984370619528692"><ele>36.83333333333333</ele><time>2026-03-29T17:36:03.999Z</time></trkpt><trkpt lat="44.40285747963637" lon="8.984290935636709"><ele>38.0</ele><time>2026-03-29T17:36:05.999Z</time></trkpt><trkpt lat="44.402871479821364" lon="8.984196300361061"><ele>38.666666666666664</ele><time>2026-03-29T17:36:08.999Z</time></trkpt><trkpt lat="44.40291256042558" lon="8.984076292962945"><ele>39.33333333333333</ele><time>2026-03-29T17:36:13Z</time></trkpt><trkpt lat="44.402959806724226" lon="8.9839822206983"><ele>40.0</ele><time>2026-03-29T17:36:15Z</time></trkpt><trkpt lat="44.40300829090645" lon="8.983840403359041"><ele>40.666666666666664</ele><time>2026-03-29T17:36:17Z</time></trkpt><trkpt lat="44.403042117829834" lon="8.983755678570544"><ele>41.333333333333336</ele><time>2026-03-29T17:36:18Z</time></trkpt><trkpt lat="44.40308709199334" lon="8.983646851231683"><ele>42.0</ele><time>2026-03-29T17:36:19Z</time></trkpt><trkpt lat="44.40314392785943" lon="8.98354687970684"><ele>42.8</ele><time>2026-03-29T17:36:20Z</time></trkpt><trkpt lat="44.403218808412696" lon="8.983438854947"><ele>43.6</ele><time>2026-03-29T17:36:21Z</time></trkpt><trkpt lat="44.40329216848817" lon="8.98332641853051"><ele>44.4</ele><time>2026-03-29T17:36:22Z</time></trkpt><trkpt lat="44.403372262662664" lon="8.983216422474086"><ele>45.199999999999996</ele><time>2026-03-29T17:36:23Z</time></trkpt><trkpt lat="44.40345183430167" lon="8.983097898779286"><ele>46.0</ele><time>2026-03-29T17:36:24Z</time></trkpt><trkpt lat="44.40354349571425" lon="8.982972899822329"><ele>47.25</ele><time>2026-03-29T17:36:25Z</time></trkpt><trkpt lat="44.403630426807965" lon="8.98286436235845"><ele>48.5</ele><time>2026-03-29T17:36:26Z</time></trkpt><trkpt lat="44.403722572978396" lon="8.982771590933812"><ele>49.75</ele><time>2026-03-29T17:36:27Z</time></trkpt><trkpt lat="44.40381498356189" lon="8.982678432026292"><ele>51.0</ele><time>2026-03-29T17:36:28Z</time></trkpt><trkpt lat="44.403906104425914" lon="8.982582154571592"><ele>50.25</ele><time>2026-03-29T17:36:29Z</time></trkpt><trkpt lat="44.40400777233544" lon="8.982485874088121"><ele>49.5</ele><time>2026-03-29T17:36:30Z</time></trkpt><trkpt lat="44.40412316936898" lon="8.982396595440951"><ele>48.75</ele><time>2026-03-29T17:36:31Z</time></trkpt><trkpt lat="44.40422509475281" lon="8.982311531163713"><ele>48.0</ele><time>2026-03-29T17:36:32Z</time></trkpt><trkpt lat="44.40432429553837" lon="8.982219916785084"><ele>48.0</ele><time>2026-03-29T17:36:33Z</time></trkpt><trkpt lat="44.40452691601851" lon="8.98203011398707"><ele>48.0</ele><time>2026-03-29T17:36:35Z</time></trkpt><trkpt lat="44.40463124460657" lon="8.98193102244763"><ele>48.0</ele><time>2026-03-29T17:36:36Z</time></trkpt><trkpt lat="44.40473357442884" lon="8.981833224154284"><ele>49.25</ele><time>2026-03-29T17:36:37Z</time></trkpt><trkpt lat="44.404834614826186" lon="8.981728187935927"><ele>50.5</ele><time>2026-03-29T17:36:38Z</time></trkpt><trkpt lat="44.404941150107796" lon="8.981630049431796"><ele>51.75</ele><time>2026-03-29T17:36:39Z</time></trkpt><trkpt lat="44.40505075229321" lon="8.981536732818185"><ele>53.0</ele><time>2026-03-29T17:36:40Z</time></trkpt><trkpt lat="44.405157622200896" lon="8.981445586515601"><ele>53.0</ele><time>2026-03-29T17:36:41Z</time></trkpt><trkpt lat="44.40526428364325" lon="8.9813440049203"><ele>53.0</ele><time>2026-03-29T17:36:42Z</time></trkpt><trkpt lat="44.40537023448306" lon="8.981240216814712"><ele>53.0</ele><time>2026-03-29T17:36:43Z</time></trkpt><trkpt lat="44.4054722630773" lon="8.981134088364152"><ele>53.0</ele><time>2026-03-29T17:36:44Z</time></trkpt><trkpt lat="44.405570144178135" lon="8.981034591120004"><ele>53.75</ele><time>2026-03-29T17:36:45Z</time></trkpt><trkpt lat="44.40567415401284" lon="8.980937307403297"><ele>54.5</ele><time>2026-03-29T17:36:46Z</time></trkpt><trkpt lat="44.405776752772006" lon="8.980835709761937"><ele>55.25</ele><time>2026-03-29T17:36:47Z</time></trkpt><trkpt lat="44.40588368487595" lon="8.980730527541422"><ele>56.0</ele><time>2026-03-29T17:36:48Z</time></trkpt><trkpt lat="44.40599231129264" lon="8.980624751126461"><ele>56.0</ele><time>2026-03-29T17:36:49Z</time></trkpt><trkpt lat="44.40610445269958" lon="8.980517929469968"><ele>56.0</ele><time>2026-03-29T17:36:50Z</time></trkpt><trkpt lat="44.406215708324005" lon="8.980411268838091"><ele>56.0</ele><time>2026-03-29T17:36:51Z</time></trkpt><trkpt lat="44.40631452107942" lon="8.980311826107805"><ele>56.0</ele><time>2026-03-29T17:36:52Z</time></trkpt><trkpt lat="44.40640245206487" lon="8.98021757423923"><ele>56.5</ele><time>2026-03-29T17:36:53Z</time></trkpt><trkpt lat="44.40650169725288" lon="8.980122770522135"><ele>57.0</ele><time>2026-03-29T17:36:54Z</time></trkpt><trkpt lat="44.40659239103678" lon="8.980015640387839"><ele>57.5</ele><time>2026-03-29T17:36:55Z</time></trkpt><trkpt lat="44.40668891276981" lon="8.979904574984007"><ele>58.0</ele><time>2026-03-29T17:36:56Z</time></trkpt><trkpt lat="44.40678524380841" lon="8.979785833952615"><ele>58.0</ele><time>2026-03-29T17:36:57Z</time></trkpt><trkpt lat="44.406874217457535" lon="8.979650554377821"><ele>58.0</ele><time>2026-03-29T17:36:58Z</time></trkpt><trkpt lat="44.4069658488876" lon="8.97951422210727"><ele>58.0</ele><time>2026-03-29T17:36:59Z</time></trkpt><trkpt lat="44.40704938535113" lon="8.979364365437755"><ele>58.0</ele><time>2026-03-29T17:37:00Z</time></trkpt><trkpt lat="44.40714109606354" lon="8.9792122641507"><ele>59.0</ele><time>2026-03-29T17:37:01Z</time></trkpt><trkpt lat="44.407221348102645" lon="8.979052375408155"><ele>60.0</ele><time>2026-03-29T17:37:02Z</time></trkpt><trkpt lat="44.40729516500814" lon="8.978916377473519"><ele>61.0</ele><time>2026-03-29T17:37:03Z</time></trkpt><trkpt lat="44.40737406511946" lon="8.97876948258405"><ele>62.0</ele><time>2026-03-29T17:37:04Z</time></trkpt><trkpt lat="44.407449618013885" lon="8.978622847787074"><ele>62.0</ele><time>2026-03-29T17:37:05Z</time></trkpt><trkpt lat="44.4075207084836" lon="8.97846950733706"><ele>62.0</ele><time>2026-03-29T17:37:06Z</time></trkpt><trkpt lat="44.407596254601856" lon="8.978301848824263"><ele>62.0</ele><time>2026-03-29T17:37:07Z</time></trkpt><trkpt lat="44.40766251411038" lon="8.978121055756315"><ele>62.0</ele><time>2026-03-29T17:37:08Z</time></trkpt><trkpt lat="44.407721752758675" lon="8.977933528735603"><ele>62.25</ele><time>2026-03-29T17:37:09Z</time></trkpt><trkpt lat="44.40778797685013" lon="8.977775565242741"><ele>62.5</ele><time>2026-03-29T17:37:10Z</time></trkpt><trkpt lat="44.407835031345556" lon="8.977613840918208"><ele>62.75</ele><time>2026-03-29T17:37:11Z</time></trkpt><trkpt lat="44.40787606722421" lon="8.977445440273726"><ele>63.0</ele><time>2026-03-29T17:37:12Z</time></trkpt><trkpt lat="44.40790833929811" lon="8.977266514881906"><ele>65.75</ele><time>2026-03-29T17:37:13Z</time></trkpt><trkpt lat="44.407925625972446" lon="8.977103585437183"><ele>68.5</ele><time>2026-03-29T17:37:14Z</time></trkpt><trkpt lat="44.40791989564568" lon="8.9769597911879"><ele>71.25</ele><time>2026-03-29T17:37:15Z</time></trkpt><trkpt lat="44.407916872097154" lon="8.976800377909646"><ele>74.0</ele><time>2026-03-29T17:37:16Z</time></trkpt><trkpt lat="44.40791958250782" lon="8.976628851881822"><ele>75.75</ele><time>2026-03-29T17:37:17Z</time></trkpt><trkpt lat="44.40792709029968" lon="8.976463087554013"><ele>77.5</ele><time>2026-03-29T17:37:18Z</time></trkpt><trkpt lat="44.40790358382533" lon="8.976284342474344"><ele>79.25</ele><time>2026-03-29T17:37:19Z</time></trkpt><trkpt lat="44.40787700073645" lon="8.976104907552429"><ele>81.0</ele><time>2026-03-29T17:37:20Z</time></trkpt><trkpt lat="44.407845496718274" lon="8.975944442887805"><ele>80.2</ele><time>2026-03-29T17:37:21Z</time></trkpt><trkpt lat="44.40780835539844" lon="8.975793643741198"><ele>79.39999999999999</ele><time>2026-03-29T17:37:22Z</time></trkpt><trkpt lat="44.40777602112186" lon="8.975651406600795"><ele>78.6</ele><time>2026-03-29T17:37:23Z</time></trkpt><trkpt lat="44.40773861264383" lon="8.975504919070996"><ele>77.8</ele><time>2026-03-29T17:37:24Z</time></trkpt><trkpt lat="44.40770062134344" lon="8.975355245537505"><ele>77.0</ele><time>2026-03-29T17:37:24.999Z</time></trkpt><trkpt lat="44.40765842958084" lon="8.975200043727456"><ele>77.0</ele><time>2026-03-29T17:37:25.999Z</time></trkpt><trkpt lat="44.4076176952226" lon="8.975041348378221"><ele>77.0</ele><time>2026-03-29T17:37:26.999Z</time></trkpt><trkpt lat="44.40757367308094" lon="8.974880990862676"><ele>77.0</ele><time>2026-03-29T17:37:27.999Z</time></trkpt><trkpt lat="44.407525165964365" lon="8.974730703774329"><ele>77.0</ele><time>2026-03-29T17:37:28.999Z</time></trkpt><trkpt lat="44.407477453979475" lon="8.97457657561696"><ele>75.0</ele><time>2026-03-29T17:37:29.999Z</time></trkpt><trkpt lat="44.407425135128584" lon="8.974424957308232"><ele>73.0</ele><time>2026-03-29T17:37:30.999Z</time></trkpt><trkpt lat="44.40737401217475" lon="8.97426842617215"><ele>71.0</ele><time>2026-03-29T17:37:31.999Z</time></trkpt><trkpt lat="44.407321916112174" lon="8.974105389125851"><ele>69.0</ele><time>2026-03-29T17:37:32.999Z</time></trkpt><trkpt lat="44.40727388236789" lon="8.973953229750432"><ele>69.0</ele><time>2026-03-29T17:37:33.999Z</time></trkpt><trkpt lat="44.4072297887148" lon="8.973803460537365"><ele>69.0</ele><time>2026-03-29T17:37:34.999Z</time></trkpt><trkpt lat="44.40718373845266" lon="8.973649806561964"><ele>69.0</ele><time>2026-03-29T17:37:35.999Z</time></trkpt><trkpt lat="44.407141001963936" lon="8.973506230886533"><ele>69.0</ele><time>2026-03-29T17:37:36.999Z</time></trkpt><trkpt lat="44.40709808097069" lon="8.973356125632465"><ele>70.25</ele><time>2026-03-29T17:37:37.999Z</time></trkpt><trkpt lat="44.407052783537495" lon="8.973195930866922"><ele>71.5</ele><time>2026-03-29T17:37:38.999Z</time></trkpt><trkpt lat="44.407011952991965" lon="8.973046624254161"><ele>72.75</ele><time>2026-03-29T17:37:39.999Z</time></trkpt><trkpt lat="44.40696979277632" lon="8.972907356383562"><ele>74.0</ele><time>2026-03-29T17:37:40.999Z</time></trkpt><trkpt lat="44.40693050863831" lon="8.972771097384937"><ele>74.0</ele><time>2026-03-29T17:37:41.999Z</time></trkpt><trkpt lat="44.4068885125378" lon="8.972635320884127"><ele>74.0</ele><time>2026-03-29T17:37:42.999Z</time></trkpt><trkpt lat="44.40685475055554" lon="8.972500903221533"><ele>74.0</ele><time>2026-03-29T17:37:43.999Z</time></trkpt><trkpt lat="44.406823860125854" lon="8.972363765477068"><ele>74.0</ele><time>2026-03-29T17:37:44.999Z</time></trkpt><trkpt lat="44.40679514602514" lon="8.972212597380082"><ele>74.0</ele><time>2026-03-29T17:37:45.999Z</time></trkpt><trkpt lat="44.40676198734584" lon="8.972054816297296"><ele>73.5</ele><time>2026-03-29T17:37:46.999Z</time></trkpt><trkpt lat="44.406720546646476" lon="8.97189369220168"><ele>73.0</ele><time>2026-03-29T17:37:47.999Z</time></trkpt><trkpt lat="44.40668007680008" lon="8.971738368674025"><ele>72.5</ele><time>2026-03-29T17:37:48.999Z</time></trkpt><trkpt lat="44.40663585785216" lon="8.971597527898181"><ele>72.0</ele><time>2026-03-29T17:37:49.999Z</time></trkpt><trkpt lat="44.40658686896602" lon="8.971446854373967"><ele>72.2</ele><time>2026-03-29T17:37:50.999Z</time></trkpt><trkpt lat="44.40653045183285" lon="8.9713047575411"><ele>72.4</ele><time>2026-03-29T17:37:51.999Z</time></trkpt><trkpt lat="44.40647355081909" lon="8.971185366939919"><ele>72.6</ele><time>2026-03-29T17:37:52.999Z</time></trkpt><trkpt lat="44.40641818379706" lon="8.97106956342525"><ele>72.8</ele><time>2026-03-29T17:37:53.999Z</time></trkpt><trkpt lat="44.406366345694806" lon="8.970963628030159"><ele>73.0</ele><time>2026-03-29T17:37:54.999Z</time></trkpt><trkpt lat="44.40631943227492" lon="8.97088057198668"><ele>72.0</ele><time>2026-03-29T17:37:55.999Z</time></trkpt><trkpt lat="44.406294774589966" lon="8.970799311656874"><ele>71.0</ele><time>2026-03-29T17:37:56.999Z</time></trkpt><trkpt lat="44.406410759278494" lon="8.970566078092993"><ele>70.0</ele><time>2026-03-29T17:37:59.999Z</time></trkpt><trkpt lat="44.406478898372974" lon="8.970467036465495"><ele>69.0</ele><time>2026-03-29T17:38:00.999Z</time></trkpt><trkpt lat="44.406546801675965" lon="8.970380611148007"><ele>67.4</ele><time>2026-03-29T17:38:01.999Z</time></trkpt><trkpt lat="44.4066016331956" lon="8.970266393618022"><ele>65.80000000000001</ele><time>2026-03-29T17:38:02.999Z</time></trkpt><trkpt lat="44.40667487501286" lon="8.970169730935043"><ele>64.19999999999999</ele><time>2026-03-29T17:38:03.999Z</time></trkpt><trkpt lat="44.40675170562896" lon="8.97005548655649"><ele>62.599999999999994</ele><time>2026-03-29T17:38:04.999Z</time></trkpt><trkpt lat="44.406823394375806" lon="8.969939528326737"><ele>61.0</ele><time>2026-03-29T17:38:05.999Z</time></trkpt><trkpt lat="44.40689374231724" lon="8.969850863699666"><ele>60.49999999999999</ele><time>2026-03-29T17:38:06.999Z</time></trkpt><trkpt lat="44.40693879402474" lon="8.969762056660583"><ele>60.0</ele><time>2026-03-29T17:38:07.999Z</time></trkpt><trkpt lat="44.40696611987537" lon="8.969606202976411"><ele>59.5</ele><time>2026-03-29T17:38:09.999Z</time></trkpt><trkpt lat="44.40693005821854" lon="8.969516976190215"><ele>59.0</ele><time>2026-03-29T17:38:10.999Z</time></trkpt><trkpt lat="44.40687267581682" lon="8.969435492776983"><ele>58.49999999999999</ele><time>2026-03-29T17:38:11.999Z</time></trkpt><trkpt lat="44.40680244200166" lon="8.969354806652579"><ele>58.0</ele><time>2026-03-29T17:38:12.999Z</time></trkpt><trkpt lat="44.406728362978846" lon="8.96926596778686"><ele>57.599999999999994</ele><time>2026-03-29T17:38:13.999Z</time></trkpt><trkpt lat="44.406661170348315" lon="8.969176594008143"><ele>57.199999999999996</ele><time>2026-03-29T17:38:14.999Z</time></trkpt><trkpt lat="44.406588752688805" lon="8.96908165372584"><ele>56.8</ele><time>2026-03-29T17:38:15.999Z</time></trkpt><trkpt lat="44.40650154506528" lon="8.96897533217658"><ele>56.4</ele><time>2026-03-29T17:38:16.999Z</time></trkpt><trkpt lat="44.406420392548945" lon="8.968876227966135"><ele>56.0</ele><time>2026-03-29T17:38:17.999Z</time></trkpt><trkpt lat="44.406318305711075" lon="8.968766136516553"><ele>55.75</ele><time>2026-03-29T17:38:19Z</time></trkpt><trkpt lat="44.40622558244279" lon="8.968644798171038"><ele>55.5</ele><time>2026-03-29T17:38:20Z</time></trkpt><trkpt lat="44.40613004621328" lon="8.96852524575206"><ele>55.25</ele><time>2026-03-29T17:38:21Z</time></trkpt><trkpt lat="44.406053022499314" lon="8.968420800138823"><ele>55.0</ele><time>2026-03-29T17:38:22Z</time></trkpt><trkpt lat="44.40597802154877" lon="8.968328560257218"><ele>55.0</ele><time>2026-03-29T17:38:23Z</time></trkpt><trkpt lat="44.405911897415535" lon="8.968242696526136"><ele>55.0</ele><time>2026-03-29T17:38:24Z</time></trkpt><trkpt lat="44.40583591079226" lon="8.968152126527844"><ele>55.0</ele><time>2026-03-29T17:38:25Z</time></trkpt><trkpt lat="44.405746843971805" lon="8.968054857779359"><ele>55.0</ele><time>2026-03-29T17:38:26Z</time></trkpt><trkpt lat="44.405657011406625" lon="8.967955369466916"><ele>55.0</ele><time>2026-03-29T17:38:27Z</time></trkpt><trkpt lat="44.40557859349582" lon="8.967871236044298"><ele>55.0</ele><time>2026-03-29T17:38:28Z</time></trkpt><trkpt lat="44.405511363819905" lon="8.967787664232793"><ele>55.0</ele><time>2026-03-29T17:38:29Z</time></trkpt><trkpt lat="44.40543617495504" lon="8.967688981821714"><ele>55.0</ele><time>2026-03-29T17:38:30Z</time></trkpt><trkpt lat="44.40534666764847" lon="8.967581133249707"><ele>55.0</ele><time>2026-03-29T17:38:31Z</time></trkpt><trkpt lat="44.40526109275529" lon="8.96747182252601"><ele>55.0</ele><time>2026-03-29T17:38:32Z</time></trkpt><trkpt lat="44.40517928221772" lon="8.967392715209648"><ele>54.83333333333333</ele><time>2026-03-29T17:38:33Z</time></trkpt><trkpt lat="44.40511922959294" lon="8.967328412010618"><ele>54.666666666666664</ele><time>2026-03-29T17:38:34Z</time></trkpt><trkpt lat="44.40505420186043" lon="8.967299991327412"><ele>54.5</ele><time>2026-03-29T17:38:35Z</time></trkpt><trkpt lat="44.40499627294159" lon="8.967259636311061"><ele>54.33333333333333</ele><time>2026-03-29T17:38:36Z</time></trkpt><trkpt lat="44.4049313521629" lon="8.967331043597696"><ele>54.166666666666664</ele><time>2026-03-29T17:38:37Z</time></trkpt><trkpt lat="44.404872488040496" lon="8.967472413047302"><ele>54.0</ele><time>2026-03-29T17:38:39Z</time></trkpt><trkpt lat="44.40487505616448" lon="8.967591612306869"><ele>54.400000000000006</ele><time>2026-03-29T17:38:40Z</time></trkpt><trkpt lat="44.40485765856929" lon="8.967718999175062"><ele>54.800000000000004</ele><time>2026-03-29T17:38:41Z</time></trkpt><trkpt lat="44.404853440292186" lon="8.967865938794867"><ele>55.199999999999996</ele><time>2026-03-29T17:38:42Z</time></trkpt><trkpt lat="44.404852589222514" lon="8.968014241981637"><ele>55.599999999999994</ele><time>2026-03-29T17:38:43Z</time></trkpt><trkpt lat="44.40484943779364" lon="8.96816934703167"><ele>56.0</ele><time>2026-03-29T17:38:44Z</time></trkpt><trkpt lat="44.40485527442689" lon="8.968338453029238"><ele>59.0</ele><time>2026-03-29T17:38:45Z</time></trkpt><trkpt lat="44.404892675204685" lon="8.96849919054116"><ele>62.0</ele><time>2026-03-29T17:38:46Z</time></trkpt><trkpt lat="44.40493256780478" lon="8.968671461646021"><ele>65.0</ele><time>2026-03-29T17:38:47Z</time></trkpt><trkpt lat="44.40498103257036" lon="8.968838205996764"><ele>68.0</ele><time>2026-03-29T17:38:48Z</time></trkpt><trkpt lat="44.40502368360832" lon="8.969008606607815"><ele>68.0</ele><time>2026-03-29T17:38:49Z</time></trkpt><trkpt lat="44.4050779823554" lon="8.969192331780103"><ele>68.0</ele><time>2026-03-29T17:38:50Z</time></trkpt><trkpt lat="44.405134234574284" lon="8.969381950751718"><ele>68.0</ele><time>2026-03-29T17:38:51Z</time></trkpt><trkpt lat="44.405183172143715" lon="8.969553890859414"><ele>68.0</ele><time>2026-03-29T17:38:52Z</time></trkpt><trkpt lat="44.4052182374789" lon="8.969714329127457"><ele>68.8</ele><time>2026-03-29T17:38:53Z</time></trkpt><trkpt lat="44.40524899500049" lon="8.969855585545544"><ele>69.6</ele><time>2026-03-29T17:38:54Z</time></trkpt><trkpt lat="44.40529413430441" lon="8.969986102728452"><ele>70.4</ele><time>2026-03-29T17:38:55Z</time></trkpt><trkpt lat="44.405341200638155" lon="8.970136628053398"><ele>71.2</ele><time>2026-03-29T17:38:56Z</time></trkpt><trkpt lat="44.40537675415777" lon="8.970276784677688"><ele>72.0</ele><time>2026-03-29T17:38:57Z</time></trkpt><trkpt lat="44.40542077732177" lon="8.970395399834132"><ele>72.0</ele><time>2026-03-29T17:38:58Z</time></trkpt><trkpt lat="44.40548234582712" lon="8.970505384120719"><ele>72.0</ele><time>2026-03-29T17:38:59Z</time></trkpt><trkpt lat="44.405542783556655" lon="8.970617375253983"><ele>72.0</ele><time>2026-03-29T17:39:00Z</time></trkpt><trkpt lat="44.405601403800816" lon="8.970737400135414"><ele>72.0</ele><time>2026-03-29T17:39:01Z</time></trkpt><trkpt lat="44.40566369847302" lon="8.970810246324262"><ele>72.0</ele><time>2026-03-29T17:39:02Z</time></trkpt><trkpt lat="44.405746893307" lon="8.97089297293246"><ele>72.25</ele><time>2026-03-29T17:39:03Z</time></trkpt><trkpt lat="44.40584609472017" lon="8.970990530505206"><ele>72.5</ele><time>2026-03-29T17:39:04Z</time></trkpt><trkpt lat="44.4059685557333" lon="8.971110151527668"><ele>72.75</ele><time>2026-03-29T17:39:05Z</time></trkpt><trkpt lat="44.40607258549356" lon="8.971215267932527"><ele>73.0</ele><time>2026-03-29T17:39:06Z</time></trkpt><trkpt lat="44.406156733733035" lon="8.971302481722187"><ele>73.0</ele><time>2026-03-29T17:39:07Z</time></trkpt><trkpt lat="44.40621345571463" lon="8.971395728852286"><ele>73.0</ele><time>2026-03-29T17:39:08Z</time></trkpt><trkpt lat="44.40626523542053" lon="8.971500741359522"><ele>73.0</ele><time>2026-03-29T17:39:09Z</time></trkpt><trkpt lat="44.40629214333147" lon="8.971636287466966"><ele>73.0</ele><time>2026-03-29T17:39:10Z</time></trkpt><trkpt lat="44.40630511128072" lon="8.971784144079257"><ele>73.0</ele><time>2026-03-29T17:39:11Z</time></trkpt><trkpt lat="44.40630064978698" lon="8.971946770763873"><ele>75.75</ele><time>2026-03-29T17:39:12Z</time></trkpt><trkpt lat="44.40629715329845" lon="8.972103020626655"><ele>78.5</ele><time>2026-03-29T17:39:13Z</time></trkpt><trkpt lat="44.4063002184476" lon="8.97226699232689"><ele>81.25</ele><time>2026-03-29T17:39:14Z</time></trkpt><trkpt lat="44.406300465108245" lon="8.972452010716488"><ele>84.0</ele><time>2026-03-29T17:39:15Z</time></trkpt><trkpt lat="44.40630463654909" lon="8.972655178232742"><ele>84.0</ele><time>2026-03-29T17:39:16Z</time></trkpt><trkpt lat="44.40629336303757" lon="8.972863398603929"><ele>84.0</ele><time>2026-03-29T17:39:17Z</time></trkpt><trkpt lat="44.40627154322766" lon="8.973059700467793"><ele>84.0</ele><time>2026-03-29T17:39:18Z</time></trkpt><trkpt lat="44.40626195698224" lon="8.97322076701523"><ele>84.0</ele><time>2026-03-29T17:39:19Z</time></trkpt><trkpt lat="44.406252826777184" lon="8.973375816302667"><ele>83.80000000000001</ele><time>2026-03-29T17:39:20Z</time></trkpt><trkpt lat="44.40624512550147" lon="8.973506599457455"><ele>83.60000000000001</ele><time>2026-03-29T17:39:21Z</time></trkpt><trkpt lat="44.40623548378836" lon="8.973649932079203"><ele>83.4</ele><time>2026-03-29T17:39:22Z</time></trkpt><trkpt lat="44.40622443378334" lon="8.973805859786165"><ele>83.2</ele><time>2026-03-29T17:39:23Z</time></trkpt><trkpt lat="44.40621061259585" lon="8.97396931694204"><ele>83.0</ele><time>2026-03-29T17:39:24Z</time></trkpt><trkpt lat="44.40618508187688" lon="8.974095800190849"><ele>83.0</ele><time>2026-03-29T17:39:25Z</time></trkpt><trkpt lat="44.40614084519008" lon="8.97418348763363"><ele>83.0</ele><time>2026-03-29T17:39:26Z</time></trkpt><trkpt lat="44.40608730377209" lon="8.974284855338988"><ele>83.0</ele><time>2026-03-29T17:39:27Z</time></trkpt><trkpt lat="44.40602704005604" lon="8.974396469472651"><ele>83.0</ele><time>2026-03-29T17:39:28Z</time></trkpt><trkpt lat="44.40595561974259" lon="8.974520636684806"><ele>83.0</ele><time>2026-03-29T17:39:29Z</time></trkpt><trkpt lat="44.40590132059714" lon="8.97462820050619"><ele>82.83333333333334</ele><time>2026-03-29T17:39:30Z</time></trkpt><trkpt lat="44.40583763450369" lon="8.974693898702936"><ele>82.66666666666667</ele><time>2026-03-29T17:39:31Z</time></trkpt><trkpt lat="44.40578071028905" lon="8.974775375172623"><ele>82.5</ele><time>2026-03-29T17:39:32Z</time></trkpt><trkpt lat="44.405734529979405" lon="8.974879371012971"><ele>82.33333333333333</ele><time>2026-03-29T17:39:33Z</time></trkpt><trkpt lat="44.4056740330628" lon="8.974979395624537"><ele>82.16666666666666</ele><time>2026-03-29T17:39:34Z</time></trkpt><trkpt lat="44.40561264940054" lon="8.975092884767628"><ele>82.0</ele><time>2026-03-29T17:39:35Z</time></trkpt><trkpt lat="44.405547058961275" lon="8.975203533203972"><ele>83.6</ele><time>2026-03-29T17:39:36Z</time></trkpt><trkpt lat="44.40547739463382" lon="8.975331194194043"><ele>85.19999999999999</ele><time>2026-03-29T17:39:37Z</time></trkpt><trkpt lat="44.40541091274895" lon="8.975456185159084"><ele>86.8</ele><time>2026-03-29T17:39:38Z</time></trkpt><trkpt lat="44.405364998392145" lon="8.97555733253874"><ele>88.4</ele><time>2026-03-29T17:39:39Z</time></trkpt><trkpt lat="44.40530932816206" lon="8.975641457805306"><ele>90.0</ele><time>2026-03-29T17:39:39.999Z</time></trkpt><trkpt lat="44.405264757720865" lon="8.975722517207844"><ele>90.0</ele><time>2026-03-29T17:39:40.999Z</time></trkpt><trkpt lat="44.40522311807572" lon="8.97579824624357"><ele>90.0</ele><time>2026-03-29T17:39:42.999Z</time></trkpt><trkpt lat="44.40517555088334" lon="8.975873908201509"><ele>90.0</ele><time>2026-03-29T17:39:45.999Z</time></trkpt><trkpt lat="44.40513110485042" lon="8.975943908549722"><ele>90.0</ele><time>2026-03-29T17:39:46.999Z</time></trkpt><trkpt lat="44.40507518277153" lon="8.976027051294867"><ele>90.0</ele><time>2026-03-29T17:39:47.999Z</time></trkpt><trkpt lat="44.405012844133225" lon="8.976102741670807"><ele>90.0</ele><time>2026-03-29T17:39:48.999Z</time></trkpt><trkpt lat="44.40493336924664" lon="8.976171294646631"><ele>88.6</ele><time>2026-03-29T17:39:49.999Z</time></trkpt><trkpt lat="44.40483717937409" lon="8.976241647187486"><ele>87.2</ele><time>2026-03-29T17:39:50.999Z</time></trkpt><trkpt lat="44.40472967807181" lon="8.97633893169793"><ele>85.80000000000001</ele><time>2026-03-29T17:39:51.999Z</time></trkpt><trkpt lat="44.40463378935759" lon="8.976400059881023"><ele>84.4</ele><time>2026-03-29T17:39:52.999Z</time></trkpt><trkpt lat="44.40454668114099" lon="8.97645633754694"><ele>83.0</ele><time>2026-03-29T17:39:53.999Z</time></trkpt><trkpt lat="44.40445416076833" lon="8.976504457599274"><ele>83.0</ele><time>2026-03-29T17:39:54.999Z</time></trkpt><trkpt lat="44.404373578157745" lon="8.976583043192242"><ele>83.0</ele><time>2026-03-29T17:39:55.999Z</time></trkpt><trkpt lat="44.40428927217619" lon="8.976639269149501"><ele>83.0</ele><time>2026-03-29T17:39:56.999Z</time></trkpt><trkpt lat="44.4042135822439" lon="8.976746446295044"><ele>83.0</ele><time>2026-03-29T17:39:57.999Z</time></trkpt><trkpt lat="44.40415217810491" lon="8.976849711957849"><ele>83.0</ele><time>2026-03-29T17:39:58.999Z</time></trkpt><trkpt lat="44.40409488515116" lon="8.976933183489136"><ele>81.2</ele><time>2026-03-29T17:39:59.999Z</time></trkpt><trkpt lat="44.40401852653848" lon="8.976997747174002"><ele>79.4</ele><time>2026-03-29T17:40:00.999Z</time></trkpt><trkpt lat="44.40393009888858" lon="8.977032017886717"><ele>77.60000000000001</ele><time>2026-03-29T17:40:01.999Z</time></trkpt><trkpt lat="44.40381696337493" lon="8.977063861264531"><ele>75.80000000000001</ele><time>2026-03-29T17:40:02.999Z</time></trkpt><trkpt lat="44.40371106360838" lon="8.977080369699054"><ele>74.0</ele><time>2026-03-29T17:40:03.999Z</time></trkpt><trkpt lat="44.40361765486323" lon="8.977103337502642"><ele>74.0</ele><time>2026-03-29T17:40:04.999Z</time></trkpt><trkpt lat="44.40353278239251" lon="8.977153871517846"><ele>74.0</ele><time>2026-03-29T17:40:05.999Z</time></trkpt><trkpt lat="44.40343945369044" lon="8.977222684173567"><ele>74.0</ele><time>2026-03-29T17:40:06.999Z</time></trkpt><trkpt lat="44.403359979531295" lon="8.977336843555392"><ele>74.0</ele><time>2026-03-29T17:40:07.999Z</time></trkpt><trkpt lat="44.403282040732414" lon="8.977477658204903"><ele>74.0</ele><time>2026-03-29T17:40:08.999Z</time></trkpt><trkpt lat="44.40321692278484" lon="8.977622529657115"><ele>72.2</ele><time>2026-03-29T17:40:09.999Z</time></trkpt><trkpt lat="44.403154077037264" lon="8.977737723520066"><ele>70.4</ele><time>2026-03-29T17:40:10.999Z</time></trkpt><trkpt lat="44.403104646218274" lon="8.977852954174336"><ele>68.6</ele><time>2026-03-29T17:40:11.999Z</time></trkpt><trkpt lat="44.403037016240475" lon="8.97795213323197"><ele>66.8</ele><time>2026-03-29T17:40:12.999Z</time></trkpt><trkpt lat="44.40298620693673" lon="8.978051168360745"><ele>65.0</ele><time>2026-03-29T17:40:13.999Z</time></trkpt><trkpt lat="44.40291889605663" lon="8.978163600932936"><ele>64.8</ele><time>2026-03-29T17:40:14.999Z</time></trkpt><trkpt lat="44.4028629963929" lon="8.978237865454348"><ele>64.6</ele><time>2026-03-29T17:40:15.999Z</time></trkpt><trkpt lat="44.402806472263975" lon="8.978294569551677"><ele>64.4</ele><time>2026-03-29T17:40:16.999Z</time></trkpt><trkpt lat="44.40271455245293" lon="8.978355221110682"><ele>64.2</ele><time>2026-03-29T17:40:17.999Z</time></trkpt><trkpt lat="44.402601798055755" lon="8.978365430980466"><ele>64.0</ele><time>2026-03-29T17:40:18.999Z</time></trkpt><trkpt lat="44.40248805819872" lon="8.9783360790905"><ele>64.0</ele><time>2026-03-29T17:40:19.999Z</time></trkpt><trkpt lat="44.40237726726127" lon="8.978304997865546"><ele>64.0</ele><time>2026-03-29T17:40:20.999Z</time></trkpt><trkpt lat="44.402277606134675" lon="8.978281271184981"><ele>64.0</ele><time>2026-03-29T17:40:21.999Z</time></trkpt><trkpt lat="44.40218368267309" lon="8.978254889201056"><ele>64.0</ele><time>2026-03-29T17:40:22.999Z</time></trkpt><trkpt lat="44.402083100873924" lon="8.978230894501657"><ele>64.0</ele><time>2026-03-29T17:40:23.999Z</time></trkpt><trkpt lat="44.401973724291594" lon="8.978222708847397"><ele>62.33333333333333</ele><time>2026-03-29T17:40:25Z</time></trkpt><trkpt lat="44.401883992524034" lon="8.978217001862404"><ele>60.666666666666664</ele><time>2026-03-29T17:40:26Z</time></trkpt><trkpt lat="44.40180453009367" lon="8.978190072581048"><ele>59.0</ele><time>2026-03-29T17:40:27Z</time></trkpt><trkpt lat="44.40173014391971" lon="8.978232004075403"><ele>57.33333333333333</ele><time>2026-03-29T17:40:28Z</time></trkpt><trkpt lat="44.40166458557841" lon="8.978256854936767"><ele>55.666666666666664</ele><time>2026-03-29T17:40:29Z</time></trkpt><trkpt lat="44.401590303334984" lon="8.978365269396607"><ele>54.0</ele><time>2026-03-29T17:40:31Z</time></trkpt><trkpt lat="44.40172932026615" lon="8.978485520706235"><ele>52.666666666666664</ele><time>2026-03-29T17:40:35Z</time></trkpt><trkpt lat="44.40179134759402" lon="8.97846046394069"><ele>51.333333333333336</ele><time>2026-03-29T17:40:36Z</time></trkpt><trkpt lat="44.401858382010175" lon="8.978444181239661"><ele>50.0</ele><time>2026-03-29T17:40:37Z</time></trkpt><trkpt lat="44.40195603263923" lon="8.978480736002162"><ele>48.66666666666667</ele><time>2026-03-29T17:40:39Z</time></trkpt><trkpt lat="44.402022637329814" lon="8.97860234389316"><ele>47.333333333333336</ele><time>2026-03-29T17:40:41Z</time></trkpt><trkpt lat="44.40203954168639" lon="8.978704318741546"><ele>46.0</ele><time>2026-03-29T17:40:42Z</time></trkpt><trkpt lat="44.40205585437915" lon="8.978840459208593"><ele>46.0</ele><time>2026-03-29T17:40:43Z</time></trkpt><trkpt lat="44.40207319957925" lon="8.978960238144957"><ele>46.0</ele><time>2026-03-29T17:40:44Z</time></trkpt><trkpt lat="44.40209128970697" lon="8.979078903937058"><ele>46.0</ele><time>2026-03-29T17:40:45Z</time></trkpt><trkpt lat="44.40211141411683" lon="8.979186526841877"><ele>46.0</ele><time>2026-03-29T17:40:46Z</time></trkpt><trkpt lat="44.40211987648701" lon="8.979273981085779"><ele>46.0</ele><time>2026-03-29T17:40:47Z</time></trkpt><trkpt lat="44.4021406427791" lon="8.97937598322506"><ele>46.0</ele><time>2026-03-29T17:40:48Z</time></trkpt><trkpt lat="44.40216133307464" lon="8.979474556272987"><ele>45.0</ele><time>2026-03-29T17:40:49Z</time></trkpt><trkpt lat="44.40218918863801" lon="8.979566871413393"><ele>54.0</ele><time>2026-03-29T17:40:50Z</time></trkpt><trkpt lat="44.40222550741646" lon="8.979701738837377"><ele>54.0</ele><time>2026-03-29T17:40:52Z</time></trkpt><trkpt lat="44.40222791711048" lon="8.979820180290858"><ele>54.0</ele><time>2026-03-29T17:40:54Z</time></trkpt><trkpt lat="44.40222962426009" lon="8.979910168745217"><ele>54.0</ele><time>2026-03-29T17:40:56Z</time></trkpt></trkseg></trk></gpx>